<?xml version='1.0' encoding='UTF-8'?><gpx version="1.1" creator="JPX - https://github.com/jenetics/jpx" xmlns="http://www.topografix.com/GPX/1/1"><trk><trkseg><trkpt lat="42.94198439268716" lon="13.877390078085837"><ele>25.000000000000004</ele><time>2026-04-05T13:33:33Z</time></trkpt><trkpt lat="42.94196623164907" lon="13.877286936038304"><ele>25.0</ele><time>2026-04-05T13:33:36Z</time></trkpt><trkpt lat="42.9419831380486" lon="13.877407179597508"><ele>25.0</ele><time>2026-04-05T13:33:40Z</time></trkpt><trkpt lat="42.942004197965694" lon="13.87755667293903"><ele>25.0</ele><time>2026-04-05T13:33:42Z</time></trkpt><trkpt lat="42.942013245655005" lon="13.87766889439168"><ele>25.000000000000004</ele><time>2026-04-05T13:33:43Z</time></trkpt><trkpt lat="42.94202377442567" lon="13.877782484984913"><ele>25.0</ele><time>2026-04-05T13:33:44Z</time></trkpt><trkpt lat="42.942041275931324" lon="13.877895058486523"><ele>24.4</ele><time>2026-04-05T13:33:45Z</time></trkpt><trkpt lat="42.942040863302246" lon="13.87801433099364"><ele>23.8</ele><time>2026-04-05T13:33:46Z</time></trkpt><trkpt lat="42.94206773107515" lon="13.878123699210908"><ele>23.200000000000003</ele><time>2026-04-05T13:33:47Z</time></trkpt><trkpt lat="42.94207476161923" lon="13.87822694479458"><ele>22.6</ele><time>2026-04-05T13:33:48Z</time></trkpt><trkpt lat="42.942073454058516" lon="13.878372773365625"><ele>22.0</ele><time>2026-04-05T13:33:50Z</time></trkpt><trkpt lat="42.94208763115641" lon="13.87850464122716"><ele>21.200000000000003</ele><time>2026-04-05T13:33:52Z</time></trkpt><trkpt lat="42.94217934699825" lon="13.878563189458175"><ele>20.400000000000002</ele><time>2026-04-05T13:33:53Z</time></trkpt><trkpt lat="42.942257154130864" lon="13.878645840387748"><ele>19.6</ele><time>2026-04-05T13:33:54Z</time></trkpt><trkpt lat="42.94231242747021" lon="13.878765035787934"><ele>18.8</ele><time>2026-04-05T13:33:55Z</time></trkpt><trkpt lat="42.942342087713314" lon="13.878878082669527"><ele>18.0</ele><time>2026-04-05T13:33:56Z</time></trkpt><trkpt lat="42.942350178307095" lon="13.87900977803338"><ele>18.0</ele><time>2026-04-05T13:33:57Z</time></trkpt><trkpt lat="42.94236520906708" lon="13.879165451402217"><ele>18.0</ele><time>2026-04-05T13:33:58Z</time></trkpt><trkpt lat="42.9423744377461" lon="13.879319751893219"><ele>18.0</ele><time>2026-04-05T13:33:59Z</time></trkpt><trkpt lat="42.942377647114924" lon="13.879468591564116"><ele>18.0</ele><time>2026-04-05T13:34:00Z</time></trkpt><trkpt lat="42.942374553565045" lon="13.87960830720917"><ele>18.0</ele><time>2026-04-05T13:34:01Z</time></trkpt><trkpt lat="42.94238249599092" lon="13.879746477272734"><ele>17.5</ele><time>2026-04-05T13:34:02Z</time></trkpt><trkpt lat="42.94238245127952" lon="13.8798739643696"><ele>17.0</ele><time>2026-04-05T13:34:03Z</time></trkpt><trkpt lat="42.942373231424455" lon="13.879976328732775"><ele>16.5</ele><time>2026-04-05T13:34:04Z</time></trkpt><trkpt lat="42.94234569040423" lon="13.880066615885863"><ele>16.0</ele><time>2026-04-05T13:34:07Z</time></trkpt><trkpt lat="42.94228315970577" lon="13.880101298183348"><ele>15.5</ele><time>2026-04-05T13:34:09Z</time></trkpt><trkpt lat="42.94215374679016" lon="13.880137364159472"><ele>15.0</ele><time>2026-04-05T13:34:11Z</time></trkpt><trkpt lat="42.942065824901995" lon="13.880165535376532"><ele>14.0</ele><time>2026-04-05T13:34:12Z</time></trkpt><trkpt lat="42.94197754541017" lon="13.880196861815847"><ele>13.0</ele><time>2026-04-05T13:34:13Z</time></trkpt><trkpt lat="42.94188055649516" lon="13.880226378197518"><ele>12.0</ele><time>2026-04-05T13:34:14Z</time></trkpt><trkpt lat="42.941780264721864" lon="13.880255026162633"><ele>11.0</ele><time>2026-04-05T13:34:15Z</time></trkpt><trkpt lat="42.941674144070284" lon="13.880279733739336"><ele>10.0</ele><time>2026-04-05T13:34:16Z</time></trkpt><trkpt lat="42.94156797753701" lon="13.880308241405743"><ele>10.0</ele><time>2026-04-05T13:34:17Z</time></trkpt><trkpt lat="42.941447997572816" lon="13.880335825988922"><ele>10.0</ele><time>2026-04-05T13:34:18Z</time></trkpt><trkpt lat="42.94133782049922" lon="13.880367411588946"><ele>10.0</ele><time>2026-04-05T13:34:19Z</time></trkpt><trkpt lat="42.941227807930524" lon="13.880397054554418"><ele>10.0</ele><time>2026-04-05T13:34:20Z</time></trkpt><trkpt lat="42.94111734162129" lon="13.880423543405755"><ele>10.0</ele><time>2026-04-05T13:34:21Z</time></trkpt><trkpt lat="42.94100386568695" lon="13.88045256203706"><ele>10.0</ele><time>2026-04-05T13:34:22Z</time></trkpt><trkpt lat="42.94088915378077" lon="13.88048257618584"><ele>10.0</ele><time>2026-04-05T13:34:23Z</time></trkpt><trkpt lat="42.94077006108188" lon="13.880514289678738"><ele>10.0</ele><time>2026-04-05T13:34:24Z</time></trkpt><trkpt lat="42.94064522597744" lon="13.880551445787589"><ele>9.6</ele><time>2026-04-05T13:34:25Z</time></trkpt><trkpt lat="42.940523234853075" lon="13.880588335698151"><ele>9.2</ele><time>2026-04-05T13:34:26Z</time></trkpt><trkpt lat="42.94041385637903" lon="13.880620499149957"><ele>8.8</ele><time>2026-04-05T13:34:27Z</time></trkpt><trkpt lat="42.94031301394121" lon="13.880652726973796"><ele>8.4</ele><time>2026-04-05T13:34:28Z</time></trkpt><trkpt lat="42.94022017916214" lon="13.880681986820559"><ele>8.0</ele><time>2026-04-05T13:34:29Z</time></trkpt><trkpt lat="42.940132453084715" lon="13.880710638221961"><ele>7.999999999999999</ele><time>2026-04-05T13:34:30Z</time></trkpt><trkpt lat="42.940051230129285" lon="13.88073541867177"><ele>8.0</ele><time>2026-04-05T13:34:31Z</time></trkpt><trkpt lat="42.939962226393334" lon="13.880762357341888"><ele>8.0</ele><time>2026-04-05T13:34:32Z</time></trkpt><trkpt lat="42.93987054623611" lon="13.88079171224617"><ele>8.0</ele><time>2026-04-05T13:34:33Z</time></trkpt><trkpt lat="42.93978716234251" lon="13.880815574526961"><ele>7.999999999999999</ele><time>2026-04-05T13:34:34Z</time></trkpt><trkpt lat="42.9397146273175" lon="13.880820115635682"><ele>8.0</ele><time>2026-04-05T13:34:35Z</time></trkpt><trkpt lat="42.9396509932598" lon="13.880807249755005"><ele>8.25</ele><time>2026-04-05T13:34:36Z</time></trkpt><trkpt lat="42.93959017638621" lon="13.880783369097681"><ele>8.5</ele><time>2026-04-05T13:34:37Z</time></trkpt><trkpt lat="42.939507063726964" lon="13.880744897826101"><ele>8.75</ele><time>2026-04-05T13:34:39Z</time></trkpt><trkpt lat="42.939533108646266" lon="13.88064621862137"><ele>9.0</ele><time>2026-04-05T13:37:32Z</time></trkpt><trkpt lat="42.93931432010477" lon="13.880899048902547"><ele>8.5</ele><time>2026-04-05T13:37:33Z</time></trkpt><trkpt lat="42.93924046791858" lon="13.880939160263958"><ele>8.0</ele><time>2026-04-05T13:37:35Z</time></trkpt><trkpt lat="42.93920010591742" lon="13.881006926836424"><ele>7.5</ele><time>2026-04-05T13:37:38Z</time></trkpt><trkpt lat="42.93913831462292" lon="13.881041194461176"><ele>7.0</ele><time>2026-04-05T13:37:42Z</time></trkpt><trkpt lat="42.93905304748377" lon="13.88107165050368"><ele>6.5</ele><time>2026-04-05T13:37:43Z</time></trkpt><trkpt lat="42.938953769741" lon="13.881110747355455"><ele>6.0</ele><time>2026-04-05T13:37:44Z</time></trkpt><trkpt lat="42.93885139061893" lon="13.881151542633232"><ele>5.75</ele><time>2026-04-05T13:37:45Z</time></trkpt><trkpt lat="42.93873869182505" lon="13.881188571245694"><ele>5.5</ele><time>2026-04-05T13:37:46Z</time></trkpt><trkpt lat="42.93861500007718" lon="13.881230504522888"><ele>5.25</ele><time>2026-04-05T13:37:47Z</time></trkpt><trkpt lat="42.93848835085004" lon="13.881269440129381"><ele>5.0</ele><time>2026-04-05T13:37:48Z</time></trkpt><trkpt lat="42.93836424625783" lon="13.88130355495039"><ele>5.75</ele><time>2026-04-05T13:37:49Z</time></trkpt><trkpt lat="42.93822958636768" lon="13.88135163185492"><ele>6.5</ele><time>2026-04-05T13:37:50Z</time></trkpt><trkpt lat="42.93808549571144" lon="13.881403900882825"><ele>7.25</ele><time>2026-04-05T13:37:51Z</time></trkpt><trkpt lat="42.93794454700989" lon="13.881463188183316"><ele>8.0</ele><time>2026-04-05T13:37:52Z</time></trkpt><trkpt lat="42.93779428550678" lon="13.881523425971677"><ele>8.0</ele><time>2026-04-05T13:37:53Z</time></trkpt><trkpt lat="42.93764924975047" lon="13.881591056221405"><ele>8.0</ele><time>2026-04-05T13:37:54Z</time></trkpt><trkpt lat="42.93749960667946" lon="13.881655587972437"><ele>8.0</ele><time>2026-04-05T13:37:55Z</time></trkpt><trkpt lat="42.93734898526798" lon="13.881722386382442"><ele>7.333333333333333</ele><time>2026-04-05T13:37:56Z</time></trkpt><trkpt lat="42.937201950949344" lon="13.88178508014017"><ele>6.666666666666666</ele><time>2026-04-05T13:37:57Z</time></trkpt><trkpt lat="42.93704715544203" lon="13.881846447927636"><ele>6.0</ele><time>2026-04-05T13:37:58Z</time></trkpt><trkpt lat="42.9368986508726" lon="13.881906809023135"><ele>6.0</ele><time>2026-04-05T13:37:59Z</time></trkpt><trkpt lat="42.93674404316474" lon="13.88196114826141"><ele>6.0</ele><time>2026-04-05T13:38:00Z</time></trkpt><trkpt lat="42.93657958344272" lon="13.882011761050757"><ele>6.0</ele><time>2026-04-05T13:38:01Z</time></trkpt><trkpt lat="42.93642395226908" lon="13.882053934014332"><ele>6.25</ele><time>2026-04-05T13:38:02Z</time></trkpt><trkpt lat="42.936277895272646" lon="13.882097692044713"><ele>6.5</ele><time>2026-04-05T13:38:03Z</time></trkpt><trkpt lat="42.93613372357449" lon="13.882135149445341"><ele>6.75</ele><time>2026-04-05T13:38:04Z</time></trkpt><trkpt lat="42.93599813699509" lon="13.882166148675488"><ele>7.0</ele><time>2026-04-05T13:38:05Z</time></trkpt><trkpt lat="42.93587786577168" lon="13.882192966421975"><ele>7.0</ele><time>2026-04-05T13:38:06Z</time></trkpt><trkpt lat="42.9357664125051" lon="13.882209262884162"><ele>6.999999999999999</ele><time>2026-04-05T13:38:07Z</time></trkpt><trkpt lat="42.93566327658896" lon="13.882229820266303"><ele>6.999999999999999</ele><time>2026-04-05T13:38:08Z</time></trkpt><trkpt lat="42.93555797727451" lon="13.882251689024372"><ele>7.0</ele><time>2026-04-05T13:38:09Z</time></trkpt><trkpt lat="42.935444693453405" lon="13.882272610329734"><ele>7.0</ele><time>2026-04-05T13:38:10Z</time></trkpt><trkpt lat="42.93532332977166" lon="13.882292167301072"><ele>7.0</ele><time>2026-04-05T13:38:11Z</time></trkpt><trkpt lat="42.93519186532596" lon="13.882316017246005"><ele>7.0</ele><time>2026-04-05T13:38:12Z</time></trkpt><trkpt lat="42.93505626946181" lon="13.882342977015742"><ele>7.0</ele><time>2026-04-05T13:38:13Z</time></trkpt><trkpt lat="42.93492229265236" lon="13.882369166566862"><ele>7.0</ele><time>2026-04-05T13:38:14Z</time></trkpt><trkpt lat="42.93478683328023" lon="13.882390391367245"><ele>8.25</ele><time>2026-04-05T13:38:15Z</time></trkpt><trkpt lat="42.93466095618462" lon="13.882414319637645"><ele>9.5</ele><time>2026-04-05T13:38:16Z</time></trkpt><trkpt lat="42.93453868019263" lon="13.882433995276603"><ele>10.75</ele><time>2026-04-05T13:38:17Z</time></trkpt><trkpt lat="42.93442192246447" lon="13.882451324477145"><ele>12.0</ele><time>2026-04-05T13:38:18Z</time></trkpt><trkpt lat="42.93430580875021" lon="13.882473030875259"><ele>12.5</ele><time>2026-04-05T13:38:19Z</time></trkpt><trkpt lat="42.934192217129116" lon="13.882494853372272"><ele>13.0</ele><time>2026-04-05T13:38:20Z</time></trkpt><trkpt lat="42.93407691281987" lon="13.882521521817072"><ele>13.5</ele><time>2026-04-05T13:38:21Z</time></trkpt><trkpt lat="42.93396010455717" lon="13.88255087049892"><ele>14.0</ele><time>2026-04-05T13:38:22Z</time></trkpt><trkpt lat="42.93384376373909" lon="13.882596755951313"><ele>13.0</ele><time>2026-04-05T13:38:23Z</time></trkpt><trkpt lat="42.933725422614835" lon="13.882662830660562"><ele>12.0</ele><time>2026-04-05T13:38:24Z</time></trkpt><trkpt lat="42.933604472273444" lon="13.882744690376729"><ele>11.0</ele><time>2026-04-05T13:38:25Z</time></trkpt><trkpt lat="42.93347696238148" lon="13.882830995422022"><ele>10.0</ele><time>2026-04-05T13:38:26Z</time></trkpt><trkpt lat="42.93334275577206" lon="13.882926169856171"><ele>9.666666666666668</ele><time>2026-04-05T13:38:27Z</time></trkpt><trkpt lat="42.933203708303736" lon="13.883017697594761"><ele>9.333333333333334</ele><time>2026-04-05T13:38:28Z</time></trkpt><trkpt lat="42.93304719447731" lon="13.883100392891674"><ele>9.0</ele><time>2026-04-05T13:38:29Z</time></trkpt><trkpt lat="42.93288145091314" lon="13.883182529486154"><ele>9.0</ele><time>2026-04-05T13:38:30Z</time></trkpt><trkpt lat="42.93269189962341" lon="13.883262580144185"><ele>9.0</ele><time>2026-04-05T13:38:31Z</time></trkpt><trkpt lat="42.9325311253249" lon="13.883363222986661"><ele>9.0</ele><time>2026-04-05T13:38:32Z</time></trkpt><trkpt lat="42.93235178806361" lon="13.883451565468585"><ele>7.0</ele><time>2026-04-05T13:38:33Z</time></trkpt><trkpt lat="42.93217071671182" lon="13.883544812859345"><ele>5.0</ele><time>2026-04-05T13:38:34Z</time></trkpt><trkpt lat="42.93199401480907" lon="13.883633820018353"><ele>3.0</ele><time>2026-04-05T13:38:35Z</time></trkpt><trkpt lat="42.93181741791271" lon="13.883709789856725"><ele>4.333333333333334</ele><time>2026-04-05T13:38:36Z</time></trkpt><trkpt lat="42.93163935098256" lon="13.88378616953538"><ele>5.666666666666667</ele><time>2026-04-05T13:38:37Z</time></trkpt><trkpt lat="42.931457767873056" lon="13.883848133192258"><ele>7.0</ele><time>2026-04-05T13:38:38Z</time></trkpt><trkpt lat="42.93127241040892" lon="13.883907149727204"><ele>7.0</ele><time>2026-04-05T13:38:39Z</time></trkpt><trkpt lat="42.93108547474102" lon="13.883964472990622"><ele>7.0</ele><time>2026-04-05T13:38:40Z</time></trkpt><trkpt lat="42.93090247857875" lon="13.884025795830919"><ele>7.0</ele><time>2026-04-05T13:38:41Z</time></trkpt><trkpt lat="42.93072240358713" lon="13.884081261242324"><ele>7.0</ele><time>2026-04-05T13:38:42Z</time></trkpt><trkpt lat="42.93054195089039" lon="13.88413547442197"><ele>7.0</ele><time>2026-04-05T13:38:43Z</time></trkpt><trkpt lat="42.9303658528083" lon="13.884193872236862"><ele>7.0</ele><time>2026-04-05T13:38:44Z</time></trkpt><trkpt lat="42.930183197722435" lon="13.884251261759129"><ele>6.0</ele><time>2026-04-05T13:38:45Z</time></trkpt><trkpt lat="42.930001691335406" lon="13.88431034642221"><ele>5.0</ele><time>2026-04-05T13:38:46Z</time></trkpt><trkpt lat="42.92982654412364" lon="13.88436664944972"><ele>4.0</ele><time>2026-04-05T13:38:47Z</time></trkpt><trkpt lat="42.929648710417624" lon="13.884427113652814"><ele>4.0</ele><time>2026-04-05T13:38:48Z</time></trkpt><trkpt lat="42.92946777950274" lon="13.884486471233034"><ele>4.0</ele><time>2026-04-05T13:38:49Z</time></trkpt><trkpt lat="42.929277243494816" lon="13.88454172629043"><ele>4.0</ele><time>2026-04-05T13:38:50Z</time></trkpt><trkpt lat="42.929106946734" lon="13.884602919056318"><ele>4.333333333333333</ele><time>2026-04-05T13:38:51Z</time></trkpt><trkpt lat="42.92892496466524" lon="13.884657299413487"><ele>4.666666666666667</ele><time>2026-04-05T13:38:52Z</time></trkpt><trkpt lat="42.92874830834256" lon="13.884711258679115"><ele>5.0</ele><time>2026-04-05T13:38:53Z</time></trkpt><trkpt lat="42.928567897598725" lon="13.884770840747944"><ele>5.666666666666667</ele><time>2026-04-05T13:38:54Z</time></trkpt><trkpt lat="42.92839124001334" lon="13.884821415020745"><ele>6.333333333333334</ele><time>2026-04-05T13:38:55Z</time></trkpt><trkpt lat="42.92821480072375" lon="13.884876739111943"><ele>7.0</ele><time>2026-04-05T13:38:56Z</time></trkpt><trkpt lat="42.92804311367452" lon="13.8849267509283"><ele>7.0</ele><time>2026-04-05T13:38:57Z</time></trkpt><trkpt lat="42.92787318833769" lon="13.884975478881739"><ele>7.0</ele><time>2026-04-05T13:38:58Z</time></trkpt><trkpt lat="42.92771070823011" lon="13.885018847244545"><ele>7.0</ele><time>2026-04-05T13:38:59Z</time></trkpt><trkpt lat="42.92755884545307" lon="13.885060681515142"><ele>6.6</ele><time>2026-04-05T13:39:00Z</time></trkpt><trkpt lat="42.927424037620916" lon="13.88510203779431"><ele>6.199999999999999</ele><time>2026-04-05T13:39:01Z</time></trkpt><trkpt lat="42.92730553444996" lon="13.885144131479233"><ele>5.8</ele><time>2026-04-05T13:39:02Z</time></trkpt><trkpt lat="42.92720511874783" lon="13.88518811668466"><ele>5.4</ele><time>2026-04-05T13:39:03Z</time></trkpt><trkpt lat="42.927124787088026" lon="13.885218786334788"><ele>5.0</ele><time>2026-04-05T13:39:04Z</time></trkpt><trkpt lat="42.9270613004937" lon="13.885235435480384"><ele>5.0</ele><time>2026-04-05T13:39:05Z</time></trkpt><trkpt lat="42.92699047709902" lon="13.885241246067174"><ele>5.0</ele><time>2026-04-05T13:39:06Z</time></trkpt><trkpt lat="42.92692339719842" lon="13.885262788530623"><ele>5.0</ele><time>2026-04-05T13:39:07Z</time></trkpt><trkpt lat="42.92686433920799" lon="13.885324459982654"><ele>5.0</ele><time>2026-04-05T13:39:08Z</time></trkpt><trkpt lat="42.92684703933698" lon="13.88542451150714"><ele>5.0</ele><time>2026-04-05T13:39:09Z</time></trkpt><trkpt lat="42.92686282729751" lon="13.885539948285821"><ele>5.0</ele><time>2026-04-05T13:39:10Z</time></trkpt><trkpt lat="42.92691635508866" lon="13.885656428438923"><ele>5.0</ele><time>2026-04-05T13:39:11Z</time></trkpt><trkpt lat="42.926968752258446" lon="13.885784916903695"><ele>5.0</ele><time>2026-04-05T13:39:12Z</time></trkpt><trkpt lat="42.92697710843641" lon="13.885944860662052"><ele>5.0</ele><time>2026-04-05T13:39:13Z</time></trkpt><trkpt lat="42.92695465704572" lon="13.886125297769867"><ele>5.0</ele><time>2026-04-05T13:39:14Z</time></trkpt><trkpt lat="42.926924405728" lon="13.886315868356926"><ele>4.75</ele><time>2026-04-05T13:39:15Z</time></trkpt><trkpt lat="42.926890839128205" lon="13.886490441387576"><ele>4.5</ele><time>2026-04-05T13:39:16Z</time></trkpt><trkpt lat="42.92684823854098" lon="13.886633062244922"><ele>4.25</ele><time>2026-04-05T13:39:17Z</time></trkpt><trkpt lat="42.926781724363586" lon="13.886745514978422"><ele>4.0</ele><time>2026-04-05T13:39:18Z</time></trkpt><trkpt lat="42.92658037719906" lon="13.886858597540614"><ele>4.6</ele><time>2026-04-05T13:39:20Z</time></trkpt><trkpt lat="42.92647986216221" lon="13.886900288792203"><ele>5.2</ele><time>2026-04-05T13:39:21Z</time></trkpt><trkpt lat="42.926404687759785" lon="13.88699763503681"><ele>5.799999999999999</ele><time>2026-04-05T13:39:22Z</time></trkpt><trkpt lat="42.92636143665941" lon="13.887147430315656"><ele>6.3999999999999995</ele><time>2026-04-05T13:39:23Z</time></trkpt><trkpt lat="42.92635328764001" lon="13.887303163263892"><ele>7.0</ele><time>2026-04-05T13:39:24Z</time></trkpt><trkpt lat="42.926375459005556" lon="13.887443585722172"><ele>7.0</ele><time>2026-04-05T13:39:25Z</time></trkpt><trkpt lat="42.92641779345923" lon="13.887593328081035"><ele>7.0</ele><time>2026-04-05T13:39:26Z</time></trkpt><trkpt lat="42.92644837008649" lon="13.8877558771027"><ele>7.0</ele><time>2026-04-05T13:39:27Z</time></trkpt><trkpt lat="42.9264607735486" lon="13.887918926493743"><ele>7.0</ele><time>2026-04-05T13:39:28Z</time></trkpt><trkpt lat="42.92646901908284" lon="13.888086885832987"><ele>6.75</ele><time>2026-04-05T13:39:29Z</time></trkpt><trkpt lat="42.92647213318828" lon="13.888254593843344"><ele>6.5</ele><time>2026-04-05T13:39:30Z</time></trkpt><trkpt lat="42.92647403903826" lon="13.888415009816612"><ele>6.25</ele><time>2026-04-05T13:39:31Z</time></trkpt><trkpt lat="42.92647518956935" lon="13.888565956416556"><ele>6.0</ele><time>2026-04-05T13:39:32Z</time></trkpt><trkpt lat="42.92647644742677" lon="13.888728293372804"><ele>5.75</ele><time>2026-04-05T13:39:33Z</time></trkpt><trkpt lat="42.92647414316064" lon="13.88890307940727"><ele>5.5</ele><time>2026-04-05T13:39:34Z</time></trkpt><trkpt lat="42.926467723278535" lon="13.889092709409683"><ele>5.25</ele><time>2026-04-05T13:39:35Z</time></trkpt><trkpt lat="42.92646246670691" lon="13.88929005779886"><ele>5.0</ele><time>2026-04-05T13:39:36Z</time></trkpt><trkpt lat="42.9264558819631" lon="13.889494689791833"><ele>4.333333333333334</ele><time>2026-04-05T13:39:37Z</time></trkpt><trkpt lat="42.92645297502234" lon="13.889707004760872"><ele>3.666666666666667</ele><time>2026-04-05T13:39:38Z</time></trkpt><trkpt lat="42.9264481070427" lon="13.889932557375802"><ele>3.0</ele><time>2026-04-05T13:39:39Z</time></trkpt><trkpt lat="42.926447983300754" lon="13.89015670523502"><ele>2.6666666666666665</ele><time>2026-04-05T13:39:40Z</time></trkpt><trkpt lat="42.926442810137125" lon="13.890390023629218"><ele>2.333333333333333</ele><time>2026-04-05T13:39:41Z</time></trkpt><trkpt lat="42.92643783136635" lon="13.890631136574989"><ele>2.0</ele><time>2026-04-05T13:39:42Z</time></trkpt><trkpt lat="42.92642639507858" lon="13.89087416993589"><ele>1.6666666666666665</ele><time>2026-04-05T13:39:43Z</time></trkpt><trkpt lat="42.92640832399694" lon="13.891120591940819"><ele>1.3333333333333333</ele><time>2026-04-05T13:39:44Z</time></trkpt><trkpt lat="42.92638659203139" lon="13.891356033628702"><ele>1.0</ele><time>2026-04-05T13:39:45Z</time></trkpt><trkpt lat="42.926339601563384" lon="13.891578288688933"><ele>1.6666666666666665</ele><time>2026-04-05T13:39:46Z</time></trkpt><trkpt lat="42.9263154064317" lon="13.891799187262253"><ele>2.3333333333333335</ele><time>2026-04-05T13:39:47Z</time></trkpt><trkpt lat="42.92626271499963" lon="13.892010316604356"><ele>3.0</ele><time>2026-04-05T13:39:48Z</time></trkpt><trkpt lat="42.92620211738818" lon="13.892219883562374"><ele>3.0</ele><time>2026-04-05T13:39:49Z</time></trkpt><trkpt lat="42.926130584257336" lon="13.892427575196958"><ele>3.0</ele><time>2026-04-05T13:39:50Z</time></trkpt><trkpt lat="42.92604868925797" lon="13.89263907453767"><ele>3.0</ele><time>2026-04-05T13:39:51Z</time></trkpt><trkpt lat="42.92593280736616" lon="13.892838508418237"><ele>4.0</ele><time>2026-04-05T13:39:52Z</time></trkpt><trkpt lat="42.92581587875312" lon="13.893052788899857"><ele>5.0</ele><time>2026-04-05T13:39:53Z</time></trkpt><trkpt lat="42.92569036466666" lon="13.893261493492998"><ele>6.0</ele><time>2026-04-05T13:39:54Z</time></trkpt><trkpt lat="42.92555584506217" lon="13.89345555811651"><ele>6.0</ele><time>2026-04-05T13:39:55Z</time></trkpt><trkpt lat="42.925399056766885" lon="13.89363647545891"><ele>6.0</ele><time>2026-04-05T13:39:56Z</time></trkpt><trkpt lat="42.92523927505171" lon="13.89380796599145"><ele>6.0</ele><time>2026-04-05T13:39:57Z</time></trkpt><trkpt lat="42.92505573289872" lon="13.893938665395668"><ele>5.333333333333333</ele><time>2026-04-05T13:39:58Z</time></trkpt><trkpt lat="42.92486954871958" lon="13.894063504876337"><ele>4.666666666666666</ele><time>2026-04-05T13:39:59Z</time></trkpt><trkpt lat="42.92467862349261" lon="13.894187702461"><ele>4.0</ele><time>2026-04-05T13:40:00Z</time></trkpt><trkpt lat="42.924477113837824" lon="13.894278129963912"><ele>4.0</ele><time>2026-04-05T13:40:01Z</time></trkpt><trkpt lat="42.92426350749695" lon="13.89436239840536"><ele>4.0</ele><time>2026-04-05T13:40:02Z</time></trkpt><trkpt lat="42.924027129762194" lon="13.894445607614587"><ele>4.0</ele><time>2026-04-05T13:40:03Z</time></trkpt><trkpt lat="42.92378122735071" lon="13.89454270291537"><ele>4.0</ele><time>2026-04-05T13:40:04Z</time></trkpt><trkpt lat="42.92353541666986" lon="13.894654933358911"><ele>3.5</ele><time>2026-04-05T13:40:05Z</time></trkpt><trkpt lat="42.92329527905599" lon="13.894786949595659"><ele>3.0</ele><time>2026-04-05T13:40:06Z</time></trkpt><trkpt lat="42.92306450855453" lon="13.894942995415349"><ele>4.0</ele><time>2026-04-05T13:40:07Z</time></trkpt><trkpt lat="42.92284989941817" lon="13.895131440934986"><ele>5.0</ele><time>2026-04-05T13:40:08Z</time></trkpt><trkpt lat="42.9226500098484" lon="13.895329002662828"><ele>6.0</ele><time>2026-04-05T13:40:09Z</time></trkpt><trkpt lat="42.92245797509489" lon="13.895528336955561"><ele>7.0</ele><time>2026-04-05T13:40:10Z</time></trkpt><trkpt lat="42.922260823743706" lon="13.895694296739277"><ele>7.0</ele><time>2026-04-05T13:40:11Z</time></trkpt><trkpt lat="42.92205397068923" lon="13.895834670438111"><ele>7.0</ele><time>2026-04-05T13:40:12Z</time></trkpt><trkpt lat="42.92184322208259" lon="13.895944175687989"><ele>5.333333333333334</ele><time>2026-04-05T13:40:13Z</time></trkpt><trkpt lat="42.921626673458256" lon="13.89602595498828"><ele>3.666666666666667</ele><time>2026-04-05T13:40:14Z</time></trkpt><trkpt lat="42.92141478630634" lon="13.896084833517229"><ele>2.0</ele><time>2026-04-05T13:40:15Z</time></trkpt><trkpt lat="42.921193126213076" lon="13.896125335572712"><ele>2.0</ele><time>2026-04-05T13:40:16Z</time></trkpt><trkpt lat="42.92096992323035" lon="13.89615399847677"><ele>2.0</ele><time>2026-04-05T13:40:17Z</time></trkpt><trkpt lat="42.92074761241851" lon="13.896178391466735"><ele>2.0</ele><time>2026-04-05T13:40:18Z</time></trkpt><trkpt lat="42.92052341945878" lon="13.896203285682127"><ele>3.0</ele><time>2026-04-05T13:40:19Z</time></trkpt><trkpt lat="42.920300623951086" lon="13.89622999961481"><ele>4.0</ele><time>2026-04-05T13:40:20Z</time></trkpt><trkpt lat="42.92007491248438" lon="13.89625291641898"><ele>4.0</ele><time>2026-04-05T13:40:21Z</time></trkpt><trkpt lat="42.919845449041574" lon="13.896278544479612"><ele>4.0</ele><time>2026-04-05T13:40:22Z</time></trkpt><trkpt lat="42.91961842907042" lon="13.896304487573895"><ele>4.0</ele><time>2026-04-05T13:40:23Z</time></trkpt><trkpt lat="42.91939023493666" lon="13.896331528307345"><ele>4.0</ele><time>2026-04-05T13:40:24Z</time></trkpt><trkpt lat="42.91916145923795" lon="13.896361469687244"><ele>3.0</ele><time>2026-04-05T13:40:25Z</time></trkpt><trkpt lat="42.91893394021799" lon="13.896397461145986"><ele>2.0</ele><time>2026-04-05T13:40:26Z</time></trkpt><trkpt lat="42.918705657030614" lon="13.89644408644299"><ele>2.0</ele><time>2026-04-05T13:40:27Z</time></trkpt><trkpt lat="42.91848001006606" lon="13.896494388002457"><ele>2.0</ele><time>2026-04-05T13:40:28Z</time></trkpt><trkpt lat="42.91825280090647" lon="13.896546875576703"><ele>2.5</ele><time>2026-04-05T13:40:29Z</time></trkpt><trkpt lat="42.91802599742516" lon="13.896602111119883"><ele>3.0</ele><time>2026-04-05T13:40:30Z</time></trkpt><trkpt lat="42.91780290372398" lon="13.896659493108265"><ele>3.0</ele><time>2026-04-05T13:40:31Z</time></trkpt><trkpt lat="42.917579732836984" lon="13.896724636130422"><ele>3.0</ele><time>2026-04-05T13:40:32Z</time></trkpt><trkpt lat="42.917359660489254" lon="13.896793187311182"><ele>2.0</ele><time>2026-04-05T13:40:33Z</time></trkpt><trkpt lat="42.917139942578636" lon="13.896865410050404"><ele>1.0</ele><time>2026-04-05T13:40:34Z</time></trkpt><trkpt lat="42.91692152587382" lon="13.896941893098509"><ele>1.3333333333333333</ele><time>2026-04-05T13:40:35Z</time></trkpt><trkpt lat="42.916706015640486" lon="13.897022935596414"><ele>1.6666666666666665</ele><time>2026-04-05T13:40:36Z</time></trkpt><trkpt lat="42.91648919882218" lon="13.897099513334565"><ele>2.0</ele><time>2026-04-05T13:40:37Z</time></trkpt><trkpt lat="42.91627049491352" lon="13.897173310521548"><ele>2.0</ele><time>2026-04-05T13:40:38Z</time></trkpt><trkpt lat="42.916054059489504" lon="13.89723535900152"><ele>2.0</ele><time>2026-04-05T13:40:39Z</time></trkpt><trkpt lat="42.915834540744456" lon="13.897293500837117"><ele>2.0</ele><time>2026-04-05T13:40:40Z</time></trkpt><trkpt lat="42.91561320260213" lon="13.897344893918184"><ele>3.0</ele><time>2026-04-05T13:40:41Z</time></trkpt><trkpt lat="42.91538933096659" lon="13.897386522660154"><ele>4.0</ele><time>2026-04-05T13:40:42Z</time></trkpt><trkpt lat="42.91516190624374" lon="13.897421205410163"><ele>4.0</ele><time>2026-04-05T13:40:43Z</time></trkpt><trkpt lat="42.91493620450031" lon="13.897446033632571"><ele>4.0</ele><time>2026-04-05T13:40:44Z</time></trkpt><trkpt lat="42.91471087779665" lon="13.897466828217881"><ele>4.0</ele><time>2026-04-05T13:40:45Z</time></trkpt><trkpt lat="42.91448524814602" lon="13.897480148143151"><ele>4.0</ele><time>2026-04-05T13:40:46Z</time></trkpt><trkpt lat="42.91426168617163" lon="13.897490444876807"><ele>3.6666666666666665</ele><time>2026-04-05T13:40:47Z</time></trkpt><trkpt lat="42.914039080937926" lon="13.897491839970828"><ele>3.333333333333333</ele><time>2026-04-05T13:40:48Z</time></trkpt><trkpt lat="42.913816347955276" lon="13.897483907877723"><ele>3.0</ele><time>2026-04-05T13:40:49Z</time></trkpt><trkpt lat="42.91359824357042" lon="13.897475079727235"><ele>2.6666666666666665</ele><time>2026-04-05T13:40:50Z</time></trkpt><trkpt lat="42.9133792283056" lon="13.897467461027032"><ele>2.333333333333333</ele><time>2026-04-05T13:40:51Z</time></trkpt><trkpt lat="42.91315657907608" lon="13.89745575207635"><ele>2.0</ele><time>2026-04-05T13:40:52Z</time></trkpt><trkpt lat="42.912934809432414" lon="13.897443420628322"><ele>2.0</ele><time>2026-04-05T13:40:53Z</time></trkpt><trkpt lat="42.91271289574837" lon="13.897432672182367"><ele>2.0</ele><time>2026-04-05T13:40:54Z</time></trkpt><trkpt lat="42.91249164398409" lon="13.897419509854927"><ele>2.0</ele><time>2026-04-05T13:40:55Z</time></trkpt><trkpt lat="42.91227079640089" lon="13.897409420369792"><ele>2.0</ele><time>2026-04-05T13:40:56Z</time></trkpt><trkpt lat="42.91204999268018" lon="13.897397533780577"><ele>2.0</ele><time>2026-04-05T13:40:57.001Z</time></trkpt><trkpt lat="42.9118296797066" lon="13.897385925850335"><ele>2.0</ele><time>2026-04-05T13:40:58.001Z</time></trkpt><trkpt lat="42.911608426708035" lon="13.89737465249929"><ele>2.333333333333333</ele><time>2026-04-05T13:40:59.001Z</time></trkpt><trkpt lat="42.91138524951381" lon="13.89736257028641"><ele>2.6666666666666665</ele><time>2026-04-05T13:41:00.001Z</time></trkpt><trkpt lat="42.911162318771325" lon="13.897354367226336"><ele>3.0</ele><time>2026-04-05T13:41:01.001Z</time></trkpt><trkpt lat="42.910937339904976" lon="13.897353710814192"><ele>2.6666666666666665</ele><time>2026-04-05T13:41:02.001Z</time></trkpt><trkpt lat="42.91071390255067" lon="13.897359869446777"><ele>2.333333333333333</ele><time>2026-04-05T13:41:03.001Z</time></trkpt><trkpt lat="42.91049162910887" lon="13.89736847928045"><ele>2.0</ele><time>2026-04-05T13:41:04.001Z</time></trkpt><trkpt lat="42.91027009952562" lon="13.89737865456975"><ele>2.5</ele><time>2026-04-05T13:41:05.001Z</time></trkpt><trkpt lat="42.91004617347741" lon="13.897389091052862"><ele>3.0</ele><time>2026-04-05T13:41:06.001Z</time></trkpt><trkpt lat="42.909817036323595" lon="13.897404302540231"><ele>3.0</ele><time>2026-04-05T13:41:07.001Z</time></trkpt><trkpt lat="42.90958467865709" lon="13.897423430000932"><ele>3.0</ele><time>2026-04-05T13:41:08.001Z</time></trkpt><trkpt lat="42.90935006879958" lon="13.897441887892303"><ele>3.0</ele><time>2026-04-05T13:41:09.001Z</time></trkpt><trkpt lat="42.909116319506225" lon="13.897460308073827"><ele>3.0</ele><time>2026-04-05T13:41:10.001Z</time></trkpt><trkpt lat="42.90888099749877" lon="13.897478925646784"><ele>3.0</ele><time>2026-04-05T13:41:11.001Z</time></trkpt><trkpt lat="42.90864874673306" lon="13.89749914155446"><ele>3.0</ele><time>2026-04-05T13:41:12.001Z</time></trkpt><trkpt lat="42.90842014873543" lon="13.897518182746566"><ele>2.5</ele><time>2026-04-05T13:41:13.001Z</time></trkpt><trkpt lat="42.908190999232474" lon="13.89753696063436"><ele>2.0</ele><time>2026-04-05T13:41:14.001Z</time></trkpt><trkpt lat="42.90796007655711" lon="13.89755754552556"><ele>2.0</ele><time>2026-04-05T13:41:15.001Z</time></trkpt><trkpt lat="42.90773157710186" lon="13.897578837303806"><ele>2.0</ele><time>2026-04-05T13:41:16.001Z</time></trkpt><trkpt lat="42.90750382584307" lon="13.897595712574576"><ele>1.0</ele><time>2026-04-05T13:41:17Z</time></trkpt><trkpt lat="42.90727370159972" lon="13.897619605072194"><ele>0.0</ele><time>2026-04-05T13:41:18Z</time></trkpt><trkpt lat="42.90705356641626" lon="13.897638867086988"><ele>0.0</ele><time>2026-04-05T13:41:19Z</time></trkpt><trkpt lat="42.90685295707757" lon="13.897658292430505"><ele>0.0</ele><time>2026-04-05T13:41:20Z</time></trkpt><trkpt lat="42.90666452299455" lon="13.897674287125529"><ele>0.0</ele><time>2026-04-05T13:41:21Z</time></trkpt><trkpt lat="42.906472746789206" lon="13.897691205455255"><ele>-0.3333333333333333</ele><time>2026-04-05T13:41:22Z</time></trkpt><trkpt lat="42.90626607885305" lon="13.89771189080354"><ele>-0.6666666666666666</ele><time>2026-04-05T13:41:23Z</time></trkpt><trkpt lat="42.906048932521806" lon="13.897734371514641"><ele>-1.0</ele><time>2026-04-05T13:41:24Z</time></trkpt><trkpt lat="42.90582630353738" lon="13.897752809768644"><ele>0.0</ele><time>2026-04-05T13:41:25Z</time></trkpt><trkpt lat="42.905603295001114" lon="13.897765998608344"><ele>1.0</ele><time>2026-04-05T13:41:26Z</time></trkpt><trkpt lat="42.90537809729065" lon="13.897776886866614"><ele>2.0</ele><time>2026-04-05T13:41:27Z</time></trkpt><trkpt lat="42.905151322892635" lon="13.897788694634762"><ele>1.0</ele><time>2026-04-05T13:41:28Z</time></trkpt><trkpt lat="42.90492837592935" lon="13.897803142817887"><ele>0.0</ele><time>2026-04-05T13:41:29Z</time></trkpt><trkpt lat="42.90470138270325" lon="13.897820331931474"><ele>0.0</ele><time>2026-04-05T13:41:30Z</time></trkpt><trkpt lat="42.90447611189801" lon="13.897839196531681"><ele>0.0</ele><time>2026-04-05T13:41:31Z</time></trkpt><trkpt lat="42.90424888800942" lon="13.897858713904586"><ele>1.0</ele><time>2026-04-05T13:41:32Z</time></trkpt><trkpt lat="42.90402296295557" lon="13.897875915690053"><ele>2.0</ele><time>2026-04-05T13:41:33Z</time></trkpt><trkpt lat="42.903798913241054" lon="13.897893960654397"><ele>2.0</ele><time>2026-04-05T13:41:34Z</time></trkpt><trkpt lat="42.90357449144335" lon="13.897924157492348"><ele>2.0</ele><time>2026-04-05T13:41:35Z</time></trkpt><trkpt lat="42.90335483685836" lon="13.897970661997046"><ele>2.0</ele><time>2026-04-05T13:41:36Z</time></trkpt><trkpt lat="42.90314898077745" lon="13.898036298188195"><ele>2.0</ele><time>2026-04-05T13:41:37Z</time></trkpt><trkpt lat="42.90295057717065" lon="13.898118407937753"><ele>2.0</ele><time>2026-04-05T13:41:38Z</time></trkpt><trkpt lat="42.902760242116294" lon="13.898207277724206"><ele>2.0</ele><time>2026-04-05T13:41:39Z</time></trkpt><trkpt lat="42.90257551506899" lon="13.898296183182403"><ele>2.0</ele><time>2026-04-05T13:41:40Z</time></trkpt><trkpt lat="42.902398313700765" lon="13.898383613343595"><ele>2.0</ele><time>2026-04-05T13:41:41Z</time></trkpt><trkpt lat="42.90222132474622" lon="13.898475099036082"><ele>2.0</ele><time>2026-04-05T13:41:42Z</time></trkpt><trkpt lat="42.9020442206818" lon="13.898566544431297"><ele>1.6666666666666665</ele><time>2026-04-05T13:41:43Z</time></trkpt><trkpt lat="42.901871319335626" lon="13.89865629981368"><ele>1.3333333333333333</ele><time>2026-04-05T13:41:44Z</time></trkpt><trkpt lat="42.90170722098428" lon="13.898737156264689"><ele>1.0</ele><time>2026-04-05T13:41:45Z</time></trkpt><trkpt lat="42.90155135599902" lon="13.898813183382702"><ele>1.0</ele><time>2026-04-05T13:41:46Z</time></trkpt><trkpt lat="42.9013989965805" lon="13.898885496284729"><ele>1.0</ele><time>2026-04-05T13:41:47Z</time></trkpt><trkpt lat="42.90124514950633" lon="13.898957942827185"><ele>1.0</ele><time>2026-04-05T13:41:48Z</time></trkpt><trkpt lat="42.901088265430246" lon="13.899034037954427"><ele>1.0</ele><time>2026-04-05T13:41:49Z</time></trkpt><trkpt lat="42.90092613252032" lon="13.899106858680858"><ele>1.0</ele><time>2026-04-05T13:41:50Z</time></trkpt><trkpt lat="42.9007649652617" lon="13.89917070602004"><ele>1.0</ele><time>2026-04-05T13:41:51Z</time></trkpt><trkpt lat="42.90059157512429" lon="13.89922156559159"><ele>1.0</ele><time>2026-04-05T13:41:52Z</time></trkpt><trkpt lat="42.90041516927275" lon="13.899253778112714"><ele>1.0</ele><time>2026-04-05T13:41:53Z</time></trkpt><trkpt lat="42.900236043264634" lon="13.899265540113754"><ele>1.0</ele><time>2026-04-05T13:41:54Z</time></trkpt><trkpt lat="42.90005455198714" lon="13.899260925273797"><ele>2.0</ele><time>2026-04-05T13:41:55Z</time></trkpt><trkpt lat="42.89987059897571" lon="13.89923954029017"><ele>3.0</ele><time>2026-04-05T13:41:56Z</time></trkpt><trkpt lat="42.89968822719456" lon="13.89920176667625"><ele>4.0</ele><time>2026-04-05T13:41:57Z</time></trkpt><trkpt lat="42.89950566057304" lon="13.899148108265477"><ele>4.0</ele><time>2026-04-05T13:41:58Z</time></trkpt><trkpt lat="42.899327324914125" lon="13.899071225221112"><ele>4.0</ele><time>2026-04-05T13:41:59Z</time></trkpt><trkpt lat="42.89914568965371" lon="13.89897778053436"><ele>4.0</ele><time>2026-04-05T13:42:00Z</time></trkpt><trkpt lat="42.89897277066699" lon="13.89886879792414"><ele>4.0</ele><time>2026-04-05T13:42:01Z</time></trkpt><trkpt lat="42.89880502543585" lon="13.898745233521693"><ele>4.0</ele><time>2026-04-05T13:42:02Z</time></trkpt><trkpt lat="42.898646046529024" lon="13.898599450154993"><ele>4.0</ele><time>2026-04-05T13:42:03Z</time></trkpt><trkpt lat="42.8984906589537" lon="13.898435619722088"><ele>4.666666666666666</ele><time>2026-04-05T13:42:04Z</time></trkpt><trkpt lat="42.89834861072456" lon="13.898253799457843"><ele>5.333333333333333</ele><time>2026-04-05T13:42:05Z</time></trkpt><trkpt lat="42.89820925596962" lon="13.898062026044855"><ele>6.0</ele><time>2026-04-05T13:42:06Z</time></trkpt><trkpt lat="42.89807615256006" lon="13.897875471490064"><ele>6.0</ele><time>2026-04-05T13:42:07Z</time></trkpt><trkpt lat="42.897949869374955" lon="13.89769845818147"><ele>6.0</ele><time>2026-04-05T13:42:08Z</time></trkpt><trkpt lat="42.89782323391998" lon="13.897533427121994"><ele>6.0</ele><time>2026-04-05T13:42:09Z</time></trkpt><trkpt lat="42.897563113500524" lon="13.897240450908283"><ele>5.666666666666667</ele><time>2026-04-05T13:42:11Z</time></trkpt><trkpt lat="42.897419675866615" lon="13.89710697893724"><ele>5.333333333333334</ele><time>2026-04-05T13:42:12Z</time></trkpt><trkpt lat="42.89726946328013" lon="13.896981191857746"><ele>5.0</ele><time>2026-04-05T13:42:13Z</time></trkpt><trkpt lat="42.89710846803612" lon="13.896865865560033"><ele>5.0</ele><time>2026-04-05T13:42:14Z</time></trkpt><trkpt lat="42.89693123276346" lon="13.896758139567945"><ele>5.0</ele><time>2026-04-05T13:42:15Z</time></trkpt><trkpt lat="42.89674591042486" lon="13.896663733380866"><ele>5.0</ele><time>2026-04-05T13:42:16Z</time></trkpt><trkpt lat="42.89655105079714" lon="13.896576864179396"><ele>5.333333333333334</ele><time>2026-04-05T13:42:17Z</time></trkpt><trkpt lat="42.89635092058355" lon="13.896508455413219"><ele>5.666666666666667</ele><time>2026-04-05T13:42:18Z</time></trkpt><trkpt lat="42.89614454845582" lon="13.896455342342474"><ele>6.0</ele><time>2026-04-05T13:42:19Z</time></trkpt><trkpt lat="42.895933898833746" lon="13.896422973127144"><ele>5.666666666666667</ele><time>2026-04-05T13:42:20Z</time></trkpt><trkpt lat="42.89572096789076" lon="13.896382511003306"><ele>5.333333333333334</ele><time>2026-04-05T13:42:21Z</time></trkpt><trkpt lat="42.895511093277925" lon="13.896343922807498"><ele>5.0</ele><time>2026-04-05T13:42:22Z</time></trkpt><trkpt lat="42.89529611402" lon="13.896302538203003"><ele>5.0</ele><time>2026-04-05T13:42:23Z</time></trkpt><trkpt lat="42.89509192151915" lon="13.896260895932437"><ele>5.0</ele><time>2026-04-05T13:42:24Z</time></trkpt><trkpt lat="42.89488769285864" lon="13.896215957643292"><ele>5.0</ele><time>2026-04-05T13:42:25.001Z</time></trkpt><trkpt lat="42.89468181485075" lon="13.896177544190666"><ele>5.666666666666667</ele><time>2026-04-05T13:42:26.001Z</time></trkpt><trkpt lat="42.89447938795963" lon="13.896141509287897"><ele>6.333333333333334</ele><time>2026-04-05T13:42:27.001Z</time></trkpt><trkpt lat="42.89428205784902" lon="13.896114244895841"><ele>7.0</ele><time>2026-04-05T13:42:28.001Z</time></trkpt><trkpt lat="42.894090428145425" lon="13.896097296976198"><ele>7.0</ele><time>2026-04-05T13:42:29.001Z</time></trkpt><trkpt lat="42.893902732085905" lon="13.896104204393884"><ele>7.0</ele><time>2026-04-05T13:42:30.001Z</time></trkpt><trkpt lat="42.89372189336294" lon="13.896131161114006"><ele>7.0</ele><time>2026-04-05T13:42:31.001Z</time></trkpt><trkpt lat="42.893543458900716" lon="13.896163451411192"><ele>6.333333333333334</ele><time>2026-04-05T13:42:32.001Z</time></trkpt><trkpt lat="42.893368657770715" lon="13.896209811715678"><ele>5.666666666666667</ele><time>2026-04-05T13:42:33.001Z</time></trkpt><trkpt lat="42.893190372216644" lon="13.896236146464174"><ele>5.0</ele><time>2026-04-05T13:42:34.001Z</time></trkpt><trkpt lat="42.893018649159764" lon="13.896265580019062"><ele>5.0</ele><time>2026-04-05T13:42:35.001Z</time></trkpt><trkpt lat="42.89285926077833" lon="13.896298732933282"><ele>5.0</ele><time>2026-04-05T13:42:36.001Z</time></trkpt><trkpt lat="42.89270004510924" lon="13.89633226031406"><ele>5.0</ele><time>2026-04-05T13:42:37.001Z</time></trkpt><trkpt lat="42.89255129543649" lon="13.896389425618816"><ele>3.75</ele><time>2026-04-05T13:42:38.001Z</time></trkpt><trkpt lat="42.892408728698506" lon="13.896459382713486"><ele>2.5</ele><time>2026-04-05T13:42:39.001Z</time></trkpt><trkpt lat="42.8922749074498" lon="13.896540726543936"><ele>1.25</ele><time>2026-04-05T13:42:40.001Z</time></trkpt><trkpt lat="42.89215242178092" lon="13.896623141133333"><ele>0.0</ele><time>2026-04-05T13:42:41.001Z</time></trkpt><trkpt lat="42.89204433085891" lon="13.896706576166256"><ele>0.4</ele><time>2026-04-05T13:42:42.001Z</time></trkpt><trkpt lat="42.89195033184275" lon="13.896789112075169"><ele>0.8</ele><time>2026-04-05T13:42:43.001Z</time></trkpt><trkpt lat="42.89185853819096" lon="13.896876128046594"><ele>1.2000000000000002</ele><time>2026-04-05T13:42:44.001Z</time></trkpt><trkpt lat="42.89177541371791" lon="13.89696252796236"><ele>1.6</ele><time>2026-04-05T13:42:45.001Z</time></trkpt><trkpt lat="42.891706466463454" lon="13.897036036652317"><ele>2.0</ele><time>2026-04-05T13:42:46.001Z</time></trkpt><trkpt lat="42.891637642492256" lon="13.897106311018765"><ele>3.0</ele><time>2026-04-05T13:42:47.001Z</time></trkpt><trkpt lat="42.8915246616267" lon="13.897181155509891"><ele>4.0</ele><time>2026-04-05T13:42:49.001Z</time></trkpt><trkpt lat="42.89145841328201" lon="13.89719341719043"><ele>4.999999999999999</ele><time>2026-04-05T13:42:50.001Z</time></trkpt><trkpt lat="42.891381423789156" lon="13.897210260665883"><ele>6.0</ele><time>2026-04-05T13:42:51.001Z</time></trkpt><trkpt lat="42.891302969100636" lon="13.897270710308053"><ele>7.0</ele><time>2026-04-05T13:42:52.001Z</time></trkpt><trkpt lat="42.891241653833475" lon="13.897360523969299"><ele>7.000000000000001</ele><time>2026-04-05T13:42:53.001Z</time></trkpt><trkpt lat="42.891213742989734" lon="13.897474372019083"><ele>7.0</ele><time>2026-04-05T13:42:54.001Z</time></trkpt><trkpt lat="42.89120539855841" lon="13.897595024478061"><ele>7.0</ele><time>2026-04-05T13:42:55.001Z</time></trkpt><trkpt lat="42.89119601934079" lon="13.897699335111945"><ele>7.0</ele><time>2026-04-05T13:42:56.001Z</time></trkpt><trkpt lat="42.89117327820417" lon="13.897793842883479"><ele>7.000000000000001</ele><time>2026-04-05T13:42:57.001Z</time></trkpt><trkpt lat="42.891133189512985" lon="13.89788770482213"><ele>7.0</ele><time>2026-04-05T13:42:58.001Z</time></trkpt><trkpt lat="42.89110294755637" lon="13.897995982751622"><ele>7.0</ele><time>2026-04-05T13:42:59.001Z</time></trkpt><trkpt lat="42.891025205003785" lon="13.898084478249986"><ele>6.999999999999999</ele><time>2026-04-05T13:43:00.001Z</time></trkpt><trkpt lat="42.89095033518708" lon="13.898181744282674"><ele>6.999999999999999</ele><time>2026-04-05T13:43:01.001Z</time></trkpt><trkpt lat="42.89086494053831" lon="13.898291511850914"><ele>7.0</ele><time>2026-04-05T13:43:02.001Z</time></trkpt><trkpt lat="42.8907755826232" lon="13.898409027886672"><ele>7.0</ele><time>2026-04-05T13:43:03.001Z</time></trkpt><trkpt lat="42.89069099559848" lon="13.898520565897588"><ele>7.0</ele><time>2026-04-05T13:43:04.001Z</time></trkpt><trkpt lat="42.890613337126496" lon="13.898623292930857"><ele>6.999999999999999</ele><time>2026-04-05T13:43:05.001Z</time></trkpt><trkpt lat="42.890543305289235" lon="13.898715772580543"><ele>6.999999999999999</ele><time>2026-04-05T13:43:06.001Z</time></trkpt><trkpt lat="42.890482071580564" lon="13.898804031701637"><ele>7.0</ele><time>2026-04-05T13:43:07.001Z</time></trkpt><trkpt lat="42.890429330154824" lon="13.898886882645208"><ele>7.0</ele><time>2026-04-05T13:43:08.001Z</time></trkpt><trkpt lat="42.890378552533555" lon="13.898967024466982"><ele>7.000000000000001</ele><time>2026-04-05T13:43:09.001Z</time></trkpt><trkpt lat="42.89032030360022" lon="13.899038170038994"><ele>7.0</ele><time>2026-04-05T13:43:10.001Z</time></trkpt><trkpt lat="42.890257001599224" lon="13.899093147846717"><ele>7.0</ele><time>2026-04-05T13:43:11.001Z</time></trkpt><trkpt lat="42.890178971973064" lon="13.899192039316304"><ele>7.0</ele><time>2026-04-05T13:43:13.001Z</time></trkpt><trkpt lat="42.890156450859614" lon="13.89933223432515"><ele>7.000000000000001</ele><time>2026-04-05T13:43:15.001Z</time></trkpt><trkpt lat="42.890208740849666" lon="13.899412297038745"><ele>7.0</ele><time>2026-04-05T13:43:16.001Z</time></trkpt><trkpt lat="42.8902709940873" lon="13.899473852891271"><ele>6.199999999999999</ele><time>2026-04-05T13:43:17.001Z</time></trkpt><trkpt lat="42.89025772187099" lon="13.899652014597411"><ele>5.3999999999999995</ele><time>2026-04-05T13:43:19.001Z</time></trkpt><trkpt lat="42.89023972349907" lon="13.899771848440793"><ele>4.6</ele><time>2026-04-05T13:43:20.001Z</time></trkpt><trkpt lat="42.8902291849788" lon="13.899918276559992"><ele>3.8</ele><time>2026-04-05T13:43:21.001Z</time></trkpt><trkpt lat="42.89019433867651" lon="13.900069396937086"><ele>3.0</ele><time>2026-04-05T13:43:22.001Z</time></trkpt><trkpt lat="42.89016056788825" lon="13.900228345992433"><ele>3.0</ele><time>2026-04-05T13:43:23.001Z</time></trkpt><trkpt lat="42.89012472345429" lon="13.900400961551716"><ele>3.0</ele><time>2026-04-05T13:43:24.001Z</time></trkpt><trkpt lat="42.8900918899058" lon="13.900586445785976"><ele>3.0</ele><time>2026-04-05T13:43:25.001Z</time></trkpt><trkpt lat="42.89005070027807" lon="13.900781952190975"><ele>3.0</ele><time>2026-04-05T13:43:26.001Z</time></trkpt><trkpt lat="42.89000746939887" lon="13.90098801868232"><ele>2.5</ele><time>2026-04-05T13:43:27.001Z</time></trkpt><trkpt lat="42.88996763562482" lon="13.901188082512377"><ele>2.0</ele><time>2026-04-05T13:43:28.001Z</time></trkpt><trkpt lat="42.88992867759466" lon="13.901380507922312"><ele>1.5</ele><time>2026-04-05T13:43:29.001Z</time></trkpt><trkpt lat="42.88989040129137" lon="13.90156317590326"><ele>1.0</ele><time>2026-04-05T13:43:30.001Z</time></trkpt><trkpt lat="42.8898546583156" lon="13.901736810288652"><ele>1.25</ele><time>2026-04-05T13:43:31.001Z</time></trkpt><trkpt lat="42.889819086569474" lon="13.901903200662945"><ele>1.5</ele><time>2026-04-05T13:43:32.001Z</time></trkpt><trkpt lat="42.88978479550461" lon="13.90206369196815"><ele>1.75</ele><time>2026-04-05T13:43:33.001Z</time></trkpt><trkpt lat="42.889750198813296" lon="13.902225996096295"><ele>2.0</ele><time>2026-04-05T13:43:34.001Z</time></trkpt><trkpt lat="42.889712059627236" lon="13.902385355963073"><ele>2.0</ele><time>2026-04-05T13:43:35.001Z</time></trkpt><trkpt lat="42.8896812500349" lon="13.902532009923972"><ele>2.0</ele><time>2026-04-05T13:43:36.001Z</time></trkpt><trkpt lat="42.889650731148315" lon="13.902661556396392"><ele>2.0</ele><time>2026-04-05T13:43:37.001Z</time></trkpt><trkpt lat="42.88962745991387" lon="13.902796409331797"><ele>2.0</ele><time>2026-04-05T13:43:38.001Z</time></trkpt><trkpt lat="42.88959472960126" lon="13.902938979828937"><ele>2.0</ele><time>2026-04-05T13:43:39.001Z</time></trkpt><trkpt lat="42.88956086278759" lon="13.903094826228054"><ele>1.75</ele><time>2026-04-05T13:43:40.001Z</time></trkpt><trkpt lat="42.889524763286914" lon="13.903262374926882"><ele>1.5</ele><time>2026-04-05T13:43:41.001Z</time></trkpt><trkpt lat="42.889488707452415" lon="13.903432431102802"><ele>1.25</ele><time>2026-04-05T13:43:42.001Z</time></trkpt><trkpt lat="42.889452527653624" lon="13.903600803539314"><ele>1.0</ele><time>2026-04-05T13:43:43.001Z</time></trkpt><trkpt lat="42.8894134491214" lon="13.90377467252803"><ele>1.0</ele><time>2026-04-05T13:43:44.001Z</time></trkpt><trkpt lat="42.889378869250955" lon="13.903949843137429"><ele>1.0</ele><time>2026-04-05T13:43:45.001Z</time></trkpt><trkpt lat="42.88934015974293" lon="13.904123459910883"><ele>1.0</ele><time>2026-04-05T13:43:46.001Z</time></trkpt><trkpt lat="42.88930046801769" lon="13.904306614297708"><ele>1.0</ele><time>2026-04-05T13:43:47.001Z</time></trkpt><trkpt lat="42.889262900004674" lon="13.904489447809356"><ele>1.5</ele><time>2026-04-05T13:43:48.001Z</time></trkpt><trkpt lat="42.889222550657465" lon="13.904671917347505"><ele>2.0</ele><time>2026-04-05T13:43:49.001Z</time></trkpt><trkpt lat="42.889182251253224" lon="13.904860232025886"><ele>2.5</ele><time>2026-04-05T13:43:50.001Z</time></trkpt><trkpt lat="42.88914280111503" lon="13.905041604755464"><ele>3.0</ele><time>2026-04-05T13:43:51.001Z</time></trkpt><trkpt lat="42.88910519795964" lon="13.905222383370836"><ele>3.0</ele><time>2026-04-05T13:43:52.001Z</time></trkpt><trkpt lat="42.889068422324655" lon="13.90540171865485"><ele>3.0</ele><time>2026-04-05T13:43:53.001Z</time></trkpt><trkpt lat="42.88902997614232" lon="13.905576191478808"><ele>3.0</ele><time>2026-04-05T13:43:54.001Z</time></trkpt><trkpt lat="42.88899545298158" lon="13.90574421052403"><ele>3.0</ele><time>2026-04-05T13:43:55.001Z</time></trkpt><trkpt lat="42.88895862523357" lon="13.905912135604641"><ele>3.25</ele><time>2026-04-05T13:43:56.001Z</time></trkpt><trkpt lat="42.888928520482175" lon="13.906063749591942"><ele>3.5</ele><time>2026-04-05T13:43:57.001Z</time></trkpt><trkpt lat="42.88890224318174" lon="13.906215884568315"><ele>3.75</ele><time>2026-04-05T13:43:58.001Z</time></trkpt><trkpt lat="42.88886345248843" lon="13.906362896120381"><ele>4.0</ele><time>2026-04-05T13:43:59.001Z</time></trkpt><trkpt lat="42.8888369288763" lon="13.906503949775448"><ele>4.0</ele><time>2026-04-05T13:44:00.001Z</time></trkpt><trkpt lat="42.88880637300873" lon="13.906640245242807"><ele>4.0</ele><time>2026-04-05T13:44:01.001Z</time></trkpt><trkpt lat="42.8887761678492" lon="13.906777938738902"><ele>4.0</ele><time>2026-04-05T13:44:02.001Z</time></trkpt><trkpt lat="42.88874927130068" lon="13.906915574343737"><ele>4.0</ele><time>2026-04-05T13:44:03.001Z</time></trkpt><trkpt lat="42.888723338813634" lon="13.907040223200875"><ele>4.0</ele><time>2026-04-05T13:44:04.001Z</time></trkpt><trkpt lat="42.888698400725794" lon="13.907176906739704"><ele>3.8000000000000003</ele><time>2026-04-05T13:44:05.001Z</time></trkpt><trkpt lat="42.88867359714677" lon="13.907297198797144"><ele>3.6000000000000005</ele><time>2026-04-05T13:44:06.001Z</time></trkpt><trkpt lat="42.88864318418638" lon="13.907428094556005"><ele>3.4</ele><time>2026-04-05T13:44:07.001Z</time></trkpt><trkpt lat="42.888610998742045" lon="13.907568475210379"><ele>3.2</ele><time>2026-04-05T13:44:08.001Z</time></trkpt><trkpt lat="42.888581946651406" lon="13.907711866762714"><ele>3.0</ele><time>2026-04-05T13:44:09.001Z</time></trkpt><trkpt lat="42.88855104884397" lon="13.90785984910053"><ele>2.8</ele><time>2026-04-05T13:44:10.001Z</time></trkpt><trkpt lat="42.888522114017825" lon="13.90799662220413"><ele>2.5999999999999996</ele><time>2026-04-05T13:44:11.001Z</time></trkpt><trkpt lat="42.8884851638698" lon="13.908128777410376"><ele>2.4000000000000004</ele><time>2026-04-05T13:44:12.001Z</time></trkpt><trkpt lat="42.888463134598865" lon="13.90825942035079"><ele>2.2</ele><time>2026-04-05T13:44:13.001Z</time></trkpt><trkpt lat="42.88843609666499" lon="13.908377805739052"><ele>2.0</ele><time>2026-04-05T13:44:14.001Z</time></trkpt><trkpt lat="42.888409801165054" lon="13.908493712379821"><ele>2.0</ele><time>2026-04-05T13:44:15.001Z</time></trkpt><trkpt lat="42.888387229172906" lon="13.908618318389465"><ele>2.0</ele><time>2026-04-05T13:44:16.001Z</time></trkpt><trkpt lat="42.88836189517144" lon="13.908742271000987"><ele>2.0</ele><time>2026-04-05T13:44:17.001Z</time></trkpt><trkpt lat="42.88833173133981" lon="13.908870519098327"><ele>2.0</ele><time>2026-04-05T13:44:18.001Z</time></trkpt><trkpt lat="42.88830191756029" lon="13.908995993001575"><ele>2.0</ele><time>2026-04-05T13:44:19.001Z</time></trkpt><trkpt lat="42.88827021427492" lon="13.909119653934619"><ele>1.8</ele><time>2026-04-05T13:44:20.001Z</time></trkpt><trkpt lat="42.88824479308324" lon="13.909249774613231"><ele>1.6</ele><time>2026-04-05T13:44:21.001Z</time></trkpt><trkpt lat="42.888213094392626" lon="13.909390754895577"><ele>1.4000000000000001</ele><time>2026-04-05T13:44:22.001Z</time></trkpt><trkpt lat="42.8881831621892" lon="13.909534046089362"><ele>1.2000000000000002</ele><time>2026-04-05T13:44:23.001Z</time></trkpt><trkpt lat="42.88815090559477" lon="13.90967933955455"><ele>1.0</ele><time>2026-04-05T13:44:24.001Z</time></trkpt><trkpt lat="42.88811740083866" lon="13.909826787070855"><ele>1.0</ele><time>2026-04-05T13:44:25.001Z</time></trkpt><trkpt lat="42.8880892400085" lon="13.90997412147906"><ele>1.0</ele><time>2026-04-05T13:44:26.001Z</time></trkpt><trkpt lat="42.88805758044984" lon="13.910116757521962"><ele>1.0</ele><time>2026-04-05T13:44:27.001Z</time></trkpt><trkpt lat="42.88802277199283" lon="13.91025558122188"><ele>1.0</ele><time>2026-04-05T13:44:28.001Z</time></trkpt><trkpt lat="42.887999210532705" lon="13.910393770394125"><ele>1.0</ele><time>2026-04-05T13:44:29.001Z</time></trkpt><trkpt lat="42.887971835114975" lon="13.910524850148475"><ele>1.2000000000000002</ele><time>2026-04-05T13:44:30.001Z</time></trkpt><trkpt lat="42.8879446655989" lon="13.910641109919567"><ele>1.4000000000000001</ele><time>2026-04-05T13:44:31.001Z</time></trkpt><trkpt lat="42.88791603639201" lon="13.910762722748531"><ele>1.6</ele><time>2026-04-05T13:44:32.001Z</time></trkpt><trkpt lat="42.88788982964475" lon="13.910881875586037"><ele>1.8</ele><time>2026-04-05T13:44:33.001Z</time></trkpt><trkpt lat="42.887865372969586" lon="13.911009248760275"><ele>2.0</ele><time>2026-04-05T13:44:34.001Z</time></trkpt><trkpt lat="42.88783816758029" lon="13.911146436447511"><ele>2.2</ele><time>2026-04-05T13:44:35.001Z</time></trkpt><trkpt lat="42.88780779164726" lon="13.91128884459492"><ele>2.4000000000000004</ele><time>2026-04-05T13:44:36.001Z</time></trkpt><trkpt lat="42.88777808800388" lon="13.911428960116568"><ele>2.5999999999999996</ele><time>2026-04-05T13:44:37.001Z</time></trkpt><trkpt lat="42.887748378061765" lon="13.911572703856665"><ele>2.8</ele><time>2026-04-05T13:44:38.001Z</time></trkpt><trkpt lat="42.88771815780621" lon="13.911711017161327"><ele>3.0</ele><time>2026-04-05T13:44:39.001Z</time></trkpt><trkpt lat="42.88769148333377" lon="13.911847744045392"><ele>3.0</ele><time>2026-04-05T13:44:40.001Z</time></trkpt><trkpt lat="42.887666092041705" lon="13.911970800923648"><ele>3.0</ele><time>2026-04-05T13:44:41.001Z</time></trkpt><trkpt lat="42.887642923178696" lon="13.912085136683677"><ele>3.0</ele><time>2026-04-05T13:44:42.001Z</time></trkpt><trkpt lat="42.887619761784215" lon="13.912202047226552"><ele>3.0</ele><time>2026-04-05T13:44:43.001Z</time></trkpt><trkpt lat="42.8875936035193" lon="13.912322400062799"><ele>3.0</ele><time>2026-04-05T13:44:44.001Z</time></trkpt><trkpt lat="42.887567909985826" lon="13.912449886335427"><ele>3.3333333333333335</ele><time>2026-04-05T13:44:45.001Z</time></trkpt><trkpt lat="42.8875429963382" lon="13.912571452556634"><ele>3.666666666666667</ele><time>2026-04-05T13:44:46.001Z</time></trkpt><trkpt lat="42.88752002347849" lon="13.912682184637923"><ele>4.0</ele><time>2026-04-05T13:44:47.001Z</time></trkpt><trkpt lat="42.887496485875936" lon="13.912790040698905"><ele>4.333333333333334</ele><time>2026-04-05T13:44:48.001Z</time></trkpt><trkpt lat="42.88747085504704" lon="13.912898521956473"><ele>4.666666666666667</ele><time>2026-04-05T13:44:49.001Z</time></trkpt><trkpt lat="42.88743439021162" lon="13.91299583856623"><ele>5.0</ele><time>2026-04-05T13:44:50.001Z</time></trkpt><trkpt lat="42.88739835299634" lon="13.913089543394854"><ele>5.0</ele><time>2026-04-05T13:44:51.001Z</time></trkpt><trkpt lat="42.88735658523891" lon="13.913184555007188"><ele>5.0</ele><time>2026-04-05T13:44:52.001Z</time></trkpt><trkpt lat="42.88730279417519" lon="13.913285705261057"><ele>5.0</ele><time>2026-04-05T13:44:53.001Z</time></trkpt><trkpt lat="42.887238064449924" lon="13.913391942261383"><ele>5.0</ele><time>2026-04-05T13:44:54.001Z</time></trkpt><trkpt lat="42.88715876392191" lon="13.913496060339117"><ele>5.0</ele><time>2026-04-05T13:44:55.001Z</time></trkpt><trkpt lat="42.887063652229685" lon="13.913590236101067"><ele>4.5</ele><time>2026-04-05T13:44:56.001Z</time></trkpt><trkpt lat="42.88696158819305" lon="13.913670806585516"><ele>4.0</ele><time>2026-04-05T13:44:57.001Z</time></trkpt><trkpt lat="42.886851926629745" lon="13.913732641117033"><ele>3.5</ele><time>2026-04-05T13:44:58.001Z</time></trkpt><trkpt lat="42.88674578275158" lon="13.913774029321218"><ele>3.0</ele><time>2026-04-05T13:44:59.001Z</time></trkpt><trkpt lat="42.88664004700418" lon="13.913810090641634"><ele>3.0</ele><time>2026-04-05T13:45:00.001Z</time></trkpt><trkpt lat="42.88653621547287" lon="13.913846303622421"><ele>3.0</ele><time>2026-04-05T13:45:01.001Z</time></trkpt><trkpt lat="42.886437724296194" lon="13.913880976328693"><ele>3.0</ele><time>2026-04-05T13:45:02.001Z</time></trkpt><trkpt lat="42.88635208462471" lon="13.913910588861196"><ele>3.0</ele><time>2026-04-05T13:45:03.001Z</time></trkpt><trkpt lat="42.88628143059303" lon="13.913936116784138"><ele>3.0</ele><time>2026-04-05T13:45:04.001Z</time></trkpt><trkpt lat="42.88612679589875" lon="13.91398541931661"><ele>3.0</ele><time>2026-04-05T13:45:06.001Z</time></trkpt><trkpt lat="42.88606514987988" lon="13.914006454511956"><ele>3.0</ele><time>2026-04-05T13:45:08.001Z</time></trkpt><trkpt lat="42.88609947666745" lon="13.91423430695415"><ele>3.0</ele><time>2026-04-05T13:45:10.001Z</time></trkpt><trkpt lat="42.88612569169386" lon="13.914337517287617"><ele>3.0</ele><time>2026-04-05T13:45:11.001Z</time></trkpt><trkpt lat="42.886150165446765" lon="13.914449531131075"><ele>3.0</ele><time>2026-04-05T13:45:12.001Z</time></trkpt><trkpt lat="42.88616678027669" lon="13.914558932159846"><ele>3.0</ele><time>2026-04-05T13:45:13.001Z</time></trkpt><trkpt lat="42.88616953829558" lon="13.914661428577338"><ele>3.0</ele><time>2026-04-05T13:45:14.001Z</time></trkpt><trkpt lat="42.88618787202883" lon="13.914764147267139"><ele>3.0</ele><time>2026-04-05T13:45:15.001Z</time></trkpt><trkpt lat="42.886195017746324" lon="13.914863762803009"><ele>3.0</ele><time>2026-04-05T13:45:16.001Z</time></trkpt><trkpt lat="42.88620515241255" lon="13.914968023861613"><ele>3.0</ele><time>2026-04-05T13:45:17.001Z</time></trkpt><trkpt lat="42.88622088198457" lon="13.915068393829598"><ele>3.0</ele><time>2026-04-05T13:45:18.001Z</time></trkpt><trkpt lat="42.886228912945164" lon="13.915172298556179"><ele>3.0</ele><time>2026-04-05T13:45:19.001Z</time></trkpt><trkpt lat="42.886238500208" lon="13.915286562575822"><ele>3.0</ele><time>2026-04-05T13:45:20.001Z</time></trkpt><trkpt lat="42.88624826019346" lon="13.91539571697005"><ele>3.0</ele><time>2026-04-05T13:45:21.001Z</time></trkpt><trkpt lat="42.88626251246441" lon="13.915512123108394"><ele>3.0</ele><time>2026-04-05T13:45:22.001Z</time></trkpt><trkpt lat="42.88627094233922" lon="13.915620767434891"><ele>3.0</ele><time>2026-04-05T13:45:23.001Z</time></trkpt><trkpt lat="42.88628397924416" lon="13.915732014472455"><ele>3.0</ele><time>2026-04-05T13:45:24.001Z</time></trkpt><trkpt lat="42.88629578922433" lon="13.915842380206204"><ele>3.0</ele><time>2026-04-05T13:45:25.001Z</time></trkpt><trkpt lat="42.8863054439959" lon="13.91595248137184"><ele>3.0</ele><time>2026-04-05T13:45:26.001Z</time></trkpt><trkpt lat="42.88631454843045" lon="13.916067636154041"><ele>3.0</ele><time>2026-04-05T13:45:27.001Z</time></trkpt><trkpt lat="42.88632480339511" lon="13.916175183568416"><ele>3.0</ele><time>2026-04-05T13:45:28.001Z</time></trkpt><trkpt lat="42.886332817114166" lon="13.91627172057968"><ele>3.0</ele><time>2026-04-05T13:45:29.001Z</time></trkpt><trkpt lat="42.886343648734254" lon="13.916374371324489"><ele>3.0</ele><time>2026-04-05T13:45:30.001Z</time></trkpt><trkpt lat="42.88635693615663" lon="13.916479244110977"><ele>2.9999999999999996</ele><time>2026-04-05T13:45:31.001Z</time></trkpt><trkpt lat="42.88636807692889" lon="13.916586349548353"><ele>3.0</ele><time>2026-04-05T13:45:32.001Z</time></trkpt><trkpt lat="42.886380434114194" lon="13.916691892029721"><ele>3.0</ele><time>2026-04-05T13:45:33.001Z</time></trkpt><trkpt lat="42.8863901062517" lon="13.91679524590998"><ele>3.0</ele><time>2026-04-05T13:45:34.001Z</time></trkpt><trkpt lat="42.88639833643015" lon="13.916890748273024"><ele>3.0</ele><time>2026-04-05T13:45:35.001Z</time></trkpt><trkpt lat="42.88640825390182" lon="13.916984623722735"><ele>2.9999999999999996</ele><time>2026-04-05T13:45:36.001Z</time></trkpt><trkpt lat="42.88641942794495" lon="13.917075246766043"><ele>3.0</ele><time>2026-04-05T13:45:37.001Z</time></trkpt><trkpt lat="42.886426818152195" lon="13.917162175371661"><ele>3.0</ele><time>2026-04-05T13:45:38.001Z</time></trkpt><trkpt lat="42.88643389530601" lon="13.917265854325686"><ele>3.0</ele><time>2026-04-05T13:45:40.001Z</time></trkpt><trkpt lat="42.88644480381268" lon="13.91735553918917"><ele>3.0</ele><time>2026-04-05T13:45:42.001Z</time></trkpt><trkpt lat="42.88645912069747" lon="13.917500420241213"><ele>3.0</ele><time>2026-04-05T13:45:44.001Z</time></trkpt><trkpt lat="42.886467817464634" lon="13.91766447583301"><ele>3.0</ele><time>2026-04-05T13:45:46.001Z</time></trkpt><trkpt lat="42.886472985523774" lon="13.917751786972675"><ele>3.0</ele><time>2026-04-05T13:45:47.001Z</time></trkpt><trkpt lat="42.88648020217183" lon="13.917839523023632"><ele>3.0</ele><time>2026-04-05T13:45:48.001Z</time></trkpt><trkpt lat="42.886496883239985" lon="13.91803357836375"><ele>3.0</ele><time>2026-04-05T13:45:50.001Z</time></trkpt><trkpt lat="42.88651017370945" lon="13.91812638132366"><ele>3.0</ele><time>2026-04-05T13:45:51.001Z</time></trkpt><trkpt lat="42.88651816270565" lon="13.918224582835137"><ele>3.0</ele><time>2026-04-05T13:45:52.001Z</time></trkpt><trkpt lat="42.886532138309605" lon="13.918323212935954"><ele>3.0</ele><time>2026-04-05T13:45:53.001Z</time></trkpt><trkpt lat="42.88653751720176" lon="13.91841468070556"><ele>3.0</ele><time>2026-04-05T13:45:54.001Z</time></trkpt><trkpt lat="42.88655246945892" lon="13.91850438727505"><ele>3.0</ele><time>2026-04-05T13:45:55.001Z</time></trkpt><trkpt lat="42.886559152056954" lon="13.918602799575705"><ele>3.0</ele><time>2026-04-05T13:45:56.001Z</time></trkpt><trkpt lat="42.88657337249448" lon="13.918705446421736"><ele>3.0</ele><time>2026-04-05T13:45:57.001Z</time></trkpt><trkpt lat="42.886580669188376" lon="13.918800674343556"><ele>3.0</ele><time>2026-04-05T13:45:58.001Z</time></trkpt><trkpt lat="42.88659159893643" lon="13.918892833638152"><ele>3.0</ele><time>2026-04-05T13:45:59.001Z</time></trkpt><trkpt lat="42.88660852868052" lon="13.919054850282405"><ele>3.0</ele><time>2026-04-05T13:46:01Z</time></trkpt><trkpt lat="42.886618587232164" lon="13.91918673057652"><ele>2.6666666666666665</ele><time>2026-04-05T13:46:03Z</time></trkpt><trkpt lat="42.88662721238921" lon="13.919287899450708"><ele>2.3333333333333335</ele><time>2026-04-05T13:46:05Z</time></trkpt><trkpt lat="42.8866344766353" lon="13.919389263720861"><ele>2.0</ele><time>2026-04-05T13:46:11Z</time></trkpt><trkpt lat="42.88664351495269" lon="13.919479817080731"><ele>1.6666666666666665</ele><time>2026-04-05T13:46:15Z</time></trkpt><trkpt lat="42.88666030479881" lon="13.919575360483147"><ele>1.3333333333333333</ele><time>2026-04-05T13:46:17Z</time></trkpt><trkpt lat="42.886678986370136" lon="13.919730575656914"><ele>1.0</ele><time>2026-04-05T13:46:19Z</time></trkpt><trkpt lat="42.886693933959315" lon="13.919885554850438"><ele>1.0</ele><time>2026-04-05T13:46:21Z</time></trkpt><trkpt lat="42.8867036144505" lon="13.91997578295882"><ele>1.0</ele><time>2026-04-05T13:46:23Z</time></trkpt><trkpt lat="42.88670542729184" lon="13.92007063053945"><ele>1.0</ele><time>2026-04-05T13:46:26Z</time></trkpt><trkpt lat="42.88682701896701" lon="13.920059432820974"><ele>1.0</ele><time>2026-04-05T13:46:27Z</time></trkpt><trkpt lat="42.88695247238646" lon="13.920031308250659"><ele>1.0</ele><time>2026-04-05T13:46:29Z</time></trkpt><trkpt lat="42.88702216406358" lon="13.920021272213383"><ele>0.8571428571428571</ele><time>2026-04-05T13:46:30Z</time></trkpt><trkpt lat="42.887093428382826" lon="13.920009579751563"><ele>0.7142857142857142</ele><time>2026-04-05T13:46:31Z</time></trkpt><trkpt lat="42.887160990998865" lon="13.91999854265261"><ele>0.5714285714285714</ele><time>2026-04-05T13:46:32Z</time></trkpt><trkpt lat="42.88722647425545" lon="13.919984590000988"><ele>0.42857142857142855</ele><time>2026-04-05T13:46:33Z</time></trkpt><trkpt lat="42.88729206299359" lon="13.919970103671112"><ele>0.2857142857142857</ele><time>2026-04-05T13:46:34Z</time></trkpt><trkpt lat="42.887357408845965" lon="13.919958233501417"><ele>0.14285714285714285</ele><time>2026-04-05T13:46:35Z</time></trkpt><trkpt lat="42.88742205689805" lon="13.919946479055467"><ele>0.0</ele><time>2026-04-05T13:46:36Z</time></trkpt><trkpt lat="42.887486220212075" lon="13.91993631349407"><ele>0.0</ele><time>2026-04-05T13:46:37Z</time></trkpt><trkpt lat="42.88755376338249" lon="13.919922459993888"><ele>0.0</ele><time>2026-04-05T13:46:38Z</time></trkpt><trkpt lat="42.88762912467103" lon="13.919908893413364"><ele>0.0</ele><time>2026-04-05T13:46:39Z</time></trkpt><trkpt lat="42.88770109544719" lon="13.919896462355837"><ele>0.0</ele><time>2026-04-05T13:46:40Z</time></trkpt><trkpt lat="42.887767035465096" lon="13.919884297557019"><ele>0.0</ele><time>2026-04-05T13:46:41Z</time></trkpt><trkpt lat="42.88783363698389" lon="13.919871727359626"><ele>0.0</ele><time>2026-04-05T13:46:42Z</time></trkpt><trkpt lat="42.88789612797224" lon="13.919858913415691"><ele>0.0</ele><time>2026-04-05T13:46:43Z</time></trkpt><trkpt lat="42.887961036800704" lon="13.919843457683838"><ele>0.0</ele><time>2026-04-05T13:46:44Z</time></trkpt><trkpt lat="42.88802725108276" lon="13.919825043797148"><ele>0.0</ele><time>2026-04-05T13:46:45Z</time></trkpt><trkpt lat="42.88814026723006" lon="13.919809404979203"><ele>0.0</ele><time>2026-04-05T13:46:47Z</time></trkpt><trkpt lat="42.88823336301566" lon="13.919794520776701"><ele>0.0</ele><time>2026-04-05T13:46:49Z</time></trkpt><trkpt lat="42.88831584587677" lon="13.919769051049341"><ele>0.0</ele><time>2026-04-05T14:02:20.999Z</time></trkpt><trkpt lat="42.88840718495542" lon="13.919745013291346"><ele>0.0</ele><time>2026-04-05T14:02:22.999Z</time></trkpt><trkpt lat="42.88846023248964" lon="13.919632187798427"><ele>0.0</ele><time>2026-04-05T14:02:25.999Z</time></trkpt><trkpt lat="42.88845685423769" lon="13.919539571976534"><ele>0.0</ele><time>2026-04-05T14:02:26.999Z</time></trkpt><trkpt lat="42.88844643238149" lon="13.91944660629629"><ele>0.0</ele><time>2026-04-05T14:02:27.999Z</time></trkpt><trkpt lat="42.888433725181486" lon="13.919338058502177"><ele>0.0</ele><time>2026-04-05T14:02:28.999Z</time></trkpt><trkpt lat="42.888415603122255" lon="13.919233574629468"><ele>0.0</ele><time>2026-04-05T14:02:29.999Z</time></trkpt><trkpt lat="42.88841272230859" lon="13.919122294090227"><ele>0.6</ele><time>2026-04-05T14:02:30.999Z</time></trkpt><trkpt lat="42.88840053947759" lon="13.919003358766082"><ele>1.2</ele><time>2026-04-05T14:02:31.999Z</time></trkpt><trkpt lat="42.88837471398706" lon="13.918883053419306"><ele>1.7999999999999998</ele><time>2026-04-05T14:02:32.999Z</time></trkpt><trkpt lat="42.88836622069568" lon="13.918759024825844"><ele>2.4</ele><time>2026-04-05T14:02:33.999Z</time></trkpt><trkpt lat="42.888352754690686" lon="13.918630443189201"><ele>3.0</ele><time>2026-04-05T14:02:34.999Z</time></trkpt><trkpt lat="42.888335438988705" lon="13.918503201029786"><ele>3.0</ele><time>2026-04-05T14:02:35.999Z</time></trkpt><trkpt lat="42.88832929706364" lon="13.918372634868687"><ele>3.0</ele><time>2026-04-05T14:02:36.999Z</time></trkpt><trkpt lat="42.888316184642555" lon="13.918239464990503"><ele>3.0</ele><time>2026-04-05T14:02:37.999Z</time></trkpt><trkpt lat="42.888301250495644" lon="13.918108099554143"><ele>3.0</ele><time>2026-04-05T14:02:38.999Z</time></trkpt><trkpt lat="42.88828690161418" lon="13.917980103252795"><ele>3.0</ele><time>2026-04-05T14:02:39.999Z</time></trkpt><trkpt lat="42.88827094527588" lon="13.9178509282245"><ele>3.0</ele><time>2026-04-05T14:02:40.999Z</time></trkpt><trkpt lat="42.8882565936988" lon="13.917728793649486"><ele>3.0</ele><time>2026-04-05T14:02:41.999Z</time></trkpt><trkpt lat="42.88824352343706" lon="13.91760434010081"><ele>3.0</ele><time>2026-04-05T14:02:42.999Z</time></trkpt><trkpt lat="42.888230864467964" lon="13.917483544218015"><ele>3.0</ele><time>2026-04-05T14:02:43.999Z</time></trkpt><trkpt lat="42.88822215709652" lon="13.917363559406914"><ele>3.0</ele><time>2026-04-05T14:02:44.999Z</time></trkpt><trkpt lat="42.88821448250807" lon="13.917250125404053"><ele>3.0</ele><time>2026-04-05T14:02:45.999Z</time></trkpt><trkpt lat="42.88820726278104" lon="13.91715671741672"><ele>3.0</ele><time>2026-04-05T14:02:46.999Z</time></trkpt><trkpt lat="42.88820379107872" lon="13.917046007864258"><ele>3.0</ele><time>2026-04-05T14:02:48.999Z</time></trkpt><trkpt lat="42.888193528995735" lon="13.91694514470102"><ele>3.0</ele><time>2026-04-05T14:02:52.999Z</time></trkpt><trkpt lat="42.88817323027223" lon="13.916759878050764"><ele>3.0</ele><time>2026-04-05T14:02:54.999Z</time></trkpt><trkpt lat="42.88816197859592" lon="13.916601757974224"><ele>3.0</ele><time>2026-04-05T14:02:57Z</time></trkpt><trkpt lat="42.88815861089202" lon="13.916506162005865"><ele>3.0</ele><time>2026-04-05T14:02:57.999Z</time></trkpt><trkpt lat="42.88815323636913" lon="13.91639329762464"><ele>3.0</ele><time>2026-04-05T14:02:58.999Z</time></trkpt><trkpt lat="42.88815301784856" lon="13.916276149694092"><ele>3.0</ele><time>2026-04-05T14:02:59.999Z</time></trkpt><trkpt lat="42.888150810839385" lon="13.916154594212628"><ele>3.0</ele><time>2026-04-05T14:03:01Z</time></trkpt><trkpt lat="42.88814374859958" lon="13.916025937986626"><ele>3.0</ele><time>2026-04-05T14:03:02Z</time></trkpt><trkpt lat="42.888137780789066" lon="13.915896706718385"><ele>3.0</ele><time>2026-04-05T14:03:03Z</time></trkpt><trkpt lat="42.888137169964494" lon="13.915757517674997"><ele>3.0</ele><time>2026-04-05T14:03:04Z</time></trkpt><trkpt lat="42.888132964681546" lon="13.915616678039072"><ele>3.0</ele><time>2026-04-05T14:03:05Z</time></trkpt><trkpt lat="42.88812502385952" lon="13.915476611328895"><ele>3.0</ele><time>2026-04-05T14:03:06Z</time></trkpt><trkpt lat="42.88811980776558" lon="13.9153305482771"><ele>3.0</ele><time>2026-04-05T14:03:07Z</time></trkpt><trkpt lat="42.88811666419779" lon="13.915182393336142"><ele>3.0</ele><time>2026-04-05T14:03:08Z</time></trkpt><trkpt lat="42.88810914636678" lon="13.915040968873326"><ele>2.8</ele><time>2026-04-05T14:03:09Z</time></trkpt><trkpt lat="42.88810355349182" lon="13.914907701712387"><ele>2.5999999999999996</ele><time>2026-04-05T14:03:10Z</time></trkpt><trkpt lat="42.88810246142001" lon="13.914793649626349"><ele>2.4000000000000004</ele><time>2026-04-05T14:03:11Z</time></trkpt><trkpt lat="42.88810474463835" lon="13.91463337313958"><ele>2.2</ele><time>2026-04-05T14:03:13Z</time></trkpt><trkpt lat="42.888010025208345" lon="13.914549200622767"><ele>2.0</ele><time>2026-04-05T14:03:17Z</time></trkpt><trkpt lat="42.88793342459423" lon="13.914567600650951"><ele>1.9999999999999998</ele><time>2026-04-05T14:03:18Z</time></trkpt><trkpt lat="42.8878544426648" lon="13.914597238068696"><ele>2.0</ele><time>2026-04-05T14:03:19Z</time></trkpt><trkpt lat="42.88777799373001" lon="13.91461673892484"><ele>2.0</ele><time>2026-04-05T14:03:20Z</time></trkpt><trkpt lat="42.887676902624406" lon="13.914612554081632"><ele>2.0</ele><time>2026-04-05T14:03:22Z</time></trkpt><trkpt lat="42.887670395157755" lon="13.914486435495727"><ele>1.9999999999999998</ele><time>2026-04-05T14:03:24Z</time></trkpt><trkpt lat="42.887663367084556" lon="13.914385301571565"><ele>2.0</ele><time>2026-04-05T14:03:25Z</time></trkpt><trkpt lat="42.887657620914084" lon="13.914271423021813"><ele>2.4000000000000004</ele><time>2026-04-05T14:03:26Z</time></trkpt><trkpt lat="42.887633969461405" lon="13.914136946646176"><ele>2.8000000000000003</ele><time>2026-04-05T14:03:27Z</time></trkpt><trkpt lat="42.887626619258434" lon="13.913991610411243"><ele>3.2</ele><time>2026-04-05T14:03:28Z</time></trkpt><trkpt lat="42.88761527192372" lon="13.913832692209844"><ele>3.6</ele><time>2026-04-05T14:03:29Z</time></trkpt><trkpt lat="42.887606542842136" lon="13.913682136558455"><ele>4.0</ele><time>2026-04-05T14:03:30Z</time></trkpt><trkpt lat="42.88759704353462" lon="13.913529177916255"><ele>4.166666666666666</ele><time>2026-04-05T14:03:31Z</time></trkpt><trkpt lat="42.88758556316645" lon="13.913391757634802"><ele>4.333333333333333</ele><time>2026-04-05T14:03:32Z</time></trkpt><trkpt lat="42.88757497509217" lon="13.91327672104669"><ele>4.5</ele><time>2026-04-05T14:03:33Z</time></trkpt><trkpt lat="42.887553456774036" lon="13.913181495125212"><ele>4.666666666666667</ele><time>2026-04-05T14:03:34Z</time></trkpt><trkpt lat="42.88749642580681" lon="13.913127328672088"><ele>4.833333333333334</ele><time>2026-04-05T14:03:35Z</time></trkpt><trkpt lat="42.88745103543527" lon="13.91304756350179"><ele>5.0</ele><time>2026-04-05T14:03:37Z</time></trkpt><trkpt lat="42.88747550145245" lon="13.912949431493557"><ele>5.0</ele><time>2026-04-05T14:03:38Z</time></trkpt><trkpt lat="42.88751393891595" lon="13.912831860281136"><ele>5.0</ele><time>2026-04-05T14:03:39Z</time></trkpt><trkpt lat="42.88754970922559" lon="13.912702634191096"><ele>5.0</ele><time>2026-04-05T14:03:40Z</time></trkpt><trkpt lat="42.88758220525204" lon="13.912562746039827"><ele>5.0</ele><time>2026-04-05T14:03:41Z</time></trkpt><trkpt lat="42.88761117118407" lon="13.912418737602533"><ele>5.0</ele><time>2026-04-05T14:03:42Z</time></trkpt><trkpt lat="42.887636300793496" lon="13.912269140029476"><ele>5.0</ele><time>2026-04-05T14:03:43Z</time></trkpt><trkpt lat="42.88766931889799" lon="13.912113144195498"><ele>5.0</ele><time>2026-04-05T14:03:44Z</time></trkpt><trkpt lat="42.88770024320493" lon="13.911954250329215"><ele>5.0</ele><time>2026-04-05T14:03:45Z</time></trkpt><trkpt lat="42.887730010999" lon="13.911792039270583"><ele>5.0</ele><time>2026-04-05T14:03:46Z</time></trkpt><trkpt lat="42.88776067401218" lon="13.911628711067266"><ele>5.0</ele><time>2026-04-05T14:03:47Z</time></trkpt><trkpt lat="42.887790215681" lon="13.911463908498366"><ele>5.0</ele><time>2026-04-05T14:03:48Z</time></trkpt><trkpt lat="42.887820228505824" lon="13.91129594385225"><ele>5.0</ele><time>2026-04-05T14:03:49Z</time></trkpt><trkpt lat="42.887855977809124" lon="13.911129867659692"><ele>5.0</ele><time>2026-04-05T14:03:50Z</time></trkpt><trkpt lat="42.88789362262904" lon="13.910965106888652"><ele>4.25</ele><time>2026-04-05T14:03:51Z</time></trkpt><trkpt lat="42.887927939157294" lon="13.910797702945523"><ele>3.5</ele><time>2026-04-05T14:03:52Z</time></trkpt><trkpt lat="42.88796601766453" lon="13.910622752206795"><ele>2.75</ele><time>2026-04-05T14:03:53Z</time></trkpt><trkpt lat="42.88800241630657" lon="13.910449334507717"><ele>2.0</ele><time>2026-04-05T14:03:54Z</time></trkpt><trkpt lat="42.88804417570577" lon="13.910272384064982"><ele>2.0</ele><time>2026-04-05T14:03:55Z</time></trkpt><trkpt lat="42.88808177179021" lon="13.910092995497115"><ele>2.0</ele><time>2026-04-05T14:03:56Z</time></trkpt><trkpt lat="42.888118967435894" lon="13.909912478398265"><ele>2.0</ele><time>2026-04-05T14:03:57Z</time></trkpt><trkpt lat="42.88815886798034" lon="13.90973210081625"><ele>2.0</ele><time>2026-04-05T14:03:58Z</time></trkpt><trkpt lat="42.88820177694455" lon="13.909547076006868"><ele>2.0</ele><time>2026-04-05T14:03:59Z</time></trkpt><trkpt lat="42.888238521395984" lon="13.909367983767678"><ele>2.0</ele><time>2026-04-05T14:04:00Z</time></trkpt><trkpt lat="42.888276355898356" lon="13.909188729175337"><ele>2.0</ele><time>2026-04-05T14:04:01Z</time></trkpt><trkpt lat="42.888316801543084" lon="13.909017541182163"><ele>2.0</ele><time>2026-04-05T14:04:01.999Z</time></trkpt><trkpt lat="42.88835087224989" lon="13.908856172154149"><ele>2.0</ele><time>2026-04-05T14:04:02.999Z</time></trkpt><trkpt lat="42.88838728736066" lon="13.90870678793671"><ele>2.0</ele><time>2026-04-05T14:04:03.999Z</time></trkpt><trkpt lat="42.88841324817398" lon="13.908560556006025"><ele>2.0</ele><time>2026-04-05T14:04:04.999Z</time></trkpt><trkpt lat="42.88844741926875" lon="13.908424714516237"><ele>2.0</ele><time>2026-04-05T14:04:05.999Z</time></trkpt><trkpt lat="42.88848070238378" lon="13.908297518618316"><ele>2.0</ele><time>2026-04-05T14:04:06.999Z</time></trkpt><trkpt lat="42.888506974719874" lon="13.908174172158766"><ele>2.0</ele><time>2026-04-05T14:04:07.999Z</time></trkpt><trkpt lat="42.88853808121578" lon="13.908061955334173"><ele>2.0</ele><time>2026-04-05T14:04:08.999Z</time></trkpt><trkpt lat="42.88856678452411" lon="13.907948935462805"><ele>2.0</ele><time>2026-04-05T14:04:09.999Z</time></trkpt><trkpt lat="42.88860000614423" lon="13.907830899450346"><ele>2.0</ele><time>2026-04-05T14:04:10.999Z</time></trkpt><trkpt lat="42.88862702978968" lon="13.907712855961755"><ele>2.0</ele><time>2026-04-05T14:04:11.999Z</time></trkpt><trkpt lat="42.88865923390669" lon="13.907576248753013"><ele>2.25</ele><time>2026-04-05T14:04:12.999Z</time></trkpt><trkpt lat="42.888689437048896" lon="13.90743075095561"><ele>2.5</ele><time>2026-04-05T14:04:13.999Z</time></trkpt><trkpt lat="42.88871278468616" lon="13.907272438007292"><ele>2.75</ele><time>2026-04-05T14:04:14.999Z</time></trkpt><trkpt lat="42.88874841400948" lon="13.907107478689202"><ele>3.0</ele><time>2026-04-05T14:04:15.999Z</time></trkpt><trkpt lat="42.88878138063533" lon="13.906934267343265"><ele>3.0</ele><time>2026-04-05T14:04:16.999Z</time></trkpt><trkpt lat="42.88881856628346" lon="13.906745952668844"><ele>3.0</ele><time>2026-04-05T14:04:17.999Z</time></trkpt><trkpt lat="42.88886055909685" lon="13.906560103083146"><ele>3.0</ele><time>2026-04-05T14:04:18.999Z</time></trkpt><trkpt lat="42.88889902925313" lon="13.906360829877421"><ele>3.0</ele><time>2026-04-05T14:04:19.999Z</time></trkpt><trkpt lat="42.88894118331806" lon="13.90615550671239"><ele>3.0</ele><time>2026-04-05T14:04:20.999Z</time></trkpt><trkpt lat="42.88899173054312" lon="13.905957059042134"><ele>3.0</ele><time>2026-04-05T14:04:21.999Z</time></trkpt><trkpt lat="42.8890341744536" lon="13.905748275564964"><ele>3.0</ele><time>2026-04-05T14:04:22.999Z</time></trkpt><trkpt lat="42.88907975434616" lon="13.90553580302512"><ele>3.0</ele><time>2026-04-05T14:04:23.999Z</time></trkpt><trkpt lat="42.889122754833295" lon="13.905327459874869"><ele>3.0</ele><time>2026-04-05T14:04:24.999Z</time></trkpt><trkpt lat="42.88916445742311" lon="13.905114529576"><ele>3.0</ele><time>2026-04-05T14:04:25.999Z</time></trkpt><trkpt lat="42.889212624827515" lon="13.904912339992858"><ele>3.333333333333333</ele><time>2026-04-05T14:04:26.999Z</time></trkpt><trkpt lat="42.8892565044766" lon="13.90470710173415"><ele>3.6666666666666665</ele><time>2026-04-05T14:04:27.999Z</time></trkpt><trkpt lat="42.889297680324056" lon="13.904507259691712"><ele>4.0</ele><time>2026-04-05T14:04:28.999Z</time></trkpt><trkpt lat="42.88934191616189" lon="13.904310027929716"><ele>3.25</ele><time>2026-04-05T14:04:29.999Z</time></trkpt><trkpt lat="42.88938478757603" lon="13.904115906542312"><ele>2.5</ele><time>2026-04-05T14:04:30.999Z</time></trkpt><trkpt lat="42.889425259020975" lon="13.903923537737565"><ele>1.75</ele><time>2026-04-05T14:04:31.999Z</time></trkpt><trkpt lat="42.88946658850067" lon="13.90373030182351"><ele>1.0</ele><time>2026-04-05T14:04:32.999Z</time></trkpt><trkpt lat="42.88950848187032" lon="13.903538526620693"><ele>1.0</ele><time>2026-04-05T14:04:33.999Z</time></trkpt><trkpt lat="42.889552026173426" lon="13.903351621213242"><ele>1.0</ele><time>2026-04-05T14:04:34.999Z</time></trkpt><trkpt lat="42.889592381332484" lon="13.903160179391683"><ele>1.0</ele><time>2026-04-05T14:04:35.999Z</time></trkpt><trkpt lat="42.88967271823717" lon="13.902795752625787"><ele>1.0</ele><time>2026-04-05T14:04:37.999Z</time></trkpt><trkpt lat="42.88971267193087" lon="13.902621087348015"><ele>1.0</ele><time>2026-04-05T14:04:38.999Z</time></trkpt><trkpt lat="42.889748475206964" lon="13.9024492697649"><ele>1.0</ele><time>2026-04-05T14:04:39.999Z</time></trkpt><trkpt lat="42.88978551355043" lon="13.90227809649894"><ele>1.0</ele><time>2026-04-05T14:04:40.999Z</time></trkpt><trkpt lat="42.88980764515356" lon="13.902107405719667"><ele>1.0</ele><time>2026-04-05T14:04:41.999Z</time></trkpt><trkpt lat="42.88984920106836" lon="13.90194158966041"><ele>1.0</ele><time>2026-04-05T14:04:42.999Z</time></trkpt><trkpt lat="42.889884678738255" lon="13.901775032104013"><ele>1.0</ele><time>2026-04-05T14:04:43.999Z</time></trkpt><trkpt lat="42.889913756668136" lon="13.90161389192038"><ele>1.0</ele><time>2026-04-05T14:04:44.999Z</time></trkpt><trkpt lat="42.88994988602958" lon="13.901451892320743"><ele>1.0</ele><time>2026-04-05T14:04:45.999Z</time></trkpt><trkpt lat="42.889982944493404" lon="13.901290561487565"><ele>1.0</ele><time>2026-04-05T14:04:46.999Z</time></trkpt><trkpt lat="42.89001655072429" lon="13.901129647535688"><ele>1.0</ele><time>2026-04-05T14:04:47.999Z</time></trkpt><trkpt lat="42.89005031480938" lon="13.90096810767129"><ele>1.0</ele><time>2026-04-05T14:04:48.999Z</time></trkpt><trkpt lat="42.89008222539261" lon="13.900804584403847"><ele>1.25</ele><time>2026-04-05T14:04:49.999Z</time></trkpt><trkpt lat="42.89011424348119" lon="13.9006385712778"><ele>1.5</ele><time>2026-04-05T14:04:50.999Z</time></trkpt><trkpt lat="42.89014639747771" lon="13.900477044865"><ele>1.75</ele><time>2026-04-05T14:04:51.999Z</time></trkpt><trkpt lat="42.890176776248545" lon="13.900312501186146"><ele>2.0</ele><time>2026-04-05T14:04:52.999Z</time></trkpt><trkpt lat="42.89020699885046" lon="13.900157422159253"><ele>2.2</ele><time>2026-04-05T14:04:53.999Z</time></trkpt><trkpt lat="42.89023201549146" lon="13.900011681142534"><ele>2.4000000000000004</ele><time>2026-04-05T14:04:54.999Z</time></trkpt><trkpt lat="42.89026049581513" lon="13.899869854889412"><ele>2.5999999999999996</ele><time>2026-04-05T14:04:55.999Z</time></trkpt><trkpt lat="42.89028826387946" lon="13.89973258220713"><ele>2.8</ele><time>2026-04-05T14:04:56.999Z</time></trkpt><trkpt lat="42.89030993083426" lon="13.899614802682063"><ele>3.0</ele><time>2026-04-05T14:04:57.999Z</time></trkpt><trkpt lat="42.890327163804535" lon="13.899522174879344"><ele>3.0</ele><time>2026-04-05T14:04:59Z</time></trkpt><trkpt lat="42.89034481372467" lon="13.899407321277367"><ele>3.0</ele><time>2026-04-05T14:05:01Z</time></trkpt><trkpt lat="42.890372748240814" lon="13.89926593045959"><ele>3.0</ele><time>2026-04-05T14:05:03.999Z</time></trkpt><trkpt lat="42.8904094749462" lon="13.899095960378848"><ele>3.0</ele><time>2026-04-05T14:05:05.999Z</time></trkpt><trkpt lat="42.89040233233108" lon="13.898969065055581"><ele>3.0</ele><time>2026-04-05T14:05:07Z</time></trkpt><trkpt lat="42.890420284565295" lon="13.898862226708765"><ele>4.0</ele><time>2026-04-05T14:05:08Z</time></trkpt><trkpt lat="42.89054003737071" lon="13.89877934075275"><ele>5.0</ele><time>2026-04-05T14:05:09Z</time></trkpt><trkpt lat="42.89061309233937" lon="13.898670770757715"><ele>6.0</ele><time>2026-04-05T14:05:10Z</time></trkpt><trkpt lat="42.8906981155437" lon="13.898566428547454"><ele>7.0</ele><time>2026-04-05T14:05:11Z</time></trkpt><trkpt lat="42.89078742472205" lon="13.898453581559904"><ele>7.0</ele><time>2026-04-05T14:05:12Z</time></trkpt><trkpt lat="42.89087884660649" lon="13.898337494608016"><ele>7.0</ele><time>2026-04-05T14:05:13Z</time></trkpt><trkpt lat="42.89096520600277" lon="13.898228184608836"><ele>7.0</ele><time>2026-04-05T14:05:14Z</time></trkpt><trkpt lat="42.891048487793896" lon="13.898117399304196"><ele>7.0</ele><time>2026-04-05T14:05:15Z</time></trkpt><trkpt lat="42.89112503890465" lon="13.898016376996518"><ele>7.000000000000001</ele><time>2026-04-05T14:05:16Z</time></trkpt><trkpt lat="42.89119385462198" lon="13.897921758307072"><ele>7.0</ele><time>2026-04-05T14:05:17Z</time></trkpt><trkpt lat="42.89125721290367" lon="13.897834427058166"><ele>7.0</ele><time>2026-04-05T14:05:18Z</time></trkpt><trkpt lat="42.891320655793535" lon="13.897760165430805"><ele>7.0</ele><time>2026-04-05T14:05:19Z</time></trkpt><trkpt lat="42.89138528267302" lon="13.897695103331689"><ele>7.000000000000001</ele><time>2026-04-05T14:05:20Z</time></trkpt><trkpt lat="42.89145723005177" lon="13.89763246329882"><ele>7.0</ele><time>2026-04-05T14:05:21Z</time></trkpt><trkpt lat="42.89151511989839" lon="13.897545791094988"><ele>7.000000000000001</ele><time>2026-04-05T14:05:22Z</time></trkpt><trkpt lat="42.89155788957305" lon="13.897445332710532"><ele>7.0</ele><time>2026-04-05T14:05:23Z</time></trkpt><trkpt lat="42.89158958319422" lon="13.897342821065772"><ele>7.0</ele><time>2026-04-05T14:05:24Z</time></trkpt><trkpt lat="42.891624705574536" lon="13.897249446853019"><ele>7.0</ele><time>2026-04-05T14:05:25Z</time></trkpt><trkpt lat="42.89167371863602" lon="13.89716146802158"><ele>7.000000000000001</ele><time>2026-04-05T14:05:26Z</time></trkpt><trkpt lat="42.89173782383469" lon="13.897068868792577"><ele>7.0</ele><time>2026-04-05T14:05:27Z</time></trkpt><trkpt lat="42.8918156100555" lon="13.896981081299762"><ele>5.75</ele><time>2026-04-05T14:05:28Z</time></trkpt><trkpt lat="42.89190319835196" lon="13.896888817110176"><ele>4.5</ele><time>2026-04-05T14:05:29Z</time></trkpt><trkpt lat="42.89199924915538" lon="13.896798604064925"><ele>3.25</ele><time>2026-04-05T14:05:30Z</time></trkpt><trkpt lat="42.89209591159278" lon="13.89671440481493"><ele>2.0</ele><time>2026-04-05T14:05:31Z</time></trkpt><trkpt lat="42.892201967766134" lon="13.896632382587525"><ele>1.5</ele><time>2026-04-05T14:05:32Z</time></trkpt><trkpt lat="42.89231275725233" lon="13.896558169106642"><ele>1.0</ele><time>2026-04-05T14:05:33Z</time></trkpt><trkpt lat="42.892432665934365" lon="13.896493645874529"><ele>0.5</ele><time>2026-04-05T14:05:34Z</time></trkpt><trkpt lat="42.89256053348034" lon="13.896435952865312"><ele>0.0</ele><time>2026-04-05T14:05:35Z</time></trkpt><trkpt lat="42.89269431545913" lon="13.896384851349707"><ele>1.25</ele><time>2026-04-05T14:05:36Z</time></trkpt><trkpt lat="42.89283172634868" lon="13.896345036247947"><ele>2.5</ele><time>2026-04-05T14:05:37Z</time></trkpt><trkpt lat="42.89297443953604" lon="13.896315251234036"><ele>3.75</ele><time>2026-04-05T14:05:38Z</time></trkpt><trkpt lat="42.893117167273154" lon="13.896289510770828"><ele>5.0</ele><time>2026-04-05T14:05:39Z</time></trkpt><trkpt lat="42.893260164915986" lon="13.89627558174622"><ele>5.0</ele><time>2026-04-05T14:05:40Z</time></trkpt><trkpt lat="42.89339908482772" lon="13.896260937220374"><ele>5.0</ele><time>2026-04-05T14:05:41Z</time></trkpt><trkpt lat="42.89353488008428" lon="13.896245980094463"><ele>5.0</ele><time>2026-04-05T14:05:42Z</time></trkpt><trkpt lat="42.89366503853438" lon="13.896235074739817"><ele>5.0</ele><time>2026-04-05T14:05:43Z</time></trkpt><trkpt lat="42.893792775238246" lon="13.896218994857524"><ele>5.4</ele><time>2026-04-05T14:05:44Z</time></trkpt><trkpt lat="42.89390607054171" lon="13.896209139056012"><ele>5.8</ele><time>2026-04-05T14:05:45Z</time></trkpt><trkpt lat="42.894012100234825" lon="13.896199899316494"><ele>6.199999999999999</ele><time>2026-04-05T14:05:46Z</time></trkpt><trkpt lat="42.89411323836508" lon="13.89620537535252"><ele>6.6</ele><time>2026-04-05T14:05:47Z</time></trkpt><trkpt lat="42.894206730712646" lon="13.896234821723397"><ele>7.0</ele><time>2026-04-05T14:05:48Z</time></trkpt><trkpt lat="42.89428742475002" lon="13.896300684159822"><ele>7.0</ele><time>2026-04-05T14:05:49Z</time></trkpt><trkpt lat="42.89436315325418" lon="13.89638895285661"><ele>6.999999999999999</ele><time>2026-04-05T14:05:50Z</time></trkpt><trkpt lat="42.89443972512662" lon="13.896490972244802"><ele>6.999999999999999</ele><time>2026-04-05T14:05:51Z</time></trkpt><trkpt lat="42.89450623015557" lon="13.89659911725511"><ele>7.0</ele><time>2026-04-05T14:05:52Z</time></trkpt><trkpt lat="42.89455176569334" lon="13.89672463756854"><ele>7.0</ele><time>2026-04-05T14:05:53Z</time></trkpt><trkpt lat="42.89458016368182" lon="13.896854950526375"><ele>7.0</ele><time>2026-04-05T14:05:54Z</time></trkpt><trkpt lat="42.894610300473886" lon="13.896989345546237"><ele>6.999999999999999</ele><time>2026-04-05T14:05:55Z</time></trkpt><trkpt lat="42.894662857775764" lon="13.897122135329619"><ele>6.999999999999999</ele><time>2026-04-05T14:05:56Z</time></trkpt><trkpt lat="42.89473778836025" lon="13.897206803365869"><ele>7.0</ele><time>2026-04-05T14:05:57Z</time></trkpt><trkpt lat="42.894835254854534" lon="13.897270790405123"><ele>7.0</ele><time>2026-04-05T14:05:58Z</time></trkpt><trkpt lat="42.89494664863199" lon="13.897292995829284"><ele>7.0</ele><time>2026-04-05T14:05:59Z</time></trkpt><trkpt lat="42.89506374118122" lon="13.897276585963988"><ele>7.0</ele><time>2026-04-05T14:06:00Z</time></trkpt><trkpt lat="42.89518218751982" lon="13.897229050264276"><ele>7.0</ele><time>2026-04-05T14:06:01Z</time></trkpt><trkpt lat="42.89529807971786" lon="13.89715647586889"><ele>7.0</ele><time>2026-04-05T14:06:02Z</time></trkpt><trkpt lat="42.8954078047211" lon="13.897052992804344"><ele>6.75</ele><time>2026-04-05T14:06:03Z</time></trkpt><trkpt lat="42.89550773047888" lon="13.89691871527759"><ele>6.5</ele><time>2026-04-05T14:06:04Z</time></trkpt><trkpt lat="42.895584778401506" lon="13.896761062798825"><ele>6.25</ele><time>2026-04-05T14:06:05Z</time></trkpt><trkpt lat="42.895634496862755" lon="13.8965793273517"><ele>6.0</ele><time>2026-04-05T14:06:06Z</time></trkpt><trkpt lat="42.89568491307186" lon="13.896382922307557"><ele>5.666666666666667</ele><time>2026-04-05T14:06:07Z</time></trkpt><trkpt lat="42.89572180496844" lon="13.896188304434421"><ele>5.333333333333334</ele><time>2026-04-05T14:06:07.999Z</time></trkpt><trkpt lat="42.89573482715081" lon="13.895955390997264"><ele>5.0</ele><time>2026-04-05T14:06:08.999Z</time></trkpt><trkpt lat="42.89577059426122" lon="13.89573756685651"><ele>4.666666666666667</ele><time>2026-04-05T14:06:09.999Z</time></trkpt><trkpt lat="42.89580474318539" lon="13.895508656917228"><ele>4.333333333333333</ele><time>2026-04-05T14:06:10.999Z</time></trkpt><trkpt lat="42.89583038426453" lon="13.895272329134709"><ele>4.0</ele><time>2026-04-05T14:06:11.999Z</time></trkpt><trkpt lat="42.89584915478989" lon="13.895036096373342"><ele>3.0</ele><time>2026-04-05T14:06:12.999Z</time></trkpt><trkpt lat="42.89586021585007" lon="13.894789306538346"><ele>2.0</ele><time>2026-04-05T14:06:13.999Z</time></trkpt><trkpt lat="42.89586038802139" lon="13.894536473351392"><ele>1.0</ele><time>2026-04-05T14:06:14.999Z</time></trkpt><trkpt lat="42.89586012326228" lon="13.894275514521008"><ele>0.6666666666666666</ele><time>2026-04-05T14:06:15.999Z</time></trkpt><trkpt lat="42.89586520670367" lon="13.894006152584735"><ele>0.3333333333333333</ele><time>2026-04-05T14:06:16.999Z</time></trkpt><trkpt lat="42.895872549404395" lon="13.89373644013592"><ele>0.0</ele><time>2026-04-05T14:06:17.999Z</time></trkpt><trkpt lat="42.895878367834364" lon="13.893459727785824"><ele>0.3333333333333333</ele><time>2026-04-05T14:06:18.999Z</time></trkpt><trkpt lat="42.89588316764618" lon="13.893179037394784"><ele>0.6666666666666666</ele><time>2026-04-05T14:06:19.999Z</time></trkpt><trkpt lat="42.89589197724237" lon="13.89289369673027"><ele>1.0</ele><time>2026-04-05T14:06:20.999Z</time></trkpt><trkpt lat="42.895904824385745" lon="13.892601120486942"><ele>1.3333333333333333</ele><time>2026-04-05T14:06:21.999Z</time></trkpt><trkpt lat="42.89591722308874" lon="13.892303412418629"><ele>1.6666666666666665</ele><time>2026-04-05T14:06:22.999Z</time></trkpt><trkpt lat="42.89592728406702" lon="13.891998894188996"><ele>2.0</ele><time>2026-04-05T14:06:23.999Z</time></trkpt><trkpt lat="42.895938018315015" lon="13.891702972340852"><ele>2.6666666666666665</ele><time>2026-04-05T14:06:24.999Z</time></trkpt><trkpt lat="42.895950597247584" lon="13.89140031938483"><ele>3.333333333333333</ele><time>2026-04-05T14:06:25.999Z</time></trkpt><trkpt lat="42.89596369793145" lon="13.891090805019587"><ele>4.0</ele><time>2026-04-05T14:06:26.999Z</time></trkpt><trkpt lat="42.895975245070176" lon="13.890780848751035"><ele>4.0</ele><time>2026-04-05T14:06:27.999Z</time></trkpt><trkpt lat="42.895986148415325" lon="13.890468847718804"><ele>4.0</ele><time>2026-04-05T14:06:28.999Z</time></trkpt><trkpt lat="42.89599698421729" lon="13.890154127820933"><ele>3.0</ele><time>2026-04-05T14:06:29.999Z</time></trkpt><trkpt lat="42.89600923843798" lon="13.889836609706176"><ele>2.0</ele><time>2026-04-05T14:06:30.999Z</time></trkpt><trkpt lat="42.8960199543434" lon="13.88951667567263"><ele>2.5</ele><time>2026-04-05T14:06:31.999Z</time></trkpt><trkpt lat="42.89602834450555" lon="13.889198222710931"><ele>3.0</ele><time>2026-04-05T14:06:32.999Z</time></trkpt><trkpt lat="42.89604072492601" lon="13.88887610170747"><ele>3.0</ele><time>2026-04-05T14:06:33.999Z</time></trkpt><trkpt lat="42.89605132631554" lon="13.88854937088664"><ele>3.0</ele><time>2026-04-05T14:06:34.999Z</time></trkpt><trkpt lat="42.89605435242071" lon="13.888218998604978"><ele>3.0</ele><time>2026-04-05T14:06:35.999Z</time></trkpt><trkpt lat="42.89604838937427" lon="13.887888580511472"><ele>3.0</ele><time>2026-04-05T14:06:36.999Z</time></trkpt><trkpt lat="42.89603934903195" lon="13.887542913786177"><ele>3.0</ele><time>2026-04-05T14:06:37.999Z</time></trkpt><trkpt lat="42.89602669942788" lon="13.887189139570719"><ele>3.0</ele><time>2026-04-05T14:06:38.999Z</time></trkpt><trkpt lat="42.8960084857136" lon="13.88682654532711"><ele>3.0</ele><time>2026-04-05T14:06:39.999Z</time></trkpt><trkpt lat="42.89598274631304" lon="13.88645912676361"><ele>3.0</ele><time>2026-04-05T14:06:40.999Z</time></trkpt><trkpt lat="42.89594157890446" lon="13.886208555416147"><ele>3.5</ele><time>2026-04-05T14:06:41.999Z</time></trkpt><trkpt lat="42.89589150994492" lon="13.885861835514936"><ele>4.0</ele><time>2026-04-05T14:06:42.999Z</time></trkpt><trkpt lat="42.89584210781739" lon="13.885514884755448"><ele>4.0</ele><time>2026-04-05T14:06:43.999Z</time></trkpt><trkpt lat="42.89579436127952" lon="13.885160843561057"><ele>4.0</ele><time>2026-04-05T14:06:45Z</time></trkpt><trkpt lat="42.895747287409755" lon="13.884807599315634"><ele>5.0</ele><time>2026-04-05T14:06:46Z</time></trkpt><trkpt lat="42.895692673321484" lon="13.884447864782997"><ele>6.0</ele><time>2026-04-05T14:06:47Z</time></trkpt><trkpt lat="42.89564725219248" lon="13.884100229868212"><ele>6.0</ele><time>2026-04-05T14:06:48Z</time></trkpt><trkpt lat="42.8956030307033" lon="13.883742473024684"><ele>6.0</ele><time>2026-04-05T14:06:49Z</time></trkpt><trkpt lat="42.89556118269527" lon="13.883379410835131"><ele>5.5</ele><time>2026-04-05T14:06:50Z</time></trkpt><trkpt lat="42.89551603274024" lon="13.883016886822803"><ele>5.0</ele><time>2026-04-05T14:06:51Z</time></trkpt><trkpt lat="42.89546720240573" lon="13.882651602099221"><ele>4.5</ele><time>2026-04-05T14:06:52Z</time></trkpt><trkpt lat="42.89541635998201" lon="13.882282679449162"><ele>4.0</ele><time>2026-04-05T14:06:53Z</time></trkpt><trkpt lat="42.89537142331371" lon="13.881915239539"><ele>4.0</ele><time>2026-04-05T14:06:54Z</time></trkpt><trkpt lat="42.895325575615644" lon="13.88154847054855"><ele>4.0</ele><time>2026-04-05T14:06:55Z</time></trkpt><trkpt lat="42.89527364328358" lon="13.881173810656378"><ele>4.5</ele><time>2026-04-05T14:06:56Z</time></trkpt><trkpt lat="42.895225458893336" lon="13.880798003077285"><ele>5.0</ele><time>2026-04-05T14:06:57Z</time></trkpt><trkpt lat="42.89517526788226" lon="13.880433520347026"><ele>5.0</ele><time>2026-04-05T14:06:58Z</time></trkpt><trkpt lat="42.895130557913674" lon="13.88006630730993"><ele>5.0</ele><time>2026-04-05T14:06:59Z</time></trkpt><trkpt lat="42.89508453657995" lon="13.879695889440185"><ele>5.0</ele><time>2026-04-05T14:07:00Z</time></trkpt><trkpt lat="42.89503776294838" lon="13.879321831761793"><ele>5.0</ele><time>2026-04-05T14:07:01Z</time></trkpt><trkpt lat="42.894987063632946" lon="13.878946627191048"><ele>4.5</ele><time>2026-04-05T14:07:02Z</time></trkpt><trkpt lat="42.89493623397541" lon="13.878574347699704"><ele>4.0</ele><time>2026-04-05T14:07:03Z</time></trkpt><trkpt lat="42.894887264133885" lon="13.878200680911954"><ele>4.0</ele><time>2026-04-05T14:07:04.001Z</time></trkpt><trkpt lat="42.89483847718267" lon="13.877821112793644"><ele>4.0</ele><time>2026-04-05T14:07:05.001Z</time></trkpt><trkpt lat="42.89478755820126" lon="13.877438066498778"><ele>4.0</ele><time>2026-04-05T14:07:06.001Z</time></trkpt><trkpt lat="42.894735863176095" lon="13.87706611326702"><ele>4.0</ele><time>2026-04-05T14:07:07.001Z</time></trkpt><trkpt lat="42.894681159269815" lon="13.876694162657225"><ele>4.5</ele><time>2026-04-05T14:07:08.001Z</time></trkpt><trkpt lat="42.89461671386759" lon="13.876328489133247"><ele>5.0</ele><time>2026-04-05T14:07:09.001Z</time></trkpt><trkpt lat="42.89454323650787" lon="13.875962764687387"><ele>5.0</ele><time>2026-04-05T14:07:10.001Z</time></trkpt><trkpt lat="42.89446439905218" lon="13.875591525347241"><ele>5.0</ele><time>2026-04-05T14:07:11.001Z</time></trkpt><trkpt lat="42.89437322744343" lon="13.87522469057487"><ele>5.0</ele><time>2026-04-05T14:07:12.001Z</time></trkpt><trkpt lat="42.894269439487694" lon="13.874863757164606"><ele>5.0</ele><time>2026-04-05T14:07:13.001Z</time></trkpt><trkpt lat="42.89415745259275" lon="13.874500680428344"><ele>4.5</ele><time>2026-04-05T14:07:14.001Z</time></trkpt><trkpt lat="42.89403471353745" lon="13.874142579643008"><ele>4.0</ele><time>2026-04-05T14:07:15.001Z</time></trkpt><trkpt lat="42.89390207363602" lon="13.873790180559395"><ele>5.0</ele><time>2026-04-05T14:07:16.001Z</time></trkpt><trkpt lat="42.89376555636056" lon="13.873434640369647"><ele>6.0</ele><time>2026-04-05T14:07:17.001Z</time></trkpt><trkpt lat="42.893627884442765" lon="13.873078585675588"><ele>6.0</ele><time>2026-04-05T14:07:18.001Z</time></trkpt><trkpt lat="42.89348716165652" lon="13.872723018223104"><ele>6.0</ele><time>2026-04-05T14:07:19.001Z</time></trkpt><trkpt lat="42.89334889970223" lon="13.872365395760168"><ele>6.5</ele><time>2026-04-05T14:07:20.001Z</time></trkpt><trkpt lat="42.89321079770764" lon="13.87200583723595"><ele>7.0</ele><time>2026-04-05T14:07:21.001Z</time></trkpt><trkpt lat="42.89307263613376" lon="13.871648779466032"><ele>7.0</ele><time>2026-04-05T14:07:22.001Z</time></trkpt><trkpt lat="42.89293595102978" lon="13.871288372681056"><ele>7.0</ele><time>2026-04-05T14:07:23.001Z</time></trkpt><trkpt lat="42.89280159748391" lon="13.870926032219339"><ele>7.0</ele><time>2026-04-05T14:07:24.001Z</time></trkpt><trkpt lat="42.89266491246285" lon="13.870566152361887"><ele>7.0</ele><time>2026-04-05T14:07:25.001Z</time></trkpt><trkpt lat="42.892525265933905" lon="13.870207879183695"><ele>7.0</ele><time>2026-04-05T14:07:26.001Z</time></trkpt><trkpt lat="42.892381771282224" lon="13.869849482502612"><ele>7.0</ele><time>2026-04-05T14:07:27.001Z</time></trkpt><trkpt lat="42.89224354839019" lon="13.869492103179134"><ele>7.0</ele><time>2026-04-05T14:07:28.001Z</time></trkpt><trkpt lat="42.892108350711574" lon="13.869126177776938"><ele>7.0</ele><time>2026-04-05T14:07:29.001Z</time></trkpt><trkpt lat="42.891977688691696" lon="13.86875791048503"><ele>7.0</ele><time>2026-04-05T14:07:30.001Z</time></trkpt><trkpt lat="42.89184414377147" lon="13.868395234578037"><ele>7.0</ele><time>2026-04-05T14:07:31.001Z</time></trkpt><trkpt lat="42.89170991388249" lon="13.86803415665288"><ele>6.5</ele><time>2026-04-05T14:07:32.001Z</time></trkpt><trkpt lat="42.891568088701916" lon="13.867678561791033"><ele>6.0</ele><time>2026-04-05T14:07:33.001Z</time></trkpt><trkpt lat="42.891430495257204" lon="13.867317842009086"><ele>6.5</ele><time>2026-04-05T14:07:34.001Z</time></trkpt><trkpt lat="42.89129318676724" lon="13.866959735448425"><ele>7.0</ele><time>2026-04-05T14:07:35.001Z</time></trkpt><trkpt lat="42.89115594454811" lon="13.866602355077815"><ele>7.0</ele><time>2026-04-05T14:07:36.001Z</time></trkpt><trkpt lat="42.891016721662" lon="13.866245539057438"><ele>7.0</ele><time>2026-04-05T14:07:37.001Z</time></trkpt><trkpt lat="42.89087658359006" lon="13.865889298432466"><ele>7.5</ele><time>2026-04-05T14:07:38.001Z</time></trkpt><trkpt lat="42.890737621596415" lon="13.865531330045002"><ele>8.0</ele><time>2026-04-05T14:07:39.001Z</time></trkpt><trkpt lat="42.89059961094108" lon="13.8651725104553"><ele>7.5</ele><time>2026-04-05T14:07:40.001Z</time></trkpt><trkpt lat="42.89046130842894" lon="13.86481582178743"><ele>7.0</ele><time>2026-04-05T14:07:41.001Z</time></trkpt><trkpt lat="42.89032350572202" lon="13.864461459351887"><ele>6.5</ele><time>2026-04-05T14:07:42.001Z</time></trkpt><trkpt lat="42.89018666936213" lon="13.864105507336623"><ele>6.0</ele><time>2026-04-05T14:07:43.001Z</time></trkpt><trkpt lat="42.89005124623283" lon="13.86375065995122"><ele>6.5</ele><time>2026-04-05T14:07:44.001Z</time></trkpt><trkpt lat="42.88991261555149" lon="13.86339910757834"><ele>7.0</ele><time>2026-04-05T14:07:45.001Z</time></trkpt><trkpt lat="42.889775305521944" lon="13.863048543745775"><ele>7.0</ele><time>2026-04-05T14:07:46.001Z</time></trkpt><trkpt lat="42.88963656939762" lon="13.862694170780829"><ele>7.0</ele><time>2026-04-05T14:07:47.001Z</time></trkpt><trkpt lat="42.88949900130399" lon="13.862342731019941"><ele>7.0</ele><time>2026-04-05T14:07:48.001Z</time></trkpt><trkpt lat="42.88936251289892" lon="13.861989415963437"><ele>7.0</ele><time>2026-04-05T14:07:49.001Z</time></trkpt><trkpt lat="42.88922439609797" lon="13.86163678234943"><ele>6.5</ele><time>2026-04-05T14:07:50.001Z</time></trkpt><trkpt lat="42.88908897451593" lon="13.861282911148919"><ele>6.0</ele><time>2026-04-05T14:07:51.001Z</time></trkpt><trkpt lat="42.88895373045137" lon="13.8609308558019"><ele>6.0</ele><time>2026-04-05T14:07:52.001Z</time></trkpt><trkpt lat="42.888819437757626" lon="13.860578181054134"><ele>6.0</ele><time>2026-04-05T14:07:53.001Z</time></trkpt><trkpt lat="42.888684541944045" lon="13.860230017609528"><ele>6.0</ele><time>2026-04-05T14:07:54.001Z</time></trkpt><trkpt lat="42.888548872848055" lon="13.859880824013345"><ele>6.0</ele><time>2026-04-05T14:07:55.001Z</time></trkpt><trkpt lat="42.888415164606066" lon="13.859531400832848"><ele>6.5</ele><time>2026-04-05T14:07:56.001Z</time></trkpt><trkpt lat="42.888281804119025" lon="13.85918392057972"><ele>7.0</ele><time>2026-04-05T14:07:57.001Z</time></trkpt><trkpt lat="42.88814945699064" lon="13.858838371791746"><ele>7.0</ele><time>2026-04-05T14:07:58.001Z</time></trkpt><trkpt lat="42.88801608073376" lon="13.858492897864735"><ele>7.0</ele><time>2026-04-05T14:07:59.001Z</time></trkpt><trkpt lat="42.88788120186286" lon="13.858150759451986"><ele>8.0</ele><time>2026-04-05T14:08:00.001Z</time></trkpt><trkpt lat="42.8877466705856" lon="13.857803269773239"><ele>9.0</ele><time>2026-04-05T14:08:01.001Z</time></trkpt><trkpt lat="42.887612592611625" lon="13.857451269283626"><ele>9.5</ele><time>2026-04-05T14:08:02.001Z</time></trkpt><trkpt lat="42.88747599895695" lon="13.8571081470413"><ele>10.0</ele><time>2026-04-05T14:08:03.001Z</time></trkpt><trkpt lat="42.88734159460042" lon="13.856757371537373"><ele>10.0</ele><time>2026-04-05T14:08:04.001Z</time></trkpt><trkpt lat="42.88720422958047" lon="13.856406431410997"><ele>10.0</ele><time>2026-04-05T14:08:05.001Z</time></trkpt><trkpt lat="42.88706564145187" lon="13.856054226493113"><ele>11.0</ele><time>2026-04-05T14:08:06.001Z</time></trkpt><trkpt lat="42.8869261635099" lon="13.855704162750564"><ele>12.0</ele><time>2026-04-05T14:08:07.001Z</time></trkpt><trkpt lat="42.88679015744256" lon="13.8553518882639"><ele>10.5</ele><time>2026-04-05T14:08:08.001Z</time></trkpt><trkpt lat="42.88665433897624" lon="13.854995419597865"><ele>9.0</ele><time>2026-04-05T14:08:09.001Z</time></trkpt><trkpt lat="42.886518400858144" lon="13.854642971169145"><ele>9.0</ele><time>2026-04-05T14:08:10.001Z</time></trkpt><trkpt lat="42.88637809941425" lon="13.854300001428985"><ele>9.0</ele><time>2026-04-05T14:08:11.001Z</time></trkpt><trkpt lat="42.8862455817889" lon="13.853961759324966"><ele>9.0</ele><time>2026-04-05T14:08:12.001Z</time></trkpt><trkpt lat="42.88611052309405" lon="13.853584946374758"><ele>9.0</ele><time>2026-04-05T14:08:13.001Z</time></trkpt><trkpt lat="42.88598345599734" lon="13.853232223019088"><ele>9.0</ele><time>2026-04-05T14:08:14.001Z</time></trkpt><trkpt lat="42.88585969329781" lon="13.852877521282222"><ele>9.0</ele><time>2026-04-05T14:08:15.001Z</time></trkpt><trkpt lat="42.88574168194165" lon="13.852513759104298"><ele>9.0</ele><time>2026-04-05T14:08:16.001Z</time></trkpt><trkpt lat="42.88563690723255" lon="13.85213642362627"><ele>9.0</ele><time>2026-04-05T14:08:17.001Z</time></trkpt><trkpt lat="42.88553765436493" lon="13.851765226682778"><ele>10.0</ele><time>2026-04-05T14:08:18.001Z</time></trkpt><trkpt lat="42.88544838003551" lon="13.851390357254557"><ele>11.0</ele><time>2026-04-05T14:08:19.001Z</time></trkpt><trkpt lat="42.88537385967394" lon="13.85100728700693"><ele>11.0</ele><time>2026-04-05T14:08:20.001Z</time></trkpt><trkpt lat="42.88531508253058" lon="13.850617938135912"><ele>11.0</ele><time>2026-04-05T14:08:21.001Z</time></trkpt><trkpt lat="42.88526387292187" lon="13.850230099964579"><ele>12.0</ele><time>2026-04-05T14:08:22.001Z</time></trkpt><trkpt lat="42.88521517767752" lon="13.849843982750617"><ele>13.0</ele><time>2026-04-05T14:08:23.001Z</time></trkpt><trkpt lat="42.88517198103578" lon="13.849455127529904"><ele>12.5</ele><time>2026-04-05T14:08:24.001Z</time></trkpt><trkpt lat="42.88513375606384" lon="13.849064395373787"><ele>12.0</ele><time>2026-04-05T14:08:25.001Z</time></trkpt><trkpt lat="42.88510962635144" lon="13.848664602799662"><ele>12.5</ele><time>2026-04-05T14:08:26.001Z</time></trkpt><trkpt lat="42.88508928252049" lon="13.84826937554792"><ele>13.0</ele><time>2026-04-05T14:08:27.001Z</time></trkpt><trkpt lat="42.88507591172393" lon="13.847870408011746"><ele>14.0</ele><time>2026-04-05T14:08:28.001Z</time></trkpt><trkpt lat="42.88507122568713" lon="13.847471252738423"><ele>15.0</ele><time>2026-04-05T14:08:29.001Z</time></trkpt><trkpt lat="42.88507866235456" lon="13.847069265305514"><ele>13.5</ele><time>2026-04-05T14:08:30.001Z</time></trkpt><trkpt lat="42.88508850628784" lon="13.846671100314428"><ele>12.0</ele><time>2026-04-05T14:08:31.001Z</time></trkpt><trkpt lat="42.88509596720273" lon="13.846270623843436"><ele>11.5</ele><time>2026-04-05T14:08:32.001Z</time></trkpt><trkpt lat="42.8851061492056" lon="13.845871499358845"><ele>11.0</ele><time>2026-04-05T14:08:33.001Z</time></trkpt><trkpt lat="42.88511909897787" lon="13.845463908184863"><ele>12.0</ele><time>2026-04-05T14:08:34.001Z</time></trkpt><trkpt lat="42.88512832526636" lon="13.845060857267594"><ele>13.0</ele><time>2026-04-05T14:08:35.001Z</time></trkpt><trkpt lat="42.88513424720907" lon="13.844657196920023"><ele>13.0</ele><time>2026-04-05T14:08:36.001Z</time></trkpt><trkpt lat="42.88514643541406" lon="13.844243276253698"><ele>13.0</ele><time>2026-04-05T14:08:37.001Z</time></trkpt><trkpt lat="42.885158598481276" lon="13.843831874953423"><ele>13.5</ele><time>2026-04-05T14:08:38.001Z</time></trkpt><trkpt lat="42.885172309971786" lon="13.843427445766835"><ele>14.0</ele><time>2026-04-05T14:08:39.001Z</time></trkpt><trkpt lat="42.88518336110654" lon="13.843010608119322"><ele>15.0</ele><time>2026-04-05T14:08:40.001Z</time></trkpt><trkpt lat="42.8851850832338" lon="13.842597738636186"><ele>16.0</ele><time>2026-04-05T14:08:41.001Z</time></trkpt><trkpt lat="42.88518403227248" lon="13.842182950366272"><ele>15.0</ele><time>2026-04-05T14:08:42.001Z</time></trkpt><trkpt lat="42.88517022283119" lon="13.84176906596358"><ele>14.0</ele><time>2026-04-05T14:08:43.001Z</time></trkpt><trkpt lat="42.88514715767722" lon="13.841351593307648"><ele>14.0</ele><time>2026-04-05T14:08:44.001Z</time></trkpt><trkpt lat="42.88512060806665" lon="13.840924705498006"><ele>14.0</ele><time>2026-04-05T14:08:45.001Z</time></trkpt><trkpt lat="42.885083837582386" lon="13.84050727838194"><ele>13.5</ele><time>2026-04-05T14:08:46.001Z</time></trkpt><trkpt lat="42.88504631410728" lon="13.840087329097022"><ele>13.0</ele><time>2026-04-05T14:08:47.001Z</time></trkpt><trkpt lat="42.884995063973165" lon="13.83966902229565"><ele>13.0</ele><time>2026-04-05T14:08:48.001Z</time></trkpt><trkpt lat="42.88493582788492" lon="13.8392525584229"><ele>13.0</ele><time>2026-04-05T14:08:49.001Z</time></trkpt><trkpt lat="42.88486876960606" lon="13.838837160225363"><ele>12.5</ele><time>2026-04-05T14:08:50.001Z</time></trkpt><trkpt lat="42.88479226827887" lon="13.838428805199554"><ele>12.0</ele><time>2026-04-05T14:08:51.001Z</time></trkpt><trkpt lat="42.88470939816505" lon="13.838021778248615"><ele>14.0</ele><time>2026-04-05T14:08:52.001Z</time></trkpt><trkpt lat="42.88462253599023" lon="13.837616502720158"><ele>16.0</ele><time>2026-04-05T14:08:53.001Z</time></trkpt><trkpt lat="42.88453356173853" lon="13.837213693555963"><ele>16.0</ele><time>2026-04-05T14:08:54.001Z</time></trkpt><trkpt lat="42.884449052323255" lon="13.83681339908644"><ele>16.0</ele><time>2026-04-05T14:08:55.001Z</time></trkpt><trkpt lat="42.884365031251264" lon="13.83641312036803"><ele>16.0</ele><time>2026-04-05T14:08:56.001Z</time></trkpt><trkpt lat="42.884287592792205" lon="13.836012709801704"><ele>16.0</ele><time>2026-04-05T14:08:57.001Z</time></trkpt><trkpt lat="42.884209870554535" lon="13.83561363505995"><ele>15.5</ele><time>2026-04-05T14:08:58.001Z</time></trkpt><trkpt lat="42.88412816200669" lon="13.835218856230723"><ele>15.0</ele><time>2026-04-05T14:08:59.001Z</time></trkpt><trkpt lat="42.884044118508584" lon="13.834827309213095"><ele>15.0</ele><time>2026-04-05T14:09:00.001Z</time></trkpt><trkpt lat="42.88395791228667" lon="13.834436064134044"><ele>15.0</ele><time>2026-04-05T14:09:01.001Z</time></trkpt><trkpt lat="42.88387592234931" lon="13.834043071119632"><ele>15.0</ele><time>2026-04-05T14:09:02.001Z</time></trkpt><trkpt lat="42.88379333284205" lon="13.833650726395181"><ele>15.0</ele><time>2026-04-05T14:09:03.001Z</time></trkpt><trkpt lat="42.8837119111172" lon="13.83325881599901"><ele>16.0</ele><time>2026-04-05T14:09:04.001Z</time></trkpt><trkpt lat="42.88363056752581" lon="13.832867179635269"><ele>17.0</ele><time>2026-04-05T14:09:05.001Z</time></trkpt><trkpt lat="42.88354403566396" lon="13.83248114570767"><ele>17.5</ele><time>2026-04-05T14:09:06.001Z</time></trkpt><trkpt lat="42.88345991271745" lon="13.832091507104336"><ele>18.0</ele><time>2026-04-05T14:09:07.001Z</time></trkpt><trkpt lat="42.88337749173697" lon="13.831701304493702"><ele>17.5</ele><time>2026-04-05T14:09:08.001Z</time></trkpt><trkpt lat="42.883295402103364" lon="13.831311570002821"><ele>17.0</ele><time>2026-04-05T14:09:09.001Z</time></trkpt><trkpt lat="42.88321236506058" lon="13.83092560233435"><ele>17.0</ele><time>2026-04-05T14:09:10.001Z</time></trkpt><trkpt lat="42.88312917194494" lon="13.830539412269088"><ele>17.0</ele><time>2026-04-05T14:09:11.001Z</time></trkpt><trkpt lat="42.88304592604043" lon="13.830153700159382"><ele>17.5</ele><time>2026-04-05T14:09:12.001Z</time></trkpt><trkpt lat="42.88296186352801" lon="13.82976698071757"><ele>18.0</ele><time>2026-04-05T14:09:13.001Z</time></trkpt><trkpt lat="42.88287850692242" lon="13.829382430577654"><ele>17.0</ele><time>2026-04-05T14:09:14.001Z</time></trkpt><trkpt lat="42.882795458488715" lon="13.828996537454703"><ele>16.0</ele><time>2026-04-05T14:09:15.001Z</time></trkpt><trkpt lat="42.88271280377433" lon="13.828608809525713"><ele>16.0</ele><time>2026-04-05T14:09:16.001Z</time></trkpt><trkpt lat="42.88263014795561" lon="13.828221982367996"><ele>16.0</ele><time>2026-04-05T14:09:17.001Z</time></trkpt><trkpt lat="42.88254824783827" lon="13.827831468657624"><ele>16.0</ele><time>2026-04-05T14:09:18.001Z</time></trkpt><trkpt lat="42.88245972752712" lon="13.82745228628292"><ele>16.0</ele><time>2026-04-05T14:09:19.001Z</time></trkpt><trkpt lat="42.88237044826796" lon="13.827069205592469"><ele>17.0</ele><time>2026-04-05T14:09:20.001Z</time></trkpt><trkpt lat="42.88228033213312" lon="13.826687007095133"><ele>18.0</ele><time>2026-04-05T14:09:21.001Z</time></trkpt><trkpt lat="42.8821895407893" lon="13.826309653948554"><ele>18.0</ele><time>2026-04-05T14:09:22.001Z</time></trkpt><trkpt lat="42.882098544425105" lon="13.825929463547341"><ele>18.0</ele><time>2026-04-05T14:09:23.001Z</time></trkpt><trkpt lat="42.882010581128604" lon="13.825547432239896"><ele>18.0</ele><time>2026-04-05T14:09:24.001Z</time></trkpt><trkpt lat="42.88192160825884" lon="13.825165165880424"><ele>18.0</ele><time>2026-04-05T14:09:25.001Z</time></trkpt><trkpt lat="42.8818319980354" lon="13.824781607969888"><ele>18.5</ele><time>2026-04-05T14:09:26.001Z</time></trkpt><trkpt lat="42.881740650762424" lon="13.824405514623475"><ele>19.0</ele><time>2026-04-05T14:09:27.001Z</time></trkpt><trkpt lat="42.88164962250112" lon="13.824030191080034"><ele>19.0</ele><time>2026-04-05T14:09:28.001Z</time></trkpt><trkpt lat="42.881560647678015" lon="13.823654520481925"><ele>19.0</ele><time>2026-04-05T14:09:29.001Z</time></trkpt><trkpt lat="42.88147069910288" lon="13.823280504368748"><ele>19.0</ele><time>2026-04-05T14:09:30.001Z</time></trkpt><trkpt lat="42.881380963789304" lon="13.822910552206384"><ele>19.0</ele><time>2026-04-05T14:09:31.001Z</time></trkpt><trkpt lat="42.88128917342249" lon="13.822544152702966"><ele>19.0</ele><time>2026-04-05T14:09:32.001Z</time></trkpt><trkpt lat="42.88119726155656" lon="13.822175802467282"><ele>19.0</ele><time>2026-04-05T14:09:33.001Z</time></trkpt><trkpt lat="42.88110510565522" lon="13.821805392830395"><ele>20.0</ele><time>2026-04-05T14:09:34.001Z</time></trkpt><trkpt lat="42.88101437771593" lon="13.821431238385955"><ele>21.0</ele><time>2026-04-05T14:09:35.001Z</time></trkpt><trkpt lat="42.880923577612826" lon="13.821051190761692"><ele>21.5</ele><time>2026-04-05T14:09:36.001Z</time></trkpt><trkpt lat="42.880832300211374" lon="13.820671661048085"><ele>22.0</ele><time>2026-04-05T14:09:37.001Z</time></trkpt><trkpt lat="42.88074265552054" lon="13.82028816030493"><ele>23.0</ele><time>2026-04-05T14:09:38.001Z</time></trkpt><trkpt lat="42.88065331749163" lon="13.819910860332794"><ele>24.0</ele><time>2026-04-05T14:09:39.001Z</time></trkpt><trkpt lat="42.88056688758237" lon="13.81952992678302"><ele>22.5</ele><time>2026-04-05T14:09:40.001Z</time></trkpt><trkpt lat="42.88047959687123" lon="13.819144686625652"><ele>21.0</ele><time>2026-04-05T14:09:41.001Z</time></trkpt><trkpt lat="42.880390682664824" lon="13.818762602935461"><ele>20.5</ele><time>2026-04-05T14:09:42.001Z</time></trkpt><trkpt lat="42.88029799048771" lon="13.818379294502968"><ele>20.0</ele><time>2026-04-05T14:09:43.001Z</time></trkpt><trkpt lat="42.88020775489329" lon="13.818002018754916"><ele>21.5</ele><time>2026-04-05T14:09:44.001Z</time></trkpt><trkpt lat="42.880111532355144" lon="13.817620996904465"><ele>23.0</ele><time>2026-04-05T14:09:45.001Z</time></trkpt><trkpt lat="42.88001590754813" lon="13.817232922490915"><ele>23.5</ele><time>2026-04-05T14:09:46.001Z</time></trkpt><trkpt lat="42.87992715964363" lon="13.816844186985083"><ele>24.0</ele><time>2026-04-05T14:09:47.001Z</time></trkpt><trkpt lat="42.87984608099822" lon="13.816452251522646"><ele>24.0</ele><time>2026-04-05T14:09:48.001Z</time></trkpt><trkpt lat="42.87976299181098" lon="13.816070182127113"><ele>24.0</ele><time>2026-04-05T14:09:49.001Z</time></trkpt><trkpt lat="42.879675568740794" lon="13.815692617480652"><ele>24.0</ele><time>2026-04-05T14:09:50.001Z</time></trkpt><trkpt lat="42.87958946933848" lon="13.815316010293959"><ele>24.0</ele><time>2026-04-05T14:09:51.001Z</time></trkpt><trkpt lat="42.87949912087401" lon="13.814942634166412"><ele>23.5</ele><time>2026-04-05T14:09:52.001Z</time></trkpt><trkpt lat="42.87940421304822" lon="13.814568458141293"><ele>23.0</ele><time>2026-04-05T14:09:53.001Z</time></trkpt><trkpt lat="42.87930357659619" lon="13.8141932422074"><ele>22.5</ele><time>2026-04-05T14:09:54.001Z</time></trkpt><trkpt lat="42.87918665766261" lon="13.813830990273601"><ele>22.0</ele><time>2026-04-05T14:09:55.001Z</time></trkpt><trkpt lat="42.87906062980853" lon="13.813464796627695"><ele>22.0</ele><time>2026-04-05T14:09:56.001Z</time></trkpt><trkpt lat="42.87892702337762" lon="13.81311118892537"><ele>22.0</ele><time>2026-04-05T14:09:57.001Z</time></trkpt><trkpt lat="42.878780660618325" lon="13.812759639866224"><ele>21.0</ele><time>2026-04-05T14:09:58.001Z</time></trkpt><trkpt lat="42.87862831600133" lon="13.812412536862023"><ele>20.0</ele><time>2026-04-05T14:09:59.001Z</time></trkpt><trkpt lat="42.878469583586416" lon="13.812073327908777"><ele>19.5</ele><time>2026-04-05T14:10:00.001Z</time></trkpt><trkpt lat="42.87830613240206" lon="13.811740745334475"><ele>19.0</ele><time>2026-04-05T14:10:01.001Z</time></trkpt><trkpt lat="42.87812344708464" lon="13.811417272636398"><ele>19.0</ele><time>2026-04-05T14:10:02.001Z</time></trkpt><trkpt lat="42.877941584404304" lon="13.811099744970615"><ele>19.0</ele><time>2026-04-05T14:10:03.001Z</time></trkpt><trkpt lat="42.877749063560685" lon="13.81079364100072"><ele>19.0</ele><time>2026-04-05T14:10:04.001Z</time></trkpt><trkpt lat="42.87754829729981" lon="13.810494316954534"><ele>19.0</ele><time>2026-04-05T14:10:05.001Z</time></trkpt><trkpt lat="42.87734249145663" lon="13.810206777521259"><ele>19.0</ele><time>2026-04-05T14:10:06.001Z</time></trkpt><trkpt lat="42.877130162750866" lon="13.809928556604758"><ele>19.0</ele><time>2026-04-05T14:10:07.001Z</time></trkpt><trkpt lat="42.87691006483753" lon="13.809658459709064"><ele>19.0</ele><time>2026-04-05T14:10:08.001Z</time></trkpt><trkpt lat="42.87668341258568" lon="13.809396700091959"><ele>19.0</ele><time>2026-04-05T14:10:09.001Z</time></trkpt><trkpt lat="42.87645098875728" lon="13.809140616223853"><ele>19.5</ele><time>2026-04-05T14:10:10.001Z</time></trkpt><trkpt lat="42.87621497762087" lon="13.808895452119838"><ele>20.0</ele><time>2026-04-05T14:10:11.001Z</time></trkpt><trkpt lat="42.875974691496154" lon="13.808661258158338"><ele>19.5</ele><time>2026-04-05T14:10:12.001Z</time></trkpt><trkpt lat="42.87573130928623" lon="13.80843169586284"><ele>19.0</ele><time>2026-04-05T14:10:13.001Z</time></trkpt><trkpt lat="42.87548386321542" lon="13.808206747628205"><ele>19.0</ele><time>2026-04-05T14:10:14.001Z</time></trkpt><trkpt lat="42.87523453347008" lon="13.80798488822516"><ele>19.0</ele><time>2026-04-05T14:10:15.001Z</time></trkpt><trkpt lat="42.87498644173048" lon="13.807763735079119"><ele>20.0</ele><time>2026-04-05T14:10:16.001Z</time></trkpt><trkpt lat="42.87473868329839" lon="13.807538138373644"><ele>21.0</ele><time>2026-04-05T14:10:17.001Z</time></trkpt><trkpt lat="42.87449467599468" lon="13.807319744524424"><ele>20.5</ele><time>2026-04-05T14:10:18.001Z</time></trkpt><trkpt lat="42.87424821716224" lon="13.807100075684218"><ele>20.0</ele><time>2026-04-05T14:10:19.001Z</time></trkpt><trkpt lat="42.874003196898805" lon="13.80687301912751"><ele>20.0</ele><time>2026-04-05T14:10:20.002Z</time></trkpt><trkpt lat="42.8737580402341" lon="13.806649337337715"><ele>20.0</ele><time>2026-04-05T14:10:21.002Z</time></trkpt><trkpt lat="42.87351511743139" lon="13.806426290630121"><ele>20.0</ele><time>2026-04-05T14:10:22.002Z</time></trkpt><trkpt lat="42.87326955615114" lon="13.806201201608577"><ele>20.0</ele><time>2026-04-05T14:10:23.002Z</time></trkpt><trkpt lat="42.8730266173963" lon="13.805974796396203"><ele>20.0</ele><time>2026-04-05T14:10:24.002Z</time></trkpt><trkpt lat="42.87278376903017" lon="13.805755814755488"><ele>20.0</ele><time>2026-04-05T14:10:25.002Z</time></trkpt><trkpt lat="42.872540711771805" lon="13.805531998869938"><ele>20.5</ele><time>2026-04-05T14:10:26.002Z</time></trkpt><trkpt lat="42.872299645421315" lon="13.805306537072083"><ele>21.0</ele><time>2026-04-05T14:10:27.002Z</time></trkpt><trkpt lat="42.872065873099366" lon="13.805064074342473"><ele>21.5</ele><time>2026-04-05T14:10:28.002Z</time></trkpt><trkpt lat="42.87184069596848" lon="13.804804211246108"><ele>22.0</ele><time>2026-04-05T14:10:29.002Z</time></trkpt><trkpt lat="42.871623214796315" lon="13.804538444485345"><ele>21.5</ele><time>2026-04-05T14:10:30.002Z</time></trkpt><trkpt lat="42.87140948914582" lon="13.804263378346928"><ele>21.0</ele><time>2026-04-05T14:10:31.002Z</time></trkpt><trkpt lat="42.87120150501291" lon="13.803978620019478"><ele>21.0</ele><time>2026-04-05T14:10:32.002Z</time></trkpt><trkpt lat="42.8710007272092" lon="13.8036845984441"><ele>21.0</ele><time>2026-04-05T14:10:33.002Z</time></trkpt><trkpt lat="42.870804661247895" lon="13.803383908872062"><ele>21.0</ele><time>2026-04-05T14:10:34.002Z</time></trkpt><trkpt lat="42.870615795346446" lon="13.803073960422662"><ele>21.0</ele><time>2026-04-05T14:10:35.002Z</time></trkpt><trkpt lat="42.870435864287806" lon="13.802754442081845"><ele>20.5</ele><time>2026-04-05T14:10:36.002Z</time></trkpt><trkpt lat="42.87026614290247" lon="13.802422855076523"><ele>20.0</ele><time>2026-04-05T14:10:37.002Z</time></trkpt><trkpt lat="42.87010422034274" lon="13.80208942982458"><ele>21.0</ele><time>2026-04-05T14:10:38.002Z</time></trkpt><trkpt lat="42.86995077208006" lon="13.801749041251433"><ele>22.0</ele><time>2026-04-05T14:10:39.002Z</time></trkpt><trkpt lat="42.86980679513365" lon="13.801400378783832"><ele>22.0</ele><time>2026-04-05T14:10:40.002Z</time></trkpt><trkpt lat="42.86967125260334" lon="13.801044355958544"><ele>22.0</ele><time>2026-04-05T14:10:41.002Z</time></trkpt><trkpt lat="42.86954138640505" lon="13.800685418232687"><ele>22.0</ele><time>2026-04-05T14:10:42.002Z</time></trkpt><trkpt lat="42.86941850268442" lon="13.800323817855373"><ele>22.0</ele><time>2026-04-05T14:10:43.002Z</time></trkpt><trkpt lat="42.869299021880416" lon="13.799959531867163"><ele>21.5</ele><time>2026-04-05T14:10:44.002Z</time></trkpt><trkpt lat="42.86918363948306" lon="13.799593822176114"><ele>21.0</ele><time>2026-04-05T14:10:45.001Z</time></trkpt><trkpt lat="42.869067303899676" lon="13.799230459936911"><ele>21.0</ele><time>2026-04-05T14:10:46.001Z</time></trkpt><trkpt lat="42.868952494995774" lon="13.798865610817112"><ele>21.0</ele><time>2026-04-05T14:10:47.001Z</time></trkpt><trkpt lat="42.86883930675761" lon="13.798506895066236"><ele>21.0</ele><time>2026-04-05T14:10:48.001Z</time></trkpt><trkpt lat="42.86872345566124" lon="13.798144599319924"><ele>21.0</ele><time>2026-04-05T14:10:49.001Z</time></trkpt><trkpt lat="42.868608513619904" lon="13.79778500362153"><ele>21.5</ele><time>2026-04-05T14:10:50.001Z</time></trkpt><trkpt lat="42.868492148275394" lon="13.79742479459295"><ele>22.0</ele><time>2026-04-05T14:10:51.001Z</time></trkpt><trkpt lat="42.86837794007431" lon="13.797063997331328"><ele>21.5</ele><time>2026-04-05T14:10:52.001Z</time></trkpt><trkpt lat="42.868263856593906" lon="13.796701726743475"><ele>21.0</ele><time>2026-04-05T14:10:53.001Z</time></trkpt><trkpt lat="42.86814980019528" lon="13.796340543026517"><ele>21.0</ele><time>2026-04-05T14:10:54.001Z</time></trkpt><trkpt lat="42.86803664069306" lon="13.795976992945931"><ele>21.0</ele><time>2026-04-05T14:10:55.001Z</time></trkpt><trkpt lat="42.86792243024097" lon="13.795613427584595"><ele>21.0</ele><time>2026-04-05T14:10:56.001Z</time></trkpt><trkpt lat="42.86780844127615" lon="13.795249150897492"><ele>21.0</ele><time>2026-04-05T14:10:57.001Z</time></trkpt><trkpt lat="42.86768910062615" lon="13.794886259808894"><ele>21.5</ele><time>2026-04-05T14:10:58.001Z</time></trkpt><trkpt lat="42.86757044815715" lon="13.794522210316426"><ele>22.0</ele><time>2026-04-05T14:10:59.001Z</time></trkpt><trkpt lat="42.867451272968" lon="13.794155380984561"><ele>22.5</ele><time>2026-04-05T14:11:00.001Z</time></trkpt><trkpt lat="42.867334788074224" lon="13.793787347532856"><ele>23.0</ele><time>2026-04-05T14:11:01.001Z</time></trkpt><trkpt lat="42.867218531736604" lon="13.793421144159655"><ele>22.0</ele><time>2026-04-05T14:11:02.001Z</time></trkpt><trkpt lat="42.867105525158365" lon="13.793058138090077"><ele>21.0</ele><time>2026-04-05T14:11:03.001Z</time></trkpt><trkpt lat="42.86699486565428" lon="13.7926914734347"><ele>21.0</ele><time>2026-04-05T14:11:04.001Z</time></trkpt><trkpt lat="42.86688754456424" lon="13.792319967983788"><ele>21.0</ele><time>2026-04-05T14:11:05.001Z</time></trkpt><trkpt lat="42.86678786545063" lon="13.791944862442893"><ele>22.0</ele><time>2026-04-05T14:11:06.001Z</time></trkpt><trkpt lat="42.86668800035734" lon="13.79156874835227"><ele>23.0</ele><time>2026-04-05T14:11:07.001Z</time></trkpt><trkpt lat="42.86658656362833" lon="13.791194631886757"><ele>23.5</ele><time>2026-04-05T14:11:08.001Z</time></trkpt><trkpt lat="42.86648782602479" lon="13.790816847606301"><ele>24.0</ele><time>2026-04-05T14:11:09.001Z</time></trkpt><trkpt lat="42.866389805295704" lon="13.790436327908585"><ele>23.5</ele><time>2026-04-05T14:11:10.001Z</time></trkpt><trkpt lat="42.86628947891684" lon="13.790056662260149"><ele>23.0</ele><time>2026-04-05T14:11:11.001Z</time></trkpt><trkpt lat="42.86618558279139" lon="13.789679489580049"><ele>23.5</ele><time>2026-04-05T14:11:12.001Z</time></trkpt><trkpt lat="42.86608140573137" lon="13.789295459874289"><ele>24.0</ele><time>2026-04-05T14:11:13.001Z</time></trkpt><trkpt lat="42.86597945353811" lon="13.788918393292553"><ele>24.0</ele><time>2026-04-05T14:11:14.001Z</time></trkpt><trkpt lat="42.86587823361401" lon="13.788537641432761"><ele>24.0</ele><time>2026-04-05T14:11:15.001Z</time></trkpt><trkpt lat="42.86577763987953" lon="13.7881611839835"><ele>24.0</ele><time>2026-04-05T14:11:16.001Z</time></trkpt><trkpt lat="42.86567659287291" lon="13.787785325736527"><ele>24.0</ele><time>2026-04-05T14:11:17.001Z</time></trkpt><trkpt lat="42.865576547467015" lon="13.787405393828283"><ele>23.0</ele><time>2026-04-05T14:11:18.001Z</time></trkpt><trkpt lat="42.86547852770124" lon="13.787025561566528"><ele>22.0</ele><time>2026-04-05T14:11:19.001Z</time></trkpt><trkpt lat="42.865380557185375" lon="13.786645946414643"><ele>22.0</ele><time>2026-04-05T14:11:20.001Z</time></trkpt><trkpt lat="42.86527949069111" lon="13.786270242406093"><ele>22.0</ele><time>2026-04-05T14:11:21.001Z</time></trkpt><trkpt lat="42.86518031711348" lon="13.785894368357505"><ele>23.0</ele><time>2026-04-05T14:11:22.001Z</time></trkpt><trkpt lat="42.865079194928526" lon="13.785527276911424"><ele>24.0</ele><time>2026-04-05T14:11:23.001Z</time></trkpt><trkpt lat="42.86497826963998" lon="13.785151681601858"><ele>24.5</ele><time>2026-04-05T14:11:24.001Z</time></trkpt><trkpt lat="42.86487832574425" lon="13.784778339061257"><ele>25.0</ele><time>2026-04-05T14:11:25.001Z</time></trkpt><trkpt lat="42.864779836114245" lon="13.784406602054645"><ele>26.0</ele><time>2026-04-05T14:11:26.001Z</time></trkpt><trkpt lat="42.86468159031586" lon="13.784033589235898"><ele>27.0</ele><time>2026-04-05T14:11:27.001Z</time></trkpt><trkpt lat="42.86458336060162" lon="13.78366217521547"><ele>27.0</ele><time>2026-04-05T14:11:28.001Z</time></trkpt><trkpt lat="42.86448488845177" lon="13.783290912362084"><ele>27.0</ele><time>2026-04-05T14:11:29.001Z</time></trkpt><trkpt lat="42.864383801580495" lon="13.782921633764351"><ele>27.0</ele><time>2026-04-05T14:11:30.001Z</time></trkpt><trkpt lat="42.86428263508191" lon="13.78255316918867"><ele>27.0</ele><time>2026-04-05T14:11:31.001Z</time></trkpt><trkpt lat="42.864182330149056" lon="13.782182157298351"><ele>26.5</ele><time>2026-04-05T14:11:32.001Z</time></trkpt><trkpt lat="42.86408348409539" lon="13.781811235671862"><ele>26.0</ele><time>2026-04-05T14:11:33.001Z</time></trkpt><trkpt lat="42.86398311045932" lon="13.781443682181667"><ele>26.0</ele><time>2026-04-05T14:11:34.001Z</time></trkpt><trkpt lat="42.86388374504768" lon="13.78107519165657"><ele>26.0</ele><time>2026-04-05T14:11:35.001Z</time></trkpt><trkpt lat="42.86378841851341" lon="13.780703299097638"><ele>26.5</ele><time>2026-04-05T14:11:36.001Z</time></trkpt><trkpt lat="42.86369208665834" lon="13.780331051830556"><ele>27.0</ele><time>2026-04-05T14:11:37.001Z</time></trkpt><trkpt lat="42.86359374060325" lon="13.779959777944855"><ele>27.0</ele><time>2026-04-05T14:11:38.001Z</time></trkpt><trkpt lat="42.863493100251866" lon="13.779588194383898"><ele>27.0</ele><time>2026-04-05T14:11:39.001Z</time></trkpt><trkpt lat="42.86339312424759" lon="13.779217692308048"><ele>28.0</ele><time>2026-04-05T14:11:40.001Z</time></trkpt><trkpt lat="42.86329366693668" lon="13.778844204249832"><ele>29.0</ele><time>2026-04-05T14:11:41.001Z</time></trkpt><trkpt lat="42.863195608056074" lon="13.778469753515369"><ele>29.0</ele><time>2026-04-05T14:11:42.001Z</time></trkpt><trkpt lat="42.86309727621036" lon="13.778095693753025"><ele>29.0</ele><time>2026-04-05T14:11:43.001Z</time></trkpt><trkpt lat="42.86299855106528" lon="13.777721595227703"><ele>29.0</ele><time>2026-04-05T14:11:44.001Z</time></trkpt><trkpt lat="42.86290018484978" lon="13.777347191922187"><ele>29.0</ele><time>2026-04-05T14:11:45.001Z</time></trkpt><trkpt lat="42.86280077984142" lon="13.77697877626013"><ele>29.0</ele><time>2026-04-05T14:11:46.001Z</time></trkpt><trkpt lat="42.862699131903284" lon="13.776605952308767"><ele>29.0</ele><time>2026-04-05T14:11:47.001Z</time></trkpt><trkpt lat="42.862599096028625" lon="13.776234161838223"><ele>29.0</ele><time>2026-04-05T14:11:48.001Z</time></trkpt><trkpt lat="42.86249927081286" lon="13.775861555849637"><ele>29.0</ele><time>2026-04-05T14:11:49.001Z</time></trkpt><trkpt lat="42.86240231574483" lon="13.775487039155834"><ele>29.5</ele><time>2026-04-05T14:11:50.001Z</time></trkpt><trkpt lat="42.862303700332795" lon="13.775115375095382"><ele>30.0</ele><time>2026-04-05T14:11:51.001Z</time></trkpt><trkpt lat="42.86220262465997" lon="13.774742354610517"><ele>30.0</ele><time>2026-04-05T14:11:52.001Z</time></trkpt><trkpt lat="42.86210006762649" lon="13.774367154785125"><ele>30.0</ele><time>2026-04-05T14:11:53.001Z</time></trkpt><trkpt lat="42.861999155780126" lon="13.773990165132533"><ele>30.5</ele><time>2026-04-05T14:11:54.001Z</time></trkpt><trkpt lat="42.86190015829282" lon="13.77361831630053"><ele>31.0</ele><time>2026-04-05T14:11:55.001Z</time></trkpt><trkpt lat="42.86180225084281" lon="13.773240196775086"><ele>31.5</ele><time>2026-04-05T14:11:56.001Z</time></trkpt><trkpt lat="42.86170259423282" lon="13.772865772335862"><ele>32.0</ele><time>2026-04-05T14:11:57.001Z</time></trkpt><trkpt lat="42.86160214210622" lon="13.772493262165161"><ele>33.0</ele><time>2026-04-05T14:11:58.002Z</time></trkpt><trkpt lat="42.861499639597504" lon="13.77212174788738"><ele>34.0</ele><time>2026-04-05T14:11:59.002Z</time></trkpt><trkpt lat="42.861403386827845" lon="13.771747132616584"><ele>34.0</ele><time>2026-04-05T14:12:00.002Z</time></trkpt><trkpt lat="42.86130557729689" lon="13.771380788580359"><ele>34.0</ele><time>2026-04-05T14:12:01.002Z</time></trkpt><trkpt lat="42.861206848178725" lon="13.77100718867763"><ele>33.5</ele><time>2026-04-05T14:12:02.002Z</time></trkpt><trkpt lat="42.86110915018516" lon="13.770637468464193"><ele>33.0</ele><time>2026-04-05T14:12:03.002Z</time></trkpt><trkpt lat="42.86101109835259" lon="13.770267485272"><ele>33.5</ele><time>2026-04-05T14:12:04.002Z</time></trkpt><trkpt lat="42.86091527484665" lon="13.76989843180217"><ele>34.0</ele><time>2026-04-05T14:12:05.002Z</time></trkpt><trkpt lat="42.86082430576024" lon="13.769528496749755"><ele>33.5</ele><time>2026-04-05T14:12:06.002Z</time></trkpt><trkpt lat="42.860737079396145" lon="13.769155908724121"><ele>33.0</ele><time>2026-04-05T14:12:07.002Z</time></trkpt><trkpt lat="42.86065516455203" lon="13.768780231945811"><ele>33.0</ele><time>2026-04-05T14:12:08.002Z</time></trkpt><trkpt lat="42.860582665988595" lon="13.76839823199709"><ele>33.0</ele><time>2026-04-05T14:12:09.002Z</time></trkpt><trkpt lat="42.86051873158853" lon="13.76801191336275"><ele>33.0</ele><time>2026-04-05T14:12:10.002Z</time></trkpt><trkpt lat="42.860464851332324" lon="13.767621934561207"><ele>33.0</ele><time>2026-04-05T14:12:11.002Z</time></trkpt><trkpt lat="42.86042190447747" lon="13.767224098715591"><ele>33.5</ele><time>2026-04-05T14:12:12.002Z</time></trkpt><trkpt lat="42.86038442675578" lon="13.766827826284809"><ele>34.0</ele><time>2026-04-05T14:12:13.002Z</time></trkpt><trkpt lat="42.8603586838535" lon="13.766430546278064"><ele>34.5</ele><time>2026-04-05T14:12:14.002Z</time></trkpt><trkpt lat="42.860336560172655" lon="13.766026113719734"><ele>35.0</ele><time>2026-04-05T14:12:15.002Z</time></trkpt><trkpt lat="42.8603307167761" lon="13.76561553743795"><ele>35.0</ele><time>2026-04-05T14:12:16.002Z</time></trkpt><trkpt lat="42.8603334377268" lon="13.765201309781089"><ele>35.0</ele><time>2026-04-05T14:12:17.002Z</time></trkpt><trkpt lat="42.86034679565246" lon="13.764787079663158"><ele>35.0</ele><time>2026-04-05T14:12:18.002Z</time></trkpt><trkpt lat="42.86037420086421" lon="13.764369396064554"><ele>35.0</ele><time>2026-04-05T14:12:19.002Z</time></trkpt><trkpt lat="42.86040855787838" lon="13.763951522621412"><ele>35.0</ele><time>2026-04-05T14:12:20.002Z</time></trkpt><trkpt lat="42.860449646989636" lon="13.763532305703754"><ele>35.0</ele><time>2026-04-05T14:12:21.002Z</time></trkpt><trkpt lat="42.86048789011007" lon="13.763116187439115"><ele>35.0</ele><time>2026-04-05T14:12:22.002Z</time></trkpt><trkpt lat="42.86051908774904" lon="13.762700019998263"><ele>35.0</ele><time>2026-04-05T14:12:23.002Z</time></trkpt><trkpt lat="42.860553786174926" lon="13.762283162432363"><ele>35.0</ele><time>2026-04-05T14:12:24.002Z</time></trkpt><trkpt lat="42.860590858574504" lon="13.761867111445206"><ele>35.0</ele><time>2026-04-05T14:12:25.002Z</time></trkpt><trkpt lat="42.860619505990826" lon="13.76145103301674"><ele>35.0</ele><time>2026-04-05T14:12:26.002Z</time></trkpt><trkpt lat="42.86065202321779" lon="13.761038608710217"><ele>35.0</ele><time>2026-04-05T14:12:27.002Z</time></trkpt><trkpt lat="42.86068541905508" lon="13.760625758562593"><ele>35.0</ele><time>2026-04-05T14:12:28.002Z</time></trkpt><trkpt lat="42.86071430323468" lon="13.760213999799133"><ele>35.0</ele><time>2026-04-05T14:12:29.002Z</time></trkpt><trkpt lat="42.86074200931251" lon="13.759808218558478"><ele>35.0</ele><time>2026-04-05T14:12:30.002Z</time></trkpt><trkpt lat="42.86077502576279" lon="13.759406960076046"><ele>35.0</ele><time>2026-04-05T14:12:31.002Z</time></trkpt><trkpt lat="42.860811952656725" lon="13.75900332445796"><ele>35.0</ele><time>2026-04-05T14:12:32.002Z</time></trkpt><trkpt lat="42.86084404174757" lon="13.758603596956497"><ele>35.0</ele><time>2026-04-05T14:12:33.002Z</time></trkpt><trkpt lat="42.86087693192464" lon="13.758205382919243"><ele>35.0</ele><time>2026-04-05T14:12:34.002Z</time></trkpt><trkpt lat="42.860902974036634" lon="13.757807516491807"><ele>35.0</ele><time>2026-04-05T14:12:35.002Z</time></trkpt><trkpt lat="42.860917749212476" lon="13.757414308477431"><ele>35.0</ele><time>2026-04-05T14:12:36.002Z</time></trkpt><trkpt lat="42.860919646542555" lon="13.757021509746963"><ele>35.0</ele><time>2026-04-05T14:12:37.002Z</time></trkpt><trkpt lat="42.86091236887726" lon="13.756624631871698"><ele>35.5</ele><time>2026-04-05T14:12:38.002Z</time></trkpt><trkpt lat="42.86089421611869" lon="13.756229227485067"><ele>36.0</ele><time>2026-04-05T14:12:39.002Z</time></trkpt><trkpt lat="42.86086983257154" lon="13.755839882207884"><ele>36.0</ele><time>2026-04-05T14:12:40.002Z</time></trkpt><trkpt lat="42.860835290550206" lon="13.755445038019689"><ele>36.0</ele><time>2026-04-05T14:12:41.002Z</time></trkpt><trkpt lat="42.86079691516615" lon="13.75505831147682"><ele>36.5</ele><time>2026-04-05T14:12:42.002Z</time></trkpt><trkpt lat="42.860748123514725" lon="13.754671361581735"><ele>37.0</ele><time>2026-04-05T14:12:43.002Z</time></trkpt><trkpt lat="42.86068916422656" lon="13.754287266875703"><ele>38.0</ele><time>2026-04-05T14:12:44.002Z</time></trkpt><trkpt lat="42.86062443504391" lon="13.753907951567534"><ele>39.0</ele><time>2026-04-05T14:12:45.002Z</time></trkpt><trkpt lat="42.8605482200192" lon="13.753532184026191"><ele>39.5</ele><time>2026-04-05T14:12:46.002Z</time></trkpt><trkpt lat="42.8604796114062" lon="13.753152419652524"><ele>40.0</ele><time>2026-04-05T14:12:47.002Z</time></trkpt><trkpt lat="42.86041070270342" lon="13.752775364434259"><ele>39.0</ele><time>2026-04-05T14:12:48.002Z</time></trkpt><trkpt lat="42.86034274427457" lon="13.75240247763722"><ele>38.0</ele><time>2026-04-05T14:12:49.002Z</time></trkpt><trkpt lat="42.8602783561073" lon="13.752031149685621"><ele>37.5</ele><time>2026-04-05T14:12:50.001Z</time></trkpt><trkpt lat="42.86020874484611" lon="13.751660542201018"><ele>37.0</ele><time>2026-04-05T14:12:51.001Z</time></trkpt><trkpt lat="42.86013921296142" lon="13.751292565707125"><ele>38.0</ele><time>2026-04-05T14:12:52.001Z</time></trkpt><trkpt lat="42.86006802314664" lon="13.750925929557827"><ele>39.0</ele><time>2026-04-05T14:12:53.001Z</time></trkpt><trkpt lat="42.859995097161345" lon="13.750563628057911"><ele>39.5</ele><time>2026-04-05T14:12:54.001Z</time></trkpt><trkpt lat="42.85992228345496" lon="13.75020436846252"><ele>40.0</ele><time>2026-04-05T14:12:55.001Z</time></trkpt><trkpt lat="42.85985296152246" lon="13.749849390224213"><ele>40.0</ele><time>2026-04-05T14:12:56.001Z</time></trkpt><trkpt lat="42.85978517600115" lon="13.749496589099426"><ele>40.0</ele><time>2026-04-05T14:12:57.001Z</time></trkpt><trkpt lat="42.85971993336336" lon="13.749143683242847"><ele>40.0</ele><time>2026-04-05T14:12:58.001Z</time></trkpt><trkpt lat="42.85965571386894" lon="13.748791177750597"><ele>40.0</ele><time>2026-04-05T14:12:59.001Z</time></trkpt><trkpt lat="42.85959098526899" lon="13.74843637750523"><ele>39.5</ele><time>2026-04-05T14:13:00.001Z</time></trkpt><trkpt lat="42.85952551559677" lon="13.748081868126983"><ele>39.0</ele><time>2026-04-05T14:13:01.001Z</time></trkpt><trkpt lat="42.859461094978286" lon="13.74772958158912"><ele>39.0</ele><time>2026-04-05T14:13:02.001Z</time></trkpt><trkpt lat="42.85939629809968" lon="13.747374069225096"><ele>39.0</ele><time>2026-04-05T14:13:03.001Z</time></trkpt><trkpt lat="42.85933061738672" lon="13.747016213257067"><ele>39.5</ele><time>2026-04-05T14:13:04.001Z</time></trkpt><trkpt lat="42.859265595765116" lon="13.746659748832762"><ele>40.0</ele><time>2026-04-05T14:13:05.001Z</time></trkpt><trkpt lat="42.85918748456731" lon="13.746306293940716"><ele>40.0</ele><time>2026-04-05T14:13:06.001Z</time></trkpt><trkpt lat="42.85909120643145" lon="13.745960220184584"><ele>40.0</ele><time>2026-04-05T14:13:07.001Z</time></trkpt><trkpt lat="42.85898899312323" lon="13.74562176008771"><ele>40.0</ele><time>2026-04-05T14:13:08.001Z</time></trkpt><trkpt lat="42.8588860201034" lon="13.745285065662928"><ele>40.0</ele><time>2026-04-05T14:13:09.001Z</time></trkpt><trkpt lat="42.858774302989694" lon="13.744953125202759"><ele>40.0</ele><time>2026-04-05T14:13:10.001Z</time></trkpt><trkpt lat="42.858658268687485" lon="13.744623849485"><ele>40.0</ele><time>2026-04-05T14:13:11.001Z</time></trkpt><trkpt lat="42.858537147786166" lon="13.744298987617043"><ele>41.5</ele><time>2026-04-05T14:13:12.001Z</time></trkpt><trkpt lat="42.858409120919546" lon="13.743978666743889"><ele>43.0</ele><time>2026-04-05T14:13:13.001Z</time></trkpt><trkpt lat="42.85827353780578" lon="13.743665937747897"><ele>43.0</ele><time>2026-04-05T14:13:14.001Z</time></trkpt><trkpt lat="42.85812813559743" lon="13.743360409493533"><ele>43.0</ele><time>2026-04-05T14:13:15.001Z</time></trkpt><trkpt lat="42.85797639316759" lon="13.74306242459955"><ele>43.0</ele><time>2026-04-05T14:13:16.001Z</time></trkpt><trkpt lat="42.857820253482956" lon="13.742773731400948"><ele>43.0</ele><time>2026-04-05T14:13:17.001Z</time></trkpt><trkpt lat="42.85766341376574" lon="13.742502980203337"><ele>43.0</ele><time>2026-04-05T14:13:18.001Z</time></trkpt><trkpt lat="42.857508733375305" lon="13.742244131084687"><ele>43.0</ele><time>2026-04-05T14:13:19.001Z</time></trkpt><trkpt lat="42.85735285631565" lon="13.741994978590872"><ele>41.5</ele><time>2026-04-05T14:13:20.001Z</time></trkpt><trkpt lat="42.85719727113794" lon="13.741760635270046"><ele>40.0</ele><time>2026-04-05T14:13:21.001Z</time></trkpt><trkpt lat="42.85704467514133" lon="13.741540775785857"><ele>40.0</ele><time>2026-04-05T14:13:22.001Z</time></trkpt><trkpt lat="42.856886647943995" lon="13.741342974931392"><ele>40.0</ele><time>2026-04-05T14:13:23.001Z</time></trkpt><trkpt lat="42.85673738896687" lon="13.741139135016509"><ele>40.0</ele><time>2026-04-05T14:13:24.001Z</time></trkpt><trkpt lat="42.85658248163489" lon="13.740945095932204"><ele>40.333333333333336</ele><time>2026-04-05T14:13:25.001Z</time></trkpt><trkpt lat="42.85642933501003" lon="13.740762397874944"><ele>40.666666666666664</ele><time>2026-04-05T14:13:26.001Z</time></trkpt><trkpt lat="42.856272578610266" lon="13.740560138859806"><ele>41.0</ele><time>2026-04-05T14:13:27.001Z</time></trkpt><trkpt lat="42.85611676741203" lon="13.740371100589453"><ele>41.0</ele><time>2026-04-05T14:13:28.001Z</time></trkpt><trkpt lat="42.855960205958624" lon="13.740179706979024"><ele>41.0</ele><time>2026-04-05T14:13:29.001Z</time></trkpt><trkpt lat="42.85580483366306" lon="13.739989771715091"><ele>41.0</ele><time>2026-04-05T14:13:30.001Z</time></trkpt><trkpt lat="42.85564894634608" lon="13.73979922794991"><ele>41.0</ele><time>2026-04-05T14:13:31.001Z</time></trkpt><trkpt lat="42.85549218428824" lon="13.739607061438855"><ele>41.0</ele><time>2026-04-05T14:13:32.001Z</time></trkpt><trkpt lat="42.855336612451374" lon="13.739415111952866"><ele>41.0</ele><time>2026-04-05T14:13:33.001Z</time></trkpt><trkpt lat="42.8551794716566" lon="13.739224039120883"><ele>42.0</ele><time>2026-04-05T14:13:34.001Z</time></trkpt><trkpt lat="42.85502327941836" lon="13.739030462803871"><ele>43.0</ele><time>2026-04-05T14:13:35.001Z</time></trkpt><trkpt lat="42.8548670355962" lon="13.738837082147558"><ele>44.0</ele><time>2026-04-05T14:13:36.001Z</time></trkpt><trkpt lat="42.854711055888316" lon="13.738643561782947"><ele>44.0</ele><time>2026-04-05T14:13:37.001Z</time></trkpt><trkpt lat="42.85455427925884" lon="13.738447725375641"><ele>44.0</ele><time>2026-04-05T14:13:38.001Z</time></trkpt><trkpt lat="42.85439735429253" lon="13.738251573628327"><ele>44.0</ele><time>2026-04-05T14:13:39.001Z</time></trkpt><trkpt lat="42.85423889356629" lon="13.738059475935982"><ele>44.33333333333333</ele><time>2026-04-05T14:13:40.001Z</time></trkpt><trkpt lat="42.85408133574188" lon="13.737869766358111"><ele>44.666666666666664</ele><time>2026-04-05T14:13:41.001Z</time></trkpt><trkpt lat="42.85392564906936" lon="13.73767998521609"><ele>45.0</ele><time>2026-04-05T14:13:42.001Z</time></trkpt><trkpt lat="42.853770913531406" lon="13.737488802681561"><ele>45.0</ele><time>2026-04-05T14:13:43.001Z</time></trkpt><trkpt lat="42.85361893340301" lon="13.737300151117413"><ele>45.0</ele><time>2026-04-05T14:13:44.001Z</time></trkpt><trkpt lat="42.85346986799445" lon="13.737106271680796"><ele>45.0</ele><time>2026-04-05T14:13:45.001Z</time></trkpt><trkpt lat="42.85332394088532" lon="13.736905013226718"><ele>45.0</ele><time>2026-04-05T14:13:46.001Z</time></trkpt><trkpt lat="42.85318256600388" lon="13.73669945870567"><ele>45.0</ele><time>2026-04-05T14:13:47.001Z</time></trkpt><trkpt lat="42.853042879356295" lon="13.736485113336489"><ele>45.0</ele><time>2026-04-05T14:13:48.001Z</time></trkpt><trkpt lat="42.852907094543916" lon="13.736270008218781"><ele>44.666666666666664</ele><time>2026-04-05T14:13:49.001Z</time></trkpt><trkpt lat="42.852774536259865" lon="13.736047111310217"><ele>44.33333333333333</ele><time>2026-04-05T14:13:50.001Z</time></trkpt><trkpt lat="42.852645318663114" lon="13.735818131241283"><ele>44.0</ele><time>2026-04-05T14:13:51.001Z</time></trkpt><trkpt lat="42.85251745705113" lon="13.735587049260449"><ele>44.666666666666664</ele><time>2026-04-05T14:13:52.001Z</time></trkpt><trkpt lat="42.85239440405367" lon="13.735350955540271"><ele>45.333333333333336</ele><time>2026-04-05T14:13:53.001Z</time></trkpt><trkpt lat="42.85227565850187" lon="13.735103873574367"><ele>46.0</ele><time>2026-04-05T14:13:54.001Z</time></trkpt><trkpt lat="42.852161419352775" lon="13.73485077716738"><ele>46.333333333333336</ele><time>2026-04-05T14:13:55.001Z</time></trkpt><trkpt lat="42.852051161683214" lon="13.734587515175079"><ele>46.666666666666664</ele><time>2026-04-05T14:13:56.001Z</time></trkpt><trkpt lat="42.851942209844886" lon="13.734316437441"><ele>47.0</ele><time>2026-04-05T14:13:57.001Z</time></trkpt><trkpt lat="42.85183321730317" lon="13.734036249715121"><ele>48.5</ele><time>2026-04-05T14:13:58.001Z</time></trkpt><trkpt lat="42.85172970600231" lon="13.733747780703068"><ele>50.0</ele><time>2026-04-05T14:13:59.001Z</time></trkpt><trkpt lat="42.85162831147777" lon="13.733453319586324"><ele>50.0</ele><time>2026-04-05T14:14:00.001Z</time></trkpt><trkpt lat="42.85152898190213" lon="13.733154105776984"><ele>50.0</ele><time>2026-04-05T14:14:01.001Z</time></trkpt><trkpt lat="42.85143722913084" lon="13.732847354704068"><ele>50.0</ele><time>2026-04-05T14:14:02.001Z</time></trkpt><trkpt lat="42.85135000662666" lon="13.732527427372885"><ele>50.0</ele><time>2026-04-05T14:14:03.001Z</time></trkpt><trkpt lat="42.85126901529097" lon="13.73219914689326"><ele>49.5</ele><time>2026-04-05T14:14:04.001Z</time></trkpt><trkpt lat="42.851189227730465" lon="13.731868036495207"><ele>49.0</ele><time>2026-04-05T14:14:05.001Z</time></trkpt><trkpt lat="42.8511121886957" lon="13.731535594089543"><ele>49.0</ele><time>2026-04-05T14:14:06.001Z</time></trkpt><trkpt lat="42.85103455258457" lon="13.731198860251101"><ele>49.0</ele><time>2026-04-05T14:14:07.001Z</time></trkpt><trkpt lat="42.850953395549354" lon="13.730852854727182"><ele>49.0</ele><time>2026-04-05T14:14:08.001Z</time></trkpt><trkpt lat="42.85087214507952" lon="13.730509921284298"><ele>49.0</ele><time>2026-04-05T14:14:09.001Z</time></trkpt><trkpt lat="42.85078936452586" lon="13.730167261072458"><ele>48.5</ele><time>2026-04-05T14:14:10.001Z</time></trkpt><trkpt lat="42.850707135998576" lon="13.72982160382289"><ele>48.0</ele><time>2026-04-05T14:14:11.001Z</time></trkpt><trkpt lat="42.850626845338674" lon="13.729476418770473"><ele>48.0</ele><time>2026-04-05T14:14:12.001Z</time></trkpt><trkpt lat="42.85055039082048" lon="13.729140629368251"><ele>48.0</ele><time>2026-04-05T14:14:13.001Z</time></trkpt><trkpt lat="42.850473917231646" lon="13.728816874536127"><ele>47.5</ele><time>2026-04-05T14:14:14.001Z</time></trkpt><trkpt lat="42.85040017789504" lon="13.728499968023469"><ele>47.0</ele><time>2026-04-05T14:14:15.001Z</time></trkpt><trkpt lat="42.850326337079416" lon="13.728192714588348"><ele>47.0</ele><time>2026-04-05T14:14:16.001Z</time></trkpt><trkpt lat="42.850253544422095" lon="13.727893196519748"><ele>47.0</ele><time>2026-04-05T14:14:17.001Z</time></trkpt><trkpt lat="42.85018334623725" lon="13.727597098683775"><ele>48.0</ele><time>2026-04-05T14:14:18.001Z</time></trkpt><trkpt lat="42.85010922532013" lon="13.727294993363655"><ele>49.0</ele><time>2026-04-05T14:14:19.001Z</time></trkpt><trkpt lat="42.85002685665328" lon="13.726991091019018"><ele>49.5</ele><time>2026-04-05T14:14:20.001Z</time></trkpt><trkpt lat="42.84994677456477" lon="13.726680779780638"><ele>50.0</ele><time>2026-04-05T14:14:21.001Z</time></trkpt><trkpt lat="42.84986433458805" lon="13.726359414261925"><ele>50.5</ele><time>2026-04-05T14:14:22.001Z</time></trkpt><trkpt lat="42.84978510695092" lon="13.72603567957241"><ele>51.0</ele><time>2026-04-05T14:14:23.001Z</time></trkpt><trkpt lat="42.84970500920345" lon="13.725705907233822"><ele>51.0</ele><time>2026-04-05T14:14:24.001Z</time></trkpt><trkpt lat="42.849626769426195" lon="13.725371171651428"><ele>51.0</ele><time>2026-04-05T14:14:25.001Z</time></trkpt><trkpt lat="42.849548659629754" lon="13.725038109078929"><ele>51.0</ele><time>2026-04-05T14:14:26.001Z</time></trkpt><trkpt lat="42.84946785287046" lon="13.724700130830538"><ele>51.0</ele><time>2026-04-05T14:14:27.001Z</time></trkpt><trkpt lat="42.84938824023148" lon="13.724364632418519"><ele>51.0</ele><time>2026-04-05T14:14:28.001Z</time></trkpt><trkpt lat="42.849306834692584" lon="13.724029008439045"><ele>51.0</ele><time>2026-04-05T14:14:29.001Z</time></trkpt><trkpt lat="42.849226710926075" lon="13.723692212090324"><ele>51.5</ele><time>2026-04-05T14:14:30.001Z</time></trkpt><trkpt lat="42.84914727183577" lon="13.72335218270466"><ele>52.0</ele><time>2026-04-05T14:14:31.002Z</time></trkpt><trkpt lat="42.8490670320723" lon="13.723016050587603"><ele>52.0</ele><time>2026-04-05T14:14:32.002Z</time></trkpt><trkpt lat="42.84899059387243" lon="13.722678162141223"><ele>52.0</ele><time>2026-04-05T14:14:33.002Z</time></trkpt><trkpt lat="42.848914472218674" lon="13.722338794594387"><ele>52.0</ele><time>2026-04-05T14:14:34.002Z</time></trkpt><trkpt lat="42.84883701570485" lon="13.721996238744131"><ele>52.0</ele><time>2026-04-05T14:14:35.002Z</time></trkpt><trkpt lat="42.84875900978398" lon="13.721657471384166"><ele>52.5</ele><time>2026-04-05T14:14:36.002Z</time></trkpt><trkpt lat="42.84867760081118" lon="13.721319521200694"><ele>53.0</ele><time>2026-04-05T14:14:37.002Z</time></trkpt><trkpt lat="42.848597645117295" lon="13.72098105792699"><ele>52.0</ele><time>2026-04-05T14:14:38.002Z</time></trkpt><trkpt lat="42.84851233739513" lon="13.720639012390176"><ele>51.0</ele><time>2026-04-05T14:14:39.002Z</time></trkpt><trkpt lat="42.84843223432274" lon="13.720301139008885"><ele>54.5</ele><time>2026-04-05T14:14:40.002Z</time></trkpt><trkpt lat="42.848353462053666" lon="13.719957905233235"><ele>58.0</ele><time>2026-04-05T14:14:41.002Z</time></trkpt><trkpt lat="42.84827395380675" lon="13.71961274208888"><ele>57.0</ele><time>2026-04-05T14:14:42.002Z</time></trkpt><trkpt lat="42.8481927006548" lon="13.7192688649779"><ele>56.0</ele><time>2026-04-05T14:14:43.002Z</time></trkpt><trkpt lat="42.8481082612867" lon="13.718922903261957"><ele>56.0</ele><time>2026-04-05T14:14:44.002Z</time></trkpt><trkpt lat="42.84802493016457" lon="13.718577120518088"><ele>56.0</ele><time>2026-04-05T14:14:45.002Z</time></trkpt><trkpt lat="42.84794142072114" lon="13.718231602835054"><ele>56.5</ele><time>2026-04-05T14:14:46.002Z</time></trkpt><trkpt lat="42.84785973683311" lon="13.717888236654824"><ele>57.0</ele><time>2026-04-05T14:14:47.001Z</time></trkpt><trkpt lat="42.84777608023275" lon="13.717543318714815"><ele>56.0</ele><time>2026-04-05T14:14:48.001Z</time></trkpt><trkpt lat="42.84769477322914" lon="13.717197720171638"><ele>55.0</ele><time>2026-04-05T14:14:49.001Z</time></trkpt><trkpt lat="42.84760660569159" lon="13.716851726758726"><ele>64.0</ele><time>2026-04-05T14:14:50.001Z</time></trkpt><trkpt lat="42.84752073477778" lon="13.716505482953837"><ele>73.0</ele><time>2026-04-05T14:14:51.001Z</time></trkpt><trkpt lat="42.84742849472197" lon="13.716156919780058"><ele>73.5</ele><time>2026-04-05T14:14:52.001Z</time></trkpt><trkpt lat="42.84733536693802" lon="13.715808333149367"><ele>74.0</ele><time>2026-04-05T14:14:53.001Z</time></trkpt><trkpt lat="42.84724750883462" lon="13.715454290745546"><ele>76.0</ele><time>2026-04-05T14:14:54.001Z</time></trkpt><trkpt lat="42.847162606803764" lon="13.715098032840897"><ele>78.0</ele><time>2026-04-05T14:14:55.001Z</time></trkpt><trkpt lat="42.847084020967806" lon="13.71473956394793"><ele>78.0</ele><time>2026-04-05T14:14:56.001Z</time></trkpt><trkpt lat="42.84700544723078" lon="13.71438480048185"><ele>78.0</ele><time>2026-04-05T14:14:57.001Z</time></trkpt><trkpt lat="42.84692334972446" lon="13.714024466748693"><ele>78.0</ele><time>2026-04-05T14:14:58.001Z</time></trkpt><trkpt lat="42.84683384741068" lon="13.713661575535584"><ele>78.0</ele><time>2026-04-05T14:14:59.001Z</time></trkpt><trkpt lat="42.84675032463832" lon="13.713310520966939"><ele>78.5</ele><time>2026-04-05T14:15:00.001Z</time></trkpt><trkpt lat="42.84666827255186" lon="13.712962166545951"><ele>79.0</ele><time>2026-04-05T14:15:01.001Z</time></trkpt><trkpt lat="42.84658316654379" lon="13.712612145249674"><ele>80.0</ele><time>2026-04-05T14:15:02.001Z</time></trkpt><trkpt lat="42.846499561169516" lon="13.71225697439096"><ele>81.0</ele><time>2026-04-05T14:15:03.001Z</time></trkpt><trkpt lat="42.84641919709185" lon="13.711902009718917"><ele>82.0</ele><time>2026-04-05T14:15:04.001Z</time></trkpt><trkpt lat="42.84634111920381" lon="13.711543453295512"><ele>83.0</ele><time>2026-04-05T14:15:05.001Z</time></trkpt><trkpt lat="42.846271229902506" lon="13.711182980857936"><ele>83.0</ele><time>2026-04-05T14:15:06.001Z</time></trkpt><trkpt lat="42.84620858910288" lon="13.710821403907875"><ele>83.0</ele><time>2026-04-05T14:15:07.001Z</time></trkpt><trkpt lat="42.846154437926124" lon="13.710458853568344"><ele>82.5</ele><time>2026-04-05T14:15:08.001Z</time></trkpt><trkpt lat="42.846107280634286" lon="13.71009245439757"><ele>82.0</ele><time>2026-04-05T14:15:09.001Z</time></trkpt><trkpt lat="42.8460677205984" lon="13.709724128564469"><ele>81.0</ele><time>2026-04-05T14:15:10.001Z</time></trkpt><trkpt lat="42.84603611541554" lon="13.70935053255302"><ele>80.0</ele><time>2026-04-05T14:15:11.001Z</time></trkpt><trkpt lat="42.846014877690926" lon="13.708975392573652"><ele>80.0</ele><time>2026-04-05T14:15:12.001Z</time></trkpt><trkpt lat="42.845999956083645" lon="13.70860356006001"><ele>80.0</ele><time>2026-04-05T14:15:13.001Z</time></trkpt><trkpt lat="42.84599010105411" lon="13.708230979141026"><ele>80.5</ele><time>2026-04-05T14:15:14.001Z</time></trkpt><trkpt lat="42.845985258763676" lon="13.707852097703228"><ele>81.0</ele><time>2026-04-05T14:15:15.001Z</time></trkpt><trkpt lat="42.84598043201184" lon="13.707474634685168"><ele>80.0</ele><time>2026-04-05T14:15:16.001Z</time></trkpt><trkpt lat="42.845976526522755" lon="13.707100373342401"><ele>79.0</ele><time>2026-04-05T14:15:17.001Z</time></trkpt><trkpt lat="42.84597157892731" lon="13.706730039997094"><ele>78.0</ele><time>2026-04-05T14:15:18.001Z</time></trkpt><trkpt lat="42.84596665242528" lon="13.706354849028774"><ele>77.0</ele><time>2026-04-05T14:15:19.001Z</time></trkpt><trkpt lat="42.845960812501" lon="13.705974358526506"><ele>78.0</ele><time>2026-04-05T14:15:20.001Z</time></trkpt><trkpt lat="42.84595779467578" lon="13.705597910782176"><ele>79.0</ele><time>2026-04-05T14:15:21.001Z</time></trkpt><trkpt lat="42.84595626513716" lon="13.705217869551054"><ele>79.0</ele><time>2026-04-05T14:15:22.001Z</time></trkpt><trkpt lat="42.845954217174935" lon="13.704832760759134"><ele>79.0</ele><time>2026-04-05T14:15:23.001Z</time></trkpt><trkpt lat="42.845948920816085" lon="13.704449455143955"><ele>81.0</ele><time>2026-04-05T14:15:24.001Z</time></trkpt><trkpt lat="42.845936344207836" lon="13.704062112415155"><ele>83.0</ele><time>2026-04-05T14:15:25.001Z</time></trkpt><trkpt lat="42.845921722476284" lon="13.703673701719188"><ele>83.5</ele><time>2026-04-05T14:15:26.001Z</time></trkpt><trkpt lat="42.84590982866478" lon="13.703281987133803"><ele>84.0</ele><time>2026-04-05T14:15:27.001Z</time></trkpt><trkpt lat="42.84590293321421" lon="13.70289342711879"><ele>84.0</ele><time>2026-04-05T14:15:28.001Z</time></trkpt><trkpt lat="42.845901417017025" lon="13.70250097449013"><ele>84.0</ele><time>2026-04-05T14:15:29.001Z</time></trkpt><trkpt lat="42.84590365633825" lon="13.702109151685423"><ele>85.0</ele><time>2026-04-05T14:15:30.001Z</time></trkpt><trkpt lat="42.8459081207032" lon="13.701717038998403"><ele>86.0</ele><time>2026-04-05T14:15:31.001Z</time></trkpt><trkpt lat="42.84591457892673" lon="13.7013269328305"><ele>86.5</ele><time>2026-04-05T14:15:32.001Z</time></trkpt><trkpt lat="42.84591640062856" lon="13.700947918702667"><ele>87.0</ele><time>2026-04-05T14:15:33.001Z</time></trkpt><trkpt lat="42.84591316528179" lon="13.700535608492812"><ele>86.5</ele><time>2026-04-05T14:15:34.001Z</time></trkpt><trkpt lat="42.84590489312998" lon="13.700145322502932"><ele>86.0</ele><time>2026-04-05T14:15:35.001Z</time></trkpt><trkpt lat="42.845899568659895" lon="13.699751521187133"><ele>86.0</ele><time>2026-04-05T14:15:36.001Z</time></trkpt><trkpt lat="42.84589432463857" lon="13.699354874053773"><ele>86.0</ele><time>2026-04-05T14:15:37.001Z</time></trkpt><trkpt lat="42.84589038250219" lon="13.698957437515054"><ele>86.0</ele><time>2026-04-05T14:15:38.001Z</time></trkpt><trkpt lat="42.845886960963895" lon="13.69855876221323"><ele>86.0</ele><time>2026-04-05T14:15:39.001Z</time></trkpt><trkpt lat="42.84588445298785" lon="13.698162386466525"><ele>86.0</ele><time>2026-04-05T14:15:40.001Z</time></trkpt><trkpt lat="42.845880192978214" lon="13.697767958856595"><ele>86.0</ele><time>2026-04-05T14:15:41.001Z</time></trkpt><trkpt lat="42.8458760443988" lon="13.69737275155714"><ele>86.0</ele><time>2026-04-05T14:15:42.001Z</time></trkpt><trkpt lat="42.84586971970599" lon="13.696978824731739"><ele>86.0</ele><time>2026-04-05T14:15:43.001Z</time></trkpt><trkpt lat="42.845859290797634" lon="13.696595235312083"><ele>86.5</ele><time>2026-04-05T14:15:44.001Z</time></trkpt><trkpt lat="42.84583901299371" lon="13.696218382561534"><ele>87.0</ele><time>2026-04-05T14:15:45.001Z</time></trkpt><trkpt lat="42.8458064120074" lon="13.695850365530879"><ele>86.0</ele><time>2026-04-05T14:15:46.001Z</time></trkpt><trkpt lat="42.84576226602522" lon="13.695487848900978"><ele>85.0</ele><time>2026-04-05T14:15:47.001Z</time></trkpt><trkpt lat="42.84571007105335" lon="13.695034836413816"><ele>85.0</ele><time>2026-04-05T14:15:48.001Z</time></trkpt><trkpt lat="42.84565294690693" lon="13.694648437290716"><ele>85.0</ele><time>2026-04-05T14:15:49.001Z</time></trkpt><trkpt lat="42.84558894483833" lon="13.694262851335777"><ele>83.5</ele><time>2026-04-05T14:15:50.001Z</time></trkpt><trkpt lat="42.845519625221314" lon="13.693877571192214"><ele>82.0</ele><time>2026-04-05T14:15:51.001Z</time></trkpt><trkpt lat="42.84544776976987" lon="13.693495948757871"><ele>81.5</ele><time>2026-04-05T14:15:52.001Z</time></trkpt><trkpt lat="42.84537550467325" lon="13.6931119014138"><ele>81.0</ele><time>2026-04-05T14:15:53.001Z</time></trkpt><trkpt lat="42.845302468302506" lon="13.69272651376987"><ele>81.0</ele><time>2026-04-05T14:15:54.001Z</time></trkpt><trkpt lat="42.84522975374581" lon="13.692335942481572"><ele>81.0</ele><time>2026-04-05T14:15:55.001Z</time></trkpt><trkpt lat="42.84515380994286" lon="13.691957572472232"><ele>84.5</ele><time>2026-04-05T14:15:56.001Z</time></trkpt><trkpt lat="42.845080360592256" lon="13.691574099714959"><ele>88.0</ele><time>2026-04-05T14:15:57.001Z</time></trkpt><trkpt lat="42.84500739265139" lon="13.69118996690731"><ele>88.0</ele><time>2026-04-05T14:15:58.001Z</time></trkpt><trkpt lat="42.844933154327" lon="13.690806599461123"><ele>88.0</ele><time>2026-04-05T14:15:59.001Z</time></trkpt><trkpt lat="42.84485683516262" lon="13.690426731500391"><ele>89.0</ele><time>2026-04-05T14:16:00.001Z</time></trkpt><trkpt lat="42.84478117461766" lon="13.690047142874382"><ele>90.0</ele><time>2026-04-05T14:16:01.001Z</time></trkpt><trkpt lat="42.844709531155836" lon="13.689663465220098"><ele>91.0</ele><time>2026-04-05T14:16:02.001Z</time></trkpt><trkpt lat="42.84463702569557" lon="13.689277025533064"><ele>92.0</ele><time>2026-04-05T14:16:03.001Z</time></trkpt><trkpt lat="42.84456107843423" lon="13.688891735860636"><ele>90.0</ele><time>2026-04-05T14:16:04.001Z</time></trkpt><trkpt lat="42.844485147208914" lon="13.688507651857346"><ele>88.0</ele><time>2026-04-05T14:16:05.001Z</time></trkpt><trkpt lat="42.84440891392203" lon="13.68812461309539"><ele>89.0</ele><time>2026-04-05T14:16:06.001Z</time></trkpt><trkpt lat="42.844332965072326" lon="13.687745261780442"><ele>90.0</ele><time>2026-04-05T14:16:07.001Z</time></trkpt><trkpt lat="42.844258673011446" lon="13.687366444531497"><ele>91.5</ele><time>2026-04-05T14:16:08.001Z</time></trkpt><trkpt lat="42.84418492016231" lon="13.686982983694518"><ele>93.0</ele><time>2026-04-05T14:16:09.001Z</time></trkpt><trkpt lat="42.84411139859296" lon="13.686596190341236"><ele>93.0</ele><time>2026-04-05T14:16:10.001Z</time></trkpt><trkpt lat="42.84403898131853" lon="13.68620876905223"><ele>93.0</ele><time>2026-04-05T14:16:11.001Z</time></trkpt><trkpt lat="42.84396963390454" lon="13.68581680138732"><ele>93.0</ele><time>2026-04-05T14:16:12.001Z</time></trkpt><trkpt lat="42.843906748736764" lon="13.685422220361026"><ele>93.0</ele><time>2026-04-05T14:16:13.001Z</time></trkpt><trkpt lat="42.84384968023326" lon="13.685023311290049"><ele>93.0</ele><time>2026-04-05T14:16:14.001Z</time></trkpt><trkpt lat="42.843796883351224" lon="13.684623642714731"><ele>93.0</ele><time>2026-04-05T14:16:15.001Z</time></trkpt><trkpt lat="42.84374717940379" lon="13.684221257919475"><ele>88.5</ele><time>2026-04-05T14:16:16.001Z</time></trkpt><trkpt lat="42.84369989389109" lon="13.683820542302254"><ele>84.0</ele><time>2026-04-05T14:16:17.001Z</time></trkpt><trkpt lat="42.843653819470596" lon="13.683421786436124"><ele>79.0</ele><time>2026-04-05T14:16:18.001Z</time></trkpt><trkpt lat="42.843610972874586" lon="13.683024110427121"><ele>74.0</ele><time>2026-04-05T14:16:19.001Z</time></trkpt><trkpt lat="42.84357550576022" lon="13.682622369992037"><ele>72.0</ele><time>2026-04-05T14:16:20.001Z</time></trkpt><trkpt lat="42.84354561786431" lon="13.682218324500722"><ele>70.0</ele><time>2026-04-05T14:16:21.001Z</time></trkpt><trkpt lat="42.84351929098257" lon="13.68181774076723"><ele>70.0</ele><time>2026-04-05T14:16:22.001Z</time></trkpt><trkpt lat="42.843497017434274" lon="13.681415845306224"><ele>70.0</ele><time>2026-04-05T14:16:23.001Z</time></trkpt><trkpt lat="42.84347808521024" lon="13.681011593546167"><ele>79.0</ele><time>2026-04-05T14:16:24.001Z</time></trkpt><trkpt lat="42.8434626021323" lon="13.680609972191235"><ele>88.0</ele><time>2026-04-05T14:16:25.001Z</time></trkpt><trkpt lat="42.84344422895962" lon="13.68022015665646"><ele>90.0</ele><time>2026-04-05T14:16:26.001Z</time></trkpt><trkpt lat="42.84342374383033" lon="13.679837262428965"><ele>92.0</ele><time>2026-04-05T14:16:27.001Z</time></trkpt><trkpt lat="42.84343938446723" lon="13.679386264354667"><ele>93.0</ele><time>2026-04-05T14:16:28.001Z</time></trkpt><trkpt lat="42.843449171406704" lon="13.678979004370522"><ele>94.0</ele><time>2026-04-05T14:16:29.001Z</time></trkpt><trkpt lat="42.843458427668445" lon="13.678570489704514"><ele>86.0</ele><time>2026-04-05T14:16:30.001Z</time></trkpt><trkpt lat="42.8434743337248" lon="13.678169286012778"><ele>78.0</ele><time>2026-04-05T14:16:31.001Z</time></trkpt><trkpt lat="42.843491263826365" lon="13.67776286795852"><ele>78.0</ele><time>2026-04-05T14:16:32.001Z</time></trkpt><trkpt lat="42.84350835238583" lon="13.677359232901665"><ele>78.0</ele><time>2026-04-05T14:16:33.001Z</time></trkpt><trkpt lat="42.843533570160695" lon="13.676960400247548"><ele>77.0</ele><time>2026-04-05T14:16:34.001Z</time></trkpt><trkpt lat="42.84356063251108" lon="13.676564497650947"><ele>76.0</ele><time>2026-04-05T14:16:35.001Z</time></trkpt><trkpt lat="42.843592804400004" lon="13.676156777801339"><ele>78.5</ele><time>2026-04-05T14:16:36.001Z</time></trkpt><trkpt lat="42.84362804077174" lon="13.675759240567936"><ele>81.0</ele><time>2026-04-05T14:16:37.001Z</time></trkpt><trkpt lat="42.84366812667776" lon="13.675362313814277"><ele>81.5</ele><time>2026-04-05T14:16:38.001Z</time></trkpt><trkpt lat="42.84371376865987" lon="13.674969391182445"><ele>82.0</ele><time>2026-04-05T14:16:39.001Z</time></trkpt><trkpt lat="42.84375718067264" lon="13.674574541994172"><ele>79.5</ele><time>2026-04-05T14:16:40.001Z</time></trkpt><trkpt lat="42.843794308591235" lon="13.674187823361871"><ele>77.0</ele><time>2026-04-05T14:16:41.001Z</time></trkpt><trkpt lat="42.84383537318025" lon="13.673796797096172"><ele>80.5</ele><time>2026-04-05T14:16:42.001Z</time></trkpt><trkpt lat="42.843872136794445" lon="13.673405933716557"><ele>84.0</ele><time>2026-04-05T14:16:43.001Z</time></trkpt><trkpt lat="42.84390773657843" lon="13.6730100622237"><ele>87.5</ele><time>2026-04-05T14:16:44.001Z</time></trkpt><trkpt lat="42.84394217616864" lon="13.672612332654582"><ele>91.0</ele><time>2026-04-05T14:16:45.001Z</time></trkpt><trkpt lat="42.84397572383336" lon="13.672211636836579"><ele>94.0</ele><time>2026-04-05T14:16:46.001Z</time></trkpt><trkpt lat="42.844002266131724" lon="13.671810155482582"><ele>97.0</ele><time>2026-04-05T14:16:47.001Z</time></trkpt><trkpt lat="42.84401849135817" lon="13.671403607144995"><ele>98.5</ele><time>2026-04-05T14:16:48.001Z</time></trkpt><trkpt lat="42.84402212325717" lon="13.671002001188329"><ele>100.0</ele><time>2026-04-05T14:16:49.001Z</time></trkpt><trkpt lat="42.84401592179412" lon="13.670596136098782"><ele>100.5</ele><time>2026-04-05T14:16:50.001Z</time></trkpt><trkpt lat="42.843985875744245" lon="13.670189132281466"><ele>101.0</ele><time>2026-04-05T14:16:51.001Z</time></trkpt><trkpt lat="42.84395922484763" lon="13.669786325733508"><ele>98.5</ele><time>2026-04-05T14:16:52.001Z</time></trkpt><trkpt lat="42.84392268814562" lon="13.66938181244281"><ele>96.0</ele><time>2026-04-05T14:16:53.001Z</time></trkpt><trkpt lat="42.843877304331464" lon="13.668982689744015"><ele>94.5</ele><time>2026-04-05T14:16:54.001Z</time></trkpt><trkpt lat="42.8438218566974" lon="13.668584310649674"><ele>93.0</ele><time>2026-04-05T14:16:55.001Z</time></trkpt><trkpt lat="42.84375249716733" lon="13.668194208961758"><ele>93.0</ele><time>2026-04-05T14:16:56.001Z</time></trkpt><trkpt lat="42.84367738432821" lon="13.667809870601067"><ele>93.0</ele><time>2026-04-05T14:16:57.001Z</time></trkpt><trkpt lat="42.84359526282057" lon="13.667426335623961"><ele>92.5</ele><time>2026-04-05T14:16:58.001Z</time></trkpt><trkpt lat="42.84350825295169" lon="13.667049262201193"><ele>92.0</ele><time>2026-04-05T14:16:59.001Z</time></trkpt><trkpt lat="42.84341255078139" lon="13.666678657156385"><ele>94.5</ele><time>2026-04-05T14:17:00.001Z</time></trkpt><trkpt lat="42.84330537670636" lon="13.666310011534767"><ele>97.0</ele><time>2026-04-05T14:17:01.001Z</time></trkpt><trkpt lat="42.8431873809335" lon="13.665945722339302"><ele>97.0</ele><time>2026-04-05T14:17:02.001Z</time></trkpt><trkpt lat="42.84306508034671" lon="13.66558656194895"><ele>97.0</ele><time>2026-04-05T14:17:03.001Z</time></trkpt><trkpt lat="42.8429449368877" lon="13.665227247864646"><ele>97.0</ele><time>2026-04-05T14:17:04.001Z</time></trkpt><trkpt lat="42.842829472367185" lon="13.664865299137425"><ele>97.0</ele><time>2026-04-05T14:17:05.001Z</time></trkpt><trkpt lat="42.842710912782486" lon="13.66450173194337"><ele>99.5</ele><time>2026-04-05T14:17:06.001Z</time></trkpt><trkpt lat="42.84259305356764" lon="13.664138483812769"><ele>102.0</ele><time>2026-04-05T14:17:07.001Z</time></trkpt><trkpt lat="42.842473783429654" lon="13.663777497444496"><ele>101.0</ele><time>2026-04-05T14:17:08.001Z</time></trkpt><trkpt lat="42.84235549326178" lon="13.663412521701717"><ele>100.0</ele><time>2026-04-05T14:17:09.001Z</time></trkpt><trkpt lat="42.84223548513486" lon="13.663049746652693"><ele>97.5</ele><time>2026-04-05T14:17:10.001Z</time></trkpt><trkpt lat="42.84211405952787" lon="13.662685147151324"><ele>95.0</ele><time>2026-04-05T14:17:11.001Z</time></trkpt><trkpt lat="42.84199750886407" lon="13.662321649793842"><ele>95.0</ele><time>2026-04-05T14:17:12.001Z</time></trkpt><trkpt lat="42.84188092338168" lon="13.661961169539511"><ele>95.0</ele><time>2026-04-05T14:17:13.001Z</time></trkpt><trkpt lat="42.84176556426227" lon="13.661601910960131"><ele>103.5</ele><time>2026-04-05T14:17:14.001Z</time></trkpt><trkpt lat="42.84164907362395" lon="13.66124320232978"><ele>112.0</ele><time>2026-04-05T14:17:15.001Z</time></trkpt><trkpt lat="42.84153369154531" lon="13.660884915111808"><ele>112.0</ele><time>2026-04-05T14:17:16.001Z</time></trkpt><trkpt lat="42.84141751998825" lon="13.660527395104022"><ele>112.0</ele><time>2026-04-05T14:17:17.001Z</time></trkpt><trkpt lat="42.84130065364436" lon="13.66016974221649"><ele>110.5</ele><time>2026-04-05T14:17:18.001Z</time></trkpt><trkpt lat="42.84118128828017" lon="13.65981784594703"><ele>109.0</ele><time>2026-04-05T14:17:19.001Z</time></trkpt><trkpt lat="42.841066827813286" lon="13.659462555510858"><ele>110.0</ele><time>2026-04-05T14:17:20.001Z</time></trkpt><trkpt lat="42.840951092106586" lon="13.659115576567062"><ele>111.0</ele><time>2026-04-05T14:17:21.001Z</time></trkpt><trkpt lat="42.840840933120745" lon="13.658766704160582"><ele>109.0</ele><time>2026-04-05T14:17:22.001Z</time></trkpt><trkpt lat="42.84073459667022" lon="13.658414421535376"><ele>107.0</ele><time>2026-04-05T14:17:23.001Z</time></trkpt><trkpt lat="42.84063417848711" lon="13.658060877119663"><ele>107.0</ele><time>2026-04-05T14:17:24.001Z</time></trkpt><trkpt lat="42.840543202433444" lon="13.657706000311832"><ele>107.0</ele><time>2026-04-05T14:17:25.001Z</time></trkpt><trkpt lat="42.840458742860655" lon="13.657349087911996"><ele>107.0</ele><time>2026-04-05T14:17:26.001Z</time></trkpt><trkpt lat="42.84038127545197" lon="13.656990222127867"><ele>107.0</ele><time>2026-04-05T14:17:27.001Z</time></trkpt><trkpt lat="42.840309229774576" lon="13.65662869091308"><ele>107.5</ele><time>2026-04-05T14:17:28.001Z</time></trkpt><trkpt lat="42.84024291517965" lon="13.656267418876109"><ele>108.0</ele><time>2026-04-05T14:17:29.001Z</time></trkpt><trkpt lat="42.84018110378851" lon="13.655903845234143"><ele>110.0</ele><time>2026-04-05T14:17:30.001Z</time></trkpt><trkpt lat="42.840126326659046" lon="13.655538381390649"><ele>112.0</ele><time>2026-04-05T14:17:31.001Z</time></trkpt><trkpt lat="42.840078908445406" lon="13.655171647324144"><ele>112.0</ele><time>2026-04-05T14:17:32.001Z</time></trkpt><trkpt lat="42.84004018102537" lon="13.654803850511177"><ele>112.0</ele><time>2026-04-05T14:17:33.001Z</time></trkpt><trkpt lat="42.8400044213809" lon="13.65443479336565"><ele>112.5</ele><time>2026-04-05T14:17:34.001Z</time></trkpt><trkpt lat="42.839973941707626" lon="13.654064923559256"><ele>113.0</ele><time>2026-04-05T14:17:35.001Z</time></trkpt><trkpt lat="42.83995265870279" lon="13.653694464695793"><ele>111.0</ele><time>2026-04-05T14:17:36.001Z</time></trkpt><trkpt lat="42.839939488984655" lon="13.653321707149285"><ele>109.0</ele><time>2026-04-05T14:17:37.001Z</time></trkpt><trkpt lat="42.83993358788589" lon="13.652947918219223"><ele>108.5</ele><time>2026-04-05T14:17:38.001Z</time></trkpt><trkpt lat="42.83993180419546" lon="13.652570870879371"><ele>108.0</ele><time>2026-04-05T14:17:39.001Z</time></trkpt><trkpt lat="42.839937116545734" lon="13.652192712980204"><ele>110.0</ele><time>2026-04-05T14:17:40.001Z</time></trkpt><trkpt lat="42.83994634126833" lon="13.65181142300463"><ele>112.0</ele><time>2026-04-05T14:17:41.001Z</time></trkpt><trkpt lat="42.83995912690491" lon="13.651429432809389"><ele>113.0</ele><time>2026-04-05T14:17:42.001Z</time></trkpt><trkpt lat="42.839972873835855" lon="13.651049889172636"><ele>114.0</ele><time>2026-04-05T14:17:43.001Z</time></trkpt><trkpt lat="42.83998383687187" lon="13.650661592660686"><ele>113.0</ele><time>2026-04-05T14:17:44.001Z</time></trkpt><trkpt lat="42.839991002987496" lon="13.650271483997743"><ele>112.0</ele><time>2026-04-05T14:17:45.001Z</time></trkpt><trkpt lat="42.83999210211066" lon="13.64988011447295"><ele>112.0</ele><time>2026-04-05T14:17:46.001Z</time></trkpt><trkpt lat="42.83999602796973" lon="13.649487860181235"><ele>112.0</ele><time>2026-04-05T14:17:47.001Z</time></trkpt><trkpt lat="42.84000406008065" lon="13.649096227772384"><ele>113.0</ele><time>2026-04-05T14:17:48.001Z</time></trkpt><trkpt lat="42.840012539559716" lon="13.648699551515573"><ele>114.0</ele><time>2026-04-05T14:17:49.001Z</time></trkpt><trkpt lat="42.84002363710102" lon="13.648300601753965"><ele>115.0</ele><time>2026-04-05T14:17:50.001Z</time></trkpt><trkpt lat="42.84003843567876" lon="13.647899027220891"><ele>116.0</ele><time>2026-04-05T14:17:51.001Z</time></trkpt><trkpt lat="42.840059512338954" lon="13.64750021050649"><ele>117.5</ele><time>2026-04-05T14:17:52.001Z</time></trkpt><trkpt lat="42.84008286752027" lon="13.647100911642038"><ele>119.0</ele><time>2026-04-05T14:17:53.001Z</time></trkpt><trkpt lat="42.840101457947455" lon="13.646701393575716"><ele>119.0</ele><time>2026-04-05T14:17:54.001Z</time></trkpt><trkpt lat="42.840121516296776" lon="13.646304068805437"><ele>119.0</ele><time>2026-04-05T14:17:55.001Z</time></trkpt><trkpt lat="42.84013610861681" lon="13.645906366154684"><ele>118.0</ele><time>2026-04-05T14:17:56.001Z</time></trkpt><trkpt lat="42.840149396281994" lon="13.645509285177992"><ele>117.0</ele><time>2026-04-05T14:17:57.001Z</time></trkpt><trkpt lat="42.840159796134614" lon="13.645113132006728"><ele>117.0</ele><time>2026-04-05T14:17:58.001Z</time></trkpt><trkpt lat="42.840173011029535" lon="13.644720825137782"><ele>117.0</ele><time>2026-04-05T14:17:59.001Z</time></trkpt><trkpt lat="42.84018623378917" lon="13.644329038224951"><ele>116.5</ele><time>2026-04-05T14:18:00.001Z</time></trkpt><trkpt lat="42.84019820504061" lon="13.64393809898718"><ele>116.0</ele><time>2026-04-05T14:18:01.001Z</time></trkpt><trkpt lat="42.840210656957126" lon="13.643544810623542"><ele>113.5</ele><time>2026-04-05T14:18:02.001Z</time></trkpt><trkpt lat="42.84022496099081" lon="13.643150868532086"><ele>111.0</ele><time>2026-04-05T14:18:03.001Z</time></trkpt><trkpt lat="42.840239277623056" lon="13.642759356557342"><ele>111.0</ele><time>2026-04-05T14:18:04.001Z</time></trkpt><trkpt lat="42.840253864799" lon="13.6423679713321"><ele>111.0</ele><time>2026-04-05T14:18:05.001Z</time></trkpt><trkpt lat="42.840267701493126" lon="13.641978550172931"><ele>109.5</ele><time>2026-04-05T14:18:06.001Z</time></trkpt><trkpt lat="42.84027383534415" lon="13.641589530571332"><ele>108.0</ele><time>2026-04-05T14:18:07.001Z</time></trkpt><trkpt lat="42.84027409169165" lon="13.64119969475891"><ele>108.0</ele><time>2026-04-05T14:18:08.001Z</time></trkpt><trkpt lat="42.840263599314454" lon="13.640814375729496"><ele>108.0</ele><time>2026-04-05T14:18:09.001Z</time></trkpt><trkpt lat="42.840250447156485" lon="13.640433619150425"><ele>110.5</ele><time>2026-04-05T14:18:10.001Z</time></trkpt><trkpt lat="42.840224913660386" lon="13.640058852790375"><ele>113.0</ele><time>2026-04-05T14:18:11.001Z</time></trkpt><trkpt lat="42.84019122275009" lon="13.639691251873625"><ele>122.0</ele><time>2026-04-05T14:18:12.001Z</time></trkpt><trkpt lat="42.840104544006344" lon="13.638977291138898"><ele>124.5</ele><time>2026-04-05T14:18:14.001Z</time></trkpt><trkpt lat="42.84005314043269" lon="13.638631302922777"><ele>127.0</ele><time>2026-04-05T14:18:15.001Z</time></trkpt><trkpt lat="42.83999661182394" lon="13.638292193112626"><ele>127.0</ele><time>2026-04-05T14:18:16.001Z</time></trkpt><trkpt lat="42.839932149315516" lon="13.6379716758735"><ele>127.0</ele><time>2026-04-05T14:18:17.001Z</time></trkpt><trkpt lat="42.8398652608127" lon="13.637664207168719"><ele>127.0</ele><time>2026-04-05T14:18:18.001Z</time></trkpt><trkpt lat="42.83979520614659" lon="13.637371765265732"><ele>127.0</ele><time>2026-04-05T14:18:19.001Z</time></trkpt><trkpt lat="42.83972739038079" lon="13.637094542184231"><ele>127.0</ele><time>2026-04-05T14:18:20.001Z</time></trkpt><trkpt lat="42.839657623673034" lon="13.636820697402111"><ele>126.33333333333334</ele><time>2026-04-05T14:18:21.001Z</time></trkpt><trkpt lat="42.839588432963815" lon="13.63654748214238"><ele>125.66666666666666</ele><time>2026-04-05T14:18:22.001Z</time></trkpt><trkpt lat="42.83952129705757" lon="13.636283195550327"><ele>125.0</ele><time>2026-04-05T14:18:23.001Z</time></trkpt><trkpt lat="42.839456674963714" lon="13.63603377817796"><ele>124.5</ele><time>2026-04-05T14:18:24.001Z</time></trkpt><trkpt lat="42.83939385132094" lon="13.635802555260012"><ele>124.0</ele><time>2026-04-05T14:18:25.001Z</time></trkpt><trkpt lat="42.839292295801584" lon="13.635390961883795"><ele>125.0</ele><time>2026-04-05T14:18:27.001Z</time></trkpt><trkpt lat="42.839256269276724" lon="13.635203795492455"><ele>126.0</ele><time>2026-04-05T14:18:28.001Z</time></trkpt><trkpt lat="42.83922268055473" lon="13.63502244711293"><ele>127.0</ele><time>2026-04-05T14:18:29.001Z</time></trkpt><trkpt lat="42.83920538782642" lon="13.63485271659715"><ele>128.0</ele><time>2026-04-05T14:18:30.001Z</time></trkpt><trkpt lat="42.839201030429074" lon="13.634684974260423"><ele>128.0</ele><time>2026-04-05T14:18:31.001Z</time></trkpt><trkpt lat="42.83921227809069" lon="13.634517470715018"><ele>128.0</ele><time>2026-04-05T14:18:32.001Z</time></trkpt><trkpt lat="42.83923727264693" lon="13.634352360782648"><ele>128.0</ele><time>2026-04-05T14:18:33.001Z</time></trkpt><trkpt lat="42.8392763459045" lon="13.634189902617837"><ele>128.0</ele><time>2026-04-05T14:18:34.001Z</time></trkpt><trkpt lat="42.839329926136195" lon="13.634033946836059"><ele>126.25</ele><time>2026-04-05T14:18:35.001Z</time></trkpt><trkpt lat="42.83939919030273" lon="13.633885703214938"><ele>124.5</ele><time>2026-04-05T14:18:36.001Z</time></trkpt><trkpt lat="42.83948117503837" lon="13.633750399908953"><ele>122.75</ele><time>2026-04-05T14:18:37.001Z</time></trkpt><trkpt lat="42.83957791811833" lon="13.633624287057039"><ele>121.0</ele><time>2026-04-05T14:18:38.001Z</time></trkpt><trkpt lat="42.839690818777235" lon="13.63350733923045"><ele>121.0</ele><time>2026-04-05T14:18:39.001Z</time></trkpt><trkpt lat="42.839817720407986" lon="13.633395156442946"><ele>121.0</ele><time>2026-04-05T14:18:40.001Z</time></trkpt><trkpt lat="42.83995250661265" lon="13.633285042073556"><ele>121.0</ele><time>2026-04-05T14:18:41.001Z</time></trkpt><trkpt lat="42.84008162309212" lon="13.633176191295622"><ele>120.75</ele><time>2026-04-05T14:18:42.001Z</time></trkpt><trkpt lat="42.84020344183968" lon="13.633069456359726"><ele>120.5</ele><time>2026-04-05T14:18:43.001Z</time></trkpt><trkpt lat="42.840314556430656" lon="13.632974228019204"><ele>120.25</ele><time>2026-04-05T14:18:44.001Z</time></trkpt><trkpt lat="42.840420945695776" lon="13.632903938359345"><ele>120.0</ele><time>2026-04-05T14:18:45.001Z</time></trkpt><trkpt lat="42.840529643124206" lon="13.632869082943223"><ele>120.0</ele><time>2026-04-05T14:18:46.001Z</time></trkpt><trkpt lat="42.84064006307895" lon="13.632871076729927"><ele>120.0</ele><time>2026-04-05T14:18:47.001Z</time></trkpt><trkpt lat="42.84075133080572" lon="13.632907253512919"><ele>120.0</ele><time>2026-04-05T14:18:48.001Z</time></trkpt><trkpt lat="42.840863114440886" lon="13.632973059573844"><ele>120.0</ele><time>2026-04-05T14:18:49.001Z</time></trkpt><trkpt lat="42.84096293414728" lon="13.633066571416409"><ele>118.75</ele><time>2026-04-05T14:18:50.001Z</time></trkpt><trkpt lat="42.841043637353415" lon="13.633187111270104"><ele>117.5</ele><time>2026-04-05T14:18:51.001Z</time></trkpt><trkpt lat="42.84110629329212" lon="13.633323364606722"><ele>116.25</ele><time>2026-04-05T14:18:52.001Z</time></trkpt><trkpt lat="42.84115091371514" lon="13.633466539431133"><ele>115.0</ele><time>2026-04-05T14:18:53.001Z</time></trkpt><trkpt lat="42.84114941147333" lon="13.633617080230897"><ele>115.0</ele><time>2026-04-05T14:18:54.001Z</time></trkpt><trkpt lat="42.84115865721341" lon="13.633751351795103"><ele>115.0</ele><time>2026-04-05T14:18:55.001Z</time></trkpt><trkpt lat="42.84113105886211" lon="13.63387707604548"><ele>115.0</ele><time>2026-04-05T14:18:56.001Z</time></trkpt><trkpt lat="42.84109120742667" lon="13.634008280955834"><ele>115.0</ele><time>2026-04-05T14:18:57.001Z</time></trkpt><trkpt lat="42.84103001144277" lon="13.634138936932958"><ele>115.0</ele><time>2026-04-05T14:18:58.001Z</time></trkpt><trkpt lat="42.84094756447397" lon="13.634272078448074"><ele>116.66666666666667</ele><time>2026-04-05T14:18:59.001Z</time></trkpt><trkpt lat="42.84085649969369" lon="13.634413241867938"><ele>118.33333333333334</ele><time>2026-04-05T14:19:00.001Z</time></trkpt><trkpt lat="42.840650861000746" lon="13.634716031247455"><ele>120.0</ele><time>2026-04-05T14:19:02.001Z</time></trkpt><trkpt lat="42.84053257276008" lon="13.634858530948225"><ele>120.0</ele><time>2026-04-05T14:19:03.001Z</time></trkpt><trkpt lat="42.84040270955741" lon="13.63499250254059"><ele>120.0</ele><time>2026-04-05T14:19:04.001Z</time></trkpt><trkpt lat="42.84026598462581" lon="13.635120335867496"><ele>120.0</ele><time>2026-04-05T14:19:05.001Z</time></trkpt><trkpt lat="42.840120649520074" lon="13.635242142512025"><ele>121.33333333333334</ele><time>2026-04-05T14:19:06.001Z</time></trkpt><trkpt lat="42.83996459610494" lon="13.63534539001528"><ele>122.66666666666667</ele><time>2026-04-05T14:19:07.001Z</time></trkpt><trkpt lat="42.839806091787615" lon="13.635438822955214"><ele>124.0</ele><time>2026-04-05T14:19:08.001Z</time></trkpt><trkpt lat="42.83964498907465" lon="13.635531743142993"><ele>124.0</ele><time>2026-04-05T14:19:09.001Z</time></trkpt><trkpt lat="42.83948401833519" lon="13.635623070698868"><ele>124.0</ele><time>2026-04-05T14:19:10.001Z</time></trkpt><trkpt lat="42.83932179326856" lon="13.635713364172533"><ele>124.0</ele><time>2026-04-05T14:19:11.001Z</time></trkpt><trkpt lat="42.83916303990061" lon="13.635804600156092"><ele>125.66666666666667</ele><time>2026-04-05T14:19:12.001Z</time></trkpt><trkpt lat="42.83900930975587" lon="13.635891731277189"><ele>127.33333333333334</ele><time>2026-04-05T14:19:13.001Z</time></trkpt><trkpt lat="42.83884630225805" lon="13.635986318295524"><ele>129.0</ele><time>2026-04-05T14:19:14.001Z</time></trkpt><trkpt lat="42.83868310278489" lon="13.636082380532331"><ele>128.33333333333334</ele><time>2026-04-05T14:19:15.001Z</time></trkpt><trkpt lat="42.838517903256665" lon="13.636179044172238"><ele>127.66666666666667</ele><time>2026-04-05T14:19:16.001Z</time></trkpt><trkpt lat="42.83835040913432" lon="13.63627693291481"><ele>127.0</ele><time>2026-04-05T14:19:17.001Z</time></trkpt><trkpt lat="42.83818281673181" lon="13.636373637105311"><ele>129.0</ele><time>2026-04-05T14:19:18.001Z</time></trkpt><trkpt lat="42.838014750423135" lon="13.636468996442531"><ele>131.0</ele><time>2026-04-05T14:19:19.001Z</time></trkpt><trkpt lat="42.83782894182001" lon="13.636573189463254"><ele>133.0</ele><time>2026-04-05T14:19:20.001Z</time></trkpt><trkpt lat="42.83763229162373" lon="13.636689657795609"><ele>133.0</ele><time>2026-04-05T14:19:21.001Z</time></trkpt><trkpt lat="42.83744576946466" lon="13.636796016442156"><ele>133.0</ele><time>2026-04-05T14:19:22.001Z</time></trkpt><trkpt lat="42.8372787549146" lon="13.63689357456114"><ele>133.0</ele><time>2026-04-05T14:19:23.001Z</time></trkpt><trkpt lat="42.83712393023382" lon="13.636981768870518"><ele>133.0</ele><time>2026-04-05T14:19:24.001Z</time></trkpt><trkpt lat="42.83695222895008" lon="13.637069856205294"><ele>133.0</ele><time>2026-04-05T14:19:25.001Z</time></trkpt><trkpt lat="42.83679457027238" lon="13.637124975629492"><ele>133.0</ele><time>2026-04-05T14:19:26.001Z</time></trkpt><trkpt lat="42.83663069287957" lon="13.637153950150497"><ele>134.25</ele><time>2026-04-05T14:19:27.001Z</time></trkpt><trkpt lat="42.836474265038795" lon="13.637162650290435"><ele>135.5</ele><time>2026-04-05T14:19:28.001Z</time></trkpt><trkpt lat="42.83632825470146" lon="13.637162695026458"><ele>136.75</ele><time>2026-04-05T14:19:29.001Z</time></trkpt><trkpt lat="42.83619432268825" lon="13.637160620407435"><ele>138.0</ele><time>2026-04-05T14:19:30.001Z</time></trkpt><trkpt lat="42.83606757138615" lon="13.637166455232414"><ele>138.4</ele><time>2026-04-05T14:19:31.001Z</time></trkpt><trkpt lat="42.83595871218552" lon="13.637169121662208"><ele>138.8</ele><time>2026-04-05T14:19:32.001Z</time></trkpt><trkpt lat="42.83585568847008" lon="13.637174055381688"><ele>139.2</ele><time>2026-04-05T14:19:33.001Z</time></trkpt><trkpt lat="42.835756542622335" lon="13.637180119647974"><ele>139.6</ele><time>2026-04-05T14:19:34.001Z</time></trkpt><trkpt lat="42.83566337789393" lon="13.637196218038513"><ele>140.0</ele><time>2026-04-05T14:19:35.001Z</time></trkpt><trkpt lat="42.83557838595809" lon="13.637220269384072"><ele>140.0</ele><time>2026-04-05T14:19:36.001Z</time></trkpt><trkpt lat="42.835499612380694" lon="13.637255142334357"><ele>140.0</ele><time>2026-04-05T14:19:37.001Z</time></trkpt><trkpt lat="42.835439685135356" lon="13.637305876820164"><ele>140.0</ele><time>2026-04-05T14:19:38.001Z</time></trkpt><trkpt lat="42.835384008271646" lon="13.637370461633314"><ele>140.0</ele><time>2026-04-05T14:19:39.001Z</time></trkpt><trkpt lat="42.83532178007177" lon="13.637444235711438"><ele>140.0</ele><time>2026-04-05T14:19:40.001Z</time></trkpt><trkpt lat="42.83524322707994" lon="13.63753005101496"><ele>140.0</ele><time>2026-04-05T14:19:41.001Z</time></trkpt><trkpt lat="42.835156468110355" lon="13.637626021167662"><ele>139.0</ele><time>2026-04-05T14:19:42.001Z</time></trkpt><trkpt lat="42.83506522609758" lon="13.637729865425639"><ele>138.0</ele><time>2026-04-05T14:19:43.001Z</time></trkpt><trkpt lat="42.83497021616302" lon="13.637843100510722"><ele>137.0</ele><time>2026-04-05T14:19:44.001Z</time></trkpt><trkpt lat="42.83487994161096" lon="13.637950610937501"><ele>136.0</ele><time>2026-04-05T14:19:45Z</time></trkpt><trkpt lat="42.83479028281924" lon="13.638049565520149"><ele>136.0</ele><time>2026-04-05T14:19:46Z</time></trkpt><trkpt lat="42.83469752386669" lon="13.638150426415631"><ele>136.0</ele><time>2026-04-05T14:19:47Z</time></trkpt><trkpt lat="42.83461741808966" lon="13.63825257174315"><ele>136.0</ele><time>2026-04-05T14:19:48Z</time></trkpt><trkpt lat="42.83454272008595" lon="13.63836158372915"><ele>136.0</ele><time>2026-04-05T14:19:49Z</time></trkpt><trkpt lat="42.83448745935135" lon="13.638481896806477"><ele>136.0</ele><time>2026-04-05T14:19:50Z</time></trkpt><trkpt lat="42.83444384623821" lon="13.63861375654397"><ele>134.25</ele><time>2026-04-05T14:19:51Z</time></trkpt><trkpt lat="42.83440941904622" lon="13.638765173038127"><ele>132.5</ele><time>2026-04-05T14:19:52Z</time></trkpt><trkpt lat="42.8343812169606" lon="13.638927534863726"><ele>130.75</ele><time>2026-04-05T14:19:53Z</time></trkpt><trkpt lat="42.83435395161593" lon="13.639102131232324"><ele>129.0</ele><time>2026-04-05T14:19:54Z</time></trkpt><trkpt lat="42.83432285076797" lon="13.639306033054643"><ele>131.0</ele><time>2026-04-05T14:19:55Z</time></trkpt><trkpt lat="42.83428825029881" lon="13.639490835856499"><ele>133.0</ele><time>2026-04-05T14:19:56Z</time></trkpt><trkpt lat="42.83425564470857" lon="13.639680070615013"><ele>135.0</ele><time>2026-04-05T14:19:57Z</time></trkpt><trkpt lat="42.83422574285648" lon="13.63986415916231"><ele>137.0</ele><time>2026-04-05T14:19:58Z</time></trkpt><trkpt lat="42.8341965326826" lon="13.640042621087417"><ele>137.0</ele><time>2026-04-05T14:19:59Z</time></trkpt><trkpt lat="42.834167406093655" lon="13.64021302594547"><ele>137.0</ele><time>2026-04-05T14:20:00Z</time></trkpt><trkpt lat="42.834138790303726" lon="13.640380483390771"><ele>137.0</ele><time>2026-04-05T14:20:01Z</time></trkpt><trkpt lat="42.83410876374069" lon="13.64055181747753"><ele>137.0</ele><time>2026-04-05T14:20:02Z</time></trkpt><trkpt lat="42.83408261867826" lon="13.640724642676066"><ele>138.5</ele><time>2026-04-05T14:20:03Z</time></trkpt><trkpt lat="42.83406272239602" lon="13.640899539671638"><ele>140.0</ele><time>2026-04-05T14:20:04Z</time></trkpt><trkpt lat="42.83405489359253" lon="13.641059683800318"><ele>141.5</ele><time>2026-04-05T14:20:05Z</time></trkpt><trkpt lat="42.834040472602894" lon="13.641225683103455"><ele>143.0</ele><time>2026-04-05T14:20:06Z</time></trkpt><trkpt lat="42.83406003584484" lon="13.641377233147688"><ele>143.5</ele><time>2026-04-05T14:20:07Z</time></trkpt><trkpt lat="42.83410354072887" lon="13.64154005914564"><ele>144.0</ele><time>2026-04-05T14:20:08Z</time></trkpt><trkpt lat="42.834159153593525" lon="13.641720155318543"><ele>144.5</ele><time>2026-04-05T14:20:09Z</time></trkpt><trkpt lat="42.83421651324693" lon="13.641904258576396"><ele>145.0</ele><time>2026-04-05T14:20:10Z</time></trkpt><trkpt lat="42.8342795544222" lon="13.642062485870957"><ele>147.66666666666669</ele><time>2026-04-05T14:20:11Z</time></trkpt><trkpt lat="42.834343806576534" lon="13.642317714539663"><ele>150.33333333333334</ele><time>2026-04-05T14:20:12Z</time></trkpt><trkpt lat="42.83437699252493" lon="13.64250590216475"><ele>153.0</ele><time>2026-04-05T14:20:13Z</time></trkpt><trkpt lat="42.834383399449" lon="13.642696288032052"><ele>153.0</ele><time>2026-04-05T14:20:14Z</time></trkpt><trkpt lat="42.834326670845236" lon="13.642867246557637"><ele>153.0</ele><time>2026-04-05T14:20:15Z</time></trkpt><trkpt lat="42.834264187750904" lon="13.64307679481084"><ele>153.0</ele><time>2026-04-05T14:20:16Z</time></trkpt><trkpt lat="42.834203415422515" lon="13.643273471524719"><ele>153.0</ele><time>2026-04-05T14:20:17Z</time></trkpt><trkpt lat="42.83414786193055" lon="13.643455316327845"><ele>153.0</ele><time>2026-04-05T14:20:18Z</time></trkpt><trkpt lat="42.83409732398831" lon="13.64358377620853"><ele>153.0</ele><time>2026-04-05T14:20:19Z</time></trkpt><trkpt lat="42.83402520561591" lon="13.643653701869656"><ele>153.0</ele><time>2026-04-05T14:20:20Z</time></trkpt><trkpt lat="42.83393887308247" lon="13.643724387228493"><ele>153.0</ele><time>2026-04-05T14:20:21Z</time></trkpt><trkpt lat="42.83381445280524" lon="13.643654704631619"><ele>153.0</ele><time>2026-04-05T14:20:22Z</time></trkpt><trkpt lat="42.83371951541376" lon="13.643532296709909"><ele>153.0</ele><time>2026-04-05T14:20:23Z</time></trkpt><trkpt lat="42.83363491068838" lon="13.643376092604255"><ele>153.0</ele><time>2026-04-05T14:20:24Z</time></trkpt><trkpt lat="42.833523477531074" lon="13.643185928790302"><ele>153.25</ele><time>2026-04-05T14:20:25Z</time></trkpt><trkpt lat="42.833426112039284" lon="13.643004657244894"><ele>153.5</ele><time>2026-04-05T14:20:26Z</time></trkpt><trkpt lat="42.83333324941337" lon="13.642855507149653"><ele>153.75</ele><time>2026-04-05T14:20:27Z</time></trkpt><trkpt lat="42.83324628198293" lon="13.642736264441108"><ele>154.0</ele><time>2026-04-05T14:20:28Z</time></trkpt><trkpt lat="42.83313413341257" lon="13.64260251873122"><ele>154.0</ele><time>2026-04-05T14:20:29Z</time></trkpt><trkpt lat="42.83302191198011" lon="13.642515785743239"><ele>154.0</ele><time>2026-04-05T14:20:30Z</time></trkpt><trkpt lat="42.83288620682078" lon="13.642483088419539"><ele>154.0</ele><time>2026-04-05T14:20:31Z</time></trkpt><trkpt lat="42.83274134608375" lon="13.642482412567759"><ele>154.0</ele><time>2026-04-05T14:20:32Z</time></trkpt><trkpt lat="42.83260283055153" lon="13.642516669046119"><ele>154.25</ele><time>2026-04-05T14:20:33Z</time></trkpt><trkpt lat="42.83247677746434" lon="13.64262417266419"><ele>154.5</ele><time>2026-04-05T14:20:34Z</time></trkpt><trkpt lat="42.832356235901806" lon="13.642751984145605"><ele>154.75</ele><time>2026-04-05T14:20:35Z</time></trkpt><trkpt lat="42.83223641180622" lon="13.642830560975705"><ele>155.0</ele><time>2026-04-05T14:20:36Z</time></trkpt><trkpt lat="42.83212423903181" lon="13.642905458743602"><ele>156.5</ele><time>2026-04-05T14:20:37Z</time></trkpt><trkpt lat="42.83201585717328" lon="13.6429915387395"><ele>158.0</ele><time>2026-04-05T14:20:38Z</time></trkpt><trkpt lat="42.83192020308698" lon="13.643126231006434"><ele>159.5</ele><time>2026-04-05T14:20:39Z</time></trkpt><trkpt lat="42.83183123303181" lon="13.64327902882022"><ele>161.0</ele><time>2026-04-05T14:20:40Z</time></trkpt><trkpt lat="42.83174354438875" lon="13.64342469685572"><ele>161.0</ele><time>2026-04-05T14:20:41Z</time></trkpt><trkpt lat="42.831659360342805" lon="13.6435732460522"><ele>161.0</ele><time>2026-04-05T14:20:42Z</time></trkpt><trkpt lat="42.831591030454085" lon="13.643737460269248"><ele>161.0</ele><time>2026-04-05T14:20:43Z</time></trkpt><trkpt lat="42.83154527855511" lon="13.64392234664333"><ele>161.0</ele><time>2026-04-05T14:20:44Z</time></trkpt><trkpt lat="42.83152369397722" lon="13.644123003344543"><ele>163.66666666666666</ele><time>2026-04-05T14:20:45Z</time></trkpt><trkpt lat="42.83152384751249" lon="13.644338827886651"><ele>166.33333333333334</ele><time>2026-04-05T14:20:46Z</time></trkpt><trkpt lat="42.83153381068651" lon="13.644564924666406"><ele>169.0</ele><time>2026-04-05T14:20:47Z</time></trkpt><trkpt lat="42.83152042008981" lon="13.644787099212042"><ele>172.0</ele><time>2026-04-05T14:20:48Z</time></trkpt><trkpt lat="42.831519308973704" lon="13.645007186129737"><ele>175.0</ele><time>2026-04-05T14:20:49.001Z</time></trkpt><trkpt lat="42.831518160071816" lon="13.645217762396484"><ele>178.0</ele><time>2026-04-05T14:20:50.001Z</time></trkpt><trkpt lat="42.83151700384312" lon="13.645410707897907"><ele>178.60000000000002</ele><time>2026-04-05T14:20:51.001Z</time></trkpt><trkpt lat="42.83151541037436" lon="13.645583892867183"><ele>179.20000000000002</ele><time>2026-04-05T14:20:52.001Z</time></trkpt><trkpt lat="42.831507558188186" lon="13.645734487931584"><ele>179.8</ele><time>2026-04-05T14:20:53.001Z</time></trkpt><trkpt lat="42.831478330773564" lon="13.645853494096148"><ele>180.4</ele><time>2026-04-05T14:20:54.001Z</time></trkpt><trkpt lat="42.83142381041235" lon="13.645945445954936"><ele>181.0</ele><time>2026-04-05T14:20:55.001Z</time></trkpt><trkpt lat="42.831352120744654" lon="13.64602719985385"><ele>181.0</ele><time>2026-04-05T14:20:56.001Z</time></trkpt><trkpt lat="42.83124538178938" lon="13.646075467808588"><ele>181.0</ele><time>2026-04-05T14:20:57.001Z</time></trkpt><trkpt lat="42.83113539570748" lon="13.646117574451594"><ele>181.0</ele><time>2026-04-05T14:20:58.001Z</time></trkpt><trkpt lat="42.83102648462742" lon="13.646161702143672"><ele>181.0</ele><time>2026-04-05T14:20:59.001Z</time></trkpt><trkpt lat="42.8309302843497" lon="13.646210877123634"><ele>181.0</ele><time>2026-04-05T14:21:00.001Z</time></trkpt><trkpt lat="42.830853776994815" lon="13.646287322903328"><ele>181.0</ele><time>2026-04-05T14:21:01.001Z</time></trkpt><trkpt lat="42.830796256679555" lon="13.646406832697252"><ele>181.0</ele><time>2026-04-05T14:21:02.001Z</time></trkpt><trkpt lat="42.83075342155084" lon="13.646562162838629"><ele>181.0</ele><time>2026-04-05T14:21:03.001Z</time></trkpt><trkpt lat="42.830706898122614" lon="13.646728700335357"><ele>181.0</ele><time>2026-04-05T14:21:04.001Z</time></trkpt><trkpt lat="42.83063908607699" lon="13.646878125550298"><ele>183.20000000000002</ele><time>2026-04-05T14:21:05.001Z</time></trkpt><trkpt lat="42.830588297732" lon="13.6470308139575"><ele>185.4</ele><time>2026-04-05T14:21:06Z</time></trkpt><trkpt lat="42.83055574564428" lon="13.647179468328362"><ele>187.6</ele><time>2026-04-05T14:21:07Z</time></trkpt><trkpt lat="42.83051468549918" lon="13.647298197753463"><ele>189.8</ele><time>2026-04-05T14:21:08Z</time></trkpt><trkpt lat="42.830481743836856" lon="13.647400649356431"><ele>192.0</ele><time>2026-04-05T14:21:09Z</time></trkpt><trkpt lat="42.830441188571584" lon="13.647484281434721"><ele>192.0</ele><time>2026-04-05T14:21:10Z</time></trkpt><trkpt lat="42.83038164056567" lon="13.647538755099903"><ele>192.0</ele><time>2026-04-05T14:21:11Z</time></trkpt><trkpt lat="42.83030377134576" lon="13.647561589689658"><ele>192.0</ele><time>2026-04-05T14:21:12Z</time></trkpt><trkpt lat="42.83020882340779" lon="13.647542112555845"><ele>192.0</ele><time>2026-04-05T14:21:13Z</time></trkpt><trkpt lat="42.830102172275694" lon="13.647499639533564"><ele>192.0</ele><time>2026-04-05T14:21:14Z</time></trkpt><trkpt lat="42.8299937017846" lon="13.64745689760979"><ele>189.5</ele><time>2026-04-05T14:21:15Z</time></trkpt><trkpt lat="42.82987985730308" lon="13.647418340618017"><ele>187.0</ele><time>2026-04-05T14:21:16Z</time></trkpt><trkpt lat="42.829762244913766" lon="13.647379518633745"><ele>184.5</ele><time>2026-04-05T14:21:17Z</time></trkpt><trkpt lat="42.829645191734826" lon="13.647339953579344"><ele>182.0</ele><time>2026-04-05T14:21:18Z</time></trkpt><trkpt lat="42.82952711730947" lon="13.647302089819059"><ele>182.0</ele><time>2026-04-05T14:21:19Z</time></trkpt><trkpt lat="42.82941662810011" lon="13.64726541314593"><ele>182.0</ele><time>2026-04-05T14:21:20Z</time></trkpt><trkpt lat="42.82931367539034" lon="13.64722638122997"><ele>182.0</ele><time>2026-04-05T14:21:21Z</time></trkpt><trkpt lat="42.82922124775974" lon="13.647154188102775"><ele>182.0</ele><time>2026-04-05T14:21:22Z</time></trkpt><trkpt lat="42.82915732188212" lon="13.64703727451852"><ele>182.0</ele><time>2026-04-05T14:21:23Z</time></trkpt><trkpt lat="42.82913212940451" lon="13.646889004734671"><ele>183.75</ele><time>2026-04-05T14:21:24Z</time></trkpt><trkpt lat="42.82914731609214" lon="13.646731142326743"><ele>185.5</ele><time>2026-04-05T14:21:25Z</time></trkpt><trkpt lat="42.829177860760964" lon="13.646559079911931"><ele>187.25</ele><time>2026-04-05T14:21:26Z</time></trkpt><trkpt lat="42.829203674167715" lon="13.646384556501452"><ele>189.0</ele><time>2026-04-05T14:21:27Z</time></trkpt><trkpt lat="42.82921116748408" lon="13.646220187680957"><ele>189.75</ele><time>2026-04-05T14:21:28Z</time></trkpt><trkpt lat="42.829205716393616" lon="13.646052652550924"><ele>190.5</ele><time>2026-04-05T14:21:29Z</time></trkpt><trkpt lat="42.82917833553942" lon="13.645882254681645"><ele>191.25</ele><time>2026-04-05T14:21:30Z</time></trkpt><trkpt lat="42.82911529372788" lon="13.645731174622568"><ele>192.0</ele><time>2026-04-05T14:21:31Z</time></trkpt><trkpt lat="42.82901871227475" lon="13.645566099014088"><ele>192.0</ele><time>2026-04-05T14:21:32Z</time></trkpt><trkpt lat="42.82888592545068" lon="13.645371994365341"><ele>192.0</ele><time>2026-04-05T14:21:33Z</time></trkpt><trkpt lat="42.828769752941554" lon="13.645138889099723"><ele>192.0</ele><time>2026-04-05T14:21:34Z</time></trkpt><trkpt lat="42.828629430516685" lon="13.644900452171218"><ele>189.5</ele><time>2026-04-05T14:21:35Z</time></trkpt><trkpt lat="42.828502145901346" lon="13.644633823540058"><ele>187.0</ele><time>2026-04-05T14:21:36Z</time></trkpt><trkpt lat="42.828372833887194" lon="13.644389913399204"><ele>190.33333333333334</ele><time>2026-04-05T14:21:37Z</time></trkpt><trkpt lat="42.82825861957642" lon="13.644176679469735"><ele>193.66666666666669</ele><time>2026-04-05T14:21:38Z</time></trkpt><trkpt lat="42.82815309405225" lon="13.643989821721584"><ele>197.0</ele><time>2026-04-05T14:21:39Z</time></trkpt><trkpt lat="42.828032822843134" lon="13.643831443146976"><ele>197.0</ele><time>2026-04-05T14:21:40Z</time></trkpt><trkpt lat="42.82789446449506" lon="13.64369075363038"><ele>197.0</ele><time>2026-04-05T14:21:41Z</time></trkpt><trkpt lat="42.82775286755551" lon="13.643549246790796"><ele>197.0</ele><time>2026-04-05T14:21:42Z</time></trkpt><trkpt lat="42.82763642130915" lon="13.643422466039395"><ele>197.0</ele><time>2026-04-05T14:21:43Z</time></trkpt><trkpt lat="42.827538608846574" lon="13.643317849590373"><ele>197.0</ele><time>2026-04-05T14:21:44Z</time></trkpt><trkpt lat="42.82743980492059" lon="13.643249584570722"><ele>197.0</ele><time>2026-04-05T14:21:45Z</time></trkpt><trkpt lat="42.827329738269924" lon="13.643238186590576"><ele>197.0</ele><time>2026-04-05T14:21:46Z</time></trkpt><trkpt lat="42.82722031266835" lon="13.643294113542035"><ele>197.0</ele><time>2026-04-05T14:21:47Z</time></trkpt><trkpt lat="42.827124416133195" lon="13.643410776336493"><ele>197.0</ele><time>2026-04-05T14:21:48Z</time></trkpt><trkpt lat="42.82703603169115" lon="13.643574332343821"><ele>197.0</ele><time>2026-04-05T14:21:49Z</time></trkpt><trkpt lat="42.82694046532762" lon="13.64375143455046"><ele>197.0</ele><time>2026-04-05T14:21:50Z</time></trkpt><trkpt lat="42.82684420963968" lon="13.64391870713379"><ele>201.0</ele><time>2026-04-05T14:21:51Z</time></trkpt><trkpt lat="42.82675689110645" lon="13.644074921541177"><ele>205.0</ele><time>2026-04-05T14:21:52Z</time></trkpt><trkpt lat="42.82668879013642" lon="13.644236645705222"><ele>209.0</ele><time>2026-04-05T14:21:53Z</time></trkpt><trkpt lat="42.82665544374931" lon="13.644411357979292"><ele>213.0</ele><time>2026-04-05T14:21:54Z</time></trkpt><trkpt lat="42.82663018783924" lon="13.644573920756189"><ele>215.2</ele><time>2026-04-05T14:21:55Z</time></trkpt><trkpt lat="42.82660647606396" lon="13.644700984342315"><ele>217.4</ele><time>2026-04-05T14:21:56Z</time></trkpt><trkpt lat="42.82657070550975" lon="13.64479874198403"><ele>219.59999999999997</ele><time>2026-04-05T14:21:57Z</time></trkpt><trkpt lat="42.82647755989753" lon="13.644823933014626"><ele>221.79999999999998</ele><time>2026-04-05T14:21:58Z</time></trkpt><trkpt lat="42.82637002544657" lon="13.644784204198647"><ele>224.0</ele><time>2026-04-05T14:21:59Z</time></trkpt><trkpt lat="42.826268719832335" lon="13.644678587018765"><ele>224.0</ele><time>2026-04-05T14:22:00Z</time></trkpt><trkpt lat="42.82616473597342" lon="13.644541409853067"><ele>224.0</ele><time>2026-04-05T14:22:01Z</time></trkpt><trkpt lat="42.826044585732106" lon="13.644398421274326"><ele>224.0</ele><time>2026-04-05T14:22:02Z</time></trkpt><trkpt lat="42.825924026615404" lon="13.64425800937806"><ele>222.5</ele><time>2026-04-05T14:22:03Z</time></trkpt><trkpt lat="42.825808798887316" lon="13.644131221144223"><ele>221.0</ele><time>2026-04-05T14:22:04Z</time></trkpt><trkpt lat="42.82570610164844" lon="13.644032312886722"><ele>219.5</ele><time>2026-04-05T14:22:05Z</time></trkpt><trkpt lat="42.825606914456394" lon="13.643970661079798"><ele>218.0</ele><time>2026-04-05T14:22:06Z</time></trkpt><trkpt lat="42.825504862063596" lon="13.64396117431891"><ele>218.0</ele><time>2026-04-05T14:22:07Z</time></trkpt><trkpt lat="42.825394896391316" lon="13.644005620902064"><ele>218.0</ele><time>2026-04-05T14:22:08Z</time></trkpt><trkpt lat="42.82528749717845" lon="13.644105594202264"><ele>218.0</ele><time>2026-04-05T14:22:09Z</time></trkpt><trkpt lat="42.82518752167866" lon="13.64425637746027"><ele>218.0</ele><time>2026-04-05T14:22:10Z</time></trkpt><trkpt lat="42.825098937398785" lon="13.644426941315093"><ele>219.75</ele><time>2026-04-05T14:22:11Z</time></trkpt><trkpt lat="42.82502493693442" lon="13.644586188258488"><ele>221.5</ele><time>2026-04-05T14:22:12Z</time></trkpt><trkpt lat="42.824970311394964" lon="13.644722871870195"><ele>223.25</ele><time>2026-04-05T14:22:13Z</time></trkpt><trkpt lat="42.824950438899286" lon="13.644871842088738"><ele>225.0</ele><time>2026-04-05T14:22:14Z</time></trkpt><trkpt lat="42.82495952213731" lon="13.645044634548091"><ele>225.0</ele><time>2026-04-05T14:22:15Z</time></trkpt><trkpt lat="42.82500047348809" lon="13.645241080389862"><ele>225.0</ele><time>2026-04-05T14:22:16Z</time></trkpt><trkpt lat="42.8250493209853" lon="13.645420815646254"><ele>225.0</ele><time>2026-04-05T14:22:17Z</time></trkpt><trkpt lat="42.82512049521701" lon="13.645619016080486"><ele>229.66666666666669</ele><time>2026-04-05T14:22:18Z</time></trkpt><trkpt lat="42.825207653354106" lon="13.645820412452137"><ele>234.33333333333334</ele><time>2026-04-05T14:22:19Z</time></trkpt><trkpt lat="42.825302659090745" lon="13.646032339789182"><ele>239.0</ele><time>2026-04-05T14:22:20Z</time></trkpt><trkpt lat="42.82538074815794" lon="13.646263220280044"><ele>240.66666666666669</ele><time>2026-04-05T14:22:21Z</time></trkpt><trkpt lat="42.82546619992357" lon="13.646471237390948"><ele>242.33333333333331</ele><time>2026-04-05T14:22:22Z</time></trkpt><trkpt lat="42.8255401852933" lon="13.646652464764383"><ele>244.0</ele><time>2026-04-05T14:22:23Z</time></trkpt><trkpt lat="42.82559972164337" lon="13.646814141488415"><ele>246.0</ele><time>2026-04-05T14:22:24Z</time></trkpt><trkpt lat="42.82563352511551" lon="13.646978681665006"><ele>248.0</ele><time>2026-04-05T14:22:25Z</time></trkpt><trkpt lat="42.82563684736029" lon="13.64715244979266"><ele>250.0</ele><time>2026-04-05T14:22:26Z</time></trkpt><trkpt lat="42.825619064546196" lon="13.647327294103027"><ele>252.0</ele><time>2026-04-05T14:22:27Z</time></trkpt><trkpt lat="42.82557688268733" lon="13.647493708546277"><ele>252.0</ele><time>2026-04-05T14:22:28Z</time></trkpt><trkpt lat="42.82550473288331" lon="13.647641520062942"><ele>252.0</ele><time>2026-04-05T14:22:29Z</time></trkpt><trkpt lat="42.825420639245294" lon="13.647785798213187"><ele>252.0</ele><time>2026-04-05T14:22:30Z</time></trkpt><trkpt lat="42.82529618047777" lon="13.647884706328403"><ele>252.0</ele><time>2026-04-05T14:22:31Z</time></trkpt><trkpt lat="42.82515662050253" lon="13.64794071536845"><ele>252.75</ele><time>2026-04-05T14:22:32Z</time></trkpt><trkpt lat="42.825012371768295" lon="13.647949010390228"><ele>253.5</ele><time>2026-04-05T14:22:33Z</time></trkpt><trkpt lat="42.82486782660759" lon="13.647911224783629"><ele>254.25</ele><time>2026-04-05T14:22:34Z</time></trkpt><trkpt lat="42.824729000479934" lon="13.647827767426717"><ele>255.0</ele><time>2026-04-05T14:22:35Z</time></trkpt><trkpt lat="42.82459388794589" lon="13.647713333431412"><ele>250.0</ele><time>2026-04-05T14:22:36Z</time></trkpt><trkpt lat="42.824481697256395" lon="13.647573224995867"><ele>245.0</ele><time>2026-04-05T14:22:37Z</time></trkpt><trkpt lat="42.82441027805007" lon="13.647411774546866"><ele>240.0</ele><time>2026-04-05T14:22:38Z</time></trkpt><trkpt lat="42.82436781539933" lon="13.647244755601903"><ele>235.0</ele><time>2026-04-05T14:22:39Z</time></trkpt><trkpt lat="42.82432079184246" lon="13.647118160736554"><ele>237.4</ele><time>2026-04-05T14:22:40Z</time></trkpt><trkpt lat="42.82425423078191" lon="13.647060588040684"><ele>239.8</ele><time>2026-04-05T14:22:41Z</time></trkpt><trkpt lat="42.82416980478341" lon="13.647072779445242"><ele>242.2</ele><time>2026-04-05T14:22:42Z</time></trkpt><trkpt lat="42.8240887637349" lon="13.64716049575834"><ele>244.6</ele><time>2026-04-05T14:22:43Z</time></trkpt><trkpt lat="42.82402265874048" lon="13.647306324623072"><ele>247.0</ele><time>2026-04-05T14:22:44Z</time></trkpt><trkpt lat="42.82394594340154" lon="13.647478501344548"><ele>247.0</ele><time>2026-04-05T14:22:45Z</time></trkpt><trkpt lat="42.82386733344579" lon="13.647630977289932"><ele>247.0</ele><time>2026-04-05T14:22:46Z</time></trkpt><trkpt lat="42.82377372680523" lon="13.647784063051116"><ele>247.0</ele><time>2026-04-05T14:22:47Z</time></trkpt><trkpt lat="42.82368007431186" lon="13.647910760773055"><ele>247.0</ele><time>2026-04-05T14:22:48Z</time></trkpt><trkpt lat="42.82360347745574" lon="13.64800880305489"><ele>249.0</ele><time>2026-04-05T14:22:49Z</time></trkpt><trkpt lat="42.82351884993983" lon="13.648020537636294"><ele>251.0</ele><time>2026-04-05T14:22:50Z</time></trkpt><trkpt lat="42.82342960618695" lon="13.647957768626123"><ele>253.0</ele><time>2026-04-05T14:22:51Z</time></trkpt><trkpt lat="42.823363076152674" lon="13.647818074486715"><ele>255.0</ele><time>2026-04-05T14:22:52Z</time></trkpt><trkpt lat="42.82332464275457" lon="13.64763890701256"><ele>257.0</ele><time>2026-04-05T14:22:53Z</time></trkpt><trkpt lat="42.82328183388994" lon="13.647440930731197"><ele>257.0</ele><time>2026-04-05T14:22:54Z</time></trkpt><trkpt lat="42.823221562554565" lon="13.647220863698957"><ele>257.0</ele><time>2026-04-05T14:22:55Z</time></trkpt><trkpt lat="42.82315738528592" lon="13.647019533787024"><ele>257.0</ele><time>2026-04-05T14:22:56Z</time></trkpt><trkpt lat="42.82309250773899" lon="13.646857879917274"><ele>254.0</ele><time>2026-04-05T14:22:57Z</time></trkpt><trkpt lat="42.823011737718275" lon="13.646730385702925"><ele>251.0</ele><time>2026-04-05T14:22:58Z</time></trkpt><trkpt lat="42.82291870037995" lon="13.64664113830381"><ele>248.0</ele><time>2026-04-05T14:22:59Z</time></trkpt><trkpt lat="42.82281840295577" lon="13.646608193064447"><ele>245.0</ele><time>2026-04-05T14:23:00Z</time></trkpt><trkpt lat="42.8227197753073" lon="13.646640554234883"><ele>242.0</ele><time>2026-04-05T14:23:01Z</time></trkpt><trkpt lat="42.82265699199369" lon="13.646726202208752"><ele>243.25</ele><time>2026-04-05T14:23:02Z</time></trkpt><trkpt lat="42.822629620123024" lon="13.646860199402203"><ele>244.5</ele><time>2026-04-05T14:23:03Z</time></trkpt><trkpt lat="42.82260891119829" lon="13.647009424548502"><ele>245.75</ele><time>2026-04-05T14:23:04Z</time></trkpt><trkpt lat="42.82263284995801" lon="13.647159232720382"><ele>247.0</ele><time>2026-04-05T14:23:05Z</time></trkpt><trkpt lat="42.82264524546612" lon="13.647361026175886"><ele>251.0</ele><time>2026-04-05T14:23:06Z</time></trkpt><trkpt lat="42.82260791894482" lon="13.647566533951224"><ele>255.0</ele><time>2026-04-05T14:23:07Z</time></trkpt><trkpt lat="42.82255432565888" lon="13.647777244909378"><ele>259.0</ele><time>2026-04-05T14:23:08Z</time></trkpt><trkpt lat="42.82249045657472" lon="13.647999280767088"><ele>262.0</ele><time>2026-04-05T14:23:09Z</time></trkpt><trkpt lat="42.82244869179083" lon="13.648225885077016"><ele>265.0</ele><time>2026-04-05T14:23:10Z</time></trkpt><trkpt lat="42.82240597345011" lon="13.648426684858917"><ele>268.0</ele><time>2026-04-05T14:23:11Z</time></trkpt><trkpt lat="42.82240579051119" lon="13.648621026202484"><ele>269.4</ele><time>2026-04-05T14:23:12Z</time></trkpt><trkpt lat="42.82244221287014" lon="13.648808671532858"><ele>270.8</ele><time>2026-04-05T14:23:13Z</time></trkpt><trkpt lat="42.82244854743789" lon="13.648956020570537"><ele>272.2</ele><time>2026-04-05T14:23:14Z</time></trkpt><trkpt lat="42.82241784635657" lon="13.64905176056432"><ele>273.6</ele><time>2026-04-05T14:23:15Z</time></trkpt><trkpt lat="42.82234388431853" lon="13.64912506732257"><ele>275.0</ele><time>2026-04-05T14:23:16Z</time></trkpt><trkpt lat="42.82224603368707" lon="13.649236510255836"><ele>275.0</ele><time>2026-04-05T14:23:17Z</time></trkpt><trkpt lat="42.82215575169283" lon="13.64931214288531"><ele>275.0</ele><time>2026-04-05T14:23:18Z</time></trkpt><trkpt lat="42.82205464108369" lon="13.649326632426934"><ele>275.0</ele><time>2026-04-05T14:23:19Z</time></trkpt><trkpt lat="42.821952546350765" lon="13.64929593047457"><ele>275.0</ele><time>2026-04-05T14:23:20Z</time></trkpt><trkpt lat="42.8218723006979" lon="13.649180360778166"><ele>275.0</ele><time>2026-04-05T14:23:21Z</time></trkpt><trkpt lat="42.821808797453706" lon="13.649028676822669"><ele>275.33333333333337</ele><time>2026-04-05T14:23:22Z</time></trkpt><trkpt lat="42.821724107718545" lon="13.648837088431295"><ele>275.6666666666667</ele><time>2026-04-05T14:23:23Z</time></trkpt><trkpt lat="42.82164637658484" lon="13.648612599226478"><ele>276.0</ele><time>2026-04-05T14:23:24Z</time></trkpt><trkpt lat="42.82157677337487" lon="13.648409096949894"><ele>276.0</ele><time>2026-04-05T14:23:25Z</time></trkpt><trkpt lat="42.8215118798632" lon="13.648234429680924"><ele>276.0</ele><time>2026-04-05T14:23:26Z</time></trkpt><trkpt lat="42.82143961434838" lon="13.64807942054663"><ele>276.0</ele><time>2026-04-05T14:23:27Z</time></trkpt><trkpt lat="42.82132180255367" lon="13.64795492061853"><ele>276.0</ele><time>2026-04-05T14:23:28Z</time></trkpt><trkpt lat="42.821193376190635" lon="13.64783025797069"><ele>280.6666666666667</ele><time>2026-04-05T14:23:29Z</time></trkpt><trkpt lat="42.82108460479459" lon="13.64767242950395"><ele>285.33333333333337</ele><time>2026-04-05T14:23:30Z</time></trkpt><trkpt lat="42.82100131869247" lon="13.64748554115062"><ele>290.0</ele><time>2026-04-05T14:23:31Z</time></trkpt><trkpt lat="42.82093029501391" lon="13.64730257727229"><ele>290.0</ele><time>2026-04-05T14:23:32Z</time></trkpt><trkpt lat="42.82085043258893" lon="13.647157958057138"><ele>290.0</ele><time>2026-04-05T14:23:33Z</time></trkpt><trkpt lat="42.82074258237568" lon="13.647058540868935"><ele>290.0</ele><time>2026-04-05T14:23:34Z</time></trkpt><trkpt lat="42.82060325337304" lon="13.646997504617461"><ele>290.0</ele><time>2026-04-05T14:23:35Z</time></trkpt><trkpt lat="42.820442362464476" lon="13.646962568984035"><ele>289.6666666666667</ele><time>2026-04-05T14:23:36Z</time></trkpt><trkpt lat="42.82027670892442" lon="13.646917746307405"><ele>289.3333333333333</ele><time>2026-04-05T14:23:37Z</time></trkpt><trkpt lat="42.820127517692846" lon="13.646824864773832"><ele>289.0</ele><time>2026-04-05T14:23:38Z</time></trkpt><trkpt lat="42.819996642278674" lon="13.64670227442491"><ele>289.0</ele><time>2026-04-05T14:23:39Z</time></trkpt><trkpt lat="42.8198595075504" lon="13.646570404510328"><ele>289.0</ele><time>2026-04-05T14:23:40Z</time></trkpt><trkpt lat="42.81976276119994" lon="13.646383713248023"><ele>289.0</ele><time>2026-04-05T14:23:41Z</time></trkpt><trkpt lat="42.81966668207294" lon="13.646230724282356"><ele>286.0</ele><time>2026-04-05T14:23:42Z</time></trkpt><trkpt lat="42.81957278589732" lon="13.646125784248204"><ele>283.0</ele><time>2026-04-05T14:23:43Z</time></trkpt><trkpt lat="42.81947094655362" lon="13.646071835431878"><ele>280.0</ele><time>2026-04-05T14:23:44Z</time></trkpt><trkpt lat="42.819350836088574" lon="13.646058854704748"><ele>277.0</ele><time>2026-04-05T14:23:45Z</time></trkpt><trkpt lat="42.819218267125464" lon="13.64609001627413"><ele>282.25</ele><time>2026-04-05T14:23:46Z</time></trkpt><trkpt lat="42.81908650924685" lon="13.646148202380902"><ele>287.5</ele><time>2026-04-05T14:23:47Z</time></trkpt><trkpt lat="42.81897619362278" lon="13.64621045871275"><ele>292.75</ele><time>2026-04-05T14:23:48Z</time></trkpt><trkpt lat="42.81889242435392" lon="13.646295759900905"><ele>298.0</ele><time>2026-04-05T14:23:49Z</time></trkpt><trkpt lat="42.81884250800433" lon="13.646425660396904"><ele>298.0</ele><time>2026-04-05T14:23:50Z</time></trkpt><trkpt lat="42.81883077690623" lon="13.646594556281926"><ele>298.0</ele><time>2026-04-05T14:23:51Z</time></trkpt><trkpt lat="42.81880560009182" lon="13.646767451394611"><ele>298.0</ele><time>2026-04-05T14:23:52Z</time></trkpt><trkpt lat="42.81877607968458" lon="13.646917273900963"><ele>298.0</ele><time>2026-04-05T14:23:53Z</time></trkpt><trkpt lat="42.81871489942803" lon="13.647006237682046"><ele>299.5</ele><time>2026-04-05T14:23:54Z</time></trkpt><trkpt lat="42.81862806283841" lon="13.647048720291522"><ele>301.0</ele><time>2026-04-05T14:23:55Z</time></trkpt><trkpt lat="42.818515411830646" lon="13.646972803798196"><ele>302.5</ele><time>2026-04-05T14:23:56Z</time></trkpt><trkpt lat="42.81840192895829" lon="13.646964018089465"><ele>304.0</ele><time>2026-04-05T14:23:57Z</time></trkpt><trkpt lat="42.81828368793002" lon="13.64700234823443"><ele>304.0</ele><time>2026-04-05T14:23:58Z</time></trkpt><trkpt lat="42.818173895130535" lon="13.647115966887336"><ele>304.0</ele><time>2026-04-05T14:23:59Z</time></trkpt><trkpt lat="42.81807496877541" lon="13.647258654523139"><ele>304.0</ele><time>2026-04-05T14:24:00Z</time></trkpt><trkpt lat="42.81796617355092" lon="13.647359572247483"><ele>304.0</ele><time>2026-04-05T14:24:01Z</time></trkpt><trkpt lat="42.817836125930555" lon="13.647370625308422"><ele>304.0</ele><time>2026-04-05T14:24:02Z</time></trkpt><trkpt lat="42.817687113297126" lon="13.647381322967822"><ele>304.0</ele><time>2026-04-05T14:24:03Z</time></trkpt><trkpt lat="42.817551480774135" lon="13.647410247887015"><ele>304.0</ele><time>2026-04-05T14:24:04Z</time></trkpt><trkpt lat="42.81743421221986" lon="13.647492694120064"><ele>304.0</ele><time>2026-04-05T14:24:05Z</time></trkpt><trkpt lat="42.81734075349125" lon="13.64762138844174"><ele>305.5</ele><time>2026-04-05T14:24:06Z</time></trkpt><trkpt lat="42.81727888075919" lon="13.647786572839104"><ele>307.0</ele><time>2026-04-05T14:24:07Z</time></trkpt><trkpt lat="42.81724980415408" lon="13.647960922312466"><ele>308.5</ele><time>2026-04-05T14:24:08Z</time></trkpt><trkpt lat="42.817264306051385" lon="13.648138141344429"><ele>310.0</ele><time>2026-04-05T14:24:09Z</time></trkpt><trkpt lat="42.81731422848589" lon="13.64831358290431"><ele>310.0</ele><time>2026-04-05T14:24:10Z</time></trkpt><trkpt lat="42.8173264830951" lon="13.648478248562064"><ele>310.0</ele><time>2026-04-05T14:24:11Z</time></trkpt><trkpt lat="42.817289494110796" lon="13.648607525779772"><ele>310.0</ele><time>2026-04-05T14:24:12Z</time></trkpt><trkpt lat="42.81722816386852" lon="13.648701036685715"><ele>310.0</ele><time>2026-04-05T14:24:13Z</time></trkpt><trkpt lat="42.817131257997" lon="13.648703927760225"><ele>310.0</ele><time>2026-04-05T14:24:14Z</time></trkpt><trkpt lat="42.81705271909877" lon="13.648597520129352"><ele>310.0</ele><time>2026-04-05T14:24:15Z</time></trkpt><trkpt lat="42.816958414033635" lon="13.648505048232487"><ele>310.0</ele><time>2026-04-05T14:24:16Z</time></trkpt><trkpt lat="42.81687031906564" lon="13.648367484168539"><ele>310.0</ele><time>2026-04-05T14:24:17Z</time></trkpt><trkpt lat="42.816783483299965" lon="13.648269532055101"><ele>310.0</ele><time>2026-04-05T14:24:18Z</time></trkpt><trkpt lat="42.81669489444432" lon="13.648230987125327"><ele>309.75</ele><time>2026-04-05T14:24:19Z</time></trkpt><trkpt lat="42.81660502158477" lon="13.648258975603156"><ele>309.5</ele><time>2026-04-05T14:24:20Z</time></trkpt><trkpt lat="42.816517294065484" lon="13.648348039084613"><ele>309.25</ele><time>2026-04-05T14:24:21Z</time></trkpt><trkpt lat="42.81644679456608" lon="13.648494593691012"><ele>309.0</ele><time>2026-04-05T14:24:22Z</time></trkpt><trkpt lat="42.81638011468161" lon="13.648663697854465"><ele>309.0</ele><time>2026-04-05T14:24:23Z</time></trkpt><trkpt lat="42.81629074332207" lon="13.648766270168025"><ele>309.0</ele><time>2026-04-05T14:24:24Z</time></trkpt><trkpt lat="42.81621727350169" lon="13.648827794181289"><ele>309.0</ele><time>2026-04-05T14:24:25Z</time></trkpt><trkpt lat="42.81612589002826" lon="13.648793857212205"><ele>309.0</ele><time>2026-04-05T14:24:26Z</time></trkpt><trkpt lat="42.81605226683977" lon="13.64869310119063"><ele>309.0</ele><time>2026-04-05T14:24:27Z</time></trkpt><trkpt lat="42.81604821840034" lon="13.648530078223127"><ele>309.0</ele><time>2026-04-05T14:24:28Z</time></trkpt><trkpt lat="42.816007180769596" lon="13.648344026662276"><ele>309.0</ele><time>2026-04-05T14:24:29Z</time></trkpt><trkpt lat="42.81600051945868" lon="13.648134541305849"><ele>309.0</ele><time>2026-04-05T14:24:30Z</time></trkpt><trkpt lat="42.81597676032096" lon="13.647905926134941"><ele>314.0</ele><time>2026-04-05T14:24:31Z</time></trkpt><trkpt lat="42.81594254688831" lon="13.647675376547879"><ele>319.0</ele><time>2026-04-05T14:24:32Z</time></trkpt><trkpt lat="42.815923230665526" lon="13.647449221771742"><ele>324.0</ele><time>2026-04-05T14:24:33Z</time></trkpt><trkpt lat="42.815941091218555" lon="13.647229329585759"><ele>324.0</ele><time>2026-04-05T14:24:34Z</time></trkpt><trkpt lat="42.81597790907203" lon="13.64703599871038"><ele>324.0</ele><time>2026-04-05T14:24:35Z</time></trkpt><trkpt lat="42.8160004229882" lon="13.646887848351039"><ele>324.0</ele><time>2026-04-05T14:24:36Z</time></trkpt><trkpt lat="42.815987345291624" lon="13.646780900066545"><ele>324.0</ele><time>2026-04-05T14:24:37Z</time></trkpt><trkpt lat="42.81592455446232" lon="13.646692071571387"><ele>324.0</ele><time>2026-04-05T14:24:38Z</time></trkpt><trkpt lat="42.81581823267172" lon="13.646640223006095"><ele>321.3333333333333</ele><time>2026-04-05T14:24:39Z</time></trkpt><trkpt lat="42.815678008369694" lon="13.646648003220314"><ele>318.66666666666663</ele><time>2026-04-05T14:24:40Z</time></trkpt><trkpt lat="42.81552280172625" lon="13.646672538605253"><ele>316.0</ele><time>2026-04-05T14:24:41Z</time></trkpt><trkpt lat="42.81534458278278" lon="13.64668578407426"><ele>316.0</ele><time>2026-04-05T14:24:42Z</time></trkpt><trkpt lat="42.81516239406093" lon="13.6467027366018"><ele>316.0</ele><time>2026-04-05T14:24:43Z</time></trkpt><trkpt lat="42.81497605868837" lon="13.64672071424655"><ele>316.0</ele><time>2026-04-05T14:24:44Z</time></trkpt><trkpt lat="42.81477976284677" lon="13.646731775222701"><ele>318.0</ele><time>2026-04-05T14:24:45Z</time></trkpt><trkpt lat="42.81457281391188" lon="13.646745374440497"><ele>320.0</ele><time>2026-04-05T14:24:46Z</time></trkpt><trkpt lat="42.81437395807638" lon="13.646754061860861"><ele>322.0</ele><time>2026-04-05T14:24:47Z</time></trkpt><trkpt lat="42.8141910587387" lon="13.646762388690224"><ele>322.25</ele><time>2026-04-05T14:24:48Z</time></trkpt><trkpt lat="42.814036039809935" lon="13.646767432167298"><ele>322.5</ele><time>2026-04-05T14:24:49Z</time></trkpt><trkpt lat="42.81391299017525" lon="13.646778243041183"><ele>322.75</ele><time>2026-04-05T14:24:50Z</time></trkpt><trkpt lat="42.81381148113992" lon="13.646822525721735"><ele>323.0</ele><time>2026-04-05T14:24:51Z</time></trkpt><trkpt lat="42.813733337867255" lon="13.646930177796229"><ele>326.6666666666667</ele><time>2026-04-05T14:24:52Z</time></trkpt><trkpt lat="42.81368835746764" lon="13.647101981827873"><ele>330.3333333333333</ele><time>2026-04-05T14:24:53Z</time></trkpt><trkpt lat="42.81367167108936" lon="13.647318642592392"><ele>334.0</ele><time>2026-04-05T14:24:54Z</time></trkpt><trkpt lat="42.813635560535644" lon="13.647559465071042"><ele>333.3333333333333</ele><time>2026-04-05T14:24:55Z</time></trkpt><trkpt lat="42.81359539208913" lon="13.647816796566726"><ele>332.6666666666667</ele><time>2026-04-05T14:24:56Z</time></trkpt><trkpt lat="42.81355359586212" lon="13.64808703676415"><ele>332.0</ele><time>2026-04-05T14:24:57Z</time></trkpt><trkpt lat="42.81350953232499" lon="13.64835732751124"><ele>331.33333333333337</ele><time>2026-04-05T14:24:58Z</time></trkpt><trkpt lat="42.81346796018513" lon="13.648613237401586"><ele>330.6666666666667</ele><time>2026-04-05T14:24:59Z</time></trkpt><trkpt lat="42.81343440732499" lon="13.648821300911926"><ele>330.0</ele><time>2026-04-05T14:25:00Z</time></trkpt><trkpt lat="42.81339373522764" lon="13.648984676870016"><ele>330.0</ele><time>2026-04-05T14:25:01Z</time></trkpt><trkpt lat="42.81333460056247" lon="13.64911391733746"><ele>330.0</ele><time>2026-04-05T14:25:02Z</time></trkpt><trkpt lat="42.81324531090097" lon="13.649214888616756"><ele>330.0</ele><time>2026-04-05T14:25:03Z</time></trkpt><trkpt lat="42.813121003538704" lon="13.649267334376097"><ele>330.0</ele><time>2026-04-05T14:25:04Z</time></trkpt><trkpt lat="42.81297539633813" lon="13.649267936461307"><ele>330.0</ele><time>2026-04-05T14:25:04.999Z</time></trkpt><trkpt lat="42.812811465572466" lon="13.649244617593602"><ele>330.0</ele><time>2026-04-05T14:25:05.999Z</time></trkpt><trkpt lat="42.81263445430273" lon="13.649225767254727"><ele>330.0</ele><time>2026-04-05T14:25:06.999Z</time></trkpt><trkpt lat="42.812453563682745" lon="13.649184076074892"><ele>331.0</ele><time>2026-04-05T14:25:07.999Z</time></trkpt><trkpt lat="42.81227213098264" lon="13.649156741130078"><ele>332.0</ele><time>2026-04-05T14:25:08.999Z</time></trkpt><trkpt lat="42.81210353636396" lon="13.649135739283048"><ele>333.0</ele><time>2026-04-05T14:25:09.999Z</time></trkpt><trkpt lat="42.81194562254526" lon="13.649110555178622"><ele>332.6666666666667</ele><time>2026-04-05T14:25:10.999Z</time></trkpt><trkpt lat="42.811790345527314" lon="13.649068962403152"><ele>332.33333333333337</ele><time>2026-04-05T14:25:11.999Z</time></trkpt><trkpt lat="42.81163772858461" lon="13.648998784645304"><ele>332.0</ele><time>2026-04-05T14:25:12.999Z</time></trkpt><trkpt lat="42.81149523814727" lon="13.648896850554177"><ele>332.0</ele><time>2026-04-05T14:25:13.999Z</time></trkpt><trkpt lat="42.81137035656679" lon="13.648770378634854"><ele>332.0</ele><time>2026-04-05T14:25:14.999Z</time></trkpt><trkpt lat="42.81125709758608" lon="13.648640540213233"><ele>332.0</ele><time>2026-04-05T14:25:16Z</time></trkpt><trkpt lat="42.811147378085494" lon="13.64852445896481"><ele>332.0</ele><time>2026-04-05T14:25:17Z</time></trkpt><trkpt lat="42.811043165693384" lon="13.648439589702095"><ele>334.25</ele><time>2026-04-05T14:25:18Z</time></trkpt><trkpt lat="42.81093965365032" lon="13.648395042965127"><ele>336.5</ele><time>2026-04-05T14:25:19Z</time></trkpt><trkpt lat="42.810822712707335" lon="13.648411815757292"><ele>338.75</ele><time>2026-04-05T14:25:20Z</time></trkpt><trkpt lat="42.810700912432594" lon="13.64849667154914"><ele>341.0</ele><time>2026-04-05T14:25:21Z</time></trkpt><trkpt lat="42.8105999783209" lon="13.64859046240557"><ele>341.0</ele><time>2026-04-05T14:25:22Z</time></trkpt><trkpt lat="42.810498970499665" lon="13.648602756444213"><ele>341.0</ele><time>2026-04-05T14:25:23Z</time></trkpt><trkpt lat="42.810358265748015" lon="13.648554237331803"><ele>341.0</ele><time>2026-04-05T14:25:24Z</time></trkpt><trkpt lat="42.81021976736581" lon="13.648501872344232"><ele>341.0</ele><time>2026-04-05T14:25:25Z</time></trkpt><trkpt lat="42.81009905280287" lon="13.648388209251625"><ele>340.0</ele><time>2026-04-05T14:25:26Z</time></trkpt><trkpt lat="42.80999246866952" lon="13.648249117165511"><ele>339.0</ele><time>2026-04-05T14:25:27Z</time></trkpt><trkpt lat="42.809905546551555" lon="13.648119238993754"><ele>338.0</ele><time>2026-04-05T14:25:28Z</time></trkpt><trkpt lat="42.8098133175878" lon="13.648036698506314"><ele>337.0</ele><time>2026-04-05T14:25:29Z</time></trkpt><trkpt lat="42.80970899798183" lon="13.648003857618544"><ele>337.0</ele><time>2026-04-05T14:25:30Z</time></trkpt><trkpt lat="42.80960038870575" lon="13.648016774912364"><ele>337.0</ele><time>2026-04-05T14:25:31Z</time></trkpt><trkpt lat="42.809486252636994" lon="13.648082820906414"><ele>337.0</ele><time>2026-04-05T14:25:32Z</time></trkpt><trkpt lat="42.809388442187625" lon="13.648198005102445"><ele>337.0</ele><time>2026-04-05T14:25:33Z</time></trkpt><trkpt lat="42.809319828772054" lon="13.648349551665346"><ele>337.75</ele><time>2026-04-05T14:25:34Z</time></trkpt><trkpt lat="42.80928980086326" lon="13.648524936431539"><ele>338.5</ele><time>2026-04-05T14:25:35Z</time></trkpt><trkpt lat="42.80927680765234" lon="13.648697766619334"><ele>339.25</ele><time>2026-04-05T14:25:36Z</time></trkpt><trkpt lat="42.80937398479128" lon="13.64887220686751"><ele>340.0</ele><time>2026-04-05T14:25:37Z</time></trkpt><trkpt lat="42.8094680574074" lon="13.649041468202828"><ele>340.0</ele><time>2026-04-05T14:25:38Z</time></trkpt><trkpt lat="42.80957038683822" lon="13.649175232705424"><ele>340.0</ele><time>2026-04-05T14:25:39Z</time></trkpt><trkpt lat="42.809649104552356" lon="13.649301705816912"><ele>340.0</ele><time>2026-04-05T14:25:40Z</time></trkpt><trkpt lat="42.80969433689266" lon="13.64948857204099"><ele>340.0</ele><time>2026-04-05T14:25:41Z</time></trkpt><trkpt lat="42.80970517952165" lon="13.649644204272235"><ele>338.5</ele><time>2026-04-05T14:25:42Z</time></trkpt><trkpt lat="42.80966908245816" lon="13.649777273426068"><ele>337.0</ele><time>2026-04-05T14:25:43Z</time></trkpt><trkpt lat="42.80959221683522" lon="13.64983889971086"><ele>335.5</ele><time>2026-04-05T14:25:44Z</time></trkpt><trkpt lat="42.80948544715724" lon="13.649897523283077"><ele>334.0</ele><time>2026-04-05T14:25:45Z</time></trkpt><trkpt lat="42.809348042435886" lon="13.649965013570773"><ele>336.5</ele><time>2026-04-05T14:25:46Z</time></trkpt><trkpt lat="42.809197391969875" lon="13.650017381476165"><ele>339.0</ele><time>2026-04-05T14:25:47Z</time></trkpt><trkpt lat="42.809050174790734" lon="13.650034325135945"><ele>341.5</ele><time>2026-04-05T14:25:48Z</time></trkpt><trkpt lat="42.80890625083117" lon="13.650000455322344"><ele>344.0</ele><time>2026-04-05T14:25:49Z</time></trkpt><trkpt lat="42.808772374327575" lon="13.649930661499372"><ele>344.0</ele><time>2026-04-05T14:25:50Z</time></trkpt><trkpt lat="42.80866334694173" lon="13.649806211622773"><ele>344.0</ele><time>2026-04-05T14:25:51Z</time></trkpt><trkpt lat="42.8085458516845" lon="13.649671059460443"><ele>344.0</ele><time>2026-04-05T14:25:52Z</time></trkpt><trkpt lat="42.80840889873093" lon="13.649534009533975"><ele>349.0</ele><time>2026-04-05T14:25:53Z</time></trkpt><trkpt lat="42.80827857421115" lon="13.64938271818707"><ele>354.0</ele><time>2026-04-05T14:25:54Z</time></trkpt><trkpt lat="42.8081498090176" lon="13.649228804554793"><ele>359.0</ele><time>2026-04-05T14:25:55Z</time></trkpt><trkpt lat="42.808016954442266" lon="13.649064621803841"><ele>359.0</ele><time>2026-04-05T14:25:56Z</time></trkpt><trkpt lat="42.80787603847066" lon="13.648899565017114"><ele>359.0</ele><time>2026-04-05T14:25:57Z</time></trkpt><trkpt lat="42.80773891262422" lon="13.648732839313343"><ele>359.0</ele><time>2026-04-05T14:25:58Z</time></trkpt><trkpt lat="42.80761187204504" lon="13.648581474575074"><ele>360.0</ele><time>2026-04-05T14:25:59Z</time></trkpt><trkpt lat="42.807499830199774" lon="13.648449211874414"><ele>361.0</ele><time>2026-04-05T14:26:00Z</time></trkpt><trkpt lat="42.80739855575298" lon="13.648331428507554"><ele>362.0</ele><time>2026-04-05T14:26:01Z</time></trkpt><trkpt lat="42.80730997365368" lon="13.648226475193315"><ele>363.0</ele><time>2026-04-05T14:26:02Z</time></trkpt><trkpt lat="42.80723488214727" lon="13.648143472174372"><ele>363.0</ele><time>2026-04-05T14:26:03Z</time></trkpt><trkpt lat="42.80714277957148" lon="13.64811259185257"><ele>363.0</ele><time>2026-04-05T14:26:04Z</time></trkpt><trkpt lat="42.807039708901875" lon="13.648105373918652"><ele>363.0</ele><time>2026-04-05T14:26:05Z</time></trkpt><trkpt lat="42.80690571742624" lon="13.647947497000546"><ele>363.0</ele><time>2026-04-05T14:26:07Z</time></trkpt><trkpt lat="42.80683068372875" lon="13.647909004538096"><ele>365.0</ele><time>2026-04-05T14:26:08Z</time></trkpt><trkpt lat="42.80671673485461" lon="13.647897494492554"><ele>367.0</ele><time>2026-04-05T14:26:10Z</time></trkpt><trkpt lat="42.80664420594792" lon="13.647904174665138"><ele>369.0</ele><time>2026-04-05T14:26:11Z</time></trkpt><trkpt lat="42.80656346001702" lon="13.647916591116898"><ele>371.0</ele><time>2026-04-05T14:26:12Z</time></trkpt><trkpt lat="42.80648250240967" lon="13.647971550434177"><ele>373.0</ele><time>2026-04-05T14:26:13Z</time></trkpt><trkpt lat="42.80640778051127" lon="13.648056441735543"><ele>373.0</ele><time>2026-04-05T14:26:14Z</time></trkpt><trkpt lat="42.80632262183325" lon="13.648145671849253"><ele>373.0</ele><time>2026-04-05T14:26:15Z</time></trkpt><trkpt lat="42.806253603228924" lon="13.648249879810525"><ele>373.0</ele><time>2026-04-05T14:26:16Z</time></trkpt><trkpt lat="42.80617992658356" lon="13.648361795090848"><ele>373.0</ele><time>2026-04-05T14:26:17Z</time></trkpt><trkpt lat="42.806106932494174" lon="13.648470943369317"><ele>373.0</ele><time>2026-04-05T14:26:18Z</time></trkpt><trkpt lat="42.80603893178794" lon="13.648568456298165"><ele>375.4</ele><time>2026-04-05T14:26:19Z</time></trkpt><trkpt lat="42.805978018640474" lon="13.648654897426132"><ele>377.79999999999995</ele><time>2026-04-05T14:26:20Z</time></trkpt><trkpt lat="42.805915834850275" lon="13.648742593298357"><ele>380.2</ele><time>2026-04-05T14:26:21Z</time></trkpt><trkpt lat="42.805845504652304" lon="13.648840689681382"><ele>382.6</ele><time>2026-04-05T14:26:22Z</time></trkpt><trkpt lat="42.80576256694695" lon="13.648954191926762"><ele>385.0</ele><time>2026-04-05T14:26:23Z</time></trkpt><trkpt lat="42.80567541185194" lon="13.649070093528097"><ele>385.0</ele><time>2026-04-05T14:26:24Z</time></trkpt><trkpt lat="42.805590311859596" lon="13.649179097925046"><ele>385.0</ele><time>2026-04-05T14:26:25Z</time></trkpt><trkpt lat="42.80550588853494" lon="13.64928503254327"><ele>385.0</ele><time>2026-04-05T14:26:26Z</time></trkpt><trkpt lat="42.805425637455905" lon="13.649385731819097"><ele>385.0</ele><time>2026-04-05T14:26:27Z</time></trkpt><trkpt lat="42.80536318271402" lon="13.649489898421953"><ele>385.0</ele><time>2026-04-05T14:26:28Z</time></trkpt><trkpt lat="42.80529545096568" lon="13.649562644167489"><ele>384.6666666666667</ele><time>2026-04-05T14:26:29Z</time></trkpt><trkpt lat="42.8052506559525" lon="13.649639690374059"><ele>384.33333333333337</ele><time>2026-04-05T14:26:30Z</time></trkpt><trkpt lat="42.805201876796566" lon="13.64969706397212"><ele>384.0</ele><time>2026-04-05T14:26:31Z</time></trkpt><trkpt lat="42.80516257321393" lon="13.649764408966552"><ele>383.6666666666667</ele><time>2026-04-05T14:26:32Z</time></trkpt><trkpt lat="42.805106027595414" lon="13.649889022483483"><ele>383.33333333333337</ele><time>2026-04-05T14:26:34Z</time></trkpt><trkpt lat="42.80502391624196" lon="13.649895220130572"><ele>383.0</ele><time>2026-04-05T14:26:36Z</time></trkpt><trkpt lat="42.80491697237256" lon="13.649791019011223"><ele>384.2</ele><time>2026-04-05T14:26:38Z</time></trkpt><trkpt lat="42.80484034200618" lon="13.649718282509118"><ele>385.4</ele><time>2026-04-05T14:26:39Z</time></trkpt><trkpt lat="42.804764837384084" lon="13.649648178710764"><ele>386.59999999999997</ele><time>2026-04-05T14:26:40Z</time></trkpt><trkpt lat="42.804685230728936" lon="13.649574314685847"><ele>387.79999999999995</ele><time>2026-04-05T14:26:41Z</time></trkpt><trkpt lat="42.80459828262409" lon="13.6494889573717"><ele>389.0</ele><time>2026-04-05T14:26:42Z</time></trkpt><trkpt lat="42.80450725334826" lon="13.64939377055945"><ele>389.5</ele><time>2026-04-05T14:26:43Z</time></trkpt><trkpt lat="42.804413151532195" lon="13.649282689767368"><ele>390.0</ele><time>2026-04-05T14:26:44Z</time></trkpt><trkpt lat="42.804322823633456" lon="13.649149659624317"><ele>390.5</ele><time>2026-04-05T14:26:45Z</time></trkpt><trkpt lat="42.80423609783457" lon="13.648996826348613"><ele>391.0</ele><time>2026-04-05T14:26:46Z</time></trkpt><trkpt lat="42.804152451277304" lon="13.64883495104"><ele>391.0</ele><time>2026-04-05T14:26:47Z</time></trkpt><trkpt lat="42.80407284536903" lon="13.6486702016539"><ele>391.0</ele><time>2026-04-05T14:26:48Z</time></trkpt><trkpt lat="42.803985223709255" lon="13.648489817034296"><ele>391.0</ele><time>2026-04-05T14:26:49Z</time></trkpt><trkpt lat="42.8039000807275" lon="13.648297900884533"><ele>394.0</ele><time>2026-04-05T14:26:50Z</time></trkpt><trkpt lat="42.80381324624635" lon="13.648115220159154"><ele>397.0</ele><time>2026-04-05T14:26:51Z</time></trkpt><trkpt lat="42.80369600985848" lon="13.647924718963175"><ele>400.0</ele><time>2026-04-05T14:26:52Z</time></trkpt><trkpt lat="42.80357420055453" lon="13.647749405965195"><ele>399.33333333333337</ele><time>2026-04-05T14:26:53Z</time></trkpt><trkpt lat="42.80344981172749" lon="13.64758599827574"><ele>398.66666666666663</ele><time>2026-04-05T14:26:54Z</time></trkpt><trkpt lat="42.803326802817914" lon="13.647422675961627"><ele>398.0</ele><time>2026-04-05T14:26:55Z</time></trkpt><trkpt lat="42.80320644047446" lon="13.647261457720107"><ele>398.0</ele><time>2026-04-05T14:26:56Z</time></trkpt><trkpt lat="42.80308320476084" lon="13.647096436898867"><ele>398.0</ele><time>2026-04-05T14:26:57Z</time></trkpt><trkpt lat="42.80295815749595" lon="13.646927475695867"><ele>398.0</ele><time>2026-04-05T14:26:58Z</time></trkpt><trkpt lat="42.80283364765967" lon="13.64675924122691"><ele>398.0</ele><time>2026-04-05T14:26:59Z</time></trkpt><trkpt lat="42.802709355043014" lon="13.646591700120645"><ele>398.0</ele><time>2026-04-05T14:27:00Z</time></trkpt><trkpt lat="42.80258320750335" lon="13.646419093402686"><ele>398.0</ele><time>2026-04-05T14:27:01Z</time></trkpt><trkpt lat="42.80245583581105" lon="13.646247423500999"><ele>397.3333333333333</ele><time>2026-04-05T14:27:02Z</time></trkpt><trkpt lat="42.80232720313537" lon="13.646066056454398"><ele>396.66666666666663</ele><time>2026-04-05T14:27:03Z</time></trkpt><trkpt lat="42.80219336220529" lon="13.645880559894305"><ele>396.0</ele><time>2026-04-05T14:27:04Z</time></trkpt><trkpt lat="42.802054205164126" lon="13.645690845300756"><ele>396.0</ele><time>2026-04-05T14:27:05Z</time></trkpt><trkpt lat="42.80191285005613" lon="13.645497705272483"><ele>396.0</ele><time>2026-04-05T14:27:06Z</time></trkpt><trkpt lat="42.80177208545083" lon="13.645302863556955"><ele>396.0</ele><time>2026-04-05T14:27:07Z</time></trkpt><trkpt lat="42.801631370142616" lon="13.645109473585046"><ele>397.0</ele><time>2026-04-05T14:27:08Z</time></trkpt><trkpt lat="42.80148822866211" lon="13.644911100238247"><ele>398.0</ele><time>2026-04-05T14:27:09Z</time></trkpt><trkpt lat="42.80134463453375" lon="13.644717676292236"><ele>399.0</ele><time>2026-04-05T14:27:10Z</time></trkpt><trkpt lat="42.801201329135274" lon="13.644523737155595"><ele>399.66666666666663</ele><time>2026-04-05T14:27:11Z</time></trkpt><trkpt lat="42.80105600387699" lon="13.644329220540756"><ele>400.3333333333333</ele><time>2026-04-05T14:27:12Z</time></trkpt><trkpt lat="42.80091218177059" lon="13.644133925724143"><ele>401.0</ele><time>2026-04-05T14:27:13Z</time></trkpt><trkpt lat="42.80076891145803" lon="13.64393512254581"><ele>401.3333333333333</ele><time>2026-04-05T14:27:14Z</time></trkpt><trkpt lat="42.80062556155254" lon="13.643735559124282"><ele>401.66666666666663</ele><time>2026-04-05T14:27:15Z</time></trkpt><trkpt lat="42.80047880391768" lon="13.643533788980225"><ele>402.0</ele><time>2026-04-05T14:27:16Z</time></trkpt><trkpt lat="42.80033273337387" lon="13.64333297576936"><ele>402.66666666666663</ele><time>2026-04-05T14:27:17Z</time></trkpt><trkpt lat="42.80018562469119" lon="13.643135489152733"><ele>403.3333333333333</ele><time>2026-04-05T14:27:18Z</time></trkpt><trkpt lat="42.80003431322594" lon="13.642948081427678"><ele>404.0</ele><time>2026-04-05T14:27:19Z</time></trkpt><trkpt lat="42.79987213448556" lon="13.642784837293506"><ele>405.66666666666663</ele><time>2026-04-05T14:27:20Z</time></trkpt><trkpt lat="42.7997026086823" lon="13.64264200619054"><ele>407.33333333333337</ele><time>2026-04-05T14:27:21Z</time></trkpt><trkpt lat="42.79952985711094" lon="13.642510558954113"><ele>409.0</ele><time>2026-04-05T14:27:22Z</time></trkpt><trkpt lat="42.799358862205246" lon="13.6423926590811"><ele>409.33333333333337</ele><time>2026-04-05T14:27:23Z</time></trkpt><trkpt lat="42.79918040776172" lon="13.642299203295064"><ele>409.66666666666663</ele><time>2026-04-05T14:27:24Z</time></trkpt><trkpt lat="42.798990810115264" lon="13.642228632614298"><ele>410.0</ele><time>2026-04-05T14:27:25Z</time></trkpt><trkpt lat="42.79879157436392" lon="13.642174673435841"><ele>410.0</ele><time>2026-04-05T14:27:26Z</time></trkpt><trkpt lat="42.79859782901138" lon="13.642124127566829"><ele>410.0</ele><time>2026-04-05T14:27:27Z</time></trkpt><trkpt lat="42.79841766720473" lon="13.64207654560117"><ele>410.0</ele><time>2026-04-05T14:27:28Z</time></trkpt><trkpt lat="42.79825838183051" lon="13.642035309729966"><ele>409.5</ele><time>2026-04-05T14:27:29Z</time></trkpt><trkpt lat="42.7981237570477" lon="13.641991735650738"><ele>409.0</ele><time>2026-04-05T14:27:30Z</time></trkpt><trkpt lat="42.79800153443443" lon="13.641928806669284"><ele>408.5</ele><time>2026-04-05T14:27:31Z</time></trkpt><trkpt lat="42.797897601948954" lon="13.64182172325017"><ele>408.0</ele><time>2026-04-05T14:27:32Z</time></trkpt><trkpt lat="42.79783805759142" lon="13.641650086746374"><ele>410.0</ele><time>2026-04-05T14:27:33Z</time></trkpt><trkpt lat="42.7977806911525" lon="13.641467444176213"><ele>412.0</ele><time>2026-04-05T14:27:34Z</time></trkpt><trkpt lat="42.79771747411245" lon="13.641295779006665"><ele>414.0</ele><time>2026-04-05T14:27:35Z</time></trkpt><trkpt lat="42.79763919634624" lon="13.641132081559267"><ele>416.0</ele><time>2026-04-05T14:27:36Z</time></trkpt><trkpt lat="42.79753104013607" lon="13.640989569960972"><ele>417.66666666666663</ele><time>2026-04-05T14:27:37Z</time></trkpt><trkpt lat="42.7974008942637" lon="13.640854182647937"><ele>419.33333333333337</ele><time>2026-04-05T14:27:38Z</time></trkpt><trkpt lat="42.79726291399714" lon="13.64072150146858"><ele>421.0</ele><time>2026-04-05T14:27:39Z</time></trkpt><trkpt lat="42.79712272120464" lon="13.64058804976928"><ele>421.0</ele><time>2026-04-05T14:27:40Z</time></trkpt><trkpt lat="42.79698510021543" lon="13.640457104664087"><ele>421.0</ele><time>2026-04-05T14:27:41Z</time></trkpt><trkpt lat="42.79685355180008" lon="13.640331423091222"><ele>421.0</ele><time>2026-04-05T14:27:42Z</time></trkpt><trkpt lat="42.796734193890344" lon="13.640206971062174"><ele>420.75</ele><time>2026-04-05T14:27:43Z</time></trkpt><trkpt lat="42.7966287080817" lon="13.640069227827775"><ele>420.5</ele><time>2026-04-05T14:27:44Z</time></trkpt><trkpt lat="42.79656355835969" lon="13.639894702180074"><ele>420.25</ele><time>2026-04-05T14:27:45Z</time></trkpt><trkpt lat="42.79647947114447" lon="13.639742122999557"><ele>420.0</ele><time>2026-04-05T14:27:46Z</time></trkpt><trkpt lat="42.79641600591986" lon="13.639583768692221"><ele>421.75</ele><time>2026-04-05T14:27:47Z</time></trkpt><trkpt lat="42.796349280325686" lon="13.639449481113122"><ele>423.5</ele><time>2026-04-05T14:27:48Z</time></trkpt><trkpt lat="42.79628367190551" lon="13.639335817054615"><ele>425.25</ele><time>2026-04-05T14:27:49Z</time></trkpt><trkpt lat="42.79622663383328" lon="13.639213226426321"><ele>427.0</ele><time>2026-04-05T14:27:50Z</time></trkpt><trkpt lat="42.79620083186335" lon="13.639056443015749"><ele>427.0</ele><time>2026-04-05T14:27:51Z</time></trkpt><trkpt lat="42.79613669700849" lon="13.638890215660007"><ele>427.0</ele><time>2026-04-05T14:27:52Z</time></trkpt><trkpt lat="42.79602444749108" lon="13.638508735627221"><ele>427.0</ele><time>2026-04-05T14:27:54Z</time></trkpt><trkpt lat="42.79595353251409" lon="13.638300846362105"><ele>425.33333333333337</ele><time>2026-04-05T14:27:55Z</time></trkpt><trkpt lat="42.79588092554167" lon="13.638079250171167"><ele>423.66666666666663</ele><time>2026-04-05T14:27:56Z</time></trkpt><trkpt lat="42.795805308844976" lon="13.637843714120105"><ele>422.0</ele><time>2026-04-05T14:27:57Z</time></trkpt><trkpt lat="42.7957286675376" lon="13.637604867967138"><ele>426.0</ele><time>2026-04-05T14:27:58Z</time></trkpt><trkpt lat="42.79565076213753" lon="13.637374809225753"><ele>430.0</ele><time>2026-04-05T14:27:59Z</time></trkpt><trkpt lat="42.79556656974801" lon="13.637166379754959"><ele>434.0</ele><time>2026-04-05T14:28:00Z</time></trkpt><trkpt lat="42.79546725140178" lon="13.636997055162151"><ele>433.0</ele><time>2026-04-05T14:28:01Z</time></trkpt><trkpt lat="42.79535193288463" lon="13.636856503099533"><ele>432.0</ele><time>2026-04-05T14:28:02Z</time></trkpt><trkpt lat="42.79524767151539" lon="13.636714446407677"><ele>431.0</ele><time>2026-04-05T14:28:03Z</time></trkpt><trkpt lat="42.79519252124078" lon="13.636538423782186"><ele>430.0</ele><time>2026-04-05T14:28:04Z</time></trkpt><trkpt lat="42.79514216629419" lon="13.636358302214283"><ele>430.0</ele><time>2026-04-05T14:28:05Z</time></trkpt><trkpt lat="42.79511191615946" lon="13.636149004127907"><ele>430.0</ele><time>2026-04-05T14:28:06Z</time></trkpt><trkpt lat="42.79509657478883" lon="13.635918944974314"><ele>430.0</ele><time>2026-04-05T14:28:07Z</time></trkpt><trkpt lat="42.79508427259861" lon="13.635679882489555"><ele>432.6666666666667</ele><time>2026-04-05T14:28:08Z</time></trkpt><trkpt lat="42.79507773979904" lon="13.635435411307586"><ele>435.33333333333337</ele><time>2026-04-05T14:28:09Z</time></trkpt><trkpt lat="42.795081933661095" lon="13.63518089039094"><ele>438.0</ele><time>2026-04-05T14:28:10Z</time></trkpt><trkpt lat="42.795084182048505" lon="13.634920781220668"><ele>439.66666666666663</ele><time>2026-04-05T14:28:11Z</time></trkpt><trkpt lat="42.795077719660796" lon="13.634638215204202"><ele>441.3333333333333</ele><time>2026-04-05T14:28:12Z</time></trkpt><trkpt lat="42.7950699984342" lon="13.63435492749901"><ele>443.0</ele><time>2026-04-05T14:28:13Z</time></trkpt><trkpt lat="42.79506702422806" lon="13.634100329268566"><ele>445.0</ele><time>2026-04-05T14:28:14Z</time></trkpt><trkpt lat="42.79507387628167" lon="13.633882314163653"><ele>447.0</ele><time>2026-04-05T14:28:15Z</time></trkpt><trkpt lat="42.79510160666552" lon="13.63369543826539"><ele>449.0</ele><time>2026-04-05T14:28:16Z</time></trkpt><trkpt lat="42.795176374184344" lon="13.633523759616084"><ele>451.0</ele><time>2026-04-05T14:28:17Z</time></trkpt><trkpt lat="42.79525035916686" lon="13.633331537386931"><ele>455.6666666666667</ele><time>2026-04-05T14:28:18Z</time></trkpt><trkpt lat="42.795340892478414" lon="13.633143605913649"><ele>460.33333333333337</ele><time>2026-04-05T14:28:19Z</time></trkpt><trkpt lat="42.79540748573928" lon="13.632948807968003"><ele>465.0</ele><time>2026-04-05T14:28:20Z</time></trkpt><trkpt lat="42.79544378509761" lon="13.63274325802125"><ele>466.66666666666663</ele><time>2026-04-05T14:28:21Z</time></trkpt><trkpt lat="42.79544231961903" lon="13.632528717637618"><ele>468.3333333333333</ele><time>2026-04-05T14:28:22Z</time></trkpt><trkpt lat="42.795404005812536" lon="13.632298487888091"><ele>470.0</ele><time>2026-04-05T14:28:23Z</time></trkpt><trkpt lat="42.79535590938268" lon="13.63207121489298"><ele>467.66666666666663</ele><time>2026-04-05T14:28:24Z</time></trkpt><trkpt lat="42.795302967139854" lon="13.631865420073796"><ele>465.33333333333337</ele><time>2026-04-05T14:28:25Z</time></trkpt><trkpt lat="42.79523994080426" lon="13.631680208455327"><ele>463.0</ele><time>2026-04-05T14:28:26Z</time></trkpt><trkpt lat="42.795164731619884" lon="13.63151965123343"><ele>463.0</ele><time>2026-04-05T14:28:27Z</time></trkpt><trkpt lat="42.79508178941094" lon="13.63138420295229"><ele>462.99999999999994</ele><time>2026-04-05T14:28:28Z</time></trkpt><trkpt lat="42.795006789374696" lon="13.63126542408508"><ele>462.99999999999994</ele><time>2026-04-05T14:28:29Z</time></trkpt><trkpt lat="42.79494082907014" lon="13.631157395682475"><ele>463.0</ele><time>2026-04-05T14:28:30Z</time></trkpt><trkpt lat="42.79488863282119" lon="13.631049780765409"><ele>463.0</ele><time>2026-04-05T14:28:31Z</time></trkpt><trkpt lat="42.79484659010737" lon="13.63093252060884"><ele>465.2</ele><time>2026-04-05T14:28:32Z</time></trkpt><trkpt lat="42.794811728956276" lon="13.630798117288956"><ele>467.4</ele><time>2026-04-05T14:28:33Z</time></trkpt><trkpt lat="42.79478366634407" lon="13.630670860747264"><ele>469.59999999999997</ele><time>2026-04-05T14:28:34Z</time></trkpt><trkpt lat="42.794778829070204" lon="13.630547896416516"><ele>471.79999999999995</ele><time>2026-04-05T14:28:35Z</time></trkpt><trkpt lat="42.79477729826213" lon="13.630455111058073"><ele>474.0</ele><time>2026-04-05T14:28:36Z</time></trkpt><trkpt lat="42.794854339894876" lon="13.630369100187906"><ele>474.0</ele><time>2026-04-05T14:28:38Z</time></trkpt><trkpt lat="42.794958733059765" lon="13.630482866274445"><ele>474.0</ele><time>2026-04-05T14:28:40Z</time></trkpt><trkpt lat="42.79499490530553" lon="13.630611061939518"><ele>474.0</ele><time>2026-04-05T14:28:41Z</time></trkpt><trkpt lat="42.79503727877953" lon="13.630734003205633"><ele>474.0</ele><time>2026-04-05T14:28:42Z</time></trkpt><trkpt lat="42.79512222815347" lon="13.630863035294368"><ele>476.25</ele><time>2026-04-05T14:28:43Z</time></trkpt><trkpt lat="42.79523425914478" lon="13.6309700229924"><ele>478.5</ele><time>2026-04-05T14:28:44Z</time></trkpt><trkpt lat="42.79537247391541" lon="13.631048273045051"><ele>480.75</ele><time>2026-04-05T14:28:45Z</time></trkpt><trkpt lat="42.79551021456231" lon="13.631141550670984"><ele>483.0</ele><time>2026-04-05T14:28:46Z</time></trkpt><trkpt lat="42.795639367411326" lon="13.63128054708665"><ele>483.0</ele><time>2026-04-05T14:28:47Z</time></trkpt><trkpt lat="42.79576680909481" lon="13.63144099792624"><ele>483.0</ele><time>2026-04-05T14:28:48Z</time></trkpt><trkpt lat="42.79589479571909" lon="13.631593605390277"><ele>483.0</ele><time>2026-04-05T14:28:49Z</time></trkpt><trkpt lat="42.796000733366995" lon="13.6317561366538"><ele>483.75</ele><time>2026-04-05T14:28:50Z</time></trkpt><trkpt lat="42.796099885577604" lon="13.63189810263665"><ele>484.5</ele><time>2026-04-05T14:28:51Z</time></trkpt><trkpt lat="42.79618533801133" lon="13.632012810100777"><ele>485.25</ele><time>2026-04-05T14:28:52Z</time></trkpt><trkpt lat="42.79628139888364" lon="13.632090307667498"><ele>486.0</ele><time>2026-04-05T14:28:53Z</time></trkpt><trkpt lat="42.79639228640519" lon="13.632122447787781"><ele>486.0</ele><time>2026-04-05T14:28:54Z</time></trkpt><trkpt lat="42.796501409741204" lon="13.632110219131603"><ele>486.0</ele><time>2026-04-05T14:28:55Z</time></trkpt><trkpt lat="42.796618940935055" lon="13.632061917627981"><ele>486.0</ele><time>2026-04-05T14:28:56Z</time></trkpt><trkpt lat="42.796734238003026" lon="13.631987064955759"><ele>486.0</ele><time>2026-04-05T14:28:57Z</time></trkpt><trkpt lat="42.79683844465314" lon="13.631862757606264"><ele>485.5</ele><time>2026-04-05T14:28:58Z</time></trkpt><trkpt lat="42.796933921526744" lon="13.631728131503321"><ele>485.0</ele><time>2026-04-05T14:28:59Z</time></trkpt><trkpt lat="42.797006087599996" lon="13.631570087869747"><ele>484.5</ele><time>2026-04-05T14:29:00Z</time></trkpt><trkpt lat="42.79704767019587" lon="13.631392987927207"><ele>484.0</ele><time>2026-04-05T14:29:01Z</time></trkpt><trkpt lat="42.79705452790263" lon="13.63120704000776"><ele>483.25</ele><time>2026-04-05T14:29:02Z</time></trkpt><trkpt lat="42.797026624909286" lon="13.631028282397367"><ele>482.5</ele><time>2026-04-05T14:29:03Z</time></trkpt><trkpt lat="42.79695966932626" lon="13.630854749775864"><ele>481.75</ele><time>2026-04-05T14:29:04Z</time></trkpt><trkpt lat="42.796864992445" lon="13.630671779607935"><ele>481.0</ele><time>2026-04-05T14:29:05Z</time></trkpt><trkpt lat="42.79676277096247" lon="13.630485692926623"><ele>483.6666666666667</ele><time>2026-04-05T14:29:06Z</time></trkpt><trkpt lat="42.79666682447675" lon="13.630304382303102"><ele>486.33333333333337</ele><time>2026-04-05T14:29:07Z</time></trkpt><trkpt lat="42.796567546190815" lon="13.630114624009614"><ele>489.0</ele><time>2026-04-05T14:29:08Z</time></trkpt><trkpt lat="42.79646276188721" lon="13.629914869948829"><ele>489.0</ele><time>2026-04-05T14:29:09Z</time></trkpt><trkpt lat="42.79635871695864" lon="13.629705128361444"><ele>489.0</ele><time>2026-04-05T14:29:10Z</time></trkpt><trkpt lat="42.79625538974136" lon="13.629491112822944"><ele>489.0</ele><time>2026-04-05T14:29:11Z</time></trkpt><trkpt lat="42.796147525033035" lon="13.629277341433726"><ele>489.0</ele><time>2026-04-05T14:29:12Z</time></trkpt><trkpt lat="42.796040327993566" lon="13.629067526043363"><ele>489.0</ele><time>2026-04-05T14:29:13Z</time></trkpt><trkpt lat="42.79593443976732" lon="13.628862406297404"><ele>489.0</ele><time>2026-04-05T14:29:14Z</time></trkpt><trkpt lat="42.79583355872595" lon="13.628664216365724"><ele>493.0</ele><time>2026-04-05T14:29:15Z</time></trkpt><trkpt lat="42.795765666544774" lon="13.62845831572974"><ele>497.0</ele><time>2026-04-05T14:29:16Z</time></trkpt><trkpt lat="42.7957121482329" lon="13.628256412475759"><ele>501.0</ele><time>2026-04-05T14:29:17Z</time></trkpt><trkpt lat="42.79569892295489" lon="13.628046736032339"><ele>501.0</ele><time>2026-04-05T14:29:18Z</time></trkpt><trkpt lat="42.79570306941703" lon="13.627826329528148"><ele>501.0</ele><time>2026-04-05T14:29:19Z</time></trkpt><trkpt lat="42.79571959314706" lon="13.627595325972653"><ele>501.0</ele><time>2026-04-05T14:29:20Z</time></trkpt><trkpt lat="42.79573089879151" lon="13.627352547618"><ele>503.0</ele><time>2026-04-05T14:29:21Z</time></trkpt><trkpt lat="42.79575251084771" lon="13.627110170823048"><ele>505.0</ele><time>2026-04-05T14:29:22Z</time></trkpt><trkpt lat="42.79576999240713" lon="13.62687837722642"><ele>507.0</ele><time>2026-04-05T14:29:23Z</time></trkpt><trkpt lat="42.79578104668044" lon="13.626677293384393"><ele>508.75</ele><time>2026-04-05T14:29:24Z</time></trkpt><trkpt lat="42.795783425218175" lon="13.626496033906056"><ele>510.5</ele><time>2026-04-05T14:29:25Z</time></trkpt><trkpt lat="42.79577464820436" lon="13.626329568843307"><ele>512.25</ele><time>2026-04-05T14:29:26Z</time></trkpt><trkpt lat="42.79574642052057" lon="13.626168897747986"><ele>514.0</ele><time>2026-04-05T14:29:27Z</time></trkpt><trkpt lat="42.79569092056529" lon="13.626015009376571"><ele>514.0</ele><time>2026-04-05T14:29:28Z</time></trkpt><trkpt lat="42.79560622916194" lon="13.625872482160247"><ele>514.0</ele><time>2026-04-05T14:29:29Z</time></trkpt><trkpt lat="42.79549858632225" lon="13.62572290946715"><ele>514.0</ele><time>2026-04-05T14:29:30Z</time></trkpt><trkpt lat="42.79538176028737" lon="13.625572794994856"><ele>514.0</ele><time>2026-04-05T14:29:31Z</time></trkpt><trkpt lat="42.795266071775195" lon="13.62541793353098"><ele>517.3333333333334</ele><time>2026-04-05T14:29:32Z</time></trkpt><trkpt lat="42.79515233354583" lon="13.625260469341546"><ele>520.6666666666666</ele><time>2026-04-05T14:29:33Z</time></trkpt><trkpt lat="42.795034574263596" lon="13.62509280382996"><ele>524.0</ele><time>2026-04-05T14:29:34Z</time></trkpt><trkpt lat="42.794922194887" lon="13.624914513694751"><ele>524.0</ele><time>2026-04-05T14:29:35Z</time></trkpt><trkpt lat="42.79482180477416" lon="13.624738591064036"><ele>524.0</ele><time>2026-04-05T14:29:36Z</time></trkpt><trkpt lat="42.79473691966435" lon="13.624576195034749"><ele>524.0</ele><time>2026-04-05T14:29:37Z</time></trkpt><trkpt lat="42.79466869519964" lon="13.624429834054967"><ele>524.0</ele><time>2026-04-05T14:29:38Z</time></trkpt><trkpt lat="42.79464067419286" lon="13.624296998046416"><ele>524.1666666666666</ele><time>2026-04-05T14:29:39Z</time></trkpt><trkpt lat="42.79462621346593" lon="13.624196462043749"><ele>524.3333333333333</ele><time>2026-04-05T14:29:40Z</time></trkpt><trkpt lat="42.79470177653605" lon="13.62404678823537"><ele>524.5</ele><time>2026-04-05T14:29:42Z</time></trkpt><trkpt lat="42.79476366857019" lon="13.62402810404608"><ele>524.6666666666666</ele><time>2026-04-05T14:29:43Z</time></trkpt><trkpt lat="42.79482776332988" lon="13.624083948423271"><ele>524.8333333333334</ele><time>2026-04-05T14:29:44Z</time></trkpt><trkpt lat="42.79489296681574" lon="13.624135260991599"><ele>525.0</ele><time>2026-04-05T14:29:45Z</time></trkpt><trkpt lat="42.79496024071194" lon="13.624160282749473"><ele>525.0</ele><time>2026-04-05T14:29:46Z</time></trkpt><trkpt lat="42.79503923393354" lon="13.624201703381917"><ele>525.0</ele><time>2026-04-05T14:29:47Z</time></trkpt><trkpt lat="42.79514232265058" lon="13.624216752891233"><ele>525.0</ele><time>2026-04-05T14:29:48Z</time></trkpt><trkpt lat="42.79525273299973" lon="13.624208325330374"><ele>525.0</ele><time>2026-04-05T14:29:49Z</time></trkpt><trkpt lat="42.79537635079287" lon="13.624202760677768"><ele>525.0</ele><time>2026-04-05T14:29:50Z</time></trkpt><trkpt lat="42.79548843556906" lon="13.624168828641338"><ele>525.2</ele><time>2026-04-05T14:29:51Z</time></trkpt><trkpt lat="42.79557094845752" lon="13.62412903004465"><ele>525.4</ele><time>2026-04-05T14:29:52Z</time></trkpt><trkpt lat="42.79563334816067" lon="13.62404514943677"><ele>525.6</ele><time>2026-04-05T14:29:53Z</time></trkpt><trkpt lat="42.79568450520337" lon="13.623926587908212"><ele>525.8</ele><time>2026-04-05T14:29:54Z</time></trkpt><trkpt lat="42.795726754618705" lon="13.623780057413413"><ele>526.0</ele><time>2026-04-05T14:29:55Z</time></trkpt><trkpt lat="42.7957672263084" lon="13.623627641508154"><ele>526.0</ele><time>2026-04-05T14:29:56Z</time></trkpt><trkpt lat="42.79579761917381" lon="13.623461828301206"><ele>526.0</ele><time>2026-04-05T14:29:57Z</time></trkpt><trkpt lat="42.7958171965824" lon="13.623285177676681"><ele>526.0</ele><time>2026-04-05T14:29:58Z</time></trkpt><trkpt lat="42.79581972031571" lon="13.623093524294934"><ele>526.0</ele><time>2026-04-05T14:29:59Z</time></trkpt><trkpt lat="42.79581846697515" lon="13.622898519961497"><ele>528.25</ele><time>2026-04-05T14:30:00Z</time></trkpt><trkpt lat="42.795820991454065" lon="13.622708080037818"><ele>530.5</ele><time>2026-04-05T14:30:01Z</time></trkpt><trkpt lat="42.79582394308781" lon="13.622509550036304"><ele>532.75</ele><time>2026-04-05T14:30:02Z</time></trkpt><trkpt lat="42.79581762244252" lon="13.622304868360237"><ele>535.0</ele><time>2026-04-05T14:30:03Z</time></trkpt><trkpt lat="42.79580920396486" lon="13.62210454042566"><ele>535.2</ele><time>2026-04-05T14:30:04Z</time></trkpt><trkpt lat="42.79579679642206" lon="13.621921199628483"><ele>535.4</ele><time>2026-04-05T14:30:05Z</time></trkpt><trkpt lat="42.795793771888555" lon="13.621758632664735"><ele>535.6</ele><time>2026-04-05T14:30:06Z</time></trkpt><trkpt lat="42.79579662818747" lon="13.6216225439955"><ele>535.8</ele><time>2026-04-05T14:30:07Z</time></trkpt><trkpt lat="42.79581027707287" lon="13.621514472480117"><ele>536.0</ele><time>2026-04-05T14:30:08Z</time></trkpt><trkpt lat="42.79578492313657" lon="13.621392937405433"><ele>536.0</ele><time>2026-04-05T14:30:10Z</time></trkpt><trkpt lat="42.795681213177815" lon="13.62143815614112"><ele>536.0</ele><time>2026-04-05T14:30:13Z</time></trkpt><trkpt lat="42.79562943226396" lon="13.621594886643749"><ele>536.0</ele><time>2026-04-05T14:30:15Z</time></trkpt><trkpt lat="42.795615454393" lon="13.621713159050067"><ele>536.0</ele><time>2026-04-05T14:30:16Z</time></trkpt><trkpt lat="42.795585852093495" lon="13.621833347021555"><ele>536.0</ele><time>2026-04-05T14:30:17Z</time></trkpt><trkpt lat="42.79554258712329" lon="13.621961774297997"><ele>535.8</ele><time>2026-04-05T14:30:18Z</time></trkpt><trkpt lat="42.79548624980123" lon="13.622078490705135"><ele>535.6</ele><time>2026-04-05T14:30:19Z</time></trkpt><trkpt lat="42.79541203581756" lon="13.622157753012923"><ele>535.4</ele><time>2026-04-05T14:30:20Z</time></trkpt><trkpt lat="42.79536247200137" lon="13.622252517692004"><ele>535.2</ele><time>2026-04-05T14:30:21Z</time></trkpt><trkpt lat="42.795301732766" lon="13.622322077781007"><ele>535.0</ele><time>2026-04-05T14:30:22Z</time></trkpt><trkpt lat="42.79519831059131" lon="13.622317191425218"><ele>535.0</ele><time>2026-04-05T14:30:24Z</time></trkpt><trkpt lat="42.795174180376534" lon="13.622165226292758"><ele>535.0</ele><time>2026-04-05T14:30:26Z</time></trkpt><trkpt lat="42.79523091800473" lon="13.622084656010195"><ele>535.0</ele><time>2026-04-05T14:30:27Z</time></trkpt><trkpt lat="42.79527000347056" lon="13.621964990755009"><ele>535.0</ele><time>2026-04-05T14:30:28Z</time></trkpt><trkpt lat="42.79532191561889" lon="13.621837356035845"><ele>535.0</ele><time>2026-04-05T14:30:29Z</time></trkpt><trkpt lat="42.795368179205795" lon="13.621687796563892"><ele>535.2</ele><time>2026-04-05T14:30:30Z</time></trkpt><trkpt lat="42.79540664967495" lon="13.621537725395676"><ele>535.4</ele><time>2026-04-05T14:30:31Z</time></trkpt><trkpt lat="42.7954311937167" lon="13.621398464462608"><ele>535.6</ele><time>2026-04-05T14:30:32Z</time></trkpt><trkpt lat="42.795443613627384" lon="13.62127703713589"><ele>535.8</ele><time>2026-04-05T14:30:33Z</time></trkpt><trkpt lat="42.79544648285657" lon="13.621175736177989"><ele>536.0</ele><time>2026-04-05T14:30:34Z</time></trkpt><trkpt lat="42.795427046339356" lon="13.62109256868042"><ele>536.0</ele><time>2026-04-05T14:30:35Z</time></trkpt><trkpt lat="42.79537418854016" lon="13.621036912025382"><ele>536.0</ele><time>2026-04-05T14:30:36Z</time></trkpt><trkpt lat="42.795302561504194" lon="13.621039908255325"><ele>536.0</ele><time>2026-04-05T14:30:37Z</time></trkpt><trkpt lat="42.795245920142236" lon="13.621112216045798"><ele>536.0</ele><time>2026-04-05T14:30:38Z</time></trkpt><trkpt lat="42.79522800937542" lon="13.621232448885578"><ele>536.0</ele><time>2026-04-05T14:30:39Z</time></trkpt><trkpt lat="42.79522611642019" lon="13.621366287047433"><ele>536.0</ele><time>2026-04-05T14:30:40Z</time></trkpt><trkpt lat="42.79520290976141" lon="13.621487499912218"><ele>541.4</ele><time>2026-04-05T14:30:41Z</time></trkpt><trkpt lat="42.79514576567663" lon="13.621590901369286"><ele>546.8</ele><time>2026-04-05T14:30:42Z</time></trkpt><trkpt lat="42.79504602112014" lon="13.621655669563157"><ele>552.1999999999999</ele><time>2026-04-05T14:30:43Z</time></trkpt><trkpt lat="42.79495614677091" lon="13.621759874684347"><ele>557.6</ele><time>2026-04-05T14:30:44Z</time></trkpt><trkpt lat="42.79485158015901" lon="13.62184717495782"><ele>563.0</ele><time>2026-04-05T14:30:45Z</time></trkpt><trkpt lat="42.79475084927338" lon="13.621930794989796"><ele>563.0</ele><time>2026-04-05T14:30:46Z</time></trkpt><trkpt lat="42.79465579226086" lon="13.622010351821139"><ele>563.0</ele><time>2026-04-05T14:30:47Z</time></trkpt><trkpt lat="42.794563160085985" lon="13.622051152665168"><ele>563.0</ele><time>2026-04-05T14:30:48Z</time></trkpt><trkpt lat="42.79446535669977" lon="13.622036450756259"><ele>563.0</ele><time>2026-04-05T14:30:49Z</time></trkpt><trkpt lat="42.79437246832063" lon="13.621949555091328"><ele>563.0</ele><time>2026-04-05T14:30:50Z</time></trkpt><trkpt lat="42.79425773685151" lon="13.621898334474448"><ele>564.75</ele><time>2026-04-05T14:30:51Z</time></trkpt><trkpt lat="42.794141631700725" lon="13.621820453636234"><ele>566.5</ele><time>2026-04-05T14:30:52Z</time></trkpt><trkpt lat="42.79401204497011" lon="13.621754500353275"><ele>568.25</ele><time>2026-04-05T14:30:53Z</time></trkpt><trkpt lat="42.793887560919735" lon="13.621698742032242"><ele>570.0</ele><time>2026-04-05T14:30:54Z</time></trkpt><trkpt lat="42.79380244894223" lon="13.621647144607325"><ele>570.0</ele><time>2026-04-05T14:30:55Z</time></trkpt><trkpt lat="42.793776728484296" lon="13.621521382015526"><ele>570.0</ele><time>2026-04-05T14:30:57Z</time></trkpt><trkpt lat="42.79387601520781" lon="13.621443977121672"><ele>570.0</ele><time>2026-04-05T14:30:59Z</time></trkpt><trkpt lat="42.79394568386506" lon="13.621493920582672"><ele>570.0</ele><time>2026-04-05T14:31:00Z</time></trkpt><trkpt lat="42.79403333372341" lon="13.621511386594547"><ele>570.0</ele><time>2026-04-05T14:31:01Z</time></trkpt><trkpt lat="42.79413337376895" lon="13.621557093885176"><ele>570.0</ele><time>2026-04-05T14:31:02Z</time></trkpt><trkpt lat="42.79424078722147" lon="13.621575587219292"><ele>570.0</ele><time>2026-04-05T14:31:03Z</time></trkpt><trkpt lat="42.79434277983454" lon="13.621566766480809"><ele>570.0</ele><time>2026-04-05T14:31:04Z</time></trkpt><trkpt lat="42.79442887058068" lon="13.621524007327926"><ele>570.0</ele><time>2026-04-05T14:31:05Z</time></trkpt><trkpt lat="42.79448812600189" lon="13.621441004514217"><ele>570.0</ele><time>2026-04-05T14:31:06Z</time></trkpt><trkpt lat="42.794523384867176" lon="13.621322195043968"><ele>568.75</ele><time>2026-04-05T14:31:07Z</time></trkpt><trkpt lat="42.79452036024044" lon="13.621170385882971"><ele>567.5</ele><time>2026-04-05T14:31:08Z</time></trkpt><trkpt lat="42.79451198371003" lon="13.62101966288406"><ele>566.25</ele><time>2026-04-05T14:31:09Z</time></trkpt><trkpt lat="42.79448957857588" lon="13.620860435654254"><ele>565.0</ele><time>2026-04-05T14:31:10Z</time></trkpt><trkpt lat="42.794437149849735" lon="13.620702074934584"><ele>565.0</ele><time>2026-04-05T14:31:11Z</time></trkpt><trkpt lat="42.794362297838525" lon="13.620534846651516"><ele>565.0</ele><time>2026-04-05T14:31:12Z</time></trkpt><trkpt lat="42.79428561088903" lon="13.620357931495073"><ele>565.0</ele><time>2026-04-05T14:31:13Z</time></trkpt><trkpt lat="42.794217028252" lon="13.620180543676486"><ele>565.0</ele><time>2026-04-05T14:31:14Z</time></trkpt><trkpt lat="42.79415101680707" lon="13.619986933861144"><ele>570.6666666666667</ele><time>2026-04-05T14:31:15Z</time></trkpt><trkpt lat="42.794066997845455" lon="13.619769147429263"><ele>576.3333333333334</ele><time>2026-04-05T14:31:16Z</time></trkpt><trkpt lat="42.79394333522354" lon="13.61952737792391"><ele>582.0</ele><time>2026-04-05T14:31:17Z</time></trkpt><trkpt lat="42.793791339022334" lon="13.619311211120916"><ele>583.3333333333334</ele><time>2026-04-05T14:31:19.001Z</time></trkpt><trkpt lat="42.793671401822955" lon="13.619165943729655"><ele>584.6666666666667</ele><time>2026-04-05T14:31:20.001Z</time></trkpt><trkpt lat="42.79355183488495" lon="13.6190320915945"><ele>586.0</ele><time>2026-04-05T14:31:21.001Z</time></trkpt><trkpt lat="42.79347913129246" lon="13.618872312937242"><ele>587.6666666666667</ele><time>2026-04-05T14:31:22.001Z</time></trkpt><trkpt lat="42.79343262363679" lon="13.61876179585902"><ele>589.3333333333334</ele><time>2026-04-05T14:31:23.001Z</time></trkpt><trkpt lat="42.79338815470416" lon="13.618677852542518"><ele>591.0</ele><time>2026-04-05T14:31:24.001Z</time></trkpt><trkpt lat="42.79342539442316" lon="13.618563757542876"><ele>592.6666666666666</ele><time>2026-04-05T14:31:25.001Z</time></trkpt><trkpt lat="42.79345877320614" lon="13.61846637721943"><ele>594.3333333333333</ele><time>2026-04-05T14:31:26.001Z</time></trkpt><trkpt lat="42.793515283591645" lon="13.61840981732406"><ele>596.0</ele><time>2026-04-05T14:31:27.001Z</time></trkpt><trkpt lat="42.793590569260886" lon="13.618366434451534"><ele>596.0</ele><time>2026-04-05T14:31:28.001Z</time></trkpt><trkpt lat="42.793686395566624" lon="13.618352194805464"><ele>596.0</ele><time>2026-04-05T14:31:29.001Z</time></trkpt><trkpt lat="42.79380129784912" lon="13.618358660336567"><ele>596.0</ele><time>2026-04-05T14:31:30.001Z</time></trkpt><trkpt lat="42.793932469615086" lon="13.618367639003509"><ele>596.0</ele><time>2026-04-05T14:31:31.001Z</time></trkpt><trkpt lat="42.794059900237535" lon="13.618357067808866"><ele>596.0</ele><time>2026-04-05T14:31:32.001Z</time></trkpt><trkpt lat="42.79416802140813" lon="13.61835885674381"><ele>596.0</ele><time>2026-04-05T14:31:33.001Z</time></trkpt><trkpt lat="42.794258108333686" lon="13.618348296513311"><ele>596.0</ele><time>2026-04-05T14:31:34.001Z</time></trkpt><trkpt lat="42.79434371698727" lon="13.61831936514781"><ele>596.0</ele><time>2026-04-05T14:31:35.001Z</time></trkpt><trkpt lat="42.79442598718884" lon="13.618261160273281"><ele>596.0</ele><time>2026-04-05T14:31:36.001Z</time></trkpt><trkpt lat="42.79450901140335" lon="13.618182153825801"><ele>595.8</ele><time>2026-04-05T14:31:37.001Z</time></trkpt><trkpt lat="42.7945963423642" lon="13.618113996677536"><ele>595.6</ele><time>2026-04-05T14:31:38Z</time></trkpt><trkpt lat="42.7946958836255" lon="13.618089782110031"><ele>595.4</ele><time>2026-04-05T14:31:39Z</time></trkpt><trkpt lat="42.79480843720596" lon="13.618045102191253"><ele>595.2</ele><time>2026-04-05T14:31:40Z</time></trkpt><trkpt lat="42.79492168601008" lon="13.61803439899818"><ele>595.0</ele><time>2026-04-05T14:31:41Z</time></trkpt><trkpt lat="42.795034060421976" lon="13.61799864251021"><ele>595.0</ele><time>2026-04-05T14:31:42Z</time></trkpt><trkpt lat="42.79515089055623" lon="13.617949881143142"><ele>595.0</ele><time>2026-04-05T14:31:43Z</time></trkpt><trkpt lat="42.7952464831713" lon="13.617872449381174"><ele>595.0</ele><time>2026-04-05T14:31:44Z</time></trkpt><trkpt lat="42.79532550245383" lon="13.617779526470025"><ele>595.0</ele><time>2026-04-05T14:31:45Z</time></trkpt><trkpt lat="42.79537287007302" lon="13.617671769589231"><ele>595.0</ele><time>2026-04-05T14:31:46Z</time></trkpt><trkpt lat="42.795410065247125" lon="13.617584912314815"><ele>596.6666666666667</ele><time>2026-04-05T14:31:47Z</time></trkpt><trkpt lat="42.795418306322134" lon="13.617494831483699"><ele>598.3333333333334</ele><time>2026-04-05T14:31:48Z</time></trkpt><trkpt lat="42.795403508020186" lon="13.61740964810504"><ele>600.0</ele><time>2026-04-05T14:31:49Z</time></trkpt><trkpt lat="42.79531627102842" lon="13.617363461463276"><ele>601.6666666666666</ele><time>2026-04-05T14:31:50Z</time></trkpt><trkpt lat="42.79522719394476" lon="13.617356170024026"><ele>603.3333333333333</ele><time>2026-04-05T14:31:51Z</time></trkpt><trkpt lat="42.79513528269427" lon="13.617397040634236"><ele>605.0</ele><time>2026-04-05T14:31:52Z</time></trkpt><trkpt lat="42.79503853554103" lon="13.617463062149422"><ele>605.2</ele><time>2026-04-05T14:31:53Z</time></trkpt><trkpt lat="42.79485946381993" lon="13.617483285078112"><ele>605.4</ele><time>2026-04-05T14:31:55Z</time></trkpt><trkpt lat="42.79479109826513" lon="13.617453215817546"><ele>605.6</ele><time>2026-04-05T14:31:56Z</time></trkpt><trkpt lat="42.79475405417128" lon="13.617343623115776"><ele>605.8</ele><time>2026-04-05T14:31:58Z</time></trkpt><trkpt lat="42.7948273808784" lon="13.61731914600959"><ele>606.0</ele><time>2026-04-05T14:32:00Z</time></trkpt><trkpt lat="42.794885693183296" lon="13.617270724641564"><ele>606.0</ele><time>2026-04-05T14:32:02Z</time></trkpt><trkpt lat="42.79494269161642" lon="13.617213207915317"><ele>606.0</ele><time>2026-04-05T14:32:03Z</time></trkpt><trkpt lat="42.79502166716102" lon="13.617174239363576"><ele>606.0</ele><time>2026-04-05T14:32:04Z</time></trkpt><trkpt lat="42.79510141401357" lon="13.617129193210308"><ele>606.0</ele><time>2026-04-05T14:32:05Z</time></trkpt><trkpt lat="42.795184248173825" lon="13.61707486713163"><ele>606.0</ele><time>2026-04-05T14:32:06Z</time></trkpt><trkpt lat="42.79526655601276" lon="13.617037315039138"><ele>606.0</ele><time>2026-04-05T14:32:07Z</time></trkpt><trkpt lat="42.79536467003689" lon="13.617027638196372"><ele>605.8</ele><time>2026-04-05T14:32:08Z</time></trkpt><trkpt lat="42.79547605526989" lon="13.61704496117043"><ele>605.6</ele><time>2026-04-05T14:32:09Z</time></trkpt><trkpt lat="42.79558988163235" lon="13.61706424744897"><ele>605.4</ele><time>2026-04-05T14:32:10Z</time></trkpt><trkpt lat="42.795686053631506" lon="13.617074503473159"><ele>605.2</ele><time>2026-04-05T14:32:11Z</time></trkpt><trkpt lat="42.79576600068995" lon="13.617070231559312"><ele>605.0</ele><time>2026-04-05T14:32:12Z</time></trkpt><trkpt lat="42.7958463620126" lon="13.617025518850685"><ele>604.2</ele><time>2026-04-05T14:32:13Z</time></trkpt><trkpt lat="42.79592147254702" lon="13.616935306583589"><ele>603.4</ele><time>2026-04-05T14:32:14Z</time></trkpt><trkpt lat="42.795981154907814" lon="13.616822132857438"><ele>602.6</ele><time>2026-04-05T14:32:15Z</time></trkpt><trkpt lat="42.796019379448396" lon="13.616697973545927"><ele>601.8</ele><time>2026-04-05T14:32:16Z</time></trkpt><trkpt lat="42.79603065601231" lon="13.616569594095337"><ele>601.0</ele><time>2026-04-05T14:32:17Z</time></trkpt><trkpt lat="42.79602216355075" lon="13.616463310600711"><ele>603.0</ele><time>2026-04-05T14:32:18Z</time></trkpt><trkpt lat="42.79596371277524" lon="13.616317197360052"><ele>605.0</ele><time>2026-04-05T14:32:20Z</time></trkpt><trkpt lat="42.79593645524158" lon="13.616225523795704"><ele>607.0</ele><time>2026-04-05T14:32:21Z</time></trkpt><trkpt lat="42.79590698456278" lon="13.616127554945983"><ele>609.0</ele><time>2026-04-05T14:32:22Z</time></trkpt><trkpt lat="42.79585925886869" lon="13.616042468835204"><ele>611.0</ele><time>2026-04-05T14:32:23Z</time></trkpt><trkpt lat="42.79579016298538" lon="13.615989452505396"><ele>613.0</ele><time>2026-04-05T14:32:24Z</time></trkpt><trkpt lat="42.795713542230885" lon="13.615967711056413"><ele>614.4</ele><time>2026-04-05T14:32:25Z</time></trkpt><trkpt lat="42.79562925280348" lon="13.615962341781938"><ele>615.8</ele><time>2026-04-05T14:32:26Z</time></trkpt><trkpt lat="42.79553285533012" lon="13.615970959318606"><ele>617.2</ele><time>2026-04-05T14:32:27Z</time></trkpt><trkpt lat="42.79542498893109" lon="13.615983312511903"><ele>618.6</ele><time>2026-04-05T14:32:28Z</time></trkpt><trkpt lat="42.79531347264983" lon="13.615979519805391"><ele>620.0</ele><time>2026-04-05T14:32:29Z</time></trkpt><trkpt lat="42.795201054011635" lon="13.615965792663328"><ele>621.2</ele><time>2026-04-05T14:32:30Z</time></trkpt><trkpt lat="42.79509665070405" lon="13.615944101867946"><ele>622.4</ele><time>2026-04-05T14:32:31Z</time></trkpt><trkpt lat="42.79500115004242" lon="13.61590351505207"><ele>623.6</ele><time>2026-04-05T14:32:32Z</time></trkpt><trkpt lat="42.79492280733145" lon="13.61582057324652"><ele>624.8</ele><time>2026-04-05T14:32:33Z</time></trkpt><trkpt lat="42.79486931458101" lon="13.615692378116373"><ele>626.0</ele><time>2026-04-05T14:32:34Z</time></trkpt><trkpt lat="42.79484790281884" lon="13.615528711181392"><ele>626.0</ele><time>2026-04-05T14:32:35Z</time></trkpt><trkpt lat="42.794792540944734" lon="13.615387719087893"><ele>626.0</ele><time>2026-04-05T14:32:36Z</time></trkpt><trkpt lat="42.794780262772434" lon="13.615244512900091"><ele>626.0</ele><time>2026-04-05T14:32:37Z</time></trkpt><trkpt lat="42.79476259463916" lon="13.615120428934636"><ele>626.0</ele><time>2026-04-05T14:32:38Z</time></trkpt><trkpt lat="42.79480182445165" lon="13.615010424420797"><ele>626.0</ele><time>2026-04-05T14:32:39Z</time></trkpt><trkpt lat="42.794873404189545" lon="13.614938224229201"><ele>626.2</ele><time>2026-04-05T14:32:40Z</time></trkpt><trkpt lat="42.794969009614086" lon="13.614908835299465"><ele>626.4000000000001</ele><time>2026-04-05T14:32:41Z</time></trkpt><trkpt lat="42.7950715112699" lon="13.614904498746215"><ele>626.6</ele><time>2026-04-05T14:32:42Z</time></trkpt><trkpt lat="42.79516389696519" lon="13.61487846797846"><ele>626.8000000000001</ele><time>2026-04-05T14:32:43Z</time></trkpt><trkpt lat="42.7952262470453" lon="13.614817088715515"><ele>627.0</ele><time>2026-04-05T14:32:44Z</time></trkpt><trkpt lat="42.795263066883784" lon="13.614704929167319"><ele>627.0</ele><time>2026-04-05T14:32:45Z</time></trkpt><trkpt lat="42.795259804428206" lon="13.614565359599803"><ele>627.0</ele><time>2026-04-05T14:32:46Z</time></trkpt><trkpt lat="42.7952236351677" lon="13.614417159822498"><ele>627.0</ele><time>2026-04-05T14:32:47Z</time></trkpt><trkpt lat="42.79518216852934" lon="13.614268846886752"><ele>627.0</ele><time>2026-04-05T14:32:48Z</time></trkpt><trkpt lat="42.795143720344115" lon="13.614110745216045"><ele>630.5</ele><time>2026-04-05T14:32:49Z</time></trkpt><trkpt lat="42.795096739703645" lon="13.613953445911628"><ele>634.0</ele><time>2026-04-05T14:32:50Z</time></trkpt><trkpt lat="42.79505154714021" lon="13.613806505608556"><ele>637.5</ele><time>2026-04-05T14:32:51Z</time></trkpt><trkpt lat="42.79501682788758" lon="13.613666298645725"><ele>641.0</ele><time>2026-04-05T14:32:52Z</time></trkpt><trkpt lat="42.795007674060464" lon="13.613530134763055"><ele>640.8</ele><time>2026-04-05T14:32:53Z</time></trkpt><trkpt lat="42.795036494048915" lon="13.613410302998968"><ele>640.5999999999999</ele><time>2026-04-05T14:32:54Z</time></trkpt><trkpt lat="42.79511705910124" lon="13.613332507111288"><ele>640.4</ele><time>2026-04-05T14:32:55Z</time></trkpt><trkpt lat="42.79520247653506" lon="13.613261998720144"><ele>640.2</ele><time>2026-04-05T14:32:56Z</time></trkpt><trkpt lat="42.79529561925359" lon="13.613181755334756"><ele>640.0</ele><time>2026-04-05T14:32:57Z</time></trkpt><trkpt lat="42.79541826335002" lon="13.613119976327903"><ele>640.0</ele><time>2026-04-05T14:32:58Z</time></trkpt><trkpt lat="42.79553368760578" lon="13.613077075791654"><ele>640.0</ele><time>2026-04-05T14:32:59Z</time></trkpt><trkpt lat="42.79562947796053" lon="13.613037535113554"><ele>640.0</ele><time>2026-04-05T14:33:00Z</time></trkpt><trkpt lat="42.795695563646824" lon="13.612973470654419"><ele>640.0</ele><time>2026-04-05T14:33:01Z</time></trkpt><trkpt lat="42.79573801723109" lon="13.612897938785805"><ele>640.0</ele><time>2026-04-05T14:33:02Z</time></trkpt><trkpt lat="42.79573300728184" lon="13.612804318200485"><ele>640.0</ele><time>2026-04-05T14:33:03Z</time></trkpt><trkpt lat="42.795682987222406" lon="13.612723517449432"><ele>641.6</ele><time>2026-04-05T14:33:04Z</time></trkpt><trkpt lat="42.79561182993125" lon="13.612660338832125"><ele>643.2</ele><time>2026-04-05T14:33:05Z</time></trkpt><trkpt lat="42.795504231537855" lon="13.612697446212245"><ele>644.8</ele><time>2026-04-05T14:33:06Z</time></trkpt><trkpt lat="42.795406103351624" lon="13.612746803188765"><ele>646.4</ele><time>2026-04-05T14:33:07Z</time></trkpt><trkpt lat="42.795297811742536" lon="13.61277365689816"><ele>648.0</ele><time>2026-04-05T14:33:08Z</time></trkpt><trkpt lat="42.79518009331495" lon="13.612791257520481"><ele>648.5</ele><time>2026-04-05T14:33:09Z</time></trkpt><trkpt lat="42.795032275356945" lon="13.61282926141813"><ele>649.0</ele><time>2026-04-05T14:33:10Z</time></trkpt><trkpt lat="42.79489533533076" lon="13.61284676524125"><ele>649.5</ele><time>2026-04-05T14:33:11Z</time></trkpt><trkpt lat="42.7947518360729" lon="13.612867020526366"><ele>650.0</ele><time>2026-04-05T14:33:12Z</time></trkpt><trkpt lat="42.79461076724353" lon="13.612886414192054"><ele>650.0</ele><time>2026-04-05T14:33:13Z</time></trkpt><trkpt lat="42.79447304811745" lon="13.612906933071482"><ele>650.0</ele><time>2026-04-05T14:33:14Z</time></trkpt><trkpt lat="42.79435072130118" lon="13.612925035236481"><ele>650.0</ele><time>2026-04-05T14:33:15Z</time></trkpt><trkpt lat="42.79423660173359" lon="13.61296355423729"><ele>650.0</ele><time>2026-04-05T14:33:16Z</time></trkpt><trkpt lat="42.79413320827642" lon="13.613021126263273"><ele>654.25</ele><time>2026-04-05T14:33:17Z</time></trkpt><trkpt lat="42.794040051207965" lon="13.613099505299743"><ele>658.5</ele><time>2026-04-05T14:33:18Z</time></trkpt><trkpt lat="42.79396638158114" lon="13.613213194628527"><ele>662.75</ele><time>2026-04-05T14:33:19Z</time></trkpt><trkpt lat="42.793913294276386" lon="13.613354865954076"><ele>667.0</ele><time>2026-04-05T14:33:20Z</time></trkpt><trkpt lat="42.793865262721404" lon="13.613506517819744"><ele>667.0</ele><time>2026-04-05T14:33:21Z</time></trkpt><trkpt lat="42.793800870669315" lon="13.613635119885355"><ele>667.0</ele><time>2026-04-05T14:33:22Z</time></trkpt><trkpt lat="42.79371959655806" lon="13.61372617403113"><ele>667.0</ele><time>2026-04-05T14:33:23Z</time></trkpt><trkpt lat="42.79363674630505" lon="13.613779260520738"><ele>667.0</ele><time>2026-04-05T14:33:24Z</time></trkpt><trkpt lat="42.79354840614079" lon="13.613791776078525"><ele>667.0</ele><time>2026-04-05T14:33:25Z</time></trkpt><trkpt lat="42.79345315564585" lon="13.613740407525492"><ele>666.0</ele><time>2026-04-05T14:33:26Z</time></trkpt><trkpt lat="42.79333988643945" lon="13.61370824191664"><ele>665.0</ele><time>2026-04-05T14:33:27Z</time></trkpt><trkpt lat="42.79322977269154" lon="13.613650183640432"><ele>664.0</ele><time>2026-04-05T14:33:28Z</time></trkpt><trkpt lat="42.793110561126205" lon="13.613596358931431"><ele>663.0</ele><time>2026-04-05T14:33:29Z</time></trkpt><trkpt lat="42.7929902926967" lon="13.613528616306635"><ele>666.25</ele><time>2026-04-05T14:33:30Z</time></trkpt><trkpt lat="42.79287365727769" lon="13.613425308457284"><ele>669.5</ele><time>2026-04-05T14:33:31Z</time></trkpt><trkpt lat="42.792764913035825" lon="13.613291129290648"><ele>672.75</ele><time>2026-04-05T14:33:32Z</time></trkpt><trkpt lat="42.79266276358267" lon="13.613169626487995"><ele>676.0</ele><time>2026-04-05T14:33:33Z</time></trkpt><trkpt lat="42.79258125944182" lon="13.613079958075854"><ele>676.0</ele><time>2026-04-05T14:33:34Z</time></trkpt><trkpt lat="42.79250792672399" lon="13.61301607732678"><ele>676.0</ele><time>2026-04-05T14:33:35.001Z</time></trkpt><trkpt lat="42.79242094601624" lon="13.612996425432296"><ele>676.0</ele><time>2026-04-05T14:33:36Z</time></trkpt><trkpt lat="42.792311649166955" lon="13.612999382849203"><ele>676.0</ele><time>2026-04-05T14:33:37.001Z</time></trkpt><trkpt lat="42.79218764193324" lon="13.61300926237326"><ele>676.0</ele><time>2026-04-05T14:33:38.001Z</time></trkpt><trkpt lat="42.792058848803464" lon="13.612998600765183"><ele>676.0</ele><time>2026-04-05T14:33:39Z</time></trkpt><trkpt lat="42.79193294836482" lon="13.612965153379546"><ele>676.0</ele><time>2026-04-05T14:33:40Z</time></trkpt><trkpt lat="42.79182508681985" lon="13.612936380907998"><ele>676.0</ele><time>2026-04-05T14:33:41Z</time></trkpt><trkpt lat="42.79173422237662" lon="13.612926473506343"><ele>676.0</ele><time>2026-04-05T14:33:42Z</time></trkpt><trkpt lat="42.791651785455095" lon="13.612948259446581"><ele>676.0</ele><time>2026-04-05T14:33:43Z</time></trkpt><trkpt lat="42.79156539434585" lon="13.613007735489917"><ele>677.25</ele><time>2026-04-05T14:33:44Z</time></trkpt><trkpt lat="42.79148391983199" lon="13.61308788610252"><ele>678.5</ele><time>2026-04-05T14:33:45Z</time></trkpt><trkpt lat="42.79139945409736" lon="13.613183587708344"><ele>679.75</ele><time>2026-04-05T14:33:46Z</time></trkpt><trkpt lat="42.791318699882275" lon="13.613306183289701"><ele>681.0</ele><time>2026-04-05T14:33:47Z</time></trkpt><trkpt lat="42.79124460986234" lon="13.613448378888647"><ele>681.0</ele><time>2026-04-05T14:33:48Z</time></trkpt><trkpt lat="42.79117631053666" lon="13.613608573319187"><ele>681.0</ele><time>2026-04-05T14:33:49Z</time></trkpt><trkpt lat="42.79109956924466" lon="13.613786692873342"><ele>681.0</ele><time>2026-04-05T14:33:50Z</time></trkpt><trkpt lat="42.79101901160432" lon="13.613934232720522"><ele>681.0</ele><time>2026-04-05T14:33:51Z</time></trkpt><trkpt lat="42.790930566337494" lon="13.61405592716382"><ele>681.5</ele><time>2026-04-05T14:33:52Z</time></trkpt><trkpt lat="42.79086210518576" lon="13.614198399222445"><ele>682.0</ele><time>2026-04-05T14:33:53Z</time></trkpt><trkpt lat="42.7907782388351" lon="13.614316933574102"><ele>682.5</ele><time>2026-04-05T14:33:54Z</time></trkpt><trkpt lat="42.79068960666513" lon="13.614431869790417"><ele>683.0</ele><time>2026-04-05T14:33:55Z</time></trkpt><trkpt lat="42.79059458327866" lon="13.6145400360498"><ele>683.0</ele><time>2026-04-05T14:33:56Z</time></trkpt><trkpt lat="42.7905023727427" lon="13.614642223150526"><ele>683.0</ele><time>2026-04-05T14:33:57Z</time></trkpt><trkpt lat="42.79041312923603" lon="13.614732356058731"><ele>683.0</ele><time>2026-04-05T14:33:58Z</time></trkpt><trkpt lat="42.7903428465277" lon="13.614798513364457"><ele>683.0</ele><time>2026-04-05T14:33:59Z</time></trkpt><trkpt lat="42.790279729990914" lon="13.614807318837766"><ele>683.0</ele><time>2026-04-05T14:34:00Z</time></trkpt><trkpt lat="42.79018776746722" lon="13.614714439969836"><ele>683.0</ele><time>2026-04-05T14:34:02Z</time></trkpt><trkpt lat="42.79018312544461" lon="13.614620329415777"><ele>683.0</ele><time>2026-04-05T14:34:03Z</time></trkpt><trkpt lat="42.79020643408708" lon="13.614519011570913"><ele>683.0</ele><time>2026-04-05T14:34:04Z</time></trkpt><trkpt lat="42.79024849479608" lon="13.614433458674965"><ele>683.0</ele><time>2026-04-05T14:34:05Z</time></trkpt><trkpt lat="42.790287804360354" lon="13.614309750808454"><ele>683.0</ele><time>2026-04-05T14:34:06Z</time></trkpt><trkpt lat="42.79032797305592" lon="13.614181669790625"><ele>683.0</ele><time>2026-04-05T14:34:07Z</time></trkpt><trkpt lat="42.790365406296814" lon="13.614060289987966"><ele>684.0</ele><time>2026-04-05T14:34:08Z</time></trkpt><trkpt lat="42.79038949103168" lon="13.61392723324988"><ele>685.0</ele><time>2026-04-05T14:34:09Z</time></trkpt><trkpt lat="42.79043162546537" lon="13.613818620879655"><ele>686.0</ele><time>2026-04-05T14:34:10Z</time></trkpt><trkpt lat="42.79048087041751" lon="13.613716325212357"><ele>687.0</ele><time>2026-04-05T14:34:11Z</time></trkpt><trkpt lat="42.79050217745325" lon="13.613618291190615"><ele>688.0</ele><time>2026-04-05T14:34:12Z</time></trkpt><trkpt lat="42.790499776261534" lon="13.61352777546436"><ele>689.0</ele><time>2026-04-05T14:34:13Z</time></trkpt><trkpt lat="42.7904702836398" lon="13.613451899729757"><ele>689.0</ele><time>2026-04-05T14:34:14Z</time></trkpt><trkpt lat="42.79042286943549" lon="13.61338472205906"><ele>689.0</ele><time>2026-04-05T14:34:15Z</time></trkpt><trkpt lat="42.79034157268383" lon="13.613405595762034"><ele>689.0</ele><time>2026-04-05T14:34:16Z</time></trkpt><trkpt lat="42.79027232111174" lon="13.613475084772425"><ele>689.0</ele><time>2026-04-05T14:34:17Z</time></trkpt><trkpt lat="42.790234319411006" lon="13.613586427315136"><ele>689.0</ele><time>2026-04-05T14:34:18Z</time></trkpt><trkpt lat="42.79018558789739" lon="13.613712329999228"><ele>689.0</ele><time>2026-04-05T14:34:19Z</time></trkpt><trkpt lat="42.790131369944795" lon="13.613824373666638"><ele>693.4000000000001</ele><time>2026-04-05T14:34:20Z</time></trkpt><trkpt lat="42.79006693567151" lon="13.613896357267006"><ele>697.8</ele><time>2026-04-05T14:34:21Z</time></trkpt><trkpt lat="42.78999836266226" lon="13.613978887659487"><ele>702.2</ele><time>2026-04-05T14:34:22Z</time></trkpt><trkpt lat="42.78992141640053" lon="13.614050867295745"><ele>706.5999999999999</ele><time>2026-04-05T14:34:23Z</time></trkpt><trkpt lat="42.78981516932242" lon="13.61411119536979"><ele>711.0</ele><time>2026-04-05T14:34:24Z</time></trkpt><trkpt lat="42.78970083224059" lon="13.614173922021564"><ele>711.0</ele><time>2026-04-05T14:34:25Z</time></trkpt><trkpt lat="42.789579988756834" lon="13.614237097384924"><ele>711.0</ele><time>2026-04-05T14:34:26Z</time></trkpt><trkpt lat="42.78944874220167" lon="13.614305989710216"><ele>711.0</ele><time>2026-04-05T14:34:27Z</time></trkpt><trkpt lat="42.78931878884187" lon="13.614398368443034"><ele>711.0</ele><time>2026-04-05T14:34:28Z</time></trkpt><trkpt lat="42.78918301214546" lon="13.61446600377433"><ele>710.5</ele><time>2026-04-05T14:34:29Z</time></trkpt><trkpt lat="42.789047308691664" lon="13.614509729375982"><ele>710.0</ele><time>2026-04-05T14:34:30Z</time></trkpt><trkpt lat="42.78892821531643" lon="13.61456029343193"><ele>709.5</ele><time>2026-04-05T14:34:31Z</time></trkpt><trkpt lat="42.78882974039009" lon="13.614591969529897"><ele>709.0</ele><time>2026-04-05T14:34:32Z</time></trkpt><trkpt lat="42.78874147751677" lon="13.614618490279264"><ele>709.0</ele><time>2026-04-05T14:34:33Z</time></trkpt><trkpt lat="42.7886640698874" lon="13.614558696582796"><ele>709.0</ele><time>2026-04-05T14:34:34Z</time></trkpt><trkpt lat="42.78861329374822" lon="13.614468791943542"><ele>709.0</ele><time>2026-04-05T14:34:35Z</time></trkpt><trkpt lat="42.78856738081344" lon="13.6143681687272"><ele>709.0</ele><time>2026-04-05T14:34:36Z</time></trkpt><trkpt lat="42.788511335027195" lon="13.614243773756398"><ele>709.0</ele><time>2026-04-05T14:34:37Z</time></trkpt><trkpt lat="42.78844100651479" lon="13.61416089689776"><ele>712.6666666666667</ele><time>2026-04-05T14:34:38Z</time></trkpt><trkpt lat="42.78837804197834" lon="13.614104634473373"><ele>716.3333333333334</ele><time>2026-04-05T14:34:39Z</time></trkpt><trkpt lat="42.78830312065227" lon="13.614094876072212"><ele>720.0</ele><time>2026-04-05T14:34:40Z</time></trkpt><trkpt lat="42.788227463652184" lon="13.614143895722869"><ele>723.6666666666666</ele><time>2026-04-05T14:34:41Z</time></trkpt><trkpt lat="42.788150109010495" lon="13.614227120940239"><ele>727.3333333333333</ele><time>2026-04-05T14:34:42Z</time></trkpt><trkpt lat="42.78806338013408" lon="13.614293710591781"><ele>731.0</ele><time>2026-04-05T14:34:43Z</time></trkpt><trkpt lat="42.78794929508612" lon="13.614279811222195"><ele>731.0</ele><time>2026-04-05T14:34:44Z</time></trkpt><trkpt lat="42.787830128639136" lon="13.614296858508117"><ele>731.0</ele><time>2026-04-05T14:34:45Z</time></trkpt><trkpt lat="42.78772757481422" lon="13.614283748435689"><ele>731.0</ele><time>2026-04-05T14:34:46Z</time></trkpt><trkpt lat="42.78764111121711" lon="13.61429722543959"><ele>731.0</ele><time>2026-04-05T14:34:47Z</time></trkpt><trkpt lat="42.78756510208426" lon="13.614352356510057"><ele>731.0</ele><time>2026-04-05T14:34:48Z</time></trkpt><trkpt lat="42.78751105297623" lon="13.6144502038673"><ele>731.75</ele><time>2026-04-05T14:34:49Z</time></trkpt><trkpt lat="42.7874674815866" lon="13.614589586575077"><ele>732.5</ele><time>2026-04-05T14:34:50Z</time></trkpt><trkpt lat="42.78744263742033" lon="13.61475582835061"><ele>733.25</ele><time>2026-04-05T14:34:51Z</time></trkpt><trkpt lat="42.78743156240913" lon="13.614932105799655"><ele>734.0</ele><time>2026-04-05T14:34:52Z</time></trkpt><trkpt lat="42.78742913016076" lon="13.61509101507536"><ele>734.0</ele><time>2026-04-05T14:34:53Z</time></trkpt><trkpt lat="42.787386744851396" lon="13.615219130628882"><ele>734.0</ele><time>2026-04-05T14:34:54Z</time></trkpt><trkpt lat="42.78732724992277" lon="13.615337355051016"><ele>734.0</ele><time>2026-04-05T14:34:55Z</time></trkpt><trkpt lat="42.78724594539543" lon="13.615454168465691"><ele>734.0</ele><time>2026-04-05T14:34:56Z</time></trkpt><trkpt lat="42.78716419402474" lon="13.61557440660558"><ele>734.0</ele><time>2026-04-05T14:34:57Z</time></trkpt><trkpt lat="42.787085717967564" lon="13.615686569845856"><ele>733.4000000000001</ele><time>2026-04-05T14:34:58Z</time></trkpt><trkpt lat="42.78700317164419" lon="13.615778562622252"><ele>732.8</ele><time>2026-04-05T14:34:59Z</time></trkpt><trkpt lat="42.786912248592266" lon="13.615866203401012"><ele>732.2</ele><time>2026-04-05T14:35:00Z</time></trkpt><trkpt lat="42.78681735378015" lon="13.615922275553803"><ele>731.5999999999999</ele><time>2026-04-05T14:35:01Z</time></trkpt><trkpt lat="42.78671928805347" lon="13.615935326621532"><ele>731.0</ele><time>2026-04-05T14:35:02Z</time></trkpt><trkpt lat="42.786605197424315" lon="13.615944545122385"><ele>733.75</ele><time>2026-04-05T14:35:03Z</time></trkpt><trkpt lat="42.78648061273968" lon="13.615954078522341"><ele>736.5</ele><time>2026-04-05T14:35:04Z</time></trkpt><trkpt lat="42.78635397774488" lon="13.615923614301494"><ele>739.25</ele><time>2026-04-05T14:35:05Z</time></trkpt><trkpt lat="42.78621731655757" lon="13.61593629916331"><ele>742.0</ele><time>2026-04-05T14:35:06Z</time></trkpt><trkpt lat="42.78607893115771" lon="13.615916891743938"><ele>743.6</ele><time>2026-04-05T14:35:07Z</time></trkpt><trkpt lat="42.785959377116995" lon="13.615920096434017"><ele>745.2</ele><time>2026-04-05T14:35:08Z</time></trkpt><trkpt lat="42.78585241096693" lon="13.61593037260275"><ele>746.8</ele><time>2026-04-05T14:35:09Z</time></trkpt><trkpt lat="42.785766495327266" lon="13.615957041185895"><ele>748.4</ele><time>2026-04-05T14:35:10Z</time></trkpt><trkpt lat="42.78569026208392" lon="13.616013851386542"><ele>750.0</ele><time>2026-04-05T14:35:11Z</time></trkpt><trkpt lat="42.7856364518218" lon="13.616120605023319"><ele>748.6666666666666</ele><time>2026-04-05T14:35:12Z</time></trkpt><trkpt lat="42.7856013494275" lon="13.616255173551073"><ele>747.3333333333334</ele><time>2026-04-05T14:35:13Z</time></trkpt><trkpt lat="42.785559611722995" lon="13.616370260868901"><ele>746.0</ele><time>2026-04-05T14:35:14Z</time></trkpt><trkpt lat="42.785496151434415" lon="13.616437710327293"><ele>744.6666666666667</ele><time>2026-04-05T14:35:15Z</time></trkpt><trkpt lat="42.78543268085124" lon="13.616453289464904"><ele>743.3333333333334</ele><time>2026-04-05T14:35:16Z</time></trkpt><trkpt lat="42.78535755307321" lon="13.616354961094832"><ele>742.0</ele><time>2026-04-05T14:35:18Z</time></trkpt><trkpt lat="42.785236405338125" lon="13.616267948414174"><ele>741.8</ele><time>2026-04-05T14:35:20Z</time></trkpt><trkpt lat="42.78515136198833" lon="13.616208739291132"><ele>741.6</ele><time>2026-04-05T14:35:21Z</time></trkpt><trkpt lat="42.78506201071268" lon="13.616142178165784"><ele>741.4</ele><time>2026-04-05T14:35:22Z</time></trkpt><trkpt lat="42.784977753151104" lon="13.616063351496608"><ele>741.1999999999999</ele><time>2026-04-05T14:35:23Z</time></trkpt><trkpt lat="42.78490267486104" lon="13.61597915841587"><ele>741.0</ele><time>2026-04-05T14:35:24Z</time></trkpt><trkpt lat="42.784835296527554" lon="13.6158992607452"><ele>743.1666666666666</ele><time>2026-04-05T14:35:25Z</time></trkpt><trkpt lat="42.78477633004363" lon="13.615834548155977"><ele>745.3333333333334</ele><time>2026-04-05T14:35:26Z</time></trkpt><trkpt lat="42.78470786794873" lon="13.61579253448939"><ele>747.5</ele><time>2026-04-05T14:35:27Z</time></trkpt><trkpt lat="42.78462157905917" lon="13.615784267169133"><ele>749.6666666666667</ele><time>2026-04-05T14:35:28Z</time></trkpt><trkpt lat="42.784526749912814" lon="13.615812388028841"><ele>751.8333333333334</ele><time>2026-04-05T14:35:29Z</time></trkpt><trkpt lat="42.78443223034962" lon="13.615855302179892"><ele>754.0</ele><time>2026-04-05T14:35:30Z</time></trkpt><trkpt lat="42.784337361164376" lon="13.615909115247456"><ele>753.25</ele><time>2026-04-05T14:35:31.001Z</time></trkpt><trkpt lat="42.78424178549126" lon="13.61597577105472"><ele>752.5</ele><time>2026-04-05T14:35:32.001Z</time></trkpt><trkpt lat="42.78414395206352" lon="13.616055476070958"><ele>751.75</ele><time>2026-04-05T14:35:33.001Z</time></trkpt><trkpt lat="42.78404752253232" lon="13.616141675017186"><ele>751.0</ele><time>2026-04-05T14:35:34.001Z</time></trkpt><trkpt lat="42.78395638407064" lon="13.616233542019657"><ele>751.0</ele><time>2026-04-05T14:35:35.001Z</time></trkpt><trkpt lat="42.783875982172994" lon="13.616344523692915"><ele>751.0</ele><time>2026-04-05T14:35:36.001Z</time></trkpt><trkpt lat="42.783807564449184" lon="13.616480524793447"><ele>751.0</ele><time>2026-04-05T14:35:37.001Z</time></trkpt><trkpt lat="42.78374434237502" lon="13.61660573907414"><ele>751.0</ele><time>2026-04-05T14:35:38.001Z</time></trkpt><trkpt lat="42.783683356666394" lon="13.616686826575414"><ele>751.0</ele><time>2026-04-05T14:35:39.001Z</time></trkpt><trkpt lat="42.78361362055695" lon="13.616739284337157"><ele>751.0</ele><time>2026-04-05T14:35:40.001Z</time></trkpt><trkpt lat="42.78352789619314" lon="13.61677685104215"><ele>751.0</ele><time>2026-04-05T14:35:41.001Z</time></trkpt><trkpt lat="42.78342592431864" lon="13.616819993555817"><ele>751.0</ele><time>2026-04-05T14:35:42.001Z</time></trkpt><trkpt lat="42.78331549300248" lon="13.616875053248881"><ele>751.0</ele><time>2026-04-05T14:35:43.001Z</time></trkpt><trkpt lat="42.783195835091426" lon="13.616926378879796"><ele>751.0</ele><time>2026-04-05T14:35:44.001Z</time></trkpt><trkpt lat="42.78307389960109" lon="13.61697239213683"><ele>753.25</ele><time>2026-04-05T14:35:45.001Z</time></trkpt><trkpt lat="42.78294158538058" lon="13.616998752466179"><ele>755.5</ele><time>2026-04-05T14:35:46.001Z</time></trkpt><trkpt lat="42.78280495474942" lon="13.61704083118394"><ele>757.75</ele><time>2026-04-05T14:35:47.001Z</time></trkpt><trkpt lat="42.7826738266464" lon="13.617120179746866"><ele>760.0</ele><time>2026-04-05T14:35:48.001Z</time></trkpt><trkpt lat="42.78254519094989" lon="13.617196414815727"><ele>762.8333333333334</ele><time>2026-04-05T14:35:49.001Z</time></trkpt><trkpt lat="42.78243453589207" lon="13.617246222879253"><ele>765.6666666666667</ele><time>2026-04-05T14:35:50.001Z</time></trkpt><trkpt lat="42.78235280496709" lon="13.617287782152017"><ele>768.5</ele><time>2026-04-05T14:35:51.001Z</time></trkpt><trkpt lat="42.78229470925288" lon="13.61733946826288"><ele>771.3333333333334</ele><time>2026-04-05T14:35:52Z</time></trkpt><trkpt lat="42.78225608570823" lon="13.617412604538062"><ele>774.1666666666666</ele><time>2026-04-05T14:35:53Z</time></trkpt><trkpt lat="42.78222185403338" lon="13.617489863455612"><ele>777.0</ele><time>2026-04-05T14:35:54Z</time></trkpt><trkpt lat="42.78222484866007" lon="13.617603471486335"><ele>777.0</ele><time>2026-04-05T14:35:55Z</time></trkpt><trkpt lat="42.78227438447037" lon="13.617718983841774"><ele>777.0</ele><time>2026-04-05T14:35:56Z</time></trkpt><trkpt lat="42.78228331600022" lon="13.617845036558858"><ele>777.0</ele><time>2026-04-05T14:35:57Z</time></trkpt><trkpt lat="42.782283848662004" lon="13.617939048124757"><ele>777.0</ele><time>2026-04-05T14:35:58Z</time></trkpt><trkpt lat="42.78221714291706" lon="13.618047373292846"><ele>777.0</ele><time>2026-04-05T14:36:00Z</time></trkpt><trkpt lat="42.78207887230513" lon="13.618029253237111"><ele>775.6</ele><time>2026-04-05T14:36:02Z</time></trkpt><trkpt lat="42.7819913435615" lon="13.617984996481802"><ele>774.2</ele><time>2026-04-05T14:36:03Z</time></trkpt><trkpt lat="42.78189629391991" lon="13.617917395439424"><ele>772.8</ele><time>2026-04-05T14:36:04Z</time></trkpt><trkpt lat="42.7817988476429" lon="13.61784359182134"><ele>771.4</ele><time>2026-04-05T14:36:05Z</time></trkpt><trkpt lat="42.78170381872392" lon="13.617761660371567"><ele>770.0</ele><time>2026-04-05T14:36:06Z</time></trkpt><trkpt lat="42.781603317708914" lon="13.61767162651172"><ele>775.0</ele><time>2026-04-05T14:36:07Z</time></trkpt><trkpt lat="42.78150159085107" lon="13.617580348327202"><ele>780.0</ele><time>2026-04-05T14:36:08Z</time></trkpt><trkpt lat="42.7814025074058" lon="13.617477062070181"><ele>785.0</ele><time>2026-04-05T14:36:09Z</time></trkpt><trkpt lat="42.78131178440973" lon="13.61737266443007"><ele>790.0</ele><time>2026-04-05T14:36:10Z</time></trkpt><trkpt lat="42.781228507220796" lon="13.617267600537405"><ele>790.0</ele><time>2026-04-05T14:36:11Z</time></trkpt><trkpt lat="42.781149830280775" lon="13.61717642247867"><ele>790.0</ele><time>2026-04-05T14:36:12Z</time></trkpt><trkpt lat="42.781064152804696" lon="13.617120964293424"><ele>790.0</ele><time>2026-04-05T14:36:13Z</time></trkpt><trkpt lat="42.78096782578802" lon="13.617089359011675"><ele>790.0</ele><time>2026-04-05T14:36:14Z</time></trkpt><trkpt lat="42.780862500949716" lon="13.617052290353385"><ele>790.0</ele><time>2026-04-05T14:36:15Z</time></trkpt><trkpt lat="42.7807507199891" lon="13.617013726979323"><ele>788.8</ele><time>2026-04-05T14:36:16Z</time></trkpt><trkpt lat="42.78063393789817" lon="13.616994533337865"><ele>787.6</ele><time>2026-04-05T14:36:17Z</time></trkpt><trkpt lat="42.78052442095144" lon="13.616987423782097"><ele>786.4000000000001</ele><time>2026-04-05T14:36:18Z</time></trkpt><trkpt lat="42.780421001561" lon="13.616967096270079"><ele>785.2</ele><time>2026-04-05T14:36:19Z</time></trkpt><trkpt lat="42.78032212726685" lon="13.616930071634114"><ele>784.0</ele><time>2026-04-05T14:36:20Z</time></trkpt><trkpt lat="42.780222747839694" lon="13.616877784674367"><ele>789.0</ele><time>2026-04-05T14:36:21Z</time></trkpt><trkpt lat="42.7801315594414" lon="13.616803540723502"><ele>794.0</ele><time>2026-04-05T14:36:22Z</time></trkpt><trkpt lat="42.7800485511467" lon="13.616716503473663"><ele>799.0</ele><time>2026-04-05T14:36:23Z</time></trkpt><trkpt lat="42.779963646921935" lon="13.616659549403433"><ele>804.0</ele><time>2026-04-05T14:36:24Z</time></trkpt><trkpt lat="42.77986327150078" lon="13.61665129266138"><ele>809.0</ele><time>2026-04-05T14:36:25Z</time></trkpt><trkpt lat="42.77975546269901" lon="13.616683472057305"><ele>809.0</ele><time>2026-04-05T14:36:26Z</time></trkpt><trkpt lat="42.779643345577" lon="13.616724045380685"><ele>809.0</ele><time>2026-04-05T14:36:27Z</time></trkpt><trkpt lat="42.779540868866704" lon="13.616754958062446"><ele>809.0</ele><time>2026-04-05T14:36:28Z</time></trkpt><trkpt lat="42.77946368154103" lon="13.616759557030605"><ele>809.0</ele><time>2026-04-05T14:36:29Z</time></trkpt><trkpt lat="42.779393039867244" lon="13.616671916459252"><ele>809.0</ele><time>2026-04-05T14:36:31Z</time></trkpt><trkpt lat="42.77944396020579" lon="13.616526219919136"><ele>809.0</ele><time>2026-04-05T14:36:33Z</time></trkpt><trkpt lat="42.77952060959282" lon="13.61650594263562"><ele>809.0</ele><time>2026-04-05T14:36:34Z</time></trkpt><trkpt lat="42.77960136733154" lon="13.61647437344462"><ele>809.0</ele><time>2026-04-05T14:36:35Z</time></trkpt><trkpt lat="42.77969935088289" lon="13.616445316624313"><ele>809.0</ele><time>2026-04-05T14:36:36Z</time></trkpt><trkpt lat="42.779808011786685" lon="13.616415030020162"><ele>809.0</ele><time>2026-04-05T14:36:37Z</time></trkpt><trkpt lat="42.7799213702855" lon="13.616393503468096"><ele>809.0</ele><time>2026-04-05T14:36:38Z</time></trkpt><trkpt lat="42.78003193149934" lon="13.616398607816281"><ele>809.0</ele><time>2026-04-05T14:36:39Z</time></trkpt><trkpt lat="42.7801444996285" lon="13.616447907960787"><ele>809.0</ele><time>2026-04-05T14:36:40Z</time></trkpt><trkpt lat="42.78025644550216" lon="13.616485258357867"><ele>809.0</ele><time>2026-04-05T14:36:41Z</time></trkpt><trkpt lat="42.78036780772146" lon="13.616485390090098"><ele>809.75</ele><time>2026-04-05T14:36:42Z</time></trkpt><trkpt lat="42.7804837535843" lon="13.616469647546593"><ele>810.5</ele><time>2026-04-05T14:36:43Z</time></trkpt><trkpt lat="42.780608071036696" lon="13.616428883670183"><ele>811.25</ele><time>2026-04-05T14:36:44Z</time></trkpt><trkpt lat="42.78073722706872" lon="13.61638591243303"><ele>812.0</ele><time>2026-04-05T14:36:45Z</time></trkpt><trkpt lat="42.78087032711007" lon="13.616361169823865"><ele>812.0</ele><time>2026-04-05T14:36:46Z</time></trkpt><trkpt lat="42.78100040768563" lon="13.61641017718201"><ele>812.0</ele><time>2026-04-05T14:36:47Z</time></trkpt><trkpt lat="42.78113135697582" lon="13.616427899069762"><ele>812.0</ele><time>2026-04-05T14:36:48Z</time></trkpt><trkpt lat="42.781243729466226" lon="13.616462753131543"><ele>812.0</ele><time>2026-04-05T14:36:49Z</time></trkpt><trkpt lat="42.7813451311599" lon="13.616453091035373"><ele>812.25</ele><time>2026-04-05T14:36:50Z</time></trkpt><trkpt lat="42.781445669549456" lon="13.616404794165614"><ele>812.5</ele><time>2026-04-05T14:36:51Z</time></trkpt><trkpt lat="42.7815560222027" lon="13.616333754100047"><ele>812.75</ele><time>2026-04-05T14:36:52Z</time></trkpt><trkpt lat="42.78167262681398" lon="13.616257540303485"><ele>813.0</ele><time>2026-04-05T14:36:53Z</time></trkpt><trkpt lat="42.7818025075981" lon="13.616209066060584"><ele>817.25</ele><time>2026-04-05T14:36:54Z</time></trkpt><trkpt lat="42.78192022701917" lon="13.616112677775423"><ele>821.5</ele><time>2026-04-05T14:36:55Z</time></trkpt><trkpt lat="42.78204593217024" lon="13.616019923702138"><ele>825.75</ele><time>2026-04-05T14:36:56Z</time></trkpt><trkpt lat="42.78217113087957" lon="13.615914073520022"><ele>830.0</ele><time>2026-04-05T14:36:57Z</time></trkpt><trkpt lat="42.782281284793136" lon="13.61581284819464"><ele>830.0000000000001</ele><time>2026-04-05T14:36:58Z</time></trkpt><trkpt lat="42.78237067501927" lon="13.615734483817574"><ele>830.0</ele><time>2026-04-05T14:36:59Z</time></trkpt><trkpt lat="42.782435555873526" lon="13.615674799338608"><ele>830.0</ele><time>2026-04-05T14:37:00Z</time></trkpt><trkpt lat="42.78248047868418" lon="13.615606198214895"><ele>830.0</ele><time>2026-04-05T14:37:01Z</time></trkpt><trkpt lat="42.78251122073413" lon="13.615508199173755"><ele>830.0000000000001</ele><time>2026-04-05T14:37:02Z</time></trkpt><trkpt lat="42.78253714798223" lon="13.615384503649617"><ele>830.0</ele><time>2026-04-05T14:37:03Z</time></trkpt><trkpt lat="42.782563855263675" lon="13.615256900175286"><ele>832.8333333333334</ele><time>2026-04-05T14:37:04Z</time></trkpt><trkpt lat="42.78259024802648" lon="13.615143514928238"><ele>835.6666666666667</ele><time>2026-04-05T14:37:05Z</time></trkpt><trkpt lat="42.78260472039603" lon="13.615046115897842"><ele>838.5</ele><time>2026-04-05T14:37:06Z</time></trkpt><trkpt lat="42.78256383752351" lon="13.614912478102353"><ele>841.3333333333333</ele><time>2026-04-05T14:37:08Z</time></trkpt><trkpt lat="42.78249272183232" lon="13.614910586152238"><ele>844.1666666666666</ele><time>2026-04-05T14:37:09Z</time></trkpt><trkpt lat="42.78242765469557" lon="13.614976919137218"><ele>847.0</ele><time>2026-04-05T14:37:10Z</time></trkpt><trkpt lat="42.782410387930284" lon="13.615125574903223"><ele>847.0</ele><time>2026-04-05T14:37:11Z</time></trkpt><trkpt lat="42.78239365330951" lon="13.615255022466043"><ele>847.0</ele><time>2026-04-05T14:37:12Z</time></trkpt><trkpt lat="42.78235115304237" lon="13.615369682861585"><ele>847.0</ele><time>2026-04-05T14:37:13Z</time></trkpt><trkpt lat="42.78229352369642" lon="13.615443283458763"><ele>847.0</ele><time>2026-04-05T14:37:14Z</time></trkpt><trkpt lat="42.782174400849115" lon="13.615428205280498"><ele>847.0</ele><time>2026-04-05T14:37:16Z</time></trkpt><trkpt lat="42.78210320081987" lon="13.61538148296268"><ele>847.0</ele><time>2026-04-05T14:37:17Z</time></trkpt><trkpt lat="42.78202685595205" lon="13.615313120424636"><ele>847.0</ele><time>2026-04-05T14:37:18Z</time></trkpt><trkpt lat="42.78193644357289" lon="13.615263002819546"><ele>847.0</ele><time>2026-04-05T14:37:19Z</time></trkpt><trkpt lat="42.78185530193261" lon="13.615206273547297"><ele>847.0</ele><time>2026-04-05T14:37:20Z</time></trkpt><trkpt lat="42.78177659132124" lon="13.615147587824271"><ele>847.0</ele><time>2026-04-05T14:37:21Z</time></trkpt><trkpt lat="42.78169381218221" lon="13.615095487180106"><ele>848.8333333333333</ele><time>2026-04-05T14:37:22Z</time></trkpt><trkpt lat="42.78160794380152" lon="13.615050995477903"><ele>850.6666666666666</ele><time>2026-04-05T14:37:23Z</time></trkpt><trkpt lat="42.781526936604955" lon="13.615026513727921"><ele>852.5</ele><time>2026-04-05T14:37:24Z</time></trkpt><trkpt lat="42.78145509916565" lon="13.615010800696464"><ele>854.3333333333333</ele><time>2026-04-05T14:37:25Z</time></trkpt><trkpt lat="42.78139939457502" lon="13.614923705318201"><ele>856.1666666666666</ele><time>2026-04-05T14:37:27Z</time></trkpt><trkpt lat="42.78145484281396" lon="13.614812048391315"><ele>858.0</ele><time>2026-04-05T14:37:29Z</time></trkpt><trkpt lat="42.78152316574435" lon="13.614853336775012"><ele>858.0</ele><time>2026-04-05T14:37:30Z</time></trkpt><trkpt lat="42.781610327143525" lon="13.614869676184691"><ele>858.0</ele><time>2026-04-05T14:37:31Z</time></trkpt><trkpt lat="42.781700330202256" lon="13.614888691523728"><ele>858.0</ele><time>2026-04-05T14:37:32Z</time></trkpt><trkpt lat="42.781793374558305" lon="13.614906609377103"><ele>858.0</ele><time>2026-04-05T14:37:33Z</time></trkpt><trkpt lat="42.78189092781699" lon="13.614904947475333"><ele>858.0</ele><time>2026-04-05T14:37:34Z</time></trkpt><trkpt lat="42.78198409027761" lon="13.614883810213676"><ele>855.25</ele><time>2026-04-05T14:37:35Z</time></trkpt><trkpt lat="42.782086243666086" lon="13.614836972472952"><ele>852.5</ele><time>2026-04-05T14:37:36Z</time></trkpt><trkpt lat="42.78219453867619" lon="13.614745753593336"><ele>849.75</ele><time>2026-04-05T14:37:37.001Z</time></trkpt><trkpt lat="42.78230237457749" lon="13.614633444609463"><ele>847.0</ele><time>2026-04-05T14:37:38.001Z</time></trkpt><trkpt lat="42.78238213653958" lon="13.614516312375123"><ele>851.6</ele><time>2026-04-05T14:37:39.001Z</time></trkpt><trkpt lat="42.782451357994084" lon="13.614409383777199"><ele>856.2</ele><time>2026-04-05T14:37:40.001Z</time></trkpt><trkpt lat="42.78251778857863" lon="13.614278681217375"><ele>860.8</ele><time>2026-04-05T14:37:41.001Z</time></trkpt><trkpt lat="42.78255702145563" lon="13.614121801886302"><ele>865.4</ele><time>2026-04-05T14:37:43.001Z</time></trkpt><trkpt lat="42.78258009449624" lon="13.613996463990816"><ele>870.0</ele><time>2026-04-05T14:37:44.001Z</time></trkpt><trkpt lat="42.782642133875775" lon="13.61387585536159"><ele>868.2</ele><time>2026-04-05T14:37:45.001Z</time></trkpt><trkpt lat="42.782744919930344" lon="13.61380934233197"><ele>866.4</ele><time>2026-04-05T14:37:46.001Z</time></trkpt><trkpt lat="42.78285254444838" lon="13.613731802349925"><ele>864.5999999999999</ele><time>2026-04-05T14:37:47.001Z</time></trkpt><trkpt lat="42.78291611750365" lon="13.613638751277904"><ele>862.8</ele><time>2026-04-05T14:37:48.001Z</time></trkpt><trkpt lat="42.78297906502304" lon="13.613543123371745"><ele>861.0</ele><time>2026-04-05T14:37:49.001Z</time></trkpt><trkpt lat="42.78302459532169" lon="13.613391775283384"><ele>861.0</ele><time>2026-04-05T14:37:50.001Z</time></trkpt><trkpt lat="42.78304974687513" lon="13.613212843311512"><ele>861.0</ele><time>2026-04-05T14:37:51.001Z</time></trkpt><trkpt lat="42.783086400116005" lon="13.613031814451295"><ele>861.0</ele><time>2026-04-05T14:37:52.001Z</time></trkpt><trkpt lat="42.7831299497899" lon="13.612855819289722"><ele>861.0</ele><time>2026-04-05T14:37:53.001Z</time></trkpt><trkpt lat="42.78317210666231" lon="13.612707325189158"><ele>863.0</ele><time>2026-04-05T14:37:54.001Z</time></trkpt><trkpt lat="42.78320369910166" lon="13.612594536629732"><ele>865.0</ele><time>2026-04-05T14:37:55.001Z</time></trkpt><trkpt lat="42.783225265190474" lon="13.612460079033777"><ele>867.0</ele><time>2026-04-05T14:37:57Z</time></trkpt><trkpt lat="42.78314243499853" lon="13.61237710680755"><ele>869.0</ele><time>2026-04-05T14:37:59Z</time></trkpt><trkpt lat="42.78307934811043" lon="13.612391053263343"><ele>871.0</ele><time>2026-04-05T14:38:00Z</time></trkpt><trkpt lat="42.783016216731816" lon="13.612414830681674"><ele>873.0</ele><time>2026-04-05T14:38:01Z</time></trkpt><trkpt lat="42.782978340417756" lon="13.61250284789533"><ele>873.0</ele><time>2026-04-05T14:38:02Z</time></trkpt><trkpt lat="42.78294234921255" lon="13.612599867974698"><ele>873.0</ele><time>2026-04-05T14:38:03Z</time></trkpt><trkpt lat="42.78291505834269" lon="13.612724296425485"><ele>873.0</ele><time>2026-04-05T14:38:04Z</time></trkpt><trkpt lat="42.78286907827856" lon="13.61284840762987"><ele>873.0</ele><time>2026-04-05T14:38:05Z</time></trkpt><trkpt lat="42.78279058512478" lon="13.61295402497584"><ele>873.0</ele><time>2026-04-05T14:38:06Z</time></trkpt><trkpt lat="42.78272359892966" lon="13.61309106522116"><ele>877.2</ele><time>2026-04-05T14:38:07Z</time></trkpt><trkpt lat="42.78263694749954" lon="13.613212042815913"><ele>881.4</ele><time>2026-04-05T14:38:08Z</time></trkpt><trkpt lat="42.78257236858509" lon="13.613329242020038"><ele>885.6000000000001</ele><time>2026-04-05T14:38:09Z</time></trkpt><trkpt lat="42.78252198533084" lon="13.613414696009187"><ele>889.8000000000001</ele><time>2026-04-05T14:38:10Z</time></trkpt><trkpt lat="42.78244798762528" lon="13.613459609512983"><ele>894.0</ele><time>2026-04-05T14:38:12Z</time></trkpt><trkpt lat="42.782405334037996" lon="13.61335480996845"><ele>894.0</ele><time>2026-04-05T14:38:14Z</time></trkpt><trkpt lat="42.782486377590345" lon="13.613248547632146"><ele>894.0000000000001</ele><time>2026-04-05T14:38:16Z</time></trkpt><trkpt lat="42.78254926412904" lon="13.613164571666513"><ele>894.0000000000001</ele><time>2026-04-05T14:38:17Z</time></trkpt><trkpt lat="42.78260042757894" lon="13.613052601576559"><ele>894.0</ele><time>2026-04-05T14:38:18Z</time></trkpt><trkpt lat="42.78264966434663" lon="13.612921177933348"><ele>894.0</ele><time>2026-04-05T14:38:19Z</time></trkpt><trkpt lat="42.782687795435955" lon="13.612764621877897"><ele>888.75</ele><time>2026-04-05T14:38:20Z</time></trkpt><trkpt lat="42.782733648671716" lon="13.612597569388102"><ele>883.5</ele><time>2026-04-05T14:38:21Z</time></trkpt><trkpt lat="42.78278019146434" lon="13.612426161836074"><ele>878.25</ele><time>2026-04-05T14:38:22Z</time></trkpt><trkpt lat="42.78284884273005" lon="13.612276152248134"><ele>873.0</ele><time>2026-04-05T14:38:23Z</time></trkpt><trkpt lat="42.78290557795247" lon="13.612150665103064"><ele>873.0</ele><time>2026-04-05T14:38:24Z</time></trkpt><trkpt lat="42.78295124521353" lon="13.612060777612124"><ele>873.0</ele><time>2026-04-05T14:38:25Z</time></trkpt><trkpt lat="42.78298801674447" lon="13.611938622910873"><ele>873.0</ele><time>2026-04-05T14:38:27Z</time></trkpt><trkpt lat="42.78292688732878" lon="13.611844840917843"><ele>873.0</ele><time>2026-04-05T14:38:29Z</time></trkpt><trkpt lat="42.782863147948156" lon="13.611852531048012"><ele>873.0</ele><time>2026-04-05T14:38:30Z</time></trkpt><trkpt lat="42.78280760773604" lon="13.611907296812074"><ele>873.0</ele><time>2026-04-05T14:38:31Z</time></trkpt><trkpt lat="42.7827712520756" lon="13.611998553325108"><ele>873.0</ele><time>2026-04-05T14:38:32Z</time></trkpt><trkpt lat="42.78272186211126" lon="13.612122571620029"><ele>873.0</ele><time>2026-04-05T14:38:33Z</time></trkpt><trkpt lat="42.78267505195311" lon="13.612261536254552"><ele>873.0</ele><time>2026-04-05T14:38:34Z</time></trkpt><trkpt lat="42.782613435371715" lon="13.612407474958818"><ele>873.0</ele><time>2026-04-05T14:38:35Z</time></trkpt><trkpt lat="42.7825453468292" lon="13.6125347001622"><ele>878.25</ele><time>2026-04-05T14:38:36Z</time></trkpt><trkpt lat="42.78247261503755" lon="13.61266174905319"><ele>883.5</ele><time>2026-04-05T14:38:37Z</time></trkpt><trkpt lat="42.7823985977801" lon="13.612788054763369"><ele>888.75</ele><time>2026-04-05T14:38:38Z</time></trkpt><trkpt lat="42.782319080959695" lon="13.612910590656996"><ele>894.0</ele><time>2026-04-05T14:38:39Z</time></trkpt><trkpt lat="42.782224460829994" lon="13.613027635796417"><ele>894.0</ele><time>2026-04-05T14:38:40Z</time></trkpt><trkpt lat="42.782121043658634" lon="13.61314009917542"><ele>894.0</ele><time>2026-04-05T14:38:41Z</time></trkpt><trkpt lat="42.78201339518101" lon="13.613249324063085"><ele>894.0</ele><time>2026-04-05T14:38:42Z</time></trkpt><trkpt lat="42.781915634806154" lon="13.613353447231432"><ele>894.0</ele><time>2026-04-05T14:38:43Z</time></trkpt><trkpt lat="42.78181982817187" lon="13.613456432997006"><ele>893.75</ele><time>2026-04-05T14:38:44Z</time></trkpt><trkpt lat="42.78171951868998" lon="13.613553582927356"><ele>893.5</ele><time>2026-04-05T14:38:45Z</time></trkpt><trkpt lat="42.781600756347835" lon="13.613612607757576"><ele>893.25</ele><time>2026-04-05T14:38:46Z</time></trkpt><trkpt lat="42.781479588435616" lon="13.613680108989977"><ele>893.0</ele><time>2026-04-05T14:38:47Z</time></trkpt><trkpt lat="42.78136738378179" lon="13.613762925113914"><ele>893.0</ele><time>2026-04-05T14:38:48Z</time></trkpt><trkpt lat="42.781239080513814" lon="13.613768499257043"><ele>893.0</ele><time>2026-04-05T14:38:49Z</time></trkpt><trkpt lat="42.781101578008524" lon="13.613766791220222"><ele>893.0</ele><time>2026-04-05T14:38:50Z</time></trkpt><trkpt lat="42.780962945889634" lon="13.613792825339225"><ele>893.0</ele><time>2026-04-05T14:38:51Z</time></trkpt><trkpt lat="42.78081746517068" lon="13.61380562510937"><ele>898.25</ele><time>2026-04-05T14:38:52Z</time></trkpt><trkpt lat="42.780679181589306" lon="13.613833401125634"><ele>903.5</ele><time>2026-04-05T14:38:53Z</time></trkpt><trkpt lat="42.780550997870165" lon="13.613858402886732"><ele>908.75</ele><time>2026-04-05T14:38:54Z</time></trkpt><trkpt lat="42.78042353865285" lon="13.613865804813381"><ele>914.0</ele><time>2026-04-05T14:38:55Z</time></trkpt><trkpt lat="42.78029430733855" lon="13.613881093754673"><ele>914.25</ele><time>2026-04-05T14:38:56Z</time></trkpt><trkpt lat="42.7801683094125" lon="13.61387423601548"><ele>914.5</ele><time>2026-04-05T14:38:57Z</time></trkpt><trkpt lat="42.780058198592144" lon="13.6138512132021"><ele>914.75</ele><time>2026-04-05T14:38:58Z</time></trkpt><trkpt lat="42.77994986235953" lon="13.613809153506464"><ele>915.0</ele><time>2026-04-05T14:38:59Z</time></trkpt><trkpt lat="42.77984830522592" lon="13.61373330408511"><ele>923.25</ele><time>2026-04-05T14:39:00Z</time></trkpt><trkpt lat="42.77975472672645" lon="13.613624312715572"><ele>931.5</ele><time>2026-04-05T14:39:01Z</time></trkpt><trkpt lat="42.77966160462671" lon="13.613518332459218"><ele>939.75</ele><time>2026-04-05T14:39:02Z</time></trkpt><trkpt lat="42.77955962946834" lon="13.613416823406006"><ele>948.0</ele><time>2026-04-05T14:39:03Z</time></trkpt><trkpt lat="42.77944964832637" lon="13.61333847251371"><ele>946.0</ele><time>2026-04-05T14:39:04Z</time></trkpt><trkpt lat="42.77932804691925" lon="13.613290615629223"><ele>944.0</ele><time>2026-04-05T14:39:05Z</time></trkpt><trkpt lat="42.779196924910444" lon="13.613263959888776"><ele>942.0</ele><time>2026-04-05T14:39:06Z</time></trkpt><trkpt lat="42.77905979703219" lon="13.61325662125436"><ele>940.0</ele><time>2026-04-05T14:39:07Z</time></trkpt><trkpt lat="42.77892481946236" lon="13.613252815316566"><ele>940.0</ele><time>2026-04-05T14:39:08Z</time></trkpt><trkpt lat="42.77879279582115" lon="13.613255385135773"><ele>940.0</ele><time>2026-04-05T14:39:09Z</time></trkpt><trkpt lat="42.77866177486138" lon="13.613261211547075"><ele>940.0</ele><time>2026-04-05T14:39:10Z</time></trkpt><trkpt lat="42.778536358807784" lon="13.613307139964638"><ele>940.0</ele><time>2026-04-05T14:39:11Z</time></trkpt><trkpt lat="42.77840939641024" lon="13.61334430818649"><ele>941.6</ele><time>2026-04-05T14:39:12Z</time></trkpt><trkpt lat="42.778288123907124" lon="13.613368645421417"><ele>943.2</ele><time>2026-04-05T14:39:13Z</time></trkpt><trkpt lat="42.778172162390504" lon="13.613391140009133"><ele>944.8</ele><time>2026-04-05T14:39:14Z</time></trkpt><trkpt lat="42.77806409382599" lon="13.613413667691695"><ele>946.4</ele><time>2026-04-05T14:39:15Z</time></trkpt><trkpt lat="42.77797362736553" lon="13.613434546661619"><ele>948.0</ele><time>2026-04-05T14:39:16Z</time></trkpt><trkpt lat="42.77790083543243" lon="13.613451402834789"><ele>948.0</ele><time>2026-04-05T14:39:17Z</time></trkpt><trkpt lat="42.77783121873679" lon="13.61343251341146"><ele>948.0</ele><time>2026-04-05T14:39:19Z</time></trkpt><trkpt lat="42.777836384423665" lon="13.613337849123575"><ele>948.0</ele><time>2026-04-05T14:39:22Z</time></trkpt><trkpt lat="42.77789349114588" lon="13.613287157742093"><ele>948.0</ele><time>2026-04-05T14:39:24Z</time></trkpt><trkpt lat="42.77797347011936" lon="13.613261849135972"><ele>948.0</ele><time>2026-04-05T14:39:26Z</time></trkpt><trkpt lat="42.77810136027992" lon="13.61323760778533"><ele>948.0</ele><time>2026-04-05T14:39:28Z</time></trkpt><trkpt lat="42.77817814897097" lon="13.613201013215333"><ele>948.0</ele><time>2026-04-05T14:39:29Z</time></trkpt><trkpt lat="42.77825767410366" lon="13.613151431085939"><ele>948.0</ele><time>2026-04-05T14:39:30Z</time></trkpt><trkpt lat="42.77833358097761" lon="13.613110774283495"><ele>948.0</ele><time>2026-04-05T14:39:31Z</time></trkpt><trkpt lat="42.77840652007096" lon="13.613071253716825"><ele>948.0</ele><time>2026-04-05T14:39:32Z</time></trkpt><trkpt lat="42.7784775022879" lon="13.613030628661118"><ele>948.0</ele><time>2026-04-05T14:39:33Z</time></trkpt><trkpt lat="42.778545927812246" lon="13.612993177393326"><ele>948.0</ele><time>2026-04-05T14:39:34Z</time></trkpt><trkpt lat="42.77861686278284" lon="13.612960487018531"><ele>946.4</ele><time>2026-04-05T14:39:35Z</time></trkpt><trkpt lat="42.77870004945834" lon="13.612925059538012"><ele>944.8</ele><time>2026-04-05T14:39:36Z</time></trkpt><trkpt lat="42.77879343854241" lon="13.612891367160797"><ele>943.2</ele><time>2026-04-05T14:39:37Z</time></trkpt><trkpt lat="42.778888507233404" lon="13.61285815660796"><ele>941.6</ele><time>2026-04-05T14:39:38Z</time></trkpt><trkpt lat="42.7789885800751" lon="13.612830974020907"><ele>940.0</ele><time>2026-04-05T14:39:39Z</time></trkpt><trkpt lat="42.779095279938474" lon="13.612809972381466"><ele>950.25</ele><time>2026-04-05T14:39:40Z</time></trkpt><trkpt lat="42.77921044484221" lon="13.612795777084916"><ele>960.5</ele><time>2026-04-05T14:39:41Z</time></trkpt><trkpt lat="42.77933024504856" lon="13.61278277988096"><ele>970.75</ele><time>2026-04-05T14:39:42Z</time></trkpt><trkpt lat="42.77945465588821" lon="13.612755857907398"><ele>981.0</ele><time>2026-04-05T14:39:43.001Z</time></trkpt><trkpt lat="42.77956912972918" lon="13.612762446432379"><ele>982.1999999999999</ele><time>2026-04-05T14:39:44.001Z</time></trkpt><trkpt lat="42.77968568789339" lon="13.612775938752074"><ele>983.3999999999999</ele><time>2026-04-05T14:39:45.001Z</time></trkpt><trkpt lat="42.77979087895107" lon="13.61280930331204"><ele>984.6</ele><time>2026-04-05T14:39:46.001Z</time></trkpt><trkpt lat="42.77989679531565" lon="13.612845299153893"><ele>985.8</ele><time>2026-04-05T14:39:47.001Z</time></trkpt><trkpt lat="42.779998268350624" lon="13.612877711465195"><ele>987.0</ele><time>2026-04-05T14:39:48.001Z</time></trkpt><trkpt lat="42.78010382072924" lon="13.612880987495041"><ele>984.5</ele><time>2026-04-05T14:39:49.001Z</time></trkpt><trkpt lat="42.7802178273751" lon="13.612857778881471"><ele>982.0</ele><time>2026-04-05T14:39:50.001Z</time></trkpt><trkpt lat="42.78033600514755" lon="13.61281156513946"><ele>979.5</ele><time>2026-04-05T14:39:51.001Z</time></trkpt><trkpt lat="42.780456955115994" lon="13.612744751159322"><ele>977.0</ele><time>2026-04-05T14:39:52.001Z</time></trkpt><trkpt lat="42.78058186088213" lon="13.612668492189252"><ele>977.0</ele><time>2026-04-05T14:39:53.001Z</time></trkpt><trkpt lat="42.78070590416916" lon="13.612586916409944"><ele>977.0</ele><time>2026-04-05T14:39:54.001Z</time></trkpt><trkpt lat="42.78082726518777" lon="13.61249183090476"><ele>977.0</ele><time>2026-04-05T14:39:55.001Z</time></trkpt><trkpt lat="42.78094219766166" lon="13.612381611834023"><ele>977.0</ele><time>2026-04-05T14:39:56.001Z</time></trkpt><trkpt lat="42.78104945121566" lon="13.612267352723636"><ele>977.25</ele><time>2026-04-05T14:39:57.001Z</time></trkpt><trkpt lat="42.7811579343603" lon="13.612145948497158"><ele>977.5</ele><time>2026-04-05T14:39:58.001Z</time></trkpt><trkpt lat="42.78125720866473" lon="13.612021356070422"><ele>977.75</ele><time>2026-04-05T14:39:59.001Z</time></trkpt><trkpt lat="42.7813529096824" lon="13.611878582681202"><ele>978.0</ele><time>2026-04-05T14:40:00.001Z</time></trkpt><trkpt lat="42.781442824546545" lon="13.611725931916274"><ele>978.0</ele><time>2026-04-05T14:40:01.001Z</time></trkpt><trkpt lat="42.781524895388145" lon="13.61156320763272"><ele>978.0</ele><time>2026-04-05T14:40:02.001Z</time></trkpt><trkpt lat="42.78160322511905" lon="13.61139997055354"><ele>978.0</ele><time>2026-04-05T14:40:03Z</time></trkpt><trkpt lat="42.781672399689995" lon="13.611234711832255"><ele>978.0</ele><time>2026-04-05T14:40:04Z</time></trkpt><trkpt lat="42.78175001188074" lon="13.611077037184778"><ele>972.5</ele><time>2026-04-05T14:40:05Z</time></trkpt><trkpt lat="42.78181738006029" lon="13.610915952148595"><ele>967.0</ele><time>2026-04-05T14:40:06Z</time></trkpt><trkpt lat="42.781875713093356" lon="13.610742559589204"><ele>961.5</ele><time>2026-04-05T14:40:07Z</time></trkpt><trkpt lat="42.78192211048479" lon="13.610556386925074"><ele>956.0</ele><time>2026-04-05T14:40:08Z</time></trkpt><trkpt lat="42.781966267630345" lon="13.610359089599378"><ele>961.0</ele><time>2026-04-05T14:40:09Z</time></trkpt><trkpt lat="42.78202200655427" lon="13.610154181842992"><ele>966.0</ele><time>2026-04-05T14:40:10Z</time></trkpt><trkpt lat="42.78203825301617" lon="13.609956983513154"><ele>971.0</ele><time>2026-04-05T14:40:11Z</time></trkpt><trkpt lat="42.782063340658915" lon="13.60976399364071"><ele>971.0</ele><time>2026-04-05T14:40:12Z</time></trkpt><trkpt lat="42.782085303700214" lon="13.60956225554183"><ele>971.0</ele><time>2026-04-05T14:40:13Z</time></trkpt><trkpt lat="42.78210959458975" lon="13.609360350324641"><ele>971.0</ele><time>2026-04-05T14:40:14Z</time></trkpt><trkpt lat="42.782136612113646" lon="13.609161858583144"><ele>971.0</ele><time>2026-04-05T14:40:15Z</time></trkpt><trkpt lat="42.782160277507955" lon="13.608963636112751"><ele>975.0</ele><time>2026-04-05T14:40:16Z</time></trkpt><trkpt lat="42.78217959067402" lon="13.608771074523077"><ele>979.0</ele><time>2026-04-05T14:40:17Z</time></trkpt><trkpt lat="42.78220084567718" lon="13.608586052659597"><ele>983.0</ele><time>2026-04-05T14:40:18Z</time></trkpt><trkpt lat="42.78222026177335" lon="13.60841082226859"><ele>987.0</ele><time>2026-04-05T14:40:19Z</time></trkpt><trkpt lat="42.782228301250875" lon="13.608242844548581"><ele>989.8</ele><time>2026-04-05T14:40:20Z</time></trkpt><trkpt lat="42.782219786008284" lon="13.608088841203042"><ele>992.6</ele><time>2026-04-05T14:40:21Z</time></trkpt><trkpt lat="42.7822310811272" lon="13.60794928727036"><ele>995.3999999999999</ele><time>2026-04-05T14:40:22Z</time></trkpt><trkpt lat="42.78223283911093" lon="13.607835602916927"><ele>998.1999999999999</ele><time>2026-04-05T14:40:23Z</time></trkpt><trkpt lat="42.78223729762089" lon="13.607736306496065"><ele>1001.0</ele><time>2026-04-05T14:40:24Z</time></trkpt><trkpt lat="42.78229539461064" lon="13.607665522065217"><ele>1005.4</ele><time>2026-04-05T14:40:25Z</time></trkpt><trkpt lat="42.78237837133808" lon="13.6076260381168"><ele>1009.8</ele><time>2026-04-05T14:40:26Z</time></trkpt><trkpt lat="42.78248848338554" lon="13.60760538605526"><ele>1014.1999999999999</ele><time>2026-04-05T14:40:27Z</time></trkpt><trkpt lat="42.782590056085105" lon="13.607588312086541"><ele>1018.5999999999999</ele><time>2026-04-05T14:40:28Z</time></trkpt><trkpt lat="42.78269268845309" lon="13.607544871734625"><ele>1023.0</ele><time>2026-04-05T14:40:29Z</time></trkpt><trkpt lat="42.782812872051444" lon="13.607481104068855"><ele>1023.0</ele><time>2026-04-05T14:40:30Z</time></trkpt><trkpt lat="42.78294587220153" lon="13.607450689004395"><ele>1023.0</ele><time>2026-04-05T14:40:31Z</time></trkpt><trkpt lat="42.78308530928907" lon="13.607437098639734"><ele>1023.0</ele><time>2026-04-05T14:40:32Z</time></trkpt><trkpt lat="42.78322130429722" lon="13.607452060944762"><ele>1023.0</ele><time>2026-04-05T14:40:33Z</time></trkpt><trkpt lat="42.78334894123342" lon="13.607476920318751"><ele>1023.0</ele><time>2026-04-05T14:40:34Z</time></trkpt><trkpt lat="42.78350333804764" lon="13.607521112568168"><ele>1023.0</ele><time>2026-04-05T14:40:35Z</time></trkpt><trkpt lat="42.78363790948065" lon="13.60757309499325"><ele>1023.0</ele><time>2026-04-05T14:40:36Z</time></trkpt><trkpt lat="42.78375935648988" lon="13.607634789315384"><ele>1023.0</ele><time>2026-04-05T14:40:37Z</time></trkpt><trkpt lat="42.783865110770336" lon="13.607693519076207"><ele>1025.25</ele><time>2026-04-05T14:40:38Z</time></trkpt><trkpt lat="42.78397318844662" lon="13.60772777750065"><ele>1027.5</ele><time>2026-04-05T14:40:39Z</time></trkpt><trkpt lat="42.78409200362823" lon="13.607728877936852"><ele>1029.75</ele><time>2026-04-05T14:40:40Z</time></trkpt><trkpt lat="42.78421075126488" lon="13.607701578247884"><ele>1032.0</ele><time>2026-04-05T14:40:41Z</time></trkpt><trkpt lat="42.78433177017425" lon="13.607651742812758"><ele>1029.75</ele><time>2026-04-05T14:40:42Z</time></trkpt><trkpt lat="42.78445073288042" lon="13.60757415897123"><ele>1027.5</ele><time>2026-04-05T14:40:43Z</time></trkpt><trkpt lat="42.784570853531925" lon="13.607491763442075"><ele>1025.25</ele><time>2026-04-05T14:40:44Z</time></trkpt><trkpt lat="42.7846856865686" lon="13.607399875079569"><ele>1023.0</ele><time>2026-04-05T14:40:45Z</time></trkpt><trkpt lat="42.78480631096361" lon="13.607294511593723"><ele>1023.0</ele><time>2026-04-05T14:40:46Z</time></trkpt><trkpt lat="42.784922286289216" lon="13.607146562965333"><ele>1023.0</ele><time>2026-04-05T14:40:47Z</time></trkpt><trkpt lat="42.785033785974946" lon="13.607012297258867"><ele>1023.0</ele><time>2026-04-05T14:40:48Z</time></trkpt><trkpt lat="42.78514772767726" lon="13.606865845279593"><ele>1025.0</ele><time>2026-04-05T14:40:49Z</time></trkpt><trkpt lat="42.78526736376407" lon="13.606717851683978"><ele>1027.0</ele><time>2026-04-05T14:40:50Z</time></trkpt><trkpt lat="42.785386290298106" lon="13.60657505051192"><ele>1029.0</ele><time>2026-04-05T14:40:51Z</time></trkpt><trkpt lat="42.78550282316959" lon="13.60643195561995"><ele>1029.0</ele><time>2026-04-05T14:40:52Z</time></trkpt><trkpt lat="42.785618858948375" lon="13.606288220306865"><ele>1029.0</ele><time>2026-04-05T14:40:53Z</time></trkpt><trkpt lat="42.785728645203086" lon="13.606136749822513"><ele>1029.0</ele><time>2026-04-05T14:40:54Z</time></trkpt><trkpt lat="42.785834433800986" lon="13.60597217101595"><ele>1024.0</ele><time>2026-04-05T14:40:55Z</time></trkpt><trkpt lat="42.78593394922879" lon="13.605808482932122"><ele>1019.0</ele><time>2026-04-05T14:40:56Z</time></trkpt><trkpt lat="42.78603297894567" lon="13.605639028242969"><ele>1014.0</ele><time>2026-04-05T14:40:57Z</time></trkpt><trkpt lat="42.78612440243636" lon="13.605468448669333"><ele>1019.75</ele><time>2026-04-05T14:40:58Z</time></trkpt><trkpt lat="42.78621444373694" lon="13.60530184559823"><ele>1025.5</ele><time>2026-04-05T14:40:59Z</time></trkpt><trkpt lat="42.78629550560606" lon="13.605132103324273"><ele>1031.25</ele><time>2026-04-05T14:41:00Z</time></trkpt><trkpt lat="42.78636158057767" lon="13.604954775892695"><ele>1037.0</ele><time>2026-04-05T14:41:01Z</time></trkpt><trkpt lat="42.78641969564456" lon="13.604775622057447"><ele>1037.0</ele><time>2026-04-05T14:41:02Z</time></trkpt><trkpt lat="42.78646933113213" lon="13.604592680392498"><ele>1037.0</ele><time>2026-04-05T14:41:03Z</time></trkpt><trkpt lat="42.786511499473455" lon="13.604400869253707"><ele>1037.0</ele><time>2026-04-05T14:41:04Z</time></trkpt><trkpt lat="42.7865503055591" lon="13.604201503275902"><ele>1037.0</ele><time>2026-04-05T14:41:05Z</time></trkpt><trkpt lat="42.786573890028116" lon="13.603996581128904"><ele>1040.0</ele><time>2026-04-05T14:41:06Z</time></trkpt><trkpt lat="42.786604353346284" lon="13.603797333709842"><ele>1043.0</ele><time>2026-04-05T14:41:07Z</time></trkpt><trkpt lat="42.78662673458034" lon="13.6036029606739"><ele>1046.0</ele><time>2026-04-05T14:41:08Z</time></trkpt><trkpt lat="42.78665052794734" lon="13.603420362835584"><ele>1049.0</ele><time>2026-04-05T14:41:09Z</time></trkpt><trkpt lat="42.78667243431326" lon="13.603243131544902"><ele>1051.25</ele><time>2026-04-05T14:41:10Z</time></trkpt><trkpt lat="42.786692487372534" lon="13.603068626355487"><ele>1053.5</ele><time>2026-04-05T14:41:11Z</time></trkpt><trkpt lat="42.78671361495426" lon="13.602897933268487"><ele>1055.75</ele><time>2026-04-05T14:41:12Z</time></trkpt><trkpt lat="42.786729409879506" lon="13.602744888060311"><ele>1058.0</ele><time>2026-04-05T14:41:13Z</time></trkpt><trkpt lat="42.78673647422745" lon="13.60259178801928"><ele>1059.8333333333335</ele><time>2026-04-05T14:41:14Z</time></trkpt><trkpt lat="42.7867290315628" lon="13.602453277179814"><ele>1061.6666666666667</ele><time>2026-04-05T14:41:15Z</time></trkpt><trkpt lat="42.78672166841229" lon="13.602328402819364"><ele>1063.5</ele><time>2026-04-05T14:41:16Z</time></trkpt><trkpt lat="42.78671431218434" lon="13.602208519022717"><ele>1065.3333333333333</ele><time>2026-04-05T14:41:17Z</time></trkpt><trkpt lat="42.78672271219601" lon="13.602097497981122"><ele>1067.1666666666665</ele><time>2026-04-05T14:41:18Z</time></trkpt><trkpt lat="42.78675265779613" lon="13.601994289699848"><ele>1069.0</ele><time>2026-04-05T14:41:19Z</time></trkpt><trkpt lat="42.78679929573149" lon="13.601900013464345"><ele>1070.6000000000001</ele><time>2026-04-05T14:41:20Z</time></trkpt><trkpt lat="42.78687563724544" lon="13.60183438898246"><ele>1072.2</ele><time>2026-04-05T14:41:21Z</time></trkpt><trkpt lat="42.78696835255237" lon="13.601796178739685"><ele>1073.8000000000002</ele><time>2026-04-05T14:41:22Z</time></trkpt><trkpt lat="42.787076386198116" lon="13.601780956352247"><ele>1075.4</ele><time>2026-04-05T14:41:23Z</time></trkpt><trkpt lat="42.78719730097705" lon="13.601781433349034"><ele>1077.0</ele><time>2026-04-05T14:41:24Z</time></trkpt><trkpt lat="42.787324446744556" lon="13.601786583848025"><ele>1077.0</ele><time>2026-04-05T14:41:25Z</time></trkpt><trkpt lat="42.78745932117907" lon="13.601801119043108"><ele>1077.0</ele><time>2026-04-05T14:41:26Z</time></trkpt><trkpt lat="42.78759906823871" lon="13.601843260952613"><ele>1077.0</ele><time>2026-04-05T14:41:27Z</time></trkpt><trkpt lat="42.78773055974861" lon="13.601918199712152"><ele>1077.0</ele><time>2026-04-05T14:41:28Z</time></trkpt><trkpt lat="42.787854154236115" lon="13.602001031156403"><ele>1068.25</ele><time>2026-04-05T14:41:29Z</time></trkpt><trkpt lat="42.78797073378099" lon="13.602080920143633"><ele>1059.5</ele><time>2026-04-05T14:41:30Z</time></trkpt><trkpt lat="42.788079396135934" lon="13.602149639379142"><ele>1050.75</ele><time>2026-04-05T14:41:31Z</time></trkpt><trkpt lat="42.7881880866606" lon="13.602196988663751"><ele>1042.0</ele><time>2026-04-05T14:41:32Z</time></trkpt><trkpt lat="42.78829839668388" lon="13.602218365870947"><ele>1042.0</ele><time>2026-04-05T14:41:33Z</time></trkpt><trkpt lat="42.788400886597" lon="13.602206681366434"><ele>1042.0</ele><time>2026-04-05T14:41:34Z</time></trkpt><trkpt lat="42.78849584802122" lon="13.602176030061322"><ele>1042.0</ele><time>2026-04-05T14:41:35Z</time></trkpt><trkpt lat="42.78858831778651" lon="13.602117447315123"><ele>1042.0</ele><time>2026-04-05T14:41:36Z</time></trkpt><trkpt lat="42.78867758456562" lon="13.60203450164436"><ele>1042.0</ele><time>2026-04-05T14:41:36.999Z</time></trkpt><trkpt lat="42.788759100219295" lon="13.601921907166528"><ele>1044.5</ele><time>2026-04-05T14:41:37.999Z</time></trkpt><trkpt lat="42.788840446952996" lon="13.601792487751577"><ele>1047.0</ele><time>2026-04-05T14:41:38.999Z</time></trkpt><trkpt lat="42.788926752607665" lon="13.601652839153804"><ele>1049.5</ele><time>2026-04-05T14:41:39.999Z</time></trkpt><trkpt lat="42.78901451812484" lon="13.601501579778292"><ele>1052.0</ele><time>2026-04-05T14:41:40.999Z</time></trkpt><trkpt lat="42.789106398855516" lon="13.601346992562734"><ele>1052.0</ele><time>2026-04-05T14:41:41.999Z</time></trkpt><trkpt lat="42.789197219298416" lon="13.601184724900458"><ele>1052.0</ele><time>2026-04-05T14:41:42.999Z</time></trkpt><trkpt lat="42.78928663903582" lon="13.601016678864267"><ele>1052.0</ele><time>2026-04-05T14:41:43.999Z</time></trkpt><trkpt lat="42.78937178174678" lon="13.600839466707285"><ele>1052.6666666666667</ele><time>2026-04-05T14:41:44.999Z</time></trkpt><trkpt lat="42.7894539029188" lon="13.600650751081332"><ele>1053.3333333333333</ele><time>2026-04-05T14:41:45.999Z</time></trkpt><trkpt lat="42.78953545718231" lon="13.600455758612446"><ele>1054.0</ele><time>2026-04-05T14:41:46.999Z</time></trkpt><trkpt lat="42.78961743814024" lon="13.600251203497029"><ele>1054.0</ele><time>2026-04-05T14:41:48.001Z</time></trkpt><trkpt lat="42.78969936611006" lon="13.600045213345481"><ele>1054.0</ele><time>2026-04-05T14:41:49.001Z</time></trkpt><trkpt lat="42.78978087022123" lon="13.599841155899382"><ele>1054.0</ele><time>2026-04-05T14:41:50.001Z</time></trkpt><trkpt lat="42.78986172842197" lon="13.59964132716801"><ele>1062.0</ele><time>2026-04-05T14:41:51.001Z</time></trkpt><trkpt lat="42.78993978898976" lon="13.599444483640797"><ele>1070.0</ele><time>2026-04-05T14:41:52.001Z</time></trkpt><trkpt lat="42.790013277613696" lon="13.599255517092763"><ele>1078.0</ele><time>2026-04-05T14:41:53.001Z</time></trkpt><trkpt lat="42.79008371925236" lon="13.599059151866046"><ele>1078.0</ele><time>2026-04-05T14:41:54.001Z</time></trkpt><trkpt lat="42.79015063074645" lon="13.598871941709348"><ele>1078.0</ele><time>2026-04-05T14:41:55.001Z</time></trkpt><trkpt lat="42.79021778568917" lon="13.59866977501948"><ele>1078.0</ele><time>2026-04-05T14:41:56.001Z</time></trkpt><trkpt lat="42.79027881320028" lon="13.598464604170367"><ele>1074.5</ele><time>2026-04-05T14:41:57.001Z</time></trkpt><trkpt lat="42.790331625202086" lon="13.59825574721456"><ele>1071.0</ele><time>2026-04-05T14:41:58.001Z</time></trkpt><trkpt lat="42.79037343420283" lon="13.598071628009793"><ele>1067.5</ele><time>2026-04-05T14:41:59.001Z</time></trkpt><trkpt lat="42.790423513444935" lon="13.597912335112854"><ele>1064.0</ele><time>2026-04-05T14:42:00.001Z</time></trkpt><trkpt lat="42.790493559724524" lon="13.597771907571838"><ele>1064.0</ele><time>2026-04-05T14:42:01.001Z</time></trkpt><trkpt lat="42.79055527194454" lon="13.597641198348034"><ele>1064.0</ele><time>2026-04-05T14:42:02.001Z</time></trkpt><trkpt lat="42.790603142676794" lon="13.597491975503438"><ele>1064.0</ele><time>2026-04-05T14:42:03.001Z</time></trkpt><trkpt lat="42.79063644942873" lon="13.597322820093453"><ele>1064.0</ele><time>2026-04-05T14:42:04.001Z</time></trkpt><trkpt lat="42.79065940190687" lon="13.59714491929805"><ele>1069.5</ele><time>2026-04-05T14:42:05.001Z</time></trkpt><trkpt lat="42.790680254139524" lon="13.596962593346587"><ele>1075.0</ele><time>2026-04-05T14:42:06.001Z</time></trkpt><trkpt lat="42.7907071904155" lon="13.596784802162787"><ele>1080.5</ele><time>2026-04-05T14:42:07.001Z</time></trkpt><trkpt lat="42.79073450584535" lon="13.596615739227458"><ele>1086.0</ele><time>2026-04-05T14:42:08Z</time></trkpt><trkpt lat="42.79075869378203" lon="13.596455871796351"><ele>1086.0</ele><time>2026-04-05T14:42:09Z</time></trkpt><trkpt lat="42.79077670976159" lon="13.596306533887624"><ele>1086.0</ele><time>2026-04-05T14:42:10Z</time></trkpt><trkpt lat="42.790806653549886" lon="13.59618455269212"><ele>1086.0</ele><time>2026-04-05T14:42:11Z</time></trkpt><trkpt lat="42.79087063839587" lon="13.59611295339424"><ele>1086.0</ele><time>2026-04-05T14:42:12Z</time></trkpt><trkpt lat="42.79094695049115" lon="13.596060926903297"><ele>1086.0</ele><time>2026-04-05T14:42:13Z</time></trkpt><trkpt lat="42.79104007670352" lon="13.596043926036284"><ele>1084.0</ele><time>2026-04-05T14:42:14Z</time></trkpt><trkpt lat="42.79115361708475" lon="13.596053507946426"><ele>1082.0</ele><time>2026-04-05T14:42:15Z</time></trkpt><trkpt lat="42.791266251208796" lon="13.59607067604649"><ele>1080.0</ele><time>2026-04-05T14:42:16Z</time></trkpt><trkpt lat="42.79138225929935" lon="13.59611723185098"><ele>1078.0</ele><time>2026-04-05T14:42:17Z</time></trkpt><trkpt lat="42.79149054663218" lon="13.596193730460433"><ele>1078.0</ele><time>2026-04-05T14:42:18Z</time></trkpt><trkpt lat="42.79158731008004" lon="13.596284910679856"><ele>1078.0</ele><time>2026-04-05T14:42:19Z</time></trkpt><trkpt lat="42.79167922034172" lon="13.596371126858772"><ele>1078.0</ele><time>2026-04-05T14:42:20Z</time></trkpt><trkpt lat="42.791784561121155" lon="13.59645270578971"><ele>1078.0</ele><time>2026-04-05T14:42:21Z</time></trkpt><trkpt lat="42.79188533910099" lon="13.596504305204247"><ele>1079.6</ele><time>2026-04-05T14:42:22Z</time></trkpt><trkpt lat="42.791982086750586" lon="13.596554506316815"><ele>1081.1999999999998</ele><time>2026-04-05T14:42:23Z</time></trkpt><trkpt lat="42.79206786878052" lon="13.596554821530884"><ele>1082.8</ele><time>2026-04-05T14:42:24Z</time></trkpt><trkpt lat="42.792172355929395" lon="13.596528367926012"><ele>1084.3999999999999</ele><time>2026-04-05T14:42:25Z</time></trkpt><trkpt lat="42.7922636162249" lon="13.596465112211213"><ele>1086.0</ele><time>2026-04-05T14:42:26Z</time></trkpt><trkpt lat="42.79234076674915" lon="13.596385257545968"><ele>1086.0</ele><time>2026-04-05T14:42:27Z</time></trkpt><trkpt lat="42.79241193668192" lon="13.596290147833146"><ele>1086.0</ele><time>2026-04-05T14:42:28Z</time></trkpt><trkpt lat="42.792482302248786" lon="13.596186266827686"><ele>1086.0</ele><time>2026-04-05T14:42:29Z</time></trkpt><trkpt lat="42.79254298546789" lon="13.596096881285257"><ele>1086.0</ele><time>2026-04-05T14:42:30Z</time></trkpt><trkpt lat="42.79270870769262" lon="13.595854505605912"><ele>1085.6666666666667</ele><time>2026-04-05T14:42:31Z</time></trkpt><trkpt lat="42.79281317626087" lon="13.595702353534891"><ele>1085.3333333333335</ele><time>2026-04-05T14:42:32Z</time></trkpt><trkpt lat="42.792917923398846" lon="13.595544689555114"><ele>1085.0</ele><time>2026-04-05T14:42:33Z</time></trkpt><trkpt lat="42.793019417260446" lon="13.595385643910218"><ele>1090.5</ele><time>2026-04-05T14:42:34Z</time></trkpt><trkpt lat="42.79311974555548" lon="13.595241761553584"><ele>1096.0</ele><time>2026-04-05T14:42:35Z</time></trkpt><trkpt lat="42.79320530849446" lon="13.595116452615974"><ele>1101.5</ele><time>2026-04-05T14:42:36Z</time></trkpt><trkpt lat="42.7932731368679" lon="13.595001099704765"><ele>1107.0</ele><time>2026-04-05T14:42:37Z</time></trkpt><trkpt lat="42.793327168710775" lon="13.59486620430964"><ele>1107.0</ele><time>2026-04-05T14:42:38Z</time></trkpt><trkpt lat="42.79336739210645" lon="13.59471499508408"><ele>1107.0</ele><time>2026-04-05T14:42:39Z</time></trkpt><trkpt lat="42.793396320287414" lon="13.594542631567807"><ele>1107.0</ele><time>2026-04-05T14:42:40Z</time></trkpt><trkpt lat="42.79342437999501" lon="13.594354394248702"><ele>1107.0</ele><time>2026-04-05T14:42:41Z</time></trkpt><trkpt lat="42.79345407993699" lon="13.594164930629242"><ele>1110.0</ele><time>2026-04-05T14:42:42Z</time></trkpt><trkpt lat="42.79348250817913" lon="13.593969321450972"><ele>1113.0</ele><time>2026-04-05T14:42:43Z</time></trkpt><trkpt lat="42.79351353716878" lon="13.593768222728276"><ele>1116.0</ele><time>2026-04-05T14:42:44Z</time></trkpt><trkpt lat="42.79354546833652" lon="13.593570461566728"><ele>1119.0</ele><time>2026-04-05T14:42:45Z</time></trkpt><trkpt lat="42.79357432612125" lon="13.59337887356966"><ele>1113.5</ele><time>2026-04-05T14:42:46Z</time></trkpt><trkpt lat="42.79359661421338" lon="13.59319739552237"><ele>1108.0</ele><time>2026-04-05T14:42:47Z</time></trkpt><trkpt lat="42.79360147756587" lon="13.593020767781546"><ele>1102.5</ele><time>2026-04-05T14:42:48Z</time></trkpt><trkpt lat="42.79358427701385" lon="13.592850140294455"><ele>1097.0</ele><time>2026-04-05T14:42:49Z</time></trkpt><trkpt lat="42.793546930536785" lon="13.592688941112195"><ele>1104.4</ele><time>2026-04-05T14:42:50Z</time></trkpt><trkpt lat="42.79349815191288" lon="13.592534847981955"><ele>1111.8000000000002</ele><time>2026-04-05T14:42:51Z</time></trkpt><trkpt lat="42.793456375064366" lon="13.592389821918028"><ele>1119.2</ele><time>2026-04-05T14:42:52Z</time></trkpt><trkpt lat="42.793427115441936" lon="13.592265225687747"><ele>1126.6000000000001</ele><time>2026-04-05T14:42:53Z</time></trkpt><trkpt lat="42.79343836164472" lon="13.59213409416105"><ele>1134.0</ele><time>2026-04-05T14:42:54Z</time></trkpt><trkpt lat="42.79348978474384" lon="13.592021174098583"><ele>1129.2</ele><time>2026-04-05T14:42:55Z</time></trkpt><trkpt lat="42.79357043827684" lon="13.591919106390645"><ele>1124.4</ele><time>2026-04-05T14:42:56Z</time></trkpt><trkpt lat="42.79365577464199" lon="13.59182505597415"><ele>1119.6</ele><time>2026-04-05T14:42:57Z</time></trkpt><trkpt lat="42.79372319797036" lon="13.591707914697523"><ele>1114.8</ele><time>2026-04-05T14:42:58Z</time></trkpt><trkpt lat="42.79376098770092" lon="13.591562197086386"><ele>1110.0</ele><time>2026-04-05T14:42:59Z</time></trkpt><trkpt lat="42.79377572688311" lon="13.591391011560688"><ele>1110.0</ele><time>2026-04-05T14:43:00Z</time></trkpt><trkpt lat="42.79378597753953" lon="13.59120502958366"><ele>1110.0</ele><time>2026-04-05T14:43:01Z</time></trkpt><trkpt lat="42.79380626765881" lon="13.591005067197143"><ele>1110.0</ele><time>2026-04-05T14:43:02Z</time></trkpt><trkpt lat="42.793830515899636" lon="13.590808512097263"><ele>1110.0</ele><time>2026-04-05T14:43:03Z</time></trkpt><trkpt lat="42.79385870404285" lon="13.590631811763759"><ele>1113.0</ele><time>2026-04-05T14:43:04Z</time></trkpt><trkpt lat="42.793888639137265" lon="13.590481305170313"><ele>1116.0</ele><time>2026-04-05T14:43:05Z</time></trkpt><trkpt lat="42.79393472824436" lon="13.590357920065072"><ele>1119.0</ele><time>2026-04-05T14:43:06Z</time></trkpt><trkpt lat="42.794001587609785" lon="13.590276502096016"><ele>1122.0</ele><time>2026-04-05T14:43:07Z</time></trkpt><trkpt lat="42.794094238999705" lon="13.590266536391855"><ele>1125.0</ele><time>2026-04-05T14:43:08Z</time></trkpt><trkpt lat="42.794182236887075" lon="13.590285952995602"><ele>1123.0</ele><time>2026-04-05T14:43:09Z</time></trkpt><trkpt lat="42.79427934699837" lon="13.590327169466912"><ele>1121.0</ele><time>2026-04-05T14:43:10Z</time></trkpt><trkpt lat="42.7943951823847" lon="13.590356873736495"><ele>1119.0</ele><time>2026-04-05T14:43:11Z</time></trkpt><trkpt lat="42.794509788241065" lon="13.590393404371781"><ele>1117.0</ele><time>2026-04-05T14:43:12Z</time></trkpt><trkpt lat="42.79462835632517" lon="13.590405846235724"><ele>1117.0</ele><time>2026-04-05T14:43:13Z</time></trkpt><trkpt lat="42.794739351303605" lon="13.59039044289273"><ele>1117.0</ele><time>2026-04-05T14:43:14Z</time></trkpt><trkpt lat="42.79484354560556" lon="13.590338848449095"><ele>1117.0</ele><time>2026-04-05T14:43:15Z</time></trkpt><trkpt lat="42.79493744762387" lon="13.590251600689463"><ele>1117.0</ele><time>2026-04-05T14:43:16Z</time></trkpt><trkpt lat="42.79501292263998" lon="13.590125037131692"><ele>1115.5</ele><time>2026-04-05T14:43:17Z</time></trkpt><trkpt lat="42.79507814608364" lon="13.589969151606805"><ele>1114.0</ele><time>2026-04-05T14:43:18Z</time></trkpt><trkpt lat="42.79514184432418" lon="13.589789055167149"><ele>1112.5</ele><time>2026-04-05T14:43:19Z</time></trkpt><trkpt lat="42.795217387176166" lon="13.589598690802932"><ele>1111.0</ele><time>2026-04-05T14:43:20Z</time></trkpt><trkpt lat="42.79530330148334" lon="13.589408287498177"><ele>1117.0</ele><time>2026-04-05T14:43:21Z</time></trkpt><trkpt lat="42.795393726481954" lon="13.589213848850282"><ele>1123.0</ele><time>2026-04-05T14:43:22Z</time></trkpt><trkpt lat="42.79548538697189" lon="13.589006762980208"><ele>1129.0</ele><time>2026-04-05T14:43:23Z</time></trkpt><trkpt lat="42.795580867739766" lon="13.588794335307776"><ele>1135.3333333333333</ele><time>2026-04-05T14:43:24Z</time></trkpt><trkpt lat="42.79567623692894" lon="13.588584733662163"><ele>1141.6666666666667</ele><time>2026-04-05T14:43:25Z</time></trkpt><trkpt lat="42.795772285847214" lon="13.588371395308977"><ele>1148.0</ele><time>2026-04-05T14:43:26Z</time></trkpt><trkpt lat="42.79586869321815" lon="13.588158032438825"><ele>1148.0</ele><time>2026-04-05T14:43:27Z</time></trkpt><trkpt lat="42.795965287708455" lon="13.587941834658592"><ele>1148.0</ele><time>2026-04-05T14:43:28Z</time></trkpt><trkpt lat="42.796061981981076" lon="13.587725875490287"><ele>1148.0</ele><time>2026-04-05T14:43:28.999Z</time></trkpt><trkpt lat="42.796158950237924" lon="13.587508516436007"><ele>1147.3333333333335</ele><time>2026-04-05T14:43:29.999Z</time></trkpt><trkpt lat="42.79625017182039" lon="13.587288099434708"><ele>1146.6666666666667</ele><time>2026-04-05T14:43:30.999Z</time></trkpt><trkpt lat="42.79634616945376" lon="13.587065742339421"><ele>1146.0</ele><time>2026-04-05T14:43:31.999Z</time></trkpt><trkpt lat="42.79643832529169" lon="13.586849437305192"><ele>1146.0</ele><time>2026-04-05T14:43:32.999Z</time></trkpt><trkpt lat="42.79653916737423" lon="13.5866369797066"><ele>1146.0</ele><time>2026-04-05T14:43:33.999Z</time></trkpt><trkpt lat="42.79664456488708" lon="13.586431375184745"><ele>1146.0</ele><time>2026-04-05T14:43:34.999Z</time></trkpt><trkpt lat="42.79675543326885" lon="13.586232645854269"><ele>1145.6666666666667</ele><time>2026-04-05T14:43:35.999Z</time></trkpt><trkpt lat="42.79686899491825" lon="13.586041523389081"><ele>1145.3333333333335</ele><time>2026-04-05T14:43:36.999Z</time></trkpt><trkpt lat="42.796985351644764" lon="13.585852003225073"><ele>1145.0</ele><time>2026-04-05T14:43:37.999Z</time></trkpt><trkpt lat="42.79710213816922" lon="13.585665038777815"><ele>1145.0</ele><time>2026-04-05T14:43:38.999Z</time></trkpt><trkpt lat="42.79721689366468" lon="13.585477130351098"><ele>1145.0</ele><time>2026-04-05T14:43:39.999Z</time></trkpt><trkpt lat="42.797328347923894" lon="13.585294408173127"><ele>1145.0</ele><time>2026-04-05T14:43:40.999Z</time></trkpt><trkpt lat="42.79743350391629" lon="13.585118588041233"><ele>1142.0</ele><time>2026-04-05T14:43:41.999Z</time></trkpt><trkpt lat="42.797531651656605" lon="13.584964603590082"><ele>1139.0</ele><time>2026-04-05T14:43:42.999Z</time></trkpt><trkpt lat="42.79762417434443" lon="13.584824624602623"><ele>1136.0</ele><time>2026-04-05T14:43:43.999Z</time></trkpt><trkpt lat="42.7977068758604" lon="13.584696657611229"><ele>1133.0</ele><time>2026-04-05T14:43:44.999Z</time></trkpt><trkpt lat="42.79777234196344" lon="13.584578678720247"><ele>1134.4</ele><time>2026-04-05T14:43:45.999Z</time></trkpt><trkpt lat="42.79781267256068" lon="13.58445402601667"><ele>1135.8</ele><time>2026-04-05T14:43:46.999Z</time></trkpt><trkpt lat="42.79782533989799" lon="13.584317208689171"><ele>1137.2</ele><time>2026-04-05T14:43:47.999Z</time></trkpt><trkpt lat="42.79780947311534" lon="13.584184520542497"><ele>1138.6</ele><time>2026-04-05T14:43:48.999Z</time></trkpt><trkpt lat="42.797767857633254" lon="13.584062851989371"><ele>1140.0</ele><time>2026-04-05T14:43:49.999Z</time></trkpt><trkpt lat="42.797706947771296" lon="13.58393907669742"><ele>1142.2</ele><time>2026-04-05T14:43:50.999Z</time></trkpt><trkpt lat="42.797656672950836" lon="13.583820754276157"><ele>1144.4</ele><time>2026-04-05T14:43:51.999Z</time></trkpt><trkpt lat="42.797646630701344" lon="13.583697901111377"><ele>1146.6</ele><time>2026-04-05T14:43:52.999Z</time></trkpt><trkpt lat="42.7976306699516" lon="13.583584508639943"><ele>1148.8</ele><time>2026-04-05T14:43:54.001Z</time></trkpt><trkpt lat="42.79765459235154" lon="13.583468868798896"><ele>1151.0</ele><time>2026-04-05T14:43:55.001Z</time></trkpt><trkpt lat="42.79770199092107" lon="13.583361723083438"><ele>1151.0</ele><time>2026-04-05T14:43:56.001Z</time></trkpt><trkpt lat="42.79777552027798" lon="13.583276356225998"><ele>1151.0</ele><time>2026-04-05T14:43:57.001Z</time></trkpt><trkpt lat="42.79786942724715" lon="13.583212652623827"><ele>1151.0</ele><time>2026-04-05T14:43:58.001Z</time></trkpt><trkpt lat="42.797970123498295" lon="13.583167828996334"><ele>1151.0</ele><time>2026-04-05T14:43:59.001Z</time></trkpt><trkpt lat="42.798075259028884" lon="13.583154715148357"><ele>1151.0</ele><time>2026-04-05T14:44:00.001Z</time></trkpt><trkpt lat="42.798190107632585" lon="13.583189734047671"><ele>1151.0</ele><time>2026-04-05T14:44:01.001Z</time></trkpt><trkpt lat="42.79828474941384" lon="13.583284588723147"><ele>1151.0</ele><time>2026-04-05T14:44:02.001Z</time></trkpt><trkpt lat="42.79838375935063" lon="13.583374933830765"><ele>1151.0</ele><time>2026-04-05T14:44:03.001Z</time></trkpt><trkpt lat="42.798480962913" lon="13.583470312369641"><ele>1151.0</ele><time>2026-04-05T14:44:04.001Z</time></trkpt><trkpt lat="42.79857688023025" lon="13.583532355579997"><ele>1149.6</ele><time>2026-04-05T14:44:05.001Z</time></trkpt><trkpt lat="42.79866163862389" lon="13.583589153944422"><ele>1148.1999999999998</ele><time>2026-04-05T14:44:06.001Z</time></trkpt><trkpt lat="42.79875307529868" lon="13.583606107211564"><ele>1146.8000000000002</ele><time>2026-04-05T14:44:07.001Z</time></trkpt><trkpt lat="42.79885053865214" lon="13.583589678673198"><ele>1145.4</ele><time>2026-04-05T14:44:08.001Z</time></trkpt><trkpt lat="42.798956179103655" lon="13.583548662394026"><ele>1144.0</ele><time>2026-04-05T14:44:09.001Z</time></trkpt><trkpt lat="42.799066858290175" lon="13.583454279014942"><ele>1144.0</ele><time>2026-04-05T14:44:10.001Z</time></trkpt><trkpt lat="42.799183645730885" lon="13.583355550935643"><ele>1144.0</ele><time>2026-04-05T14:44:11.001Z</time></trkpt><trkpt lat="42.79929712846563" lon="13.583256192586676"><ele>1144.0</ele><time>2026-04-05T14:44:12.001Z</time></trkpt><trkpt lat="42.79941320637077" lon="13.583142703543164"><ele>1144.0</ele><time>2026-04-05T14:44:13Z</time></trkpt><trkpt lat="42.79952693510317" lon="13.583004014295836"><ele>1140.3333333333333</ele><time>2026-04-05T14:44:14Z</time></trkpt><trkpt lat="42.79964163636345" lon="13.58284129483214"><ele>1136.6666666666667</ele><time>2026-04-05T14:44:15Z</time></trkpt><trkpt lat="42.79975358785478" lon="13.582671590352192"><ele>1133.0</ele><time>2026-04-05T14:44:16Z</time></trkpt><trkpt lat="42.79988099226717" lon="13.582516821905102"><ele>1133.0</ele><time>2026-04-05T14:44:17Z</time></trkpt><trkpt lat="42.79999494711108" lon="13.58235291008566"><ele>1133.0</ele><time>2026-04-05T14:44:18Z</time></trkpt><trkpt lat="42.80009382244022" lon="13.582179676140367"><ele>1133.0</ele><time>2026-04-05T14:44:19Z</time></trkpt><trkpt lat="42.800201239969475" lon="13.582031992543607"><ele>1128.25</ele><time>2026-04-05T14:44:20Z</time></trkpt><trkpt lat="42.80029885967352" lon="13.581889348477969"><ele>1123.5</ele><time>2026-04-05T14:44:21Z</time></trkpt><trkpt lat="42.80039816872408" lon="13.581777352672244"><ele>1118.75</ele><time>2026-04-05T14:44:22Z</time></trkpt><trkpt lat="42.80046033538698" lon="13.581643833475193"><ele>1114.0</ele><time>2026-04-05T14:44:23Z</time></trkpt><trkpt lat="42.80052594431873" lon="13.581520780169056"><ele>1114.0</ele><time>2026-04-05T14:44:24Z</time></trkpt><trkpt lat="42.80057143068922" lon="13.581376080084341"><ele>1114.0</ele><time>2026-04-05T14:44:25Z</time></trkpt><trkpt lat="42.80058871596288" lon="13.58121654047862"><ele>1114.0</ele><time>2026-04-05T14:44:26Z</time></trkpt><trkpt lat="42.800583321988775" lon="13.58105195029065"><ele>1114.0</ele><time>2026-04-05T14:44:27Z</time></trkpt><trkpt lat="42.800553364081324" lon="13.580892169519517"><ele>1113.25</ele><time>2026-04-05T14:44:28Z</time></trkpt><trkpt lat="42.800510560904115" lon="13.580731321927482"><ele>1112.5</ele><time>2026-04-05T14:44:29Z</time></trkpt><trkpt lat="42.80046685270411" lon="13.58055771545946"><ele>1111.75</ele><time>2026-04-05T14:44:30Z</time></trkpt><trkpt lat="42.80041921917531" lon="13.580377455574927"><ele>1111.0</ele><time>2026-04-05T14:44:31Z</time></trkpt><trkpt lat="42.80036820890466" lon="13.58019730668453"><ele>1107.25</ele><time>2026-04-05T14:44:32Z</time></trkpt><trkpt lat="42.800317529305005" lon="13.580020354295883"><ele>1103.5</ele><time>2026-04-05T14:44:33Z</time></trkpt><trkpt lat="42.80024807490448" lon="13.579856360016073"><ele>1099.75</ele><time>2026-04-05T14:44:34Z</time></trkpt><trkpt lat="42.80016757138308" lon="13.579696570292345"><ele>1096.0</ele><time>2026-04-05T14:44:35Z</time></trkpt><trkpt lat="42.80008433805688" lon="13.579539976732233"><ele>1102.0</ele><time>2026-04-05T14:44:36Z</time></trkpt><trkpt lat="42.800005324246676" lon="13.579387682092449"><ele>1108.0</ele><time>2026-04-05T14:44:37Z</time></trkpt><trkpt lat="42.79993378835373" lon="13.579246609424388"><ele>1114.0</ele><time>2026-04-05T14:44:38Z</time></trkpt><trkpt lat="42.79986936074589" lon="13.579119270588741"><ele>1120.0</ele><time>2026-04-05T14:44:39Z</time></trkpt><trkpt lat="42.7998175131041" lon="13.578998549288785"><ele>1120.0</ele><time>2026-04-05T14:44:40Z</time></trkpt><trkpt lat="42.79978316267476" lon="13.578882690809174"><ele>1120.0</ele><time>2026-04-05T14:44:41Z</time></trkpt><trkpt lat="42.79977443576171" lon="13.578758083339052"><ele>1120.0</ele><time>2026-04-05T14:44:42Z</time></trkpt><trkpt lat="42.79979706845993" lon="13.578637658945476"><ele>1120.0</ele><time>2026-04-05T14:44:43Z</time></trkpt><trkpt lat="42.79985276422857" lon="13.57854336084171"><ele>1120.0</ele><time>2026-04-05T14:44:44Z</time></trkpt><trkpt lat="42.79994206774152" lon="13.57850215339714"><ele>1119.8</ele><time>2026-04-05T14:44:45Z</time></trkpt><trkpt lat="42.80002477395839" lon="13.578410615755535"><ele>1119.6</ele><time>2026-04-05T14:44:46Z</time></trkpt><trkpt lat="42.800121373248246" lon="13.578331680419508"><ele>1119.4</ele><time>2026-04-05T14:44:47Z</time></trkpt><trkpt lat="42.800198768132645" lon="13.578238820029664"><ele>1119.2</ele><time>2026-04-05T14:44:48Z</time></trkpt><trkpt lat="42.800259046672146" lon="13.578116752603401"><ele>1119.0</ele><time>2026-04-05T14:44:49Z</time></trkpt><trkpt lat="42.80029305735136" lon="13.577988366480763"><ele>1111.0</ele><time>2026-04-05T14:44:50Z</time></trkpt><trkpt lat="42.80030653832822" lon="13.57785019945244"><ele>1103.0</ele><time>2026-04-05T14:44:51Z</time></trkpt><trkpt lat="42.800300923954325" lon="13.57771167492473"><ele>1095.0</ele><time>2026-04-05T14:44:52Z</time></trkpt><trkpt lat="42.80028862714047" lon="13.577577906772296"><ele>1087.0</ele><time>2026-04-05T14:44:53Z</time></trkpt><trkpt lat="42.800276431713094" lon="13.577453167509072"><ele>1079.0</ele><time>2026-04-05T14:44:54Z</time></trkpt><trkpt lat="42.80026596263712" lon="13.577323983756447"><ele>1079.0</ele><time>2026-04-05T14:44:55Z</time></trkpt><trkpt lat="42.80026297288999" lon="13.577194080823652"><ele>1079.0</ele><time>2026-04-05T14:44:56Z</time></trkpt><trkpt lat="42.80025032305082" lon="13.577060922927613"><ele>1079.0</ele><time>2026-04-05T14:44:57Z</time></trkpt><trkpt lat="42.80024066001206" lon="13.57692194989766"><ele>1079.0</ele><time>2026-04-05T14:44:58Z</time></trkpt><trkpt lat="42.80023369806697" lon="13.576781822688542"><ele>1079.0</ele><time>2026-04-05T14:44:59Z</time></trkpt><trkpt lat="42.80022485965739" lon="13.576639316255996"><ele>1077.8</ele><time>2026-04-05T14:45:00Z</time></trkpt><trkpt lat="42.800216210174504" lon="13.576491971490865"><ele>1076.6000000000001</ele><time>2026-04-05T14:45:01Z</time></trkpt><trkpt lat="42.800207616641636" lon="13.576342201701673"><ele>1075.4</ele><time>2026-04-05T14:45:02Z</time></trkpt><trkpt lat="42.80019619723141" lon="13.576190537903697"><ele>1074.2</ele><time>2026-04-05T14:45:03Z</time></trkpt><trkpt lat="42.80018694540805" lon="13.576038259907955"><ele>1073.0</ele><time>2026-04-05T14:45:04Z</time></trkpt><trkpt lat="42.8001773635128" lon="13.575889061527118"><ele>1072.6</ele><time>2026-04-05T14:45:05Z</time></trkpt><trkpt lat="42.800170416516906" lon="13.575741197787577"><ele>1072.1999999999998</ele><time>2026-04-05T14:45:06Z</time></trkpt><trkpt lat="42.800162266724605" lon="13.57559773168895"><ele>1071.8</ele><time>2026-04-05T14:45:07Z</time></trkpt><trkpt lat="42.80015219894897" lon="13.575461355488269"><ele>1071.3999999999999</ele><time>2026-04-05T14:45:08Z</time></trkpt><trkpt lat="42.8001460525544" lon="13.575326980668079"><ele>1071.0</ele><time>2026-04-05T14:45:09Z</time></trkpt><trkpt lat="42.80014431374703" lon="13.575193179759745"><ele>1072.2</ele><time>2026-04-05T14:45:10Z</time></trkpt><trkpt lat="42.80014465289078" lon="13.575059361122783"><ele>1073.3999999999999</ele><time>2026-04-05T14:45:11Z</time></trkpt><trkpt lat="42.800146208740614" lon="13.574928703828453"><ele>1074.6</ele><time>2026-04-05T14:45:12Z</time></trkpt><trkpt lat="42.80015358804643" lon="13.574801539481042"><ele>1075.8</ele><time>2026-04-05T14:45:13Z</time></trkpt><trkpt lat="42.800161990532565" lon="13.574680652255958"><ele>1077.0</ele><time>2026-04-05T14:45:14Z</time></trkpt><trkpt lat="42.80017090901049" lon="13.574560162564433"><ele>1078.0</ele><time>2026-04-05T14:45:15Z</time></trkpt><trkpt lat="42.800180790368444" lon="13.574443149095513"><ele>1079.0</ele><time>2026-04-05T14:45:16Z</time></trkpt><trkpt lat="42.80019035263555" lon="13.574333714019005"><ele>1080.0</ele><time>2026-04-05T14:45:17Z</time></trkpt><trkpt lat="42.800199368687515" lon="13.574225346697638"><ele>1081.0</ele><time>2026-04-05T14:45:18Z</time></trkpt><trkpt lat="42.800208561351326" lon="13.574125076624371"><ele>1082.0</ele><time>2026-04-05T14:45:19Z</time></trkpt><trkpt lat="42.80021796515489" lon="13.57403202423695"><ele>1083.0</ele><time>2026-04-05T14:45:20Z</time></trkpt><trkpt lat="42.80022274881263" lon="13.573939036033732"><ele>1083.0</ele><time>2026-04-05T14:45:21Z</time></trkpt><trkpt lat="42.80023057654837" lon="13.57377370609065"><ele>1083.0</ele><time>2026-04-05T14:45:22.999Z</time></trkpt><trkpt lat="42.80022524765781" lon="13.573619960435536"><ele>1083.0</ele><time>2026-04-05T14:45:24.999Z</time></trkpt><trkpt lat="42.80017322514374" lon="13.573511753283084"><ele>1083.0</ele><time>2026-04-05T14:45:26.999Z</time></trkpt><trkpt lat="42.80007819415903" lon="13.57344830432619"><ele>1083.0</ele><time>2026-04-05T14:45:28.999Z</time></trkpt><trkpt lat="42.799973793674674" lon="13.573372814146035"><ele>1083.6666666666667</ele><time>2026-04-05T14:45:30.999Z</time></trkpt><trkpt lat="42.79990318038459" lon="13.573231930856638"><ele>1084.3333333333333</ele><time>2026-04-05T14:45:32.999Z</time></trkpt><trkpt lat="42.79989668918652" lon="13.573125865751415"><ele>1085.0</ele><time>2026-04-05T14:45:33.999Z</time></trkpt><trkpt lat="42.799886656499645" lon="13.573028421178426"><ele>1085.6666666666665</ele><time>2026-04-05T14:45:34.999Z</time></trkpt><trkpt lat="42.799878706899506" lon="13.572930200271847"><ele>1086.3333333333333</ele><time>2026-04-05T14:45:35.999Z</time></trkpt><trkpt lat="42.79987160184207" lon="13.572841971286604"><ele>1087.0</ele><time>2026-04-05T14:45:36.999Z</time></trkpt><trkpt lat="42.799840100925245" lon="13.572758407470504"><ele>1089.0</ele><time>2026-04-05T14:45:37.999Z</time></trkpt><trkpt lat="42.79982536094867" lon="13.572670806515099"><ele>1091.0</ele><time>2026-04-05T14:45:38.999Z</time></trkpt><trkpt lat="42.799762480652134" lon="13.572353535322206"><ele>1093.0</ele><time>2026-04-05T14:45:40.999Z</time></trkpt><trkpt lat="42.79975959486409" lon="13.572260906850055"><ele>1095.0</ele><time>2026-04-05T14:45:41.999Z</time></trkpt><trkpt lat="42.799772710269814" lon="13.57216975543818"><ele>1097.0</ele><time>2026-04-05T14:45:42.999Z</time></trkpt><trkpt lat="42.79980471946956" lon="13.57209018923823"><ele>1097.8333333333335</ele><time>2026-04-05T14:45:43.999Z</time></trkpt><trkpt lat="42.79984747909007" lon="13.572010191380148"><ele>1098.6666666666667</ele><time>2026-04-05T14:45:44.999Z</time></trkpt><trkpt lat="42.799890682835866" lon="13.571941498615407"><ele>1099.5</ele><time>2026-04-05T14:45:45.999Z</time></trkpt><trkpt lat="42.799962149222985" lon="13.571914833846407"><ele>1100.3333333333333</ele><time>2026-04-05T14:45:46.999Z</time></trkpt><trkpt lat="42.80008551896773" lon="13.571820757062872"><ele>1101.1666666666665</ele><time>2026-04-05T14:45:48.999Z</time></trkpt><trkpt lat="42.8001509868806" lon="13.571767859942488"><ele>1102.0</ele><time>2026-04-05T14:45:49.999Z</time></trkpt><trkpt lat="42.800222535988496" lon="13.571708249040729"><ele>1101.9999999999998</ele><time>2026-04-05T14:45:50.999Z</time></trkpt><trkpt lat="42.80028750126126" lon="13.571649964117253"><ele>1102.0</ele><time>2026-04-05T14:45:51.999Z</time></trkpt><trkpt lat="42.800351237530386" lon="13.57158816487052"><ele>1102.0</ele><time>2026-04-05T14:45:52.999Z</time></trkpt><trkpt lat="42.80040893861984" lon="13.57152328177521"><ele>1102.0</ele><time>2026-04-05T14:45:53.999Z</time></trkpt><trkpt lat="42.800459111233536" lon="13.57146264067984"><ele>1102.0</ele><time>2026-04-05T14:45:54.999Z</time></trkpt><trkpt lat="42.80050428725364" lon="13.571402273778853"><ele>1101.9999999999998</ele><time>2026-04-05T14:45:55.999Z</time></trkpt><trkpt lat="42.800550701864324" lon="13.571339484345538"><ele>1102.0</ele><time>2026-04-05T14:45:56.999Z</time></trkpt><trkpt lat="42.80059607980121" lon="13.571277079573749"><ele>1102.0</ele><time>2026-04-05T14:45:57.999Z</time></trkpt><trkpt lat="42.80064135770851" lon="13.571214812352318"><ele>1102.0</ele><time>2026-04-05T14:45:58.999Z</time></trkpt><trkpt lat="42.80068764181865" lon="13.571146839934531"><ele>1102.0</ele><time>2026-04-05T14:46:00.001Z</time></trkpt><trkpt lat="42.80073360830286" lon="13.571078279793324"><ele>1102.0</ele><time>2026-04-05T14:46:01.001Z</time></trkpt><trkpt lat="42.80077903297197" lon="13.57100591739758"><ele>1102.0</ele><time>2026-04-05T14:46:02.001Z</time></trkpt><trkpt lat="42.80084774407792" lon="13.570935417264067"><ele>1102.0</ele><time>2026-04-05T14:46:03.001Z</time></trkpt><trkpt lat="42.80091587320671" lon="13.570795371765211"><ele>1101.6666666666665</ele><time>2026-04-05T14:46:05.001Z</time></trkpt><trkpt lat="42.80097095537329" lon="13.570738520323586"><ele>1101.3333333333333</ele><time>2026-04-05T14:46:06.001Z</time></trkpt><trkpt lat="42.80100639688965" lon="13.570664391577507"><ele>1101.0</ele><time>2026-04-05T14:46:07.001Z</time></trkpt><trkpt lat="42.801077880359365" lon="13.57061705784492"><ele>1100.6666666666667</ele><time>2026-04-05T14:46:08.001Z</time></trkpt><trkpt lat="42.80115598812807" lon="13.570550827137275"><ele>1100.3333333333335</ele><time>2026-04-05T14:46:10.001Z</time></trkpt><trkpt lat="42.80122599079926" lon="13.570501044869852"><ele>1100.0</ele><time>2026-04-05T14:46:12.001Z</time></trkpt><trkpt lat="42.801305733805364" lon="13.570445854335194"><ele>1099.0</ele><time>2026-04-05T14:46:14.001Z</time></trkpt><trkpt lat="42.80137828349145" lon="13.570385806253526"><ele>1098.0</ele><time>2026-04-05T14:46:16Z</time></trkpt><trkpt lat="42.80147943466139" lon="13.570505812524281"><ele>1097.0</ele><time>2026-04-05T14:46:17Z</time></trkpt><trkpt lat="42.801584478172295" lon="13.570527348009149"><ele>1096.0</ele><time>2026-04-05T14:46:19Z</time></trkpt><trkpt lat="42.80168434566626" lon="13.570555087515853"><ele>1095.0</ele><time>2026-04-05T14:46:21Z</time></trkpt><trkpt lat="42.80177282586867" lon="13.570586805888514"><ele>1094.0</ele><time>2026-04-05T14:46:23Z</time></trkpt><trkpt lat="42.80184357434279" lon="13.57065210337808"><ele>1093.0</ele><time>2026-04-05T14:46:25Z</time></trkpt><trkpt lat="42.80188192884346" lon="13.570793903909523"><ele>1092.0</ele><time>2026-04-05T14:46:27Z</time></trkpt><trkpt lat="42.80189729829035" lon="13.570883248303948"><ele>1091.0</ele><time>2026-04-05T14:46:28Z</time></trkpt><trkpt lat="42.801920703804385" lon="13.57097771742166"><ele>1090.0</ele><time>2026-04-05T14:46:29Z</time></trkpt><trkpt lat="42.80193602839889" lon="13.571070302667424"><ele>1089.0</ele><time>2026-04-05T14:46:30Z</time></trkpt><trkpt lat="42.80196095966286" lon="13.5711572662628"><ele>1089.3333333333333</ele><time>2026-04-05T14:46:31Z</time></trkpt><trkpt lat="42.80198899644593" lon="13.571238747789309"><ele>1089.6666666666667</ele><time>2026-04-05T14:46:32Z</time></trkpt><trkpt lat="42.80201753388453" lon="13.571317776868916"><ele>1090.0</ele><time>2026-04-05T14:46:33Z</time></trkpt><trkpt lat="42.80206549059113" lon="13.571446528092185"><ele>1090.3333333333335</ele><time>2026-04-05T14:46:35Z</time></trkpt><trkpt lat="42.80211329400982" lon="13.571547604770208"><ele>1090.6666666666667</ele><time>2026-04-05T14:46:37Z</time></trkpt><trkpt lat="42.80215539993251" lon="13.57163230094753"><ele>1091.0</ele><time>2026-04-05T14:46:39Z</time></trkpt><trkpt lat="42.802214670866974" lon="13.571714553538062"><ele>1091.0</ele><time>2026-04-05T14:46:42Z</time></trkpt><trkpt lat="42.80228346191085" lon="13.571752490915122"><ele>1091.0</ele><time>2026-04-05T14:46:45Z</time></trkpt><trkpt lat="42.80237600505954" lon="13.57173717520793"><ele>1091.0</ele><time>2026-04-05T14:46:48Z</time></trkpt><trkpt lat="42.802467062168134" lon="13.571753421720151"><ele>1091.0</ele><time>2026-04-05T14:46:51Z</time></trkpt><trkpt lat="42.802559343669316" lon="13.571775168318279"><ele>1091.0</ele><time>2026-04-05T14:46:54Z</time></trkpt><trkpt lat="42.802625840977306" lon="13.571802413788218"><ele>1091.0</ele><time>2026-04-05T14:46:56Z</time></trkpt><trkpt lat="42.802691892360535" lon="13.57182617076072"><ele>1089.6666666666667</ele><time>2026-04-05T14:46:58Z</time></trkpt><trkpt lat="42.80276077508488" lon="13.571844285392029"><ele>1088.3333333333335</ele><time>2026-04-05T14:47:00Z</time></trkpt><trkpt lat="42.8028257008846" lon="13.571859211446583"><ele>1087.0</ele><time>2026-04-05T14:47:02Z</time></trkpt><trkpt lat="42.80289993922361" lon="13.571855978424605"><ele>1085.6666666666667</ele><time>2026-04-05T14:47:04Z</time></trkpt><trkpt lat="42.80298852342375" lon="13.571845238398252"><ele>1084.3333333333333</ele><time>2026-04-05T14:47:06Z</time></trkpt><trkpt lat="42.80308087294511" lon="13.571821839645708"><ele>1083.0</ele><time>2026-04-05T14:47:08Z</time></trkpt><trkpt lat="42.80317330068349" lon="13.571787121282114"><ele>1083.0</ele><time>2026-04-05T14:47:10Z</time></trkpt><trkpt lat="42.803263931098115" lon="13.571743820794447"><ele>1083.0</ele><time>2026-04-05T14:47:12Z</time></trkpt><trkpt lat="42.80335710331915" lon="13.571699772542642"><ele>1083.0</ele><time>2026-04-05T14:47:14Z</time></trkpt><trkpt lat="42.80345030233168" lon="13.571652074684758"><ele>1083.0</ele><time>2026-04-05T14:47:16Z</time></trkpt><trkpt lat="42.8035450098883" lon="13.571604974325286"><ele>1083.0</ele><time>2026-04-05T14:47:18Z</time></trkpt><trkpt lat="42.803629490428044" lon="13.571545156169813"><ele>1081.3333333333333</ele><time>2026-04-05T14:47:20Z</time></trkpt><trkpt lat="42.8037161485114" lon="13.57148978266336"><ele>1079.6666666666667</ele><time>2026-04-05T14:47:21.999Z</time></trkpt><trkpt lat="42.80378801759469" lon="13.571436960129393"><ele>1078.0</ele><time>2026-04-05T14:47:23.999Z</time></trkpt><trkpt lat="42.803847685638885" lon="13.571397976750477"><ele>1076.3333333333335</ele><time>2026-04-05T14:47:25.999Z</time></trkpt><trkpt lat="42.80392165940037" lon="13.571341843301719"><ele>1074.6666666666667</ele><time>2026-04-05T14:47:28.999Z</time></trkpt><trkpt lat="42.80399505798151" lon="13.571338044088"><ele>1073.0</ele><time>2026-04-05T14:47:30.999Z</time></trkpt><trkpt lat="42.80407433292409" lon="13.571386315695008"><ele>1073.0</ele><time>2026-04-05T14:47:32.999Z</time></trkpt><trkpt lat="42.80416151575771" lon="13.57146124483732"><ele>1073.0</ele><time>2026-04-05T14:47:34.999Z</time></trkpt><trkpt lat="42.80424273615903" lon="13.571535731745799"><ele>1073.0</ele><time>2026-04-05T14:47:36.999Z</time></trkpt><trkpt lat="42.804313935249915" lon="13.571580519400028"><ele>1073.0</ele><time>2026-04-05T14:47:38.999Z</time></trkpt><trkpt lat="42.804379312853364" lon="13.571581356751103"><ele>1073.0</ele><time>2026-04-05T14:47:41.999Z</time></trkpt><trkpt lat="42.804445081789716" lon="13.571604017904887"><ele>1073.0</ele><time>2026-04-05T14:58:45Z</time></trkpt><trkpt lat="42.80436286097715" lon="13.571566820397106"><ele>1073.0</ele><time>2026-04-05T15:01:04.999Z</time></trkpt><trkpt lat="42.80425162272078" lon="13.571499917749314"><ele>1073.0</ele><time>2026-04-05T15:01:06.999Z</time></trkpt><trkpt lat="42.80417408856947" lon="13.571442657092634"><ele>1073.0</ele><time>2026-04-05T15:01:07.999Z</time></trkpt><trkpt lat="42.804117254733015" lon="13.571393874863798"><ele>1073.0</ele><time>2026-04-05T15:01:08.999Z</time></trkpt><trkpt lat="42.8040561962784" lon="13.571341169283462"><ele>1073.0</ele><time>2026-04-05T15:01:09.999Z</time></trkpt><trkpt lat="42.803982278804" lon="13.571282034862836"><ele>1073.0</ele><time>2026-04-05T15:01:10.999Z</time></trkpt><trkpt lat="42.80390574692274" lon="13.571221586866544"><ele>1073.2</ele><time>2026-04-05T15:01:11.999Z</time></trkpt><trkpt lat="42.80382397119266" lon="13.571158788048885"><ele>1073.4</ele><time>2026-04-05T15:01:12.999Z</time></trkpt><trkpt lat="42.80374033215088" lon="13.57108909252161"><ele>1073.6000000000001</ele><time>2026-04-05T15:01:13.999Z</time></trkpt><trkpt lat="42.80365511951749" lon="13.571014487090874"><ele>1073.8</ele><time>2026-04-05T15:01:14.999Z</time></trkpt><trkpt lat="42.80356077748363" lon="13.570942561622696"><ele>1074.0</ele><time>2026-04-05T15:01:15.999Z</time></trkpt><trkpt lat="42.80345884370493" lon="13.570875709566792"><ele>1075.25</ele><time>2026-04-05T15:01:16.999Z</time></trkpt><trkpt lat="42.803350453404924" lon="13.570813949366432"><ele>1076.5</ele><time>2026-04-05T15:01:17.999Z</time></trkpt><trkpt lat="42.803233027330464" lon="13.570767101170702"><ele>1077.75</ele><time>2026-04-05T15:01:18.999Z</time></trkpt><trkpt lat="42.80310661506812" lon="13.570734035536608"><ele>1079.0</ele><time>2026-04-05T15:01:19.999Z</time></trkpt><trkpt lat="42.802978249026985" lon="13.57070672452687"><ele>1079.0</ele><time>2026-04-05T15:01:20.999Z</time></trkpt><trkpt lat="42.80284836423756" lon="13.570682887120428"><ele>1079.0</ele><time>2026-04-05T15:01:21.999Z</time></trkpt><trkpt lat="42.802716760083705" lon="13.570662613649851"><ele>1079.0</ele><time>2026-04-05T15:01:22.999Z</time></trkpt><trkpt lat="42.80258543011264" lon="13.570641941294786"><ele>1079.0</ele><time>2026-04-05T15:01:23.999Z</time></trkpt><trkpt lat="42.80244900776541" lon="13.570621479385473"><ele>1081.5</ele><time>2026-04-05T15:01:24.999Z</time></trkpt><trkpt lat="42.802312664278986" lon="13.570604821830326"><ele>1084.0</ele><time>2026-04-05T15:01:25.999Z</time></trkpt><trkpt lat="42.80218454095795" lon="13.570583274480688"><ele>1086.5</ele><time>2026-04-05T15:01:26.999Z</time></trkpt><trkpt lat="42.80206274003237" lon="13.570564654977206"><ele>1089.0</ele><time>2026-04-05T15:01:27.999Z</time></trkpt><trkpt lat="42.801945919729015" lon="13.570547711756815"><ele>1089.0</ele><time>2026-04-05T15:01:28.999Z</time></trkpt><trkpt lat="42.80183212639753" lon="13.57053145169977"><ele>1089.0</ele><time>2026-04-05T15:01:29.999Z</time></trkpt><trkpt lat="42.8017247289146" lon="13.570516560718712"><ele>1089.0</ele><time>2026-04-05T15:01:30.999Z</time></trkpt><trkpt lat="42.8016255459747" lon="13.570502846681508"><ele>1089.0</ele><time>2026-04-05T15:01:31.999Z</time></trkpt><trkpt lat="42.80153502080166" lon="13.570489227108677"><ele>1089.0</ele><time>2026-04-05T15:01:32.999Z</time></trkpt><trkpt lat="42.80145470213347" lon="13.570478076181791"><ele>1089.3333333333333</ele><time>2026-04-05T15:01:33.999Z</time></trkpt><trkpt lat="42.80139160700354" lon="13.570448193848708"><ele>1089.6666666666667</ele><time>2026-04-05T15:01:34.999Z</time></trkpt><trkpt lat="42.80132021297819" lon="13.570431204354591"><ele>1090.0</ele><time>2026-04-05T15:01:36.999Z</time></trkpt><trkpt lat="42.801309838386025" lon="13.570252306270403"><ele>1090.3333333333335</ele><time>2026-04-05T15:01:37.999Z</time></trkpt><trkpt lat="42.80131273176019" lon="13.570148016387105"><ele>1090.6666666666667</ele><time>2026-04-05T15:01:38.999Z</time></trkpt><trkpt lat="42.80131288081028" lon="13.570019685849473"><ele>1091.0</ele><time>2026-04-05T15:01:39.999Z</time></trkpt><trkpt lat="42.801306304514995" lon="13.569868767633771"><ele>1091.0</ele><time>2026-04-05T15:01:40.999Z</time></trkpt><trkpt lat="42.80130540450997" lon="13.569740353425354"><ele>1091.0</ele><time>2026-04-05T15:01:41.999Z</time></trkpt><trkpt lat="42.80130364421967" lon="13.56958940171971"><ele>1091.0</ele><time>2026-04-05T15:01:42.999Z</time></trkpt><trkpt lat="42.80130034555376" lon="13.569423311085057"><ele>1091.0</ele><time>2026-04-05T15:01:43.999Z</time></trkpt><trkpt lat="42.80129557717679" lon="13.569247916291177"><ele>1089.25</ele><time>2026-04-05T15:01:44.999Z</time></trkpt><trkpt lat="42.80129157780883" lon="13.569067549013205"><ele>1087.5</ele><time>2026-04-05T15:01:45.999Z</time></trkpt><trkpt lat="42.801289190291435" lon="13.568886564137147"><ele>1085.75</ele><time>2026-04-05T15:01:46.999Z</time></trkpt><trkpt lat="42.801288138241794" lon="13.568702226928998"><ele>1084.0</ele><time>2026-04-05T15:01:47.999Z</time></trkpt><trkpt lat="42.801285720451915" lon="13.568518248852584"><ele>1082.25</ele><time>2026-04-05T15:01:48.999Z</time></trkpt><trkpt lat="42.801283873592936" lon="13.568335377859555"><ele>1080.5</ele><time>2026-04-05T15:01:49.999Z</time></trkpt><trkpt lat="42.80127841317877" lon="13.56816070955424"><ele>1078.75</ele><time>2026-04-05T15:01:50.999Z</time></trkpt><trkpt lat="42.801271201943855" lon="13.567988706341374"><ele>1077.0</ele><time>2026-04-05T15:01:51.999Z</time></trkpt><trkpt lat="42.80125635647638" lon="13.567819243552504"><ele>1075.0</ele><time>2026-04-05T15:01:52.999Z</time></trkpt><trkpt lat="42.801234285805045" lon="13.56764457261541"><ele>1073.0</ele><time>2026-04-05T15:01:53.999Z</time></trkpt><trkpt lat="42.801204210286414" lon="13.567468940296244"><ele>1071.0</ele><time>2026-04-05T15:01:54.999Z</time></trkpt><trkpt lat="42.80116887881021" lon="13.567288930341668"><ele>1069.0</ele><time>2026-04-05T15:01:55.999Z</time></trkpt><trkpt lat="42.80113558838407" lon="13.567108882696333"><ele>1067.0</ele><time>2026-04-05T15:01:56.999Z</time></trkpt><trkpt lat="42.801103070174825" lon="13.566930732457749"><ele>1065.0</ele><time>2026-04-05T15:01:57.999Z</time></trkpt><trkpt lat="42.80107075487127" lon="13.566762478518594"><ele>1063.0</ele><time>2026-04-05T15:01:58.999Z</time></trkpt><trkpt lat="42.80104279213503" lon="13.566608113032045"><ele>1061.0</ele><time>2026-04-05T15:01:59.999Z</time></trkpt><trkpt lat="42.801015245158396" lon="13.566475822623378"><ele>1061.0</ele><time>2026-04-05T15:02:00.999Z</time></trkpt><trkpt lat="42.8009778847894" lon="13.566366054494434"><ele>1061.0</ele><time>2026-04-05T15:02:01.999Z</time></trkpt><trkpt lat="42.800925365702376" lon="13.566271872253854"><ele>1061.0</ele><time>2026-04-05T15:02:02.999Z</time></trkpt><trkpt lat="42.80086690646896" lon="13.56619491557522"><ele>1061.0</ele><time>2026-04-05T15:02:03.999Z</time></trkpt><trkpt lat="42.80081203077777" lon="13.566143325682939"><ele>1061.0</ele><time>2026-04-05T15:02:04.999Z</time></trkpt><trkpt lat="42.80072880354429" lon="13.566045050207983"><ele>1061.0</ele><time>2026-04-05T15:02:06.999Z</time></trkpt><trkpt lat="42.80074432829274" lon="13.565911006548397"><ele>1061.0</ele><time>2026-04-05T15:02:08.999Z</time></trkpt><trkpt lat="42.80080250646034" lon="13.565872429880235"><ele>1061.0</ele><time>2026-04-05T15:02:09.999Z</time></trkpt><trkpt lat="42.80087043445729" lon="13.565914227351417"><ele>1061.0</ele><time>2026-04-05T15:02:10.999Z</time></trkpt><trkpt lat="42.80095386049689" lon="13.565927269699552"><ele>1061.0</ele><time>2026-04-05T15:02:11.999Z</time></trkpt><trkpt lat="42.80104661613334" lon="13.56591758020094"><ele>1061.0</ele><time>2026-04-05T15:02:12.999Z</time></trkpt><trkpt lat="42.80115004858424" lon="13.565931514976384"><ele>1061.0</ele><time>2026-04-05T15:02:13.999Z</time></trkpt><trkpt lat="42.80124152957515" lon="13.565950081870552"><ele>1061.0</ele><time>2026-04-05T15:02:14.999Z</time></trkpt><trkpt lat="42.8013286439542" lon="13.565975616290613"><ele>1061.0</ele><time>2026-04-05T15:02:15.999Z</time></trkpt><trkpt lat="42.80143586380778" lon="13.566037590548055"><ele>1061.0</ele><time>2026-04-05T15:02:16.999Z</time></trkpt><trkpt lat="42.80153333849072" lon="13.566122446547526"><ele>1061.0</ele><time>2026-04-05T15:02:17.999Z</time></trkpt><trkpt lat="42.801624709821304" lon="13.566207208369294"><ele>1061.0</ele><time>2026-04-05T15:02:18.999Z</time></trkpt><trkpt lat="42.801693316099986" lon="13.56628759635312"><ele>1061.0000000000002</ele><time>2026-04-05T15:02:19.999Z</time></trkpt><trkpt lat="42.80174989714761" lon="13.566348444281362"><ele>1061.0</ele><time>2026-04-05T15:02:20.999Z</time></trkpt><trkpt lat="42.80180954008217" lon="13.56637702794109"><ele>1061.0</ele><time>2026-04-05T15:02:21.999Z</time></trkpt><trkpt lat="42.80187313377528" lon="13.56636042782514"><ele>1061.0</ele><time>2026-04-05T15:02:22.999Z</time></trkpt><trkpt lat="42.80192096521259" lon="13.566297244523986"><ele>1061.0</ele><time>2026-04-05T15:02:23.999Z</time></trkpt><trkpt lat="42.801937191173636" lon="13.566203486579248"><ele>1061.0000000000002</ele><time>2026-04-05T15:02:24.999Z</time></trkpt><trkpt lat="42.80192652033151" lon="13.566089175756929"><ele>1061.0</ele><time>2026-04-05T15:02:25.999Z</time></trkpt><trkpt lat="42.801901331870084" lon="13.565960123584976"><ele>1058.25</ele><time>2026-04-05T15:02:26.999Z</time></trkpt><trkpt lat="42.80186940022979" lon="13.565815494148612"><ele>1055.5</ele><time>2026-04-05T15:02:27.999Z</time></trkpt><trkpt lat="42.80183451913941" lon="13.565660499770233"><ele>1052.75</ele><time>2026-04-05T15:02:28.998Z</time></trkpt><trkpt lat="42.801801110759136" lon="13.565508753902199"><ele>1050.0</ele><time>2026-04-05T15:02:29.998Z</time></trkpt><trkpt lat="42.8017678758627" lon="13.56536553839729"><ele>1046.2</ele><time>2026-04-05T15:02:30.998Z</time></trkpt><trkpt lat="42.80173196057838" lon="13.565237556963565"><ele>1042.4</ele><time>2026-04-05T15:02:31.998Z</time></trkpt><trkpt lat="42.80167977136758" lon="13.565125698267131"><ele>1038.6</ele><time>2026-04-05T15:02:32.998Z</time></trkpt><trkpt lat="42.8016131282735" lon="13.565031652388303"><ele>1034.8</ele><time>2026-04-05T15:02:33.998Z</time></trkpt><trkpt lat="42.80153160972182" lon="13.564959262378837"><ele>1031.0</ele><time>2026-04-05T15:02:34.998Z</time></trkpt><trkpt lat="42.80143626761805" lon="13.564903278186614"><ele>1031.0</ele><time>2026-04-05T15:02:35.998Z</time></trkpt><trkpt lat="42.80132881642069" lon="13.564858153273233"><ele>1031.0</ele><time>2026-04-05T15:02:36.998Z</time></trkpt><trkpt lat="42.80122529546692" lon="13.5648159041733"><ele>1031.0</ele><time>2026-04-05T15:02:37.998Z</time></trkpt><trkpt lat="42.80112832458634" lon="13.564776683860648"><ele>1031.0</ele><time>2026-04-05T15:02:38.998Z</time></trkpt><trkpt lat="42.80104297021075" lon="13.56473900511234"><ele>1031.0</ele><time>2026-04-05T15:02:39.998Z</time></trkpt><trkpt lat="42.80096612531671" lon="13.564702043571154"><ele>1030.5</ele><time>2026-04-05T15:02:40.998Z</time></trkpt><trkpt lat="42.80089882576949" lon="13.564653895448803"><ele>1030.0</ele><time>2026-04-05T15:02:41.998Z</time></trkpt><trkpt lat="42.80084572963965" lon="13.564581950310258"><ele>1029.5</ele><time>2026-04-05T15:02:42.998Z</time></trkpt><trkpt lat="42.80082015560259" lon="13.564491003290486"><ele>1029.0</ele><time>2026-04-05T15:02:43.998Z</time></trkpt><trkpt lat="42.80082552496362" lon="13.564391887617637"><ele>1028.5</ele><time>2026-04-05T15:02:44.998Z</time></trkpt><trkpt lat="42.80084428197191" lon="13.56428094996271"><ele>1028.0</ele><time>2026-04-05T15:02:45.998Z</time></trkpt><trkpt lat="42.80087008958529" lon="13.564147850228453"><ele>1028.0</ele><time>2026-04-05T15:02:46.998Z</time></trkpt><trkpt lat="42.800895790085605" lon="13.564001571640214"><ele>1028.0</ele><time>2026-04-05T15:02:47.999Z</time></trkpt><trkpt lat="42.8009174412044" lon="13.563842886341192"><ele>1028.0</ele><time>2026-04-05T15:02:48.999Z</time></trkpt><trkpt lat="42.80092785692467" lon="13.563719929945341"><ele>1028.0</ele><time>2026-04-05T15:02:49.999Z</time></trkpt><trkpt lat="42.800923655164944" lon="13.563580969829578"><ele>1028.0</ele><time>2026-04-05T15:02:50.999Z</time></trkpt><trkpt lat="42.80090158173272" lon="13.563445057133789"><ele>1025.75</ele><time>2026-04-05T15:02:51.999Z</time></trkpt><trkpt lat="42.80086010392144" lon="13.563309296567681"><ele>1023.5</ele><time>2026-04-05T15:02:52.999Z</time></trkpt><trkpt lat="42.80080574437591" lon="13.56317564428631"><ele>1021.25</ele><time>2026-04-05T15:02:53.999Z</time></trkpt><trkpt lat="42.80073950325137" lon="13.563046442452082"><ele>1019.0</ele><time>2026-04-05T15:02:54.999Z</time></trkpt><trkpt lat="42.8006632944557" lon="13.562921628826189"><ele>1014.25</ele><time>2026-04-05T15:02:55.999Z</time></trkpt><trkpt lat="42.80057874419892" lon="13.562800370903146"><ele>1009.5</ele><time>2026-04-05T15:02:56.999Z</time></trkpt><trkpt lat="42.800483274561884" lon="13.562687966466582"><ele>1004.75</ele><time>2026-04-05T15:02:57.999Z</time></trkpt><trkpt lat="42.80037479900754" lon="13.562574551852956"><ele>1000.0</ele><time>2026-04-05T15:02:58.999Z</time></trkpt><trkpt lat="42.80025799632862" lon="13.562455890358436"><ele>1004.3333333333333</ele><time>2026-04-05T15:02:59.999Z</time></trkpt><trkpt lat="42.800134051083624" lon="13.56233759508871"><ele>1008.6666666666667</ele><time>2026-04-05T15:03:00.999Z</time></trkpt><trkpt lat="42.80000712098369" lon="13.562212586741069"><ele>1013.0</ele><time>2026-04-05T15:03:01.999Z</time></trkpt><trkpt lat="42.799883007106516" lon="13.562086141002808"><ele>1008.0</ele><time>2026-04-05T15:03:02.999Z</time></trkpt><trkpt lat="42.799765894847674" lon="13.561959401269824"><ele>1003.0</ele><time>2026-04-05T15:03:03.999Z</time></trkpt><trkpt lat="42.79965330005549" lon="13.561827768487861"><ele>998.0</ele><time>2026-04-05T15:03:04.999Z</time></trkpt><trkpt lat="42.7995452938361" lon="13.56168636169668"><ele>993.0</ele><time>2026-04-05T15:03:05.999Z</time></trkpt><trkpt lat="42.799435384139855" lon="13.561544477614397"><ele>992.0</ele><time>2026-04-05T15:03:06.999Z</time></trkpt><trkpt lat="42.79931878885555" lon="13.561406494329288"><ele>991.0</ele><time>2026-04-05T15:03:07.999Z</time></trkpt><trkpt lat="42.79920291922711" lon="13.561276567182553"><ele>990.0</ele><time>2026-04-05T15:03:08.999Z</time></trkpt><trkpt lat="42.79909255167576" lon="13.561157676531701"><ele>989.0</ele><time>2026-04-05T15:03:09.999Z</time></trkpt><trkpt lat="42.79898839738919" lon="13.561048768568135"><ele>989.0</ele><time>2026-04-05T15:03:10.999Z</time></trkpt><trkpt lat="42.79888070882697" lon="13.560952097394376"><ele>989.0</ele><time>2026-04-05T15:03:11.999Z</time></trkpt><trkpt lat="42.798759655230576" lon="13.560869055267395"><ele>989.0</ele><time>2026-04-05T15:03:12.999Z</time></trkpt><trkpt lat="42.79862523360434" lon="13.560793604065747"><ele>989.0</ele><time>2026-04-05T15:03:13.999Z</time></trkpt><trkpt lat="42.79848827411012" lon="13.560716941331256"><ele>992.0</ele><time>2026-04-05T15:03:14.999Z</time></trkpt><trkpt lat="42.79835827112329" lon="13.560649259773463"><ele>995.0</ele><time>2026-04-05T15:03:15.999Z</time></trkpt><trkpt lat="42.79823323346374" lon="13.56058605416264"><ele>998.0</ele><time>2026-04-05T15:03:16.999Z</time></trkpt><trkpt lat="42.79811281103541" lon="13.5605276987339"><ele>1001.0</ele><time>2026-04-05T15:03:17.999Z</time></trkpt><trkpt lat="42.79799439745783" lon="13.56047447117664"><ele>1001.0</ele><time>2026-04-05T15:03:18.999Z</time></trkpt><trkpt lat="42.79788137674801" lon="13.560427720849722"><ele>1000.9999999999999</ele><time>2026-04-05T15:03:19.999Z</time></trkpt><trkpt lat="42.79777557953824" lon="13.560383402374715"><ele>1000.9999999999999</ele><time>2026-04-05T15:03:20.999Z</time></trkpt><trkpt lat="42.79767246997531" lon="13.560329538320392"><ele>1001.0</ele><time>2026-04-05T15:03:21.999Z</time></trkpt><trkpt lat="42.7976014943389" lon="13.560250731626953"><ele>1001.0</ele><time>2026-04-05T15:03:22.999Z</time></trkpt><trkpt lat="42.797549451694714" lon="13.560150848271494"><ele>999.0</ele><time>2026-04-05T15:03:23.999Z</time></trkpt><trkpt lat="42.79753443318971" lon="13.560030961223994"><ele>996.9999999999999</ele><time>2026-04-05T15:03:24.999Z</time></trkpt><trkpt lat="42.79752587399648" lon="13.559900323453807"><ele>994.9999999999999</ele><time>2026-04-05T15:03:25.999Z</time></trkpt><trkpt lat="42.79756840451112" lon="13.55975201631177"><ele>993.0</ele><time>2026-04-05T15:03:26.999Z</time></trkpt><trkpt lat="42.79764528518547" lon="13.559612216542552"><ele>991.0</ele><time>2026-04-05T15:03:27.999Z</time></trkpt><trkpt lat="42.79775755458815" lon="13.559432856116036"><ele>984.0</ele><time>2026-04-05T15:03:29.999Z</time></trkpt><trkpt lat="42.79784892174741" lon="13.559329260310736"><ele>977.0</ele><time>2026-04-05T15:03:30.999Z</time></trkpt><trkpt lat="42.79793044984296" lon="13.559238063158578"><ele>970.0</ele><time>2026-04-05T15:03:31.999Z</time></trkpt><trkpt lat="42.79799889603237" lon="13.559125952733085"><ele>963.0</ele><time>2026-04-05T15:03:32.999Z</time></trkpt><trkpt lat="42.79803903630882" lon="13.558969226301892"><ele>963.0</ele><time>2026-04-05T15:03:34.999Z</time></trkpt><trkpt lat="42.79800915408645" lon="13.558847803895251"><ele>963.0</ele><time>2026-04-05T15:03:35.999Z</time></trkpt><trkpt lat="42.797950773892715" lon="13.558732410281355"><ele>963.0</ele><time>2026-04-05T15:03:36.999Z</time></trkpt><trkpt lat="42.797866464257325" lon="13.55861713787812"><ele>963.0</ele><time>2026-04-05T15:03:37.999Z</time></trkpt><trkpt lat="42.797780534900696" lon="13.558494938509867"><ele>963.0</ele><time>2026-04-05T15:03:38.999Z</time></trkpt><trkpt lat="42.79769039874753" lon="13.558364433162724"><ele>965.75</ele><time>2026-04-05T15:03:39.999Z</time></trkpt><trkpt lat="42.79759352439328" lon="13.558230730386049"><ele>968.5</ele><time>2026-04-05T15:03:40.999Z</time></trkpt><trkpt lat="42.79749302532559" lon="13.558095200297887"><ele>971.25</ele><time>2026-04-05T15:03:41.999Z</time></trkpt><trkpt lat="42.7973841032985" lon="13.557973256354208"><ele>974.0</ele><time>2026-04-05T15:03:42.999Z</time></trkpt><trkpt lat="42.79726819858519" lon="13.557861961598782"><ele>970.75</ele><time>2026-04-05T15:03:43.999Z</time></trkpt><trkpt lat="42.797150296098025" lon="13.557752686080454"><ele>967.5</ele><time>2026-04-05T15:03:44.999Z</time></trkpt><trkpt lat="42.79703489850784" lon="13.557653015942286"><ele>964.25</ele><time>2026-04-05T15:03:45.999Z</time></trkpt><trkpt lat="42.79692504915335" lon="13.557554597816678"><ele>961.0</ele><time>2026-04-05T15:03:46.999Z</time></trkpt><trkpt lat="42.796825978891086" lon="13.557461116214828"><ele>961.0</ele><time>2026-04-05T15:03:47.999Z</time></trkpt><trkpt lat="42.79674141580259" lon="13.55738218141221"><ele>960.9999999999999</ele><time>2026-04-05T15:03:48.999Z</time></trkpt><trkpt lat="42.796655683114636" lon="13.55732693513431"><ele>960.9999999999999</ele><time>2026-04-05T15:03:49.999Z</time></trkpt><trkpt lat="42.7965577549401" lon="13.557314824857583"><ele>961.0</ele><time>2026-04-05T15:03:50.999Z</time></trkpt><trkpt lat="42.7964535683902" lon="13.557338231712029"><ele>961.0</ele><time>2026-04-05T15:03:51.999Z</time></trkpt><trkpt lat="42.796338700336904" lon="13.557393964755235"><ele>961.0</ele><time>2026-04-05T15:03:52.999Z</time></trkpt><trkpt lat="42.796223439145884" lon="13.557457225813362"><ele>960.9999999999999</ele><time>2026-04-05T15:03:53.999Z</time></trkpt><trkpt lat="42.79611478086678" lon="13.557510117796689"><ele>960.9999999999999</ele><time>2026-04-05T15:03:54.999Z</time></trkpt><trkpt lat="42.79602078324349" lon="13.557554479032705"><ele>961.0</ele><time>2026-04-05T15:03:55.999Z</time></trkpt><trkpt lat="42.79593831176571" lon="13.557585962880276"><ele>961.0</ele><time>2026-04-05T15:03:56.999Z</time></trkpt><trkpt lat="42.795867965957" lon="13.557581090558545"><ele>960.1666666666666</ele><time>2026-04-05T15:03:57.999Z</time></trkpt><trkpt lat="42.79580522555334" lon="13.557592352953236"><ele>959.3333333333333</ele><time>2026-04-05T15:03:58.999Z</time></trkpt><trkpt lat="42.79575734956058" lon="13.557531315427676"><ele>958.5</ele><time>2026-04-05T15:03:59.999Z</time></trkpt><trkpt lat="42.79573346677868" lon="13.5574273427643"><ele>957.6666666666667</ele><time>2026-04-05T15:04:00.999Z</time></trkpt><trkpt lat="42.79575284960509" lon="13.557320887439548"><ele>956.8333333333334</ele><time>2026-04-05T15:04:01.999Z</time></trkpt><trkpt lat="42.79582964549431" lon="13.557262911111243"><ele>956.0</ele><time>2026-04-05T15:04:02.999Z</time></trkpt><trkpt lat="42.7958999668046" lon="13.557223173565813"><ele>956.0</ele><time>2026-04-05T15:04:03.999Z</time></trkpt><trkpt lat="42.79598503709584" lon="13.557146390651159"><ele>956.0</ele><time>2026-04-05T15:04:04.999Z</time></trkpt><trkpt lat="42.7960919853907" lon="13.557083412818615"><ele>956.0</ele><time>2026-04-05T15:04:05.999Z</time></trkpt><trkpt lat="42.79620809919397" lon="13.557008637876125"><ele>956.0</ele><time>2026-04-05T15:04:06.999Z</time></trkpt><trkpt lat="42.796321590907425" lon="13.55693499027197"><ele>949.5</ele><time>2026-04-05T15:04:07.999Z</time></trkpt><trkpt lat="42.79643905639218" lon="13.55689532077005"><ele>943.0</ele><time>2026-04-05T15:04:08.999Z</time></trkpt><trkpt lat="42.796554041819974" lon="13.556870918379383"><ele>936.5</ele><time>2026-04-05T15:04:09.999Z</time></trkpt><trkpt lat="42.796679504811465" lon="13.556871386200141"><ele>930.0</ele><time>2026-04-05T15:04:10.999Z</time></trkpt><trkpt lat="42.79681538879604" lon="13.556885806767859"><ele>928.3333333333333</ele><time>2026-04-05T15:04:11.999Z</time></trkpt><trkpt lat="42.796965737239745" lon="13.556914798972153"><ele>926.6666666666666</ele><time>2026-04-05T15:04:12.999Z</time></trkpt><trkpt lat="42.797118125733206" lon="13.55695137242088"><ele>925.0</ele><time>2026-04-05T15:04:13.999Z</time></trkpt><trkpt lat="42.79727075204204" lon="13.556991337099"><ele>925.0</ele><time>2026-04-05T15:04:14.999Z</time></trkpt><trkpt lat="42.797422163509516" lon="13.557034358139031"><ele>925.0</ele><time>2026-04-05T15:04:15.999Z</time></trkpt><trkpt lat="42.79757730271015" lon="13.557078567751123"><ele>925.0</ele><time>2026-04-05T15:04:16.999Z</time></trkpt><trkpt lat="42.79772797920214" lon="13.55713064562295"><ele>930.6666666666666</ele><time>2026-04-05T15:04:17.999Z</time></trkpt><trkpt lat="42.79787551698412" lon="13.557195562167347"><ele>936.3333333333333</ele><time>2026-04-05T15:04:18.999Z</time></trkpt><trkpt lat="42.7980280632801" lon="13.557264267479372"><ele>942.0</ele><time>2026-04-05T15:04:19.999Z</time></trkpt><trkpt lat="42.798183480364" lon="13.557334265786585"><ele>942.0</ele><time>2026-04-05T15:04:20.999Z</time></trkpt><trkpt lat="42.798344238682006" lon="13.557388463924314"><ele>942.0</ele><time>2026-04-05T15:04:21.999Z</time></trkpt><trkpt lat="42.79848808659212" lon="13.557458995739864"><ele>942.0</ele><time>2026-04-05T15:04:22.999Z</time></trkpt><trkpt lat="42.79862678868543" lon="13.557526095892134"><ele>938.5</ele><time>2026-04-05T15:04:23.999Z</time></trkpt><trkpt lat="42.7987576738895" lon="13.557592406912363"><ele>935.0</ele><time>2026-04-05T15:04:24.999Z</time></trkpt><trkpt lat="42.798877358433714" lon="13.55765797973337"><ele>931.5</ele><time>2026-04-05T15:04:25.999Z</time></trkpt><trkpt lat="42.79897921768683" lon="13.557712937280128"><ele>928.0</ele><time>2026-04-05T15:04:26.999Z</time></trkpt><trkpt lat="42.79908022595184" lon="13.557763038697114"><ele>928.0</ele><time>2026-04-05T15:04:27.999Z</time></trkpt><trkpt lat="42.799178882904215" lon="13.557796140373746"><ele>928.0</ele><time>2026-04-05T15:04:28.999Z</time></trkpt><trkpt lat="42.79927333814121" lon="13.557791734899268"><ele>928.0</ele><time>2026-04-05T15:04:29.999Z</time></trkpt><trkpt lat="42.79936644216412" lon="13.55775624148279"><ele>928.0</ele><time>2026-04-05T15:04:30.999Z</time></trkpt><trkpt lat="42.799450843306126" lon="13.557682713323048"><ele>928.0</ele><time>2026-04-05T15:04:31.999Z</time></trkpt><trkpt lat="42.799517104028695" lon="13.557567331615047"><ele>927.0</ele><time>2026-04-05T15:04:32.999Z</time></trkpt><trkpt lat="42.79956328912623" lon="13.55742940762037"><ele>926.0</ele><time>2026-04-05T15:04:33.999Z</time></trkpt><trkpt lat="42.79958347114346" lon="13.557282526998577"><ele>925.0</ele><time>2026-04-05T15:04:34.999Z</time></trkpt><trkpt lat="42.79957357112803" lon="13.557130374851306"><ele>924.0</ele><time>2026-04-05T15:04:35.999Z</time></trkpt><trkpt lat="42.79953745611744" lon="13.556978850999759"><ele>924.0</ele><time>2026-04-05T15:04:36.999Z</time></trkpt><trkpt lat="42.79947446977151" lon="13.556832848625062"><ele>924.0</ele><time>2026-04-05T15:04:37.999Z</time></trkpt><trkpt lat="42.79939302020595" lon="13.556696652780552"><ele>924.0</ele><time>2026-04-05T15:04:38.999Z</time></trkpt><trkpt lat="42.799303366205066" lon="13.556564075603573"><ele>924.0</ele><time>2026-04-05T15:04:39.998Z</time></trkpt><trkpt lat="42.79920742436007" lon="13.55643565527316"><ele>923.75</ele><time>2026-04-05T15:04:40.998Z</time></trkpt><trkpt lat="42.799102737865546" lon="13.556318883376292"><ele>923.5</ele><time>2026-04-05T15:04:41.998Z</time></trkpt><trkpt lat="42.79900163229951" lon="13.556203975641294"><ele>923.25</ele><time>2026-04-05T15:04:42.998Z</time></trkpt><trkpt lat="42.79891804526515" lon="13.556095106711913"><ele>923.0</ele><time>2026-04-05T15:04:43.998Z</time></trkpt><trkpt lat="42.7988557537949" lon="13.555996859337709"><ele>922.5999999999999</ele><time>2026-04-05T15:04:44.998Z</time></trkpt><trkpt lat="42.79882036781582" lon="13.555886942343744"><ele>922.1999999999999</ele><time>2026-04-05T15:04:45.998Z</time></trkpt><trkpt lat="42.798823649255404" lon="13.555764887792702"><ele>921.8</ele><time>2026-04-05T15:04:46.998Z</time></trkpt><trkpt lat="42.798858490024905" lon="13.555628954542858"><ele>921.4</ele><time>2026-04-05T15:04:47.998Z</time></trkpt><trkpt lat="42.798908821158186" lon="13.555499897093505"><ele>921.0</ele><time>2026-04-05T15:04:48.998Z</time></trkpt><trkpt lat="42.79896787792115" lon="13.55538298537491"><ele>920.0</ele><time>2026-04-05T15:04:49.998Z</time></trkpt><trkpt lat="42.799054138934686" lon="13.555282431555119"><ele>919.0</ele><time>2026-04-05T15:04:50.998Z</time></trkpt><trkpt lat="42.7991744211681" lon="13.555185691415584"><ele>918.0</ele><time>2026-04-05T15:04:51.998Z</time></trkpt><trkpt lat="42.7992874603935" lon="13.555077074787457"><ele>917.0</ele><time>2026-04-05T15:04:52.999Z</time></trkpt><trkpt lat="42.79940158105269" lon="13.55493930346155"><ele>914.3333333333334</ele><time>2026-04-05T15:04:53.999Z</time></trkpt><trkpt lat="42.79952744107408" lon="13.554803215398353"><ele>911.6666666666667</ele><time>2026-04-05T15:04:54.999Z</time></trkpt><trkpt lat="42.79965080455635" lon="13.55466810491673"><ele>909.0</ele><time>2026-04-05T15:04:55.999Z</time></trkpt><trkpt lat="42.79977978026318" lon="13.554550337139453"><ele>910.0</ele><time>2026-04-05T15:04:56.999Z</time></trkpt><trkpt lat="42.799918501688374" lon="13.554462145113364"><ele>911.0</ele><time>2026-04-05T15:04:57.999Z</time></trkpt><trkpt lat="42.8000559074793" lon="13.554394154511549"><ele>912.0</ele><time>2026-04-05T15:04:58.999Z</time></trkpt><trkpt lat="42.800190238233355" lon="13.5543184868567"><ele>913.0</ele><time>2026-04-05T15:04:59.999Z</time></trkpt><trkpt lat="42.80030074362283" lon="13.554235055797257"><ele>909.6666666666666</ele><time>2026-04-05T15:05:00.999Z</time></trkpt><trkpt lat="42.80039162478988" lon="13.554148036377331"><ele>906.3333333333333</ele><time>2026-04-05T15:05:01.999Z</time></trkpt><trkpt lat="42.80045583388566" lon="13.554064814150582"><ele>903.0</ele><time>2026-04-05T15:05:03Z</time></trkpt><trkpt lat="42.80049439098008" lon="13.553980054130227"><ele>899.6666666666667</ele><time>2026-04-05T15:05:03.999Z</time></trkpt><trkpt lat="42.80050165204127" lon="13.55387177813547"><ele>896.3333333333334</ele><time>2026-04-05T15:05:05Z</time></trkpt><trkpt lat="42.80048280146474" lon="13.553752027552804"><ele>893.0</ele><time>2026-04-05T15:05:06Z</time></trkpt><trkpt lat="42.80043223295494" lon="13.553619105869375"><ele>893.0</ele><time>2026-04-05T15:05:07Z</time></trkpt><trkpt lat="42.80036709422226" lon="13.553474949234515"><ele>893.0</ele><time>2026-04-05T15:05:07.999Z</time></trkpt><trkpt lat="42.80030523748542" lon="13.553331506381594"><ele>893.0</ele><time>2026-04-05T15:05:08.999Z</time></trkpt><trkpt lat="42.80024425485198" lon="13.553204033985788"><ele>893.0</ele><time>2026-04-05T15:05:09.999Z</time></trkpt><trkpt lat="42.80017803803927" lon="13.553096898218776"><ele>895.75</ele><time>2026-04-05T15:05:10.999Z</time></trkpt><trkpt lat="42.80008314040511" lon="13.553010250736524"><ele>898.5</ele><time>2026-04-05T15:05:11.999Z</time></trkpt><trkpt lat="42.799969049892866" lon="13.552931846304272"><ele>901.25</ele><time>2026-04-05T15:05:12.999Z</time></trkpt><trkpt lat="42.79987435799566" lon="13.5528230516014"><ele>904.0</ele><time>2026-04-05T15:05:13.999Z</time></trkpt><trkpt lat="42.7997921173576" lon="13.55271454654069"><ele>904.0</ele><time>2026-04-05T15:05:14.999Z</time></trkpt><trkpt lat="42.799710309921686" lon="13.552612879025386"><ele>904.0</ele><time>2026-04-05T15:05:15.999Z</time></trkpt><trkpt lat="42.79965639225163" lon="13.5524836698132"><ele>904.0</ele><time>2026-04-05T15:05:16.999Z</time></trkpt><trkpt lat="42.79962687528755" lon="13.552330051761793"><ele>904.0</ele><time>2026-04-05T15:05:17.999Z</time></trkpt><trkpt lat="42.79962388967933" lon="13.55216108981097"><ele>902.25</ele><time>2026-04-05T15:05:18.999Z</time></trkpt><trkpt lat="42.7996495909662" lon="13.551985381307011"><ele>900.5</ele><time>2026-04-05T15:05:19.999Z</time></trkpt><trkpt lat="42.79969825257486" lon="13.551808960814162"><ele>898.75</ele><time>2026-04-05T15:05:20.999Z</time></trkpt><trkpt lat="42.79972856839261" lon="13.551640831378792"><ele>897.0</ele><time>2026-04-05T15:05:21.999Z</time></trkpt><trkpt lat="42.79972554618833" lon="13.551471225907212"><ele>897.0</ele><time>2026-04-05T15:05:22.999Z</time></trkpt><trkpt lat="42.7996926174128" lon="13.551306978051805"><ele>897.0</ele><time>2026-04-05T15:05:23.999Z</time></trkpt><trkpt lat="42.79963524966509" lon="13.551146720336174"><ele>897.0</ele><time>2026-04-05T15:05:24.999Z</time></trkpt><trkpt lat="42.79958018488866" lon="13.550995716070645"><ele>897.0</ele><time>2026-04-05T15:05:25.999Z</time></trkpt><trkpt lat="42.799545876705544" lon="13.55085691768907"><ele>896.2</ele><time>2026-04-05T15:05:26.999Z</time></trkpt><trkpt lat="42.79950947956006" lon="13.550739317765952"><ele>895.4000000000001</ele><time>2026-04-05T15:05:27.999Z</time></trkpt><trkpt lat="42.79944798959079" lon="13.550648684574547"><ele>894.5999999999999</ele><time>2026-04-05T15:05:28.999Z</time></trkpt><trkpt lat="42.79935184194322" lon="13.550580542905855"><ele>893.8</ele><time>2026-04-05T15:05:29.999Z</time></trkpt><trkpt lat="42.79923524996292" lon="13.550535428617795"><ele>893.0</ele><time>2026-04-05T15:05:30.999Z</time></trkpt><trkpt lat="42.79911667522021" lon="13.550473851202579"><ele>894.8</ele><time>2026-04-05T15:05:31.999Z</time></trkpt><trkpt lat="42.79901218038959" lon="13.55041964121812"><ele>896.5999999999999</ele><time>2026-04-05T15:05:32.999Z</time></trkpt><trkpt lat="42.7989203969811" lon="13.550385536024265"><ele>898.4000000000001</ele><time>2026-04-05T15:05:33.999Z</time></trkpt><trkpt lat="42.798844904636475" lon="13.55038008710398"><ele>900.2</ele><time>2026-04-05T15:05:34.999Z</time></trkpt><trkpt lat="42.79876710391245" lon="13.550431007859276"><ele>902.0</ele><time>2026-04-05T15:05:35.999Z</time></trkpt><trkpt lat="42.79869035653639" lon="13.550488717511815"><ele>902.0</ele><time>2026-04-05T15:05:36.999Z</time></trkpt><trkpt lat="42.79860107340838" lon="13.550547990293442"><ele>902.0</ele><time>2026-04-05T15:05:37.999Z</time></trkpt><trkpt lat="42.79852094593394" lon="13.550609120359221"><ele>902.0</ele><time>2026-04-05T15:05:38.999Z</time></trkpt><trkpt lat="42.79844641118014" lon="13.550675097181703"><ele>902.0</ele><time>2026-04-05T15:05:39.999Z</time></trkpt><trkpt lat="42.79838034657401" lon="13.550755321025202"><ele>902.0</ele><time>2026-04-05T15:05:40.999Z</time></trkpt><trkpt lat="42.79830671107368" lon="13.550824939447464"><ele>900.1666666666667</ele><time>2026-04-05T15:05:41.999Z</time></trkpt><trkpt lat="42.79825718337486" lon="13.550881952323776"><ele>898.3333333333334</ele><time>2026-04-05T15:05:42.999Z</time></trkpt><trkpt lat="42.798178222799564" lon="13.550952789296444"><ele>896.5</ele><time>2026-04-05T15:05:44.999Z</time></trkpt><trkpt lat="42.79809878873211" lon="13.550838669582639"><ele>894.6666666666667</ele><time>2026-04-05T15:05:46.999Z</time></trkpt><trkpt lat="42.798111304600056" lon="13.550737984388485"><ele>892.8333333333334</ele><time>2026-04-05T15:05:47.999Z</time></trkpt><trkpt lat="42.79814645777009" lon="13.550622713656118"><ele>891.0</ele><time>2026-04-05T15:05:48.999Z</time></trkpt><trkpt lat="42.798192799388445" lon="13.550490481487714"><ele>887.25</ele><time>2026-04-05T15:05:49.999Z</time></trkpt><trkpt lat="42.79823766483098" lon="13.550344754467043"><ele>883.5</ele><time>2026-04-05T15:05:50.999Z</time></trkpt><trkpt lat="42.7982832408406" lon="13.550191421604604"><ele>879.75</ele><time>2026-04-05T15:05:51.999Z</time></trkpt><trkpt lat="42.79833211936917" lon="13.55003241369421"><ele>876.0</ele><time>2026-04-05T15:05:52.999Z</time></trkpt><trkpt lat="42.79838336061827" lon="13.549876055113696"><ele>876.0</ele><time>2026-04-05T15:05:53.999Z</time></trkpt><trkpt lat="42.79843229349718" lon="13.54973095958258"><ele>875.9999999999999</ele><time>2026-04-05T15:05:54.999Z</time></trkpt><trkpt lat="42.798475419614135" lon="13.549610260743323"><ele>875.9999999999999</ele><time>2026-04-05T15:05:55.999Z</time></trkpt><trkpt lat="42.798509685194325" lon="13.549513100171389"><ele>876.0</ele><time>2026-04-05T15:05:56.999Z</time></trkpt><trkpt lat="42.79852857753654" lon="13.549412183023351"><ele>876.0</ele><time>2026-04-05T15:05:57.999Z</time></trkpt><trkpt lat="42.79852724097159" lon="13.549299344826613"><ele>878.0</ele><time>2026-04-05T15:05:58.999Z</time></trkpt><trkpt lat="42.798503305212286" lon="13.54917818749937"><ele>879.9999999999999</ele><time>2026-04-05T15:05:59.999Z</time></trkpt><trkpt lat="42.79846938731469" lon="13.549049662761286"><ele>881.9999999999999</ele><time>2026-04-05T15:06:00.999Z</time></trkpt><trkpt lat="42.798445527207996" lon="13.548919958773576"><ele>884.0</ele><time>2026-04-05T15:06:01.999Z</time></trkpt><trkpt lat="42.79844785213069" lon="13.54879845420851"><ele>886.0</ele><time>2026-04-05T15:06:02.999Z</time></trkpt><trkpt lat="42.79848210013614" lon="13.548702218506296"><ele>883.1666666666666</ele><time>2026-04-05T15:06:03.999Z</time></trkpt><trkpt lat="42.79853500457871" lon="13.548631814062375"><ele>880.3333333333333</ele><time>2026-04-05T15:06:04.999Z</time></trkpt><trkpt lat="42.798605179945255" lon="13.548574173502693"><ele>877.5</ele><time>2026-04-05T15:06:05.999Z</time></trkpt><trkpt lat="42.798679221441255" lon="13.548517992756716"><ele>874.6666666666667</ele><time>2026-04-05T15:06:06.999Z</time></trkpt><trkpt lat="42.79876614080535" lon="13.548453940473369"><ele>871.8333333333334</ele><time>2026-04-05T15:06:07.999Z</time></trkpt><trkpt lat="42.79884419768528" lon="13.548387149602"><ele>869.0</ele><time>2026-04-05T15:06:08.999Z</time></trkpt><trkpt lat="42.79891015517556" lon="13.548309857171333"><ele>869.0</ele><time>2026-04-05T15:06:09.999Z</time></trkpt><trkpt lat="42.7989528369313" lon="13.548194738111444"><ele>869.0000000000001</ele><time>2026-04-05T15:06:10.999Z</time></trkpt><trkpt lat="42.79896624264762" lon="13.548063225281343"><ele>869.0000000000001</ele><time>2026-04-05T15:06:11.999Z</time></trkpt><trkpt lat="42.79897118282854" lon="13.547940127642374"><ele>869.0</ele><time>2026-04-05T15:06:12.999Z</time></trkpt><trkpt lat="42.79901721001904" lon="13.54783630238056"><ele>869.0</ele><time>2026-04-05T15:06:13.999Z</time></trkpt><trkpt lat="42.799082790073626" lon="13.547758511322966"><ele>866.0</ele><time>2026-04-05T15:06:14.999Z</time></trkpt><trkpt lat="42.79916215343454" lon="13.547676327250596"><ele>863.0000000000001</ele><time>2026-04-05T15:06:15.999Z</time></trkpt><trkpt lat="42.799231454924126" lon="13.547560073822593"><ele>860.0000000000001</ele><time>2026-04-05T15:06:16.999Z</time></trkpt><trkpt lat="42.79929922969927" lon="13.547438481534165"><ele>857.0</ele><time>2026-04-05T15:06:17.999Z</time></trkpt><trkpt lat="42.799359879729614" lon="13.547308548740292"><ele>854.0</ele><time>2026-04-05T15:06:18.999Z</time></trkpt><trkpt lat="42.79941992665385" lon="13.547188819955217"><ele>854.0</ele><time>2026-04-05T15:06:19.999Z</time></trkpt><trkpt lat="42.79948132292487" lon="13.547080669371706"><ele>854.0000000000001</ele><time>2026-04-05T15:06:20.999Z</time></trkpt><trkpt lat="42.79954106337199" lon="13.546983943422962"><ele>854.0000000000001</ele><time>2026-04-05T15:06:21.999Z</time></trkpt><trkpt lat="42.79960158234742" lon="13.546905141817534"><ele>854.0</ele><time>2026-04-05T15:06:22.999Z</time></trkpt><trkpt lat="42.79965575363366" lon="13.54684335055964"><ele>854.0</ele><time>2026-04-05T15:06:23.999Z</time></trkpt><trkpt lat="42.799714443857305" lon="13.546714367928352"><ele>850.1666666666667</ele><time>2026-04-05T15:06:25.999Z</time></trkpt><trkpt lat="42.79965043599229" lon="13.546571759212592"><ele>846.3333333333334</ele><time>2026-04-05T15:06:27.999Z</time></trkpt><trkpt lat="42.799583934893874" lon="13.54655615486323"><ele>842.5</ele><time>2026-04-05T15:06:28.999Z</time></trkpt><trkpt lat="42.79951348820861" lon="13.546572264825844"><ele>838.6666666666667</ele><time>2026-04-05T15:06:29.999Z</time></trkpt><trkpt lat="42.79943670489014" lon="13.546608168831222"><ele>834.8333333333334</ele><time>2026-04-05T15:06:30.999Z</time></trkpt><trkpt lat="42.79935289544903" lon="13.546656277243466"><ele>831.0</ele><time>2026-04-05T15:06:31.999Z</time></trkpt><trkpt lat="42.799266838013445" lon="13.546715049859207"><ele>829.1999999999999</ele><time>2026-04-05T15:06:32.999Z</time></trkpt><trkpt lat="42.79918012513156" lon="13.546792151017135"><ele>827.4</ele><time>2026-04-05T15:06:33.999Z</time></trkpt><trkpt lat="42.79909338845269" lon="13.546880404622367"><ele>825.6</ele><time>2026-04-05T15:06:34.999Z</time></trkpt><trkpt lat="42.79900916930146" lon="13.546972478950368"><ele>823.8</ele><time>2026-04-05T15:06:35.999Z</time></trkpt><trkpt lat="42.79893606241086" lon="13.547077623913795"><ele>822.0</ele><time>2026-04-05T15:06:36.999Z</time></trkpt><trkpt lat="42.79885613638705" lon="13.547175883643755"><ele>821.6</ele><time>2026-04-05T15:06:37.999Z</time></trkpt><trkpt lat="42.79876817384269" lon="13.547264242665765"><ele>821.2</ele><time>2026-04-05T15:06:38.999Z</time></trkpt><trkpt lat="42.79867628619255" lon="13.547345930781907"><ele>820.8</ele><time>2026-04-05T15:06:39.999Z</time></trkpt><trkpt lat="42.79857704483694" lon="13.54740577495474"><ele>820.4</ele><time>2026-04-05T15:06:40.999Z</time></trkpt><trkpt lat="42.79846845962452" lon="13.54745679838605"><ele>820.0</ele><time>2026-04-05T15:06:41.999Z</time></trkpt><trkpt lat="42.798352258409764" lon="13.54750518594548"><ele>820.0</ele><time>2026-04-05T15:06:42.999Z</time></trkpt><trkpt lat="42.79824239385959" lon="13.547555474192098"><ele>820.0</ele><time>2026-04-05T15:06:43.999Z</time></trkpt><trkpt lat="42.79813483191646" lon="13.547604905689763"><ele>820.0</ele><time>2026-04-05T15:06:44.999Z</time></trkpt><trkpt lat="42.79802934734507" lon="13.547661337628192"><ele>820.0</ele><time>2026-04-05T15:06:45.999Z</time></trkpt><trkpt lat="42.797924862412195" lon="13.547742480954536"><ele>820.0</ele><time>2026-04-05T15:06:46.999Z</time></trkpt><trkpt lat="42.79781772959256" lon="13.547840054938742"><ele>820.0</ele><time>2026-04-05T15:06:47.999Z</time></trkpt><trkpt lat="42.79770975107199" lon="13.547948362961886"><ele>820.0</ele><time>2026-04-05T15:06:48.999Z</time></trkpt><trkpt lat="42.79759884811426" lon="13.548065731624874"><ele>820.0</ele><time>2026-04-05T15:06:49.999Z</time></trkpt><trkpt lat="42.79748793699817" lon="13.54817705085009"><ele>817.75</ele><time>2026-04-05T15:06:50.999Z</time></trkpt><trkpt lat="42.797383216856474" lon="13.548278769116715"><ele>815.5</ele><time>2026-04-05T15:06:51.999Z</time></trkpt><trkpt lat="42.79728762796575" lon="13.548377142484501"><ele>813.25</ele><time>2026-04-05T15:06:52.999Z</time></trkpt><trkpt lat="42.797207181105236" lon="13.54849209669638"><ele>811.0</ele><time>2026-04-05T15:06:53.999Z</time></trkpt><trkpt lat="42.797142386593606" lon="13.548628944665824"><ele>815.0</ele><time>2026-04-05T15:06:54.999Z</time></trkpt><trkpt lat="42.79708073865762" lon="13.548780533476595"><ele>819.0</ele><time>2026-04-05T15:06:55.999Z</time></trkpt><trkpt lat="42.797022058795925" lon="13.548944563148012"><ele>823.0</ele><time>2026-04-05T15:06:56.999Z</time></trkpt><trkpt lat="42.796964697661124" lon="13.549101957414859"><ele>827.0</ele><time>2026-04-05T15:06:57.999Z</time></trkpt><trkpt lat="42.79688705801094" lon="13.54924572056869"><ele>825.0</ele><time>2026-04-05T15:06:59Z</time></trkpt><trkpt lat="42.796789039794945" lon="13.549365636323849"><ele>823.0</ele><time>2026-04-05T15:07:00Z</time></trkpt><trkpt lat="42.79667892867834" lon="13.54945987222416"><ele>821.0</ele><time>2026-04-05T15:07:01Z</time></trkpt><trkpt lat="42.796570790822486" lon="13.549540183936573"><ele>819.0</ele><time>2026-04-05T15:07:02Z</time></trkpt><trkpt lat="42.79646710071095" lon="13.54961400731158"><ele>819.0</ele><time>2026-04-05T15:07:03Z</time></trkpt><trkpt lat="42.796372652496295" lon="13.54966331358283"><ele>819.0</ele><time>2026-04-05T15:07:04Z</time></trkpt><trkpt lat="42.79630141854855" lon="13.549685480932022"><ele>819.0</ele><time>2026-04-05T15:07:05Z</time></trkpt><trkpt lat="42.79619547089369" lon="13.54965134026471"><ele>819.0</ele><time>2026-04-05T15:07:07Z</time></trkpt><trkpt lat="42.796162512466715" lon="13.549500208780616"><ele>819.0</ele><time>2026-04-05T15:07:09Z</time></trkpt><trkpt lat="42.79619194373615" lon="13.549416560089577"><ele>814.6</ele><time>2026-04-05T15:07:10Z</time></trkpt><trkpt lat="42.79625940695062" lon="13.549329044077702"><ele>810.2</ele><time>2026-04-05T15:07:11Z</time></trkpt><trkpt lat="42.79633640115955" lon="13.54922711196301"><ele>805.8000000000001</ele><time>2026-04-05T15:07:12Z</time></trkpt><trkpt lat="42.79640666207542" lon="13.549110140346771"><ele>801.4000000000001</ele><time>2026-04-05T15:07:13Z</time></trkpt><trkpt lat="42.796469265142626" lon="13.548994390972044"><ele>797.0</ele><time>2026-04-05T15:07:14Z</time></trkpt><trkpt lat="42.796525132202945" lon="13.548877001841062"><ele>797.0</ele><time>2026-04-05T15:07:15Z</time></trkpt><trkpt lat="42.796559839564125" lon="13.54874595635478"><ele>797.0</ele><time>2026-04-05T15:07:16Z</time></trkpt><trkpt lat="42.79657142655038" lon="13.548607645107188"><ele>797.0</ele><time>2026-04-05T15:07:17Z</time></trkpt><trkpt lat="42.79656410801677" lon="13.548457385691323"><ele>797.0</ele><time>2026-04-05T15:07:18Z</time></trkpt><trkpt lat="42.79654877812354" lon="13.548296488017137"><ele>797.0</ele><time>2026-04-05T15:07:19Z</time></trkpt><trkpt lat="42.79653783240434" lon="13.548140026179116"><ele>794.8</ele><time>2026-04-05T15:07:20Z</time></trkpt><trkpt lat="42.79654146849509" lon="13.547996873721003"><ele>792.6</ele><time>2026-04-05T15:07:21Z</time></trkpt><trkpt lat="42.796570421775264" lon="13.547870089573378"><ele>790.4</ele><time>2026-04-05T15:07:21.999Z</time></trkpt><trkpt lat="42.79661679195852" lon="13.547753142706313"><ele>788.1999999999999</ele><time>2026-04-05T15:07:22.999Z</time></trkpt><trkpt lat="42.79667184636383" lon="13.547639851487189"><ele>786.0</ele><time>2026-04-05T15:07:23.999Z</time></trkpt><trkpt lat="42.79674234924378" lon="13.547537533233445"><ele>788.25</ele><time>2026-04-05T15:07:24.999Z</time></trkpt><trkpt lat="42.796830044037286" lon="13.547454003036504"><ele>790.5</ele><time>2026-04-05T15:07:25.999Z</time></trkpt><trkpt lat="42.79692553571129" lon="13.547364643175722"><ele>792.75</ele><time>2026-04-05T15:07:26.999Z</time></trkpt><trkpt lat="42.797022170076055" lon="13.547263033479107"><ele>795.0</ele><time>2026-04-05T15:07:27.999Z</time></trkpt><trkpt lat="42.797120842559345" lon="13.547170742342272"><ele>795.0</ele><time>2026-04-05T15:07:28.999Z</time></trkpt><trkpt lat="42.79722156659054" lon="13.54709005550787"><ele>795.0</ele><time>2026-04-05T15:07:29.999Z</time></trkpt><trkpt lat="42.79733128325235" lon="13.547013452098485"><ele>795.0</ele><time>2026-04-05T15:07:30.999Z</time></trkpt><trkpt lat="42.79743479086402" lon="13.546924700105237"><ele>795.0</ele><time>2026-04-05T15:07:31.999Z</time></trkpt><trkpt lat="42.79752410283809" lon="13.54681028678681"><ele>796.0</ele><time>2026-04-05T15:07:32.999Z</time></trkpt><trkpt lat="42.79760904110769" lon="13.54667720508317"><ele>797.0</ele><time>2026-04-05T15:07:33.999Z</time></trkpt><trkpt lat="42.79768117341131" lon="13.546535452844179"><ele>798.0</ele><time>2026-04-05T15:07:34.999Z</time></trkpt><trkpt lat="42.797744524943255" lon="13.546389253334622"><ele>799.0</ele><time>2026-04-05T15:07:35.999Z</time></trkpt><trkpt lat="42.79779701615759" lon="13.546235005882933"><ele>794.75</ele><time>2026-04-05T15:07:36.999Z</time></trkpt><trkpt lat="42.79783868738754" lon="13.546072109807604"><ele>790.5</ele><time>2026-04-05T15:07:37.999Z</time></trkpt><trkpt lat="42.79786707669584" lon="13.545903494542662"><ele>786.25</ele><time>2026-04-05T15:07:38.999Z</time></trkpt><trkpt lat="42.797897641404134" lon="13.545740658301785"><ele>782.0</ele><time>2026-04-05T15:07:39.999Z</time></trkpt><trkpt lat="42.7979473609513" lon="13.545578997206839"><ele>782.0</ele><time>2026-04-05T15:07:40.999Z</time></trkpt><trkpt lat="42.798009992358345" lon="13.545416862801725"><ele>782.0</ele><time>2026-04-05T15:07:41.999Z</time></trkpt><trkpt lat="42.79806815412975" lon="13.54525720619166"><ele>782.0</ele><time>2026-04-05T15:07:42.999Z</time></trkpt><trkpt lat="42.798120155880085" lon="13.545103963188385"><ele>782.0</ele><time>2026-04-05T15:07:43.999Z</time></trkpt><trkpt lat="42.79816169042633" lon="13.544956788030046"><ele>779.4000000000001</ele><time>2026-04-05T15:07:44.999Z</time></trkpt><trkpt lat="42.798193404164024" lon="13.544818559085872"><ele>776.8000000000001</ele><time>2026-04-05T15:07:45.999Z</time></trkpt><trkpt lat="42.79822634126385" lon="13.544696785307629"><ele>774.2</ele><time>2026-04-05T15:07:46.999Z</time></trkpt><trkpt lat="42.79827409877064" lon="13.544602499611575"><ele>771.6</ele><time>2026-04-05T15:07:47.999Z</time></trkpt><trkpt lat="42.79834539336429" lon="13.544527478292933"><ele>769.0</ele><time>2026-04-05T15:07:48.999Z</time></trkpt><trkpt lat="42.798435616786854" lon="13.544457782844514"><ele>768.0</ele><time>2026-04-05T15:07:49.999Z</time></trkpt><trkpt lat="42.798529504261865" lon="13.544376295171531"><ele>767.0</ele><time>2026-04-05T15:07:50.999Z</time></trkpt><trkpt lat="42.798617991771565" lon="13.544287908704874"><ele>766.0</ele><time>2026-04-05T15:07:51.999Z</time></trkpt><trkpt lat="42.79871563295868" lon="13.544176568085337"><ele>765.0</ele><time>2026-04-05T15:07:52.999Z</time></trkpt><trkpt lat="42.79880479442927" lon="13.544079331363006"><ele>765.0</ele><time>2026-04-05T15:07:53.999Z</time></trkpt><trkpt lat="42.798894380102375" lon="13.544005455000995"><ele>765.0</ele><time>2026-04-05T15:07:54.999Z</time></trkpt><trkpt lat="42.79898113352811" lon="13.543958896735678"><ele>765.0</ele><time>2026-04-05T15:07:55.999Z</time></trkpt><trkpt lat="42.7990568459741" lon="13.543927195371356"><ele>765.0</ele><time>2026-04-05T15:07:56.999Z</time></trkpt><trkpt lat="42.799164512610155" lon="13.543882737953332"><ele>765.0</ele><time>2026-04-05T15:07:58.999Z</time></trkpt><trkpt lat="42.799220902286905" lon="13.543758572446697"><ele>765.0</ele><time>2026-04-05T15:08:00.999Z</time></trkpt><trkpt lat="42.79919759218312" lon="13.543676464905483"><ele>765.0</ele><time>2026-04-05T15:08:01.999Z</time></trkpt><trkpt lat="42.79913112977118" lon="13.543631938296878"><ele>765.0</ele><time>2026-04-05T15:08:02.999Z</time></trkpt><trkpt lat="42.79904341663237" lon="13.54364650931076"><ele>765.0</ele><time>2026-04-05T15:08:03.999Z</time></trkpt><trkpt lat="42.79895097925076" lon="13.543674547616305"><ele>765.0</ele><time>2026-04-05T15:08:04.999Z</time></trkpt><trkpt lat="42.79884386082674" lon="13.543713266874732"><ele>765.0</ele><time>2026-04-05T15:08:05.999Z</time></trkpt><trkpt lat="42.79872522975917" lon="13.543738081395649"><ele>765.0</ele><time>2026-04-05T15:08:06.999Z</time></trkpt><trkpt lat="42.798613810678795" lon="13.543761703789457"><ele>765.0</ele><time>2026-04-05T15:08:07.999Z</time></trkpt><trkpt lat="42.79851271345714" lon="13.543798012517094"><ele>765.0</ele><time>2026-04-05T15:08:08.999Z</time></trkpt><trkpt lat="42.7984227643261" lon="13.54385686359296"><ele>765.0</ele><time>2026-04-05T15:08:09.999Z</time></trkpt><trkpt lat="42.79833683381957" lon="13.543934858582286"><ele>765.0</ele><time>2026-04-05T15:08:10.999Z</time></trkpt><trkpt lat="42.7982535444786" lon="13.544037012295808"><ele>761.0</ele><time>2026-04-05T15:08:11.999Z</time></trkpt><trkpt lat="42.7981710045424" lon="13.544142215760186"><ele>757.0</ele><time>2026-04-05T15:08:12.999Z</time></trkpt><trkpt lat="42.798089938583644" lon="13.544246209897512"><ele>753.0</ele><time>2026-04-05T15:08:13.999Z</time></trkpt><trkpt lat="42.79801489864433" lon="13.544365450176496"><ele>749.0</ele><time>2026-04-05T15:08:14.999Z</time></trkpt><trkpt lat="42.79793108085166" lon="13.5444747572171"><ele>754.0</ele><time>2026-04-05T15:08:15.999Z</time></trkpt><trkpt lat="42.79786551651141" lon="13.544603554225823"><ele>759.0</ele><time>2026-04-05T15:08:16.999Z</time></trkpt><trkpt lat="42.79780186906811" lon="13.544736788170491"><ele>764.0</ele><time>2026-04-05T15:08:17.999Z</time></trkpt><trkpt lat="42.79774100506108" lon="13.544866316198409"><ele>769.0</ele><time>2026-04-05T15:08:18.999Z</time></trkpt><trkpt lat="42.79768422603869" lon="13.544988156255618"><ele>765.6</ele><time>2026-04-05T15:08:19.999Z</time></trkpt><trkpt lat="42.797632579938465" lon="13.545105270755029"><ele>762.2</ele><time>2026-04-05T15:08:20.999Z</time></trkpt><trkpt lat="42.79758155116636" lon="13.545218277679561"><ele>758.8000000000001</ele><time>2026-04-05T15:08:21.999Z</time></trkpt><trkpt lat="42.79751849656987" lon="13.54532862900275"><ele>755.4000000000001</ele><time>2026-04-05T15:08:22.999Z</time></trkpt><trkpt lat="42.7974399077853" lon="13.54544670918661"><ele>752.0</ele><time>2026-04-05T15:08:23.999Z</time></trkpt><trkpt lat="42.79734840902485" lon="13.545556872989211"><ele>752.0</ele><time>2026-04-05T15:08:24.999Z</time></trkpt><trkpt lat="42.79725556979635" lon="13.545673533919137"><ele>752.0</ele><time>2026-04-05T15:08:25.999Z</time></trkpt><trkpt lat="42.79715611011171" lon="13.545782348005735"><ele>752.0</ele><time>2026-04-05T15:08:26.999Z</time></trkpt><trkpt lat="42.797049752707586" lon="13.545868916005261"><ele>752.0</ele><time>2026-04-05T15:08:27.999Z</time></trkpt><trkpt lat="42.79693720963631" lon="13.545933458370483"><ele>752.0</ele><time>2026-04-05T15:08:28.999Z</time></trkpt><trkpt lat="42.796830663328755" lon="13.545979907774196"><ele>752.0</ele><time>2026-04-05T15:08:29.999Z</time></trkpt><trkpt lat="42.79673459854094" lon="13.546028817763476"><ele>752.0</ele><time>2026-04-05T15:08:30.999Z</time></trkpt><trkpt lat="42.7966443200236" lon="13.546094239495067"><ele>752.0</ele><time>2026-04-05T15:08:31.999Z</time></trkpt><trkpt lat="42.79654607792604" lon="13.546166244115282"><ele>752.0</ele><time>2026-04-05T15:08:32.999Z</time></trkpt><trkpt lat="42.79646853072362" lon="13.54629577552102"><ele>752.0</ele><time>2026-04-05T15:08:33.999Z</time></trkpt><trkpt lat="42.796377246004276" lon="13.546414880714572"><ele>752.0</ele><time>2026-04-05T15:08:34.999Z</time></trkpt><trkpt lat="42.79628445845827" lon="13.546541494641618"><ele>752.0</ele><time>2026-04-05T15:08:35.999Z</time></trkpt><trkpt lat="42.796191027397825" lon="13.54667116235115"><ele>752.0</ele><time>2026-04-05T15:08:36.999Z</time></trkpt><trkpt lat="42.79609561480719" lon="13.546797564767932"><ele>750.25</ele><time>2026-04-05T15:08:37.999Z</time></trkpt><trkpt lat="42.795999298342245" lon="13.546899489318683"><ele>748.5</ele><time>2026-04-05T15:08:38.999Z</time></trkpt><trkpt lat="42.795895161086904" lon="13.546980862258271"><ele>746.75</ele><time>2026-04-05T15:08:39.999Z</time></trkpt><trkpt lat="42.79577579893076" lon="13.547043147940757"><ele>745.0</ele><time>2026-04-05T15:08:40.999Z</time></trkpt><trkpt lat="42.795655371653936" lon="13.547095613221371"><ele>745.0</ele><time>2026-04-05T15:08:41.999Z</time></trkpt><trkpt lat="42.79554205781444" lon="13.54713670080807"><ele>745.0</ele><time>2026-04-05T15:08:42.999Z</time></trkpt><trkpt lat="42.7954377259113" lon="13.547178348037589"><ele>745.0</ele><time>2026-04-05T15:08:43.999Z</time></trkpt><trkpt lat="42.79534303036321" lon="13.547220790349481"><ele>745.0</ele><time>2026-04-05T15:08:44.999Z</time></trkpt><trkpt lat="42.7952613887923" lon="13.547266964730644"><ele>745.0</ele><time>2026-04-05T15:08:45.999Z</time></trkpt><trkpt lat="42.79518679396193" lon="13.547318340935059"><ele>742.1666666666667</ele><time>2026-04-05T15:08:46.999Z</time></trkpt><trkpt lat="42.7951147437296" lon="13.547383408761513"><ele>739.3333333333334</ele><time>2026-04-05T15:08:47.999Z</time></trkpt><trkpt lat="42.79504015446733" lon="13.547443659553252"><ele>736.5</ele><time>2026-04-05T15:08:48.999Z</time></trkpt><trkpt lat="42.79498250376993" lon="13.547533858254504"><ele>733.6666666666666</ele><time>2026-04-05T15:08:49.999Z</time></trkpt><trkpt lat="42.79494684461691" lon="13.54762405216759"><ele>730.8333333333333</ele><time>2026-04-05T15:08:50.999Z</time></trkpt><trkpt lat="42.794943048572385" lon="13.547739649737151"><ele>728.0</ele><time>2026-04-05T15:08:51.999Z</time></trkpt><trkpt lat="42.79496419802267" lon="13.547843753736291"><ele>729.4</ele><time>2026-04-05T15:08:52.999Z</time></trkpt><trkpt lat="42.79498549889355" lon="13.54793942713882"><ele>730.8</ele><time>2026-04-05T15:08:53.999Z</time></trkpt><trkpt lat="42.79498773875256" lon="13.548128462532782"><ele>732.2</ele><time>2026-04-05T15:08:55.999Z</time></trkpt><trkpt lat="42.794932449093736" lon="13.548230764872292"><ele>733.6</ele><time>2026-04-05T15:08:56.999Z</time></trkpt><trkpt lat="42.7948560229471" lon="13.548322751980656"><ele>735.0</ele><time>2026-04-05T15:08:57.999Z</time></trkpt><trkpt lat="42.79476464670374" lon="13.548426224546532"><ele>735.0</ele><time>2026-04-05T15:08:58.999Z</time></trkpt><trkpt lat="42.79467349986592" lon="13.548549347840503"><ele>735.0</ele><time>2026-04-05T15:08:59.999Z</time></trkpt><trkpt lat="42.79457616035741" lon="13.54868120443454"><ele>735.0</ele><time>2026-04-05T15:09:00.999Z</time></trkpt><trkpt lat="42.79447127876724" lon="13.548794501526473"><ele>735.0</ele><time>2026-04-05T15:09:01.999Z</time></trkpt><trkpt lat="42.794368257768255" lon="13.548892755252664"><ele>732.6</ele><time>2026-04-05T15:09:02.999Z</time></trkpt><trkpt lat="42.794272976537364" lon="13.548988192428505"><ele>730.2</ele><time>2026-04-05T15:09:03.999Z</time></trkpt><trkpt lat="42.79418306401874" lon="13.54907744028574"><ele>727.8</ele><time>2026-04-05T15:09:04.999Z</time></trkpt><trkpt lat="42.794102431679825" lon="13.549173309901736"><ele>725.4</ele><time>2026-04-05T15:09:05.999Z</time></trkpt><trkpt lat="42.79403367664254" lon="13.549282965146627"><ele>723.0</ele><time>2026-04-05T15:09:06.999Z</time></trkpt><trkpt lat="42.79398146420931" lon="13.54940360332985"><ele>724.75</ele><time>2026-04-05T15:09:07.999Z</time></trkpt><trkpt lat="42.79395356014294" lon="13.549542283004364"><ele>726.5</ele><time>2026-04-05T15:09:08.999Z</time></trkpt><trkpt lat="42.793940368805025" lon="13.54970108183692"><ele>728.25</ele><time>2026-04-05T15:09:09.999Z</time></trkpt><trkpt lat="42.793912012839215" lon="13.549873984750668"><ele>730.0</ele><time>2026-04-05T15:09:10.999Z</time></trkpt><trkpt lat="42.793899933018984" lon="13.550056734045294"><ele>730.0</ele><time>2026-04-05T15:09:11.999Z</time></trkpt><trkpt lat="42.79389084454266" lon="13.550234149736088"><ele>730.0</ele><time>2026-04-05T15:09:12.999Z</time></trkpt><trkpt lat="42.793881019456535" lon="13.55040039722838"><ele>730.0</ele><time>2026-04-05T15:09:13.999Z</time></trkpt><trkpt lat="42.793874861166884" lon="13.550556148712003"><ele>730.0</ele><time>2026-04-05T15:09:14.999Z</time></trkpt><trkpt lat="42.79382512228018" lon="13.55069156186987"><ele>732.8</ele><time>2026-04-05T15:09:15.999Z</time></trkpt><trkpt lat="42.7937597380253" lon="13.550803263914416"><ele>735.6</ele><time>2026-04-05T15:09:16.999Z</time></trkpt><trkpt lat="42.79368427695296" lon="13.55089065732836"><ele>738.4000000000001</ele><time>2026-04-05T15:09:17.999Z</time></trkpt><trkpt lat="42.79359698960631" lon="13.550956276481054"><ele>741.2</ele><time>2026-04-05T15:09:18.999Z</time></trkpt><trkpt lat="42.79348992059465" lon="13.551009282680726"><ele>744.0</ele><time>2026-04-05T15:09:19.999Z</time></trkpt><trkpt lat="42.79336465281208" lon="13.551076445721721"><ele>740.75</ele><time>2026-04-05T15:09:20.999Z</time></trkpt><trkpt lat="42.79324452785087" lon="13.551138678628588"><ele>737.5</ele><time>2026-04-05T15:09:21.999Z</time></trkpt><trkpt lat="42.793115964723924" lon="13.551206276616364"><ele>734.25</ele><time>2026-04-05T15:09:22.999Z</time></trkpt><trkpt lat="42.79298615498894" lon="13.551276115790042"><ele>731.0</ele><time>2026-04-05T15:09:23.999Z</time></trkpt><trkpt lat="42.79286366955089" lon="13.551355215495862"><ele>731.0</ele><time>2026-04-05T15:09:24.999Z</time></trkpt><trkpt lat="42.792753734467084" lon="13.55144196314416"><ele>731.0</ele><time>2026-04-05T15:09:25.999Z</time></trkpt><trkpt lat="42.79266831649109" lon="13.551525808799921"><ele>731.0</ele><time>2026-04-05T15:09:26.999Z</time></trkpt><trkpt lat="42.79260356453727" lon="13.551636367394648"><ele>731.0</ele><time>2026-04-05T15:09:27.999Z</time></trkpt><trkpt lat="42.79255725965559" lon="13.551766122957945"><ele>731.0</ele><time>2026-04-05T15:09:28.999Z</time></trkpt><trkpt lat="42.79251515325386" lon="13.551899121413504"><ele>727.1999999999999</ele><time>2026-04-05T15:09:29.999Z</time></trkpt><trkpt lat="42.79246125273811" lon="13.552012016345325"><ele>723.4</ele><time>2026-04-05T15:09:30.999Z</time></trkpt><trkpt lat="42.792389021454625" lon="13.55209838039008"><ele>719.6</ele><time>2026-04-05T15:09:31.999Z</time></trkpt><trkpt lat="42.792299393786976" lon="13.552158623171488"><ele>715.8</ele><time>2026-04-05T15:09:32.999Z</time></trkpt><trkpt lat="42.792200363263944" lon="13.552185631515687"><ele>712.0</ele><time>2026-04-05T15:09:33.999Z</time></trkpt><trkpt lat="42.79207123799532" lon="13.552236861244493"><ele>712.0</ele><time>2026-04-05T15:09:34.999Z</time></trkpt><trkpt lat="42.791944711011105" lon="13.552282156901036"><ele>712.0</ele><time>2026-04-05T15:09:35.999Z</time></trkpt><trkpt lat="42.791830529749745" lon="13.552333109419802"><ele>712.0</ele><time>2026-04-05T15:09:36.999Z</time></trkpt><trkpt lat="42.7917238050507" lon="13.552378819061317"><ele>712.0</ele><time>2026-04-05T15:09:37.999Z</time></trkpt><trkpt lat="42.79162763274406" lon="13.552425036045843"><ele>709.8</ele><time>2026-04-05T15:09:38.999Z</time></trkpt><trkpt lat="42.79154198300342" lon="13.552462146423759"><ele>707.6</ele><time>2026-04-05T15:09:39.999Z</time></trkpt><trkpt lat="42.79147504879106" lon="13.552489087628329"><ele>705.4</ele><time>2026-04-05T15:09:40.999Z</time></trkpt><trkpt lat="42.79135951193866" lon="13.552498178611321"><ele>703.1999999999999</ele><time>2026-04-05T15:09:42.999Z</time></trkpt><trkpt lat="42.79125541640601" lon="13.552492033866312"><ele>701.0</ele><time>2026-04-05T15:09:44.999Z</time></trkpt><trkpt lat="42.791234176809205" lon="13.55231415148391"><ele>701.0</ele><time>2026-04-05T15:09:45.999Z</time></trkpt><trkpt lat="42.79123277917581" lon="13.55221955090742"><ele>701.0</ele><time>2026-04-05T15:09:46.999Z</time></trkpt><trkpt lat="42.79125280855634" lon="13.552124493992968"><ele>701.0</ele><time>2026-04-05T15:09:47.999Z</time></trkpt><trkpt lat="42.79128603269577" lon="13.552029766782674"><ele>701.0</ele><time>2026-04-05T15:09:48.999Z</time></trkpt><trkpt lat="42.79131956995113" lon="13.551931989390658"><ele>701.0</ele><time>2026-04-05T15:09:49.999Z</time></trkpt><trkpt lat="42.791361845504774" lon="13.551843917441255"><ele>701.0</ele><time>2026-04-05T15:09:50.999Z</time></trkpt><trkpt lat="42.79141416549823" lon="13.55177122648451"><ele>699.1999999999999</ele><time>2026-04-05T15:09:51.999Z</time></trkpt><trkpt lat="42.79149897492934" lon="13.55168508198714"><ele>697.4</ele><time>2026-04-05T15:09:52.999Z</time></trkpt><trkpt lat="42.79158846345001" lon="13.551625952494279"><ele>695.6</ele><time>2026-04-05T15:09:53.999Z</time></trkpt><trkpt lat="42.79168275554453" lon="13.551548609468528"><ele>693.8</ele><time>2026-04-05T15:09:54.999Z</time></trkpt><trkpt lat="42.7917531808764" lon="13.551435737235542"><ele>692.0</ele><time>2026-04-05T15:09:55.999Z</time></trkpt><trkpt lat="42.79182433470813" lon="13.551325349750751"><ele>692.2</ele><time>2026-04-05T15:09:56.999Z</time></trkpt><trkpt lat="42.79187783640952" lon="13.551200006609958"><ele>692.4000000000001</ele><time>2026-04-05T15:09:57.999Z</time></trkpt><trkpt lat="42.7919101559173" lon="13.551058343685764"><ele>692.5999999999999</ele><time>2026-04-05T15:09:58.999Z</time></trkpt><trkpt lat="42.79192566511686" lon="13.550923628468158"><ele>692.8</ele><time>2026-04-05T15:09:59.999Z</time></trkpt><trkpt lat="42.79193627786246" lon="13.5507990383826"><ele>693.0</ele><time>2026-04-05T15:10:00.999Z</time></trkpt><trkpt lat="42.791969200079045" lon="13.550679704246912"><ele>693.0</ele><time>2026-04-05T15:10:01.999Z</time></trkpt><trkpt lat="42.79202359962802" lon="13.55056661129626"><ele>693.0</ele><time>2026-04-05T15:10:02.999Z</time></trkpt><trkpt lat="42.792092876890656" lon="13.550455501193289"><ele>693.0</ele><time>2026-04-05T15:10:03.999Z</time></trkpt><trkpt lat="42.79216393370175" lon="13.550339143905132"><ele>693.0</ele><time>2026-04-05T15:10:04.999Z</time></trkpt><trkpt lat="42.79223509172519" lon="13.550227985538003"><ele>693.0</ele><time>2026-04-05T15:10:05.999Z</time></trkpt><trkpt lat="42.79231244664062" lon="13.55011803329669"><ele>690.5</ele><time>2026-04-05T15:10:06.999Z</time></trkpt><trkpt lat="42.79239346680099" lon="13.549995733871599"><ele>688.0</ele><time>2026-04-05T15:10:07.999Z</time></trkpt><trkpt lat="42.792467857812305" lon="13.549869713795989"><ele>685.5</ele><time>2026-04-05T15:10:08.999Z</time></trkpt><trkpt lat="42.7925439290175" lon="13.549751058516277"><ele>683.0</ele><time>2026-04-05T15:10:09.999Z</time></trkpt><trkpt lat="42.79261905927628" lon="13.54963537282574"><ele>686.2</ele><time>2026-04-05T15:10:10.999Z</time></trkpt><trkpt lat="42.792688529594336" lon="13.54952631894643"><ele>689.4</ele><time>2026-04-05T15:10:11.999Z</time></trkpt><trkpt lat="42.792748602010036" lon="13.549421106370042"><ele>692.6</ele><time>2026-04-05T15:10:12.999Z</time></trkpt><trkpt lat="42.792783294377685" lon="13.54930571253905"><ele>695.8000000000001</ele><time>2026-04-05T15:10:13.999Z</time></trkpt><trkpt lat="42.79279590201593" lon="13.549167483902258"><ele>699.0</ele><time>2026-04-05T15:10:14.999Z</time></trkpt><trkpt lat="42.79278709837557" lon="13.549014720512517"><ele>699.0</ele><time>2026-04-05T15:10:15.999Z</time></trkpt><trkpt lat="42.79276417115065" lon="13.548854815453375"><ele>699.0</ele><time>2026-04-05T15:10:16.999Z</time></trkpt><trkpt lat="42.792732029918845" lon="13.548693763537958"><ele>699.0</ele><time>2026-04-05T15:10:17.999Z</time></trkpt><trkpt lat="42.79270788511108" lon="13.548551138191868"><ele>699.0</ele><time>2026-04-05T15:10:18.999Z</time></trkpt><trkpt lat="42.792695364285876" lon="13.548428782931317"><ele>699.0</ele><time>2026-04-05T15:10:19.999Z</time></trkpt><trkpt lat="42.79270659069003" lon="13.548329996682712"><ele>697.1666666666666</ele><time>2026-04-05T15:10:20.999Z</time></trkpt><trkpt lat="42.792770354468516" lon="13.548259539593039"><ele>695.3333333333334</ele><time>2026-04-05T15:10:21.999Z</time></trkpt><trkpt lat="42.79282193081702" lon="13.548197174735739"><ele>693.5</ele><time>2026-04-05T15:10:22.999Z</time></trkpt><trkpt lat="42.792894308156754" lon="13.5481622848351"><ele>691.6666666666667</ele><time>2026-04-05T15:10:23.999Z</time></trkpt><trkpt lat="42.79298394522941" lon="13.548103538616365"><ele>689.8333333333334</ele><time>2026-04-05T15:10:24.999Z</time></trkpt><trkpt lat="42.79308235308648" lon="13.548043875345076"><ele>688.0</ele><time>2026-04-05T15:10:25.999Z</time></trkpt><trkpt lat="42.79318826030852" lon="13.547961435922907"><ele>688.0</ele><time>2026-04-05T15:10:26.999Z</time></trkpt><trkpt lat="42.79329378392859" lon="13.547901397425152"><ele>688.0</ele><time>2026-04-05T15:10:27.999Z</time></trkpt><trkpt lat="42.79339560725714" lon="13.547843120407212"><ele>688.0</ele><time>2026-04-05T15:10:28.999Z</time></trkpt><trkpt lat="42.79349831539707" lon="13.547785874299496"><ele>688.0</ele><time>2026-04-05T15:10:29.999Z</time></trkpt><trkpt lat="42.793594045401704" lon="13.547727160377349"><ele>688.0</ele><time>2026-04-05T15:10:30.999Z</time></trkpt><trkpt lat="42.79369426874048" lon="13.547663977457992"><ele>691.0</ele><time>2026-04-05T15:10:31.999Z</time></trkpt><trkpt lat="42.79378559539438" lon="13.547595033949447"><ele>694.0</ele><time>2026-04-05T15:10:32.999Z</time></trkpt><trkpt lat="42.79386780436219" lon="13.547493796252514"><ele>697.0</ele><time>2026-04-05T15:10:33.999Z</time></trkpt><trkpt lat="42.79394201880531" lon="13.547362887594888"><ele>700.0</ele><time>2026-04-05T15:10:34.999Z</time></trkpt><trkpt lat="42.79400750904367" lon="13.54721692575279"><ele>696.75</ele><time>2026-04-05T15:10:35.999Z</time></trkpt><trkpt lat="42.79404880847142" lon="13.547027773811156"><ele>693.5</ele><time>2026-04-05T15:10:36.999Z</time></trkpt><trkpt lat="42.79409101097701" lon="13.546841565687185"><ele>690.25</ele><time>2026-04-05T15:10:37.999Z</time></trkpt><trkpt lat="42.794138858529536" lon="13.546648796778145"><ele>687.0</ele><time>2026-04-05T15:10:38.999Z</time></trkpt><trkpt lat="42.79419436684819" lon="13.546467917222655"><ele>687.0</ele><time>2026-04-05T15:10:39.999Z</time></trkpt><trkpt lat="42.79424674292208" lon="13.546296376686392"><ele>687.0</ele><time>2026-04-05T15:10:40.999Z</time></trkpt><trkpt lat="42.794312290588515" lon="13.546148305895027"><ele>687.0</ele><time>2026-04-05T15:10:41.999Z</time></trkpt><trkpt lat="42.79439529827259" lon="13.546009917925641"><ele>687.0</ele><time>2026-04-05T15:10:42.999Z</time></trkpt><trkpt lat="42.794489387924074" lon="13.545888124689517"><ele>689.5</ele><time>2026-04-05T15:10:43.999Z</time></trkpt><trkpt lat="42.794593868154585" lon="13.545774355291469"><ele>692.0</ele><time>2026-04-05T15:10:44.999Z</time></trkpt><trkpt lat="42.79470226936336" lon="13.545678503996552"><ele>694.5</ele><time>2026-04-05T15:10:45.999Z</time></trkpt><trkpt lat="42.79479570607343" lon="13.545591604145892"><ele>697.0</ele><time>2026-04-05T15:10:46.999Z</time></trkpt><trkpt lat="42.7949044789181" lon="13.545550981489248"><ele>697.0</ele><time>2026-04-05T15:10:47.999Z</time></trkpt><trkpt lat="42.79501796649198" lon="13.545521074142759"><ele>697.0</ele><time>2026-04-05T15:10:48.999Z</time></trkpt><trkpt lat="42.79512881127398" lon="13.545488727657279"><ele>697.0</ele><time>2026-04-05T15:10:49.999Z</time></trkpt><trkpt lat="42.79523764385994" lon="13.54545060634556"><ele>697.0</ele><time>2026-04-05T15:10:50.999Z</time></trkpt><trkpt lat="42.79533655165522" lon="13.545382543594567"><ele>695.5</ele><time>2026-04-05T15:10:51.999Z</time></trkpt><trkpt lat="42.79543431637723" lon="13.545299481624248"><ele>694.0</ele><time>2026-04-05T15:10:52.999Z</time></trkpt><trkpt lat="42.79553248109505" lon="13.545187292926848"><ele>692.5</ele><time>2026-04-05T15:10:53.999Z</time></trkpt><trkpt lat="42.79563298496802" lon="13.545068976205156"><ele>691.0</ele><time>2026-04-05T15:10:54.999Z</time></trkpt><trkpt lat="42.7957358107483" lon="13.544948824971367"><ele>691.0</ele><time>2026-04-05T15:10:55.999Z</time></trkpt><trkpt lat="42.795839862951794" lon="13.544835570016621"><ele>691.0</ele><time>2026-04-05T15:10:56.999Z</time></trkpt><trkpt lat="42.79594468138862" lon="13.544725708100065"><ele>691.0</ele><time>2026-04-05T15:10:57.999Z</time></trkpt><trkpt lat="42.796052310799865" lon="13.544621444881004"><ele>691.0</ele><time>2026-04-05T15:10:58.999Z</time></trkpt><trkpt lat="42.79616894748756" lon="13.544527728544962"><ele>692.25</ele><time>2026-04-05T15:10:59.999Z</time></trkpt><trkpt lat="42.796288051003" lon="13.54446416109937"><ele>693.5</ele><time>2026-04-05T15:11:00.999Z</time></trkpt><trkpt lat="42.79638338830164" lon="13.544369025665928"><ele>694.75</ele><time>2026-04-05T15:11:01.999Z</time></trkpt><trkpt lat="42.79646901105306" lon="13.544284638278366"><ele>696.0</ele><time>2026-04-05T15:11:02.999Z</time></trkpt><trkpt lat="42.796538424115404" lon="13.544172718437606"><ele>696.0</ele><time>2026-04-05T15:11:03.999Z</time></trkpt><trkpt lat="42.796598662262895" lon="13.544039531505803"><ele>696.0</ele><time>2026-04-05T15:11:04.999Z</time></trkpt><trkpt lat="42.79665796935606" lon="13.543886589283531"><ele>696.0</ele><time>2026-04-05T15:11:05.999Z</time></trkpt><trkpt lat="42.79671941040037" lon="13.54372076122414"><ele>696.0</ele><time>2026-04-05T15:11:06.999Z</time></trkpt><trkpt lat="42.79678723088741" lon="13.543564926655655"><ele>698.25</ele><time>2026-04-05T15:11:07.999Z</time></trkpt><trkpt lat="42.79684203631745" lon="13.543401814970862"><ele>700.5</ele><time>2026-04-05T15:11:08.999Z</time></trkpt><trkpt lat="42.796877829117044" lon="13.543215042357781"><ele>702.75</ele><time>2026-04-05T15:11:09.999Z</time></trkpt><trkpt lat="42.796900170026476" lon="13.54300977904116"><ele>705.0</ele><time>2026-04-05T15:11:10.999Z</time></trkpt><trkpt lat="42.796923947203325" lon="13.542796378246672"><ele>705.0</ele><time>2026-04-05T15:11:11.999Z</time></trkpt><trkpt lat="42.79695236180382" lon="13.542594466396503"><ele>705.0</ele><time>2026-04-05T15:11:12.999Z</time></trkpt><trkpt lat="42.79698099143272" lon="13.542405360006216"><ele>705.0</ele><time>2026-04-05T15:11:13.999Z</time></trkpt><trkpt lat="42.79700562132255" lon="13.54223451304822"><ele>705.0</ele><time>2026-04-05T15:11:14.999Z</time></trkpt><trkpt lat="42.797036807323224" lon="13.542062176151132"><ele>701.75</ele><time>2026-04-05T15:11:15.999Z</time></trkpt><trkpt lat="42.79708068229729" lon="13.541888465842286"><ele>698.5</ele><time>2026-04-05T15:11:16.999Z</time></trkpt><trkpt lat="42.79712528213376" lon="13.541724587935617"><ele>695.25</ele><time>2026-04-05T15:11:17.999Z</time></trkpt><trkpt lat="42.79716745508571" lon="13.541589071439885"><ele>692.0</ele><time>2026-04-05T15:11:18.999Z</time></trkpt><trkpt lat="42.79721317826536" lon="13.541471249306941"><ele>692.0</ele><time>2026-04-05T15:11:19.999Z</time></trkpt><trkpt lat="42.797279824109815" lon="13.541357901225089"><ele>692.0</ele><time>2026-04-05T15:11:20.999Z</time></trkpt><trkpt lat="42.7973618183323" lon="13.541249383017126"><ele>692.0</ele><time>2026-04-05T15:11:21.999Z</time></trkpt><trkpt lat="42.797439186439114" lon="13.54114408265622"><ele>692.0</ele><time>2026-04-05T15:11:22.999Z</time></trkpt><trkpt lat="42.79753779175462" lon="13.541067655976518"><ele>692.0</ele><time>2026-04-05T15:11:23.999Z</time></trkpt><trkpt lat="42.79763602629754" lon="13.540956821073223"><ele>689.5</ele><time>2026-04-05T15:11:24.999Z</time></trkpt><trkpt lat="42.79775614853774" lon="13.540859985826815"><ele>687.0</ele><time>2026-04-05T15:11:25.999Z</time></trkpt><trkpt lat="42.797875974707146" lon="13.540755936777432"><ele>684.5</ele><time>2026-04-05T15:11:26.999Z</time></trkpt><trkpt lat="42.79799828452123" lon="13.540651400400227"><ele>682.0</ele><time>2026-04-05T15:11:27.999Z</time></trkpt><trkpt lat="42.79811996406027" lon="13.540544435392434"><ele>682.0</ele><time>2026-04-05T15:11:28.999Z</time></trkpt><trkpt lat="42.79823702110414" lon="13.540440524374596"><ele>682.0</ele><time>2026-04-05T15:11:29.999Z</time></trkpt><trkpt lat="42.79834650087509" lon="13.540324824982017"><ele>682.0</ele><time>2026-04-05T15:11:30.999Z</time></trkpt><trkpt lat="42.79844923383812" lon="13.540208345737607"><ele>682.0</ele><time>2026-04-05T15:11:31.999Z</time></trkpt><trkpt lat="42.798543605400376" lon="13.540086747324589"><ele>680.75</ele><time>2026-04-05T15:11:32.999Z</time></trkpt><trkpt lat="42.79862956120997" lon="13.53996571807793"><ele>679.5</ele><time>2026-04-05T15:11:33.999Z</time></trkpt><trkpt lat="42.798703607445276" lon="13.53982657326414"><ele>678.25</ele><time>2026-04-05T15:11:34.999Z</time></trkpt><trkpt lat="42.798775561148894" lon="13.539666546444533"><ele>677.0</ele><time>2026-04-05T15:11:35.999Z</time></trkpt><trkpt lat="42.7988534109744" lon="13.539494276685055"><ele>672.75</ele><time>2026-04-05T15:11:36.999Z</time></trkpt><trkpt lat="42.79893576674274" lon="13.53931619613675"><ele>668.5</ele><time>2026-04-05T15:11:37.999Z</time></trkpt><trkpt lat="42.799014591124525" lon="13.539142579003048"><ele>664.25</ele><time>2026-04-05T15:11:38.999Z</time></trkpt><trkpt lat="42.79908825213763" lon="13.538983388438632"><ele>660.0</ele><time>2026-04-05T15:11:39.999Z</time></trkpt><trkpt lat="42.79915750148829" lon="13.538854409728268"><ele>660.0</ele><time>2026-04-05T15:11:40.999Z</time></trkpt><trkpt lat="42.79922733310592" lon="13.538749952090832"><ele>660.0</ele><time>2026-04-05T15:11:41.999Z</time></trkpt><trkpt lat="42.799302925928984" lon="13.538672899740758"><ele>660.0</ele><time>2026-04-05T15:11:42.999Z</time></trkpt><trkpt lat="42.7993860787101" lon="13.538619333656436"><ele>660.0</ele><time>2026-04-05T15:11:43.999Z</time></trkpt><trkpt lat="42.799476478665916" lon="13.538586683417307"><ele>660.0</ele><time>2026-04-05T15:11:44.999Z</time></trkpt><trkpt lat="42.79957280655462" lon="13.538580641011183"><ele>658.8</ele><time>2026-04-05T15:11:45.999Z</time></trkpt><trkpt lat="42.79967021835845" lon="13.538636017150122"><ele>657.6</ele><time>2026-04-05T15:11:46.999Z</time></trkpt><trkpt lat="42.79977574527264" lon="13.538692103915668"><ele>656.4000000000001</ele><time>2026-04-05T15:11:47.999Z</time></trkpt><trkpt lat="42.79987687822254" lon="13.53875285513663"><ele>655.2</ele><time>2026-04-05T15:11:48.999Z</time></trkpt><trkpt lat="42.79996011306634" lon="13.53881774288852"><ele>654.0</ele><time>2026-04-05T15:11:49.999Z</time></trkpt><trkpt lat="42.80003219027452" lon="13.538885920228372"><ele>654.0</ele><time>2026-04-05T15:11:50.999Z</time></trkpt><trkpt lat="42.80008369792758" lon="13.538981471784728"><ele>654.0</ele><time>2026-04-05T15:11:51.999Z</time></trkpt><trkpt lat="42.800122932780994" lon="13.53911145903087"><ele>654.0</ele><time>2026-04-05T15:11:52.999Z</time></trkpt><trkpt lat="42.80017034040176" lon="13.539268999644507"><ele>654.0</ele><time>2026-04-05T15:11:53.999Z</time></trkpt><trkpt lat="42.80021323582218" lon="13.539421063641226"><ele>654.0</ele><time>2026-04-05T15:11:54.999Z</time></trkpt><trkpt lat="42.800270110076404" lon="13.539559772138393"><ele>650.25</ele><time>2026-04-05T15:11:55.999Z</time></trkpt><trkpt lat="42.80035184099904" lon="13.539693250546236"><ele>646.5</ele><time>2026-04-05T15:11:56.999Z</time></trkpt><trkpt lat="42.800453971346016" lon="13.539830568392135"><ele>642.75</ele><time>2026-04-05T15:11:57.999Z</time></trkpt><trkpt lat="42.80055450683867" lon="13.539966106294283"><ele>639.0</ele><time>2026-04-05T15:11:58.999Z</time></trkpt><trkpt lat="42.800640475362044" lon="13.540088530891286"><ele>639.0</ele><time>2026-04-05T15:11:59.999Z</time></trkpt><trkpt lat="42.800708179761614" lon="13.540208017821776"><ele>639.0</ele><time>2026-04-05T15:12:00.999Z</time></trkpt><trkpt lat="42.80078285076404" lon="13.540319491509742"><ele>639.0</ele><time>2026-04-05T15:12:01.999Z</time></trkpt><trkpt lat="42.80086461076758" lon="13.540417411877494"><ele>639.0</ele><time>2026-04-05T15:12:02.999Z</time></trkpt><trkpt lat="42.80098411118792" lon="13.540471992855839"><ele>636.4</ele><time>2026-04-05T15:12:03.999Z</time></trkpt><trkpt lat="42.80109107223032" lon="13.540542524378225"><ele>633.8</ele><time>2026-04-05T15:12:04.999Z</time></trkpt><trkpt lat="42.80118168180987" lon="13.540611426739968"><ele>631.2</ele><time>2026-04-05T15:12:05.999Z</time></trkpt><trkpt lat="42.80123704584586" lon="13.540727284137931"><ele>628.6</ele><time>2026-04-05T15:12:06.999Z</time></trkpt><trkpt lat="42.80130660758492" lon="13.540864776147739"><ele>626.0</ele><time>2026-04-05T15:12:07.999Z</time></trkpt><trkpt lat="42.8013867653248" lon="13.541013493364146"><ele>626.0</ele><time>2026-04-05T15:12:08.999Z</time></trkpt><trkpt lat="42.801474815449374" lon="13.541152010935617"><ele>626.0</ele><time>2026-04-05T15:12:09.999Z</time></trkpt><trkpt lat="42.8015473353286" lon="13.541283278364997"><ele>626.0</ele><time>2026-04-05T15:12:10.999Z</time></trkpt><trkpt lat="42.801609677269894" lon="13.541401621626058"><ele>626.0</ele><time>2026-04-05T15:12:11.999Z</time></trkpt><trkpt lat="42.80167976940446" lon="13.541499897100175"><ele>629.8</ele><time>2026-04-05T15:12:12.999Z</time></trkpt><trkpt lat="42.80176755447868" lon="13.54156506880413"><ele>633.6</ele><time>2026-04-05T15:12:13.999Z</time></trkpt><trkpt lat="42.8018752426481" lon="13.541594473024805"><ele>637.4</ele><time>2026-04-05T15:12:14.999Z</time></trkpt><trkpt lat="42.801980773497526" lon="13.54160750378839"><ele>641.2</ele><time>2026-04-05T15:12:15.999Z</time></trkpt><trkpt lat="42.80207326830624" lon="13.541620479063468"><ele>645.0</ele><time>2026-04-05T15:12:16.999Z</time></trkpt><trkpt lat="42.80214359993041" lon="13.541623767754126"><ele>645.0</ele><time>2026-04-05T15:12:17.999Z</time></trkpt><trkpt lat="42.802235494746064" lon="13.54150696894675"><ele>645.0</ele><time>2026-04-05T15:12:19.999Z</time></trkpt><trkpt lat="42.80227477356888" lon="13.541397775121766"><ele>645.0</ele><time>2026-04-05T15:12:20.999Z</time></trkpt><trkpt lat="42.802319346214496" lon="13.541265542794267"><ele>645.0</ele><time>2026-04-05T15:12:21.999Z</time></trkpt><trkpt lat="42.80237671566223" lon="13.541133041936392"><ele>645.0</ele><time>2026-04-05T15:12:22.999Z</time></trkpt><trkpt lat="42.802464464105746" lon="13.541039356779173"><ele>640.2</ele><time>2026-04-05T15:12:23.999Z</time></trkpt><trkpt lat="42.802537295016904" lon="13.540929042836835"><ele>635.4</ele><time>2026-04-05T15:12:24.999Z</time></trkpt><trkpt lat="42.80263703965658" lon="13.540883727521802"><ele>630.6</ele><time>2026-04-05T15:12:25.999Z</time></trkpt><trkpt lat="42.8027340928032" lon="13.540857266876577"><ele>625.8</ele><time>2026-04-05T15:12:26.999Z</time></trkpt><trkpt lat="42.8028297353961" lon="13.540880170070631"><ele>621.0</ele><time>2026-04-05T15:12:27.999Z</time></trkpt><trkpt lat="42.802923164710734" lon="13.540937999240736"><ele>619.0</ele><time>2026-04-05T15:12:28.999Z</time></trkpt><trkpt lat="42.80300957039057" lon="13.54101423442292"><ele>617.0</ele><time>2026-04-05T15:12:29.999Z</time></trkpt><trkpt lat="42.8030920898051" lon="13.541110323974062"><ele>615.0</ele><time>2026-04-05T15:12:30.999Z</time></trkpt><trkpt lat="42.803193370188765" lon="13.541155831022417"><ele>613.0</ele><time>2026-04-05T15:12:31.999Z</time></trkpt><trkpt lat="42.803289689051354" lon="13.541226368243686"><ele>611.0</ele><time>2026-04-05T15:12:33Z</time></trkpt><trkpt lat="42.80338114252862" lon="13.541298945969611"><ele>610.2</ele><time>2026-04-05T15:12:34Z</time></trkpt><trkpt lat="42.80345818424031" lon="13.541384327398823"><ele>609.4000000000001</ele><time>2026-04-05T15:12:35Z</time></trkpt><trkpt lat="42.80353835070059" lon="13.541493797381976"><ele>608.6</ele><time>2026-04-05T15:12:36Z</time></trkpt><trkpt lat="42.80359960508261" lon="13.54163655225308"><ele>607.8000000000001</ele><time>2026-04-05T15:12:37Z</time></trkpt><trkpt lat="42.803659564140304" lon="13.541766461679362"><ele>607.0</ele><time>2026-04-05T15:12:38Z</time></trkpt><trkpt lat="42.80372291810181" lon="13.541875615005171"><ele>607.0</ele><time>2026-04-05T15:12:39Z</time></trkpt><trkpt lat="42.80380426515074" lon="13.541963726411415"><ele>607.0</ele><time>2026-04-05T15:12:40Z</time></trkpt><trkpt lat="42.803897606317875" lon="13.542048247834794"><ele>607.0</ele><time>2026-04-05T15:12:41Z</time></trkpt><trkpt lat="42.80399332656854" lon="13.542141907454434"><ele>607.0</ele><time>2026-04-05T15:12:42Z</time></trkpt><trkpt lat="42.80409883081291" lon="13.542215058615641"><ele>609.75</ele><time>2026-04-05T15:12:43Z</time></trkpt><trkpt lat="42.80421313667955" lon="13.542264350286068"><ele>612.5</ele><time>2026-04-05T15:12:44Z</time></trkpt><trkpt lat="42.80434166770432" lon="13.542260582776901"><ele>615.25</ele><time>2026-04-05T15:12:45Z</time></trkpt><trkpt lat="42.80447130093506" lon="13.542258586909064"><ele>618.0</ele><time>2026-04-05T15:12:46Z</time></trkpt><trkpt lat="42.80459725901699" lon="13.542278214126336"><ele>618.0</ele><time>2026-04-05T15:12:47Z</time></trkpt><trkpt lat="42.80471624494308" lon="13.542285592593744"><ele>618.0</ele><time>2026-04-05T15:12:48Z</time></trkpt><trkpt lat="42.80482850544867" lon="13.54232015479012"><ele>618.0</ele><time>2026-04-05T15:12:49Z</time></trkpt><trkpt lat="42.80493227504249" lon="13.542391029479178"><ele>618.0</ele><time>2026-04-05T15:12:50Z</time></trkpt><trkpt lat="42.80504970533415" lon="13.542490310548757"><ele>615.0</ele><time>2026-04-05T15:12:51Z</time></trkpt><trkpt lat="42.80517660001988" lon="13.542597898178645"><ele>612.0</ele><time>2026-04-05T15:12:52Z</time></trkpt><trkpt lat="42.80529278873004" lon="13.542692275874362"><ele>609.0</ele><time>2026-04-05T15:12:53Z</time></trkpt><trkpt lat="42.805420226603275" lon="13.542739832310632"><ele>606.0</ele><time>2026-04-05T15:12:54Z</time></trkpt><trkpt lat="42.805548916389384" lon="13.542799865848181"><ele>606.0</ele><time>2026-04-05T15:12:55Z</time></trkpt><trkpt lat="42.80568785563735" lon="13.542816216672234"><ele>606.0</ele><time>2026-04-05T15:12:56Z</time></trkpt><trkpt lat="42.80581984046429" lon="13.542828870968235"><ele>606.0</ele><time>2026-04-05T15:12:57Z</time></trkpt><trkpt lat="42.805944168522316" lon="13.542827175713223"><ele>606.0</ele><time>2026-04-05T15:12:58Z</time></trkpt><trkpt lat="42.80605874002408" lon="13.542877617495146"><ele>603.0</ele><time>2026-04-05T15:12:59Z</time></trkpt><trkpt lat="42.80613857951816" lon="13.542988959766644"><ele>600.0</ele><time>2026-04-05T15:13:00Z</time></trkpt><trkpt lat="42.80623307146273" lon="13.543077011209165"><ele>597.0</ele><time>2026-04-05T15:13:01Z</time></trkpt><trkpt lat="42.806315390653566" lon="13.54319684909898"><ele>594.0</ele><time>2026-04-05T15:13:02Z</time></trkpt><trkpt lat="42.80638907894669" lon="13.543313904092111"><ele>594.0</ele><time>2026-04-05T15:13:03Z</time></trkpt><trkpt lat="42.80645395450093" lon="13.543428398330068"><ele>594.0</ele><time>2026-04-05T15:13:04Z</time></trkpt><trkpt lat="42.80650356540221" lon="13.543550020728297"><ele>594.0</ele><time>2026-04-05T15:13:05Z</time></trkpt><trkpt lat="42.806538263870685" lon="13.543678905279874"><ele>594.0</ele><time>2026-04-05T15:13:06Z</time></trkpt><trkpt lat="42.80656021444793" lon="13.543827191715927"><ele>594.0</ele><time>2026-04-05T15:13:06.999Z</time></trkpt><trkpt lat="42.806571132099855" lon="13.543984605399116"><ele>595.0</ele><time>2026-04-05T15:13:07.999Z</time></trkpt><trkpt lat="42.806591248607404" lon="13.544128798608853"><ele>596.0</ele><time>2026-04-05T15:13:08.999Z</time></trkpt><trkpt lat="42.806633288037006" lon="13.54426643430712"><ele>597.0</ele><time>2026-04-05T15:13:09.999Z</time></trkpt><trkpt lat="42.80670233594688" lon="13.544394053767048"><ele>598.0</ele><time>2026-04-05T15:13:10.999Z</time></trkpt><trkpt lat="42.80678023683831" lon="13.544500146530572"><ele>599.0</ele><time>2026-04-05T15:13:11.999Z</time></trkpt><trkpt lat="42.80684835472704" lon="13.544595012114645"><ele>599.0</ele><time>2026-04-05T15:13:12.999Z</time></trkpt><trkpt lat="42.806950055632754" lon="13.544647656295176"><ele>599.0</ele><time>2026-04-05T15:13:13.999Z</time></trkpt><trkpt lat="42.8070906727617" lon="13.54463929027816"><ele>599.0</ele><time>2026-04-05T15:13:14.999Z</time></trkpt><trkpt lat="42.80725186310324" lon="13.544649457144718"><ele>599.0</ele><time>2026-04-05T15:13:16Z</time></trkpt><trkpt lat="42.80742350488684" lon="13.544663001568711"><ele>599.0</ele><time>2026-04-05T15:13:17Z</time></trkpt><trkpt lat="42.80750542485727" lon="13.544658207298637"><ele>599.0</ele><time>2026-04-05T15:13:19Z</time></trkpt><trkpt lat="42.80759717555319" lon="13.544715656389615"><ele>599.0</ele><time>2026-04-05T15:13:20Z</time></trkpt><trkpt lat="42.80766036670795" lon="13.544803280665201"><ele>599.0</ele><time>2026-04-05T15:13:21Z</time></trkpt><trkpt lat="42.807751548074364" lon="13.54489773454119"><ele>599.0</ele><time>2026-04-05T15:13:22Z</time></trkpt><trkpt lat="42.807841198985074" lon="13.544942539448451"><ele>598.0</ele><time>2026-04-05T15:13:23Z</time></trkpt><trkpt lat="42.80791523098057" lon="13.54499019042916"><ele>597.0</ele><time>2026-04-05T15:13:24Z</time></trkpt><trkpt lat="42.80799379982776" lon="13.544994796037512"><ele>596.0</ele><time>2026-04-05T15:13:25Z</time></trkpt><trkpt lat="42.80808795809357" lon="13.544938446862712"><ele>595.0</ele><time>2026-04-05T15:13:26Z</time></trkpt><trkpt lat="42.80819001419456" lon="13.544859195155981"><ele>594.0</ele><time>2026-04-05T15:13:27Z</time></trkpt><trkpt lat="42.80828460130371" lon="13.544752660004875"><ele>594.0</ele><time>2026-04-05T15:13:28Z</time></trkpt><trkpt lat="42.80837642172819" lon="13.544621000640571"><ele>594.0</ele><time>2026-04-05T15:13:29Z</time></trkpt><trkpt lat="42.80846752147578" lon="13.544455042132611"><ele>594.0</ele><time>2026-04-05T15:13:30Z</time></trkpt><trkpt lat="42.80856803874043" lon="13.544294153080546"><ele>594.0</ele><time>2026-04-05T15:13:31Z</time></trkpt><trkpt lat="42.8086639526591" lon="13.544156089749517"><ele>589.6</ele><time>2026-04-05T15:13:32Z</time></trkpt><trkpt lat="42.80874747636465" lon="13.544044445244094"><ele>585.2</ele><time>2026-04-05T15:13:33Z</time></trkpt><trkpt lat="42.80880812878192" lon="13.543963840004789"><ele>580.8000000000001</ele><time>2026-04-05T15:13:34Z</time></trkpt><trkpt lat="42.80889896443337" lon="13.543907136318138"><ele>576.4</ele><time>2026-04-05T15:13:36Z</time></trkpt><trkpt lat="42.808954234136706" lon="13.543957561728877"><ele>572.0</ele><time>2026-04-05T15:13:37Z</time></trkpt><trkpt lat="42.80900251395865" lon="13.544120709383893"><ele>572.0</ele><time>2026-04-05T15:13:39Z</time></trkpt><trkpt lat="42.80903539876601" lon="13.544249869911388"><ele>572.0</ele><time>2026-04-05T15:13:40Z</time></trkpt><trkpt lat="42.809072850274525" lon="13.54439168170472"><ele>572.0</ele><time>2026-04-05T15:13:41Z</time></trkpt><trkpt lat="42.809102979522265" lon="13.54450633598939"><ele>572.0</ele><time>2026-04-05T15:13:42Z</time></trkpt><trkpt lat="42.80915312577571" lon="13.544594426746594"><ele>572.0</ele><time>2026-04-05T15:13:43Z</time></trkpt><trkpt lat="42.809218958292256" lon="13.544668169567254"><ele>571.25</ele><time>2026-04-05T15:13:44Z</time></trkpt><trkpt lat="42.80931871873336" lon="13.544722306300738"><ele>570.5</ele><time>2026-04-05T15:13:45Z</time></trkpt><trkpt lat="42.809440340305855" lon="13.544768593719741"><ele>569.75</ele><time>2026-04-05T15:13:46Z</time></trkpt><trkpt lat="42.80957564149832" lon="13.54480875189782"><ele>569.0</ele><time>2026-04-05T15:13:47Z</time></trkpt><trkpt lat="42.80971164922248" lon="13.544850002651033"><ele>569.0</ele><time>2026-04-05T15:13:48Z</time></trkpt><trkpt lat="42.809849594138015" lon="13.544903178633865"><ele>569.0</ele><time>2026-04-05T15:13:49Z</time></trkpt><trkpt lat="42.809981929246796" lon="13.544957839764905"><ele>569.0</ele><time>2026-04-05T15:13:50Z</time></trkpt><trkpt lat="42.810105992592725" lon="13.545008759858327"><ele>569.0</ele><time>2026-04-05T15:13:51Z</time></trkpt><trkpt lat="42.81020994252898" lon="13.54505218231467"><ele>565.5</ele><time>2026-04-05T15:13:52Z</time></trkpt><trkpt lat="42.8102895736744" lon="13.54508002268393"><ele>562.0</ele><time>2026-04-05T15:13:53Z</time></trkpt><trkpt lat="42.81035029484675" lon="13.5451050383479"><ele>558.5</ele><time>2026-04-05T15:13:54Z</time></trkpt><trkpt lat="42.81043998027624" lon="13.545092449146411"><ele>555.0</ele><time>2026-04-05T15:13:56Z</time></trkpt><trkpt lat="42.81049068195896" lon="13.54492982675483"><ele>551.5</ele><time>2026-04-05T15:13:58Z</time></trkpt><trkpt lat="42.81046611924956" lon="13.544823148621607"><ele>548.0</ele><time>2026-04-05T15:13:59Z</time></trkpt><trkpt lat="42.81040358859773" lon="13.544735931605397"><ele>548.0</ele><time>2026-04-05T15:14:00Z</time></trkpt><trkpt lat="42.81031576581529" lon="13.544671886833765"><ele>548.0</ele><time>2026-04-05T15:14:01Z</time></trkpt><trkpt lat="42.81020928844042" lon="13.544610064870641"><ele>548.0</ele><time>2026-04-05T15:14:02Z</time></trkpt><trkpt lat="42.81010155032765" lon="13.544531014377988"><ele>548.0</ele><time>2026-04-05T15:14:03Z</time></trkpt><trkpt lat="42.80999571139326" lon="13.544435625808006"><ele>548.75</ele><time>2026-04-05T15:14:04Z</time></trkpt><trkpt lat="42.80988924250425" lon="13.544326039906359"><ele>549.5</ele><time>2026-04-05T15:14:05Z</time></trkpt><trkpt lat="42.80976959597982" lon="13.544199687602909"><ele>550.25</ele><time>2026-04-05T15:14:06Z</time></trkpt><trkpt lat="42.809671662460325" lon="13.544080299758177"><ele>551.0</ele><time>2026-04-05T15:14:07Z</time></trkpt><trkpt lat="42.809580305546405" lon="13.543963099390014"><ele>551.0</ele><time>2026-04-05T15:14:08Z</time></trkpt><trkpt lat="42.80950675562382" lon="13.543857923806708"><ele>551.0</ele><time>2026-04-05T15:14:09Z</time></trkpt><trkpt lat="42.80944911219863" lon="13.543743346620646"><ele>551.0</ele><time>2026-04-05T15:14:10Z</time></trkpt><trkpt lat="42.80941967229922" lon="13.543612367529663"><ele>551.0</ele><time>2026-04-05T15:14:11Z</time></trkpt><trkpt lat="42.8094160816138" lon="13.543468779729254"><ele>551.0</ele><time>2026-04-05T15:14:12Z</time></trkpt><trkpt lat="42.809424919997994" lon="13.54332532701097"><ele>548.4</ele><time>2026-04-05T15:14:13Z</time></trkpt><trkpt lat="42.809418378200924" lon="13.543190788247275"><ele>545.8</ele><time>2026-04-05T15:14:14Z</time></trkpt><trkpt lat="42.809387307309386" lon="13.543063514436286"><ele>543.1999999999999</ele><time>2026-04-05T15:14:15Z</time></trkpt><trkpt lat="42.80933449870671" lon="13.542930722673715"><ele>540.6</ele><time>2026-04-05T15:14:16Z</time></trkpt><trkpt lat="42.809273744747266" lon="13.542788717655755"><ele>538.0</ele><time>2026-04-05T15:14:17Z</time></trkpt><trkpt lat="42.809212752317045" lon="13.542648553958422"><ele>537.8</ele><time>2026-04-05T15:14:18Z</time></trkpt><trkpt lat="42.809128591719976" lon="13.542532542527681"><ele>537.5999999999999</ele><time>2026-04-05T15:14:19Z</time></trkpt><trkpt lat="42.809058246335375" lon="13.542443131587502"><ele>537.4000000000001</ele><time>2026-04-05T15:14:20Z</time></trkpt><trkpt lat="42.80898608332062" lon="13.542347424166609"><ele>537.2</ele><time>2026-04-05T15:14:21Z</time></trkpt><trkpt lat="42.80893595480098" lon="13.54222925185956"><ele>537.0</ele><time>2026-04-05T15:14:22Z</time></trkpt><trkpt lat="42.80890743645643" lon="13.5420833249883"><ele>534.25</ele><time>2026-04-05T15:14:23Z</time></trkpt><trkpt lat="42.808892543119995" lon="13.54191935133806"><ele>531.5</ele><time>2026-04-05T15:14:24Z</time></trkpt><trkpt lat="42.808883401082994" lon="13.54176043380904"><ele>528.75</ele><time>2026-04-05T15:14:25Z</time></trkpt><trkpt lat="42.8088929273946" lon="13.541611349448287"><ele>526.0</ele><time>2026-04-05T15:14:26Z</time></trkpt><trkpt lat="42.808925023706344" lon="13.541456461424957"><ele>526.0</ele><time>2026-04-05T15:14:27Z</time></trkpt><trkpt lat="42.80897435852536" lon="13.541290099844769"><ele>526.0</ele><time>2026-04-05T15:14:28Z</time></trkpt><trkpt lat="42.80902162712783" lon="13.54111462148453"><ele>526.0</ele><time>2026-04-05T15:14:29Z</time></trkpt><trkpt lat="42.809047577998776" lon="13.540944133363585"><ele>526.0</ele><time>2026-04-05T15:14:30Z</time></trkpt><trkpt lat="42.809053124583436" lon="13.540781777096816"><ele>525.8333333333334</ele><time>2026-04-05T15:14:31Z</time></trkpt><trkpt lat="42.80904582578533" lon="13.540625670949883"><ele>525.6666666666667</ele><time>2026-04-05T15:14:32Z</time></trkpt><trkpt lat="42.80904933061128" lon="13.540494755062513"><ele>525.5</ele><time>2026-04-05T15:14:33Z</time></trkpt><trkpt lat="42.80908627218656" lon="13.54040365180604"><ele>525.3333333333334</ele><time>2026-04-05T15:14:34Z</time></trkpt><trkpt lat="42.8091482874643" lon="13.540347563693762"><ele>525.1666666666666</ele><time>2026-04-05T15:14:35Z</time></trkpt><trkpt lat="42.809224772876384" lon="13.540343073128485"><ele>525.0</ele><time>2026-04-05T15:14:36Z</time></trkpt><trkpt lat="42.80929718014256" lon="13.540411251949548"><ele>525.0</ele><time>2026-04-05T15:14:37Z</time></trkpt><trkpt lat="42.80933465263227" lon="13.540523744898232"><ele>525.0</ele><time>2026-04-05T15:14:38Z</time></trkpt><trkpt lat="42.80933002264798" lon="13.54065572761024"><ele>525.0</ele><time>2026-04-05T15:14:39Z</time></trkpt><trkpt lat="42.809291144681545" lon="13.540786238846056"><ele>525.0</ele><time>2026-04-05T15:14:40Z</time></trkpt><trkpt lat="42.809267766222916" lon="13.540929765632855"><ele>525.0</ele><time>2026-04-05T15:14:41Z</time></trkpt><trkpt lat="42.80921502338823" lon="13.541077795011825"><ele>525.2</ele><time>2026-04-05T15:14:42Z</time></trkpt><trkpt lat="42.80917864363692" lon="13.54122456125198"><ele>525.4</ele><time>2026-04-05T15:14:43Z</time></trkpt><trkpt lat="42.80915208124705" lon="13.541355555567874"><ele>525.6</ele><time>2026-04-05T15:14:44Z</time></trkpt><trkpt lat="42.80913167103774" lon="13.541474734014075"><ele>525.8</ele><time>2026-04-05T15:14:45Z</time></trkpt><trkpt lat="42.80912268108613" lon="13.541583005045624"><ele>526.0</ele><time>2026-04-05T15:14:46Z</time></trkpt><trkpt lat="42.8091457630804" lon="13.541696250194672"><ele>526.0</ele><time>2026-04-05T15:14:47Z</time></trkpt><trkpt lat="42.809204596384824" lon="13.541807407288651"><ele>526.0</ele><time>2026-04-05T15:14:48Z</time></trkpt><trkpt lat="42.80929568486603" lon="13.541907382015555"><ele>526.0</ele><time>2026-04-05T15:14:49Z</time></trkpt><trkpt lat="42.8094063862269" lon="13.542007526712505"><ele>526.0</ele><time>2026-04-05T15:14:50Z</time></trkpt><trkpt lat="42.80952947470073" lon="13.542105978512264"><ele>524.5</ele><time>2026-04-05T15:14:51Z</time></trkpt><trkpt lat="42.809648930219176" lon="13.542216399670588"><ele>523.0</ele><time>2026-04-05T15:14:52Z</time></trkpt><trkpt lat="42.809756680745025" lon="13.54233753313349"><ele>521.5</ele><time>2026-04-05T15:14:53Z</time></trkpt><trkpt lat="42.809873004215646" lon="13.542414347806012"><ele>520.0</ele><time>2026-04-05T15:14:54Z</time></trkpt><trkpt lat="42.80998932451955" lon="13.542485274942274"><ele>520.0</ele><time>2026-04-05T15:14:55Z</time></trkpt><trkpt lat="42.81012096323685" lon="13.542527501404969"><ele>520.0</ele><time>2026-04-05T15:14:56Z</time></trkpt><trkpt lat="42.81025533043316" lon="13.542547653940026"><ele>520.0</ele><time>2026-04-05T15:14:57Z</time></trkpt><trkpt lat="42.81038354472725" lon="13.542551333538157"><ele>520.0</ele><time>2026-04-05T15:14:58Z</time></trkpt><trkpt lat="42.810506984681005" lon="13.542525620066176"><ele>519.5</ele><time>2026-04-05T15:14:59Z</time></trkpt><trkpt lat="42.81062857304017" lon="13.542454648271761"><ele>519.0</ele><time>2026-04-05T15:15:00Z</time></trkpt><trkpt lat="42.81075232353118" lon="13.542349472893111"><ele>518.5</ele><time>2026-04-05T15:15:01Z</time></trkpt><trkpt lat="42.810882542423315" lon="13.542236640720045"><ele>518.0</ele><time>2026-04-05T15:15:02Z</time></trkpt><trkpt lat="42.81101352430917" lon="13.542138726997116"><ele>518.0</ele><time>2026-04-05T15:15:03Z</time></trkpt><trkpt lat="42.811137892573925" lon="13.542058592095113"><ele>518.0</ele><time>2026-04-05T15:15:04Z</time></trkpt><trkpt lat="42.81126155582096" lon="13.541998175431571"><ele>518.0</ele><time>2026-04-05T15:15:05Z</time></trkpt><trkpt lat="42.81138646074025" lon="13.541945706539604"><ele>518.0</ele><time>2026-04-05T15:15:06Z</time></trkpt><trkpt lat="42.81151402203967" lon="13.541887938549015"><ele>514.0</ele><time>2026-04-05T15:15:07Z</time></trkpt><trkpt lat="42.811643731278636" lon="13.541805517766035"><ele>510.0</ele><time>2026-04-05T15:15:08Z</time></trkpt><trkpt lat="42.81176894253135" lon="13.541704716069615"><ele>506.0</ele><time>2026-04-05T15:15:09Z</time></trkpt><trkpt lat="42.81188979502556" lon="13.541600323516175"><ele>502.0</ele><time>2026-04-05T15:15:10Z</time></trkpt><trkpt lat="42.81200109451912" lon="13.541506141389107"><ele>501.0</ele><time>2026-04-05T15:15:11Z</time></trkpt><trkpt lat="42.81210272770541" lon="13.541422868822998"><ele>500.00000000000006</ele><time>2026-04-05T15:15:12Z</time></trkpt><trkpt lat="42.81220155028079" lon="13.541383477005015"><ele>499.00000000000006</ele><time>2026-04-05T15:15:13Z</time></trkpt><trkpt lat="42.81228232804723" lon="13.541331895308435"><ele>498.0</ele><time>2026-04-05T15:15:14Z</time></trkpt><trkpt lat="42.81236435313284" lon="13.541380571878058"><ele>497.0</ele><time>2026-04-05T15:15:15Z</time></trkpt><trkpt lat="42.81243620072218" lon="13.541456211581282"><ele>497.0</ele><time>2026-04-05T15:15:16Z</time></trkpt><trkpt lat="42.81250610098389" lon="13.541572314321888"><ele>497.0</ele><time>2026-04-05T15:15:17Z</time></trkpt><trkpt lat="42.812603680988424" lon="13.541672687357188"><ele>497.0</ele><time>2026-04-05T15:15:18Z</time></trkpt><trkpt lat="42.812702133193596" lon="13.541786510541636"><ele>497.0</ele><time>2026-04-05T15:15:19Z</time></trkpt><trkpt lat="42.81279777092811" lon="13.541889705007973"><ele>496.20000000000005</ele><time>2026-04-05T15:15:20Z</time></trkpt><trkpt lat="42.81288210147479" lon="13.541980678759991"><ele>495.40000000000003</ele><time>2026-04-05T15:15:20.999Z</time></trkpt><trkpt lat="42.81295090670524" lon="13.542053703706227"><ele>494.59999999999997</ele><time>2026-04-05T15:15:22Z</time></trkpt><trkpt lat="42.81300259471654" lon="13.542112560465318"><ele>493.79999999999995</ele><time>2026-04-05T15:15:23Z</time></trkpt><trkpt lat="42.81310896900285" lon="13.542141341570733"><ele>493.0</ele><time>2026-04-05T15:15:25Z</time></trkpt><trkpt lat="42.813207036534386" lon="13.542011780124117"><ele>491.79999999999995</ele><time>2026-04-05T15:15:27Z</time></trkpt><trkpt lat="42.813212578574245" lon="13.541893127369107"><ele>490.59999999999997</ele><time>2026-04-05T15:15:28Z</time></trkpt><trkpt lat="42.813168641068195" lon="13.541789532463484"><ele>489.40000000000003</ele><time>2026-04-05T15:15:29Z</time></trkpt><trkpt lat="42.81309112015081" lon="13.541690960401061"><ele>488.20000000000005</ele><time>2026-04-05T15:15:30Z</time></trkpt><trkpt lat="42.81300301703858" lon="13.541588234837981"><ele>487.0</ele><time>2026-04-05T15:15:31Z</time></trkpt><trkpt lat="42.81292104786162" lon="13.541465851747128"><ele>487.0</ele><time>2026-04-05T15:15:32Z</time></trkpt><trkpt lat="42.81285235254134" lon="13.541311851986242"><ele>487.0</ele><time>2026-04-05T15:15:33Z</time></trkpt><trkpt lat="42.81279168162928" lon="13.541132886830114"><ele>487.0</ele><time>2026-04-05T15:15:34Z</time></trkpt><trkpt lat="42.81272594504932" lon="13.540942953851438"><ele>487.0</ele><time>2026-04-05T15:15:35Z</time></trkpt><trkpt lat="42.81265429069109" lon="13.540757206591692"><ele>487.20000000000005</ele><time>2026-04-05T15:15:36Z</time></trkpt><trkpt lat="42.812588588599674" lon="13.54059086370472"><ele>487.40000000000003</ele><time>2026-04-05T15:15:37Z</time></trkpt><trkpt lat="42.81253027580082" lon="13.540448092914925"><ele>487.59999999999997</ele><time>2026-04-05T15:15:38Z</time></trkpt><trkpt lat="42.81248099868835" lon="13.540330517434246"><ele>487.79999999999995</ele><time>2026-04-05T15:15:39Z</time></trkpt><trkpt lat="42.81243515134172" lon="13.54024420037796"><ele>488.0</ele><time>2026-04-05T15:15:40Z</time></trkpt><trkpt lat="42.81237691820105" lon="13.540186594023584"><ele>488.0</ele><time>2026-04-05T15:15:41Z</time></trkpt><trkpt lat="42.81230360038694" lon="13.540163709661398"><ele>487.99999999999994</ele><time>2026-04-05T15:15:42Z</time></trkpt><trkpt lat="42.81222483687077" lon="13.540195699218353"><ele>487.99999999999994</ele><time>2026-04-05T15:15:43Z</time></trkpt><trkpt lat="42.81214162712463" lon="13.540278452515663"><ele>488.0</ele><time>2026-04-05T15:15:44Z</time></trkpt><trkpt lat="42.812047307161876" lon="13.540390773778721"><ele>488.0</ele><time>2026-04-05T15:15:45Z</time></trkpt><trkpt lat="42.811944479130716" lon="13.54049998074921"><ele>488.0</ele><time>2026-04-05T15:15:46Z</time></trkpt><trkpt lat="42.811835864991004" lon="13.5406035661845"><ele>488.0</ele><time>2026-04-05T15:15:47Z</time></trkpt><trkpt lat="42.811731423010826" lon="13.540691991933842"><ele>488.0</ele><time>2026-04-05T15:15:48Z</time></trkpt><trkpt lat="42.81161704598211" lon="13.540756471763599"><ele>488.0</ele><time>2026-04-05T15:15:49Z</time></trkpt><trkpt lat="42.81148738423384" lon="13.540796700716028"><ele>486.0</ele><time>2026-04-05T15:15:50Z</time></trkpt><trkpt lat="42.81134431033118" lon="13.54081516975237"><ele>484.0</ele><time>2026-04-05T15:15:51Z</time></trkpt><trkpt lat="42.811203039804006" lon="13.540821307194618"><ele>482.0</ele><time>2026-04-05T15:15:52Z</time></trkpt><trkpt lat="42.811073857973824" lon="13.54083021228616"><ele>480.0</ele><time>2026-04-05T15:15:53Z</time></trkpt><trkpt lat="42.81095883895988" lon="13.540842356522424"><ele>479.0</ele><time>2026-04-05T15:15:54Z</time></trkpt><trkpt lat="42.810856793579035" lon="13.540841449643501"><ele>478.0</ele><time>2026-04-05T15:15:55Z</time></trkpt><trkpt lat="42.81076756692281" lon="13.540800079950754"><ele>477.0</ele><time>2026-04-05T15:15:56Z</time></trkpt><trkpt lat="42.81068558005217" lon="13.540722863873468"><ele>476.0</ele><time>2026-04-05T15:15:57Z</time></trkpt><trkpt lat="42.810615412364804" lon="13.540630051411457"><ele>475.0</ele><time>2026-04-05T15:15:58Z</time></trkpt><trkpt lat="42.810572470248886" lon="13.540520643327005"><ele>475.0</ele><time>2026-04-05T15:15:59Z</time></trkpt><trkpt lat="42.8105621918858" lon="13.540391787596281"><ele>475.0</ele><time>2026-04-05T15:16:00Z</time></trkpt><trkpt lat="42.81058551388548" lon="13.540241294897921"><ele>475.0</ele><time>2026-04-05T15:16:01Z</time></trkpt><trkpt lat="42.81063204471617" lon="13.540074140302039"><ele>475.0</ele><time>2026-04-05T15:16:02Z</time></trkpt><trkpt lat="42.810683088656226" lon="13.539891755819147"><ele>471.75</ele><time>2026-04-05T15:16:03Z</time></trkpt><trkpt lat="42.810735054727" lon="13.539702352113114"><ele>468.5</ele><time>2026-04-05T15:16:04Z</time></trkpt><trkpt lat="42.810788156323255" lon="13.539509120639222"><ele>465.25</ele><time>2026-04-05T15:16:05Z</time></trkpt><trkpt lat="42.810840628788014" lon="13.539322601026138"><ele>462.0</ele><time>2026-04-05T15:16:06Z</time></trkpt><trkpt lat="42.810890836623656" lon="13.539147218772342"><ele>461.75</ele><time>2026-04-05T15:16:07Z</time></trkpt><trkpt lat="42.810937556507625" lon="13.53897815711997"><ele>461.5</ele><time>2026-04-05T15:16:08Z</time></trkpt><trkpt lat="42.81097498608383" lon="13.53880909911879"><ele>461.25</ele><time>2026-04-05T15:16:09Z</time></trkpt><trkpt lat="42.8109961040567" lon="13.538624575542027"><ele>461.0</ele><time>2026-04-05T15:16:10Z</time></trkpt><trkpt lat="42.81101002759765" lon="13.538424792569574"><ele>454.5</ele><time>2026-04-05T15:16:11Z</time></trkpt><trkpt lat="42.81102765790156" lon="13.538229793720152"><ele>448.0</ele><time>2026-04-05T15:16:12Z</time></trkpt><trkpt lat="42.811046661937716" lon="13.538056537827451"><ele>441.5</ele><time>2026-04-05T15:16:13Z</time></trkpt><trkpt lat="42.811061048826375" lon="13.537907993766867"><ele>435.0</ele><time>2026-04-05T15:16:14Z</time></trkpt><trkpt lat="42.81106883106988" lon="13.53777876706309"><ele>433.8</ele><time>2026-04-05T15:16:15Z</time></trkpt><trkpt lat="42.81106100130661" lon="13.537662689027528"><ele>432.6</ele><time>2026-04-05T15:16:16Z</time></trkpt><trkpt lat="42.81102902203788" lon="13.537552480805298"><ele>431.4</ele><time>2026-04-05T15:16:17Z</time></trkpt><trkpt lat="42.8109739227592" lon="13.537447458900164"><ele>430.2</ele><time>2026-04-05T15:16:18Z</time></trkpt><trkpt lat="42.81089132677261" lon="13.537345429952499"><ele>429.0</ele><time>2026-04-05T15:16:19Z</time></trkpt><trkpt lat="42.81079907456786" lon="13.537242871046953"><ele>430.0</ele><time>2026-04-05T15:16:20Z</time></trkpt><trkpt lat="42.81071857177263" lon="13.537154896627607"><ele>431.0</ele><time>2026-04-05T15:16:21Z</time></trkpt><trkpt lat="42.81063965335822" lon="13.537081179417838"><ele>432.0</ele><time>2026-04-05T15:16:22Z</time></trkpt><trkpt lat="42.81054847256901" lon="13.537031955312859"><ele>433.0</ele><time>2026-04-05T15:16:23Z</time></trkpt><trkpt lat="42.81043754359651" lon="13.536999071935117"><ele>434.0</ele><time>2026-04-05T15:16:24Z</time></trkpt><trkpt lat="42.81032092559304" lon="13.536985563976486"><ele>434.0</ele><time>2026-04-05T15:16:25Z</time></trkpt><trkpt lat="42.81021146607194" lon="13.536978344917479"><ele>434.0</ele><time>2026-04-05T15:16:26Z</time></trkpt><trkpt lat="42.81011779659992" lon="13.536978913477416"><ele>434.0</ele><time>2026-04-05T15:16:27Z</time></trkpt><trkpt lat="42.81003840543998" lon="13.537001048839786"><ele>434.0</ele><time>2026-04-05T15:16:28Z</time></trkpt><trkpt lat="42.809966274150646" lon="13.537067432234819"><ele>434.0</ele><time>2026-04-05T15:16:29Z</time></trkpt><trkpt lat="42.809904783282406" lon="13.537170127011269"><ele>437.6</ele><time>2026-04-05T15:16:30Z</time></trkpt><trkpt lat="42.80984177409486" lon="13.537280646562069"><ele>441.2</ele><time>2026-04-05T15:16:31Z</time></trkpt><trkpt lat="42.809771888048644" lon="13.537371164337216"><ele>444.80000000000007</ele><time>2026-04-05T15:16:32Z</time></trkpt><trkpt lat="42.80968531083495" lon="13.53742423393725"><ele>448.40000000000003</ele><time>2026-04-05T15:16:33Z</time></trkpt><trkpt lat="42.80957353575895" lon="13.53747566186924"><ele>452.0</ele><time>2026-04-05T15:16:35Z</time></trkpt><trkpt lat="42.80948877183647" lon="13.537493084806368"><ele>452.0</ele><time>2026-04-05T15:16:37Z</time></trkpt><trkpt lat="42.809419584427" lon="13.537512323714605"><ele>452.00000000000006</ele><time>2026-04-05T15:16:40Z</time></trkpt><trkpt lat="42.80947870746053" lon="13.537393770518696"><ele>452.00000000000006</ele><time>2026-04-05T15:16:41Z</time></trkpt><trkpt lat="42.80960915673879" lon="13.537299571454591"><ele>452.0</ele><time>2026-04-05T15:16:43Z</time></trkpt><trkpt lat="42.809689762493306" lon="13.537197399560299"><ele>452.0</ele><time>2026-04-05T15:16:44Z</time></trkpt><trkpt lat="42.809776417668296" lon="13.537071164674824"><ele>447.0</ele><time>2026-04-05T15:16:45Z</time></trkpt><trkpt lat="42.80986995418447" lon="13.536933275901218"><ele>442.0</ele><time>2026-04-05T15:16:46Z</time></trkpt><trkpt lat="42.809960106695435" lon="13.536787702063506"><ele>437.0</ele><time>2026-04-05T15:16:47Z</time></trkpt><trkpt lat="42.810055306352254" lon="13.536643146783378"><ele>432.0</ele><time>2026-04-05T15:16:48Z</time></trkpt><trkpt lat="42.810146370536906" lon="13.53650413591797"><ele>432.5</ele><time>2026-04-05T15:16:49Z</time></trkpt><trkpt lat="42.8102494896264" lon="13.536400612125416"><ele>433.0</ele><time>2026-04-05T15:16:50Z</time></trkpt><trkpt lat="42.81034913293382" lon="13.53631131019445"><ele>433.5</ele><time>2026-04-05T15:16:51Z</time></trkpt><trkpt lat="42.810449120962495" lon="13.536265114356095"><ele>434.0</ele><time>2026-04-05T15:16:52Z</time></trkpt><trkpt lat="42.81056136043488" lon="13.536261758200764"><ele>434.0</ele><time>2026-04-05T15:16:53Z</time></trkpt><trkpt lat="42.81068992783121" lon="13.53628636855234"><ele>434.0</ele><time>2026-04-05T15:16:54Z</time></trkpt><trkpt lat="42.81082421473796" lon="13.536325358159353"><ele>434.0</ele><time>2026-04-05T15:16:55Z</time></trkpt><trkpt lat="42.81093741050628" lon="13.536365093783969"><ele>434.0</ele><time>2026-04-05T15:16:56Z</time></trkpt><trkpt lat="42.811027639500615" lon="13.536431481614468"><ele>430.75</ele><time>2026-04-05T15:16:57Z</time></trkpt><trkpt lat="42.8111194538052" lon="13.536527232922188"><ele>427.5</ele><time>2026-04-05T15:16:58Z</time></trkpt><trkpt lat="42.81122936246323" lon="13.53665092731038"><ele>424.25</ele><time>2026-04-05T15:16:59Z</time></trkpt><trkpt lat="42.811350084031446" lon="13.536777164761254"><ele>421.0</ele><time>2026-04-05T15:17:00Z</time></trkpt><trkpt lat="42.81148575166176" lon="13.53686097181284"><ele>421.0</ele><time>2026-04-05T15:17:01Z</time></trkpt><trkpt lat="42.811613835624044" lon="13.53693498845918"><ele>421.0</ele><time>2026-04-05T15:17:02Z</time></trkpt><trkpt lat="42.81172165093742" lon="13.537026426055817"><ele>421.0</ele><time>2026-04-05T15:17:03Z</time></trkpt><trkpt lat="42.811827644213984" lon="13.537095159971509"><ele>421.0</ele><time>2026-04-05T15:17:04Z</time></trkpt><trkpt lat="42.8119326431504" lon="13.53713281069609"><ele>421.20000000000005</ele><time>2026-04-05T15:17:05Z</time></trkpt><trkpt lat="42.812017010279085" lon="13.537191253966569"><ele>421.40000000000003</ele><time>2026-04-05T15:17:06Z</time></trkpt><trkpt lat="42.81210282943509" lon="13.537232639997761"><ele>421.6</ele><time>2026-04-05T15:17:07Z</time></trkpt><trkpt lat="42.81219478359579" lon="13.537233892522641"><ele>421.8</ele><time>2026-04-05T15:17:08Z</time></trkpt><trkpt lat="42.81230616416906" lon="13.537202111500406"><ele>422.0</ele><time>2026-04-05T15:17:09Z</time></trkpt><trkpt lat="42.812425648659925" lon="13.537141677629329"><ele>422.0</ele><time>2026-04-05T15:17:10Z</time></trkpt><trkpt lat="42.81253064603778" lon="13.53709014739777"><ele>422.0</ele><time>2026-04-05T15:17:11Z</time></trkpt><trkpt lat="42.81262298291192" lon="13.537084905010829"><ele>422.0</ele><time>2026-04-05T15:17:12Z</time></trkpt><trkpt lat="42.81269576668125" lon="13.537094459518832"><ele>422.0</ele><time>2026-04-05T15:17:13Z</time></trkpt><trkpt lat="42.81276928122054" lon="13.537132815397207"><ele>422.0</ele><time>2026-04-05T15:17:14Z</time></trkpt><trkpt lat="42.812814337484554" lon="13.537255953310414"><ele>419.8</ele><time>2026-04-05T15:17:15Z</time></trkpt><trkpt lat="42.81286901098639" lon="13.537385446035769"><ele>417.6</ele><time>2026-04-05T15:17:16Z</time></trkpt><trkpt lat="42.81292249970793" lon="13.537492577978542"><ele>415.40000000000003</ele><time>2026-04-05T15:17:17Z</time></trkpt><trkpt lat="42.81297147709528" lon="13.537583473932761"><ele>413.20000000000005</ele><time>2026-04-05T15:17:18Z</time></trkpt><trkpt lat="42.813029981818865" lon="13.537656246012885"><ele>411.0</ele><time>2026-04-05T15:17:19Z</time></trkpt><trkpt lat="42.81309863925509" lon="13.537736041514675"><ele>411.0</ele><time>2026-04-05T15:17:20Z</time></trkpt><trkpt lat="42.813189971725976" lon="13.537793661703677"><ele>411.0</ele><time>2026-04-05T15:17:21Z</time></trkpt><trkpt lat="42.813304391810945" lon="13.537813238936195"><ele>411.0</ele><time>2026-04-05T15:17:22Z</time></trkpt><trkpt lat="42.81342839117508" lon="13.537832797792124"><ele>411.0</ele><time>2026-04-05T15:17:23Z</time></trkpt><trkpt lat="42.81355681464284" lon="13.53784834177247"><ele>411.25</ele><time>2026-04-05T15:17:24Z</time></trkpt><trkpt lat="42.813692571874846" lon="13.537883066136612"><ele>411.5</ele><time>2026-04-05T15:17:25Z</time></trkpt><trkpt lat="42.813839009325804" lon="13.537917457087618"><ele>411.75</ele><time>2026-04-05T15:17:26Z</time></trkpt><trkpt lat="42.81397427067207" lon="13.538001380921175"><ele>412.0</ele><time>2026-04-05T15:17:27Z</time></trkpt><trkpt lat="42.814104420897394" lon="13.538066045786737"><ele>412.0</ele><time>2026-04-05T15:17:28Z</time></trkpt><trkpt lat="42.81423418351356" lon="13.538105832617143"><ele>412.0</ele><time>2026-04-05T15:17:29Z</time></trkpt><trkpt lat="42.81436183844512" lon="13.538159758844905"><ele>412.0</ele><time>2026-04-05T15:17:30Z</time></trkpt><trkpt lat="42.814483355050875" lon="13.53819649637794"><ele>412.0</ele><time>2026-04-05T15:17:31Z</time></trkpt><trkpt lat="42.81460362402437" lon="13.5381983641409"><ele>410.0</ele><time>2026-04-05T15:17:32Z</time></trkpt><trkpt lat="42.814725273268195" lon="13.5381925261053"><ele>408.0</ele><time>2026-04-05T15:17:33Z</time></trkpt><trkpt lat="42.81483400935775" lon="13.538165892409767"><ele>406.0</ele><time>2026-04-05T15:17:34Z</time></trkpt><trkpt lat="42.81493329804068" lon="13.538172617454247"><ele>404.0</ele><time>2026-04-05T15:17:35Z</time></trkpt><trkpt lat="42.815026692427324" lon="13.538207899689056"><ele>402.0</ele><time>2026-04-05T15:17:36Z</time></trkpt><trkpt lat="42.815108718801234" lon="13.538294914413996"><ele>397.0</ele><time>2026-04-05T15:17:37Z</time></trkpt><trkpt lat="42.81519143991776" lon="13.538398773802085"><ele>392.0</ele><time>2026-04-05T15:17:38.001Z</time></trkpt><trkpt lat="42.81528251047125" lon="13.53850984026699"><ele>387.0</ele><time>2026-04-05T15:17:39.001Z</time></trkpt><trkpt lat="42.8153767433098" lon="13.53861011556197"><ele>382.0</ele><time>2026-04-05T15:17:40.001Z</time></trkpt><trkpt lat="42.81547608638519" lon="13.538674836383585"><ele>382.8333333333333</ele><time>2026-04-05T15:17:41.001Z</time></trkpt><trkpt lat="42.81555294658886" lon="13.538757407092534"><ele>383.66666666666663</ele><time>2026-04-05T15:17:42.001Z</time></trkpt><trkpt lat="42.815616094646735" lon="13.538816487613444"><ele>384.5</ele><time>2026-04-05T15:17:43Z</time></trkpt><trkpt lat="42.81566959942042" lon="13.538883041471141"><ele>385.3333333333333</ele><time>2026-04-05T15:17:44Z</time></trkpt><trkpt lat="42.8156887771729" lon="13.538998693012097"><ele>386.1666666666667</ele><time>2026-04-05T15:17:45Z</time></trkpt><trkpt lat="42.81568734042384" lon="13.539135114488719"><ele>387.0</ele><time>2026-04-05T15:17:46Z</time></trkpt><trkpt lat="42.81566829405585" lon="13.539282043112264"><ele>387.0</ele><time>2026-04-05T15:17:47Z</time></trkpt><trkpt lat="42.81563364882287" lon="13.539429334197523"><ele>387.0</ele><time>2026-04-05T15:17:48Z</time></trkpt><trkpt lat="42.815619601251534" lon="13.53958881114674"><ele>387.0</ele><time>2026-04-05T15:17:49Z</time></trkpt><trkpt lat="42.815590157931275" lon="13.539741544677673"><ele>387.0</ele><time>2026-04-05T15:17:50Z</time></trkpt><trkpt lat="42.815574661180825" lon="13.539899735429087"><ele>385.0</ele><time>2026-04-05T15:17:51Z</time></trkpt><trkpt lat="42.815573106967626" lon="13.54005984288666"><ele>383.0</ele><time>2026-04-05T15:17:52Z</time></trkpt><trkpt lat="42.81558625586824" lon="13.540219673189307"><ele>381.0</ele><time>2026-04-05T15:17:53Z</time></trkpt><trkpt lat="42.81560827172592" lon="13.540374751708029"><ele>379.0</ele><time>2026-04-05T15:17:54Z</time></trkpt><trkpt lat="42.815625009359046" lon="13.54051504639412"><ele>377.79999999999995</ele><time>2026-04-05T15:17:55Z</time></trkpt><trkpt lat="42.81562178067074" lon="13.540632724831099"><ele>376.59999999999997</ele><time>2026-04-05T15:17:56Z</time></trkpt><trkpt lat="42.8156305094824" lon="13.540744512371056"><ele>375.4</ele><time>2026-04-05T15:17:57Z</time></trkpt><trkpt lat="42.81559333788905" lon="13.540862155056672"><ele>374.2</ele><time>2026-04-05T15:17:58Z</time></trkpt><trkpt lat="42.81553212598109" lon="13.540986409548534"><ele>373.0</ele><time>2026-04-05T15:17:59Z</time></trkpt><trkpt lat="42.81548789650631" lon="13.541124288198247"><ele>370.5</ele><time>2026-04-05T15:18:00Z</time></trkpt><trkpt lat="42.81547056678982" lon="13.541272188268893"><ele>368.0</ele><time>2026-04-05T15:18:01Z</time></trkpt><trkpt lat="42.81547203091476" lon="13.54143012112457"><ele>365.5</ele><time>2026-04-05T15:18:02Z</time></trkpt><trkpt lat="42.81547119240136" lon="13.541589349510744"><ele>363.0</ele><time>2026-04-05T15:18:03Z</time></trkpt><trkpt lat="42.81546437503275" lon="13.541747496165204"><ele>363.0</ele><time>2026-04-05T15:18:04Z</time></trkpt><trkpt lat="42.81545122224141" lon="13.541902282108223"><ele>363.0</ele><time>2026-04-05T15:18:05Z</time></trkpt><trkpt lat="42.815441192215104" lon="13.542051547681345"><ele>363.0</ele><time>2026-04-05T15:18:06Z</time></trkpt><trkpt lat="42.81543799313843" lon="13.542200176505336"><ele>363.0</ele><time>2026-04-05T15:18:07Z</time></trkpt><trkpt lat="42.815448461375205" lon="13.542350474023722"><ele>363.0</ele><time>2026-04-05T15:18:08Z</time></trkpt><trkpt lat="42.8154709295846" lon="13.542512362597874"><ele>362.5</ele><time>2026-04-05T15:18:09Z</time></trkpt><trkpt lat="42.81547887288663" lon="13.542683386265528"><ele>362.0</ele><time>2026-04-05T15:18:10Z</time></trkpt><trkpt lat="42.815502635357156" lon="13.542848057654963"><ele>361.5</ele><time>2026-04-05T15:18:11Z</time></trkpt><trkpt lat="42.81552884459278" lon="13.543006965715136"><ele>361.0</ele><time>2026-04-05T15:18:12Z</time></trkpt><trkpt lat="42.8155680526375" lon="13.543153067931408"><ele>362.0</ele><time>2026-04-05T15:18:13Z</time></trkpt><trkpt lat="42.81555711087933" lon="13.543300331308071"><ele>363.0</ele><time>2026-04-05T15:18:14Z</time></trkpt><trkpt lat="42.81557453825113" lon="13.543443032574887"><ele>364.0</ele><time>2026-04-05T15:18:15Z</time></trkpt><trkpt lat="42.815574079092904" lon="13.543580188252948"><ele>365.0</ele><time>2026-04-05T15:18:16Z</time></trkpt><trkpt lat="42.81557682329007" lon="13.543712577323161"><ele>366.0</ele><time>2026-04-05T15:18:17Z</time></trkpt><trkpt lat="42.81557657301369" lon="13.543836616754318"><ele>366.0</ele><time>2026-04-05T15:18:18Z</time></trkpt><trkpt lat="42.815586178026905" lon="13.543960079564714"><ele>366.0</ele><time>2026-04-05T15:18:19Z</time></trkpt><trkpt lat="42.81564321131623" lon="13.54407206425117"><ele>366.0</ele><time>2026-04-05T15:18:20Z</time></trkpt><trkpt lat="42.81568011483902" lon="13.544199985307321"><ele>366.0</ele><time>2026-04-05T15:18:21Z</time></trkpt><trkpt lat="42.81572599855195" lon="13.544314748236129"><ele>366.0</ele><time>2026-04-05T15:18:22Z</time></trkpt><trkpt lat="42.815778685077014" lon="13.544416608026943"><ele>366.0</ele><time>2026-04-05T15:18:23Z</time></trkpt><trkpt lat="42.81578928047639" lon="13.544543697163467"><ele>366.0</ele><time>2026-04-05T15:18:24Z</time></trkpt><trkpt lat="42.81577968406585" lon="13.544674717792809"><ele>366.0</ele><time>2026-04-05T15:18:25Z</time></trkpt><trkpt lat="42.81572801316302" lon="13.544807202369153"><ele>366.0</ele><time>2026-04-05T15:18:26Z</time></trkpt><trkpt lat="42.815649374266265" lon="13.544915076756485"><ele>366.0</ele><time>2026-04-05T15:18:27Z</time></trkpt><trkpt lat="42.81556682926884" lon="13.545011189736286"><ele>365.1666666666667</ele><time>2026-04-05T15:18:28Z</time></trkpt><trkpt lat="42.81550326427432" lon="13.545115600456924"><ele>364.3333333333333</ele><time>2026-04-05T15:18:29Z</time></trkpt><trkpt lat="42.8154602225295" lon="13.545227335179298"><ele>363.5</ele><time>2026-04-05T15:18:30Z</time></trkpt><trkpt lat="42.81543864059902" lon="13.545338863473365"><ele>362.66666666666663</ele><time>2026-04-05T15:18:31Z</time></trkpt><trkpt lat="42.81544036299017" lon="13.545449349866455"><ele>361.8333333333333</ele><time>2026-04-05T15:18:32Z</time></trkpt><trkpt lat="42.81547431768813" lon="13.54555528912929"><ele>361.0</ele><time>2026-04-05T15:18:33Z</time></trkpt><trkpt lat="42.81552652301973" lon="13.545649128134809"><ele>364.16666666666663</ele><time>2026-04-05T15:18:34Z</time></trkpt><trkpt lat="42.81558264948497" lon="13.54573738778961"><ele>367.3333333333333</ele><time>2026-04-05T15:18:35Z</time></trkpt><trkpt lat="42.815634130337" lon="13.545816043613744"><ele>370.5</ele><time>2026-04-05T15:18:36Z</time></trkpt><trkpt lat="42.815690394571945" lon="13.545871405277882"><ele>373.6666666666667</ele><time>2026-04-05T15:18:37Z</time></trkpt><trkpt lat="42.8157548118441" lon="13.545872584889358"><ele>376.83333333333337</ele><time>2026-04-05T15:18:38Z</time></trkpt><trkpt lat="42.8158183521118" lon="13.54581947068247"><ele>380.0</ele><time>2026-04-05T15:18:39Z</time></trkpt><trkpt lat="42.815868316468325" lon="13.54571801836014"><ele>380.0</ele><time>2026-04-05T15:18:40Z</time></trkpt><trkpt lat="42.81591622532659" lon="13.545600735383434"><ele>380.0</ele><time>2026-04-05T15:18:41Z</time></trkpt><trkpt lat="42.81597725315087" lon="13.545499692744567"><ele>380.0</ele><time>2026-04-05T15:18:42Z</time></trkpt><trkpt lat="42.816065381514484" lon="13.545426850510168"><ele>380.0</ele><time>2026-04-05T15:18:43Z</time></trkpt><trkpt lat="42.81617212468848" lon="13.54537665106985"><ele>380.0</ele><time>2026-04-05T15:18:44Z</time></trkpt><trkpt lat="42.81628286229794" lon="13.54533802879443"><ele>377.0</ele><time>2026-04-05T15:18:45Z</time></trkpt><trkpt lat="42.81639263800961" lon="13.54530879155508"><ele>374.0</ele><time>2026-04-05T15:18:46Z</time></trkpt><trkpt lat="42.816495207206124" lon="13.54527834836197"><ele>371.0</ele><time>2026-04-05T15:18:47Z</time></trkpt><trkpt lat="42.816581322935846" lon="13.545242475837624"><ele>368.0</ele><time>2026-04-05T15:18:48Z</time></trkpt><trkpt lat="42.81665818712645" lon="13.545203767113355"><ele>365.0</ele><time>2026-04-05T15:18:49Z</time></trkpt><trkpt lat="42.81672992000276" lon="13.545126697120955"><ele>365.0</ele><time>2026-04-05T15:18:50Z</time></trkpt><trkpt lat="42.81679585937741" lon="13.54501342459855"><ele>365.0</ele><time>2026-04-05T15:18:51Z</time></trkpt><trkpt lat="42.81686044703662" lon="13.54488499494946"><ele>365.0</ele><time>2026-04-05T15:18:52Z</time></trkpt><trkpt lat="42.81692313555322" lon="13.544775605063458"><ele>365.0</ele><time>2026-04-05T15:18:53Z</time></trkpt><trkpt lat="42.8169786891097" lon="13.544693369432602"><ele>365.0</ele><time>2026-04-05T15:18:54Z</time></trkpt><trkpt lat="42.817096607815714" lon="13.544664385846627"><ele>363.2</ele><time>2026-04-05T15:18:56Z</time></trkpt><trkpt lat="42.81717505845456" lon="13.544758728524695"><ele>361.4</ele><time>2026-04-05T15:18:58Z</time></trkpt><trkpt lat="42.81719675145417" lon="13.54484989169306"><ele>359.6</ele><time>2026-04-05T15:18:59Z</time></trkpt><trkpt lat="42.81721233205092" lon="13.544959839417796"><ele>357.8</ele><time>2026-04-05T15:19:00Z</time></trkpt><trkpt lat="42.81721663787583" lon="13.545090855970267"><ele>356.0</ele><time>2026-04-05T15:19:01Z</time></trkpt><trkpt lat="42.81721602979561" lon="13.545234554967609"><ele>358.0</ele><time>2026-04-05T15:19:02Z</time></trkpt><trkpt lat="42.817207695395126" lon="13.545385190853725"><ele>360.0</ele><time>2026-04-05T15:19:03Z</time></trkpt><trkpt lat="42.817193634539024" lon="13.545544288846674"><ele>362.0</ele><time>2026-04-05T15:19:04Z</time></trkpt><trkpt lat="42.81718429119256" lon="13.545705046086889"><ele>364.0</ele><time>2026-04-05T15:19:05Z</time></trkpt><trkpt lat="42.817188709837694" lon="13.54587452605953"><ele>364.0</ele><time>2026-04-05T15:19:06Z</time></trkpt><trkpt lat="42.81720758148896" lon="13.546046812372106"><ele>364.0</ele><time>2026-04-05T15:19:07Z</time></trkpt><trkpt lat="42.817237096760465" lon="13.546215368707491"><ele>364.0</ele><time>2026-04-05T15:19:08Z</time></trkpt><trkpt lat="42.81727699654051" lon="13.546383757498479"><ele>364.0</ele><time>2026-04-05T15:19:09Z</time></trkpt><trkpt lat="42.81732579957028" lon="13.546548396761327"><ele>367.75</ele><time>2026-04-05T15:19:10Z</time></trkpt><trkpt lat="42.81739017508162" lon="13.546711269490833"><ele>371.5</ele><time>2026-04-05T15:19:11Z</time></trkpt><trkpt lat="42.817476082726095" lon="13.546879164433943"><ele>375.25</ele><time>2026-04-05T15:19:12Z</time></trkpt><trkpt lat="42.81756027468494" lon="13.547048110097975"><ele>379.0</ele><time>2026-04-05T15:19:13Z</time></trkpt><trkpt lat="42.81762892236669" lon="13.547224211691221"><ele>368.0</ele><time>2026-04-05T15:19:14Z</time></trkpt><trkpt lat="42.81767619628955" lon="13.547410788975704"><ele>357.0</ele><time>2026-04-05T15:19:15Z</time></trkpt><trkpt lat="42.817717419882946" lon="13.54760741176214"><ele>346.0</ele><time>2026-04-05T15:19:16Z</time></trkpt><trkpt lat="42.81776737493275" lon="13.547819814607296"><ele>351.0</ele><time>2026-04-05T15:19:17Z</time></trkpt><trkpt lat="42.817833830951294" lon="13.54805410026591"><ele>356.0</ele><time>2026-04-05T15:19:18Z</time></trkpt><trkpt lat="42.81789568025719" lon="13.5482957207119"><ele>361.0</ele><time>2026-04-05T15:19:19Z</time></trkpt><trkpt lat="42.81794521610481" lon="13.548523171201523"><ele>368.0</ele><time>2026-04-05T15:19:20Z</time></trkpt><trkpt lat="42.817984206979446" lon="13.548750384735694"><ele>375.0</ele><time>2026-04-05T15:19:21Z</time></trkpt><trkpt lat="42.81802279095511" lon="13.548974306176468"><ele>382.0</ele><time>2026-04-05T15:19:22Z</time></trkpt><trkpt lat="42.818070450371465" lon="13.549176534171316"><ele>382.0</ele><time>2026-04-05T15:19:23Z</time></trkpt><trkpt lat="42.81812642616908" lon="13.549348224992615"><ele>382.0</ele><time>2026-04-05T15:19:24Z</time></trkpt><trkpt lat="42.81818111359653" lon="13.549502652838388"><ele>382.0</ele><time>2026-04-05T15:19:25Z</time></trkpt><trkpt lat="42.8182310721349" lon="13.54962987764089"><ele>382.0</ele><time>2026-04-05T15:19:26Z</time></trkpt><trkpt lat="42.81829142031676" lon="13.549734950324732"><ele>386.0</ele><time>2026-04-05T15:19:27Z</time></trkpt><trkpt lat="42.81837736391138" lon="13.549813326747119"><ele>390.0</ele><time>2026-04-05T15:19:28Z</time></trkpt><trkpt lat="42.81849583234521" lon="13.549857143147609"><ele>394.0</ele><time>2026-04-05T15:19:29Z</time></trkpt><trkpt lat="42.81863308173289" lon="13.549888656864571"><ele>398.0</ele><time>2026-04-05T15:19:30Z</time></trkpt><trkpt lat="42.81877569030174" lon="13.549926369105576"><ele>398.0</ele><time>2026-04-05T15:19:31Z</time></trkpt><trkpt lat="42.81890867333414" lon="13.549979332420103"><ele>398.0</ele><time>2026-04-05T15:19:32Z</time></trkpt><trkpt lat="42.819037154512" lon="13.5500212111083"><ele>398.0</ele><time>2026-04-05T15:19:33Z</time></trkpt><trkpt lat="42.81915740174673" lon="13.550043353703908"><ele>398.0</ele><time>2026-04-05T15:19:34Z</time></trkpt><trkpt lat="42.81928762707149" lon="13.550016944421404"><ele>399.5</ele><time>2026-04-05T15:19:35Z</time></trkpt><trkpt lat="42.819423697869624" lon="13.54995914103634"><ele>401.0</ele><time>2026-04-05T15:19:36Z</time></trkpt><trkpt lat="42.81956898088724" lon="13.549924468643418"><ele>402.5</ele><time>2026-04-05T15:19:37Z</time></trkpt><trkpt lat="42.819712064037766" lon="13.549922611344774"><ele>404.0</ele><time>2026-04-05T15:19:38Z</time></trkpt><trkpt lat="42.81983655479592" lon="13.549930307800452"><ele>404.0</ele><time>2026-04-05T15:19:39Z</time></trkpt><trkpt lat="42.81995432741725" lon="13.54992101552375"><ele>404.0</ele><time>2026-04-05T15:19:40Z</time></trkpt><trkpt lat="42.82006074174122" lon="13.549867379924626"><ele>404.0</ele><time>2026-04-05T15:19:41Z</time></trkpt><trkpt lat="42.820156694738124" lon="13.549765324909464"><ele>404.0</ele><time>2026-04-05T15:19:42Z</time></trkpt><trkpt lat="42.82022969875765" lon="13.549643276281568"><ele>402.79999999999995</ele><time>2026-04-05T15:19:43Z</time></trkpt><trkpt lat="42.8202956503884" lon="13.549565136469843"><ele>401.59999999999997</ele><time>2026-04-05T15:19:44Z</time></trkpt><trkpt lat="42.820367750447424" lon="13.549539065464774"><ele>400.4</ele><time>2026-04-05T15:19:45Z</time></trkpt><trkpt lat="42.82046255070011" lon="13.549555635493121"><ele>399.2</ele><time>2026-04-05T15:19:46Z</time></trkpt><trkpt lat="42.82054643682566" lon="13.549623527582355"><ele>398.0</ele><time>2026-04-05T15:19:47Z</time></trkpt><trkpt lat="42.82061124179064" lon="13.549737277262722"><ele>398.0</ele><time>2026-04-05T15:19:48Z</time></trkpt><trkpt lat="42.82067501621055" lon="13.549871285510124"><ele>398.0</ele><time>2026-04-05T15:19:49Z</time></trkpt><trkpt lat="42.820747238928796" lon="13.550012212328973"><ele>398.0</ele><time>2026-04-05T15:19:50Z</time></trkpt><trkpt lat="42.820824435779336" lon="13.550140817840495"><ele>398.0</ele><time>2026-04-05T15:19:51Z</time></trkpt><trkpt lat="42.820917537844224" lon="13.550271321169289"><ele>398.3333333333333</ele><time>2026-04-05T15:19:52Z</time></trkpt><trkpt lat="42.821029252001985" lon="13.550398178217263"><ele>398.66666666666663</ele><time>2026-04-05T15:19:53Z</time></trkpt><trkpt lat="42.82115785200245" lon="13.550519325251022"><ele>399.0</ele><time>2026-04-05T15:19:54Z</time></trkpt><trkpt lat="42.821294227848405" lon="13.55062569251426"><ele>399.0</ele><time>2026-04-05T15:19:55Z</time></trkpt><trkpt lat="42.821429391939034" lon="13.550720342481576"><ele>399.0</ele><time>2026-04-05T15:19:56Z</time></trkpt><trkpt lat="42.82156202957773" lon="13.550816308800956"><ele>399.0</ele><time>2026-04-05T15:19:57Z</time></trkpt><trkpt lat="42.821691240340705" lon="13.550911982350684"><ele>399.0</ele><time>2026-04-05T15:19:58Z</time></trkpt><trkpt lat="42.82181786020153" lon="13.551010274454422"><ele>400.5</ele><time>2026-04-05T15:19:59Z</time></trkpt><trkpt lat="42.82193368232798" lon="13.55110315817539"><ele>402.0</ele><time>2026-04-05T15:20:00Z</time></trkpt><trkpt lat="42.82203914044715" lon="13.551195423996631"><ele>403.5</ele><time>2026-04-05T15:20:01Z</time></trkpt><trkpt lat="42.82213365572692" lon="13.551281636297668"><ele>405.0</ele><time>2026-04-05T15:20:02Z</time></trkpt><trkpt lat="42.822214551520915" lon="13.551358537565001"><ele>404.99999999999994</ele><time>2026-04-05T15:20:03Z</time></trkpt><trkpt lat="42.82227295791214" lon="13.551427585192439"><ele>405.0</ele><time>2026-04-05T15:20:04Z</time></trkpt><trkpt lat="42.822314718171896" lon="13.551505148630007"><ele>405.0</ele><time>2026-04-05T15:20:05Z</time></trkpt><trkpt lat="42.822326904554075" lon="13.551595125320334"><ele>405.0</ele><time>2026-04-05T15:20:06Z</time></trkpt><trkpt lat="42.82231683441866" lon="13.551691228400951"><ele>405.0</ele><time>2026-04-05T15:20:07Z</time></trkpt><trkpt lat="42.82228434963453" lon="13.551777507756556"><ele>404.99999999999994</ele><time>2026-04-05T15:20:08Z</time></trkpt><trkpt lat="42.8222198117188" lon="13.551849650117932"><ele>405.0</ele><time>2026-04-05T15:20:09Z</time></trkpt><trkpt lat="42.8221294640507" lon="13.551919231370023"><ele>405.0</ele><time>2026-04-05T15:20:10Z</time></trkpt><trkpt lat="42.822036061216814" lon="13.5519904067757"><ele>405.0</ele><time>2026-04-05T15:20:11Z</time></trkpt><trkpt lat="42.821964474609175" lon="13.552074427598594"><ele>405.0</ele><time>2026-04-05T15:20:12Z</time></trkpt><trkpt lat="42.821894538465784" lon="13.552193072320076"><ele>405.0</ele><time>2026-04-05T15:20:13Z</time></trkpt><trkpt lat="42.82183759301538" lon="13.552338145914707"><ele>405.0</ele><time>2026-04-05T15:20:14Z</time></trkpt><trkpt lat="42.82178777123446" lon="13.55249015478793"><ele>405.5</ele><time>2026-04-05T15:20:15Z</time></trkpt><trkpt lat="42.82173840000397" lon="13.552640582602848"><ele>406.0</ele><time>2026-04-05T15:20:16Z</time></trkpt><trkpt lat="42.82168633353522" lon="13.552795222531515"><ele>406.5</ele><time>2026-04-05T15:20:17Z</time></trkpt><trkpt lat="42.821631107798424" lon="13.55296039404489"><ele>407.0</ele><time>2026-04-05T15:20:18Z</time></trkpt><trkpt lat="42.82158020572303" lon="13.553116948604302"><ele>404.6</ele><time>2026-04-05T15:20:19Z</time></trkpt><trkpt lat="42.82153135233248" lon="13.553260899043279"><ele>402.20000000000005</ele><time>2026-04-05T15:20:20Z</time></trkpt><trkpt lat="42.82148704137566" lon="13.553391145043992"><ele>399.8</ele><time>2026-04-05T15:20:21Z</time></trkpt><trkpt lat="42.82146207747082" lon="13.55352698890312"><ele>397.4</ele><time>2026-04-05T15:20:22Z</time></trkpt><trkpt lat="42.82146422620157" lon="13.553671835562463"><ele>395.0</ele><time>2026-04-05T15:20:23Z</time></trkpt><trkpt lat="42.82150283887414" lon="13.553826214544957"><ele>393.25</ele><time>2026-04-05T15:20:24Z</time></trkpt><trkpt lat="42.82155993841411" lon="13.553971450772627"><ele>391.5</ele><time>2026-04-05T15:20:25Z</time></trkpt><trkpt lat="42.821615953000844" lon="13.55410612009815"><ele>389.75</ele><time>2026-04-05T15:20:26Z</time></trkpt><trkpt lat="42.8216566117604" lon="13.554246950354395"><ele>388.0</ele><time>2026-04-05T15:20:27Z</time></trkpt><trkpt lat="42.82167992088583" lon="13.554400012377336"><ele>388.25</ele><time>2026-04-05T15:20:28Z</time></trkpt><trkpt lat="42.82168032613595" lon="13.554573226527138"><ele>388.5</ele><time>2026-04-05T15:20:29Z</time></trkpt><trkpt lat="42.821661883896965" lon="13.554745919693806"><ele>388.75</ele><time>2026-04-05T15:20:30Z</time></trkpt><trkpt lat="42.82163853287301" lon="13.554899946302212"><ele>389.0</ele><time>2026-04-05T15:20:31Z</time></trkpt><trkpt lat="42.82163134327202" lon="13.555046816448677"><ele>389.0</ele><time>2026-04-05T15:20:32Z</time></trkpt><trkpt lat="42.821657383318055" lon="13.555187293907034"><ele>389.0</ele><time>2026-04-05T15:20:33Z</time></trkpt><trkpt lat="42.821694127028934" lon="13.555322848132267"><ele>389.0</ele><time>2026-04-05T15:20:34Z</time></trkpt><trkpt lat="42.82174306226884" lon="13.555457642400853"><ele>389.0</ele><time>2026-04-05T15:20:35Z</time></trkpt><trkpt lat="42.821818988340674" lon="13.55558536439334"><ele>389.0</ele><time>2026-04-05T15:20:36Z</time></trkpt><trkpt lat="42.82190505328027" lon="13.555691180294653"><ele>387.25</ele><time>2026-04-05T15:20:37Z</time></trkpt><trkpt lat="42.822000170277065" lon="13.555767658134144"><ele>385.5</ele><time>2026-04-05T15:20:38Z</time></trkpt><trkpt lat="42.82211425232466" lon="13.555808186890905"><ele>383.75</ele><time>2026-04-05T15:20:39Z</time></trkpt><trkpt lat="42.82224567910063" lon="13.555813870167796"><ele>382.0</ele><time>2026-04-05T15:20:40Z</time></trkpt><trkpt lat="42.82238704120234" lon="13.555792846442744"><ele>382.0</ele><time>2026-04-05T15:20:41Z</time></trkpt><trkpt lat="42.82253772806753" lon="13.555767448729883"><ele>382.0</ele><time>2026-04-05T15:20:42Z</time></trkpt><trkpt lat="42.82268170351769" lon="13.55575366335659"><ele>382.0</ele><time>2026-04-05T15:20:43Z</time></trkpt><trkpt lat="42.822825725822554" lon="13.555744753873908"><ele>382.0</ele><time>2026-04-05T15:20:44Z</time></trkpt><trkpt lat="42.8229736523528" lon="13.555734450912837"><ele>379.3333333333333</ele><time>2026-04-05T15:20:45Z</time></trkpt><trkpt lat="42.82312464239806" lon="13.55572544409097"><ele>376.6666666666667</ele><time>2026-04-05T15:20:46Z</time></trkpt><trkpt lat="42.82327702692049" lon="13.555716537779357"><ele>374.0</ele><time>2026-04-05T15:20:47Z</time></trkpt><trkpt lat="42.82343078784753" lon="13.55570434138608"><ele>374.33333333333337</ele><time>2026-04-05T15:20:48Z</time></trkpt><trkpt lat="42.82358611476088" lon="13.555684967202435"><ele>374.6666666666667</ele><time>2026-04-05T15:20:49Z</time></trkpt><trkpt lat="42.82374259984521" lon="13.555658468362415"><ele>375.0</ele><time>2026-04-05T15:20:50Z</time></trkpt><trkpt lat="42.82389925023459" lon="13.55561709517585"><ele>375.0</ele><time>2026-04-05T15:20:51Z</time></trkpt><trkpt lat="42.82404965723411" lon="13.555561368099731"><ele>375.0</ele><time>2026-04-05T15:20:52Z</time></trkpt><trkpt lat="42.82419072395468" lon="13.555497238016244"><ele>375.0</ele><time>2026-04-05T15:20:53Z</time></trkpt><trkpt lat="42.82432482291678" lon="13.55543460512743"><ele>375.0</ele><time>2026-04-05T15:20:54Z</time></trkpt><trkpt lat="42.824453312806035" lon="13.555375299047771"><ele>371.25</ele><time>2026-04-05T15:20:55Z</time></trkpt><trkpt lat="42.82457903039229" lon="13.55531376614197"><ele>367.5</ele><time>2026-04-05T15:20:56Z</time></trkpt><trkpt lat="42.824706434157285" lon="13.555255049200538"><ele>363.75</ele><time>2026-04-05T15:20:57Z</time></trkpt><trkpt lat="42.82483266439786" lon="13.5552139981525"><ele>360.0</ele><time>2026-04-05T15:20:58Z</time></trkpt><trkpt lat="42.82496373229081" lon="13.555199210245938"><ele>360.0</ele><time>2026-04-05T15:20:59Z</time></trkpt><trkpt lat="42.82509674465167" lon="13.555212610609924"><ele>360.0</ele><time>2026-04-05T15:21:00Z</time></trkpt><trkpt lat="42.82522760283797" lon="13.5552517220917"><ele>360.0</ele><time>2026-04-05T15:21:01Z</time></trkpt><trkpt lat="42.82534689119074" lon="13.55530982673271"><ele>360.0</ele><time>2026-04-05T15:21:02Z</time></trkpt><trkpt lat="42.825459200738514" lon="13.555395115310123"><ele>361.75</ele><time>2026-04-05T15:21:03Z</time></trkpt><trkpt lat="42.82556519347664" lon="13.555501544289509"><ele>363.5</ele><time>2026-04-05T15:21:04Z</time></trkpt><trkpt lat="42.825666200156846" lon="13.555612248675763"><ele>365.25</ele><time>2026-04-05T15:21:05Z</time></trkpt><trkpt lat="42.82576578957278" lon="13.555717576210586"><ele>367.0</ele><time>2026-04-05T15:21:06Z</time></trkpt><trkpt lat="42.825861269340656" lon="13.55581809789148"><ele>367.0</ele><time>2026-04-05T15:21:07Z</time></trkpt><trkpt lat="42.82595727102827" lon="13.555910096754555"><ele>367.0</ele><time>2026-04-05T15:21:08Z</time></trkpt><trkpt lat="42.8260407601365" lon="13.555979763455955"><ele>367.0</ele><time>2026-04-05T15:21:09Z</time></trkpt><trkpt lat="42.82611652621017" lon="13.556018675019327"><ele>367.0</ele><time>2026-04-05T15:21:10Z</time></trkpt><trkpt lat="42.82620221020727" lon="13.556008512249033"><ele>367.0</ele><time>2026-04-05T15:21:11Z</time></trkpt><trkpt lat="42.8262828684421" lon="13.555949126146265"><ele>365.0</ele><time>2026-04-05T15:21:12Z</time></trkpt><trkpt lat="42.82637001687422" lon="13.555878903871688"><ele>363.0</ele><time>2026-04-05T15:21:13Z</time></trkpt><trkpt lat="42.826462997008036" lon="13.555838680480997"><ele>361.0</ele><time>2026-04-05T15:21:14Z</time></trkpt><trkpt lat="42.82656057921307" lon="13.555840245466287"><ele>359.0</ele><time>2026-04-05T15:21:15Z</time></trkpt><trkpt lat="42.82665947636055" lon="13.555885924858075"><ele>357.0</ele><time>2026-04-05T15:21:16Z</time></trkpt><trkpt lat="42.82675991758427" lon="13.55593962046783"><ele>357.8</ele><time>2026-04-05T15:21:17Z</time></trkpt><trkpt lat="42.82684631618239" lon="13.555985234690239"><ele>358.6</ele><time>2026-04-05T15:21:18Z</time></trkpt><trkpt lat="42.82697744309386" lon="13.555956276119366"><ele>359.40000000000003</ele><time>2026-04-05T15:21:19Z</time></trkpt><trkpt lat="42.82707839013271" lon="13.55591798444386"><ele>360.20000000000005</ele><time>2026-04-05T15:21:20Z</time></trkpt><trkpt lat="42.82716963917588" lon="13.555819772886835"><ele>361.0</ele><time>2026-04-05T15:21:21Z</time></trkpt><trkpt lat="42.827248482270704" lon="13.555685461515779"><ele>361.0</ele><time>2026-04-05T15:21:22Z</time></trkpt><trkpt lat="42.82731930667448" lon="13.555544086564103"><ele>361.0</ele><time>2026-04-05T15:21:23Z</time></trkpt><trkpt lat="42.82739108139139" lon="13.555415244712103"><ele>361.0</ele><time>2026-04-05T15:21:24Z</time></trkpt><trkpt lat="42.82745684120155" lon="13.555296555272012"><ele>361.0</ele><time>2026-04-05T15:21:25Z</time></trkpt><trkpt lat="42.82752598393395" lon="13.555187006712233"><ele>359.8</ele><time>2026-04-05T15:21:26Z</time></trkpt><trkpt lat="42.82759446046295" lon="13.555096659337517"><ele>358.6</ele><time>2026-04-05T15:21:27Z</time></trkpt><trkpt lat="42.82767967070063" lon="13.555025742676353"><ele>357.4</ele><time>2026-04-05T15:21:28Z</time></trkpt><trkpt lat="42.827780565613" lon="13.554981404672347"><ele>356.2</ele><time>2026-04-05T15:21:29Z</time></trkpt><trkpt lat="42.82788559038941" lon="13.554936193982055"><ele>355.0</ele><time>2026-04-05T15:21:30Z</time></trkpt><trkpt lat="42.8279906968194" lon="13.554888432012671"><ele>355.0</ele><time>2026-04-05T15:21:31Z</time></trkpt><trkpt lat="42.82808885591733" lon="13.554846487233172"><ele>355.0</ele><time>2026-04-05T15:21:32Z</time></trkpt><trkpt lat="42.82818828864767" lon="13.554807147196886"><ele>355.0</ele><time>2026-04-05T15:21:33Z</time></trkpt><trkpt lat="42.82828640060627" lon="13.554738394131693"><ele>355.0</ele><time>2026-04-05T15:21:34Z</time></trkpt><trkpt lat="42.82839278271431" lon="13.554674743258627"><ele>355.0</ele><time>2026-04-05T15:21:35Z</time></trkpt><trkpt lat="42.828492649040854" lon="13.554645899729003"><ele>353.75</ele><time>2026-04-05T15:21:36Z</time></trkpt><trkpt lat="42.82858988227113" lon="13.554651692078895"><ele>352.5</ele><time>2026-04-05T15:21:37Z</time></trkpt><trkpt lat="42.82870369054777" lon="13.554687415279638"><ele>351.25</ele><time>2026-04-05T15:21:38Z</time></trkpt><trkpt lat="42.828828920882884" lon="13.554734695051398"><ele>350.0</ele><time>2026-04-05T15:21:39Z</time></trkpt><trkpt lat="42.828950205618355" lon="13.55475830211324"><ele>350.0</ele><time>2026-04-05T15:21:40Z</time></trkpt><trkpt lat="42.82906617708061" lon="13.554780134251303"><ele>350.0</ele><time>2026-04-05T15:21:41Z</time></trkpt><trkpt lat="42.82917477598171" lon="13.554819145652319"><ele>350.0</ele><time>2026-04-05T15:21:42Z</time></trkpt><trkpt lat="42.82927151332921" lon="13.554894258524259"><ele>350.0</ele><time>2026-04-05T15:21:43Z</time></trkpt><trkpt lat="42.82937328940279" lon="13.554987542353508"><ele>351.75</ele><time>2026-04-05T15:21:44Z</time></trkpt><trkpt lat="42.82947989421086" lon="13.555103553681114"><ele>353.5</ele><time>2026-04-05T15:21:45Z</time></trkpt><trkpt lat="42.829590953317435" lon="13.555224229950122"><ele>355.25</ele><time>2026-04-05T15:21:46Z</time></trkpt><trkpt lat="42.82970670786062" lon="13.555328267768981"><ele>357.0</ele><time>2026-04-05T15:21:47Z</time></trkpt><trkpt lat="42.82981708691606" lon="13.555419486029756"><ele>357.0</ele><time>2026-04-05T15:21:48Z</time></trkpt><trkpt lat="42.82993756847103" lon="13.555494444549593"><ele>357.0</ele><time>2026-04-05T15:21:49Z</time></trkpt><trkpt lat="42.83007245266056" lon="13.555552327974926"><ele>357.0</ele><time>2026-04-05T15:21:50Z</time></trkpt><trkpt lat="42.83022068977451" lon="13.555587778957147"><ele>357.0</ele><time>2026-04-05T15:21:51Z</time></trkpt><trkpt lat="42.830377401614726" lon="13.555621310635154"><ele>352.0</ele><time>2026-04-05T15:21:52Z</time></trkpt><trkpt lat="42.83053877693154" lon="13.555652462028998"><ele>347.0</ele><time>2026-04-05T15:21:53Z</time></trkpt><trkpt lat="42.83069727064835" lon="13.555686181513256"><ele>342.0</ele><time>2026-04-05T15:21:54Z</time></trkpt><trkpt lat="42.83084544486229" lon="13.555738542349054"><ele>339.5</ele><time>2026-04-05T15:21:55Z</time></trkpt><trkpt lat="42.83097758077436" lon="13.555808374745174"><ele>337.0</ele><time>2026-04-05T15:21:56Z</time></trkpt><trkpt lat="42.83109308871707" lon="13.555883164019232"><ele>334.5</ele><time>2026-04-05T15:21:57Z</time></trkpt><trkpt lat="42.831197210878706" lon="13.55596336067319"><ele>332.0</ele><time>2026-04-05T15:21:58Z</time></trkpt><trkpt lat="42.83130140044492" lon="13.556046254408228"><ele>332.0</ele><time>2026-04-05T15:21:59Z</time></trkpt><trkpt lat="42.83141411685018" lon="13.556120053017226"><ele>332.0</ele><time>2026-04-05T15:22:00Z</time></trkpt><trkpt lat="42.83153378738011" lon="13.556168078214172"><ele>332.0</ele><time>2026-04-05T15:22:01Z</time></trkpt><trkpt lat="42.83165527365245" lon="13.556194689296412"><ele>332.0</ele><time>2026-04-05T15:22:02Z</time></trkpt><trkpt lat="42.831769367672905" lon="13.55621447461162"><ele>334.40000000000003</ele><time>2026-04-05T15:22:03Z</time></trkpt><trkpt lat="42.83187869024541" lon="13.55623265934982"><ele>336.8</ele><time>2026-04-05T15:22:04Z</time></trkpt><trkpt lat="42.83198328746588" lon="13.556242343584243"><ele>339.2</ele><time>2026-04-05T15:22:05Z</time></trkpt><trkpt lat="42.8320873164419" lon="13.556242408170679"><ele>341.6</ele><time>2026-04-05T15:22:06Z</time></trkpt><trkpt lat="42.83218873609019" lon="13.556252035050221"><ele>344.0</ele><time>2026-04-05T15:22:07Z</time></trkpt><trkpt lat="42.832284253589094" lon="13.556280900031368"><ele>344.0</ele><time>2026-04-05T15:22:08Z</time></trkpt><trkpt lat="42.83238746979082" lon="13.556337173516734"><ele>344.0</ele><time>2026-04-05T15:22:09Z</time></trkpt><trkpt lat="42.83249944665568" lon="13.55642851201506"><ele>344.0</ele><time>2026-04-05T15:22:10Z</time></trkpt><trkpt lat="42.83261603814481" lon="13.55652777797237"><ele>344.0</ele><time>2026-04-05T15:22:11Z</time></trkpt><trkpt lat="42.8327349930063" lon="13.556626761983178"><ele>341.5</ele><time>2026-04-05T15:22:12Z</time></trkpt><trkpt lat="42.83285058464304" lon="13.556718974922429"><ele>339.0</ele><time>2026-04-05T15:22:13Z</time></trkpt><trkpt lat="42.83296050456543" lon="13.55679882344685"><ele>336.5</ele><time>2026-04-05T15:22:14Z</time></trkpt><trkpt lat="42.83307791405106" lon="13.55686139981179"><ele>334.0</ele><time>2026-04-05T15:22:15Z</time></trkpt><trkpt lat="42.833200795259096" lon="13.55691139845963"><ele>334.0</ele><time>2026-04-05T15:22:16Z</time></trkpt><trkpt lat="42.83332166869014" lon="13.556942721696904"><ele>334.0</ele><time>2026-04-05T15:22:17Z</time></trkpt><trkpt lat="42.83344492171306" lon="13.556959441780895"><ele>334.0</ele><time>2026-04-05T15:22:18Z</time></trkpt><trkpt lat="42.833566634656925" lon="13.556954580867357"><ele>334.0</ele><time>2026-04-05T15:22:19Z</time></trkpt><trkpt lat="42.833685266638085" lon="13.556934758446056"><ele>334.25</ele><time>2026-04-05T15:22:20Z</time></trkpt><trkpt lat="42.83380402031462" lon="13.556910987010385"><ele>334.5</ele><time>2026-04-05T15:22:21Z</time></trkpt><trkpt lat="42.833921085360004" lon="13.556891257440766"><ele>334.75</ele><time>2026-04-05T15:22:22Z</time></trkpt><trkpt lat="42.83403828810447" lon="13.556881577078439"><ele>335.0</ele><time>2026-04-05T15:22:23Z</time></trkpt><trkpt lat="42.83415806932146" lon="13.55689422672602"><ele>335.0</ele><time>2026-04-05T15:22:24Z</time></trkpt><trkpt lat="42.83427998022292" lon="13.556921797217488"><ele>335.0</ele><time>2026-04-05T15:22:25Z</time></trkpt><trkpt lat="42.834393449240785" lon="13.55695650660114"><ele>335.0</ele><time>2026-04-05T15:22:26Z</time></trkpt><trkpt lat="42.83449810549039" lon="13.55697845973179"><ele>335.0</ele><time>2026-04-05T15:22:27Z</time></trkpt><trkpt lat="42.83460860146565" lon="13.556998744600598"><ele>335.25</ele><time>2026-04-05T15:22:28Z</time></trkpt><trkpt lat="42.834727717465505" lon="13.556977950507282"><ele>335.5</ele><time>2026-04-05T15:22:29Z</time></trkpt><trkpt lat="42.834842895005835" lon="13.556961830706728"><ele>335.75</ele><time>2026-04-05T15:22:30Z</time></trkpt><trkpt lat="42.83496622698229" lon="13.55694757282046"><ele>336.0</ele><time>2026-04-05T15:22:31Z</time></trkpt><trkpt lat="42.835101619772125" lon="13.556924183945736"><ele>334.25</ele><time>2026-04-05T15:22:32Z</time></trkpt><trkpt lat="42.83523885574933" lon="13.556900031584899"><ele>332.5</ele><time>2026-04-05T15:22:33Z</time></trkpt><trkpt lat="42.83537344722871" lon="13.556869239941687"><ele>330.75</ele><time>2026-04-05T15:22:34Z</time></trkpt><trkpt lat="42.83550716627603" lon="13.556829540518924"><ele>329.0</ele><time>2026-04-05T15:22:35Z</time></trkpt><trkpt lat="42.83563691374337" lon="13.556786618319148"><ele>329.0</ele><time>2026-04-05T15:22:36Z</time></trkpt><trkpt lat="42.83576798686162" lon="13.556747560327853"><ele>329.0</ele><time>2026-04-05T15:22:37Z</time></trkpt><trkpt lat="42.835902411542456" lon="13.556710818243038"><ele>329.0</ele><time>2026-04-05T15:22:38Z</time></trkpt><trkpt lat="42.83603989813084" lon="13.55667872469318"><ele>329.0</ele><time>2026-04-05T15:22:39Z</time></trkpt><trkpt lat="42.83617200249237" lon="13.55663961070743"><ele>330.25</ele><time>2026-04-05T15:22:40Z</time></trkpt><trkpt lat="42.83629543531521" lon="13.556593085293363"><ele>331.5</ele><time>2026-04-05T15:22:41Z</time></trkpt><trkpt lat="42.83641398912004" lon="13.556527411964534"><ele>332.75</ele><time>2026-04-05T15:22:42Z</time></trkpt><trkpt lat="42.83653411010248" lon="13.556442219432846"><ele>334.0</ele><time>2026-04-05T15:22:43Z</time></trkpt><trkpt lat="42.83664931720054" lon="13.55633305013199"><ele>334.0</ele><time>2026-04-05T15:22:44Z</time></trkpt><trkpt lat="42.83675989589755" lon="13.556211463083367"><ele>334.0</ele><time>2026-04-05T15:22:45Z</time></trkpt><trkpt lat="42.836877638819104" lon="13.556102889748674"><ele>334.0</ele><time>2026-04-05T15:22:46Z</time></trkpt><trkpt lat="42.837005124769064" lon="13.556015984923764"><ele>334.0</ele><time>2026-04-05T15:22:47Z</time></trkpt><trkpt lat="42.83715080315239" lon="13.555949759401118"><ele>327.3333333333333</ele><time>2026-04-05T15:22:48Z</time></trkpt><trkpt lat="42.83731680834841" lon="13.555905353451978"><ele>320.6666666666667</ele><time>2026-04-05T15:22:49Z</time></trkpt><trkpt lat="42.83747111640754" lon="13.555822222126018"><ele>314.0</ele><time>2026-04-05T15:22:50Z</time></trkpt><trkpt lat="42.83762067216763" lon="13.555718824722446"><ele>316.0</ele><time>2026-04-05T15:22:51Z</time></trkpt><trkpt lat="42.83775112945032" lon="13.555619824766852"><ele>318.0</ele><time>2026-04-05T15:22:52Z</time></trkpt><trkpt lat="42.83787308711211" lon="13.555533069899521"><ele>320.0</ele><time>2026-04-05T15:22:53Z</time></trkpt><trkpt lat="42.837984915044274" lon="13.555455262064324"><ele>322.0</ele><time>2026-04-05T15:22:54Z</time></trkpt><trkpt lat="42.83809548035409" lon="13.555389538111644"><ele>322.0</ele><time>2026-04-05T15:22:55Z</time></trkpt><trkpt lat="42.8382099946612" lon="13.555357992734894"><ele>322.0</ele><time>2026-04-05T15:22:56Z</time></trkpt><trkpt lat="42.83833797851998" lon="13.55537273419033"><ele>322.0</ele><time>2026-04-05T15:22:57Z</time></trkpt><trkpt lat="42.8384772464586" lon="13.555412148657917"><ele>322.0</ele><time>2026-04-05T15:22:58Z</time></trkpt><trkpt lat="42.838620625955116" lon="13.555454305065746"><ele>317.75</ele><time>2026-04-05T15:22:59Z</time></trkpt><trkpt lat="42.83876584293297" lon="13.555471922955455"><ele>313.5</ele><time>2026-04-05T15:23:00Z</time></trkpt><trkpt lat="42.838906761745356" lon="13.555472924027828"><ele>309.25</ele><time>2026-04-05T15:23:01Z</time></trkpt><trkpt lat="42.839041252081834" lon="13.55548550630855"><ele>305.0</ele><time>2026-04-05T15:23:02Z</time></trkpt><trkpt lat="42.83916961027039" lon="13.555522228449911"><ele>305.0</ele><time>2026-04-05T15:23:03Z</time></trkpt><trkpt lat="42.839289144207946" lon="13.55557358915686"><ele>305.0</ele><time>2026-04-05T15:23:04Z</time></trkpt><trkpt lat="42.83939235365772" lon="13.555627936808314"><ele>305.0</ele><time>2026-04-05T15:23:05Z</time></trkpt><trkpt lat="42.83947089558716" lon="13.55568908586664"><ele>305.0</ele><time>2026-04-05T15:23:06Z</time></trkpt><trkpt lat="42.83952840030248" lon="13.555778495710943"><ele>305.0</ele><time>2026-04-05T15:23:07Z</time></trkpt><trkpt lat="42.839577183238596" lon="13.55589667306175"><ele>301.25</ele><time>2026-04-05T15:23:08Z</time></trkpt><trkpt lat="42.83963117108184" lon="13.556037817682489"><ele>297.5</ele><time>2026-04-05T15:23:09Z</time></trkpt><trkpt lat="42.83970985338686" lon="13.55620438033758"><ele>293.75</ele><time>2026-04-05T15:23:10Z</time></trkpt><trkpt lat="42.839809639081516" lon="13.556403441570469"><ele>290.0</ele><time>2026-04-05T15:23:11Z</time></trkpt><trkpt lat="42.839908607369885" lon="13.556613853989795"><ele>290.0</ele><time>2026-04-05T15:23:12Z</time></trkpt><trkpt lat="42.83998598286507" lon="13.556818569709682"><ele>290.0</ele><time>2026-04-05T15:23:13Z</time></trkpt><trkpt lat="42.84005082042897" lon="13.55699566644829"><ele>290.0</ele><time>2026-04-05T15:23:14Z</time></trkpt><trkpt lat="42.84012344375643" lon="13.557143572235862"><ele>290.0</ele><time>2026-04-05T15:23:15Z</time></trkpt><trkpt lat="42.84022659079974" lon="13.557272748849444"><ele>288.33333333333337</ele><time>2026-04-05T15:23:16Z</time></trkpt><trkpt lat="42.84035399057978" lon="13.557379410207242"><ele>286.6666666666667</ele><time>2026-04-05T15:23:17Z</time></trkpt><trkpt lat="42.84049705530859" lon="13.557463112228483"><ele>285.0</ele><time>2026-04-05T15:23:18Z</time></trkpt><trkpt lat="42.84065991810881" lon="13.557518675319429"><ele>285.0</ele><time>2026-04-05T15:23:19Z</time></trkpt><trkpt lat="42.840828089519704" lon="13.557552182790024"><ele>285.0</ele><time>2026-04-05T15:23:20Z</time></trkpt><trkpt lat="42.84099501206002" lon="13.557573115469983"><ele>285.0</ele><time>2026-04-05T15:23:21Z</time></trkpt><trkpt lat="42.84114679130045" lon="13.557605723992577"><ele>282.25</ele><time>2026-04-05T15:23:22Z</time></trkpt><trkpt lat="42.84128916020574" lon="13.557643622925294"><ele>279.5</ele><time>2026-04-05T15:23:23Z</time></trkpt><trkpt lat="42.841417054465275" lon="13.557682282524386"><ele>276.75</ele><time>2026-04-05T15:23:24Z</time></trkpt><trkpt lat="42.84152878215787" lon="13.557716404709874"><ele>274.0</ele><time>2026-04-05T15:23:25Z</time></trkpt><trkpt lat="42.84162344948643" lon="13.557754821017873"><ele>274.0</ele><time>2026-04-05T15:23:26Z</time></trkpt><trkpt lat="42.84170441070046" lon="13.55777958792933"><ele>274.0</ele><time>2026-04-05T15:23:27Z</time></trkpt><trkpt lat="42.84181031512264" lon="13.557777412282867"><ele>274.0</ele><time>2026-04-05T15:23:29Z</time></trkpt><trkpt lat="42.84184637712515" lon="13.557703780140645"><ele>274.0</ele><time>2026-04-05T15:23:30Z</time></trkpt><trkpt lat="42.84184911672409" lon="13.5576114720965"><ele>274.0</ele><time>2026-04-05T15:23:31Z</time></trkpt><trkpt lat="42.841796744986134" lon="13.557522666977947"><ele>274.0</ele><time>2026-04-05T15:23:32Z</time></trkpt><trkpt lat="42.84170297606137" lon="13.557466591122873"><ele>274.0</ele><time>2026-04-05T15:23:33Z</time></trkpt><trkpt lat="42.84159660719961" lon="13.55743711162841"><ele>274.0</ele><time>2026-04-05T15:23:34Z</time></trkpt><trkpt lat="42.8414854189961" lon="13.557413658013848"><ele>274.0</ele><time>2026-04-05T15:23:35Z</time></trkpt><trkpt lat="42.84137865542582" lon="13.55737451793988"><ele>274.0</ele><time>2026-04-05T15:23:36Z</time></trkpt><trkpt lat="42.84127771656056" lon="13.557329735943132"><ele>274.0</ele><time>2026-04-05T15:23:37Z</time></trkpt><trkpt lat="42.841189036342946" lon="13.55724914051873"><ele>274.0</ele><time>2026-04-05T15:23:38Z</time></trkpt><trkpt lat="42.84109225136348" lon="13.557152991968547"><ele>274.0</ele><time>2026-04-05T15:23:39Z</time></trkpt><trkpt lat="42.84101408763958" lon="13.557047436490622"><ele>274.0</ele><time>2026-04-05T15:23:40Z</time></trkpt><trkpt lat="42.84093687377118" lon="13.556948435361882"><ele>274.0</ele><time>2026-04-05T15:23:41Z</time></trkpt><trkpt lat="42.84085556901946" lon="13.556856878184"><ele>274.0</ele><time>2026-04-05T15:23:42Z</time></trkpt><trkpt lat="42.84077494530518" lon="13.556766663035381"><ele>272.8</ele><time>2026-04-05T15:23:43Z</time></trkpt><trkpt lat="42.84070020936504" lon="13.556680204914734"><ele>271.59999999999997</ele><time>2026-04-05T15:23:44Z</time></trkpt><trkpt lat="42.840634947382064" lon="13.55660256455185"><ele>270.4</ele><time>2026-04-05T15:23:45Z</time></trkpt><trkpt lat="42.84058520010705" lon="13.556528611941232"><ele>269.2</ele><time>2026-04-05T15:23:46Z</time></trkpt><trkpt lat="42.84057574503752" lon="13.556380139683228"><ele>268.0</ele><time>2026-04-05T15:23:48Z</time></trkpt><trkpt lat="42.84067664968069" lon="13.556270004156707"><ele>268.0</ele><time>2026-04-05T15:23:50Z</time></trkpt><trkpt lat="42.84076377841718" lon="13.556276510490022"><ele>268.0</ele><time>2026-04-05T15:23:51Z</time></trkpt><trkpt lat="42.840849296071326" lon="13.556377617890949"><ele>268.0</ele><time>2026-04-05T15:23:52Z</time></trkpt><trkpt lat="42.840953576715776" lon="13.556466366899215"><ele>268.0</ele><time>2026-04-05T15:23:53Z</time></trkpt><trkpt lat="42.84107760791067" lon="13.556556630774969"><ele>263.75</ele><time>2026-04-05T15:23:54Z</time></trkpt><trkpt lat="42.84118692151208" lon="13.556662023933143"><ele>259.5</ele><time>2026-04-05T15:23:55Z</time></trkpt><trkpt lat="42.841286844950446" lon="13.556758806198076"><ele>255.25</ele><time>2026-04-05T15:23:56Z</time></trkpt><trkpt lat="42.84137820824075" lon="13.556853151785424"><ele>251.0</ele><time>2026-04-05T15:23:57Z</time></trkpt><trkpt lat="42.84146745546461" lon="13.556938764146642"><ele>251.0</ele><time>2026-04-05T15:23:58Z</time></trkpt><trkpt lat="42.841561890894894" lon="13.557010338183671"><ele>251.0</ele><time>2026-04-05T15:23:59Z</time></trkpt><trkpt lat="42.841678037461726" lon="13.55707504882091"><ele>251.0</ele><time>2026-04-05T15:24:00Z</time></trkpt><trkpt lat="42.84180796920094" lon="13.557079005459839"><ele>251.0</ele><time>2026-04-05T15:24:01Z</time></trkpt><trkpt lat="42.84192510477123" lon="13.557119678266139"><ele>250.25</ele><time>2026-04-05T15:24:02Z</time></trkpt><trkpt lat="42.8420236765271" lon="13.557139770546016"><ele>249.5</ele><time>2026-04-05T15:24:03Z</time></trkpt><trkpt lat="42.84210973888194" lon="13.557212315910363"><ele>248.75</ele><time>2026-04-05T15:24:04Z</time></trkpt><trkpt lat="42.842189205247855" lon="13.557326413900265"><ele>248.0</ele><time>2026-04-05T15:24:05Z</time></trkpt><trkpt lat="42.842280452659075" lon="13.557474531911986"><ele>248.0</ele><time>2026-04-05T15:24:06Z</time></trkpt><trkpt lat="42.84238282325695" lon="13.55763062391672"><ele>248.0</ele><time>2026-04-05T15:24:07Z</time></trkpt><trkpt lat="42.84248213843501" lon="13.557785410461294"><ele>248.0</ele><time>2026-04-05T15:24:08Z</time></trkpt><trkpt lat="42.84257408366035" lon="13.557931308727555"><ele>248.0</ele><time>2026-04-05T15:24:09Z</time></trkpt><trkpt lat="42.8426543513141" lon="13.558056055576694"><ele>246.0</ele><time>2026-04-05T15:24:10Z</time></trkpt><trkpt lat="42.842732672832334" lon="13.558154382255593"><ele>244.0</ele><time>2026-04-05T15:24:11Z</time></trkpt><trkpt lat="42.84283746383202" lon="13.558217938256062"><ele>242.0</ele><time>2026-04-05T15:24:12Z</time></trkpt><trkpt lat="42.84297313029518" lon="13.558258956742609"><ele>240.0</ele><time>2026-04-05T15:24:13Z</time></trkpt><trkpt lat="42.84311799960949" lon="13.558285581287253"><ele>240.0</ele><time>2026-04-05T15:24:14Z</time></trkpt><trkpt lat="42.84324842507751" lon="13.558314710193395"><ele>240.0</ele><time>2026-04-05T15:24:15Z</time></trkpt><trkpt lat="42.84336539308709" lon="13.558363842116156"><ele>240.0</ele><time>2026-04-05T15:24:16Z</time></trkpt><trkpt lat="42.843465402558486" lon="13.558455823798104"><ele>240.0</ele><time>2026-04-05T15:24:17Z</time></trkpt><trkpt lat="42.84356743994401" lon="13.558588726911106"><ele>235.75</ele><time>2026-04-05T15:24:18Z</time></trkpt><trkpt lat="42.84366266024022" lon="13.558719325644066"><ele>231.5</ele><time>2026-04-05T15:24:19Z</time></trkpt><trkpt lat="42.84374512847379" lon="13.558847958230102"><ele>227.25</ele><time>2026-04-05T15:24:20Z</time></trkpt><trkpt lat="42.84381006646365" lon="13.559000204178567"><ele>223.0</ele><time>2026-04-05T15:24:21Z</time></trkpt><trkpt lat="42.84385496335692" lon="13.559183067911983"><ele>223.0</ele><time>2026-04-05T15:24:22Z</time></trkpt><trkpt lat="42.84388806135719" lon="13.559391514180001"><ele>223.0</ele><time>2026-04-05T15:24:23Z</time></trkpt><trkpt lat="42.843923373480756" lon="13.559598682894972"><ele>223.0</ele><time>2026-04-05T15:24:24Z</time></trkpt><trkpt lat="42.8439596818016" lon="13.559788054689216"><ele>224.0</ele><time>2026-04-05T15:24:25Z</time></trkpt><trkpt lat="42.84398547819566" lon="13.559961316301186"><ele>225.0</ele><time>2026-04-05T15:24:26Z</time></trkpt><trkpt lat="42.843995300199346" lon="13.560134057436803"><ele>226.0</ele><time>2026-04-05T15:24:27Z</time></trkpt><trkpt lat="42.84397467497759" lon="13.560299813531003"><ele>227.0</ele><time>2026-04-05T15:24:28Z</time></trkpt><trkpt lat="42.843952952821205" lon="13.560459728325375"><ele>227.25</ele><time>2026-04-05T15:24:29Z</time></trkpt><trkpt lat="42.84395730087824" lon="13.560621314792712"><ele>227.5</ele><time>2026-04-05T15:24:30Z</time></trkpt><trkpt lat="42.84399627644525" lon="13.560745567616957"><ele>227.75</ele><time>2026-04-05T15:24:31Z</time></trkpt><trkpt lat="42.84407005733497" lon="13.560880443976552"><ele>228.0</ele><time>2026-04-05T15:24:32Z</time></trkpt><trkpt lat="42.844169530868136" lon="13.561027234614752"><ele>228.0</ele><time>2026-04-05T15:24:33Z</time></trkpt><trkpt lat="42.844280454460375" lon="13.561196137784789"><ele>228.0</ele><time>2026-04-05T15:24:34Z</time></trkpt><trkpt lat="42.84438862061341" lon="13.561380862476843"><ele>228.0</ele><time>2026-04-05T15:24:35Z</time></trkpt><trkpt lat="42.844487046069055" lon="13.561556099980084"><ele>226.25</ele><time>2026-04-05T15:24:36Z</time></trkpt><trkpt lat="42.84458254443634" lon="13.56171602151833"><ele>224.5</ele><time>2026-04-05T15:24:37Z</time></trkpt><trkpt lat="42.84468146265727" lon="13.56185095526973"><ele>222.75</ele><time>2026-04-05T15:24:38Z</time></trkpt><trkpt lat="42.84479490746022" lon="13.56195752707625"><ele>221.0</ele><time>2026-04-05T15:24:39Z</time></trkpt><trkpt lat="42.84490946118446" lon="13.562060273928195"><ele>221.0</ele><time>2026-04-05T15:24:40Z</time></trkpt><trkpt lat="42.84503805069712" lon="13.562142693409069"><ele>221.0</ele><time>2026-04-05T15:24:41Z</time></trkpt><trkpt lat="42.84516229070207" lon="13.562217230309665"><ele>221.0</ele><time>2026-04-05T15:24:42Z</time></trkpt><trkpt lat="42.84526147412299" lon="13.5623408634024"><ele>221.0</ele><time>2026-04-05T15:24:43Z</time></trkpt><trkpt lat="42.845356214322685" lon="13.56249583029037"><ele>216.66666666666669</ele><time>2026-04-05T15:24:44Z</time></trkpt><trkpt lat="42.84543640605297" lon="13.562690773188509"><ele>212.33333333333331</ele><time>2026-04-05T15:24:45Z</time></trkpt><trkpt lat="42.845525182352134" lon="13.562894479071907"><ele>208.0</ele><time>2026-04-05T15:24:46Z</time></trkpt><trkpt lat="42.84563155127231" lon="13.563086668839832"><ele>208.0</ele><time>2026-04-05T15:24:47Z</time></trkpt><trkpt lat="42.84574064419494" lon="13.563270936807267"><ele>208.0</ele><time>2026-04-05T15:24:48Z</time></trkpt><trkpt lat="42.84584463924357" lon="13.563438999285642"><ele>208.0</ele><time>2026-04-05T15:24:49Z</time></trkpt><trkpt lat="42.84594779215574" lon="13.56359279623871"><ele>204.0</ele><time>2026-04-05T15:24:50Z</time></trkpt><trkpt lat="42.846050880462286" lon="13.563737207539512"><ele>200.0</ele><time>2026-04-05T15:24:51Z</time></trkpt><trkpt lat="42.8461399700217" lon="13.563848644608829"><ele>196.0</ele><time>2026-04-05T15:24:52Z</time></trkpt><trkpt lat="42.84619528800306" lon="13.563993826074087"><ele>192.0</ele><time>2026-04-05T15:24:53Z</time></trkpt><trkpt lat="42.846243013878556" lon="13.564134144668397"><ele>192.0</ele><time>2026-04-05T15:24:54Z</time></trkpt><trkpt lat="42.8462672431012" lon="13.564273520050353"><ele>192.0</ele><time>2026-04-05T15:24:55Z</time></trkpt><trkpt lat="42.8462719085759" lon="13.564410831077081"><ele>192.0</ele><time>2026-04-05T15:24:56Z</time></trkpt><trkpt lat="42.846229794825916" lon="13.564542014661821"><ele>192.0</ele><time>2026-04-05T15:24:57Z</time></trkpt><trkpt lat="42.84615926871916" lon="13.564657012021195"><ele>192.0</ele><time>2026-04-05T15:24:58Z</time></trkpt><trkpt lat="42.84607684018031" lon="13.56479182068361"><ele>190.0</ele><time>2026-04-05T15:24:59Z</time></trkpt><trkpt lat="42.84602184515267" lon="13.564948723752977"><ele>188.0</ele><time>2026-04-05T15:25:00Z</time></trkpt><trkpt lat="42.845973911299" lon="13.565111793433166"><ele>186.0</ele><time>2026-04-05T15:25:01Z</time></trkpt><trkpt lat="42.84595324735072" lon="13.565261510447954"><ele>184.0</ele><time>2026-04-05T15:25:02Z</time></trkpt><trkpt lat="42.84594152054045" lon="13.565405837550117"><ele>182.0</ele><time>2026-04-05T15:25:03Z</time></trkpt><trkpt lat="42.84596266603794" lon="13.56554660983448"><ele>180.0</ele><time>2026-04-05T15:25:04Z</time></trkpt><trkpt lat="42.8460044373681" lon="13.56568979708049"><ele>178.0</ele><time>2026-04-05T15:25:05Z</time></trkpt><trkpt lat="42.84605525929053" lon="13.565858454561367"><ele>176.0</ele><time>2026-04-05T15:25:06Z</time></trkpt><trkpt lat="42.846106367421335" lon="13.566058357785597"><ele>176.25</ele><time>2026-04-05T15:25:07Z</time></trkpt><trkpt lat="42.84616315090143" lon="13.566254405944399"><ele>176.5</ele><time>2026-04-05T15:25:08Z</time></trkpt><trkpt lat="42.846224655675286" lon="13.56643984770029"><ele>176.75</ele><time>2026-04-05T15:25:09Z</time></trkpt><trkpt lat="42.846286140235904" lon="13.566610729126873"><ele>177.0</ele><time>2026-04-05T15:25:10Z</time></trkpt><trkpt lat="42.846354723984945" lon="13.566772823144285"><ele>177.0</ele><time>2026-04-05T15:25:11Z</time></trkpt><trkpt lat="42.84640941921472" lon="13.56693232882954"><ele>177.0</ele><time>2026-04-05T15:25:12Z</time></trkpt><trkpt lat="42.84645625751646" lon="13.567088642717104"><ele>177.0</ele><time>2026-04-05T15:25:13Z</time></trkpt><trkpt lat="42.84650339775914" lon="13.567235620219508"><ele>177.0</ele><time>2026-04-05T15:25:14Z</time></trkpt><trkpt lat="42.846552871411056" lon="13.56738895861116"><ele>178.2</ele><time>2026-04-05T15:25:15Z</time></trkpt><trkpt lat="42.84659030341878" lon="13.567534887560905"><ele>179.39999999999998</ele><time>2026-04-05T15:25:16Z</time></trkpt><trkpt lat="42.84660512532635" lon="13.567681609305366"><ele>180.60000000000002</ele><time>2026-04-05T15:25:17Z</time></trkpt><trkpt lat="42.84660481488753" lon="13.567817264664294"><ele>181.8</ele><time>2026-04-05T15:25:18Z</time></trkpt><trkpt lat="42.846633950094635" lon="13.567934276381909"><ele>183.0</ele><time>2026-04-05T15:25:19Z</time></trkpt><trkpt lat="42.846708411233806" lon="13.568046689722872"><ele>180.5</ele><time>2026-04-05T15:25:20Z</time></trkpt><trkpt lat="42.84681214417469" lon="13.568147140500482"><ele>178.0</ele><time>2026-04-05T15:25:21Z</time></trkpt><trkpt lat="42.84688939594984" lon="13.568282169372"><ele>175.5</ele><time>2026-04-05T15:25:22Z</time></trkpt><trkpt lat="42.84693250323715" lon="13.568442048379367"><ele>173.0</ele><time>2026-04-05T15:25:23Z</time></trkpt><trkpt lat="42.84696968507253" lon="13.568589119423013"><ele>175.0</ele><time>2026-04-05T15:25:24Z</time></trkpt><trkpt lat="42.847037281229" lon="13.568711862561221"><ele>177.0</ele><time>2026-04-05T15:25:25Z</time></trkpt><trkpt lat="42.84714356259661" lon="13.568817842586887"><ele>179.0</ele><time>2026-04-05T15:25:26Z</time></trkpt><trkpt lat="42.84725835882837" lon="13.568911836277442"><ele>181.0</ele><time>2026-04-05T15:25:27Z</time></trkpt><trkpt lat="42.84737629366954" lon="13.568998098227762"><ele>181.0</ele><time>2026-04-05T15:25:28Z</time></trkpt><trkpt lat="42.84748455676599" lon="13.56908180376694"><ele>181.0</ele><time>2026-04-05T15:25:29Z</time></trkpt><trkpt lat="42.847584848926054" lon="13.56915645917812"><ele>181.0</ele><time>2026-04-05T15:25:30Z</time></trkpt><trkpt lat="42.84767632709513" lon="13.569223942708698"><ele>181.0</ele><time>2026-04-05T15:25:31Z</time></trkpt><trkpt lat="42.84776405040194" lon="13.569289845133726"><ele>181.0</ele><time>2026-04-05T15:25:32Z</time></trkpt><trkpt lat="42.847845922096255" lon="13.569352379172575"><ele>180.16666666666669</ele><time>2026-04-05T15:25:33Z</time></trkpt><trkpt lat="42.847920435283854" lon="13.56941842430442"><ele>179.33333333333334</ele><time>2026-04-05T15:25:34Z</time></trkpt><trkpt lat="42.847989778681765" lon="13.569482682763704"><ele>178.5</ele><time>2026-04-05T15:25:35Z</time></trkpt><trkpt lat="42.848060071247794" lon="13.569547907173432"><ele>177.66666666666666</ele><time>2026-04-05T15:25:36Z</time></trkpt><trkpt lat="42.84811946045209" lon="13.569625564234082"><ele>176.83333333333331</ele><time>2026-04-05T15:25:37Z</time></trkpt><trkpt lat="42.8481577981035" lon="13.569721652833712"><ele>176.0</ele><time>2026-04-05T15:25:38Z</time></trkpt><trkpt lat="42.84818874415226" lon="13.569841455076869"><ele>176.0</ele><time>2026-04-05T15:25:39Z</time></trkpt><trkpt lat="42.84822087272151" lon="13.569982506424738"><ele>176.0</ele><time>2026-04-05T15:25:40Z</time></trkpt><trkpt lat="42.84825787936465" lon="13.570123708438405"><ele>176.0</ele><time>2026-04-05T15:25:41Z</time></trkpt><trkpt lat="42.84828683873692" lon="13.570254539643868"><ele>176.0</ele><time>2026-04-05T15:25:42Z</time></trkpt><trkpt lat="42.848311862820125" lon="13.570393197026943"><ele>176.0</ele><time>2026-04-05T15:25:43Z</time></trkpt><trkpt lat="42.848325937290376" lon="13.57052875343096"><ele>175.60000000000002</ele><time>2026-04-05T15:25:44Z</time></trkpt><trkpt lat="42.84832588476122" lon="13.570648807677419"><ele>175.2</ele><time>2026-04-05T15:25:45Z</time></trkpt><trkpt lat="42.84832130080281" lon="13.570761654560197"><ele>174.8</ele><time>2026-04-05T15:25:46Z</time></trkpt><trkpt lat="42.84831348688559" lon="13.570869821552844"><ele>174.39999999999998</ele><time>2026-04-05T15:25:47Z</time></trkpt><trkpt lat="42.848302547001076" lon="13.570997389382253"><ele>174.0</ele><time>2026-04-05T15:25:48Z</time></trkpt><trkpt lat="42.84827682214673" lon="13.57115561071954"><ele>172.0</ele><time>2026-04-05T15:25:49Z</time></trkpt><trkpt lat="42.848240698132905" lon="13.571327180235127"><ele>170.0</ele><time>2026-04-05T15:25:50Z</time></trkpt><trkpt lat="42.848198018272846" lon="13.571504041112084"><ele>168.0</ele><time>2026-04-05T15:25:51Z</time></trkpt><trkpt lat="42.84815728198803" lon="13.571700963503405"><ele>166.0</ele><time>2026-04-05T15:25:52Z</time></trkpt><trkpt lat="42.8481051403639" lon="13.571918658114763"><ele>166.0</ele><time>2026-04-05T15:25:53Z</time></trkpt><trkpt lat="42.848054352969996" lon="13.572149603084608"><ele>166.0</ele><time>2026-04-05T15:25:54Z</time></trkpt><trkpt lat="42.84799981340909" lon="13.572385042300347"><ele>166.0</ele><time>2026-04-05T15:25:55Z</time></trkpt><trkpt lat="42.84794761622997" lon="13.572613671006962"><ele>166.0</ele><time>2026-04-05T15:25:56Z</time></trkpt><trkpt lat="42.8478954562983" lon="13.572829774697388"><ele>166.0</ele><time>2026-04-05T15:25:57Z</time></trkpt><trkpt lat="42.84785031019713" lon="13.573036391371433"><ele>166.0</ele><time>2026-04-05T15:25:58Z</time></trkpt><trkpt lat="42.84780870285189" lon="13.573238343077193"><ele>166.75</ele><time>2026-04-05T15:25:59Z</time></trkpt><trkpt lat="42.84777120722464" lon="13.573431276328233"><ele>167.5</ele><time>2026-04-05T15:26:00Z</time></trkpt><trkpt lat="42.84774575845076" lon="13.573623237278944"><ele>168.25</ele><time>2026-04-05T15:26:01Z</time></trkpt><trkpt lat="42.847739502033804" lon="13.573813136767587"><ele>169.0</ele><time>2026-04-05T15:26:02Z</time></trkpt><trkpt lat="42.84775175819284" lon="13.573984111426983"><ele>168.6</ele><time>2026-04-05T15:26:03Z</time></trkpt><trkpt lat="42.847772413229805" lon="13.574135232540453"><ele>168.2</ele><time>2026-04-05T15:26:04Z</time></trkpt><trkpt lat="42.84779767781273" lon="13.574262424109321"><ele>167.79999999999998</ele><time>2026-04-05T15:26:05Z</time></trkpt><trkpt lat="42.84781752135425" lon="13.574380987448459"><ele>167.39999999999998</ele><time>2026-04-05T15:26:06Z</time></trkpt><trkpt lat="42.847824766306324" lon="13.574474118404135"><ele>167.0</ele><time>2026-04-05T15:26:07Z</time></trkpt><trkpt lat="42.84781642450982" lon="13.574615038190391"><ele>167.0</ele><time>2026-04-05T15:26:09Z</time></trkpt><trkpt lat="42.84777488977576" lon="13.574708802617785"><ele>167.0</ele><time>2026-04-05T15:26:11Z</time></trkpt><trkpt lat="42.847677648727306" lon="13.5747108489063"><ele>167.0</ele><time>2026-04-05T15:26:12Z</time></trkpt><trkpt lat="42.847588395950396" lon="13.574726490553292"><ele>167.0</ele><time>2026-04-05T15:26:13Z</time></trkpt><trkpt lat="42.84751083455959" lon="13.57478265777227"><ele>167.0</ele><time>2026-04-05T15:26:14Z</time></trkpt><trkpt lat="42.847466908851345" lon="13.574888669860602"><ele>167.0</ele><time>2026-04-05T15:26:15Z</time></trkpt><trkpt lat="42.84746611973405" lon="13.575014936498249"><ele>167.0</ele><time>2026-04-05T15:26:16Z</time></trkpt><trkpt lat="42.847505594502465" lon="13.57513126606903"><ele>167.0</ele><time>2026-04-05T15:26:17Z</time></trkpt><trkpt lat="42.84756337468787" lon="13.575214403645974"><ele>167.0</ele><time>2026-04-05T15:26:18Z</time></trkpt><trkpt lat="42.8476508149404" lon="13.575241448857629"><ele>167.0</ele><time>2026-04-05T15:26:19Z</time></trkpt><trkpt lat="42.84774026293663" lon="13.57522161434254"><ele>167.0</ele><time>2026-04-05T15:26:20Z</time></trkpt><trkpt lat="42.84782317522642" lon="13.575168733832822"><ele>167.0</ele><time>2026-04-05T15:26:21Z</time></trkpt><trkpt lat="42.847893765487335" lon="13.575147056613428"><ele>167.0</ele><time>2026-04-05T15:26:22Z</time></trkpt><trkpt lat="42.84797463984358" lon="13.575263738160134"><ele>167.0</ele><time>2026-04-05T15:26:24Z</time></trkpt><trkpt lat="42.847991002659384" lon="13.575378864249089"><ele>167.0</ele><time>2026-04-05T15:26:25Z</time></trkpt><trkpt lat="42.84801708366639" lon="13.575515252255405"><ele>167.0</ele><time>2026-04-05T15:26:26Z</time></trkpt><trkpt lat="42.84805875137445" lon="13.575659192351269"><ele>169.25</ele><time>2026-04-05T15:26:27Z</time></trkpt><trkpt lat="42.84810762986468" lon="13.57579834868577"><ele>171.5</ele><time>2026-04-05T15:26:28Z</time></trkpt><trkpt lat="42.84816726052113" lon="13.575928620222102"><ele>173.75</ele><time>2026-04-05T15:26:29Z</time></trkpt><trkpt lat="42.84823598720144" lon="13.576052594521192"><ele>176.0</ele><time>2026-04-05T15:26:30Z</time></trkpt><trkpt lat="42.84831805282594" lon="13.576163461958858"><ele>174.75</ele><time>2026-04-05T15:26:31Z</time></trkpt><trkpt lat="42.84840495318861" lon="13.576265449895965"><ele>173.5</ele><time>2026-04-05T15:26:32Z</time></trkpt><trkpt lat="42.84849486411648" lon="13.576361462978305"><ele>172.25</ele><time>2026-04-05T15:26:33Z</time></trkpt><trkpt lat="42.84859463919761" lon="13.576438777150072"><ele>171.0</ele><time>2026-04-05T15:26:34Z</time></trkpt><trkpt lat="42.84871339536014" lon="13.576492879798522"><ele>171.0</ele><time>2026-04-05T15:26:35Z</time></trkpt><trkpt lat="42.8488387604788" lon="13.576543991658534"><ele>171.0</ele><time>2026-04-05T15:26:36Z</time></trkpt><trkpt lat="42.84896497613709" lon="13.576595159247809"><ele>171.0</ele><time>2026-04-05T15:26:37Z</time></trkpt><trkpt lat="42.849089674369914" lon="13.576654706852644"><ele>171.0</ele><time>2026-04-05T15:26:38Z</time></trkpt><trkpt lat="42.849199988987216" lon="13.576723525405738"><ele>171.0</ele><time>2026-04-05T15:26:39Z</time></trkpt><trkpt lat="42.84928850810567" lon="13.57681484735142"><ele>171.0</ele><time>2026-04-05T15:26:40Z</time></trkpt><trkpt lat="42.84935617709376" lon="13.576927108736658"><ele>171.0</ele><time>2026-04-05T15:26:41Z</time></trkpt><trkpt lat="42.849399374576606" lon="13.577057115917112"><ele>171.0</ele><time>2026-04-05T15:26:42Z</time></trkpt><trkpt lat="42.849426710301934" lon="13.577203542213384"><ele>171.0</ele><time>2026-04-05T15:26:43Z</time></trkpt><trkpt lat="42.849448501180945" lon="13.577335496428757"><ele>169.0</ele><time>2026-04-05T15:26:44Z</time></trkpt><trkpt lat="42.84948772343074" lon="13.577439024886765"><ele>167.0</ele><time>2026-04-05T15:26:45Z</time></trkpt><trkpt lat="42.84954567666811" lon="13.577520855745375"><ele>165.0</ele><time>2026-04-05T15:26:46Z</time></trkpt><trkpt lat="42.84962745840996" lon="13.577575512913215"><ele>163.0</ele><time>2026-04-05T15:26:47Z</time></trkpt><trkpt lat="42.849738136119605" lon="13.577599042808604"><ele>161.0</ele><time>2026-04-05T15:26:48Z</time></trkpt><trkpt lat="42.84983400509692" lon="13.57764116337916"><ele>161.0</ele><time>2026-04-05T15:26:49Z</time></trkpt><trkpt lat="42.849919105245476" lon="13.577716115046575"><ele>161.0</ele><time>2026-04-05T15:26:50Z</time></trkpt><trkpt lat="42.84999566185586" lon="13.577832091393802"><ele>161.0</ele><time>2026-04-05T15:26:51Z</time></trkpt><trkpt lat="42.850071091383505" lon="13.577981328386704"><ele>161.0</ele><time>2026-04-05T15:26:52Z</time></trkpt><trkpt lat="42.85016370328884" lon="13.578118159263864"><ele>158.33333333333331</ele><time>2026-04-05T15:26:53Z</time></trkpt><trkpt lat="42.85029132877883" lon="13.57823479190703"><ele>155.66666666666666</ele><time>2026-04-05T15:26:54Z</time></trkpt><trkpt lat="42.85043831184062" lon="13.578334196628047"><ele>153.0</ele><time>2026-04-05T15:26:55Z</time></trkpt><trkpt lat="42.85057465330358" lon="13.578424187401259"><ele>153.0</ele><time>2026-04-05T15:26:56Z</time></trkpt><trkpt lat="42.850681945942235" lon="13.578513986984488"><ele>153.0</ele><time>2026-04-05T15:26:57Z</time></trkpt><trkpt lat="42.85075875531696" lon="13.578610795649212"><ele>153.0</ele><time>2026-04-05T15:26:58Z</time></trkpt><trkpt lat="42.850815098012056" lon="13.578736777719996"><ele>153.0</ele><time>2026-04-05T15:26:59Z</time></trkpt><trkpt lat="42.85085388939088" lon="13.578884322277904"><ele>152.75</ele><time>2026-04-05T15:27:00Z</time></trkpt><trkpt lat="42.85086623013192" lon="13.579045530382263"><ele>152.5</ele><time>2026-04-05T15:27:01Z</time></trkpt><trkpt lat="42.850859689485205" lon="13.579214492825999"><ele>152.25</ele><time>2026-04-05T15:27:02Z</time></trkpt><trkpt lat="42.85083642579263" lon="13.579380353845059"><ele>152.0</ele><time>2026-04-05T15:27:03Z</time></trkpt><trkpt lat="42.85079310194632" lon="13.57954458941487"><ele>152.0</ele><time>2026-04-05T15:27:04Z</time></trkpt><trkpt lat="42.85074031692551" lon="13.579722283658155"><ele>152.0</ele><time>2026-04-05T15:27:05Z</time></trkpt><trkpt lat="42.85069269438656" lon="13.579915343318179"><ele>152.0</ele><time>2026-04-05T15:27:06Z</time></trkpt><trkpt lat="42.85064932910353" lon="13.58011704894056"><ele>152.0</ele><time>2026-04-05T15:27:07Z</time></trkpt><trkpt lat="42.850598333155304" lon="13.580330431656803"><ele>150.0</ele><time>2026-04-05T15:27:08Z</time></trkpt><trkpt lat="42.85054414080126" lon="13.580545465684287"><ele>148.0</ele><time>2026-04-05T15:27:09Z</time></trkpt><trkpt lat="42.85049490677811" lon="13.580757214905887"><ele>146.0</ele><time>2026-04-05T15:27:10Z</time></trkpt><trkpt lat="42.850435418449955" lon="13.580954347421896"><ele>146.0</ele><time>2026-04-05T15:27:11Z</time></trkpt><trkpt lat="42.85035970604022" lon="13.581135168313692"><ele>146.0</ele><time>2026-04-05T15:27:12Z</time></trkpt><trkpt lat="42.850268446684396" lon="13.581300581875809"><ele>146.0</ele><time>2026-04-05T15:27:13Z</time></trkpt><trkpt lat="42.850199897616314" lon="13.581474013539308"><ele>146.0</ele><time>2026-04-05T15:27:14Z</time></trkpt><trkpt lat="42.85017309058651" lon="13.581664192591823"><ele>145.75</ele><time>2026-04-05T15:27:15Z</time></trkpt><trkpt lat="42.850179118734964" lon="13.581862492821381"><ele>145.5</ele><time>2026-04-05T15:27:16Z</time></trkpt><trkpt lat="42.8502034955768" lon="13.58206239000145"><ele>145.25</ele><time>2026-04-05T15:27:17Z</time></trkpt><trkpt lat="42.850229985221056" lon="13.582264684979224"><ele>145.0</ele><time>2026-04-05T15:27:18Z</time></trkpt><trkpt lat="42.85024765084603" lon="13.582456011978548"><ele>145.0</ele><time>2026-04-05T15:27:19Z</time></trkpt><trkpt lat="42.85026199287462" lon="13.582635191178616"><ele>145.0</ele><time>2026-04-05T15:27:20Z</time></trkpt><trkpt lat="42.850278740659085" lon="13.582802731059543"><ele>145.0</ele><time>2026-04-05T15:27:21Z</time></trkpt><trkpt lat="42.85029135311764" lon="13.582960446368077"><ele>145.0</ele><time>2026-04-05T15:27:22Z</time></trkpt><trkpt lat="42.85030480354249" lon="13.583122857669098"><ele>147.25</ele><time>2026-04-05T15:27:23Z</time></trkpt><trkpt lat="42.850312733721225" lon="13.583283730993829"><ele>149.5</ele><time>2026-04-05T15:27:24Z</time></trkpt><trkpt lat="42.85032085177423" lon="13.583446501812661"><ele>151.75</ele><time>2026-04-05T15:27:25Z</time></trkpt><trkpt lat="42.85032839743459" lon="13.583611563791147"><ele>154.0</ele><time>2026-04-05T15:27:26Z</time></trkpt><trkpt lat="42.850335204785296" lon="13.583778606481925"><ele>155.0</ele><time>2026-04-05T15:27:27Z</time></trkpt><trkpt lat="42.8503454966287" lon="13.58395103447951"><ele>156.0</ele><time>2026-04-05T15:27:28Z</time></trkpt><trkpt lat="42.85035514846933" lon="13.584112961911604"><ele>157.0</ele><time>2026-04-05T15:27:29Z</time></trkpt><trkpt lat="42.85036581406054" lon="13.584279328290888"><ele>158.0</ele><time>2026-04-05T15:27:30Z</time></trkpt><trkpt lat="42.850374187916906" lon="13.584440374515307"><ele>158.20000000000002</ele><time>2026-04-05T15:27:31Z</time></trkpt><trkpt lat="42.85038296790691" lon="13.584598688999646"><ele>158.4</ele><time>2026-04-05T15:27:32Z</time></trkpt><trkpt lat="42.85038926411913" lon="13.584744812676874"><ele>158.60000000000002</ele><time>2026-04-05T15:27:33Z</time></trkpt><trkpt lat="42.85039301689244" lon="13.58487419169265"><ele>158.8</ele><time>2026-04-05T15:27:34Z</time></trkpt><trkpt lat="42.85039285043377" lon="13.584994207824032"><ele>159.0</ele><time>2026-04-05T15:27:35Z</time></trkpt><trkpt lat="42.85039281125232" lon="13.585108721393972"><ele>159.0</ele><time>2026-04-05T15:27:36Z</time></trkpt><trkpt lat="42.85039619985451" lon="13.585223655314671"><ele>159.0</ele><time>2026-04-05T15:27:37Z</time></trkpt><trkpt lat="42.85039705559789" lon="13.585343502447987"><ele>159.0</ele><time>2026-04-05T15:27:38Z</time></trkpt><trkpt lat="42.850399194440904" lon="13.58546375851239"><ele>159.0</ele><time>2026-04-05T15:27:39Z</time></trkpt><trkpt lat="42.85040090959" lon="13.585581828031048"><ele>159.0</ele><time>2026-04-05T15:27:40Z</time></trkpt><trkpt lat="42.850402173603094" lon="13.585692103851196"><ele>159.0</ele><time>2026-04-05T15:27:41Z</time></trkpt><trkpt lat="42.85039970962007" lon="13.585799739806824"><ele>159.16666666666666</ele><time>2026-04-05T15:27:42Z</time></trkpt><trkpt lat="42.85039804009699" lon="13.585906132670635"><ele>159.33333333333334</ele><time>2026-04-05T15:27:43Z</time></trkpt><trkpt lat="42.85039617808384" lon="13.586006566805011"><ele>159.5</ele><time>2026-04-05T15:27:44Z</time></trkpt><trkpt lat="42.850392090672045" lon="13.586104559640683"><ele>159.66666666666669</ele><time>2026-04-05T15:27:44.999Z</time></trkpt><trkpt lat="42.85038731318527" lon="13.586197412418722"><ele>159.83333333333334</ele><time>2026-04-05T15:27:45.999Z</time></trkpt><trkpt lat="42.85037688913952" lon="13.586359533444298"><ele>160.0</ele><time>2026-04-05T15:27:47.999Z</time></trkpt><trkpt lat="42.85036794317967" lon="13.586479137722923"><ele>160.2</ele><time>2026-04-05T15:27:49.999Z</time></trkpt><trkpt lat="42.85035733863866" lon="13.586608001132724"><ele>160.4</ele><time>2026-04-05T15:27:51.999Z</time></trkpt><trkpt lat="42.85035315704905" lon="13.586773015927752"><ele>160.60000000000002</ele><time>2026-04-05T15:27:53.999Z</time></trkpt><trkpt lat="42.85036311341834" lon="13.586907590135537"><ele>160.8</ele><time>2026-04-05T15:27:55.999Z</time></trkpt><trkpt lat="42.8503649463533" lon="13.587034747233513"><ele>161.0</ele><time>2026-04-05T15:27:58Z</time></trkpt><trkpt lat="42.85036635583863" lon="13.58713744855921"><ele>161.0</ele><time>2026-04-05T15:28:02Z</time></trkpt><trkpt lat="42.850365043023125" lon="13.587274135971326"><ele>161.0</ele><time>2026-04-05T15:28:04Z</time></trkpt><trkpt lat="42.85037009381345" lon="13.587368011369252"><ele>161.0</ele><time>2026-04-05T15:28:05Z</time></trkpt><trkpt lat="42.85038534606642" lon="13.587472456571472"><ele>161.0</ele><time>2026-04-05T15:28:06Z</time></trkpt><trkpt lat="42.850395873057394" lon="13.587574754507909"><ele>161.0</ele><time>2026-04-05T15:28:07Z</time></trkpt><trkpt lat="42.8504028730609" lon="13.587674505459129"><ele>161.0</ele><time>2026-04-05T15:28:08Z</time></trkpt><trkpt lat="42.85040879715624" lon="13.587765467511327"><ele>160.5</ele><time>2026-04-05T15:28:09Z</time></trkpt><trkpt lat="42.850419875623416" lon="13.587913976126254"><ele>160.0</ele><time>2026-04-05T15:28:11Z</time></trkpt><trkpt lat="42.850422388918815" lon="13.588010435790341"><ele>159.5</ele><time>2026-04-05T15:28:13Z</time></trkpt><trkpt lat="42.85042003982665" lon="13.58813138392009"><ele>159.0</ele><time>2026-04-05T15:28:21Z</time></trkpt><trkpt lat="42.85042327933039" lon="13.588229346353916"><ele>158.5</ele><time>2026-04-05T15:28:22Z</time></trkpt><trkpt lat="42.85042685870127" lon="13.588349314918927"><ele>158.0</ele><time>2026-04-05T15:28:23Z</time></trkpt><trkpt lat="42.85043044147593" lon="13.588478359642227"><ele>158.0</ele><time>2026-04-05T15:28:24Z</time></trkpt><trkpt lat="42.850434126235434" lon="13.588624231724966"><ele>158.0</ele><time>2026-04-05T15:28:25Z</time></trkpt><trkpt lat="42.85044119055643" lon="13.58878429562695"><ele>158.0</ele><time>2026-04-05T15:28:26Z</time></trkpt><trkpt lat="42.85044779511914" lon="13.588947631726532"><ele>158.0</ele><time>2026-04-05T15:28:27Z</time></trkpt><trkpt lat="42.8504550693638" lon="13.589107963512593"><ele>157.75</ele><time>2026-04-05T15:28:28Z</time></trkpt><trkpt lat="42.85046289502162" lon="13.589267656808797"><ele>157.5</ele><time>2026-04-05T15:28:29Z</time></trkpt><trkpt lat="42.850468674477696" lon="13.589425504305975"><ele>157.25</ele><time>2026-04-05T15:28:30Z</time></trkpt><trkpt lat="42.85047274086887" lon="13.589582207322543"><ele>157.0</ele><time>2026-04-05T15:28:31Z</time></trkpt><trkpt lat="42.85047613256589" lon="13.589741813953516"><ele>156.5</ele><time>2026-04-05T15:28:32Z</time></trkpt><trkpt lat="42.85048250054159" lon="13.589907409205715"><ele>156.0</ele><time>2026-04-05T15:28:33Z</time></trkpt><trkpt lat="42.850491591621584" lon="13.59007490764678"><ele>155.5</ele><time>2026-04-05T15:28:34Z</time></trkpt><trkpt lat="42.85049623472507" lon="13.590252608652339"><ele>155.0</ele><time>2026-04-05T15:28:35Z</time></trkpt><trkpt lat="42.85050534461454" lon="13.590423888104512"><ele>154.75</ele><time>2026-04-05T15:28:36Z</time></trkpt><trkpt lat="42.85051353005305" lon="13.590598551479232"><ele>154.5</ele><time>2026-04-05T15:28:37Z</time></trkpt><trkpt lat="42.85051779964357" lon="13.590764047796517"><ele>154.25</ele><time>2026-04-05T15:28:38Z</time></trkpt><trkpt lat="42.85052471582213" lon="13.590928594118774"><ele>154.0</ele><time>2026-04-05T15:28:39Z</time></trkpt><trkpt lat="42.850530976540924" lon="13.591088847632054"><ele>153.66666666666669</ele><time>2026-04-05T15:28:40Z</time></trkpt><trkpt lat="42.85053406046869" lon="13.591236907392846"><ele>153.33333333333334</ele><time>2026-04-05T15:28:41Z</time></trkpt><trkpt lat="42.850543397586634" lon="13.591367403275235"><ele>153.0</ele><time>2026-04-05T15:28:42Z</time></trkpt><trkpt lat="42.8505454646345" lon="13.591481929118578"><ele>152.66666666666666</ele><time>2026-04-05T15:28:43Z</time></trkpt><trkpt lat="42.85054927980168" lon="13.59157923556316"><ele>152.33333333333331</ele><time>2026-04-05T15:28:44Z</time></trkpt><trkpt lat="42.85055469461665" lon="13.591665490262054"><ele>152.0</ele><time>2026-04-05T15:28:45Z</time></trkpt><trkpt lat="42.85056852115862" lon="13.591790074528241"><ele>152.0</ele><time>2026-04-05T15:28:47Z</time></trkpt><trkpt lat="42.850555448741474" lon="13.591889259074216"><ele>152.0</ele><time>2026-04-05T15:28:50Z</time></trkpt><trkpt lat="42.850576105879114" lon="13.592048609289861"><ele>152.0</ele><time>2026-04-05T15:29:21Z</time></trkpt><trkpt lat="42.85057785982619" lon="13.592164070115356"><ele>152.0</ele><time>2026-04-05T15:29:22Z</time></trkpt><trkpt lat="42.85057812118561" lon="13.592288826892922"><ele>152.0</ele><time>2026-04-05T15:29:23Z</time></trkpt><trkpt lat="42.850582037459894" lon="13.592432572463297"><ele>151.0</ele><time>2026-04-05T15:29:24Z</time></trkpt><trkpt lat="42.85058736981385" lon="13.592585607386603"><ele>150.0</ele><time>2026-04-05T15:29:25Z</time></trkpt><trkpt lat="42.85059036406299" lon="13.592746623847404"><ele>149.0</ele><time>2026-04-05T15:29:26Z</time></trkpt><trkpt lat="42.85059937583344" lon="13.592911971818099"><ele>148.0</ele><time>2026-04-05T15:29:27Z</time></trkpt><trkpt lat="42.850603031720844" lon="13.593074101548373"><ele>147.25</ele><time>2026-04-05T15:29:28Z</time></trkpt><trkpt lat="42.85059977588323" lon="13.593242746392107"><ele>146.5</ele><time>2026-04-05T15:29:29Z</time></trkpt><trkpt lat="42.85059985042969" lon="13.593412820627435"><ele>145.75</ele><time>2026-04-05T15:29:30Z</time></trkpt><trkpt lat="42.8505993065715" lon="13.593590516041456"><ele>145.0</ele><time>2026-04-05T15:29:31Z</time></trkpt><trkpt lat="42.850595905595036" lon="13.59377732657951"><ele>144.5</ele><time>2026-04-05T15:29:32Z</time></trkpt><trkpt lat="42.850587566696376" lon="13.593969256695814"><ele>144.0</ele><time>2026-04-05T15:29:33Z</time></trkpt><trkpt lat="42.85058018095046" lon="13.594165230495943"><ele>143.5</ele><time>2026-04-05T15:29:34Z</time></trkpt><trkpt lat="42.850571460213516" lon="13.59436349948808"><ele>143.0</ele><time>2026-04-05T15:29:35Z</time></trkpt><trkpt lat="42.85056229789971" lon="13.594563211749866"><ele>142.5</ele><time>2026-04-05T15:29:36Z</time></trkpt><trkpt lat="42.850547521827316" lon="13.594760673092482"><ele>142.0</ele><time>2026-04-05T15:29:37Z</time></trkpt><trkpt lat="42.85053257526523" lon="13.59495737667721"><ele>141.5</ele><time>2026-04-05T15:29:38Z</time></trkpt><trkpt lat="42.85051542040031" lon="13.595141952114236"><ele>141.0</ele><time>2026-04-05T15:29:39Z</time></trkpt><trkpt lat="42.850501143922756" lon="13.595315068336445"><ele>140.5</ele><time>2026-04-05T15:29:40Z</time></trkpt><trkpt lat="42.850488410394156" lon="13.595476770196194"><ele>140.0</ele><time>2026-04-05T15:29:41Z</time></trkpt><trkpt lat="42.85047399719594" lon="13.595654574343055"><ele>139.5</ele><time>2026-04-05T15:29:42Z</time></trkpt><trkpt lat="42.85045564736762" lon="13.595833021581676"><ele>139.0</ele><time>2026-04-05T15:29:43Z</time></trkpt><trkpt lat="42.850433308971155" lon="13.596019232500955"><ele>139.0</ele><time>2026-04-05T15:29:44Z</time></trkpt><trkpt lat="42.85041085190303" lon="13.596209386370797"><ele>139.0</ele><time>2026-04-05T15:29:45Z</time></trkpt><trkpt lat="42.85038351896369" lon="13.596405460290418"><ele>139.0</ele><time>2026-04-05T15:29:45.999Z</time></trkpt><trkpt lat="42.850361799068295" lon="13.59659156523187"><ele>139.0</ele><time>2026-04-05T15:29:46.999Z</time></trkpt><trkpt lat="42.85033301593687" lon="13.596777874186927"><ele>139.0</ele><time>2026-04-05T15:29:47.999Z</time></trkpt><trkpt lat="42.85030875021729" lon="13.596957554618708"><ele>139.0</ele><time>2026-04-05T15:29:48.999Z</time></trkpt><trkpt lat="42.85028496397313" lon="13.597137474286024"><ele>139.0</ele><time>2026-04-05T15:29:49.999Z</time></trkpt><trkpt lat="42.85026154280115" lon="13.59730800376922"><ele>139.0</ele><time>2026-04-05T15:29:50.999Z</time></trkpt><trkpt lat="42.850235949748104" lon="13.59747800956675"><ele>139.2</ele><time>2026-04-05T15:29:51.999Z</time></trkpt><trkpt lat="42.85021019020635" lon="13.59764281022549"><ele>139.4</ele><time>2026-04-05T15:29:52.999Z</time></trkpt><trkpt lat="42.850178525671375" lon="13.59779630689902"><ele>139.6</ele><time>2026-04-05T15:29:53.999Z</time></trkpt><trkpt lat="42.85014378852914" lon="13.59793281766263"><ele>139.8</ele><time>2026-04-05T15:29:54.999Z</time></trkpt><trkpt lat="42.850110965492824" lon="13.598061918176054"><ele>140.0</ele><time>2026-04-05T15:29:55.999Z</time></trkpt><trkpt lat="42.850081712969846" lon="13.598176421796923"><ele>138.8</ele><time>2026-04-05T15:29:56.999Z</time></trkpt><trkpt lat="42.85003502367744" lon="13.598287719661274"><ele>137.6</ele><time>2026-04-05T15:29:57.999Z</time></trkpt><trkpt lat="42.84998498280484" lon="13.598411873412315"><ele>136.4</ele><time>2026-04-05T15:29:58.999Z</time></trkpt><trkpt lat="42.84994160339993" lon="13.598558988787525"><ele>135.2</ele><time>2026-04-05T15:29:59.999Z</time></trkpt><trkpt lat="42.84990312449385" lon="13.598722566751414"><ele>134.0</ele><time>2026-04-05T15:30:00.999Z</time></trkpt><trkpt lat="42.849842639262306" lon="13.59888397485222"><ele>132.66666666666666</ele><time>2026-04-05T15:30:01.999Z</time></trkpt><trkpt lat="42.84970945339034" lon="13.599228349994803"><ele>131.33333333333334</ele><time>2026-04-05T15:30:04Z</time></trkpt><trkpt lat="42.849639616311514" lon="13.59940934185073"><ele>130.0</ele><time>2026-04-05T15:30:05Z</time></trkpt><trkpt lat="42.84957568004798" lon="13.599594829252096"><ele>129.5</ele><time>2026-04-05T15:30:06Z</time></trkpt><trkpt lat="42.84951858251794" lon="13.599773134034873"><ele>129.0</ele><time>2026-04-05T15:30:07Z</time></trkpt><trkpt lat="42.84947320010692" lon="13.599946895539446"><ele>128.5</ele><time>2026-04-05T15:30:08Z</time></trkpt><trkpt lat="42.84943226564872" lon="13.600116086769424"><ele>128.0</ele><time>2026-04-05T15:30:09Z</time></trkpt><trkpt lat="42.84939133701721" lon="13.600280736782624"><ele>128.25</ele><time>2026-04-05T15:30:10Z</time></trkpt><trkpt lat="42.84935132985208" lon="13.600436718641365"><ele>128.5</ele><time>2026-04-05T15:30:11Z</time></trkpt><trkpt lat="42.849313625142315" lon="13.600584696482828"><ele>128.75</ele><time>2026-04-05T15:30:12Z</time></trkpt><trkpt lat="42.8492770578917" lon="13.600724363578959"><ele>129.0</ele><time>2026-04-05T15:30:13Z</time></trkpt><trkpt lat="42.84924115575455" lon="13.600859473855145"><ele>128.6</ele><time>2026-04-05T15:30:14Z</time></trkpt><trkpt lat="42.84920632341115" lon="13.600997080163323"><ele>128.2</ele><time>2026-04-05T15:30:15Z</time></trkpt><trkpt lat="42.84917162722843" lon="13.601141510460804"><ele>127.79999999999998</ele><time>2026-04-05T15:30:16Z</time></trkpt><trkpt lat="42.84913718011088" lon="13.60129256357598"><ele>127.39999999999999</ele><time>2026-04-05T15:30:17Z</time></trkpt><trkpt lat="42.8491072361459" lon="13.60143287177021"><ele>127.0</ele><time>2026-04-05T15:30:18Z</time></trkpt><trkpt lat="42.84908121115021" lon="13.601560318450158"><ele>126.83333333333334</ele><time>2026-04-05T15:30:19Z</time></trkpt><trkpt lat="42.849056357493794" lon="13.601685391198735"><ele>126.66666666666667</ele><time>2026-04-05T15:30:20Z</time></trkpt><trkpt lat="42.84903232157017" lon="13.601803600671287"><ele>126.5</ele><time>2026-04-05T15:30:21Z</time></trkpt><trkpt lat="42.849012840094026" lon="13.601908263834169"><ele>126.33333333333334</ele><time>2026-04-05T15:30:22Z</time></trkpt><trkpt lat="42.84899427555384" lon="13.602008078900004"><ele>126.16666666666667</ele><time>2026-04-05T15:30:23Z</time></trkpt><trkpt lat="42.848977767813174" lon="13.60209585323622"><ele>126.0</ele><time>2026-04-05T15:30:24Z</time></trkpt><trkpt lat="42.84894465416095" lon="13.602216938601002"><ele>126.0</ele><time>2026-04-05T15:30:26Z</time></trkpt><trkpt lat="42.84887800240914" lon="13.6022912538904"><ele>126.0</ele><time>2026-04-05T15:30:28Z</time></trkpt><trkpt lat="42.84880994033162" lon="13.602353920318615"><ele>126.0</ele><time>2026-04-05T15:30:30Z</time></trkpt><trkpt lat="42.84880618686318" lon="13.602487886943019"><ele>126.0</ele><time>2026-04-05T15:30:32Z</time></trkpt><trkpt lat="42.84885494510885" lon="13.602556620233269"><ele>126.0</ele><time>2026-04-05T15:30:33Z</time></trkpt><trkpt lat="42.84883116632239" lon="13.602756463838233"><ele>126.0</ele><time>2026-04-05T15:30:35Z</time></trkpt><trkpt lat="42.84881826280899" lon="13.602902083467304"><ele>126.0</ele><time>2026-04-05T15:30:36Z</time></trkpt><trkpt lat="42.848787273887105" lon="13.603057347538728"><ele>126.0</ele><time>2026-04-05T15:30:37Z</time></trkpt><trkpt lat="42.848758658184714" lon="13.603218516182343"><ele>126.0</ele><time>2026-04-05T15:30:38Z</time></trkpt><trkpt lat="42.848724174085746" lon="13.603388300186845"><ele>126.0</ele><time>2026-04-05T15:30:39Z</time></trkpt><trkpt lat="42.8486895607565" lon="13.60356404044163"><ele>126.0</ele><time>2026-04-05T15:30:40Z</time></trkpt><trkpt lat="42.84865410744262" lon="13.603744215023799"><ele>126.0</ele><time>2026-04-05T15:30:41Z</time></trkpt><trkpt lat="42.8486188256408" lon="13.603904774990406"><ele>126.0</ele><time>2026-04-05T15:30:42Z</time></trkpt><trkpt lat="42.84858519150582" lon="13.604071394329244"><ele>125.75</ele><time>2026-04-05T15:30:43Z</time></trkpt><trkpt lat="42.84855147416575" lon="13.604217354432514"><ele>125.5</ele><time>2026-04-05T15:30:44Z</time></trkpt><trkpt lat="42.84851917935666" lon="13.604402387397705"><ele>125.25</ele><time>2026-04-05T15:30:45Z</time></trkpt><trkpt lat="42.84848809572163" lon="13.604575445459197"><ele>125.0</ele><time>2026-04-05T15:30:46Z</time></trkpt><trkpt lat="42.84845359141428" lon="13.604745389992674"><ele>124.75</ele><time>2026-04-05T15:30:47Z</time></trkpt><trkpt lat="42.8484200863275" lon="13.604912754111497"><ele>124.5</ele><time>2026-04-05T15:30:48Z</time></trkpt><trkpt lat="42.84838170976703" lon="13.60507235344584"><ele>124.25</ele><time>2026-04-05T15:30:49Z</time></trkpt><trkpt lat="42.848329356493274" lon="13.605236699081859"><ele>124.0</ele><time>2026-04-05T15:30:50Z</time></trkpt><trkpt lat="42.84827100821411" lon="13.605399497558732"><ele>123.5</ele><time>2026-04-05T15:30:51Z</time></trkpt><trkpt lat="42.84820047916698" lon="13.605548969381017"><ele>123.0</ele><time>2026-04-05T15:30:52Z</time></trkpt><trkpt lat="42.848134577378595" lon="13.605696778861004"><ele>122.5</ele><time>2026-04-05T15:30:53Z</time></trkpt><trkpt lat="42.848070099103744" lon="13.605845776833458"><ele>122.0</ele><time>2026-04-05T15:30:54Z</time></trkpt><trkpt lat="42.8480019559905" lon="13.605966029819788"><ele>122.0</ele><time>2026-04-05T15:30:55Z</time></trkpt><trkpt lat="42.84795363162339" lon="13.60610462649944"><ele>121.99999999999999</ele><time>2026-04-05T15:30:56Z</time></trkpt><trkpt lat="42.84790508948135" lon="13.606222027333516"><ele>121.99999999999999</ele><time>2026-04-05T15:30:57Z</time></trkpt><trkpt lat="42.847859222780095" lon="13.606328113076335"><ele>122.0</ele><time>2026-04-05T15:30:58Z</time></trkpt><trkpt lat="42.847801293894605" lon="13.60645032344688"><ele>122.0</ele><time>2026-04-05T15:30:59Z</time></trkpt><trkpt lat="42.84772043007938" lon="13.606602145192372"><ele>122.33333333333333</ele><time>2026-04-05T15:31:00Z</time></trkpt><trkpt lat="42.84763568456263" lon="13.6067690159063"><ele>122.66666666666666</ele><time>2026-04-05T15:31:01Z</time></trkpt><trkpt lat="42.84755486240813" lon="13.606946580876619"><ele>123.0</ele><time>2026-04-05T15:31:02Z</time></trkpt><trkpt lat="42.84747866266499" lon="13.607144138764415"><ele>122.60000000000001</ele><time>2026-04-05T15:31:03Z</time></trkpt><trkpt lat="42.847461972337776" lon="13.607331511330989"><ele>122.20000000000002</ele><time>2026-04-05T15:31:05Z</time></trkpt><trkpt lat="42.84742162404858" lon="13.607473851123913"><ele>121.8</ele><time>2026-04-05T15:31:06Z</time></trkpt><trkpt lat="42.847387159093316" lon="13.607603694668507"><ele>121.4</ele><time>2026-04-05T15:31:07Z</time></trkpt><trkpt lat="42.84735908596125" lon="13.607711554371196"><ele>121.0</ele><time>2026-04-05T15:31:08Z</time></trkpt><trkpt lat="42.847330505988985" lon="13.607808894366004"><ele>120.8</ele><time>2026-04-05T15:31:09Z</time></trkpt><trkpt lat="42.847299688891134" lon="13.60790837713187"><ele>120.6</ele><time>2026-04-05T15:31:10Z</time></trkpt><trkpt lat="42.84726048442501" lon="13.608029053034993"><ele>120.4</ele><time>2026-04-05T15:31:11Z</time></trkpt><trkpt lat="42.84722150319188" lon="13.608159428692973"><ele>120.2</ele><time>2026-04-05T15:31:12Z</time></trkpt><trkpt lat="42.8471793468199" lon="13.608294879079907"><ele>120.0</ele><time>2026-04-05T15:31:13Z</time></trkpt><trkpt lat="42.84713878838933" lon="13.608433755520922"><ele>120.0</ele><time>2026-04-05T15:31:14Z</time></trkpt><trkpt lat="42.84710095183582" lon="13.60857431168737"><ele>120.0</ele><time>2026-04-05T15:31:15Z</time></trkpt><trkpt lat="42.84706550728532" lon="13.608706674827513"><ele>120.0</ele><time>2026-04-05T15:31:16Z</time></trkpt><trkpt lat="42.847033377106925" lon="13.608836564002944"><ele>120.0</ele><time>2026-04-05T15:31:17Z</time></trkpt><trkpt lat="42.84700445146538" lon="13.608964584257137"><ele>120.0</ele><time>2026-04-05T15:31:18Z</time></trkpt><trkpt lat="42.84697138772689" lon="13.609083044185441"><ele>119.83333333333333</ele><time>2026-04-05T15:31:19Z</time></trkpt><trkpt lat="42.84694386563185" lon="13.609196489606141"><ele>119.66666666666666</ele><time>2026-04-05T15:31:20Z</time></trkpt><trkpt lat="42.84691731056572" lon="13.60930545946372"><ele>119.5</ele><time>2026-04-05T15:31:21Z</time></trkpt><trkpt lat="42.84689566968838" lon="13.609416990319955"><ele>119.33333333333333</ele><time>2026-04-05T15:31:22Z</time></trkpt><trkpt lat="42.8468751811512" lon="13.609542718898435"><ele>119.16666666666666</ele><time>2026-04-05T15:31:23Z</time></trkpt><trkpt lat="42.846851763388585" lon="13.60966558026831"><ele>119.0</ele><time>2026-04-05T15:31:24Z</time></trkpt><trkpt lat="42.84682987684029" lon="13.609787335124501"><ele>119.16666666666666</ele><time>2026-04-05T15:31:25Z</time></trkpt><trkpt lat="42.84681579651419" lon="13.609897926557842"><ele>119.33333333333333</ele><time>2026-04-05T15:31:26Z</time></trkpt><trkpt lat="42.846797834000775" lon="13.610006291330153"><ele>119.5</ele><time>2026-04-05T15:31:27Z</time></trkpt><trkpt lat="42.84677649125972" lon="13.610118828022722"><ele>119.66666666666666</ele><time>2026-04-05T15:31:28Z</time></trkpt><trkpt lat="42.84675583683024" lon="13.610240256294627"><ele>119.83333333333333</ele><time>2026-04-05T15:31:29Z</time></trkpt><trkpt lat="42.84673557546823" lon="13.610369459750347"><ele>120.0</ele><time>2026-04-05T15:31:30Z</time></trkpt><trkpt lat="42.84671676733364" lon="13.61050141957607"><ele>119.6</ele><time>2026-04-05T15:31:31Z</time></trkpt><trkpt lat="42.846696857466945" lon="13.610625329331377"><ele>119.2</ele><time>2026-04-05T15:31:32Z</time></trkpt><trkpt lat="42.84667503154099" lon="13.610740243577002"><ele>118.80000000000001</ele><time>2026-04-05T15:31:33Z</time></trkpt><trkpt lat="42.84665370300193" lon="13.610863717513235"><ele>118.4</ele><time>2026-04-05T15:31:34Z</time></trkpt><trkpt lat="42.84663333844683" lon="13.610992581353884"><ele>118.0</ele><time>2026-04-05T15:31:35Z</time></trkpt><trkpt lat="42.84661305647815" lon="13.611122687344734"><ele>118.0</ele><time>2026-04-05T15:31:36Z</time></trkpt><trkpt lat="42.84659297643547" lon="13.611262672848722"><ele>118.0</ele><time>2026-04-05T15:31:37Z</time></trkpt><trkpt lat="42.84657776170871" lon="13.61143031880237"><ele>118.0</ele><time>2026-04-05T15:31:38Z</time></trkpt><trkpt lat="42.846537823364244" lon="13.611618807590602"><ele>118.0</ele><time>2026-04-05T15:31:39Z</time></trkpt><trkpt lat="42.84650100770005" lon="13.611828409852409"><ele>118.0</ele><time>2026-04-05T15:31:40Z</time></trkpt><trkpt lat="42.846465660183" lon="13.612039932079186"><ele>118.0</ele><time>2026-04-05T15:31:41Z</time></trkpt><trkpt lat="42.84645719324132" lon="13.61223495288839"><ele>118.0</ele><time>2026-04-05T15:31:42Z</time></trkpt><trkpt lat="42.84642852848141" lon="13.612411236215445"><ele>118.0</ele><time>2026-04-05T15:31:43Z</time></trkpt><trkpt lat="42.84639860829301" lon="13.61259690219034"><ele>118.0</ele><time>2026-04-05T15:31:44Z</time></trkpt><trkpt lat="42.84636531172776" lon="13.612788499056316"><ele>118.0</ele><time>2026-04-05T15:31:45Z</time></trkpt><trkpt lat="42.846332257472596" lon="13.612977497243481"><ele>118.0</ele><time>2026-04-05T15:31:46Z</time></trkpt><trkpt lat="42.84629729247834" lon="13.613173807591401"><ele>118.0</ele><time>2026-04-05T15:31:47Z</time></trkpt><trkpt lat="42.846262745106316" lon="13.613362741949325"><ele>118.0</ele><time>2026-04-05T15:31:48Z</time></trkpt><trkpt lat="42.846226312506346" lon="13.613542948944643"><ele>118.0</ele><time>2026-04-05T15:31:49Z</time></trkpt><trkpt lat="42.846187749817766" lon="13.613727475819672"><ele>118.0</ele><time>2026-04-05T15:31:50Z</time></trkpt><trkpt lat="42.84613772704882" lon="13.613906789890732"><ele>118.0</ele><time>2026-04-05T15:31:51Z</time></trkpt><trkpt lat="42.84608258399893" lon="13.614079230438003"><ele>118.0</ele><time>2026-04-05T15:31:52Z</time></trkpt><trkpt lat="42.84602063938886" lon="13.614257007161601"><ele>118.0</ele><time>2026-04-05T15:31:53Z</time></trkpt><trkpt lat="42.84594554924496" lon="13.614430118261271"><ele>118.0</ele><time>2026-04-05T15:31:54Z</time></trkpt><trkpt lat="42.8458683648011" lon="13.614596152399251"><ele>118.0</ele><time>2026-04-05T15:31:55Z</time></trkpt><trkpt lat="42.84579602338302" lon="13.614757898679917"><ele>117.5</ele><time>2026-04-05T15:31:56Z</time></trkpt><trkpt lat="42.84573008298382" lon="13.6149051087947"><ele>117.0</ele><time>2026-04-05T15:31:57Z</time></trkpt><trkpt lat="42.84565967891221" lon="13.615054517893514"><ele>116.5</ele><time>2026-04-05T15:31:57.999Z</time></trkpt><trkpt lat="42.84556998450032" lon="13.615213703710284"><ele>116.0</ele><time>2026-04-05T15:31:58.999Z</time></trkpt><trkpt lat="42.845487451515744" lon="13.615391052869438"><ele>115.66666666666666</ele><time>2026-04-05T15:31:59.999Z</time></trkpt><trkpt lat="42.84540673988443" lon="13.615590822069345"><ele>115.33333333333334</ele><time>2026-04-05T15:32:00.999Z</time></trkpt><trkpt lat="42.84531251748224" lon="13.61577157134721"><ele>115.0</ele><time>2026-04-05T15:32:01.999Z</time></trkpt><trkpt lat="42.84522723136384" lon="13.615950666230747"><ele>115.0</ele><time>2026-04-05T15:32:02.999Z</time></trkpt><trkpt lat="42.84515226870154" lon="13.616112438672419"><ele>115.0</ele><time>2026-04-05T15:32:03.999Z</time></trkpt><trkpt lat="42.8450805034595" lon="13.616258690012913"><ele>115.0</ele><time>2026-04-05T15:32:04.999Z</time></trkpt><trkpt lat="42.845012788408866" lon="13.616395136464362"><ele>115.0</ele><time>2026-04-05T15:32:05.999Z</time></trkpt><trkpt lat="42.8449507653349" lon="13.616521370257164"><ele>115.33333333333334</ele><time>2026-04-05T15:32:06.999Z</time></trkpt><trkpt lat="42.844891423019895" lon="13.616638483957079"><ele>115.66666666666667</ele><time>2026-04-05T15:32:08Z</time></trkpt><trkpt lat="42.84483362945657" lon="13.616744380944876"><ele>116.0</ele><time>2026-04-05T15:32:09Z</time></trkpt><trkpt lat="42.84477651990587" lon="13.616840652348234"><ele>116.33333333333334</ele><time>2026-04-05T15:32:10Z</time></trkpt><trkpt lat="42.84471907729752" lon="13.616918949982281"><ele>116.66666666666667</ele><time>2026-04-05T15:32:11Z</time></trkpt><trkpt lat="42.84466101440172" lon="13.616979005143572"><ele>117.0</ele><time>2026-04-05T15:32:12Z</time></trkpt><trkpt lat="42.84460247093578" lon="13.617035910301686"><ele>116.0</ele><time>2026-04-05T15:32:13Z</time></trkpt><trkpt lat="42.844552701612834" lon="13.617089795401379"><ele>114.99999999999999</ele><time>2026-04-05T15:32:14Z</time></trkpt><trkpt lat="42.844474237611614" lon="13.617189109234584"><ele>113.99999999999999</ele><time>2026-04-05T15:32:16Z</time></trkpt><trkpt lat="42.84441366746504" lon="13.617286218024022"><ele>113.0</ele><time>2026-04-05T15:32:18Z</time></trkpt><trkpt lat="42.8444083896482" lon="13.617433670796697"><ele>112.0</ele><time>2026-04-05T15:32:20Z</time></trkpt><trkpt lat="42.84442889095199" lon="13.617549422577405"><ele>112.0</ele><time>2026-04-05T15:32:21Z</time></trkpt><trkpt lat="42.84443194571356" lon="13.61769474297617"><ele>112.0</ele><time>2026-04-05T15:32:22Z</time></trkpt><trkpt lat="42.84446646038214" lon="13.617864922251641"><ele>112.0</ele><time>2026-04-05T15:32:23Z</time></trkpt><trkpt lat="42.844483255524985" lon="13.618038962559458"><ele>112.0</ele><time>2026-04-05T15:32:24Z</time></trkpt><trkpt lat="42.84443207520808" lon="13.618239250835025"><ele>111.75</ele><time>2026-04-05T15:32:25Z</time></trkpt><trkpt lat="42.84439839836711" lon="13.6184329405072"><ele>111.5</ele><time>2026-04-05T15:32:26Z</time></trkpt><trkpt lat="42.844365740390394" lon="13.618621543629063"><ele>111.25</ele><time>2026-04-05T15:32:27Z</time></trkpt><trkpt lat="42.84434137478474" lon="13.618783391282589"><ele>111.0</ele><time>2026-04-05T15:32:28Z</time></trkpt><trkpt lat="42.844320496384974" lon="13.61892636740859"><ele>111.6</ele><time>2026-04-05T15:32:29Z</time></trkpt><trkpt lat="42.84430028142281" lon="13.619048834170002"><ele>112.19999999999999</ele><time>2026-04-05T15:32:30Z</time></trkpt><trkpt lat="42.84427929675482" lon="13.619163525543488"><ele>112.80000000000001</ele><time>2026-04-05T15:32:31Z</time></trkpt><trkpt lat="42.84425854747639" lon="13.619296034946736"><ele>113.4</ele><time>2026-04-05T15:32:32Z</time></trkpt><trkpt lat="42.844236767456444" lon="13.619442767711137"><ele>114.0</ele><time>2026-04-05T15:32:33Z</time></trkpt><trkpt lat="42.84421335365894" lon="13.619602296931943"><ele>114.75</ele><time>2026-04-05T15:32:34Z</time></trkpt><trkpt lat="42.844183491421965" lon="13.61978258346385"><ele>115.5</ele><time>2026-04-05T15:32:35Z</time></trkpt><trkpt lat="42.84412786919589" lon="13.619967124897267"><ele>116.25</ele><time>2026-04-05T15:32:36Z</time></trkpt><trkpt lat="42.844079361835426" lon="13.620158103798792"><ele>117.0</ele><time>2026-04-05T15:32:37Z</time></trkpt><trkpt lat="42.8440317099014" lon="13.620361275366388"><ele>117.33333333333334</ele><time>2026-04-05T15:32:38Z</time></trkpt><trkpt lat="42.84397027732585" lon="13.620559733328022"><ele>117.66666666666667</ele><time>2026-04-05T15:32:39Z</time></trkpt><trkpt lat="42.843904302503596" lon="13.620776828463073"><ele>118.0</ele><time>2026-04-05T15:32:40Z</time></trkpt><trkpt lat="42.8438365695709" lon="13.620982207920388"><ele>117.75</ele><time>2026-04-05T15:32:41Z</time></trkpt><trkpt lat="42.84377665601454" lon="13.62117138409399"><ele>117.5</ele><time>2026-04-05T15:32:42Z</time></trkpt><trkpt lat="42.84372471521731" lon="13.621331607388091"><ele>117.25</ele><time>2026-04-05T15:32:43Z</time></trkpt><trkpt lat="42.84368097061143" lon="13.621481526950216"><ele>117.0</ele><time>2026-04-05T15:32:44Z</time></trkpt><trkpt lat="42.84364164856073" lon="13.621614355049733"><ele>117.0</ele><time>2026-04-05T15:32:45Z</time></trkpt><trkpt lat="42.84360921960419" lon="13.621720155084649"><ele>117.0</ele><time>2026-04-05T15:32:46Z</time></trkpt><trkpt lat="42.84358139898134" lon="13.621816762753404"><ele>117.0</ele><time>2026-04-05T15:32:47Z</time></trkpt><trkpt lat="42.843549281072136" lon="13.6219249628225"><ele>117.0</ele><time>2026-04-05T15:32:48Z</time></trkpt><trkpt lat="42.843512444917955" lon="13.62205018211712"><ele>117.0</ele><time>2026-04-05T15:32:49Z</time></trkpt><trkpt lat="42.843477203848586" lon="13.622181306844963"><ele>117.0</ele><time>2026-04-05T15:32:50Z</time></trkpt><trkpt lat="42.84345414533176" lon="13.62230927690817"><ele>117.66666666666667</ele><time>2026-04-05T15:32:51Z</time></trkpt><trkpt lat="42.84345553672324" lon="13.622418507664534"><ele>118.33333333333334</ele><time>2026-04-05T15:32:52Z</time></trkpt><trkpt lat="42.84345373106208" lon="13.622507088392762"><ele>119.0</ele><time>2026-04-05T15:32:53Z</time></trkpt><trkpt lat="42.84340692630984" lon="13.622627531327819"><ele>119.66666666666667</ele><time>2026-04-05T15:32:55Z</time></trkpt><trkpt lat="42.84332674568628" lon="13.622729140888028"><ele>120.33333333333334</ele><time>2026-04-05T15:32:57Z</time></trkpt><trkpt lat="42.84329924464685" lon="13.62280899230377"><ele>121.0</ele><time>2026-04-05T15:32:58Z</time></trkpt><trkpt lat="42.84330618586211" lon="13.622965599111762"><ele>121.0</ele><time>2026-04-05T15:33:00Z</time></trkpt><trkpt lat="42.84338420358727" lon="13.623064031530394"><ele>121.0</ele><time>2026-04-05T15:33:02Z</time></trkpt><trkpt lat="42.84350694825941" lon="13.623053306039772"><ele>121.0</ele><time>2026-04-05T15:33:04Z</time></trkpt><trkpt lat="42.84357287806215" lon="13.623009499093516"><ele>121.0</ele><time>2026-04-05T15:33:05Z</time></trkpt><trkpt lat="42.84363495574486" lon="13.622951639960421"><ele>121.0</ele><time>2026-04-05T15:33:06Z</time></trkpt><trkpt lat="42.843703641458106" lon="13.622922262825462"><ele>120.0</ele><time>2026-04-05T15:33:07Z</time></trkpt><trkpt lat="42.84377461744739" lon="13.622928082620787"><ele>119.0</ele><time>2026-04-05T15:33:08Z</time></trkpt><trkpt lat="42.84383782941083" lon="13.622946028712837"><ele>118.0</ele><time>2026-04-05T15:33:09Z</time></trkpt><trkpt lat="42.84393943341327" lon="13.622992231141458"><ele>117.0</ele><time>2026-04-05T15:33:11Z</time></trkpt><trkpt lat="42.844010838806014" lon="13.623071060623053"><ele>116.0</ele><time>2026-04-05T15:33:13Z</time></trkpt><trkpt lat="42.84406973931091" lon="13.623210933307867"><ele>116.0</ele><time>2026-04-05T15:33:15Z</time></trkpt><trkpt lat="42.844024422469325" lon="13.62335781498988"><ele>116.0</ele><time>2026-04-05T15:33:16Z</time></trkpt><trkpt lat="42.844006171341235" lon="13.623501713155964"><ele>116.0</ele><time>2026-04-05T15:33:17Z</time></trkpt><trkpt lat="42.84398723709811" lon="13.62366159646407"><ele>116.0</ele><time>2026-04-05T15:33:18Z</time></trkpt><trkpt lat="42.8439711490803" lon="13.623823824585795"><ele>115.5</ele><time>2026-04-05T15:33:19Z</time></trkpt><trkpt lat="42.843951841132885" lon="13.623999803032737"><ele>115.0</ele><time>2026-04-05T15:33:20Z</time></trkpt><trkpt lat="42.843932249003075" lon="13.624192077166706"><ele>114.5</ele><time>2026-04-05T15:33:21Z</time></trkpt><trkpt lat="42.84397727997171" lon="13.624411822234219"><ele>114.0</ele><time>2026-04-05T15:33:22Z</time></trkpt><trkpt lat="42.843929591932636" lon="13.624640707204069"><ele>113.66666666666666</ele><time>2026-04-05T15:33:23Z</time></trkpt><trkpt lat="42.843940835928066" lon="13.624884590408543"><ele>113.33333333333333</ele><time>2026-04-05T15:33:24Z</time></trkpt><trkpt lat="42.8439690496879" lon="13.625130486193477"><ele>113.0</ele><time>2026-04-05T15:33:25Z</time></trkpt><trkpt lat="42.84396434321888" lon="13.625380664088857"><ele>111.66666666666666</ele><time>2026-04-05T15:33:26Z</time></trkpt><trkpt lat="42.843978870171526" lon="13.625632614653465"><ele>110.33333333333334</ele><time>2026-04-05T15:33:27Z</time></trkpt><trkpt lat="42.84399534795417" lon="13.625883553476035"><ele>109.0</ele><time>2026-04-05T15:33:28Z</time></trkpt><trkpt lat="42.844013178239166" lon="13.62613960168736"><ele>109.0</ele><time>2026-04-05T15:33:29Z</time></trkpt><trkpt lat="42.84403125659594" lon="13.626393399280959"><ele>109.0</ele><time>2026-04-05T15:33:30Z</time></trkpt><trkpt lat="42.844043829175384" lon="13.626649473559864"><ele>109.0</ele><time>2026-04-05T15:33:31Z</time></trkpt><trkpt lat="42.844059929333795" lon="13.62690416113325"><ele>109.66666666666667</ele><time>2026-04-05T15:33:32Z</time></trkpt><trkpt lat="42.844081126008525" lon="13.627165391812433"><ele>110.33333333333334</ele><time>2026-04-05T15:33:33Z</time></trkpt><trkpt lat="42.844093970110606" lon="13.627424656121063"><ele>111.0</ele><time>2026-04-05T15:33:34Z</time></trkpt><trkpt lat="42.84411168213695" lon="13.627689757850915"><ele>111.0</ele><time>2026-04-05T15:33:35Z</time></trkpt><trkpt lat="42.84413302501895" lon="13.62795409508899"><ele>111.0</ele><time>2026-04-05T15:33:36Z</time></trkpt><trkpt lat="42.844158983639396" lon="13.628220941904294"><ele>111.0</ele><time>2026-04-05T15:33:37Z</time></trkpt><trkpt lat="42.84418865796804" lon="13.628488497460424"><ele>110.33333333333334</ele><time>2026-04-05T15:33:38Z</time></trkpt><trkpt lat="42.84421929315141" lon="13.62875237334604"><ele>109.66666666666667</ele><time>2026-04-05T15:33:39Z</time></trkpt><trkpt lat="42.844251350480555" lon="13.629017083342392"><ele>109.0</ele><time>2026-04-05T15:33:40Z</time></trkpt><trkpt lat="42.844287258272516" lon="13.629282864032614"><ele>108.66666666666667</ele><time>2026-04-05T15:33:41Z</time></trkpt><trkpt lat="42.84432767611584" lon="13.629546060040315"><ele>108.33333333333334</ele><time>2026-04-05T15:33:42Z</time></trkpt><trkpt lat="42.844373975672475" lon="13.629814345902412"><ele>108.0</ele><time>2026-04-05T15:33:43Z</time></trkpt><trkpt lat="42.844419367167724" lon="13.630078980507077"><ele>108.0</ele><time>2026-04-05T15:33:44Z</time></trkpt><trkpt lat="42.844465871264866" lon="13.630347838673588"><ele>108.0</ele><time>2026-04-05T15:33:45Z</time></trkpt><trkpt lat="42.844515295907065" lon="13.630619469388066"><ele>108.0</ele><time>2026-04-05T15:33:46Z</time></trkpt><trkpt lat="42.84456372274618" lon="13.630891663341192"><ele>107.66666666666666</ele><time>2026-04-05T15:33:47Z</time></trkpt><trkpt lat="42.84461141538723" lon="13.631164429008328"><ele>107.33333333333333</ele><time>2026-04-05T15:33:48Z</time></trkpt><trkpt lat="42.84465963920977" lon="13.631439232486871"><ele>107.0</ele><time>2026-04-05T15:33:49Z</time></trkpt><trkpt lat="42.844708139414344" lon="13.631714155308968"><ele>106.66666666666666</ele><time>2026-04-05T15:33:50Z</time></trkpt><trkpt lat="42.84475773932711" lon="13.631987810977536"><ele>106.33333333333334</ele><time>2026-04-05T15:33:51Z</time></trkpt><trkpt lat="42.84480660254722" lon="13.63226598655578"><ele>106.0</ele><time>2026-04-05T15:33:52Z</time></trkpt><trkpt lat="42.84485512158646" lon="13.632541130253506"><ele>105.33333333333334</ele><time>2026-04-05T15:33:53Z</time></trkpt><trkpt lat="42.8449022996905" lon="13.632817521594975"><ele>104.66666666666666</ele><time>2026-04-05T15:33:54Z</time></trkpt><trkpt lat="42.84494875712243" lon="13.633095923883806"><ele>104.0</ele><time>2026-04-05T15:33:55Z</time></trkpt><trkpt lat="42.84499669017997" lon="13.633379537192283"><ele>105.0</ele><time>2026-04-05T15:33:56Z</time></trkpt><trkpt lat="42.845044737745575" lon="13.633661046660098"><ele>106.0</ele><time>2026-04-05T15:33:57Z</time></trkpt><trkpt lat="42.84508814227379" lon="13.633950462301124"><ele>107.0</ele><time>2026-04-05T15:33:58Z</time></trkpt><trkpt lat="42.84511914221983" lon="13.634246737990559"><ele>105.33333333333333</ele><time>2026-04-05T15:33:59Z</time></trkpt><trkpt lat="42.84513880548868" lon="13.63454913727375"><ele>103.66666666666666</ele><time>2026-04-05T15:34:00Z</time></trkpt><trkpt lat="42.8451475997175" lon="13.634856000310698"><ele>102.0</ele><time>2026-04-05T15:34:01Z</time></trkpt><trkpt lat="42.845145436881644" lon="13.635164312507339"><ele>102.5</ele><time>2026-04-05T15:34:02Z</time></trkpt><trkpt lat="42.8451361152362" lon="13.635474247924252"><ele>103.0</ele><time>2026-04-05T15:34:03Z</time></trkpt><trkpt lat="42.84512101885897" lon="13.635786446979859"><ele>103.5</ele><time>2026-04-05T15:34:03.999Z</time></trkpt><trkpt lat="42.84510584893235" lon="13.636096657488412"><ele>104.0</ele><time>2026-04-05T15:34:04.999Z</time></trkpt><trkpt lat="42.84509017031307" lon="13.636405814072269"><ele>104.0</ele><time>2026-04-05T15:34:05.999Z</time></trkpt><trkpt lat="42.84507394930256" lon="13.636716348970685"><ele>104.0</ele><time>2026-04-05T15:34:06.999Z</time></trkpt><trkpt lat="42.84505723731084" lon="13.63702750037278"><ele>103.5</ele><time>2026-04-05T15:34:07.999Z</time></trkpt><trkpt lat="42.84503967673412" lon="13.637334629110194"><ele>103.0</ele><time>2026-04-05T15:34:08.999Z</time></trkpt><trkpt lat="42.84502319440134" lon="13.637643153452483"><ele>103.33333333333334</ele><time>2026-04-05T15:34:09.999Z</time></trkpt><trkpt lat="42.84500614333069" lon="13.63794915868895"><ele>103.66666666666666</ele><time>2026-04-05T15:34:10.999Z</time></trkpt><trkpt lat="42.844988448876606" lon="13.638252696646758"><ele>104.0</ele><time>2026-04-05T15:34:11.999Z</time></trkpt><trkpt lat="42.844969673834605" lon="13.638557265788332"><ele>103.66666666666666</ele><time>2026-04-05T15:34:12.999Z</time></trkpt><trkpt lat="42.844951976087096" lon="13.638861768408077"><ele>103.33333333333334</ele><time>2026-04-05T15:34:14Z</time></trkpt><trkpt lat="42.84493516663347" lon="13.639168237447524"><ele>103.0</ele><time>2026-04-05T15:34:15Z</time></trkpt><trkpt lat="42.844917531725564" lon="13.639473450681638"><ele>103.66666666666667</ele><time>2026-04-05T15:34:16Z</time></trkpt><trkpt lat="42.844901354969466" lon="13.639776797606036"><ele>104.33333333333334</ele><time>2026-04-05T15:34:17Z</time></trkpt><trkpt lat="42.844893900260615" lon="13.640072007646818"><ele>105.0</ele><time>2026-04-05T15:34:18Z</time></trkpt><trkpt lat="42.84489494502627" lon="13.640359258258831"><ele>105.0</ele><time>2026-04-05T15:34:19Z</time></trkpt><trkpt lat="42.84490584018168" lon="13.640650777669569"><ele>105.0</ele><time>2026-04-05T15:34:20Z</time></trkpt><trkpt lat="42.84492440332078" lon="13.640942957624082"><ele>105.0</ele><time>2026-04-05T15:34:21Z</time></trkpt><trkpt lat="42.84494741368095" lon="13.641239438904407"><ele>105.33333333333334</ele><time>2026-04-05T15:34:22Z</time></trkpt><trkpt lat="42.844974547129844" lon="13.64153568234313"><ele>105.66666666666667</ele><time>2026-04-05T15:34:23Z</time></trkpt><trkpt lat="42.84500428880547" lon="13.641830357839979"><ele>106.0</ele><time>2026-04-05T15:34:24Z</time></trkpt><trkpt lat="42.84503540661718" lon="13.642121928376753"><ele>106.0</ele><time>2026-04-05T15:34:25Z</time></trkpt><trkpt lat="42.84506659977096" lon="13.64241801067292"><ele>106.0</ele><time>2026-04-05T15:34:26Z</time></trkpt><trkpt lat="42.8451318082564" lon="13.643011560850228"><ele>104.33333333333334</ele><time>2026-04-05T15:34:28Z</time></trkpt><trkpt lat="42.84516827619436" lon="13.64331299917128"><ele>102.66666666666666</ele><time>2026-04-05T15:34:29Z</time></trkpt><trkpt lat="42.84519888285081" lon="13.643610988695729"><ele>101.0</ele><time>2026-04-05T15:34:30Z</time></trkpt><trkpt lat="42.845230326285595" lon="13.64391357008098"><ele>98.5</ele><time>2026-04-05T15:34:31Z</time></trkpt><trkpt lat="42.845261675486796" lon="13.644218504438758"><ele>96.0</ele><time>2026-04-05T15:34:32Z</time></trkpt><trkpt lat="42.845293828999694" lon="13.644524196237203"><ele>94.5</ele><time>2026-04-05T15:34:33Z</time></trkpt><trkpt lat="42.845326850184904" lon="13.644832201654461"><ele>93.0</ele><time>2026-04-05T15:34:34Z</time></trkpt><trkpt lat="42.84535997718898" lon="13.645136339491094"><ele>92.33333333333333</ele><time>2026-04-05T15:34:35Z</time></trkpt><trkpt lat="42.84539043751272" lon="13.645426034536495"><ele>91.66666666666666</ele><time>2026-04-05T15:34:36Z</time></trkpt><trkpt lat="42.84541712545738" lon="13.64565729797227"><ele>91.0</ele><time>2026-04-05T15:34:37Z</time></trkpt><trkpt lat="42.84544156232631" lon="13.64584763742908"><ele>91.0</ele><time>2026-04-05T15:34:38Z</time></trkpt><trkpt lat="42.8454585489965" lon="13.6459825466818"><ele>91.0</ele><time>2026-04-05T15:34:39Z</time></trkpt><trkpt lat="42.845473664308635" lon="13.646085532960354"><ele>91.0</ele><time>2026-04-05T15:34:40Z</time></trkpt><trkpt lat="42.84547897670172" lon="13.646221871957128"><ele>91.0</ele><time>2026-04-05T15:34:42Z</time></trkpt><trkpt lat="42.84568259729217" lon="13.646220242399686"><ele>91.19999999999999</ele><time>2026-04-05T15:34:44Z</time></trkpt><trkpt lat="42.84575873628416" lon="13.646246348551136"><ele>91.39999999999999</ele><time>2026-04-05T15:34:45Z</time></trkpt><trkpt lat="42.84584384686728" lon="13.646282395375641"><ele>91.6</ele><time>2026-04-05T15:34:46Z</time></trkpt><trkpt lat="42.845943243706856" lon="13.646337872246644"><ele>91.8</ele><time>2026-04-05T15:34:47Z</time></trkpt><trkpt lat="42.84605463164603" lon="13.646380649406767"><ele>92.0</ele><time>2026-04-05T15:34:48Z</time></trkpt><trkpt lat="42.84617397321581" lon="13.64644017483917"><ele>91.33333333333334</ele><time>2026-04-05T15:34:49Z</time></trkpt><trkpt lat="42.84629604488402" lon="13.646546213229762"><ele>90.66666666666667</ele><time>2026-04-05T15:34:50Z</time></trkpt><trkpt lat="42.8464430713618" lon="13.64663004528933"><ele>90.0</ele><time>2026-04-05T15:34:51Z</time></trkpt><trkpt lat="42.84658772989866" lon="13.646736627596823"><ele>90.0</ele><time>2026-04-05T15:34:52Z</time></trkpt><trkpt lat="42.846739804077345" lon="13.646846861223331"><ele>90.0</ele><time>2026-04-05T15:34:53Z</time></trkpt><trkpt lat="42.84689599012917" lon="13.646958391229871"><ele>90.0</ele><time>2026-04-05T15:34:54Z</time></trkpt><trkpt lat="42.84704827263033" lon="13.647068397825516"><ele>89.33333333333333</ele><time>2026-04-05T15:34:55Z</time></trkpt><trkpt lat="42.84719712754097" lon="13.647182166302441"><ele>88.66666666666666</ele><time>2026-04-05T15:34:56Z</time></trkpt><trkpt lat="42.8473557782494" lon="13.647286974496547"><ele>88.0</ele><time>2026-04-05T15:34:57Z</time></trkpt><trkpt lat="42.84750866540393" lon="13.647392828604726"><ele>86.33333333333333</ele><time>2026-04-05T15:34:58Z</time></trkpt><trkpt lat="42.84765755737914" lon="13.647505782551576"><ele>84.66666666666667</ele><time>2026-04-05T15:34:59Z</time></trkpt><trkpt lat="42.847806257245225" lon="13.6476130979601"><ele>83.0</ele><time>2026-04-05T15:35:00Z</time></trkpt><trkpt lat="42.847954390623315" lon="13.647721724507406"><ele>82.33333333333334</ele><time>2026-04-05T15:35:01Z</time></trkpt><trkpt lat="42.84810172704173" lon="13.647829389765853"><ele>81.66666666666667</ele><time>2026-04-05T15:35:02Z</time></trkpt><trkpt lat="42.84824749286267" lon="13.647933017373626"><ele>81.0</ele><time>2026-04-05T15:35:03Z</time></trkpt><trkpt lat="42.848392833423965" lon="13.648036188601958"><ele>81.0</ele><time>2026-04-05T15:35:04Z</time></trkpt><trkpt lat="42.84853926730515" lon="13.648140421942028"><ele>81.0</ele><time>2026-04-05T15:35:05Z</time></trkpt><trkpt lat="42.84868857598872" lon="13.648247332525425"><ele>81.0</ele><time>2026-04-05T15:35:06Z</time></trkpt><trkpt lat="42.84883355507469" lon="13.648362312565792"><ele>80.5</ele><time>2026-04-05T15:35:07Z</time></trkpt><trkpt lat="42.84909373588601" lon="13.64862847105662"><ele>80.0</ele><time>2026-04-05T15:35:09Z</time></trkpt><trkpt lat="42.849203086429945" lon="13.648792739627355"><ele>80.0</ele><time>2026-04-05T15:35:10Z</time></trkpt><trkpt lat="42.84929982211014" lon="13.648979965871888"><ele>80.0</ele><time>2026-04-05T15:35:11Z</time></trkpt><trkpt lat="42.84938367284064" lon="13.64917341574115"><ele>80.0</ele><time>2026-04-05T15:35:12Z</time></trkpt><trkpt lat="42.84945323898184" lon="13.649367001656822"><ele>79.8</ele><time>2026-04-05T15:35:13Z</time></trkpt><trkpt lat="42.84951629314532" lon="13.649528351225198"><ele>79.6</ele><time>2026-04-05T15:35:14Z</time></trkpt><trkpt lat="42.849581939723016" lon="13.649683119825127"><ele>79.4</ele><time>2026-04-05T15:35:15Z</time></trkpt><trkpt lat="42.84961832975201" lon="13.649782522521283"><ele>79.2</ele><time>2026-04-05T15:35:16Z</time></trkpt><trkpt lat="42.84965670642081" lon="13.649885439813994"><ele>79.0</ele><time>2026-04-05T15:35:17Z</time></trkpt><trkpt lat="42.8497028077688" lon="13.650007722167853"><ele>79.0</ele><time>2026-04-05T15:35:18Z</time></trkpt><trkpt lat="42.8497628574907" lon="13.650156078318972"><ele>79.0</ele><time>2026-04-05T15:35:19Z</time></trkpt><trkpt lat="42.84982876278565" lon="13.650315421318094"><ele>79.0</ele><time>2026-04-05T15:35:20Z</time></trkpt><trkpt lat="42.84989685321864" lon="13.650487733301755"><ele>79.0</ele><time>2026-04-05T15:35:21Z</time></trkpt><trkpt lat="42.84996851553414" lon="13.6506598811206"><ele>79.0</ele><time>2026-04-05T15:35:22Z</time></trkpt><trkpt lat="42.85003466389948" lon="13.650830918745863"><ele>79.0</ele><time>2026-04-05T15:35:23Z</time></trkpt><trkpt lat="42.850073460032384" lon="13.650991702888026"><ele>79.0</ele><time>2026-04-05T15:35:24Z</time></trkpt><trkpt lat="42.85013105282177" lon="13.651115218994166"><ele>79.0</ele><time>2026-04-05T15:35:25Z</time></trkpt><trkpt lat="42.85017994115756" lon="13.651240448201017"><ele>79.2</ele><time>2026-04-05T15:35:26Z</time></trkpt><trkpt lat="42.85022694762277" lon="13.651356093418798"><ele>79.4</ele><time>2026-04-05T15:35:27Z</time></trkpt><trkpt lat="42.850279494938924" lon="13.651484871729402"><ele>79.6</ele><time>2026-04-05T15:35:28Z</time></trkpt><trkpt lat="42.85032393844183" lon="13.651594910956318"><ele>79.8</ele><time>2026-04-05T15:35:29Z</time></trkpt><trkpt lat="42.85034439569008" lon="13.651705395228758"><ele>80.0</ele><time>2026-04-05T15:35:30Z</time></trkpt><trkpt lat="42.85036799824144" lon="13.651797545413112"><ele>80.0</ele><time>2026-04-05T15:35:31Z</time></trkpt><trkpt lat="42.850544807935584" lon="13.651823085469609"><ele>80.0</ele><time>2026-04-05T15:35:32Z</time></trkpt><trkpt lat="42.85064976966469" lon="13.651879910548466"><ele>80.0</ele><time>2026-04-05T15:35:33Z</time></trkpt><trkpt lat="42.85075501529184" lon="13.651918103534785"><ele>80.0</ele><time>2026-04-05T15:35:34Z</time></trkpt><trkpt lat="42.850856211603364" lon="13.651932273508049"><ele>79.83333333333334</ele><time>2026-04-05T15:35:35Z</time></trkpt><trkpt lat="42.85092972747068" lon="13.651961058917884"><ele>79.66666666666667</ele><time>2026-04-05T15:35:36Z</time></trkpt><trkpt lat="42.85101967702618" lon="13.651984417686789"><ele>79.5</ele><time>2026-04-05T15:35:40Z</time></trkpt><trkpt lat="42.851088942652616" lon="13.651932104697545"><ele>79.33333333333333</ele><time>2026-04-05T15:35:41Z</time></trkpt><trkpt lat="42.85116710563637" lon="13.651899498627605"><ele>79.16666666666666</ele><time>2026-04-05T15:35:42Z</time></trkpt><trkpt lat="42.85125684409863" lon="13.651856345826795"><ele>79.0</ele><time>2026-04-05T15:35:43Z</time></trkpt><trkpt lat="42.85135923823732" lon="13.651819367357977"><ele>79.0</ele><time>2026-04-05T15:35:44Z</time></trkpt><trkpt lat="42.85146536479507" lon="13.651807072101311"><ele>79.0</ele><time>2026-04-05T15:35:45Z</time></trkpt><trkpt lat="42.85156475304463" lon="13.651753391976746"><ele>79.0</ele><time>2026-04-05T15:35:46Z</time></trkpt><trkpt lat="42.85168175965067" lon="13.651739572384942"><ele>79.0</ele><time>2026-04-05T15:35:47Z</time></trkpt><trkpt lat="42.85180119095249" lon="13.651702350431911"><ele>78.75</ele><time>2026-04-05T15:35:48Z</time></trkpt><trkpt lat="42.851924781952384" lon="13.651664321678147"><ele>78.5</ele><time>2026-04-05T15:35:49Z</time></trkpt><trkpt lat="42.852051025818916" lon="13.651625514082848"><ele>78.25</ele><time>2026-04-05T15:35:50Z</time></trkpt><trkpt lat="42.85217186171186" lon="13.651588368906836"><ele>78.0</ele><time>2026-04-05T15:35:51Z</time></trkpt><trkpt lat="42.852287824555575" lon="13.651531937319007"><ele>78.0</ele><time>2026-04-05T15:35:52Z</time></trkpt><trkpt lat="42.85240371355765" lon="13.651495585375939"><ele>78.0</ele><time>2026-04-05T15:35:53Z</time></trkpt><trkpt lat="42.85251401506445" lon="13.651461788693576"><ele>78.0</ele><time>2026-04-05T15:35:54Z</time></trkpt><trkpt lat="42.85261756143755" lon="13.65143038739685"><ele>78.0</ele><time>2026-04-05T15:35:55Z</time></trkpt><trkpt lat="42.85272473964938" lon="13.65139806808978"><ele>78.0</ele><time>2026-04-05T15:35:56Z</time></trkpt><trkpt lat="42.85283269509984" lon="13.651362506136133"><ele>78.6</ele><time>2026-04-05T15:35:57Z</time></trkpt><trkpt lat="42.8529394069259" lon="13.651332656199784"><ele>79.19999999999999</ele><time>2026-04-05T15:35:58Z</time></trkpt><trkpt lat="42.85303818621158" lon="13.65130884759874"><ele>79.8</ele><time>2026-04-05T15:35:59Z</time></trkpt><trkpt lat="42.85312941847979" lon="13.651301271400877"><ele>80.39999999999999</ele><time>2026-04-05T15:36:00Z</time></trkpt><trkpt lat="42.853219887493786" lon="13.651310904606946"><ele>81.0</ele><time>2026-04-05T15:36:01Z</time></trkpt><trkpt lat="42.85331762214812" lon="13.651355836849639"><ele>81.0</ele><time>2026-04-05T15:36:02Z</time></trkpt><trkpt lat="42.85339226573544" lon="13.651435517234795"><ele>81.0</ele><time>2026-04-05T15:36:03Z</time></trkpt><trkpt lat="42.85344863020106" lon="13.651556011569893"><ele>81.0</ele><time>2026-04-05T15:36:03.999Z</time></trkpt><trkpt lat="42.853462728970484" lon="13.651700677222115"><ele>81.0</ele><time>2026-04-05T15:36:04.999Z</time></trkpt><trkpt lat="42.85347506439195" lon="13.65186155870739"><ele>81.0</ele><time>2026-04-05T15:36:05.999Z</time></trkpt><trkpt lat="42.853499564560366" lon="13.652035543120059"><ele>85.75</ele><time>2026-04-05T15:36:06.999Z</time></trkpt><trkpt lat="42.8535167287203" lon="13.652225151415537"><ele>90.5</ele><time>2026-04-05T15:36:07.999Z</time></trkpt><trkpt lat="42.85353587429493" lon="13.652414024449259"><ele>95.25</ele><time>2026-04-05T15:36:08.999Z</time></trkpt><trkpt lat="42.85355151794524" lon="13.652601943557329"><ele>100.0</ele><time>2026-04-05T15:36:09.999Z</time></trkpt><trkpt lat="42.8535684694483" lon="13.65277407604705"><ele>100.4</ele><time>2026-04-05T15:36:10.999Z</time></trkpt><trkpt lat="42.85358333604248" lon="13.652926485080133"><ele>100.8</ele><time>2026-04-05T15:36:11.999Z</time></trkpt><trkpt lat="42.85359790353684" lon="13.65307191125581"><ele>101.19999999999999</ele><time>2026-04-05T15:36:12.999Z</time></trkpt><trkpt lat="42.85361215650933" lon="13.653222445454174"><ele>101.6</ele><time>2026-04-05T15:36:13.999Z</time></trkpt><trkpt lat="42.85362482416661" lon="13.653372054727772"><ele>102.0</ele><time>2026-04-05T15:36:14.999Z</time></trkpt><trkpt lat="42.85363527005178" lon="13.653519970246522"><ele>102.6</ele><time>2026-04-05T15:36:15.999Z</time></trkpt><trkpt lat="42.853645790912026" lon="13.65366370268456"><ele>103.19999999999999</ele><time>2026-04-05T15:36:16.999Z</time></trkpt><trkpt lat="42.853657755998" lon="13.653800606068573"><ele>103.8</ele><time>2026-04-05T15:36:17.999Z</time></trkpt><trkpt lat="42.8536665549989" lon="13.653927611764503"><ele>104.4</ele><time>2026-04-05T15:36:18.999Z</time></trkpt><trkpt lat="42.85367619912393" lon="13.654061652666416"><ele>105.0</ele><time>2026-04-05T15:36:20Z</time></trkpt><trkpt lat="42.85368721404811" lon="13.65418979377329"><ele>105.0</ele><time>2026-04-05T15:36:21Z</time></trkpt><trkpt lat="42.853697851103426" lon="13.654306867425948"><ele>105.0</ele><time>2026-04-05T15:36:22Z</time></trkpt><trkpt lat="42.853721491476826" lon="13.654412671325703"><ele>105.0</ele><time>2026-04-05T15:36:23Z</time></trkpt><trkpt lat="42.85375053277261" lon="13.654516215258257"><ele>105.0</ele><time>2026-04-05T15:36:24Z</time></trkpt><trkpt lat="42.85376419085556" lon="13.6546370868344"><ele>105.0</ele><time>2026-04-05T15:36:25Z</time></trkpt><trkpt lat="42.85376090535943" lon="13.654784388856912"><ele>105.0</ele><time>2026-04-05T15:36:26Z</time></trkpt><trkpt lat="42.85374265799185" lon="13.65495626960001"><ele>106.25</ele><time>2026-04-05T15:36:27Z</time></trkpt><trkpt lat="42.853728281225706" lon="13.655137362439785"><ele>107.5</ele><time>2026-04-05T15:36:28Z</time></trkpt><trkpt lat="42.85371550254264" lon="13.655323479340842"><ele>108.75</ele><time>2026-04-05T15:36:29Z</time></trkpt><trkpt lat="42.8537002778262" lon="13.655506318864044"><ele>110.0</ele><time>2026-04-05T15:36:30Z</time></trkpt><trkpt lat="42.853671723508995" lon="13.655689013755946"><ele>110.25</ele><time>2026-04-05T15:36:31Z</time></trkpt><trkpt lat="42.8536257879799" lon="13.655864004300739"><ele>110.5</ele><time>2026-04-05T15:36:32Z</time></trkpt><trkpt lat="42.85356774130919" lon="13.656015480960876"><ele>110.75</ele><time>2026-04-05T15:36:33Z</time></trkpt><trkpt lat="42.85351285150137" lon="13.656154552892264"><ele>111.0</ele><time>2026-04-05T15:36:34Z</time></trkpt><trkpt lat="42.85346475323257" lon="13.65630064324751"><ele>105.75</ele><time>2026-04-05T15:36:35Z</time></trkpt><trkpt lat="42.85343275458945" lon="13.656464678622903"><ele>100.5</ele><time>2026-04-05T15:36:36Z</time></trkpt><trkpt lat="42.853418480277" lon="13.65664296883894"><ele>95.25</ele><time>2026-04-05T15:36:37Z</time></trkpt><trkpt lat="42.85342645016802" lon="13.65683410017969"><ele>90.0</ele><time>2026-04-05T15:36:38Z</time></trkpt><trkpt lat="42.85344096373035" lon="13.657028985312856"><ele>94.5</ele><time>2026-04-05T15:36:39Z</time></trkpt><trkpt lat="42.85345697765562" lon="13.657218714291114"><ele>99.0</ele><time>2026-04-05T15:36:40Z</time></trkpt><trkpt lat="42.85346690902768" lon="13.657395732427283"><ele>103.5</ele><time>2026-04-05T15:36:41Z</time></trkpt><trkpt lat="42.85347427602669" lon="13.657579181723477"><ele>108.0</ele><time>2026-04-05T15:36:42Z</time></trkpt><trkpt lat="42.85348759915045" lon="13.6577650778879"><ele>107.5</ele><time>2026-04-05T15:36:43Z</time></trkpt><trkpt lat="42.85350086801545" lon="13.657950950134678"><ele>107.0</ele><time>2026-04-05T15:36:44Z</time></trkpt><trkpt lat="42.85351328260628" lon="13.658128654628527"><ele>106.5</ele><time>2026-04-05T15:36:45Z</time></trkpt><trkpt lat="42.85352626294048" lon="13.658301657465604"><ele>106.0</ele><time>2026-04-05T15:36:46Z</time></trkpt><trkpt lat="42.85354402769052" lon="13.658476359087183"><ele>104.5</ele><time>2026-04-05T15:36:47Z</time></trkpt><trkpt lat="42.853568699823" lon="13.658640074956049"><ele>103.0</ele><time>2026-04-05T15:36:48Z</time></trkpt><trkpt lat="42.85360112854447" lon="13.658796803344298"><ele>101.5</ele><time>2026-04-05T15:36:49Z</time></trkpt><trkpt lat="42.853635216187755" lon="13.65896100488006"><ele>100.0</ele><time>2026-04-05T15:36:50Z</time></trkpt><trkpt lat="42.85370758435988" lon="13.65911156878667"><ele>100.0</ele><time>2026-04-05T15:36:51Z</time></trkpt><trkpt lat="42.85377135545575" lon="13.659259831675813"><ele>100.0</ele><time>2026-04-05T15:36:52Z</time></trkpt><trkpt lat="42.85383732900684" lon="13.659413593338162"><ele>100.0</ele><time>2026-04-05T15:36:53Z</time></trkpt><trkpt lat="42.85390263300982" lon="13.659574067360387"><ele>100.0</ele><time>2026-04-05T15:36:54Z</time></trkpt><trkpt lat="42.85395899476401" lon="13.659740504924624"><ele>97.75</ele><time>2026-04-05T15:36:55Z</time></trkpt><trkpt lat="42.854006706640774" lon="13.659920946030624"><ele>95.5</ele><time>2026-04-05T15:36:56Z</time></trkpt><trkpt lat="42.854043710385454" lon="13.660118009313852"><ele>93.25</ele><time>2026-04-05T15:36:57Z</time></trkpt><trkpt lat="42.85407525839704" lon="13.66031681014455"><ele>91.0</ele><time>2026-04-05T15:36:58Z</time></trkpt><trkpt lat="42.8540973906122" lon="13.660508153534373"><ele>90.25</ele><time>2026-04-05T15:36:59Z</time></trkpt><trkpt lat="42.85411721229081" lon="13.660682918273967"><ele>89.5</ele><time>2026-04-05T15:37:00Z</time></trkpt><trkpt lat="42.85413518240885" lon="13.6608429884376"><ele>88.75</ele><time>2026-04-05T15:37:01Z</time></trkpt><trkpt lat="42.854154125290535" lon="13.660997505522193"><ele>88.0</ele><time>2026-04-05T15:37:02Z</time></trkpt><trkpt lat="42.85418129745061" lon="13.6611691583514"><ele>88.25</ele><time>2026-04-05T15:37:03Z</time></trkpt><trkpt lat="42.854228681201334" lon="13.661361352979622"><ele>88.5</ele><time>2026-04-05T15:37:04Z</time></trkpt><trkpt lat="42.85428956777293" lon="13.66154941634585"><ele>88.75</ele><time>2026-04-05T15:37:05Z</time></trkpt><trkpt lat="42.854334579321595" lon="13.661725335600007"><ele>89.0</ele><time>2026-04-05T15:37:06Z</time></trkpt><trkpt lat="42.854397674480815" lon="13.661904730944109"><ele>88.33333333333334</ele><time>2026-04-05T15:37:07Z</time></trkpt><trkpt lat="42.85446664201727" lon="13.662087711363098"><ele>87.66666666666667</ele><time>2026-04-05T15:37:08Z</time></trkpt><trkpt lat="42.85455258915855" lon="13.662259145892614"><ele>87.0</ele><time>2026-04-05T15:37:09Z</time></trkpt><trkpt lat="42.85460722050871" lon="13.66244666580973"><ele>87.0</ele><time>2026-04-05T15:37:10Z</time></trkpt><trkpt lat="42.85467161914513" lon="13.662608401108907"><ele>87.0</ele><time>2026-04-05T15:37:11Z</time></trkpt><trkpt lat="42.8547557402641" lon="13.662747833650485"><ele>87.0</ele><time>2026-04-05T15:37:12Z</time></trkpt><trkpt lat="42.85483315035302" lon="13.662896168363266"><ele>87.0</ele><time>2026-04-05T15:37:13Z</time></trkpt><trkpt lat="42.854899431022005" lon="13.663050840601263"><ele>87.5</ele><time>2026-04-05T15:37:14Z</time></trkpt><trkpt lat="42.854981128762844" lon="13.66318708238549"><ele>88.0</ele><time>2026-04-05T15:37:15Z</time></trkpt><trkpt lat="42.85506483792404" lon="13.663321383368924"><ele>88.5</ele><time>2026-04-05T15:37:16Z</time></trkpt><trkpt lat="42.85510427711002" lon="13.663492824646216"><ele>89.0</ele><time>2026-04-05T15:37:17Z</time></trkpt><trkpt lat="42.85512311991902" lon="13.663668013632002"><ele>89.0</ele><time>2026-04-05T15:37:18Z</time></trkpt><trkpt lat="42.85512807945747" lon="13.663859815298098"><ele>89.0</ele><time>2026-04-05T15:37:19Z</time></trkpt><trkpt lat="42.85513212712488" lon="13.664088823524796"><ele>89.0</ele><time>2026-04-05T15:37:20Z</time></trkpt><trkpt lat="42.855136545017295" lon="13.66435308562873"><ele>88.0</ele><time>2026-04-05T15:37:21Z</time></trkpt><trkpt lat="42.855141132808214" lon="13.664636851428016"><ele>87.0</ele><time>2026-04-05T15:37:22Z</time></trkpt><trkpt lat="42.85514578142793" lon="13.6649072303327"><ele>86.0</ele><time>2026-04-05T15:37:23Z</time></trkpt><trkpt lat="42.85516536535603" lon="13.665148075231471"><ele>85.75</ele><time>2026-04-05T15:37:24Z</time></trkpt><trkpt lat="42.85516394719787" lon="13.665354931075266"><ele>85.5</ele><time>2026-04-05T15:37:25Z</time></trkpt><trkpt lat="42.85516862348259" lon="13.66553705195293"><ele>85.25</ele><time>2026-04-05T15:37:26Z</time></trkpt><trkpt lat="42.85518955092494" lon="13.665730486973464"><ele>85.0</ele><time>2026-04-05T15:37:27Z</time></trkpt><trkpt lat="42.85525094458471" lon="13.66593577124876"><ele>85.33333333333333</ele><time>2026-04-05T15:37:28Z</time></trkpt><trkpt lat="42.855327368436654" lon="13.66614336041278"><ele>85.66666666666667</ele><time>2026-04-05T15:37:29Z</time></trkpt><trkpt lat="42.85539579319617" lon="13.666365106647174"><ele>86.0</ele><time>2026-04-05T15:37:30Z</time></trkpt><trkpt lat="42.85546848103846" lon="13.666584413019027"><ele>86.0</ele><time>2026-04-05T15:37:31Z</time></trkpt><trkpt lat="42.85553393338091" lon="13.666818428767119"><ele>86.0</ele><time>2026-04-05T15:37:32Z</time></trkpt><trkpt lat="42.855600102337654" lon="13.66705334577405"><ele>86.0</ele><time>2026-04-05T15:37:33Z</time></trkpt><trkpt lat="42.85563422331443" lon="13.66730960720759"><ele>85.66666666666667</ele><time>2026-04-05T15:37:34Z</time></trkpt><trkpt lat="42.855654402112066" lon="13.667561656191646"><ele>85.33333333333333</ele><time>2026-04-05T15:37:35Z</time></trkpt><trkpt lat="42.85569562018059" lon="13.667790461712833"><ele>85.0</ele><time>2026-04-05T15:37:36Z</time></trkpt><trkpt lat="42.85576358561196" lon="13.667983840535346"><ele>84.33333333333333</ele><time>2026-04-05T15:37:37Z</time></trkpt><trkpt lat="42.85581222942618" lon="13.668187252304572"><ele>83.66666666666667</ele><time>2026-04-05T15:37:38Z</time></trkpt><trkpt lat="42.8558515360433" lon="13.66838966611805"><ele>83.0</ele><time>2026-04-05T15:37:39Z</time></trkpt><trkpt lat="42.85587632166398" lon="13.668612428283934"><ele>82.33333333333334</ele><time>2026-04-05T15:37:40Z</time></trkpt><trkpt lat="42.85584046835801" lon="13.668837894338624"><ele>81.66666666666667</ele><time>2026-04-05T15:37:41Z</time></trkpt><trkpt lat="42.85581417142008" lon="13.669076571740458"><ele>81.0</ele><time>2026-04-05T15:37:42Z</time></trkpt><trkpt lat="42.85576213585466" lon="13.669309323217243"><ele>81.0</ele><time>2026-04-05T15:37:43Z</time></trkpt><trkpt lat="42.85572127682726" lon="13.66955734547096"><ele>81.0</ele><time>2026-04-05T15:37:44Z</time></trkpt><trkpt lat="42.855703998219305" lon="13.66981783675898"><ele>81.0</ele><time>2026-04-05T15:37:45Z</time></trkpt><trkpt lat="42.85570094072034" lon="13.670082744658307"><ele>81.33333333333333</ele><time>2026-04-05T15:37:46Z</time></trkpt><trkpt lat="42.855704875294954" lon="13.670346170309587"><ele>81.66666666666666</ele><time>2026-04-05T15:37:47Z</time></trkpt><trkpt lat="42.85571065178151" lon="13.670611204664432"><ele>82.0</ele><time>2026-04-05T15:37:48Z</time></trkpt><trkpt lat="42.855710920050285" lon="13.67087365304564"><ele>81.0</ele><time>2026-04-05T15:37:49Z</time></trkpt><trkpt lat="42.85570936286333" lon="13.671132469737428"><ele>80.0</ele><time>2026-04-05T15:37:50Z</time></trkpt><trkpt lat="42.85569542611676" lon="13.671392435390965"><ele>79.0</ele><time>2026-04-05T15:37:51Z</time></trkpt><trkpt lat="42.85566152080718" lon="13.671643649237575"><ele>79.0</ele><time>2026-04-05T15:37:52Z</time></trkpt><trkpt lat="42.85561535326895" lon="13.671891617862201"><ele>79.0</ele><time>2026-04-05T15:37:53Z</time></trkpt><trkpt lat="42.85556203422425" lon="13.672113836463678"><ele>79.0</ele><time>2026-04-05T15:37:54Z</time></trkpt><trkpt lat="42.85549808028057" lon="13.67232269384563"><ele>79.33333333333333</ele><time>2026-04-05T15:37:55Z</time></trkpt><trkpt lat="42.855404588089186" lon="13.672513483993619"><ele>79.66666666666667</ele><time>2026-04-05T15:37:56Z</time></trkpt><trkpt lat="42.85528797303113" lon="13.672695169770996"><ele>80.0</ele><time>2026-04-05T15:37:57Z</time></trkpt><trkpt lat="42.85513784075031" lon="13.672861829667449"><ele>79.0</ele><time>2026-04-05T15:37:58Z</time></trkpt><trkpt lat="42.85497978951391" lon="13.673019501899192"><ele>78.0</ele><time>2026-04-05T15:37:59Z</time></trkpt><trkpt lat="42.854836892086084" lon="13.673191683832593"><ele>77.0</ele><time>2026-04-05T15:38:00Z</time></trkpt><trkpt lat="42.85470576184312" lon="13.673385598797772"><ele>77.0</ele><time>2026-04-05T15:38:01Z</time></trkpt><trkpt lat="42.85458730672391" lon="13.673603129124935"><ele>77.0</ele><time>2026-04-05T15:38:02Z</time></trkpt><trkpt lat="42.85447682089053" lon="13.673825644714569"><ele>77.0</ele><time>2026-04-05T15:38:03Z</time></trkpt><trkpt lat="42.85437894020117" lon="13.674029070190056"><ele>77.5</ele><time>2026-04-05T15:38:04Z</time></trkpt><trkpt lat="42.85429640289336" lon="13.67420815883068"><ele>78.0</ele><time>2026-04-05T15:38:05Z</time></trkpt><trkpt lat="42.85422943581501" lon="13.674367052749174"><ele>78.5</ele><time>2026-04-05T15:38:06Z</time></trkpt><trkpt lat="42.85418393372578" lon="13.674533379655623"><ele>79.0</ele><time>2026-04-05T15:38:07Z</time></trkpt><trkpt lat="42.85416533127342" lon="13.674718269351281"><ele>80.33333333333333</ele><time>2026-04-05T15:38:08Z</time></trkpt><trkpt lat="42.85416754876331" lon="13.674929344109344"><ele>81.66666666666667</ele><time>2026-04-05T15:38:09Z</time></trkpt><trkpt lat="42.854172831020215" lon="13.675156832524271"><ele>83.0</ele><time>2026-04-05T15:38:09.999Z</time></trkpt><trkpt lat="42.85417664419331" lon="13.67539541592811"><ele>83.33333333333334</ele><time>2026-04-05T15:38:10.999Z</time></trkpt><trkpt lat="42.8541855010608" lon="13.67564974641286"><ele>83.66666666666667</ele><time>2026-04-05T15:38:11.999Z</time></trkpt><trkpt lat="42.85419563564215" lon="13.67591639223246"><ele>84.0</ele><time>2026-04-05T15:38:12.999Z</time></trkpt><trkpt lat="42.85421014372621" lon="13.6761909556822"><ele>82.66666666666667</ele><time>2026-04-05T15:38:13.999Z</time></trkpt><trkpt lat="42.854230902092965" lon="13.676475055225131"><ele>81.33333333333334</ele><time>2026-04-05T15:38:14.999Z</time></trkpt><trkpt lat="42.85425850148568" lon="13.676768690840717"><ele>80.0</ele><time>2026-04-05T15:38:15.999Z</time></trkpt><trkpt lat="42.85428607423741" lon="13.677065501761229"><ele>79.66666666666667</ele><time>2026-04-05T15:38:16.999Z</time></trkpt><trkpt lat="42.8543112549703" lon="13.677364536305094"><ele>79.33333333333333</ele><time>2026-04-05T15:38:17.999Z</time></trkpt><trkpt lat="42.854337020933066" lon="13.677665136109967"><ele>79.0</ele><time>2026-04-05T15:38:18.999Z</time></trkpt><trkpt lat="42.85436290166817" lon="13.677969732568686"><ele>80.5</ele><time>2026-04-05T15:38:19.999Z</time></trkpt><trkpt lat="42.85438649924525" lon="13.678280005007341"><ele>82.0</ele><time>2026-04-05T15:38:20.999Z</time></trkpt><trkpt lat="42.85441040143076" lon="13.678593971193793"><ele>81.0</ele><time>2026-04-05T15:38:21.999Z</time></trkpt><trkpt lat="42.854438299411704" lon="13.678909354123565"><ele>80.0</ele><time>2026-04-05T15:38:22.999Z</time></trkpt><trkpt lat="42.85446731587278" lon="13.679223288092539"><ele>79.5</ele><time>2026-04-05T15:38:23.999Z</time></trkpt><trkpt lat="42.85449812660931" lon="13.679536691348158"><ele>79.0</ele><time>2026-04-05T15:38:24.999Z</time></trkpt><trkpt lat="42.85451897027798" lon="13.679848792419621"><ele>79.0</ele><time>2026-04-05T15:38:26Z</time></trkpt><trkpt lat="42.85451796554217" lon="13.680148271318304"><ele>79.0</ele><time>2026-04-05T15:38:27Z</time></trkpt><trkpt lat="42.854499693575946" lon="13.680443229313974"><ele>79.0</ele><time>2026-04-05T15:38:28Z</time></trkpt><trkpt lat="42.85446210276769" lon="13.680712749172027"><ele>79.0</ele><time>2026-04-05T15:38:29Z</time></trkpt><trkpt lat="42.85442382745469" lon="13.68096272704196"><ele>79.0</ele><time>2026-04-05T15:38:30Z</time></trkpt><trkpt lat="42.854406359098164" lon="13.681205625347447"><ele>79.0</ele><time>2026-04-05T15:38:31Z</time></trkpt><trkpt lat="42.85441617864437" lon="13.681458775300198"><ele>78.66666666666666</ele><time>2026-04-05T15:38:32Z</time></trkpt><trkpt lat="42.85444818682894" lon="13.681721480982725"><ele>78.33333333333333</ele><time>2026-04-05T15:38:33Z</time></trkpt><trkpt lat="42.85449683894045" lon="13.681993948773997"><ele>78.0</ele><time>2026-04-05T15:38:34Z</time></trkpt><trkpt lat="42.85454714659365" lon="13.682272079994707"><ele>78.33333333333333</ele><time>2026-04-05T15:38:35Z</time></trkpt><trkpt lat="42.85459285482114" lon="13.682549920516662"><ele>78.66666666666666</ele><time>2026-04-05T15:38:36Z</time></trkpt><trkpt lat="42.854638420218386" lon="13.682830316160013"><ele>79.0</ele><time>2026-04-05T15:38:37Z</time></trkpt><trkpt lat="42.8546870505343" lon="13.683111046171092"><ele>79.0</ele><time>2026-04-05T15:38:38Z</time></trkpt><trkpt lat="42.8547352033384" lon="13.683393724587182"><ele>79.0</ele><time>2026-04-05T15:38:39Z</time></trkpt><trkpt lat="42.85478183187952" lon="13.683679100115615"><ele>79.0</ele><time>2026-04-05T15:38:40Z</time></trkpt><trkpt lat="42.85482947976609" lon="13.683964047327505"><ele>79.0</ele><time>2026-04-05T15:38:41Z</time></trkpt><trkpt lat="42.85487659652001" lon="13.684249728212587"><ele>79.0</ele><time>2026-04-05T15:38:42Z</time></trkpt><trkpt lat="42.85492545717668" lon="13.684536457046432"><ele>79.0</ele><time>2026-04-05T15:38:43Z</time></trkpt><trkpt lat="42.85497416600896" lon="13.68482263851064"><ele>78.33333333333333</ele><time>2026-04-05T15:38:44Z</time></trkpt><trkpt lat="42.85502209613769" lon="13.68510627726427"><ele>77.66666666666667</ele><time>2026-04-05T15:38:45Z</time></trkpt><trkpt lat="42.85506961484374" lon="13.685389916355277"><ele>77.0</ele><time>2026-04-05T15:38:46Z</time></trkpt><trkpt lat="42.85511851761179" lon="13.685674683746681"><ele>77.0</ele><time>2026-04-05T15:38:47Z</time></trkpt><trkpt lat="42.8551663325144" lon="13.685954733066149"><ele>77.0</ele><time>2026-04-05T15:38:48Z</time></trkpt><trkpt lat="42.8552118221994" lon="13.686231943979285"><ele>77.0</ele><time>2026-04-05T15:38:49Z</time></trkpt><trkpt lat="42.85525561880809" lon="13.6865000075513"><ele>77.0</ele><time>2026-04-05T15:38:50Z</time></trkpt><trkpt lat="42.85530090786173" lon="13.686759975371531"><ele>77.0</ele><time>2026-04-05T15:38:51Z</time></trkpt><trkpt lat="42.855345107365345" lon="13.687014765930229"><ele>77.0</ele><time>2026-04-05T15:38:52Z</time></trkpt><trkpt lat="42.85539079926275" lon="13.687267405399169"><ele>76.33333333333334</ele><time>2026-04-05T15:38:53Z</time></trkpt><trkpt lat="42.8554422114532" lon="13.687519398589751"><ele>75.66666666666667</ele><time>2026-04-05T15:38:54Z</time></trkpt><trkpt lat="42.85550617821805" lon="13.687770099720273"><ele>75.0</ele><time>2026-04-05T15:38:55Z</time></trkpt><trkpt lat="42.85558108034103" lon="13.688018335360383"><ele>75.0</ele><time>2026-04-05T15:38:56Z</time></trkpt><trkpt lat="42.85565929179949" lon="13.688268737461225"><ele>75.0</ele><time>2026-04-05T15:38:57Z</time></trkpt><trkpt lat="42.85573885687931" lon="13.68851836776445"><ele>75.0</ele><time>2026-04-05T15:38:58Z</time></trkpt><trkpt lat="42.85581800274472" lon="13.688764546249628"><ele>75.33333333333333</ele><time>2026-04-05T15:38:59Z</time></trkpt><trkpt lat="42.855892281234745" lon="13.689001348622504"><ele>75.66666666666666</ele><time>2026-04-05T15:39:00Z</time></trkpt><trkpt lat="42.855969230868055" lon="13.689248096418982"><ele>76.0</ele><time>2026-04-05T15:39:01Z</time></trkpt><trkpt lat="42.85604665834475" lon="13.689494952371353"><ele>76.33333333333333</ele><time>2026-04-05T15:39:02Z</time></trkpt><trkpt lat="42.85612733411716" lon="13.689740591423185"><ele>76.66666666666667</ele><time>2026-04-05T15:39:03Z</time></trkpt><trkpt lat="42.85619802340706" lon="13.690015572033293"><ele>77.0</ele><time>2026-04-05T15:39:04Z</time></trkpt><trkpt lat="42.85628903998443" lon="13.69030488009497"><ele>77.0</ele><time>2026-04-05T15:39:05Z</time></trkpt><trkpt lat="42.85638550809082" lon="13.69061036247618"><ele>77.0</ele><time>2026-04-05T15:39:06Z</time></trkpt><trkpt lat="42.85648385925891" lon="13.690923797519197"><ele>77.0</ele><time>2026-04-05T15:39:07Z</time></trkpt><trkpt lat="42.856580303908174" lon="13.69122616692263"><ele>77.0</ele><time>2026-04-05T15:39:08Z</time></trkpt><trkpt lat="42.8566908183748" lon="13.691578459750724"><ele>77.0</ele><time>2026-04-05T15:39:09Z</time></trkpt><trkpt lat="42.856806182956724" lon="13.691887468419004"><ele>77.0</ele><time>2026-04-05T15:39:10Z</time></trkpt><trkpt lat="42.85688814287905" lon="13.692210499701636"><ele>77.5</ele><time>2026-04-05T15:39:11Z</time></trkpt><trkpt lat="42.85698576043032" lon="13.692516846238398"><ele>78.0</ele><time>2026-04-05T15:39:12Z</time></trkpt><trkpt lat="42.857092416536496" lon="13.69280147129748"><ele>78.66666666666667</ele><time>2026-04-05T15:39:13Z</time></trkpt><trkpt lat="42.85716681676956" lon="13.693091887554806"><ele>79.33333333333334</ele><time>2026-04-05T15:39:14Z</time></trkpt><trkpt lat="42.8572516434704" lon="13.693361348941297"><ele>80.0</ele><time>2026-04-05T15:39:15Z</time></trkpt><trkpt lat="42.85733044797585" lon="13.693615782384043"><ele>80.33333333333334</ele><time>2026-04-05T15:39:16Z</time></trkpt><trkpt lat="42.85740723990673" lon="13.69386267714985"><ele>80.66666666666667</ele><time>2026-04-05T15:39:17Z</time></trkpt><trkpt lat="42.85749619376032" lon="13.694091775156155"><ele>81.0</ele><time>2026-04-05T15:39:18Z</time></trkpt><trkpt lat="42.85756981124344" lon="13.69432533327037"><ele>80.0</ele><time>2026-04-05T15:39:19Z</time></trkpt><trkpt lat="42.85764245419522" lon="13.694561946627504"><ele>79.0</ele><time>2026-04-05T15:39:20Z</time></trkpt><trkpt lat="42.85771444640784" lon="13.69479469969403"><ele>78.0</ele><time>2026-04-05T15:39:21Z</time></trkpt><trkpt lat="42.8577833621626" lon="13.695027510490103"><ele>76.0</ele><time>2026-04-05T15:39:22Z</time></trkpt><trkpt lat="42.85786045466574" lon="13.69526135567357"><ele>74.0</ele><time>2026-04-05T15:39:23Z</time></trkpt><trkpt lat="42.857941099491896" lon="13.695499911120413"><ele>72.0</ele><time>2026-04-05T15:39:24Z</time></trkpt><trkpt lat="42.85802351392501" lon="13.695740639336664"><ele>72.0</ele><time>2026-04-05T15:39:25Z</time></trkpt><trkpt lat="42.8581090078452" lon="13.695986997501873"><ele>72.0</ele><time>2026-04-05T15:39:26Z</time></trkpt><trkpt lat="42.85819132268137" lon="13.69624095825838"><ele>72.0</ele><time>2026-04-05T15:39:27Z</time></trkpt><trkpt lat="42.858264166545105" lon="13.696499953928699"><ele>70.66666666666667</ele><time>2026-04-05T15:39:28Z</time></trkpt><trkpt lat="42.85833853195678" lon="13.69676233251393"><ele>69.33333333333334</ele><time>2026-04-05T15:39:29Z</time></trkpt><trkpt lat="42.85840580508258" lon="13.697007946473164"><ele>68.0</ele><time>2026-04-05T15:39:30Z</time></trkpt><trkpt lat="42.85846727266766" lon="13.69723616718864"><ele>68.0</ele><time>2026-04-05T15:39:31Z</time></trkpt><trkpt lat="42.85852842622165" lon="13.697460711607098"><ele>68.0</ele><time>2026-04-05T15:39:32Z</time></trkpt><trkpt lat="42.858594717337496" lon="13.697691002042353"><ele>68.0</ele><time>2026-04-05T15:39:33Z</time></trkpt><trkpt lat="42.85866410781663" lon="13.697931957227796"><ele>67.33333333333334</ele><time>2026-04-05T15:39:34Z</time></trkpt><trkpt lat="42.8587292519343" lon="13.698173637317863"><ele>66.66666666666667</ele><time>2026-04-05T15:39:35Z</time></trkpt><trkpt lat="42.858784759080095" lon="13.698390414987994"><ele>66.0</ele><time>2026-04-05T15:39:36Z</time></trkpt><trkpt lat="42.85882441468569" lon="13.698581819688599"><ele>66.5</ele><time>2026-04-05T15:39:37Z</time></trkpt><trkpt lat="42.85886300948693" lon="13.69876560588902"><ele>67.0</ele><time>2026-04-05T15:39:38Z</time></trkpt><trkpt lat="42.85887152840981" lon="13.698922006133879"><ele>67.5</ele><time>2026-04-05T15:39:39Z</time></trkpt><trkpt lat="42.858853216245464" lon="13.699166931912364"><ele>68.0</ele><time>2026-04-05T15:39:40Z</time></trkpt><trkpt lat="42.85881301418889" lon="13.699408027186651"><ele>69.0</ele><time>2026-04-05T15:39:41Z</time></trkpt><trkpt lat="42.858773395083716" lon="13.69966971896513"><ele>70.0</ele><time>2026-04-05T15:39:42Z</time></trkpt><trkpt lat="42.85873221064301" lon="13.6998498528575"><ele>71.0</ele><time>2026-04-05T15:39:43Z</time></trkpt><trkpt lat="42.858705540498676" lon="13.700070457106914"><ele>72.66666666666667</ele><time>2026-04-05T15:39:44Z</time></trkpt><trkpt lat="42.85867765570479" lon="13.70029637090821"><ele>74.33333333333333</ele><time>2026-04-05T15:39:45Z</time></trkpt><trkpt lat="42.8586461359592" lon="13.700509759497635"><ele>76.0</ele><time>2026-04-05T15:39:46Z</time></trkpt><trkpt lat="42.85861385711087" lon="13.700713451713826"><ele>76.0</ele><time>2026-04-05T15:39:47Z</time></trkpt><trkpt lat="42.858586795053114" lon="13.700899433412516"><ele>76.0</ele><time>2026-04-05T15:39:48Z</time></trkpt><trkpt lat="42.858568038935864" lon="13.701064762126947"><ele>76.0</ele><time>2026-04-05T15:39:49Z</time></trkpt><trkpt lat="42.85856183163368" lon="13.701228132266687"><ele>76.0</ele><time>2026-04-05T15:39:50Z</time></trkpt><trkpt lat="42.85856919193532" lon="13.701385490265844"><ele>76.25</ele><time>2026-04-05T15:39:51Z</time></trkpt><trkpt lat="42.85859154635026" lon="13.701551329817525"><ele>76.5</ele><time>2026-04-05T15:39:52Z</time></trkpt><trkpt lat="42.85861965764507" lon="13.701719080298721"><ele>76.75</ele><time>2026-04-05T15:39:53Z</time></trkpt><trkpt lat="42.858650901619555" lon="13.701892646831784"><ele>77.0</ele><time>2026-04-05T15:39:54Z</time></trkpt><trkpt lat="42.858682892318335" lon="13.70206985854546"><ele>77.0</ele><time>2026-04-05T15:39:55Z</time></trkpt><trkpt lat="42.858708397606925" lon="13.702261124755747"><ele>77.0</ele><time>2026-04-05T15:39:56Z</time></trkpt><trkpt lat="42.858727999165524" lon="13.702464060844544"><ele>77.0</ele><time>2026-04-05T15:39:57Z</time></trkpt><trkpt lat="42.858748779881694" lon="13.702677854361761"><ele>77.0</ele><time>2026-04-05T15:39:58Z</time></trkpt><trkpt lat="42.858766423301596" lon="13.702900835749947"><ele>77.0</ele><time>2026-04-05T15:39:59Z</time></trkpt><trkpt lat="42.85878032498037" lon="13.703129572021002"><ele>77.0</ele><time>2026-04-05T15:40:00Z</time></trkpt><trkpt lat="42.85879257048112" lon="13.70335495166279"><ele>77.0</ele><time>2026-04-05T15:40:01Z</time></trkpt><trkpt lat="42.85880344916786" lon="13.703575229090502"><ele>77.0</ele><time>2026-04-05T15:40:02Z</time></trkpt><trkpt lat="42.85881462890533" lon="13.703794081020117"><ele>77.0</ele><time>2026-04-05T15:40:03Z</time></trkpt><trkpt lat="42.85882255056233" lon="13.704010748769731"><ele>76.66666666666667</ele><time>2026-04-05T15:40:04Z</time></trkpt><trkpt lat="42.85882738593804" lon="13.704228274466217"><ele>76.33333333333333</ele><time>2026-04-05T15:40:05Z</time></trkpt><trkpt lat="42.85883289557359" lon="13.70444436883507"><ele>76.0</ele><time>2026-04-05T15:40:06Z</time></trkpt><trkpt lat="42.85883951501392" lon="13.704657419687999"><ele>75.33333333333333</ele><time>2026-04-05T15:40:07Z</time></trkpt><trkpt lat="42.85884304628319" lon="13.704871137087114"><ele>74.66666666666667</ele><time>2026-04-05T15:40:08Z</time></trkpt><trkpt lat="42.858846569030945" lon="13.705082420304324"><ele>74.0</ele><time>2026-04-05T15:40:09Z</time></trkpt><trkpt lat="42.85884843543398" lon="13.70529259904562"><ele>74.0</ele><time>2026-04-05T15:40:10Z</time></trkpt><trkpt lat="42.85884777470514" lon="13.705497660395816"><ele>74.0</ele><time>2026-04-05T15:40:11Z</time></trkpt><trkpt lat="42.858854080789634" lon="13.705699561970215"><ele>74.0</ele><time>2026-04-05T15:40:12Z</time></trkpt><trkpt lat="42.858867095642694" lon="13.70589985866376"><ele>74.0</ele><time>2026-04-05T15:40:13Z</time></trkpt><trkpt lat="42.85888747953141" lon="13.70610023508342"><ele>74.0</ele><time>2026-04-05T15:40:14Z</time></trkpt><trkpt lat="42.85891743897884" lon="13.706309171521225"><ele>74.0</ele><time>2026-04-05T15:40:15Z</time></trkpt><trkpt lat="42.85894882185914" lon="13.706515884320961"><ele>74.0</ele><time>2026-04-05T15:40:16Z</time></trkpt><trkpt lat="42.85897847423322" lon="13.706720377415868"><ele>72.66666666666667</ele><time>2026-04-05T15:40:17Z</time></trkpt><trkpt lat="42.858992792086994" lon="13.70692363503999"><ele>71.33333333333333</ele><time>2026-04-05T15:40:18Z</time></trkpt><trkpt lat="42.85902043253293" lon="13.707123800092678"><ele>70.0</ele><time>2026-04-05T15:40:19Z</time></trkpt><trkpt lat="42.8590677555116" lon="13.707324054089645"><ele>70.0</ele><time>2026-04-05T15:40:20Z</time></trkpt><trkpt lat="42.85909629868054" lon="13.707529303986343"><ele>70.0</ele><time>2026-04-05T15:40:20.999Z</time></trkpt><trkpt lat="42.859123897282856" lon="13.70773127838074"><ele>70.0</ele><time>2026-04-05T15:40:21.999Z</time></trkpt><trkpt lat="42.85914967855472" lon="13.707925126581486"><ele>70.0</ele><time>2026-04-05T15:40:22.999Z</time></trkpt><trkpt lat="42.85917643966742" lon="13.70811226163107"><ele>70.0</ele><time>2026-04-05T15:40:23.999Z</time></trkpt><trkpt lat="42.859200493385394" lon="13.708293677214748"><ele>70.0</ele><time>2026-04-05T15:40:24.999Z</time></trkpt><trkpt lat="42.85922432612322" lon="13.708471508109032"><ele>70.0</ele><time>2026-04-05T15:40:25.999Z</time></trkpt><trkpt lat="42.85925374468883" lon="13.70864732194428"><ele>70.0</ele><time>2026-04-05T15:40:26.999Z</time></trkpt><trkpt lat="42.85927458343545" lon="13.708825288214351"><ele>70.25</ele><time>2026-04-05T15:40:27.999Z</time></trkpt><trkpt lat="42.859335546005674" lon="13.709004613196651"><ele>70.5</ele><time>2026-04-05T15:40:28.999Z</time></trkpt><trkpt lat="42.85941419471356" lon="13.70917115963323"><ele>70.75</ele><time>2026-04-05T15:40:29.999Z</time></trkpt><trkpt lat="42.859481797148106" lon="13.709350854564338"><ele>71.0</ele><time>2026-04-05T15:40:30.999Z</time></trkpt><trkpt lat="42.85955057190207" lon="13.709529360949151"><ele>71.0</ele><time>2026-04-05T15:40:32Z</time></trkpt><trkpt lat="42.859620286737325" lon="13.709707000772084"><ele>71.0</ele><time>2026-04-05T15:40:33Z</time></trkpt><trkpt lat="42.85968821310985" lon="13.709882130705633"><ele>71.0</ele><time>2026-04-05T15:40:34Z</time></trkpt><trkpt lat="42.85975486395184" lon="13.71004948361317"><ele>71.0</ele><time>2026-04-05T15:40:35Z</time></trkpt><trkpt lat="42.85981291041132" lon="13.71020392756578"><ele>70.8</ele><time>2026-04-05T15:40:36Z</time></trkpt><trkpt lat="42.85986296873802" lon="13.710342772958072"><ele>70.6</ele><time>2026-04-05T15:40:37Z</time></trkpt><trkpt lat="42.85990720263136" lon="13.710470255873163"><ele>70.4</ele><time>2026-04-05T15:40:38Z</time></trkpt><trkpt lat="42.85994593666593" lon="13.710591826227757"><ele>70.2</ele><time>2026-04-05T15:40:39Z</time></trkpt><trkpt lat="42.85997107279813" lon="13.71070672466536"><ele>70.0</ele><time>2026-04-05T15:40:40Z</time></trkpt><trkpt lat="42.859997495734945" lon="13.710820622565784"><ele>70.0</ele><time>2026-04-05T15:40:41Z</time></trkpt><trkpt lat="42.860013348852284" lon="13.710907737349155"><ele>70.0</ele><time>2026-04-05T15:40:42Z</time></trkpt><trkpt lat="42.86003358464217" lon="13.711006453593408"><ele>70.0</ele><time>2026-04-05T15:40:44Z</time></trkpt><trkpt lat="42.8600646553942" lon="13.7111212422387"><ele>70.0</ele><time>2026-04-05T15:40:46Z</time></trkpt><trkpt lat="42.860078741963214" lon="13.711231235119412"><ele>70.0</ele><time>2026-04-05T15:40:47Z</time></trkpt><trkpt lat="42.860111887590875" lon="13.711350251840116"><ele>70.0</ele><time>2026-04-05T15:40:48Z</time></trkpt><trkpt lat="42.86013891075216" lon="13.711494077272024"><ele>71.0</ele><time>2026-04-05T15:40:49Z</time></trkpt><trkpt lat="42.860171229114094" lon="13.711654209270582"><ele>72.0</ele><time>2026-04-05T15:40:50Z</time></trkpt><trkpt lat="42.860200597490554" lon="13.711825121299304"><ele>73.0</ele><time>2026-04-05T15:40:51Z</time></trkpt><trkpt lat="42.860238080450216" lon="13.71200250477065"><ele>74.0</ele><time>2026-04-05T15:40:52Z</time></trkpt><trkpt lat="42.86027006516508" lon="13.712180976525069"><ele>74.0</ele><time>2026-04-05T15:40:53Z</time></trkpt><trkpt lat="42.86030316251815" lon="13.712355247791251"><ele>74.0</ele><time>2026-04-05T15:40:54Z</time></trkpt><trkpt lat="42.86034472324338" lon="13.712526000122839"><ele>74.0</ele><time>2026-04-05T15:40:55Z</time></trkpt><trkpt lat="42.86039580101561" lon="13.712702305268442"><ele>74.0</ele><time>2026-04-05T15:40:56Z</time></trkpt><trkpt lat="42.86046305692425" lon="13.712883360485009"><ele>73.75</ele><time>2026-04-05T15:40:57Z</time></trkpt><trkpt lat="42.8605281559138" lon="13.71305738378"><ele>73.5</ele><time>2026-04-05T15:40:58Z</time></trkpt><trkpt lat="42.860600421443095" lon="13.713231171614025"><ele>73.25</ele><time>2026-04-05T15:40:59Z</time></trkpt><trkpt lat="42.86067321855325" lon="13.713393483925145"><ele>73.0</ele><time>2026-04-05T15:41:00Z</time></trkpt><trkpt lat="42.860746670846915" lon="13.713550995644544"><ele>73.0</ele><time>2026-04-05T15:41:01Z</time></trkpt><trkpt lat="42.860827310378006" lon="13.713706387564091"><ele>73.0</ele><time>2026-04-05T15:41:02Z</time></trkpt><trkpt lat="42.86091539161953" lon="13.713859076747562"><ele>73.0</ele><time>2026-04-05T15:41:03Z</time></trkpt><trkpt lat="42.861006202869575" lon="13.714005688460324"><ele>73.0</ele><time>2026-04-05T15:41:04Z</time></trkpt><trkpt lat="42.86109150184252" lon="13.714156295974218"><ele>73.0</ele><time>2026-04-05T15:41:05Z</time></trkpt><trkpt lat="42.86116875318457" lon="13.71431163287782"><ele>73.0</ele><time>2026-04-05T15:41:06Z</time></trkpt><trkpt lat="42.86122160374539" lon="13.714487841027017"><ele>73.0</ele><time>2026-04-05T15:41:07Z</time></trkpt><trkpt lat="42.86125133327136" lon="13.714686865564754"><ele>73.0</ele><time>2026-04-05T15:41:08Z</time></trkpt><trkpt lat="42.861256543530416" lon="13.71489149395259"><ele>73.25</ele><time>2026-04-05T15:41:09Z</time></trkpt><trkpt lat="42.86125586954336" lon="13.71509523457741"><ele>73.5</ele><time>2026-04-05T15:41:10Z</time></trkpt><trkpt lat="42.86125599768662" lon="13.715282184530642"><ele>73.75</ele><time>2026-04-05T15:41:11Z</time></trkpt><trkpt lat="42.86126674844465" lon="13.715453210395369"><ele>74.0</ele><time>2026-04-05T15:41:12Z</time></trkpt><trkpt lat="42.861282164132284" lon="13.715633888194397"><ele>73.75</ele><time>2026-04-05T15:41:13Z</time></trkpt><trkpt lat="42.86132168045419" lon="13.715801159761654"><ele>73.5</ele><time>2026-04-05T15:41:14Z</time></trkpt><trkpt lat="42.861364457434405" lon="13.715966682697985"><ele>73.25</ele><time>2026-04-05T15:41:15Z</time></trkpt><trkpt lat="42.86140549812401" lon="13.716150235635233"><ele>73.0</ele><time>2026-04-05T15:41:16Z</time></trkpt><trkpt lat="42.86144934920699" lon="13.716332015727001"><ele>73.0</ele><time>2026-04-05T15:41:17Z</time></trkpt><trkpt lat="42.861504504124355" lon="13.716503298287009"><ele>73.0</ele><time>2026-04-05T15:41:18Z</time></trkpt><trkpt lat="42.861555718945894" lon="13.716676369212427"><ele>73.0</ele><time>2026-04-05T15:41:19Z</time></trkpt><trkpt lat="42.86160470158885" lon="13.716842544466372"><ele>73.0</ele><time>2026-04-05T15:41:20Z</time></trkpt><trkpt lat="42.86166431824598" lon="13.717017448374365"><ele>73.25</ele><time>2026-04-05T15:41:21Z</time></trkpt><trkpt lat="42.861726555678324" lon="13.717193203054208"><ele>73.5</ele><time>2026-04-05T15:41:22Z</time></trkpt><trkpt lat="42.86179587348507" lon="13.717360453324527"><ele>73.75</ele><time>2026-04-05T15:41:23Z</time></trkpt><trkpt lat="42.86186304109613" lon="13.717527839689792"><ele>74.0</ele><time>2026-04-05T15:41:24Z</time></trkpt><trkpt lat="42.86193450870027" lon="13.717687574079108"><ele>73.25</ele><time>2026-04-05T15:41:25Z</time></trkpt><trkpt lat="42.86201604809232" lon="13.717836422219385"><ele>72.5</ele><time>2026-04-05T15:41:26Z</time></trkpt><trkpt lat="42.862099710080905" lon="13.71797429949507"><ele>71.75</ele><time>2026-04-05T15:41:27Z</time></trkpt><trkpt lat="42.86218321525494" lon="13.718110628198943"><ele>71.0</ele><time>2026-04-05T15:41:28Z</time></trkpt><trkpt lat="42.862260344265536" lon="13.718239828024071"><ele>71.0</ele><time>2026-04-05T15:41:29Z</time></trkpt><trkpt lat="42.86233182953998" lon="13.71836888590661"><ele>71.0</ele><time>2026-04-05T15:41:30Z</time></trkpt><trkpt lat="42.8624011737172" lon="13.718484797818922"><ele>71.0</ele><time>2026-04-05T15:41:31Z</time></trkpt><trkpt lat="42.862468635403715" lon="13.718589709722579"><ele>71.0</ele><time>2026-04-05T15:41:32Z</time></trkpt><trkpt lat="42.862537110284336" lon="13.718695842696318"><ele>71.0</ele><time>2026-04-05T15:41:33Z</time></trkpt><trkpt lat="42.86260702472607" lon="13.71880288144976"><ele>71.6</ele><time>2026-04-05T15:41:34Z</time></trkpt><trkpt lat="42.862676471274646" lon="13.718911023387934"><ele>72.19999999999999</ele><time>2026-04-05T15:41:35Z</time></trkpt><trkpt lat="42.862744156720396" lon="13.719026533474786"><ele>72.80000000000001</ele><time>2026-04-05T15:41:36Z</time></trkpt><trkpt lat="42.862807300172776" lon="13.719137070716513"><ele>73.4</ele><time>2026-04-05T15:41:37Z</time></trkpt><trkpt lat="42.86286706631752" lon="13.719242709351853"><ele>74.0</ele><time>2026-04-05T15:41:38Z</time></trkpt><trkpt lat="42.862922567996556" lon="13.7193485976933"><ele>74.2</ele><time>2026-04-05T15:41:39Z</time></trkpt><trkpt lat="42.862970634647866" lon="13.719450626455352"><ele>74.4</ele><time>2026-04-05T15:41:40Z</time></trkpt><trkpt lat="42.86302639034875" lon="13.71956097456871"><ele>74.6</ele><time>2026-04-05T15:41:41Z</time></trkpt><trkpt lat="42.86308198441672" lon="13.719687866350823"><ele>74.8</ele><time>2026-04-05T15:41:42Z</time></trkpt><trkpt lat="42.86312547760039" lon="13.719842059386469"><ele>75.0</ele><time>2026-04-05T15:41:43Z</time></trkpt><trkpt lat="42.86317301607633" lon="13.719982013889048"><ele>75.0</ele><time>2026-04-05T15:41:44Z</time></trkpt><trkpt lat="42.8632174203648" lon="13.720127563964631"><ele>75.0</ele><time>2026-04-05T15:41:45Z</time></trkpt><trkpt lat="42.863255921021334" lon="13.720275349064913"><ele>75.0</ele><time>2026-04-05T15:41:46Z</time></trkpt><trkpt lat="42.86328428941755" lon="13.720430860368078"><ele>75.0</ele><time>2026-04-05T15:41:47Z</time></trkpt><trkpt lat="42.863304541438126" lon="13.720593031327825"><ele>74.75</ele><time>2026-04-05T15:41:48Z</time></trkpt><trkpt lat="42.86332498600976" lon="13.72075013637258"><ele>74.5</ele><time>2026-04-05T15:41:49Z</time></trkpt><trkpt lat="42.86335331116858" lon="13.720898670310326"><ele>74.25</ele><time>2026-04-05T15:41:50Z</time></trkpt><trkpt lat="42.863357205242465" lon="13.721062462482527"><ele>74.0</ele><time>2026-04-05T15:41:51Z</time></trkpt><trkpt lat="42.86339782578439" lon="13.721219071724947"><ele>73.5</ele><time>2026-04-05T15:41:52Z</time></trkpt><trkpt lat="42.863430969542186" lon="13.721375945361407"><ele>73.0</ele><time>2026-04-05T15:41:53Z</time></trkpt><trkpt lat="42.863475848820094" lon="13.721530809211982"><ele>72.5</ele><time>2026-04-05T15:41:54Z</time></trkpt><trkpt lat="42.86353588270084" lon="13.721690915537405"><ele>72.0</ele><time>2026-04-05T15:41:55Z</time></trkpt><trkpt lat="42.8636048129316" lon="13.721849736089277"><ele>71.5</ele><time>2026-04-05T15:41:56Z</time></trkpt><trkpt lat="42.8636869015812" lon="13.722004361627736"><ele>71.0</ele><time>2026-04-05T15:41:57Z</time></trkpt><trkpt lat="42.8637756828624" lon="13.722158873249867"><ele>70.5</ele><time>2026-04-05T15:41:58Z</time></trkpt><trkpt lat="42.86387312463753" lon="13.722307646886662"><ele>70.0</ele><time>2026-04-05T15:41:59Z</time></trkpt><trkpt lat="42.863967598559405" lon="13.722451599936843"><ele>70.0</ele><time>2026-04-05T15:42:00Z</time></trkpt><trkpt lat="42.8640496447752" lon="13.722609346719281"><ele>70.0</ele><time>2026-04-05T15:42:01Z</time></trkpt><trkpt lat="42.86414183203667" lon="13.722757787344005"><ele>70.0</ele><time>2026-04-05T15:42:02Z</time></trkpt><trkpt lat="42.864238178685284" lon="13.722887376728307"><ele>70.0</ele><time>2026-04-05T15:42:03Z</time></trkpt><trkpt lat="42.86432482800384" lon="13.723029965446091"><ele>70.75</ele><time>2026-04-05T15:42:04Z</time></trkpt><trkpt lat="42.86441172610678" lon="13.723163628687436"><ele>71.5</ele><time>2026-04-05T15:42:05Z</time></trkpt><trkpt lat="42.86448978293293" lon="13.72329965244804"><ele>72.25</ele><time>2026-04-05T15:42:06Z</time></trkpt><trkpt lat="42.8645694896993" lon="13.7234260378356"><ele>73.0</ele><time>2026-04-05T15:42:07Z</time></trkpt><trkpt lat="42.86464342233626" lon="13.723550417161613"><ele>71.2</ele><time>2026-04-05T15:42:08Z</time></trkpt><trkpt lat="42.86471539878934" lon="13.723672726782464"><ele>69.4</ele><time>2026-04-05T15:42:09Z</time></trkpt><trkpt lat="42.86478431824545" lon="13.723789981344826"><ele>67.60000000000001</ele><time>2026-04-05T15:42:10Z</time></trkpt><trkpt lat="42.86485113091169" lon="13.723895141848748"><ele>65.8</ele><time>2026-04-05T15:42:11Z</time></trkpt><trkpt lat="42.8649123426669" lon="13.723991548927184"><ele>64.0</ele><time>2026-04-05T15:42:12Z</time></trkpt><trkpt lat="42.864956200467645" lon="13.724065355460672"><ele>64.0</ele><time>2026-04-05T15:42:13Z</time></trkpt><trkpt lat="42.86500480658873" lon="13.72414965236878"><ele>63.99999999999999</ele><time>2026-04-05T15:42:14Z</time></trkpt><trkpt lat="42.86503851768438" lon="13.724242215777592"><ele>64.0</ele><time>2026-04-05T15:42:15Z</time></trkpt><trkpt lat="42.865056706459825" lon="13.724333361958697"><ele>64.0</ele><time>2026-04-05T15:42:16Z</time></trkpt><trkpt lat="42.86505056172074" lon="13.724431649987553"><ele>63.99999999999999</ele><time>2026-04-05T15:42:17Z</time></trkpt><trkpt lat="42.86505205799934" lon="13.7245266310315"><ele>64.0</ele><time>2026-04-05T15:42:18Z</time></trkpt><trkpt lat="42.86506462552248" lon="13.724629603991215"><ele>64.0</ele><time>2026-04-05T15:42:19Z</time></trkpt><trkpt lat="42.86508374090422" lon="13.724725147821355"><ele>63.75</ele><time>2026-04-05T15:42:20Z</time></trkpt><trkpt lat="42.86513513370492" lon="13.724833653143541"><ele>63.5</ele><time>2026-04-05T15:42:21Z</time></trkpt><trkpt lat="42.86519536647756" lon="13.72496469998687"><ele>63.25</ele><time>2026-04-05T15:42:22Z</time></trkpt><trkpt lat="42.865240828271176" lon="13.725120574496085"><ele>63.0</ele><time>2026-04-05T15:42:23Z</time></trkpt><trkpt lat="42.86527322229358" lon="13.725307061827655"><ele>63.0</ele><time>2026-04-05T15:42:24Z</time></trkpt><trkpt lat="42.86530880822778" lon="13.725496809263783"><ele>63.0</ele><time>2026-04-05T15:42:25Z</time></trkpt><trkpt lat="42.865350075989085" lon="13.725695379159097"><ele>63.0</ele><time>2026-04-05T15:42:26Z</time></trkpt><trkpt lat="42.86539230415639" lon="13.725900166612147"><ele>63.0</ele><time>2026-04-05T15:42:27Z</time></trkpt><trkpt lat="42.86543378263678" lon="13.726114517714013"><ele>63.0</ele><time>2026-04-05T15:42:27.999Z</time></trkpt><trkpt lat="42.86547438571949" lon="13.726326147049365"><ele>63.0</ele><time>2026-04-05T15:42:28.999Z</time></trkpt><trkpt lat="42.86551613501086" lon="13.72653467265449"><ele>63.0</ele><time>2026-04-05T15:42:29.999Z</time></trkpt><trkpt lat="42.865559002073816" lon="13.726741366103072"><ele>63.0</ele><time>2026-04-05T15:42:30.999Z</time></trkpt><trkpt lat="42.86560014673193" lon="13.726945107644935"><ele>63.0</ele><time>2026-04-05T15:42:31.999Z</time></trkpt><trkpt lat="42.86564077078367" lon="13.727148979174654"><ele>63.33333333333333</ele><time>2026-04-05T15:42:32.999Z</time></trkpt><trkpt lat="42.865679764057504" lon="13.727351579082475"><ele>63.666666666666664</ele><time>2026-04-05T15:42:33.999Z</time></trkpt><trkpt lat="42.86571931826504" lon="13.727551232385649"><ele>64.0</ele><time>2026-04-05T15:42:34.999Z</time></trkpt><trkpt lat="42.86575823265666" lon="13.72775242281542"><ele>64.33333333333333</ele><time>2026-04-05T15:42:35.999Z</time></trkpt><trkpt lat="42.8657978120196" lon="13.727953693921668"><ele>64.66666666666667</ele><time>2026-04-05T15:42:37Z</time></trkpt><trkpt lat="42.8658393098273" lon="13.728152874315127"><ele>65.0</ele><time>2026-04-05T15:42:38Z</time></trkpt><trkpt lat="42.865882429087215" lon="13.72835018220105"><ele>65.0</ele><time>2026-04-05T15:42:39Z</time></trkpt><trkpt lat="42.86592365030367" lon="13.728548541960265"><ele>65.0</ele><time>2026-04-05T15:42:40Z</time></trkpt><trkpt lat="42.86596139870895" lon="13.728748347076937"><ele>65.0</ele><time>2026-04-05T15:42:41Z</time></trkpt><trkpt lat="42.86599992810144" lon="13.728946982806729"><ele>67.33333333333334</ele><time>2026-04-05T15:42:42Z</time></trkpt><trkpt lat="42.866039056674985" lon="13.729146031194594"><ele>69.66666666666667</ele><time>2026-04-05T15:42:43Z</time></trkpt><trkpt lat="42.86608241255536" lon="13.72934634360042"><ele>72.0</ele><time>2026-04-05T15:42:44Z</time></trkpt><trkpt lat="42.866126919058956" lon="13.72956499497355"><ele>72.0</ele><time>2026-04-05T15:42:45Z</time></trkpt><trkpt lat="42.866172528355456" lon="13.729787678855857"><ele>72.0</ele><time>2026-04-05T15:42:46Z</time></trkpt><trkpt lat="42.8662157569815" lon="13.730001589014316"><ele>72.0</ele><time>2026-04-05T15:42:47Z</time></trkpt><trkpt lat="42.866255792960196" lon="13.730208037580367"><ele>71.25</ele><time>2026-04-05T15:42:48Z</time></trkpt><trkpt lat="42.86629660249864" lon="13.730407238504272"><ele>70.5</ele><time>2026-04-05T15:42:49Z</time></trkpt><trkpt lat="42.86633737056953" lon="13.730601903671971"><ele>69.75</ele><time>2026-04-05T15:42:50Z</time></trkpt><trkpt lat="42.86637771056247" lon="13.73078706123455"><ele>69.0</ele><time>2026-04-05T15:42:51Z</time></trkpt><trkpt lat="42.86641480706942" lon="13.730960895594812"><ele>68.25</ele><time>2026-04-05T15:42:52Z</time></trkpt><trkpt lat="42.86644938987724" lon="13.731128699351222"><ele>67.5</ele><time>2026-04-05T15:42:53Z</time></trkpt><trkpt lat="42.86648357456767" lon="13.731301459578924"><ele>66.75</ele><time>2026-04-05T15:42:54Z</time></trkpt><trkpt lat="42.866523430263705" lon="13.73148205893045"><ele>66.0</ele><time>2026-04-05T15:42:55Z</time></trkpt><trkpt lat="42.866570394065256" lon="13.731684935111055"><ele>65.66666666666667</ele><time>2026-04-05T15:42:56Z</time></trkpt><trkpt lat="42.86661938791424" lon="13.731909346544118"><ele>65.33333333333334</ele><time>2026-04-05T15:42:57Z</time></trkpt><trkpt lat="42.866642094725776" lon="13.732158012873251"><ele>65.0</ele><time>2026-04-05T15:42:58Z</time></trkpt><trkpt lat="42.86668805688941" lon="13.73238582639756"><ele>65.0</ele><time>2026-04-05T15:42:59Z</time></trkpt><trkpt lat="42.866729285787635" lon="13.732589712386735"><ele>65.0</ele><time>2026-04-05T15:43:00Z</time></trkpt><trkpt lat="42.86677858613982" lon="13.732759501665212"><ele>65.0</ele><time>2026-04-05T15:43:01Z</time></trkpt><trkpt lat="42.8668086141764" lon="13.73291908989954"><ele>65.0</ele><time>2026-04-05T15:43:02Z</time></trkpt><trkpt lat="42.86681973366788" lon="13.73306808852469"><ele>65.8</ele><time>2026-04-05T15:43:03Z</time></trkpt><trkpt lat="42.86684726267395" lon="13.73319572275841"><ele>66.6</ele><time>2026-04-05T15:43:04Z</time></trkpt><trkpt lat="42.8668949392918" lon="13.73331173138197"><ele>67.4</ele><time>2026-04-05T15:43:05Z</time></trkpt><trkpt lat="42.866919861673246" lon="13.733459776172312"><ele>68.2</ele><time>2026-04-05T15:43:06Z</time></trkpt><trkpt lat="42.866964802337876" lon="13.733601122740856"><ele>69.0</ele><time>2026-04-05T15:43:07Z</time></trkpt><trkpt lat="42.867004825115075" lon="13.73372438555695"><ele>69.0</ele><time>2026-04-05T15:43:08Z</time></trkpt><trkpt lat="42.867043804461005" lon="13.73384434485544"><ele>69.0</ele><time>2026-04-05T15:43:09Z</time></trkpt><trkpt lat="42.867082560801016" lon="13.73396582473438"><ele>69.0</ele><time>2026-04-05T15:43:10Z</time></trkpt><trkpt lat="42.86711783964286" lon="13.734076638183028"><ele>69.0</ele><time>2026-04-05T15:43:11Z</time></trkpt><trkpt lat="42.86716962081893" lon="13.734193291034602"><ele>69.0</ele><time>2026-04-05T15:43:12Z</time></trkpt><trkpt lat="42.86721336996296" lon="13.734329571596517"><ele>68.5</ele><time>2026-04-05T15:43:13Z</time></trkpt><trkpt lat="42.867257516041676" lon="13.73448017257937"><ele>68.0</ele><time>2026-04-05T15:43:14Z</time></trkpt><trkpt lat="42.86730489578491" lon="13.734631039490257"><ele>67.5</ele><time>2026-04-05T15:43:15Z</time></trkpt><trkpt lat="42.86734494024579" lon="13.734799808804787"><ele>67.0</ele><time>2026-04-05T15:43:16Z</time></trkpt><trkpt lat="42.86740499337459" lon="13.734991499237578"><ele>67.0</ele><time>2026-04-05T15:43:17Z</time></trkpt><trkpt lat="42.86747552842079" lon="13.735210254410557"><ele>67.0</ele><time>2026-04-05T15:43:18Z</time></trkpt><trkpt lat="42.86754413846071" lon="13.735423613130056"><ele>67.0</ele><time>2026-04-05T15:43:19Z</time></trkpt><trkpt lat="42.867621149100074" lon="13.735615692505519"><ele>67.33333333333333</ele><time>2026-04-05T15:43:20Z</time></trkpt><trkpt lat="42.867687820857654" lon="13.735802698425502"><ele>67.66666666666667</ele><time>2026-04-05T15:43:21Z</time></trkpt><trkpt lat="42.86774966043256" lon="13.7360297609088"><ele>68.0</ele><time>2026-04-05T15:43:22Z</time></trkpt><trkpt lat="42.867824911656975" lon="13.73627871963119"><ele>68.0</ele><time>2026-04-05T15:43:23Z</time></trkpt><trkpt lat="42.86789612577764" lon="13.736539320450635"><ele>68.0</ele><time>2026-04-05T15:43:24Z</time></trkpt><trkpt lat="42.86797488256645" lon="13.736794433791198"><ele>68.0</ele><time>2026-04-05T15:43:25Z</time></trkpt><trkpt lat="42.86804161246164" lon="13.737055580510283"><ele>67.0</ele><time>2026-04-05T15:43:26Z</time></trkpt><trkpt lat="42.868112187153706" lon="13.737311600529782"><ele>66.0</ele><time>2026-04-05T15:43:27Z</time></trkpt><trkpt lat="42.86817887462837" lon="13.737569647292885"><ele>65.0</ele><time>2026-04-05T15:43:28Z</time></trkpt><trkpt lat="42.86823821544459" lon="13.737828601654211"><ele>64.66666666666667</ele><time>2026-04-05T15:43:29Z</time></trkpt><trkpt lat="42.86829779430879" lon="13.738089480503627"><ele>64.33333333333333</ele><time>2026-04-05T15:43:30Z</time></trkpt><trkpt lat="42.8683521156042" lon="13.738352383870064"><ele>64.0</ele><time>2026-04-05T15:43:31Z</time></trkpt><trkpt lat="42.86839524254776" lon="13.738616367485571"><ele>63.33333333333333</ele><time>2026-04-05T15:43:32Z</time></trkpt><trkpt lat="42.868433484968016" lon="13.738883477732875"><ele>62.66666666666667</ele><time>2026-04-05T15:43:33Z</time></trkpt><trkpt lat="42.86847153884333" lon="13.739149085820134"><ele>62.0</ele><time>2026-04-05T15:43:34Z</time></trkpt><trkpt lat="42.86851524369153" lon="13.739407033115162"><ele>66.0</ele><time>2026-04-05T15:43:35Z</time></trkpt><trkpt lat="42.868557398261565" lon="13.73966451939415"><ele>70.0</ele><time>2026-04-05T15:43:36Z</time></trkpt><trkpt lat="42.86860549522447" lon="13.739923768994917"><ele>74.0</ele><time>2026-04-05T15:43:37Z</time></trkpt><trkpt lat="42.86865151939222" lon="13.740185859571529"><ele>73.33333333333334</ele><time>2026-04-05T15:43:38Z</time></trkpt><trkpt lat="42.86868718655449" lon="13.740450566907489"><ele>72.66666666666667</ele><time>2026-04-05T15:43:39Z</time></trkpt><trkpt lat="42.86870994629785" lon="13.740719086728072"><ele>72.0</ele><time>2026-04-05T15:43:40Z</time></trkpt><trkpt lat="42.868731066501994" lon="13.740991924296301"><ele>71.33333333333333</ele><time>2026-04-05T15:43:41Z</time></trkpt><trkpt lat="42.86875461374086" lon="13.741258984238844"><ele>70.66666666666666</ele><time>2026-04-05T15:43:42Z</time></trkpt><trkpt lat="42.868784616934015" lon="13.741524868217274"><ele>70.0</ele><time>2026-04-05T15:43:43Z</time></trkpt><trkpt lat="42.86881752382125" lon="13.741790411830474"><ele>68.33333333333333</ele><time>2026-04-05T15:43:44Z</time></trkpt><trkpt lat="42.86885084219946" lon="13.742055145641391"><ele>66.66666666666667</ele><time>2026-04-05T15:43:45Z</time></trkpt><trkpt lat="42.86888473796161" lon="13.742318310093275"><ele>65.0</ele><time>2026-04-05T15:43:46Z</time></trkpt><trkpt lat="42.8689166282493" lon="13.742573788570954"><ele>64.33333333333334</ele><time>2026-04-05T15:43:47Z</time></trkpt><trkpt lat="42.86894988760037" lon="13.742826571021117"><ele>63.66666666666667</ele><time>2026-04-05T15:43:48Z</time></trkpt><trkpt lat="42.86898258887234" lon="13.7430691146622"><ele>63.0</ele><time>2026-04-05T15:43:49Z</time></trkpt><trkpt lat="42.86901364806521" lon="13.74330249439903"><ele>63.0</ele><time>2026-04-05T15:43:50Z</time></trkpt><trkpt lat="42.8690424760067" lon="13.74352732218994"><ele>63.0</ele><time>2026-04-05T15:43:51Z</time></trkpt><trkpt lat="42.869071993285445" lon="13.743749840309617"><ele>63.0</ele><time>2026-04-05T15:43:52Z</time></trkpt><trkpt lat="42.86910077973889" lon="13.743964794998863"><ele>62.75</ele><time>2026-04-05T15:43:53Z</time></trkpt><trkpt lat="42.869128357022646" lon="13.74417351810091"><ele>62.5</ele><time>2026-04-05T15:43:54Z</time></trkpt><trkpt lat="42.869153106367676" lon="13.744367944422972"><ele>62.25</ele><time>2026-04-05T15:43:55Z</time></trkpt><trkpt lat="42.869177014963924" lon="13.74456290787079"><ele>62.0</ele><time>2026-04-05T15:43:56Z</time></trkpt><trkpt lat="42.86920297905154" lon="13.744750936775622"><ele>61.75</ele><time>2026-04-05T15:43:57Z</time></trkpt><trkpt lat="42.86922967994759" lon="13.744941396435017"><ele>61.5</ele><time>2026-04-05T15:43:58Z</time></trkpt><trkpt lat="42.86925081783747" lon="13.745137942996505"><ele>61.25</ele><time>2026-04-05T15:43:59Z</time></trkpt><trkpt lat="42.86927129970498" lon="13.745334690995842"><ele>61.0</ele><time>2026-04-05T15:44:00Z</time></trkpt><trkpt lat="42.86928439658277" lon="13.745539085209822"><ele>61.666666666666664</ele><time>2026-04-05T15:44:01Z</time></trkpt><trkpt lat="42.86928658128384" lon="13.745741620214826"><ele>62.33333333333333</ele><time>2026-04-05T15:44:02Z</time></trkpt><trkpt lat="42.86928538028663" lon="13.745946330501624"><ele>63.0</ele><time>2026-04-05T15:44:03Z</time></trkpt><trkpt lat="42.86926262439523" lon="13.746158221032402"><ele>63.0</ele><time>2026-04-05T15:44:04Z</time></trkpt><trkpt lat="42.86923175998878" lon="13.746375038785905"><ele>63.0</ele><time>2026-04-05T15:44:05Z</time></trkpt><trkpt lat="42.86920359807315" lon="13.746599026600466"><ele>63.0</ele><time>2026-04-05T15:44:06Z</time></trkpt><trkpt lat="42.86917400917052" lon="13.746830637282192"><ele>62.33333333333333</ele><time>2026-04-05T15:44:07Z</time></trkpt><trkpt lat="42.86914203598536" lon="13.747063543336823"><ele>61.666666666666664</ele><time>2026-04-05T15:44:08Z</time></trkpt><trkpt lat="42.8691144361187" lon="13.747292830475384"><ele>61.0</ele><time>2026-04-05T15:44:09Z</time></trkpt><trkpt lat="42.86908474396575" lon="13.747503555953188"><ele>61.0</ele><time>2026-04-05T15:44:10Z</time></trkpt><trkpt lat="42.86904737069201" lon="13.747702481348593"><ele>61.0</ele><time>2026-04-05T15:44:11Z</time></trkpt><trkpt lat="42.869035377785956" lon="13.747895911590351"><ele>61.0</ele><time>2026-04-05T15:44:12Z</time></trkpt><trkpt lat="42.86902558704952" lon="13.748079525127942"><ele>61.0</ele><time>2026-04-05T15:44:13Z</time></trkpt><trkpt lat="42.8690254745238" lon="13.748267673880228"><ele>60.5</ele><time>2026-04-05T15:44:14Z</time></trkpt><trkpt lat="42.86902617495722" lon="13.748461433320712"><ele>60.0</ele><time>2026-04-05T15:44:15Z</time></trkpt><trkpt lat="42.86904876393396" lon="13.748650020596841"><ele>59.5</ele><time>2026-04-05T15:44:16Z</time></trkpt><trkpt lat="42.86907389782888" lon="13.748820456614052"><ele>59.0</ele><time>2026-04-05T15:44:17Z</time></trkpt><trkpt lat="42.869113553371804" lon="13.74897258378742"><ele>58.800000000000004</ele><time>2026-04-05T15:44:18Z</time></trkpt><trkpt lat="42.86913333409435" lon="13.749110147210656"><ele>58.60000000000001</ele><time>2026-04-05T15:44:19Z</time></trkpt><trkpt lat="42.86915285817176" lon="13.749236175766404"><ele>58.4</ele><time>2026-04-05T15:44:20Z</time></trkpt><trkpt lat="42.869165771775144" lon="13.749355222255597"><ele>58.2</ele><time>2026-04-05T15:44:21Z</time></trkpt><trkpt lat="42.86916342956918" lon="13.749464657108955"><ele>58.0</ele><time>2026-04-05T15:44:22Z</time></trkpt><trkpt lat="42.869150561230136" lon="13.749582294092138"><ele>58.0</ele><time>2026-04-05T15:44:23Z</time></trkpt><trkpt lat="42.86918206713601" lon="13.749718206334821"><ele>58.0</ele><time>2026-04-05T15:44:24Z</time></trkpt><trkpt lat="42.86922041311362" lon="13.749876678068528"><ele>58.0</ele><time>2026-04-05T15:44:25Z</time></trkpt><trkpt lat="42.869244876308315" lon="13.750047951293777"><ele>58.0</ele><time>2026-04-05T15:44:26Z</time></trkpt><trkpt lat="42.869268019416225" lon="13.750241577332167"><ele>57.75</ele><time>2026-04-05T15:44:27Z</time></trkpt><trkpt lat="42.86927502490897" lon="13.750436018368765"><ele>57.5</ele><time>2026-04-05T15:44:28Z</time></trkpt><trkpt lat="42.86929614320108" lon="13.750611671029473"><ele>57.25</ele><time>2026-04-05T15:44:29Z</time></trkpt><trkpt lat="42.86931880131852" lon="13.750776956148394"><ele>57.0</ele><time>2026-04-05T15:44:30Z</time></trkpt><trkpt lat="42.86934230741982" lon="13.750935023944763"><ele>56.5</ele><time>2026-04-05T15:44:31Z</time></trkpt><trkpt lat="42.8693670431157" lon="13.751098678267708"><ele>56.0</ele><time>2026-04-05T15:44:32Z</time></trkpt><trkpt lat="42.86939331413181" lon="13.751265085023443"><ele>55.5</ele><time>2026-04-05T15:44:33Z</time></trkpt><trkpt lat="42.86941985623343" lon="13.751430126325412"><ele>55.0</ele><time>2026-04-05T15:44:34Z</time></trkpt><trkpt lat="42.869446284442624" lon="13.751590540754114"><ele>55.0</ele><time>2026-04-05T15:44:35Z</time></trkpt><trkpt lat="42.86947362464519" lon="13.751748619756064"><ele>55.0</ele><time>2026-04-05T15:44:36Z</time></trkpt><trkpt lat="42.869500019989765" lon="13.75189364505132"><ele>55.0</ele><time>2026-04-05T15:44:37Z</time></trkpt><trkpt lat="42.869523798757534" lon="13.752024299456222"><ele>55.0</ele><time>2026-04-05T15:44:37.999Z</time></trkpt><trkpt lat="42.86954553462362" lon="13.752146624662252"><ele>55.0</ele><time>2026-04-05T15:44:38.999Z</time></trkpt><trkpt lat="42.86956859227783" lon="13.752275033861405"><ele>55.5</ele><time>2026-04-05T15:44:39.999Z</time></trkpt><trkpt lat="42.869588157312684" lon="13.752419934356514"><ele>56.0</ele><time>2026-04-05T15:44:40.999Z</time></trkpt><trkpt lat="42.869603793527766" lon="13.75256212474906"><ele>56.5</ele><time>2026-04-05T15:44:41.999Z</time></trkpt><trkpt lat="42.86963028065556" lon="13.75270235909581"><ele>57.0</ele><time>2026-04-05T15:44:43Z</time></trkpt><trkpt lat="42.86963636547776" lon="13.752925254241914"><ele>57.33333333333333</ele><time>2026-04-05T15:44:44Z</time></trkpt><trkpt lat="42.869653981381845" lon="13.753117244792996"><ele>57.666666666666664</ele><time>2026-04-05T15:44:45Z</time></trkpt><trkpt lat="42.8696765266433" lon="13.753353787666487"><ele>58.0</ele><time>2026-04-05T15:44:46Z</time></trkpt><trkpt lat="42.869699791952904" lon="13.753609608413809"><ele>56.666666666666664</ele><time>2026-04-05T15:44:47Z</time></trkpt><trkpt lat="42.869719896692445" lon="13.753873212261912"><ele>55.33333333333333</ele><time>2026-04-05T15:44:48Z</time></trkpt><trkpt lat="42.869732971728176" lon="13.754147498117929"><ele>54.0</ele><time>2026-04-05T15:44:49Z</time></trkpt><trkpt lat="42.869739573382375" lon="13.75440101077617"><ele>53.0</ele><time>2026-04-05T15:44:50Z</time></trkpt><trkpt lat="42.8697420149474" lon="13.754640336933539"><ele>52.0</ele><time>2026-04-05T15:44:51Z</time></trkpt><trkpt lat="42.86974289473346" lon="13.754869257131036"><ele>51.0</ele><time>2026-04-05T15:44:52Z</time></trkpt><trkpt lat="42.86974294700804" lon="13.75508481469035"><ele>51.66666666666667</ele><time>2026-04-05T15:44:53Z</time></trkpt><trkpt lat="42.86974129666468" lon="13.755291025982816"><ele>52.333333333333336</ele><time>2026-04-05T15:44:54Z</time></trkpt><trkpt lat="42.86975411613112" lon="13.75549153442042"><ele>53.0</ele><time>2026-04-05T15:44:55Z</time></trkpt><trkpt lat="42.86973566893889" lon="13.755701933784868"><ele>53.0</ele><time>2026-04-05T15:44:56Z</time></trkpt><trkpt lat="42.86974982931565" lon="13.75591510862926"><ele>53.0</ele><time>2026-04-05T15:44:57Z</time></trkpt><trkpt lat="42.86974808561461" lon="13.756118695076776"><ele>53.0</ele><time>2026-04-05T15:44:58Z</time></trkpt><trkpt lat="42.86974976825335" lon="13.756302466375763"><ele>53.0</ele><time>2026-04-05T15:44:59Z</time></trkpt><trkpt lat="42.86975863789026" lon="13.75647507399952"><ele>53.25</ele><time>2026-04-05T15:45:00Z</time></trkpt><trkpt lat="42.869775218643404" lon="13.756642677000682"><ele>53.5</ele><time>2026-04-05T15:45:01Z</time></trkpt><trkpt lat="42.86980620991145" lon="13.756802809368745"><ele>53.75</ele><time>2026-04-05T15:45:02Z</time></trkpt><trkpt lat="42.869830001207966" lon="13.75695822103945"><ele>54.0</ele><time>2026-04-05T15:45:03Z</time></trkpt><trkpt lat="42.86989504055864" lon="13.757094093557932"><ele>54.0</ele><time>2026-04-05T15:45:04Z</time></trkpt><trkpt lat="42.869945687029684" lon="13.757247328910701"><ele>54.0</ele><time>2026-04-05T15:45:05Z</time></trkpt><trkpt lat="42.87001936955884" lon="13.75739320801273"><ele>54.0</ele><time>2026-04-05T15:45:06Z</time></trkpt><trkpt lat="42.87008964905132" lon="13.757537280890206"><ele>54.0</ele><time>2026-04-05T15:45:07Z</time></trkpt><trkpt lat="42.87015907496649" lon="13.757676468992463"><ele>53.5</ele><time>2026-04-05T15:45:08Z</time></trkpt><trkpt lat="42.87022730542226" lon="13.75781912996939"><ele>53.0</ele><time>2026-04-05T15:45:09Z</time></trkpt><trkpt lat="42.87030002023108" lon="13.75796140629053"><ele>52.5</ele><time>2026-04-05T15:45:10Z</time></trkpt><trkpt lat="42.87037386894252" lon="13.758100824903382"><ele>52.0</ele><time>2026-04-05T15:45:11Z</time></trkpt><trkpt lat="42.87043051336333" lon="13.758249698958377"><ele>52.0</ele><time>2026-04-05T15:45:12Z</time></trkpt><trkpt lat="42.87049695559609" lon="13.758380576352572"><ele>52.0</ele><time>2026-04-05T15:45:13Z</time></trkpt><trkpt lat="42.87056302640492" lon="13.75851072439477"><ele>52.0</ele><time>2026-04-05T15:45:14Z</time></trkpt><trkpt lat="42.87062936666006" lon="13.758641684801866"><ele>52.0</ele><time>2026-04-05T15:45:15Z</time></trkpt><trkpt lat="42.87070925250485" lon="13.75875990180862"><ele>52.0</ele><time>2026-04-05T15:45:16Z</time></trkpt><trkpt lat="42.870763353931174" lon="13.758908118966135"><ele>52.0</ele><time>2026-04-05T15:45:17Z</time></trkpt><trkpt lat="42.87083001809193" lon="13.759041567517583"><ele>52.0</ele><time>2026-04-05T15:45:18Z</time></trkpt><trkpt lat="42.870897237753404" lon="13.759176455128818"><ele>52.0</ele><time>2026-04-05T15:45:19Z</time></trkpt><trkpt lat="42.87096550289576" lon="13.75931360989619"><ele>52.25</ele><time>2026-04-05T15:45:20Z</time></trkpt><trkpt lat="42.87105236199536" lon="13.759442795030383"><ele>52.5</ele><time>2026-04-05T15:45:21Z</time></trkpt><trkpt lat="42.87113802319382" lon="13.759595465745077"><ele>52.75</ele><time>2026-04-05T15:45:22Z</time></trkpt><trkpt lat="42.87122581345727" lon="13.759756167800884"><ele>53.0</ele><time>2026-04-05T15:45:23Z</time></trkpt><trkpt lat="42.87133477985759" lon="13.759950903632676"><ele>53.0</ele><time>2026-04-05T15:45:24Z</time></trkpt><trkpt lat="42.8714258175234" lon="13.760162973987361"><ele>53.0</ele><time>2026-04-05T15:45:25Z</time></trkpt><trkpt lat="42.87152359425795" lon="13.760372117148897"><ele>53.0</ele><time>2026-04-05T15:45:26Z</time></trkpt><trkpt lat="42.871617182864554" lon="13.760561101564447"><ele>53.0</ele><time>2026-04-05T15:45:27Z</time></trkpt><trkpt lat="42.87170805921765" lon="13.760742018265391"><ele>53.0</ele><time>2026-04-05T15:45:28Z</time></trkpt><trkpt lat="42.871794423365834" lon="13.760916661926593"><ele>53.0</ele><time>2026-04-05T15:45:29Z</time></trkpt><trkpt lat="42.871872944124235" lon="13.761087920443417"><ele>53.5</ele><time>2026-04-05T15:45:30Z</time></trkpt><trkpt lat="42.871947470514655" lon="13.761255409196322"><ele>54.0</ele><time>2026-04-05T15:45:31Z</time></trkpt><trkpt lat="42.87201690373176" lon="13.761420263078037"><ele>54.5</ele><time>2026-04-05T15:45:32Z</time></trkpt><trkpt lat="42.87208319503427" lon="13.7615870222257"><ele>55.0</ele><time>2026-04-05T15:45:33Z</time></trkpt><trkpt lat="42.87212994633307" lon="13.761771231300145"><ele>54.75</ele><time>2026-04-05T15:45:34Z</time></trkpt><trkpt lat="42.872203940798904" lon="13.761937105819595"><ele>54.5</ele><time>2026-04-05T15:45:35Z</time></trkpt><trkpt lat="42.87225807351028" lon="13.762104132018235"><ele>54.25</ele><time>2026-04-05T15:45:36Z</time></trkpt><trkpt lat="42.87231194208414" lon="13.762268801405755"><ele>54.0</ele><time>2026-04-05T15:45:37Z</time></trkpt><trkpt lat="42.87236449447562" lon="13.762436739252166"><ele>54.0</ele><time>2026-04-05T15:45:38Z</time></trkpt><trkpt lat="42.872418779321215" lon="13.762610469865509"><ele>54.0</ele><time>2026-04-05T15:45:39Z</time></trkpt><trkpt lat="42.872479334197195" lon="13.76279071529268"><ele>54.0</ele><time>2026-04-05T15:45:40Z</time></trkpt><trkpt lat="42.87254050570649" lon="13.76297862798856"><ele>54.0</ele><time>2026-04-05T15:45:41Z</time></trkpt><trkpt lat="42.872563925313415" lon="13.763175433684621"><ele>53.800000000000004</ele><time>2026-04-05T15:45:42Z</time></trkpt><trkpt lat="42.87260825779886" lon="13.76333594395918"><ele>53.60000000000001</ele><time>2026-04-05T15:45:43Z</time></trkpt><trkpt lat="42.87264811973822" lon="13.763480268082377"><ele>53.4</ele><time>2026-04-05T15:45:44Z</time></trkpt><trkpt lat="42.87268231807053" lon="13.763604086532462"><ele>53.2</ele><time>2026-04-05T15:45:45Z</time></trkpt><trkpt lat="42.872713011305294" lon="13.763715214521023"><ele>53.0</ele><time>2026-04-05T15:45:46Z</time></trkpt><trkpt lat="42.87274761695462" lon="13.763840507836651"><ele>52.75</ele><time>2026-04-05T15:45:47Z</time></trkpt><trkpt lat="42.87279197845998" lon="13.764001123061146"><ele>52.5</ele><time>2026-04-05T15:45:48Z</time></trkpt><trkpt lat="42.87284229943646" lon="13.76418331525825"><ele>52.25</ele><time>2026-04-05T15:45:49Z</time></trkpt><trkpt lat="42.87290157525624" lon="13.764357069300237"><ele>52.0</ele><time>2026-04-05T15:45:50Z</time></trkpt><trkpt lat="42.872952050689875" lon="13.764549857458498"><ele>52.666666666666664</ele><time>2026-04-05T15:45:51Z</time></trkpt><trkpt lat="42.873009223604086" lon="13.76474596242814"><ele>53.33333333333333</ele><time>2026-04-05T15:45:52Z</time></trkpt><trkpt lat="42.87306547852751" lon="13.764953381626029"><ele>54.0</ele><time>2026-04-05T15:45:53Z</time></trkpt><trkpt lat="42.87311874096915" lon="13.765153735149772"><ele>54.0</ele><time>2026-04-05T15:45:54Z</time></trkpt><trkpt lat="42.87318184303082" lon="13.76534885806063"><ele>54.0</ele><time>2026-04-05T15:45:55Z</time></trkpt><trkpt lat="42.87322479401885" lon="13.765526519033399"><ele>54.0</ele><time>2026-04-05T15:45:56Z</time></trkpt><trkpt lat="42.87327395875553" lon="13.765685547480642"><ele>54.0</ele><time>2026-04-05T15:45:57Z</time></trkpt><trkpt lat="42.8733105654942" lon="13.765839373609017"><ele>54.0</ele><time>2026-04-05T15:45:58Z</time></trkpt><trkpt lat="42.87334274499845" lon="13.76596737585976"><ele>54.00000000000001</ele><time>2026-04-05T15:45:59Z</time></trkpt><trkpt lat="42.87336086856639" lon="13.766086462014272"><ele>54.00000000000001</ele><time>2026-04-05T15:46:00Z</time></trkpt><trkpt lat="42.87335871323416" lon="13.766197618527455"><ele>54.0</ele><time>2026-04-05T15:46:01Z</time></trkpt><trkpt lat="42.87330843275668" lon="13.76639784418032"><ele>54.0</ele><time>2026-04-05T15:46:03Z</time></trkpt><trkpt lat="42.873336231117044" lon="13.766503254501286"><ele>54.2</ele><time>2026-04-05T15:46:04Z</time></trkpt><trkpt lat="42.87340412008457" lon="13.766603558897062"><ele>54.400000000000006</ele><time>2026-04-05T15:46:05Z</time></trkpt><trkpt lat="42.87349710353257" lon="13.76667327791915"><ele>54.6</ele><time>2026-04-05T15:46:06Z</time></trkpt><trkpt lat="42.8736022918354" lon="13.766733975634711"><ele>54.8</ele><time>2026-04-05T15:46:07Z</time></trkpt><trkpt lat="42.87368584218238" lon="13.766802679009992"><ele>55.0</ele><time>2026-04-05T15:46:08Z</time></trkpt><trkpt lat="42.873731724449385" lon="13.766977032492532"><ele>54.5</ele><time>2026-04-05T15:46:09Z</time></trkpt><trkpt lat="42.87377909746799" lon="13.767145766000784"><ele>54.0</ele><time>2026-04-05T15:46:10Z</time></trkpt><trkpt lat="42.87384016671486" lon="13.767327496767512"><ele>53.5</ele><time>2026-04-05T15:46:11Z</time></trkpt><trkpt lat="42.87391611761836" lon="13.767517469602147"><ele>53.0</ele><time>2026-04-05T15:46:12Z</time></trkpt><trkpt lat="42.8739931279131" lon="13.7677118336113"><ele>51.66666666666667</ele><time>2026-04-05T15:46:13Z</time></trkpt><trkpt lat="42.87406983150371" lon="13.767912335045203"><ele>50.33333333333333</ele><time>2026-04-05T15:46:14Z</time></trkpt><trkpt lat="42.874147013675476" lon="13.76811651397651"><ele>49.0</ele><time>2026-04-05T15:46:15Z</time></trkpt><trkpt lat="42.87422320772147" lon="13.768315294737631"><ele>49.33333333333333</ele><time>2026-04-05T15:46:15.999Z</time></trkpt><trkpt lat="42.8742996552627" lon="13.768520932326538"><ele>49.66666666666667</ele><time>2026-04-05T15:46:16.999Z</time></trkpt><trkpt lat="42.87436290420133" lon="13.768734615297836"><ele>50.0</ele><time>2026-04-05T15:46:17.999Z</time></trkpt><trkpt lat="42.87440786767014" lon="13.768964320505432"><ele>50.0</ele><time>2026-04-05T15:46:18.999Z</time></trkpt><trkpt lat="42.87442999538457" lon="13.769202252306254"><ele>50.0</ele><time>2026-04-05T15:46:19.999Z</time></trkpt><trkpt lat="42.87444729327113" lon="13.769447939443214"><ele>50.0</ele><time>2026-04-05T15:46:20.999Z</time></trkpt><trkpt lat="42.8744643163569" lon="13.769700381796142"><ele>49.333333333333336</ele><time>2026-04-05T15:46:21.999Z</time></trkpt><trkpt lat="42.87448596369946" lon="13.769953922436937"><ele>48.66666666666667</ele><time>2026-04-05T15:46:22.999Z</time></trkpt><trkpt lat="42.87450805445329" lon="13.770212164359723"><ele>48.0</ele><time>2026-04-05T15:46:23.999Z</time></trkpt><trkpt lat="42.874528477093975" lon="13.77047134042523"><ele>48.0</ele><time>2026-04-05T15:46:24.999Z</time></trkpt><trkpt lat="42.87454868857435" lon="13.770732846953129"><ele>48.0</ele><time>2026-04-05T15:46:25.999Z</time></trkpt><trkpt lat="42.874568646673076" lon="13.770996599561165"><ele>48.0</ele><time>2026-04-05T15:46:26.999Z</time></trkpt><trkpt lat="42.87458818852107" lon="13.771257997573072"><ele>47.666666666666664</ele><time>2026-04-05T15:46:27.999Z</time></trkpt><trkpt lat="42.874607767173686" lon="13.771518190442466"><ele>47.33333333333333</ele><time>2026-04-05T15:46:28.999Z</time></trkpt><trkpt lat="42.87462793674588" lon="13.77177878701966"><ele>47.0</ele><time>2026-04-05T15:46:29.999Z</time></trkpt><trkpt lat="42.87465671172802" lon="13.772036129236112"><ele>46.0</ele><time>2026-04-05T15:46:30.999Z</time></trkpt><trkpt lat="42.87469581929182" lon="13.772292753144296"><ele>45.0</ele><time>2026-04-05T15:46:31.999Z</time></trkpt><trkpt lat="42.87475126591881" lon="13.772551908849918"><ele>44.0</ele><time>2026-04-05T15:46:32.999Z</time></trkpt><trkpt lat="42.87481515084784" lon="13.772810802066994"><ele>43.33333333333333</ele><time>2026-04-05T15:46:33.999Z</time></trkpt><trkpt lat="42.87488275159482" lon="13.773070033939314"><ele>42.666666666666664</ele><time>2026-04-05T15:46:34.999Z</time></trkpt><trkpt lat="42.874951952181235" lon="13.773325640183295"><ele>42.0</ele><time>2026-04-05T15:46:35.999Z</time></trkpt><trkpt lat="42.87501944479344" lon="13.773584083988576"><ele>42.0</ele><time>2026-04-05T15:46:36.999Z</time></trkpt><trkpt lat="42.87508948758045" lon="13.773834138325686"><ele>42.0</ele><time>2026-04-05T15:46:37.999Z</time></trkpt><trkpt lat="42.875160937434885" lon="13.774088253635401"><ele>42.0</ele><time>2026-04-05T15:46:38.999Z</time></trkpt><trkpt lat="42.8752286970564" lon="13.774343346894803"><ele>41.0</ele><time>2026-04-05T15:46:39.999Z</time></trkpt><trkpt lat="42.87529428856214" lon="13.7745980341798"><ele>40.0</ele><time>2026-04-05T15:46:40.999Z</time></trkpt><trkpt lat="42.875360532948896" lon="13.774844130254316"><ele>39.0</ele><time>2026-04-05T15:46:41.999Z</time></trkpt><trkpt lat="42.8754301311742" lon="13.775093306145628"><ele>38.666666666666664</ele><time>2026-04-05T15:46:42.999Z</time></trkpt><trkpt lat="42.8755222187282" lon="13.775335277906127"><ele>38.33333333333333</ele><time>2026-04-05T15:46:43.999Z</time></trkpt><trkpt lat="42.87563281252858" lon="13.775568628426562"><ele>38.0</ele><time>2026-04-05T15:46:44.999Z</time></trkpt><trkpt lat="42.87575896747518" lon="13.775796072507893"><ele>37.0</ele><time>2026-04-05T15:46:45.999Z</time></trkpt><trkpt lat="42.8758879138579" lon="13.776024416602446"><ele>36.0</ele><time>2026-04-05T15:46:46.999Z</time></trkpt><trkpt lat="42.876024188169616" lon="13.77625159454624"><ele>35.0</ele><time>2026-04-05T15:46:47.999Z</time></trkpt><trkpt lat="42.87616163999148" lon="13.77648118041201"><ele>35.0</ele><time>2026-04-05T15:46:49Z</time></trkpt><trkpt lat="42.87630324236204" lon="13.77670625283025"><ele>35.0</ele><time>2026-04-05T15:46:50Z</time></trkpt><trkpt lat="42.87644420693415" lon="13.77693538340371"><ele>35.0</ele><time>2026-04-05T15:46:51Z</time></trkpt><trkpt lat="42.876585014994376" lon="13.777166308956884"><ele>35.0</ele><time>2026-04-05T15:46:52Z</time></trkpt><trkpt lat="42.876721281619716" lon="13.777398184671066"><ele>35.0</ele><time>2026-04-05T15:46:53Z</time></trkpt><trkpt lat="42.87685515172717" lon="13.777626993537273"><ele>35.0</ele><time>2026-04-05T15:46:54Z</time></trkpt><trkpt lat="42.87698332571735" lon="13.777850675530487"><ele>35.33333333333333</ele><time>2026-04-05T15:46:55Z</time></trkpt><trkpt lat="42.87710342150186" lon="13.778076748329832"><ele>35.666666666666664</ele><time>2026-04-05T15:46:56Z</time></trkpt><trkpt lat="42.877187791980184" lon="13.778330299435703"><ele>36.0</ele><time>2026-04-05T15:46:57Z</time></trkpt><trkpt lat="42.877265827029035" lon="13.778588561250857"><ele>36.333333333333336</ele><time>2026-04-05T15:46:58Z</time></trkpt><trkpt lat="42.877351006340426" lon="13.778841313414054"><ele>36.66666666666667</ele><time>2026-04-05T15:46:59Z</time></trkpt><trkpt lat="42.87742130705353" lon="13.779094518273267"><ele>37.0</ele><time>2026-04-05T15:47:00Z</time></trkpt><trkpt lat="42.87749042884536" lon="13.779336263444419"><ele>37.0</ele><time>2026-04-05T15:47:01Z</time></trkpt><trkpt lat="42.87755903039269" lon="13.779572164267107"><ele>37.0</ele><time>2026-04-05T15:47:02Z</time></trkpt><trkpt lat="42.87762858687616" lon="13.779804387605358"><ele>37.0</ele><time>2026-04-05T15:47:03Z</time></trkpt><trkpt lat="42.87769993347484" lon="13.780041796892093"><ele>36.66666666666667</ele><time>2026-04-05T15:47:04Z</time></trkpt><trkpt lat="42.877773692386455" lon="13.780285104801152"><ele>36.333333333333336</ele><time>2026-04-05T15:47:05Z</time></trkpt><trkpt lat="42.87785039896256" lon="13.78053881802111"><ele>36.0</ele><time>2026-04-05T15:47:06Z</time></trkpt><trkpt lat="42.87792762102819" lon="13.780792841134431"><ele>35.333333333333336</ele><time>2026-04-05T15:47:07Z</time></trkpt><trkpt lat="42.877991684493644" lon="13.781064129515798"><ele>34.66666666666667</ele><time>2026-04-05T15:47:08Z</time></trkpt><trkpt lat="42.87807042971316" lon="13.781338354698303"><ele>34.0</ele><time>2026-04-05T15:47:09Z</time></trkpt><trkpt lat="42.8781512208533" lon="13.781619842432791"><ele>35.5</ele><time>2026-04-05T15:47:10Z</time></trkpt><trkpt lat="42.878235193824025" lon="13.781910327937377"><ele>37.0</ele><time>2026-04-05T15:47:11Z</time></trkpt><trkpt lat="42.87831764965062" lon="13.78219532307473"><ele>37.0</ele><time>2026-04-05T15:47:12Z</time></trkpt><trkpt lat="42.87840118828459" lon="13.782481734216123"><ele>37.0</ele><time>2026-04-05T15:47:13Z</time></trkpt><trkpt lat="42.87849417434504" lon="13.782756275004317"><ele>37.0</ele><time>2026-04-05T15:47:14Z</time></trkpt><trkpt lat="42.87857970036052" lon="13.783039836117538"><ele>36.333333333333336</ele><time>2026-04-05T15:47:15Z</time></trkpt><trkpt lat="42.87866385896592" lon="13.783321278323383"><ele>35.666666666666664</ele><time>2026-04-05T15:47:16Z</time></trkpt><trkpt lat="42.87874376380126" lon="13.783594716480227"><ele>35.0</ele><time>2026-04-05T15:47:17Z</time></trkpt><trkpt lat="42.87880904477059" lon="13.783873611771304"><ele>35.0</ele><time>2026-04-05T15:47:18Z</time></trkpt><trkpt lat="42.87888817911371" lon="13.784143670723763"><ele>35.0</ele><time>2026-04-05T15:47:19Z</time></trkpt><trkpt lat="42.878980887103154" lon="13.784400910986024"><ele>35.0</ele><time>2026-04-05T15:47:20Z</time></trkpt><trkpt lat="42.879054713854835" lon="13.78466734067094"><ele>34.666666666666664</ele><time>2026-04-05T15:47:21Z</time></trkpt><trkpt lat="42.87912574126581" lon="13.78492642556179"><ele>34.333333333333336</ele><time>2026-04-05T15:47:22Z</time></trkpt><trkpt lat="42.879195564410445" lon="13.785181064393328"><ele>34.0</ele><time>2026-04-05T15:47:23Z</time></trkpt><trkpt lat="42.87926436402538" lon="13.785433035954275"><ele>34.66666666666667</ele><time>2026-04-05T15:47:24Z</time></trkpt><trkpt lat="42.87933507963447" lon="13.78568262447949"><ele>35.333333333333336</ele><time>2026-04-05T15:47:25Z</time></trkpt><trkpt lat="42.87940427807478" lon="13.785929719611413"><ele>36.0</ele><time>2026-04-05T15:47:26Z</time></trkpt><trkpt lat="42.879471044421734" lon="13.786188793309014"><ele>36.0</ele><time>2026-04-05T15:47:27Z</time></trkpt><trkpt lat="42.879544922059154" lon="13.786441126847059"><ele>36.0</ele><time>2026-04-05T15:47:28Z</time></trkpt><trkpt lat="42.8796218752671" lon="13.786690018645006"><ele>36.0</ele><time>2026-04-05T15:47:29Z</time></trkpt><trkpt lat="42.87970912606848" lon="13.786936724041393"><ele>36.333333333333336</ele><time>2026-04-05T15:47:30Z</time></trkpt><trkpt lat="42.87980269627147" lon="13.787177814165315"><ele>36.66666666666667</ele><time>2026-04-05T15:47:31Z</time></trkpt><trkpt lat="42.87989424668774" lon="13.787393936333736"><ele>37.0</ele><time>2026-04-05T15:47:32Z</time></trkpt><trkpt lat="42.87998942847705" lon="13.787587014691388"><ele>37.333333333333336</ele><time>2026-04-05T15:47:33Z</time></trkpt><trkpt lat="42.88008844985414" lon="13.78777203930931"><ele>37.666666666666664</ele><time>2026-04-05T15:47:34Z</time></trkpt><trkpt lat="42.88019076477497" lon="13.787954684392556"><ele>38.0</ele><time>2026-04-05T15:47:35Z</time></trkpt><trkpt lat="42.880292951346085" lon="13.788132817525701"><ele>38.25</ele><time>2026-04-05T15:47:36Z</time></trkpt><trkpt lat="42.880386836541966" lon="13.788296774893237"><ele>38.5</ele><time>2026-04-05T15:47:37Z</time></trkpt><trkpt lat="42.880475077405414" lon="13.788450148531364"><ele>38.75</ele><time>2026-04-05T15:47:38Z</time></trkpt><trkpt lat="42.880556675978646" lon="13.788596403381177"><ele>39.0</ele><time>2026-04-05T15:47:39Z</time></trkpt><trkpt lat="42.88062836813799" lon="13.788737812154624"><ele>39.0</ele><time>2026-04-05T15:47:40Z</time></trkpt><trkpt lat="42.88069044879736" lon="13.788879731450063"><ele>39.0</ele><time>2026-04-05T15:47:41Z</time></trkpt><trkpt lat="42.88074491621589" lon="13.789021943280867"><ele>39.0</ele><time>2026-04-05T15:47:42Z</time></trkpt><trkpt lat="42.880793246709466" lon="13.78916725692407"><ele>39.0</ele><time>2026-04-05T15:47:43Z</time></trkpt><trkpt lat="42.88083892025374" lon="13.789310401587576"><ele>38.75</ele><time>2026-04-05T15:47:44Z</time></trkpt><trkpt lat="42.88088436825418" lon="13.789455988739789"><ele>38.5</ele><time>2026-04-05T15:47:45Z</time></trkpt><trkpt lat="42.880916077662526" lon="13.789618629181948"><ele>38.25</ele><time>2026-04-05T15:47:46Z</time></trkpt><trkpt lat="42.88096186123914" lon="13.78977950908627"><ele>38.0</ele><time>2026-04-05T15:47:47Z</time></trkpt><trkpt lat="42.881009177277015" lon="13.789941761091592"><ele>37.0</ele><time>2026-04-05T15:47:48Z</time></trkpt><trkpt lat="42.8810570106095" lon="13.790105786951182"><ele>36.0</ele><time>2026-04-05T15:47:49Z</time></trkpt><trkpt lat="42.88110250021776" lon="13.79026917977093"><ele>35.0</ele><time>2026-04-05T15:47:50Z</time></trkpt><trkpt lat="42.88115243373175" lon="13.790431110804194"><ele>34.0</ele><time>2026-04-05T15:47:51Z</time></trkpt><trkpt lat="42.881199488370825" lon="13.79058888202692"><ele>33.25</ele><time>2026-04-05T15:47:52Z</time></trkpt><trkpt lat="42.88124670856974" lon="13.790750775110714"><ele>32.5</ele><time>2026-04-05T15:47:53Z</time></trkpt><trkpt lat="42.88129814554983" lon="13.790927102846789"><ele>31.75</ele><time>2026-04-05T15:47:54Z</time></trkpt><trkpt lat="42.88135346393711" lon="13.791115363934495"><ele>31.0</ele><time>2026-04-05T15:47:55Z</time></trkpt><trkpt lat="42.88141523966225" lon="13.791325600499146"><ele>30.666666666666668</ele><time>2026-04-05T15:47:56Z</time></trkpt><trkpt lat="42.8814807942553" lon="13.791546910772723"><ele>30.333333333333336</ele><time>2026-04-05T15:47:57Z</time></trkpt><trkpt lat="42.881553527768645" lon="13.79179176784553"><ele>30.0</ele><time>2026-04-05T15:47:58Z</time></trkpt><trkpt lat="42.88162496688609" lon="13.792032109526227"><ele>29.666666666666664</ele><time>2026-04-05T15:47:59Z</time></trkpt><trkpt lat="42.881695568706014" lon="13.792269168356652"><ele>29.333333333333332</ele><time>2026-04-05T15:48:00Z</time></trkpt><trkpt lat="42.881761699122315" lon="13.792491213783965"><ele>29.0</ele><time>2026-04-05T15:48:01Z</time></trkpt><trkpt lat="42.881823934357456" lon="13.79270018000044"><ele>31.333333333333332</ele><time>2026-04-05T15:48:02Z</time></trkpt><trkpt lat="42.88188507642195" lon="13.792905475997147"><ele>33.666666666666664</ele><time>2026-04-05T15:48:03Z</time></trkpt><trkpt lat="42.88194628131492" lon="13.79311098287387"><ele>36.0</ele><time>2026-04-05T15:48:04Z</time></trkpt><trkpt lat="42.882010195461554" lon="13.793325586602663"><ele>36.0</ele><time>2026-04-05T15:48:05Z</time></trkpt><trkpt lat="42.88207745681866" lon="13.793551978989743"><ele>36.0</ele><time>2026-04-05T15:48:06Z</time></trkpt><trkpt lat="42.882148394556125" lon="13.793791777510295"><ele>36.0</ele><time>2026-04-05T15:48:07Z</time></trkpt><trkpt lat="42.88222677053833" lon="13.794056720135453"><ele>36.0</ele><time>2026-04-05T15:48:08Z</time></trkpt><trkpt lat="42.88230810739836" lon="13.79432969461371"><ele>36.0</ele><time>2026-04-05T15:48:09Z</time></trkpt><trkpt lat="42.88238883257874" lon="13.794598994316473"><ele>36.0</ele><time>2026-04-05T15:48:10Z</time></trkpt><trkpt lat="42.88246830847175" lon="13.79486412656126"><ele>36.666666666666664</ele><time>2026-04-05T15:48:11Z</time></trkpt><trkpt lat="42.882558998760466" lon="13.795109506289668"><ele>37.33333333333333</ele><time>2026-04-05T15:48:12Z</time></trkpt><trkpt lat="42.88261292844649" lon="13.795347374508067"><ele>38.0</ele><time>2026-04-05T15:48:13Z</time></trkpt><trkpt lat="42.882685254407335" lon="13.795534710692275"><ele>37.75</ele><time>2026-04-05T15:48:14Z</time></trkpt><trkpt lat="42.88273644820888" lon="13.79571384922783"><ele>37.5</ele><time>2026-04-05T15:48:15Z</time></trkpt><trkpt lat="42.88278635845444" lon="13.79588574428337"><ele>37.25</ele><time>2026-04-05T15:48:16Z</time></trkpt><trkpt lat="42.88283780514771" lon="13.796058044503512"><ele>37.0</ele><time>2026-04-05T15:48:16.999Z</time></trkpt><trkpt lat="42.882892213643515" lon="13.796239074082408"><ele>37.0</ele><time>2026-04-05T15:48:17.999Z</time></trkpt><trkpt lat="42.88295055509469" lon="13.796423496739589"><ele>37.0</ele><time>2026-04-05T15:48:18.999Z</time></trkpt><trkpt lat="42.88299375194631" lon="13.796622401424578"><ele>37.0</ele><time>2026-04-05T15:48:19.999Z</time></trkpt><trkpt lat="42.88305393398265" lon="13.796821743942001"><ele>36.333333333333336</ele><time>2026-04-05T15:48:20.999Z</time></trkpt><trkpt lat="42.88311365041558" lon="13.79701928411283"><ele>35.666666666666664</ele><time>2026-04-05T15:48:21.999Z</time></trkpt><trkpt lat="42.8831730951125" lon="13.7972151290353"><ele>35.0</ele><time>2026-04-05T15:48:22.999Z</time></trkpt><trkpt lat="42.88323153280717" lon="13.797407656297255"><ele>35.0</ele><time>2026-04-05T15:48:23.999Z</time></trkpt><trkpt lat="42.88330495889263" lon="13.79759135676459"><ele>35.0</ele><time>2026-04-05T15:48:24.999Z</time></trkpt><trkpt lat="42.88336360112812" lon="13.797780541609665"><ele>35.0</ele><time>2026-04-05T15:48:25.999Z</time></trkpt><trkpt lat="42.88340885020755" lon="13.797975932737504"><ele>35.5</ele><time>2026-04-05T15:48:26.999Z</time></trkpt><trkpt lat="42.883469806869684" lon="13.798161533465894"><ele>36.0</ele><time>2026-04-05T15:48:27.999Z</time></trkpt><trkpt lat="42.88353510129255" lon="13.798347451723163"><ele>36.5</ele><time>2026-04-05T15:48:28.999Z</time></trkpt><trkpt lat="42.883600567601746" lon="13.798530406106478"><ele>37.0</ele><time>2026-04-05T15:48:29.999Z</time></trkpt><trkpt lat="42.88366632168271" lon="13.79871401550554"><ele>37.0</ele><time>2026-04-05T15:48:30.999Z</time></trkpt><trkpt lat="42.88373137777494" lon="13.798895167953068"><ele>37.0</ele><time>2026-04-05T15:48:31.999Z</time></trkpt><trkpt lat="42.883800758282675" lon="13.799087196062434"><ele>37.0</ele><time>2026-04-05T15:48:32.999Z</time></trkpt><trkpt lat="42.883874821968234" lon="13.799297860980223"><ele>37.333333333333336</ele><time>2026-04-05T15:48:33.999Z</time></trkpt><trkpt lat="42.88394863594803" lon="13.79951908200894"><ele>37.666666666666664</ele><time>2026-04-05T15:48:34.999Z</time></trkpt><trkpt lat="42.88401999531584" lon="13.799753932405233"><ele>38.0</ele><time>2026-04-05T15:48:35.999Z</time></trkpt><trkpt lat="42.88409883940853" lon="13.799976426676443"><ele>38.0</ele><time>2026-04-05T15:48:36.999Z</time></trkpt><trkpt lat="42.88415879081431" lon="13.800191798610726"><ele>38.0</ele><time>2026-04-05T15:48:37.999Z</time></trkpt><trkpt lat="42.884216735969915" lon="13.800403026973228"><ele>38.0</ele><time>2026-04-05T15:48:38.999Z</time></trkpt><trkpt lat="42.88427156217158" lon="13.800616697024843"><ele>39.0</ele><time>2026-04-05T15:48:39.999Z</time></trkpt><trkpt lat="42.88432664475975" lon="13.800835556059617"><ele>40.0</ele><time>2026-04-05T15:48:40.999Z</time></trkpt><trkpt lat="42.8843838111834" lon="13.801054194740455"><ele>41.0</ele><time>2026-04-05T15:48:41.999Z</time></trkpt><trkpt lat="42.884440688095665" lon="13.801272641473316"><ele>41.0</ele><time>2026-04-05T15:48:42.999Z</time></trkpt><trkpt lat="42.88449442054806" lon="13.801494799427216"><ele>41.0</ele><time>2026-04-05T15:48:43.999Z</time></trkpt><trkpt lat="42.884545712949645" lon="13.801716828861222"><ele>41.0</ele><time>2026-04-05T15:48:44.999Z</time></trkpt><trkpt lat="42.884597405127586" lon="13.801940980566783"><ele>40.666666666666664</ele><time>2026-04-05T15:48:45.999Z</time></trkpt><trkpt lat="42.884649430372946" lon="13.802167019021278"><ele>40.333333333333336</ele><time>2026-04-05T15:48:46.999Z</time></trkpt><trkpt lat="42.88469971515948" lon="13.802396070345948"><ele>40.0</ele><time>2026-04-05T15:48:47.999Z</time></trkpt><trkpt lat="42.884747294824784" lon="13.802626207851475"><ele>39.333333333333336</ele><time>2026-04-05T15:48:48.999Z</time></trkpt><trkpt lat="42.88479463679905" lon="13.802851892600435"><ele>38.666666666666664</ele><time>2026-04-05T15:48:49.999Z</time></trkpt><trkpt lat="42.88484167377243" lon="13.803078658123706"><ele>38.0</ele><time>2026-04-05T15:48:50.999Z</time></trkpt><trkpt lat="42.88489220779205" lon="13.8033060516345"><ele>37.666666666666664</ele><time>2026-04-05T15:48:51.999Z</time></trkpt><trkpt lat="42.884947976611585" lon="13.80353009561304"><ele>37.333333333333336</ele><time>2026-04-05T15:48:52.999Z</time></trkpt><trkpt lat="42.88501027466143" lon="13.803751822235819"><ele>37.0</ele><time>2026-04-05T15:48:53.999Z</time></trkpt><trkpt lat="42.885075507991466" lon="13.803964922306086"><ele>37.66666666666667</ele><time>2026-04-05T15:48:55Z</time></trkpt><trkpt lat="42.885139969692915" lon="13.80417260827692"><ele>38.333333333333336</ele><time>2026-04-05T15:48:56Z</time></trkpt><trkpt lat="42.88520500542608" lon="13.804378468859985"><ele>39.0</ele><time>2026-04-05T15:48:57Z</time></trkpt><trkpt lat="42.8852518596571" lon="13.80458352609188"><ele>39.0</ele><time>2026-04-05T15:48:58Z</time></trkpt><trkpt lat="42.88530950666265" lon="13.804767384715351"><ele>39.0</ele><time>2026-04-05T15:48:59Z</time></trkpt><trkpt lat="42.88537812185657" lon="13.804932799904464"><ele>39.0</ele><time>2026-04-05T15:49:00Z</time></trkpt><trkpt lat="42.885428548589935" lon="13.80509776514129"><ele>39.0</ele><time>2026-04-05T15:49:01Z</time></trkpt><trkpt lat="42.88547964535721" lon="13.805267142781883"><ele>38.5</ele><time>2026-04-05T15:49:02Z</time></trkpt><trkpt lat="42.88553320038075" lon="13.805439440759406"><ele>38.0</ele><time>2026-04-05T15:49:03Z</time></trkpt><trkpt lat="42.88558637917028" lon="13.805615898331498"><ele>37.5</ele><time>2026-04-05T15:49:04Z</time></trkpt><trkpt lat="42.88564176366042" lon="13.805790880870644"><ele>37.0</ele><time>2026-04-05T15:49:05Z</time></trkpt><trkpt lat="42.88569807328452" lon="13.805962685225847"><ele>36.5</ele><time>2026-04-05T15:49:06Z</time></trkpt><trkpt lat="42.885736450583074" lon="13.806136918986585"><ele>36.0</ele><time>2026-04-05T15:49:07Z</time></trkpt><trkpt lat="42.885788985171395" lon="13.806305268253654"><ele>35.5</ele><time>2026-04-05T15:49:08Z</time></trkpt><trkpt lat="42.88584001556991" lon="13.806468339153621"><ele>35.0</ele><time>2026-04-05T15:49:09Z</time></trkpt><trkpt lat="42.885891453119285" lon="13.80662606315619"><ele>35.75</ele><time>2026-04-05T15:49:10Z</time></trkpt><trkpt lat="42.885959167393644" lon="13.806767898173877"><ele>36.5</ele><time>2026-04-05T15:49:11Z</time></trkpt><trkpt lat="42.88600711694092" lon="13.80691100427588"><ele>37.25</ele><time>2026-04-05T15:49:12Z</time></trkpt><trkpt lat="42.88604454430942" lon="13.80705321181347"><ele>38.0</ele><time>2026-04-05T15:49:13Z</time></trkpt><trkpt lat="42.88609263422149" lon="13.807176637059055"><ele>38.0</ele><time>2026-04-05T15:49:14Z</time></trkpt><trkpt lat="42.886141146403595" lon="13.807296880731773"><ele>38.0</ele><time>2026-04-05T15:49:15Z</time></trkpt><trkpt lat="42.88620670612496" lon="13.807403768849237"><ele>38.0</ele><time>2026-04-05T15:49:16Z</time></trkpt><trkpt lat="42.88625689622244" lon="13.807530277082229"><ele>38.0</ele><time>2026-04-05T15:49:17Z</time></trkpt><trkpt lat="42.886306917802436" lon="13.807659534720734"><ele>38.0</ele><time>2026-04-05T15:49:18Z</time></trkpt><trkpt lat="42.88636048795974" lon="13.807783986015624"><ele>37.4</ele><time>2026-04-05T15:49:19Z</time></trkpt><trkpt lat="42.88639469999356" lon="13.807915238094791"><ele>36.8</ele><time>2026-04-05T15:49:20Z</time></trkpt><trkpt lat="42.88644494825182" lon="13.808037879380016"><ele>36.2</ele><time>2026-04-05T15:49:21Z</time></trkpt><trkpt lat="42.88649435668928" lon="13.808159132433813"><ele>35.6</ele><time>2026-04-05T15:49:22Z</time></trkpt><trkpt lat="42.88655781876418" lon="13.808274805041748"><ele>35.0</ele><time>2026-04-05T15:49:23Z</time></trkpt><trkpt lat="42.88660985850988" lon="13.808401628012058"><ele>35.0</ele><time>2026-04-05T15:49:24Z</time></trkpt><trkpt lat="42.88666273559609" lon="13.808526201396576"><ele>35.0</ele><time>2026-04-05T15:49:25Z</time></trkpt><trkpt lat="42.88671430692431" lon="13.808647052912786"><ele>35.0</ele><time>2026-04-05T15:49:26Z</time></trkpt><trkpt lat="42.88676450142994" lon="13.808773414800061"><ele>35.0</ele><time>2026-04-05T15:49:27Z</time></trkpt><trkpt lat="42.886815453223704" lon="13.808906153830078"><ele>35.0</ele><time>2026-04-05T15:49:28Z</time></trkpt><trkpt lat="42.886868706769825" lon="13.809039667952973"><ele>35.0</ele><time>2026-04-05T15:49:29Z</time></trkpt><trkpt lat="42.88692374264751" lon="13.809180573493006"><ele>35.0</ele><time>2026-04-05T15:49:30Z</time></trkpt><trkpt lat="42.886983289797065" lon="13.809326802418568"><ele>35.0</ele><time>2026-04-05T15:49:31Z</time></trkpt><trkpt lat="42.88704296683594" lon="13.809478109572964"><ele>35.0</ele><time>2026-04-05T15:49:32Z</time></trkpt><trkpt lat="42.88710244405289" lon="13.809625937145404"><ele>34.6</ele><time>2026-04-05T15:49:33Z</time></trkpt><trkpt lat="42.88714025715116" lon="13.809774270435568"><ele>34.2</ele><time>2026-04-05T15:49:34Z</time></trkpt><trkpt lat="42.8871832853658" lon="13.809909734768372"><ele>33.8</ele><time>2026-04-05T15:49:35Z</time></trkpt><trkpt lat="42.88722617935289" lon="13.810050543804548"><ele>33.4</ele><time>2026-04-05T15:49:36Z</time></trkpt><trkpt lat="42.887267780311966" lon="13.81019061951265"><ele>33.0</ele><time>2026-04-05T15:49:37Z</time></trkpt><trkpt lat="42.88732483098617" lon="13.810320877260352"><ele>33.0</ele><time>2026-04-05T15:49:38Z</time></trkpt><trkpt lat="42.88735464046703" lon="13.810472397094864"><ele>33.0</ele><time>2026-04-05T15:49:39Z</time></trkpt><trkpt lat="42.88740303122952" lon="13.810626744832026"><ele>33.0</ele><time>2026-04-05T15:49:40Z</time></trkpt><trkpt lat="42.88745448201271" lon="13.810790852533902"><ele>33.0</ele><time>2026-04-05T15:49:41Z</time></trkpt><trkpt lat="42.88750692493732" lon="13.810958122139278"><ele>32.75</ele><time>2026-04-05T15:49:42Z</time></trkpt><trkpt lat="42.88756264295633" lon="13.811133919427036"><ele>32.5</ele><time>2026-04-05T15:49:43Z</time></trkpt><trkpt lat="42.88760153998322" lon="13.811307647022018"><ele>32.25</ele><time>2026-04-05T15:49:44Z</time></trkpt><trkpt lat="42.88763091296997" lon="13.811474718051374"><ele>32.0</ele><time>2026-04-05T15:49:45Z</time></trkpt><trkpt lat="42.88765672852792" lon="13.811652947639232"><ele>33.5</ele><time>2026-04-05T15:49:46Z</time></trkpt><trkpt lat="42.8876850101898" lon="13.811831803149285"><ele>35.0</ele><time>2026-04-05T15:49:47Z</time></trkpt><trkpt lat="42.88771442851344" lon="13.811999277556959"><ele>36.5</ele><time>2026-04-05T15:49:48Z</time></trkpt><trkpt lat="42.88773126899291" lon="13.812188098691779"><ele>38.0</ele><time>2026-04-05T15:49:49Z</time></trkpt><trkpt lat="42.8877643149758" lon="13.812327585432028"><ele>38.0</ele><time>2026-04-05T15:49:50Z</time></trkpt><trkpt lat="42.887789265466225" lon="13.812494508707063"><ele>38.0</ele><time>2026-04-05T15:49:51Z</time></trkpt><trkpt lat="42.88781336586709" lon="13.812652460833968"><ele>38.0</ele><time>2026-04-05T15:49:52Z</time></trkpt><trkpt lat="42.88784006847311" lon="13.81281225664284"><ele>38.0</ele><time>2026-04-05T15:49:53Z</time></trkpt><trkpt lat="42.88786809440392" lon="13.812980548201176"><ele>38.0</ele><time>2026-04-05T15:49:54Z</time></trkpt><trkpt lat="42.88790196708251" lon="13.813159054944954"><ele>38.0</ele><time>2026-04-05T15:49:55Z</time></trkpt><trkpt lat="42.88793849491542" lon="13.813360202663123"><ele>38.0</ele><time>2026-04-05T15:49:56Z</time></trkpt><trkpt lat="42.887961766067235" lon="13.813568824403706"><ele>38.0</ele><time>2026-04-05T15:49:57Z</time></trkpt><trkpt lat="42.88797570314806" lon="13.813785589316645"><ele>38.0</ele><time>2026-04-05T15:49:58Z</time></trkpt><trkpt lat="42.887979905832715" lon="13.813993348087003"><ele>38.0</ele><time>2026-04-05T15:49:59Z</time></trkpt><trkpt lat="42.8879827621076" lon="13.814194978890995"><ele>38.0</ele><time>2026-04-05T15:50:00Z</time></trkpt><trkpt lat="42.88798540015731" lon="13.81438162046423"><ele>38.0</ele><time>2026-04-05T15:50:01Z</time></trkpt><trkpt lat="42.887989157920764" lon="13.814555360375083"><ele>37.4</ele><time>2026-04-05T15:50:02Z</time></trkpt><trkpt lat="42.887994116574745" lon="13.814715987479406"><ele>36.8</ele><time>2026-04-05T15:50:03Z</time></trkpt><trkpt lat="42.887996138717256" lon="13.814859805879328"><ele>36.2</ele><time>2026-04-05T15:50:04Z</time></trkpt><trkpt lat="42.88800043372875" lon="13.814986027540408"><ele>35.6</ele><time>2026-04-05T15:50:05Z</time></trkpt><trkpt lat="42.88800579784002" lon="13.815090354434835"><ele>35.0</ele><time>2026-04-05T15:50:06Z</time></trkpt><trkpt lat="42.888016943975074" lon="13.815227627828328"><ele>34.8</ele><time>2026-04-05T15:50:08Z</time></trkpt><trkpt lat="42.88802218881542" lon="13.815332164960559"><ele>34.6</ele><time>2026-04-05T15:50:11Z</time></trkpt><trkpt lat="42.88799975753216" lon="13.81545813400456"><ele>34.4</ele><time>2026-04-05T15:50:14.999Z</time></trkpt><trkpt lat="42.888014296036886" lon="13.81556947941258"><ele>34.2</ele><time>2026-04-05T15:50:15.999Z</time></trkpt><trkpt lat="42.88803372936434" lon="13.815694337372506"><ele>34.0</ele><time>2026-04-05T15:50:16.999Z</time></trkpt><trkpt lat="42.88806051362138" lon="13.815831433730425"><ele>34.0</ele><time>2026-04-05T15:50:17.999Z</time></trkpt><trkpt lat="42.8881042487246" lon="13.815984726440925"><ele>34.0</ele><time>2026-04-05T15:50:18.999Z</time></trkpt><trkpt lat="42.8881360672314" lon="13.81614749796499"><ele>34.0</ele><time>2026-04-05T15:50:19.999Z</time></trkpt><trkpt lat="42.888167140217604" lon="13.816318246799785"><ele>34.0</ele><time>2026-04-05T15:50:20.999Z</time></trkpt><trkpt lat="42.88820149858222" lon="13.816499254787185"><ele>33.0</ele><time>2026-04-05T15:50:21.999Z</time></trkpt><trkpt lat="42.888238620392436" lon="13.816690811963856"><ele>32.0</ele><time>2026-04-05T15:50:22.999Z</time></trkpt><trkpt lat="42.88825964840344" lon="13.816897159333315"><ele>31.0</ele><time>2026-04-05T15:50:23.999Z</time></trkpt><trkpt lat="42.88829716665655" lon="13.817104842678463"><ele>30.333333333333336</ele><time>2026-04-05T15:50:24.999Z</time></trkpt><trkpt lat="42.88833563036183" lon="13.81731775975561"><ele>29.666666666666664</ele><time>2026-04-05T15:50:25.999Z</time></trkpt><trkpt lat="42.888374975345045" lon="13.817535555071704"><ele>29.0</ele><time>2026-04-05T15:50:26.999Z</time></trkpt><trkpt lat="42.88841397034949" lon="13.817751413569093"><ele>30.333333333333332</ele><time>2026-04-05T15:50:27.999Z</time></trkpt><trkpt lat="42.888450658579835" lon="13.817966154836286"><ele>31.666666666666664</ele><time>2026-04-05T15:50:28.999Z</time></trkpt><trkpt lat="42.888486771959684" lon="13.818181551305079"><ele>33.0</ele><time>2026-04-05T15:50:29.999Z</time></trkpt><trkpt lat="42.88852459897219" lon="13.81839228413132"><ele>31.666666666666664</ele><time>2026-04-05T15:50:30.999Z</time></trkpt><trkpt lat="42.88856337512952" lon="13.818598469877022"><ele>30.333333333333332</ele><time>2026-04-05T15:50:31.999Z</time></trkpt><trkpt lat="42.88860715976408" lon="13.818805212301033"><ele>29.0</ele><time>2026-04-05T15:50:32.999Z</time></trkpt><trkpt lat="42.888651586301265" lon="13.819012982029005"><ele>29.0</ele><time>2026-04-05T15:50:33.999Z</time></trkpt><trkpt lat="42.88869795188566" lon="13.81922799257887"><ele>29.0</ele><time>2026-04-05T15:50:34.999Z</time></trkpt><trkpt lat="42.88874484234279" lon="13.819445533694024"><ele>29.0</ele><time>2026-04-05T15:50:35.999Z</time></trkpt><trkpt lat="42.888792934055395" lon="13.819668836790978"><ele>28.666666666666664</ele><time>2026-04-05T15:50:36.999Z</time></trkpt><trkpt lat="42.88885148092277" lon="13.819900299322901"><ele>28.333333333333336</ele><time>2026-04-05T15:50:37.999Z</time></trkpt><trkpt lat="42.888886464822576" lon="13.820150174730257"><ele>28.0</ele><time>2026-04-05T15:50:38.999Z</time></trkpt><trkpt lat="42.88891492329553" lon="13.820408000351035"><ele>27.0</ele><time>2026-04-05T15:50:39.999Z</time></trkpt><trkpt lat="42.888938083357395" lon="13.820674861143832"><ele>26.0</ele><time>2026-04-05T15:50:40.999Z</time></trkpt><trkpt lat="42.8889636943405" lon="13.820945244249677"><ele>25.0</ele><time>2026-04-05T15:50:41.999Z</time></trkpt><trkpt lat="42.88898776615958" lon="13.82122533784091"><ele>25.0</ele><time>2026-04-05T15:50:42.999Z</time></trkpt><trkpt lat="42.88901393184576" lon="13.8215056415707"><ele>25.0</ele><time>2026-04-05T15:50:43.999Z</time></trkpt><trkpt lat="42.88903568809004" lon="13.821787826358815"><ele>25.0</ele><time>2026-04-05T15:50:44.999Z</time></trkpt><trkpt lat="42.88905981966453" lon="13.822065992497096"><ele>24.333333333333336</ele><time>2026-04-05T15:50:45.999Z</time></trkpt><trkpt lat="42.889080441270224" lon="13.822336880702688"><ele>23.666666666666668</ele><time>2026-04-05T15:50:46.999Z</time></trkpt><trkpt lat="42.8891033156278" lon="13.822604262365239"><ele>23.0</ele><time>2026-04-05T15:50:47.999Z</time></trkpt><trkpt lat="42.88912681386458" lon="13.822872933443602"><ele>22.333333333333336</ele><time>2026-04-05T15:50:48.999Z</time></trkpt><trkpt lat="42.889148048784826" lon="13.823139926402083"><ele>21.666666666666668</ele><time>2026-04-05T15:50:49.999Z</time></trkpt><trkpt lat="42.88917045178058" lon="13.82340537282127"><ele>21.0</ele><time>2026-04-05T15:50:50.999Z</time></trkpt><trkpt lat="42.8891931072059" lon="13.823674932719879"><ele>20.666666666666668</ele><time>2026-04-05T15:50:51.999Z</time></trkpt><trkpt lat="42.88921579391383" lon="13.823942820646145"><ele>20.333333333333336</ele><time>2026-04-05T15:50:52.999Z</time></trkpt><trkpt lat="42.88923841670043" lon="13.824209939105256"><ele>20.0</ele><time>2026-04-05T15:50:53.999Z</time></trkpt><trkpt lat="42.889260553450576" lon="13.824471748143187"><ele>24.333333333333336</ele><time>2026-04-05T15:50:54.999Z</time></trkpt><trkpt lat="42.88928384170997" lon="13.824729437943859"><ele>28.666666666666668</ele><time>2026-04-05T15:50:55.999Z</time></trkpt><trkpt lat="42.88930363465251" lon="13.824982998893104"><ele>33.0</ele><time>2026-04-05T15:50:56.999Z</time></trkpt><trkpt lat="42.8893273796315" lon="13.825236167271985"><ele>33.0</ele><time>2026-04-05T15:50:57.999Z</time></trkpt><trkpt lat="42.889356549793234" lon="13.825488843394462"><ele>33.0</ele><time>2026-04-05T15:50:58.999Z</time></trkpt><trkpt lat="42.88939336006123" lon="13.825741757443627"><ele>33.0</ele><time>2026-04-05T15:50:59.999Z</time></trkpt><trkpt lat="42.88944005285584" lon="13.825994940615567"><ele>30.333333333333336</ele><time>2026-04-05T15:51:01Z</time></trkpt><trkpt lat="42.88949603615345" lon="13.82624442247567"><ele>27.666666666666668</ele><time>2026-04-05T15:51:02Z</time></trkpt><trkpt lat="42.889561448670165" lon="13.826493679190866"><ele>25.0</ele><time>2026-04-05T15:51:03Z</time></trkpt><trkpt lat="42.88962802976336" lon="13.826743917712234"><ele>23.666666666666668</ele><time>2026-04-05T15:51:04Z</time></trkpt><trkpt lat="42.88969635896633" lon="13.8269939767733"><ele>22.333333333333336</ele><time>2026-04-05T15:51:05Z</time></trkpt><trkpt lat="42.88976951580421" lon="13.827239189756432"><ele>21.0</ele><time>2026-04-05T15:51:06Z</time></trkpt><trkpt lat="42.889854828204065" lon="13.827479084353213"><ele>20.666666666666668</ele><time>2026-04-05T15:51:07Z</time></trkpt><trkpt lat="42.889952121830184" lon="13.827713275479423"><ele>20.333333333333336</ele><time>2026-04-05T15:51:08Z</time></trkpt><trkpt lat="42.89006981483644" lon="13.827932162086896"><ele>20.0</ele><time>2026-04-05T15:51:09Z</time></trkpt><trkpt lat="42.89019242096853" lon="13.82814947185789"><ele>21.333333333333336</ele><time>2026-04-05T15:51:10Z</time></trkpt><trkpt lat="42.890304247169034" lon="13.828371528200133"><ele>22.666666666666668</ele><time>2026-04-05T15:51:11Z</time></trkpt><trkpt lat="42.89040863278099" lon="13.828604411213439"><ele>24.0</ele><time>2026-04-05T15:51:12Z</time></trkpt><trkpt lat="42.8905012891672" lon="13.828841033489274"><ele>24.0</ele><time>2026-04-05T15:51:13Z</time></trkpt><trkpt lat="42.89058943588322" lon="13.829074388058883"><ele>24.0</ele><time>2026-04-05T15:51:14Z</time></trkpt><trkpt lat="42.890675989935666" lon="13.829312660102634"><ele>24.0</ele><time>2026-04-05T15:51:15Z</time></trkpt><trkpt lat="42.89074671997278" lon="13.829565220942841"><ele>24.0</ele><time>2026-04-05T15:51:16Z</time></trkpt><trkpt lat="42.89084625392052" lon="13.82979768922394"><ele>24.0</ele><time>2026-04-05T15:51:17Z</time></trkpt><trkpt lat="42.890926656412525" lon="13.830038790669457"><ele>24.0</ele><time>2026-04-05T15:51:18Z</time></trkpt><trkpt lat="42.89100383909176" lon="13.830282323952568"><ele>24.333333333333336</ele><time>2026-04-05T15:51:19Z</time></trkpt><trkpt lat="42.89107911027737" lon="13.83053436129714"><ele>24.666666666666668</ele><time>2026-04-05T15:51:20Z</time></trkpt><trkpt lat="42.891148946521824" lon="13.830788370166202"><ele>25.0</ele><time>2026-04-05T15:51:21Z</time></trkpt><trkpt lat="42.89120947394154" lon="13.831040227297622"><ele>25.0</ele><time>2026-04-05T15:51:22Z</time></trkpt><trkpt lat="42.89126571352994" lon="13.831284284628419"><ele>25.0</ele><time>2026-04-05T15:51:23Z</time></trkpt><trkpt lat="42.89132375560717" lon="13.831523022579196"><ele>25.0</ele><time>2026-04-05T15:51:24Z</time></trkpt><trkpt lat="42.89138092583656" lon="13.831759287219022"><ele>24.666666666666668</ele><time>2026-04-05T15:51:25Z</time></trkpt><trkpt lat="42.89143924538205" lon="13.831998594392166"><ele>24.333333333333336</ele><time>2026-04-05T15:51:26Z</time></trkpt><trkpt lat="42.89149855215527" lon="13.832235654810306"><ele>24.0</ele><time>2026-04-05T15:51:27Z</time></trkpt><trkpt lat="42.89156187429827" lon="13.832464815129628"><ele>24.0</ele><time>2026-04-05T15:51:28Z</time></trkpt><trkpt lat="42.89163159166667" lon="13.832688371179673"><ele>24.0</ele><time>2026-04-05T15:51:29Z</time></trkpt><trkpt lat="42.891708457036785" lon="13.832906804282826"><ele>24.0</ele><time>2026-04-05T15:51:30Z</time></trkpt><trkpt lat="42.891791465284356" lon="13.833122782834312"><ele>24.333333333333336</ele><time>2026-04-05T15:51:31Z</time></trkpt><trkpt lat="42.891882550726216" lon="13.833336615695053"><ele>24.666666666666668</ele><time>2026-04-05T15:51:32Z</time></trkpt><trkpt lat="42.89198200070023" lon="13.83354474843084"><ele>25.0</ele><time>2026-04-05T15:51:33Z</time></trkpt><trkpt lat="42.89208477392045" lon="13.833749196439674"><ele>24.333333333333336</ele><time>2026-04-05T15:51:34Z</time></trkpt><trkpt lat="42.89218762167479" lon="13.833954734828865"><ele>23.666666666666668</ele><time>2026-04-05T15:51:35Z</time></trkpt><trkpt lat="42.89228730459342" lon="13.834158956537777"><ele>23.0</ele><time>2026-04-05T15:51:36Z</time></trkpt><trkpt lat="42.89238468204248" lon="13.834362936780009"><ele>22.666666666666668</ele><time>2026-04-05T15:51:37Z</time></trkpt><trkpt lat="42.892486389164134" lon="13.83456135060089"><ele>22.333333333333332</ele><time>2026-04-05T15:51:38Z</time></trkpt><trkpt lat="42.89260021796095" lon="13.834746327805375"><ele>22.0</ele><time>2026-04-05T15:51:39Z</time></trkpt><trkpt lat="42.89271908480863" lon="13.834911971432742"><ele>22.333333333333332</ele><time>2026-04-05T15:51:40Z</time></trkpt><trkpt lat="42.89283855892968" lon="13.835079205644366"><ele>22.666666666666668</ele><time>2026-04-05T15:51:41Z</time></trkpt><trkpt lat="42.892959653136515" lon="13.835249058692733"><ele>23.0</ele><time>2026-04-05T15:51:42Z</time></trkpt><trkpt lat="42.893085102927394" lon="13.835420597898144"><ele>23.0</ele><time>2026-04-05T15:51:43Z</time></trkpt><trkpt lat="42.89321411517507" lon="13.835588172041033"><ele>23.0</ele><time>2026-04-05T15:51:44Z</time></trkpt><trkpt lat="42.89334578482603" lon="13.835759825699261"><ele>23.0</ele><time>2026-04-05T15:51:45Z</time></trkpt><trkpt lat="42.89347930362776" lon="13.835934997855896"><ele>23.0</ele><time>2026-04-05T15:51:46Z</time></trkpt><trkpt lat="42.893609151141405" lon="13.83611572854877"><ele>23.0</ele><time>2026-04-05T15:51:47Z</time></trkpt><trkpt lat="42.893735593301066" lon="13.836297931215997"><ele>23.0</ele><time>2026-04-05T15:51:48Z</time></trkpt><trkpt lat="42.89385237166804" lon="13.83648042142034"><ele>23.0</ele><time>2026-04-05T15:51:49Z</time></trkpt><trkpt lat="42.89396297199829" lon="13.836664285805197"><ele>23.0</ele><time>2026-04-05T15:51:50Z</time></trkpt><trkpt lat="42.89406502016736" lon="13.836853938343943"><ele>23.0</ele><time>2026-04-05T15:51:51Z</time></trkpt><trkpt lat="42.894154202584886" lon="13.837049142025297"><ele>23.333333333333336</ele><time>2026-04-05T15:51:52Z</time></trkpt><trkpt lat="42.89422728230939" lon="13.837259244214069"><ele>23.666666666666668</ele><time>2026-04-05T15:51:53Z</time></trkpt><trkpt lat="42.89429337057496" lon="13.837477621132507"><ele>24.0</ele><time>2026-04-05T15:51:54Z</time></trkpt><trkpt lat="42.894353581605316" lon="13.83770968169122"><ele>24.666666666666664</ele><time>2026-04-05T15:51:55Z</time></trkpt><trkpt lat="42.8944176093679" lon="13.837944281310188"><ele>25.333333333333332</ele><time>2026-04-05T15:51:56Z</time></trkpt><trkpt lat="42.89448344816379" lon="13.838183250711708"><ele>26.0</ele><time>2026-04-05T15:51:57Z</time></trkpt><trkpt lat="42.894550842743605" lon="13.83842469885451"><ele>25.333333333333332</ele><time>2026-04-05T15:51:58Z</time></trkpt><trkpt lat="42.8946195365682" lon="13.838667060292746"><ele>24.666666666666664</ele><time>2026-04-05T15:51:59Z</time></trkpt><trkpt lat="42.8946855385142" lon="13.838910287862273"><ele>24.0</ele><time>2026-04-05T15:52:00Z</time></trkpt><trkpt lat="42.89475175288404" lon="13.83915451342615"><ele>23.333333333333332</ele><time>2026-04-05T15:52:01Z</time></trkpt><trkpt lat="42.89482040949409" lon="13.839402534735651"><ele>22.666666666666664</ele><time>2026-04-05T15:52:02Z</time></trkpt><trkpt lat="42.894886801019005" lon="13.83965088482816"><ele>22.0</ele><time>2026-04-05T15:52:03Z</time></trkpt><trkpt lat="42.894955201882176" lon="13.839892851295746"><ele>22.333333333333332</ele><time>2026-04-05T15:52:04Z</time></trkpt><trkpt lat="42.89500511181511" lon="13.840141980168454"><ele>22.666666666666668</ele><time>2026-04-05T15:52:05Z</time></trkpt><trkpt lat="42.89508639390014" lon="13.840376027389922"><ele>23.0</ele><time>2026-04-05T15:52:06Z</time></trkpt><trkpt lat="42.8951528548512" lon="13.840616498982113"><ele>23.0</ele><time>2026-04-05T15:52:07Z</time></trkpt><trkpt lat="42.895217018169646" lon="13.840858865201996"><ele>23.0</ele><time>2026-04-05T15:52:08Z</time></trkpt><trkpt lat="42.895283012303395" lon="13.84109811437462"><ele>23.0</ele><time>2026-04-05T15:52:09Z</time></trkpt><trkpt lat="42.895348675992096" lon="13.841335565567599"><ele>23.0</ele><time>2026-04-05T15:52:10Z</time></trkpt><trkpt lat="42.89541295971012" lon="13.841571518019075"><ele>23.0</ele><time>2026-04-05T15:52:11Z</time></trkpt><trkpt lat="42.89547781996173" lon="13.841812356510442"><ele>23.0</ele><time>2026-04-05T15:52:12Z</time></trkpt><trkpt lat="42.895541559928574" lon="13.842052795090527"><ele>23.0</ele><time>2026-04-05T15:52:13Z</time></trkpt><trkpt lat="42.89560638868729" lon="13.842290669038968"><ele>23.0</ele><time>2026-04-05T15:52:14Z</time></trkpt><trkpt lat="42.89567368309716" lon="13.842527053357042"><ele>23.0</ele><time>2026-04-05T15:52:15Z</time></trkpt><trkpt lat="42.89574067680832" lon="13.842766503680672"><ele>23.333333333333336</ele><time>2026-04-05T15:52:15.999Z</time></trkpt><trkpt lat="42.89580687833262" lon="13.84300892380079"><ele>23.666666666666668</ele><time>2026-04-05T15:52:16.999Z</time></trkpt><trkpt lat="42.89587367629571" lon="13.843250702464985"><ele>24.0</ele><time>2026-04-05T15:52:17.999Z</time></trkpt><trkpt lat="42.8959364541475" lon="13.843490659730428"><ele>24.0</ele><time>2026-04-05T15:52:18.999Z</time></trkpt><trkpt lat="42.896000396432306" lon="13.843725984108316"><ele>24.0</ele><time>2026-04-05T15:52:19.999Z</time></trkpt><trkpt lat="42.89606467154103" lon="13.84395874842045"><ele>24.0</ele><time>2026-04-05T15:52:20.999Z</time></trkpt><trkpt lat="42.89612986449585" lon="13.844189689474609"><ele>23.0</ele><time>2026-04-05T15:52:21.999Z</time></trkpt><trkpt lat="42.89617480891514" lon="13.844427592083596"><ele>22.0</ele><time>2026-04-05T15:52:22.999Z</time></trkpt><trkpt lat="42.89623216267934" lon="13.844647479397759"><ele>21.0</ele><time>2026-04-05T15:52:23.999Z</time></trkpt><trkpt lat="42.89628694998596" lon="13.84484798430189"><ele>21.0</ele><time>2026-04-05T15:52:24.999Z</time></trkpt><trkpt lat="42.89635464352196" lon="13.84502880060019"><ele>21.0</ele><time>2026-04-05T15:52:25.999Z</time></trkpt><trkpt lat="42.896403560336715" lon="13.845211067523238"><ele>21.0</ele><time>2026-04-05T15:52:26.999Z</time></trkpt><trkpt lat="42.896449017254696" lon="13.845383399592686"><ele>21.0</ele><time>2026-04-05T15:52:27.999Z</time></trkpt><trkpt lat="42.896497322369676" lon="13.84555638006226"><ele>20.5</ele><time>2026-04-05T15:52:28.999Z</time></trkpt><trkpt lat="42.89654813324339" lon="13.845737530563238"><ele>20.0</ele><time>2026-04-05T15:52:29.999Z</time></trkpt><trkpt lat="42.896600886741375" lon="13.8459226386475"><ele>19.5</ele><time>2026-04-05T15:52:30.999Z</time></trkpt><trkpt lat="42.89665462531223" lon="13.846116155456315"><ele>19.0</ele><time>2026-04-05T15:52:31.999Z</time></trkpt><trkpt lat="42.89670811055371" lon="13.84631579401074"><ele>19.666666666666664</ele><time>2026-04-05T15:52:32.999Z</time></trkpt><trkpt lat="42.89676634276575" lon="13.846518776565636"><ele>20.333333333333332</ele><time>2026-04-05T15:52:33.999Z</time></trkpt><trkpt lat="42.89682559012979" lon="13.846725904950546"><ele>21.0</ele><time>2026-04-05T15:52:34.999Z</time></trkpt><trkpt lat="42.89688471607829" lon="13.846933228576185"><ele>21.0</ele><time>2026-04-05T15:52:35.999Z</time></trkpt><trkpt lat="42.89693871409165" lon="13.847135418588747"><ele>21.0</ele><time>2026-04-05T15:52:36.999Z</time></trkpt><trkpt lat="42.89698791659203" lon="13.84733284839525"><ele>21.0</ele><time>2026-04-05T15:52:37.999Z</time></trkpt><trkpt lat="42.89703292146936" lon="13.8475130925243"><ele>20.333333333333332</ele><time>2026-04-05T15:52:38.999Z</time></trkpt><trkpt lat="42.89711021235058" lon="13.847760330485462"><ele>19.666666666666664</ele><time>2026-04-05T15:52:39.999Z</time></trkpt><trkpt lat="42.89714938608288" lon="13.84794675900812"><ele>19.0</ele><time>2026-04-05T15:52:40.999Z</time></trkpt><trkpt lat="42.897209737876906" lon="13.84811376476227"><ele>19.0</ele><time>2026-04-05T15:52:41.999Z</time></trkpt><trkpt lat="42.897251850175586" lon="13.848281018305999"><ele>19.0</ele><time>2026-04-05T15:52:42.999Z</time></trkpt><trkpt lat="42.897298148834956" lon="13.84844604679809"><ele>19.0</ele><time>2026-04-05T15:52:43.999Z</time></trkpt><trkpt lat="42.897342013427185" lon="13.848609858332182"><ele>19.0</ele><time>2026-04-05T15:52:44.999Z</time></trkpt><trkpt lat="42.897387432522486" lon="13.848775326178835"><ele>18.25</ele><time>2026-04-05T15:52:45.999Z</time></trkpt><trkpt lat="42.89743932218946" lon="13.848943354192246"><ele>17.5</ele><time>2026-04-05T15:52:46.999Z</time></trkpt><trkpt lat="42.89749025002623" lon="13.849117883485897"><ele>16.75</ele><time>2026-04-05T15:52:47.999Z</time></trkpt><trkpt lat="42.89753680203252" lon="13.849296815909476"><ele>16.0</ele><time>2026-04-05T15:52:48.999Z</time></trkpt><trkpt lat="42.8975811846882" lon="13.849463872512354"><ele>16.8</ele><time>2026-04-05T15:52:49.999Z</time></trkpt><trkpt lat="42.89760734514234" lon="13.849625096105417"><ele>17.6</ele><time>2026-04-05T15:52:50.999Z</time></trkpt><trkpt lat="42.89764687415311" lon="13.849773240128195"><ele>18.4</ele><time>2026-04-05T15:52:51.999Z</time></trkpt><trkpt lat="42.897684117622624" lon="13.84991080550717"><ele>19.2</ele><time>2026-04-05T15:52:52.999Z</time></trkpt><trkpt lat="42.89771836046002" lon="13.85003709023542"><ele>20.0</ele><time>2026-04-05T15:52:53.999Z</time></trkpt><trkpt lat="42.897752457534644" lon="13.850162837301232"><ele>20.0</ele><time>2026-04-05T15:52:54.999Z</time></trkpt><trkpt lat="42.8977786651151" lon="13.85025866558039"><ele>20.0</ele><time>2026-04-05T15:52:55.999Z</time></trkpt><trkpt lat="42.897809297677746" lon="13.850370543227871"><ele>20.0</ele><time>2026-04-05T15:52:57.999Z</time></trkpt><trkpt lat="42.8978408884426" lon="13.85048592059188"><ele>20.0</ele><time>2026-04-05T15:52:59.999Z</time></trkpt><trkpt lat="42.89786593659355" lon="13.850577402701493"><ele>20.0</ele><time>2026-04-05T15:53:00.999Z</time></trkpt><trkpt lat="42.89790007678225" lon="13.85070198157338"><ele>20.0</ele><time>2026-04-05T15:53:01.999Z</time></trkpt><trkpt lat="42.89794845067619" lon="13.850878455319535"><ele>19.75</ele><time>2026-04-05T15:53:02.999Z</time></trkpt><trkpt lat="42.897991443700704" lon="13.851035298914816"><ele>19.5</ele><time>2026-04-05T15:53:03.999Z</time></trkpt><trkpt lat="42.89803526743099" lon="13.851195173312489"><ele>19.25</ele><time>2026-04-05T15:53:04.999Z</time></trkpt><trkpt lat="42.89808148464609" lon="13.851363779539014"><ele>19.0</ele><time>2026-04-05T15:53:05.999Z</time></trkpt><trkpt lat="42.89812701980481" lon="13.85153100118669"><ele>19.0</ele><time>2026-04-05T15:53:07Z</time></trkpt><trkpt lat="42.89817348494238" lon="13.851701698173574"><ele>19.0</ele><time>2026-04-05T15:53:08Z</time></trkpt><trkpt lat="42.89822097763292" lon="13.851876170039246"><ele>19.0</ele><time>2026-04-05T15:53:09Z</time></trkpt><trkpt lat="42.898265792271694" lon="13.852040799849052"><ele>19.0</ele><time>2026-04-05T15:53:10Z</time></trkpt><trkpt lat="42.89832832974356" lon="13.85217791786872"><ele>19.2</ele><time>2026-04-05T15:53:11Z</time></trkpt><trkpt lat="42.89836634926361" lon="13.852317828623246"><ele>19.4</ele><time>2026-04-05T15:53:12Z</time></trkpt><trkpt lat="42.89840133174801" lon="13.852458066961391"><ele>19.6</ele><time>2026-04-05T15:53:13Z</time></trkpt><trkpt lat="42.89844135102308" lon="13.85259988141975"><ele>19.8</ele><time>2026-04-05T15:53:14Z</time></trkpt><trkpt lat="42.898458491578225" lon="13.852752818922177"><ele>20.0</ele><time>2026-04-05T15:53:15Z</time></trkpt><trkpt lat="42.89849536545938" lon="13.85288875629406"><ele>20.0</ele><time>2026-04-05T15:53:16Z</time></trkpt><trkpt lat="42.898531959916895" lon="13.853023666331412"><ele>20.0</ele><time>2026-04-05T15:53:17Z</time></trkpt><trkpt lat="42.89859508960615" lon="13.853151478233542"><ele>20.0</ele><time>2026-04-05T15:53:18Z</time></trkpt><trkpt lat="42.89863226698362" lon="13.853294490377927"><ele>20.0</ele><time>2026-04-05T15:53:19Z</time></trkpt><trkpt lat="42.8986688311709" lon="13.853430439058036"><ele>20.0</ele><time>2026-04-05T15:53:20Z</time></trkpt><trkpt lat="42.89870060790034" lon="13.853558483941407"><ele>20.0</ele><time>2026-04-05T15:53:21Z</time></trkpt><trkpt lat="42.89873342332035" lon="13.853684503823649"><ele>20.0</ele><time>2026-04-05T15:53:22Z</time></trkpt><trkpt lat="42.89876710861221" lon="13.85381412083735"><ele>20.0</ele><time>2026-04-05T15:53:23Z</time></trkpt><trkpt lat="42.89878511425336" lon="13.85395504687464"><ele>20.0</ele><time>2026-04-05T15:53:24Z</time></trkpt><trkpt lat="42.89882285389323" lon="13.854092923580454"><ele>20.0</ele><time>2026-04-05T15:53:25Z</time></trkpt><trkpt lat="42.89886179187479" lon="13.854235234880402"><ele>19.6</ele><time>2026-04-05T15:53:26Z</time></trkpt><trkpt lat="42.89889883274605" lon="13.854370612580638"><ele>19.2</ele><time>2026-04-05T15:53:27Z</time></trkpt><trkpt lat="42.89893316008776" lon="13.854496072712601"><ele>18.8</ele><time>2026-04-05T15:53:28Z</time></trkpt><trkpt lat="42.89896397219943" lon="13.854608685548502"><ele>18.4</ele><time>2026-04-05T15:53:29Z</time></trkpt><trkpt lat="42.89899449761598" lon="13.854719481861789"><ele>18.0</ele><time>2026-04-05T15:53:30Z</time></trkpt><trkpt lat="42.89902607104623" lon="13.854831191130325"><ele>18.0</ele><time>2026-04-05T15:53:31Z</time></trkpt><trkpt lat="42.89905816028995" lon="13.854947255652542"><ele>18.0</ele><time>2026-04-05T15:53:32Z</time></trkpt><trkpt lat="42.89909259371247" lon="13.855073581308515"><ele>18.0</ele><time>2026-04-05T15:53:33Z</time></trkpt><trkpt lat="42.899126221865075" lon="13.855203612276174"><ele>18.0</ele><time>2026-04-05T15:53:34Z</time></trkpt><trkpt lat="42.89916033335067" lon="13.855338805351971"><ele>18.0</ele><time>2026-04-05T15:53:35Z</time></trkpt><trkpt lat="42.89919032692484" lon="13.855465631832416"><ele>18.0</ele><time>2026-04-05T15:53:36Z</time></trkpt><trkpt lat="42.89922700592269" lon="13.855621831463555"><ele>18.0</ele><time>2026-04-05T15:53:37Z</time></trkpt><trkpt lat="42.89926797844686" lon="13.855796315267181"><ele>18.0</ele><time>2026-04-05T15:53:38Z</time></trkpt><trkpt lat="42.899308014023916" lon="13.85597024135391"><ele>18.0</ele><time>2026-04-05T15:53:39Z</time></trkpt><trkpt lat="42.89934416324966" lon="13.856127326773537"><ele>17.666666666666668</ele><time>2026-04-05T15:53:40Z</time></trkpt><trkpt lat="42.899396846884194" lon="13.856259271661918"><ele>17.333333333333332</ele><time>2026-04-05T15:53:41Z</time></trkpt><trkpt lat="42.89942186546344" lon="13.856380751190406"><ele>17.0</ele><time>2026-04-05T15:53:42Z</time></trkpt><trkpt lat="42.89944282974687" lon="13.856487759536249"><ele>16.666666666666664</ele><time>2026-04-05T15:53:43Z</time></trkpt><trkpt lat="42.899462012657104" lon="13.856581256592085"><ele>16.333333333333332</ele><time>2026-04-05T15:53:44Z</time></trkpt><trkpt lat="42.89947976472569" lon="13.856687647367494"><ele>16.0</ele><time>2026-04-05T15:53:46Z</time></trkpt><trkpt lat="42.89948027731109" lon="13.856807102286146"><ele>16.0</ele><time>2026-04-05T15:53:48Z</time></trkpt><trkpt lat="42.89945252020653" lon="13.856969053818524"><ele>16.0</ele><time>2026-04-05T15:53:50Z</time></trkpt><trkpt lat="42.89947323292574" lon="13.857078476090969"><ele>16.0</ele><time>2026-04-05T15:53:52Z</time></trkpt><trkpt lat="42.89954620266047" lon="13.857195769011671"><ele>16.0</ele><time>2026-04-05T15:53:54Z</time></trkpt><trkpt lat="42.89959529438517" lon="13.85730221898185"><ele>16.0</ele><time>2026-04-05T15:53:55Z</time></trkpt><trkpt lat="42.899634206163164" lon="13.857435008380564"><ele>16.0</ele><time>2026-04-05T15:53:56Z</time></trkpt><trkpt lat="42.89967492241975" lon="13.857595809516212"><ele>16.0</ele><time>2026-04-05T15:53:57Z</time></trkpt><trkpt lat="42.89972976562791" lon="13.85776246785209"><ele>16.0</ele><time>2026-04-05T15:53:58Z</time></trkpt><trkpt lat="42.89979912620858" lon="13.857928843846139"><ele>16.0</ele><time>2026-04-05T15:53:59Z</time></trkpt><trkpt lat="42.89988831377376" lon="13.858100172993076"><ele>15.666666666666666</ele><time>2026-04-05T15:54:00Z</time></trkpt><trkpt lat="42.89997770535078" lon="13.858293376991409"><ele>15.333333333333332</ele><time>2026-04-05T15:54:01Z</time></trkpt><trkpt lat="42.90009996670927" lon="13.858474308896064"><ele>15.0</ele><time>2026-04-05T15:54:02Z</time></trkpt><trkpt lat="42.90024461467242" lon="13.858625807421378"><ele>15.0</ele><time>2026-04-05T15:54:03Z</time></trkpt><trkpt lat="42.90038958423789" lon="13.858795457272587"><ele>15.0</ele><time>2026-04-05T15:54:04Z</time></trkpt><trkpt lat="42.90053632378614" lon="13.858958693956819"><ele>15.0</ele><time>2026-04-05T15:54:05Z</time></trkpt><trkpt lat="42.90068585974664" lon="13.859129768924875"><ele>14.333333333333332</ele><time>2026-04-05T15:54:06Z</time></trkpt><trkpt lat="42.900838547008476" lon="13.859306503888185"><ele>13.666666666666666</ele><time>2026-04-05T15:54:07Z</time></trkpt><trkpt lat="42.90098622271745" lon="13.85947829242785"><ele>13.0</ele><time>2026-04-05T15:54:08Z</time></trkpt><trkpt lat="42.90113868476976" lon="13.859655889849332"><ele>13.0</ele><time>2026-04-05T15:54:08.999Z</time></trkpt><trkpt lat="42.90129271033124" lon="13.85983863561336"><ele>13.0</ele><time>2026-04-05T15:54:09.999Z</time></trkpt><trkpt lat="42.901443154618605" lon="13.860020577458677"><ele>13.0</ele><time>2026-04-05T15:54:10.999Z</time></trkpt><trkpt lat="42.90159487052088" lon="13.860210557469102"><ele>13.0</ele><time>2026-04-05T15:54:11.999Z</time></trkpt><trkpt lat="42.90174668895435" lon="13.860394725581807"><ele>13.0</ele><time>2026-04-05T15:54:12.999Z</time></trkpt><trkpt lat="42.90190224370751" lon="13.860582661594092"><ele>13.0</ele><time>2026-04-05T15:54:13.999Z</time></trkpt><trkpt lat="42.90205484045234" lon="13.860774190949536"><ele>12.333333333333332</ele><time>2026-04-05T15:54:14.999Z</time></trkpt><trkpt lat="42.90220765446081" lon="13.860962298826252"><ele>11.666666666666666</ele><time>2026-04-05T15:54:15.999Z</time></trkpt><trkpt lat="42.90236111506592" lon="13.861154648513875"><ele>11.0</ele><time>2026-04-05T15:54:16.999Z</time></trkpt><trkpt lat="42.90251472791908" lon="13.861347799559393"><ele>11.333333333333332</ele><time>2026-04-05T15:54:17.999Z</time></trkpt><trkpt lat="42.90266354377013" lon="13.861549389258682"><ele>11.666666666666666</ele><time>2026-04-05T15:54:18.999Z</time></trkpt><trkpt lat="42.902793723785464" lon="13.861745338815057"><ele>12.0</ele><time>2026-04-05T15:54:19.999Z</time></trkpt><trkpt lat="42.90290294237443" lon="13.861927838523226"><ele>12.25</ele><time>2026-04-05T15:54:20.999Z</time></trkpt><trkpt lat="42.90300049576203" lon="13.862095090116245"><ele>12.5</ele><time>2026-04-05T15:54:21.999Z</time></trkpt><trkpt lat="42.90308462909493" lon="13.862241341910853"><ele>12.75</ele><time>2026-04-05T15:54:22.999Z</time></trkpt><trkpt lat="42.90315853160561" lon="13.862373699593473"><ele>13.0</ele><time>2026-04-05T15:54:23.999Z</time></trkpt><trkpt lat="42.90321907375006" lon="13.862490870237966"><ele>13.0</ele><time>2026-04-05T15:54:24.999Z</time></trkpt><trkpt lat="42.903264802847744" lon="13.862589354213211"><ele>13.0</ele><time>2026-04-05T15:54:25.999Z</time></trkpt><trkpt lat="42.90329548094118" lon="13.862678638762649"><ele>13.0</ele><time>2026-04-05T15:54:26.999Z</time></trkpt><trkpt lat="42.903321803748234" lon="13.862762495463764"><ele>13.0</ele><time>2026-04-05T15:54:27.999Z</time></trkpt><trkpt lat="42.90333768927615" lon="13.862846246012094"><ele>13.0</ele><time>2026-04-05T15:54:28.999Z</time></trkpt><trkpt lat="42.903338614298704" lon="13.862938398398406"><ele>13.0</ele><time>2026-04-05T15:54:29.999Z</time></trkpt><trkpt lat="42.903343644434784" lon="13.863034653324442"><ele>13.0</ele><time>2026-04-05T15:54:30.999Z</time></trkpt><trkpt lat="42.9033713915153" lon="13.863137226172405"><ele>12.8</ele><time>2026-04-05T15:54:31.999Z</time></trkpt><trkpt lat="42.9034273448956" lon="13.863241818910561"><ele>12.600000000000001</ele><time>2026-04-05T15:54:32.999Z</time></trkpt><trkpt lat="42.90350263758237" lon="13.863340985229861"><ele>12.399999999999999</ele><time>2026-04-05T15:54:33.999Z</time></trkpt><trkpt lat="42.90356983615613" lon="13.863458315153654"><ele>12.2</ele><time>2026-04-05T15:54:34.999Z</time></trkpt><trkpt lat="42.90361835582478" lon="13.863586925077481"><ele>12.0</ele><time>2026-04-05T15:54:35.999Z</time></trkpt><trkpt lat="42.90365755318122" lon="13.86370689646867"><ele>11.8</ele><time>2026-04-05T15:54:36.999Z</time></trkpt><trkpt lat="42.90369569790055" lon="13.863820733244253"><ele>11.6</ele><time>2026-04-05T15:54:37.999Z</time></trkpt><trkpt lat="42.9037403645025" lon="13.863943667885653"><ele>11.4</ele><time>2026-04-05T15:54:38.999Z</time></trkpt><trkpt lat="42.90379236576686" lon="13.864079858150168"><ele>11.200000000000001</ele><time>2026-04-05T15:54:39.999Z</time></trkpt><trkpt lat="42.903849123866564" lon="13.864222192300208"><ele>11.0</ele><time>2026-04-05T15:54:40.999Z</time></trkpt><trkpt lat="42.903909753509744" lon="13.864366682889216"><ele>10.75</ele><time>2026-04-05T15:54:41.999Z</time></trkpt><trkpt lat="42.90397143084042" lon="13.864506501464206"><ele>10.5</ele><time>2026-04-05T15:54:42.999Z</time></trkpt><trkpt lat="42.90403432357295" lon="13.864636548024245"><ele>10.25</ele><time>2026-04-05T15:54:43.999Z</time></trkpt><trkpt lat="42.904100398127326" lon="13.864758364208162"><ele>10.0</ele><time>2026-04-05T15:54:44.999Z</time></trkpt><trkpt lat="42.90417005841868" lon="13.86488424631626"><ele>10.75</ele><time>2026-04-05T15:54:45.999Z</time></trkpt><trkpt lat="42.9042471472099" lon="13.865016129834444"><ele>11.5</ele><time>2026-04-05T15:54:46.999Z</time></trkpt><trkpt lat="42.904326681381356" lon="13.865151897427678"><ele>12.25</ele><time>2026-04-05T15:54:47.999Z</time></trkpt><trkpt lat="42.90441071692628" lon="13.865293127343225"><ele>13.0</ele><time>2026-04-05T15:54:48.999Z</time></trkpt><trkpt lat="42.90450459464032" lon="13.865442351511133"><ele>13.0</ele><time>2026-04-05T15:54:49.999Z</time></trkpt><trkpt lat="42.90459628956152" lon="13.86562610180451"><ele>13.0</ele><time>2026-04-05T15:54:50.999Z</time></trkpt><trkpt lat="42.90470868580308" lon="13.86581351289778"><ele>13.0</ele><time>2026-04-05T15:54:51.999Z</time></trkpt><trkpt lat="42.90482508353732" lon="13.866004052883977"><ele>13.0</ele><time>2026-04-05T15:54:52.999Z</time></trkpt><trkpt lat="42.90495559126368" lon="13.866187672502651"><ele>13.0</ele><time>2026-04-05T15:54:53.999Z</time></trkpt><trkpt lat="42.905080182996855" lon="13.866386320274158"><ele>13.0</ele><time>2026-04-05T15:54:54.999Z</time></trkpt><trkpt lat="42.90520878929385" lon="13.866582289138616"><ele>12.666666666666666</ele><time>2026-04-05T15:54:55.999Z</time></trkpt><trkpt lat="42.905340520224655" lon="13.866773530998172"><ele>12.333333333333332</ele><time>2026-04-05T15:54:56.999Z</time></trkpt><trkpt lat="42.905463575208266" lon="13.866961627377986"><ele>12.0</ele><time>2026-04-05T15:54:57.999Z</time></trkpt><trkpt lat="42.90557611841543" lon="13.867144586096824"><ele>11.0</ele><time>2026-04-05T15:54:58.999Z</time></trkpt><trkpt lat="42.90568314403325" lon="13.867329669372303"><ele>10.0</ele><time>2026-04-05T15:54:59.999Z</time></trkpt><trkpt lat="42.905786883933246" lon="13.867530876997657"><ele>9.0</ele><time>2026-04-05T15:55:00.999Z</time></trkpt><trkpt lat="42.90588187136462" lon="13.867746361491074"><ele>11.0</ele><time>2026-04-05T15:55:01.999Z</time></trkpt><trkpt lat="42.905961887160174" lon="13.867976243813034"><ele>13.0</ele><time>2026-04-05T15:55:02.999Z</time></trkpt><trkpt lat="42.906038025155105" lon="13.86820739661925"><ele>15.0</ele><time>2026-04-05T15:55:03.999Z</time></trkpt><trkpt lat="42.906110758197826" lon="13.868435051791248"><ele>14.666666666666668</ele><time>2026-04-05T15:55:04.999Z</time></trkpt><trkpt lat="42.90618278953656" lon="13.868657997298271"><ele>14.333333333333334</ele><time>2026-04-05T15:55:05.999Z</time></trkpt><trkpt lat="42.906249378990516" lon="13.868868552129301"><ele>14.0</ele><time>2026-04-05T15:55:06.999Z</time></trkpt><trkpt lat="42.906306519594565" lon="13.869074119647939"><ele>13.333333333333334</ele><time>2026-04-05T15:55:07.999Z</time></trkpt><trkpt lat="42.906354236488646" lon="13.869285868514936"><ele>12.666666666666668</ele><time>2026-04-05T15:55:08.999Z</time></trkpt><trkpt lat="42.90638318322575" lon="13.869514466454367"><ele>12.0</ele><time>2026-04-05T15:55:09.999Z</time></trkpt><trkpt lat="42.906402007558555" lon="13.869750410576293"><ele>12.0</ele><time>2026-04-05T15:55:10.999Z</time></trkpt><trkpt lat="42.906418093545696" lon="13.869992714406196"><ele>12.0</ele><time>2026-04-05T15:55:11.999Z</time></trkpt><trkpt lat="42.90642619246771" lon="13.87023834831733"><ele>12.0</ele><time>2026-04-05T15:55:13Z</time></trkpt><trkpt lat="42.90643426363449" lon="13.870480336580524"><ele>11.666666666666666</ele><time>2026-04-05T15:55:14Z</time></trkpt><trkpt lat="42.9064484580881" lon="13.870722510088964"><ele>11.333333333333332</ele><time>2026-04-05T15:55:15Z</time></trkpt><trkpt lat="42.906472299022575" lon="13.870965052296375"><ele>11.0</ele><time>2026-04-05T15:55:16Z</time></trkpt><trkpt lat="42.90650180246538" lon="13.871206537994984"><ele>10.666666666666666</ele><time>2026-04-05T15:55:17Z</time></trkpt><trkpt lat="42.906535520105265" lon="13.871447875225952"><ele>10.333333333333334</ele><time>2026-04-05T15:55:18Z</time></trkpt><trkpt lat="42.906574531088" lon="13.871683246230367"><ele>10.0</ele><time>2026-04-05T15:55:19Z</time></trkpt><trkpt lat="42.906614480169694" lon="13.871909067712503"><ele>10.0</ele><time>2026-04-05T15:55:20Z</time></trkpt><trkpt lat="42.906654428074255" lon="13.872120322295668"><ele>10.0</ele><time>2026-04-05T15:55:21Z</time></trkpt><trkpt lat="42.90669712310674" lon="13.872327263487236"><ele>10.0</ele><time>2026-04-05T15:55:22Z</time></trkpt><trkpt lat="42.90674351815856" lon="13.872527084283865"><ele>10.25</ele><time>2026-04-05T15:55:23Z</time></trkpt><trkpt lat="42.90679096246404" lon="13.872713609580659"><ele>10.5</ele><time>2026-04-05T15:55:24Z</time></trkpt><trkpt lat="42.90683829633549" lon="13.872888757854424"><ele>10.75</ele><time>2026-04-05T15:55:25Z</time></trkpt><trkpt lat="42.90688497971261" lon="13.873055687269794"><ele>11.0</ele><time>2026-04-05T15:55:26Z</time></trkpt><trkpt lat="42.90693341599607" lon="13.873209253191051"><ele>11.0</ele><time>2026-04-05T15:55:27Z</time></trkpt><trkpt lat="42.90697976179224" lon="13.873343149293708"><ele>11.0</ele><time>2026-04-05T15:55:28Z</time></trkpt><trkpt lat="42.90701907693469" lon="13.873485806752775"><ele>11.0</ele><time>2026-04-05T15:55:29Z</time></trkpt><trkpt lat="42.90705731082187" lon="13.873624790213404"><ele>11.0</ele><time>2026-04-05T15:55:30Z</time></trkpt><trkpt lat="42.90710603192332" lon="13.873762231564704"><ele>11.0</ele><time>2026-04-05T15:55:31Z</time></trkpt><trkpt lat="42.90716012204789" lon="13.873924543855209"><ele>11.0</ele><time>2026-04-05T15:55:32Z</time></trkpt><trkpt lat="42.90721715600381" lon="13.874097447180642"><ele>11.0</ele><time>2026-04-05T15:55:33Z</time></trkpt><trkpt lat="42.907275769790495" lon="13.874283724346894"><ele>11.0</ele><time>2026-04-05T15:55:34Z</time></trkpt><trkpt lat="42.90733799041321" lon="13.87448023207202"><ele>11.0</ele><time>2026-04-05T15:55:35Z</time></trkpt><trkpt lat="42.90740378091787" lon="13.874679511194639"><ele>11.0</ele><time>2026-04-05T15:55:35.999Z</time></trkpt><trkpt lat="42.907476216922944" lon="13.874894141020821"><ele>11.0</ele><time>2026-04-05T15:55:36.999Z</time></trkpt><trkpt lat="42.90754952847551" lon="13.875123245775434"><ele>11.0</ele><time>2026-04-05T15:55:37.999Z</time></trkpt><trkpt lat="42.90761961539703" lon="13.875349604021242"><ele>11.0</ele><time>2026-04-05T15:55:38.999Z</time></trkpt><trkpt lat="42.907695579457666" lon="13.87559108745284"><ele>11.0</ele><time>2026-04-05T15:55:39.999Z</time></trkpt><trkpt lat="42.90776896345134" lon="13.875831758091019"><ele>11.0</ele><time>2026-04-05T15:55:40.999Z</time></trkpt><trkpt lat="42.907838528650785" lon="13.876039461859767"><ele>11.0</ele><time>2026-04-05T15:55:41.999Z</time></trkpt><trkpt lat="42.90788569772037" lon="13.87623348587427"><ele>11.0</ele><time>2026-04-05T15:55:42.999Z</time></trkpt><trkpt lat="42.90793872230223" lon="13.8763998996563"><ele>11.0</ele><time>2026-04-05T15:55:43.999Z</time></trkpt><trkpt lat="42.90800171583221" lon="13.876555983241827"><ele>11.0</ele><time>2026-04-05T15:55:44.999Z</time></trkpt><trkpt lat="42.90805120197982" lon="13.876719559758909"><ele>10.0</ele><time>2026-04-05T15:55:45.999Z</time></trkpt><trkpt lat="42.90810399507565" lon="13.876900493362692"><ele>9.0</ele><time>2026-04-05T15:55:46.999Z</time></trkpt><trkpt lat="42.908165712600244" lon="13.877088191629724"><ele>8.0</ele><time>2026-04-05T15:55:47.999Z</time></trkpt><trkpt lat="42.90823040170602" lon="13.877290002362031"><ele>8.0</ele><time>2026-04-05T15:55:48.999Z</time></trkpt><trkpt lat="42.908293167919126" lon="13.877493917170142"><ele>8.0</ele><time>2026-04-05T15:55:49.999Z</time></trkpt><trkpt lat="42.90835432967278" lon="13.87770399085244"><ele>8.0</ele><time>2026-04-05T15:55:50.999Z</time></trkpt><trkpt lat="42.90839335405437" lon="13.87793495454775"><ele>9.333333333333332</ele><time>2026-04-05T15:55:51.999Z</time></trkpt><trkpt lat="42.90843815336176" lon="13.878168035408596"><ele>10.666666666666666</ele><time>2026-04-05T15:55:52.999Z</time></trkpt><trkpt lat="42.90848495359423" lon="13.878414837107211"><ele>12.0</ele><time>2026-04-05T15:55:53.999Z</time></trkpt><trkpt lat="42.908543569663365" lon="13.878673237630796"><ele>12.333333333333332</ele><time>2026-04-05T15:55:54.999Z</time></trkpt><trkpt lat="42.908585798146916" lon="13.878936264109484"><ele>12.666666666666666</ele><time>2026-04-05T15:55:55.999Z</time></trkpt><trkpt lat="42.90863222905463" lon="13.879198678360591"><ele>13.0</ele><time>2026-04-05T15:55:56.999Z</time></trkpt><trkpt lat="42.90868491668696" lon="13.879458502648646"><ele>12.0</ele><time>2026-04-05T15:55:57.999Z</time></trkpt><trkpt lat="42.908742639028205" lon="13.879720059425427"><ele>11.0</ele><time>2026-04-05T15:55:58.999Z</time></trkpt><trkpt lat="42.90880075694233" lon="13.879976398585578"><ele>10.0</ele><time>2026-04-05T15:55:59.999Z</time></trkpt><trkpt lat="42.908873357379655" lon="13.880231245752904"><ele>9.666666666666668</ele><time>2026-04-05T15:56:00.999Z</time></trkpt><trkpt lat="42.90896116851647" lon="13.880486015747922"><ele>9.333333333333334</ele><time>2026-04-05T15:56:01.999Z</time></trkpt><trkpt lat="42.90903514627273" lon="13.880746361553513"><ele>9.0</ele><time>2026-04-05T15:56:02.999Z</time></trkpt><trkpt lat="42.90910733018828" lon="13.880991269249506"><ele>9.0</ele><time>2026-04-05T15:56:03.999Z</time></trkpt><trkpt lat="42.90917009934047" lon="13.881209421516642"><ele>9.0</ele><time>2026-04-05T15:56:04.999Z</time></trkpt><trkpt lat="42.90922999933635" lon="13.88141645643813"><ele>9.0</ele><time>2026-04-05T15:56:05.999Z</time></trkpt><trkpt lat="42.90928964792648" lon="13.881620041819238"><ele>9.0</ele><time>2026-04-05T15:56:06.999Z</time></trkpt><trkpt lat="42.90934730346284" lon="13.881805151878247"><ele>9.0</ele><time>2026-04-05T15:56:07.999Z</time></trkpt><trkpt lat="42.90939595541558" lon="13.881989806138112"><ele>9.0</ele><time>2026-04-05T15:56:08.999Z</time></trkpt><trkpt lat="42.909445234659266" lon="13.882160145714732"><ele>9.0</ele><time>2026-04-05T15:56:09.999Z</time></trkpt><trkpt lat="42.909495258666915" lon="13.882325322495525"><ele>9.0</ele><time>2026-04-05T15:56:10.999Z</time></trkpt><trkpt lat="42.909542084145656" lon="13.882487115542963"><ele>9.0</ele><time>2026-04-05T15:56:11.999Z</time></trkpt><trkpt lat="42.9095967885147" lon="13.882653213636425"><ele>9.0</ele><time>2026-04-05T15:56:12.999Z</time></trkpt><trkpt lat="42.90965467654565" lon="13.882835432065965"><ele>9.0</ele><time>2026-04-05T15:56:13.999Z</time></trkpt><trkpt lat="42.90971116167641" lon="13.883009985712253"><ele>9.0</ele><time>2026-04-05T15:56:14.999Z</time></trkpt><trkpt lat="42.909765537190644" lon="13.88319880785137"><ele>9.0</ele><time>2026-04-05T15:56:15.999Z</time></trkpt><trkpt lat="42.909821895331376" lon="13.883376409249017"><ele>9.0</ele><time>2026-04-05T15:56:16.999Z</time></trkpt><trkpt lat="42.90988076324128" lon="13.883553378950355"><ele>9.0</ele><time>2026-04-05T15:56:17.999Z</time></trkpt><trkpt lat="42.90993430497013" lon="13.883728836778399"><ele>9.0</ele><time>2026-04-05T15:56:18.999Z</time></trkpt><trkpt lat="42.9099954448551" lon="13.88390207576801"><ele>9.0</ele><time>2026-04-05T15:56:19.999Z</time></trkpt><trkpt lat="42.910051818936616" lon="13.884072726954459"><ele>9.0</ele><time>2026-04-05T15:56:20.999Z</time></trkpt><trkpt lat="42.9101107237169" lon="13.884244786186246"><ele>9.0</ele><time>2026-04-05T15:56:21.999Z</time></trkpt><trkpt lat="42.91017346148946" lon="13.884421094277194"><ele>9.5</ele><time>2026-04-05T15:56:22.999Z</time></trkpt><trkpt lat="42.9102312862716" lon="13.884604241809411"><ele>10.0</ele><time>2026-04-05T15:56:23.999Z</time></trkpt><trkpt lat="42.91029509138082" lon="13.884780737466018"><ele>10.5</ele><time>2026-04-05T15:56:24.999Z</time></trkpt><trkpt lat="42.91035367601194" lon="13.884960153604931"><ele>11.0</ele><time>2026-04-05T15:56:25.999Z</time></trkpt><trkpt lat="42.9104137755149" lon="13.885140828214457"><ele>10.0</ele><time>2026-04-05T15:56:26.999Z</time></trkpt><trkpt lat="42.91047311751653" lon="13.885314699035774"><ele>9.0</ele><time>2026-04-05T15:56:27.999Z</time></trkpt><trkpt lat="42.91053135935537" lon="13.885483788966122"><ele>8.0</ele><time>2026-04-05T15:56:28.999Z</time></trkpt><trkpt lat="42.91058163839754" lon="13.885639591398219"><ele>7.0</ele><time>2026-04-05T15:56:29.999Z</time></trkpt><trkpt lat="42.910628151328766" lon="13.885772411489715"><ele>7.000000000000001</ele><time>2026-04-05T15:56:30.999Z</time></trkpt><trkpt lat="42.910667382701874" lon="13.885885404525336"><ele>7.0</ele><time>2026-04-05T15:56:31.999Z</time></trkpt><trkpt lat="42.91068570809282" lon="13.88598988863237"><ele>7.0</ele><time>2026-04-05T15:56:32.999Z</time></trkpt><trkpt lat="42.910715697822" lon="13.886079356012026"><ele>7.0</ele><time>2026-04-05T15:56:33.999Z</time></trkpt><trkpt lat="42.910742650379866" lon="13.886159761337552"><ele>7.000000000000001</ele><time>2026-04-05T15:56:34.999Z</time></trkpt><trkpt lat="42.91077062706389" lon="13.886243221623431"><ele>7.0</ele><time>2026-04-05T15:56:35.999Z</time></trkpt><trkpt lat="42.910821672496446" lon="13.886394435846618"><ele>7.000000000000001</ele><time>2026-04-05T15:56:37.999Z</time></trkpt><trkpt lat="42.910860715877845" lon="13.886509872877685"><ele>7.0</ele><time>2026-04-05T15:56:39.999Z</time></trkpt><trkpt lat="42.91088820349117" lon="13.886594188625352"><ele>7.0</ele><time>2026-04-05T15:56:42.999Z</time></trkpt><trkpt lat="42.9109310091704" lon="13.886722425174561"><ele>7.0</ele><time>2026-04-05T15:56:44.999Z</time></trkpt><trkpt lat="42.91096281131882" lon="13.886817690247735"><ele>7.000000000000001</ele><time>2026-04-05T15:56:45.999Z</time></trkpt><trkpt lat="42.91099780232736" lon="13.886922547229254"><ele>7.0</ele><time>2026-04-05T15:56:46.999Z</time></trkpt><trkpt lat="42.911030932428844" lon="13.887022010325415"><ele>7.0</ele><time>2026-04-05T15:56:47.998Z</time></trkpt><trkpt lat="42.91106702821753" lon="13.887131045115654"><ele>6.999999999999999</ele><time>2026-04-05T15:56:48.998Z</time></trkpt><trkpt lat="42.911105635433394" lon="13.887247666269095"><ele>6.999999999999999</ele><time>2026-04-05T15:56:49.998Z</time></trkpt><trkpt lat="42.911145917598354" lon="13.887369347500554"><ele>7.0</ele><time>2026-04-05T15:56:50.998Z</time></trkpt><trkpt lat="42.911190060789494" lon="13.887500749774118"><ele>7.0</ele><time>2026-04-05T15:56:51.998Z</time></trkpt><trkpt lat="42.91122846052255" lon="13.88761527790505"><ele>7.000000000000001</ele><time>2026-04-05T15:56:52.998Z</time></trkpt><trkpt lat="42.911263048516105" lon="13.887718437386185"><ele>7.0</ele><time>2026-04-05T15:56:53.998Z</time></trkpt><trkpt lat="42.91129476365647" lon="13.887813028746638"><ele>7.0</ele><time>2026-04-05T15:56:54.998Z</time></trkpt><trkpt lat="42.911326053890754" lon="13.887906352581016"><ele>7.0</ele><time>2026-04-05T15:56:55.998Z</time></trkpt><trkpt lat="42.91135837832292" lon="13.888002761059912"><ele>7.000000000000001</ele><time>2026-04-05T15:56:56.998Z</time></trkpt><trkpt lat="42.91139086616421" lon="13.88809965865393"><ele>7.0</ele><time>2026-04-05T15:56:57.998Z</time></trkpt><trkpt lat="42.91141997436631" lon="13.888185949575151"><ele>7.0</ele><time>2026-04-05T15:56:58.998Z</time></trkpt><trkpt lat="42.91144840781372" lon="13.888270466010155"><ele>6.999999999999999</ele><time>2026-04-05T15:56:59.998Z</time></trkpt><trkpt lat="42.91149041063445" lon="13.888395316356002"><ele>6.999999999999999</ele><time>2026-04-05T15:57:01.998Z</time></trkpt><trkpt lat="42.91154102313438" lon="13.888545758496292"><ele>7.0</ele><time>2026-04-05T15:57:03.998Z</time></trkpt><trkpt lat="42.91157374117444" lon="13.888642621423873"><ele>7.0</ele><time>2026-04-05T15:57:04.998Z</time></trkpt><trkpt lat="42.91160800038208" lon="13.88874366937632"><ele>6.6</ele><time>2026-04-05T15:57:05.998Z</time></trkpt><trkpt lat="42.91164288714877" lon="13.888846568266176"><ele>6.199999999999999</ele><time>2026-04-05T15:57:06.998Z</time></trkpt><trkpt lat="42.91167499498118" lon="13.88894127079071"><ele>5.8</ele><time>2026-04-05T15:57:07.998Z</time></trkpt><trkpt lat="42.91170497281361" lon="13.889028512214425"><ele>5.4</ele><time>2026-04-05T15:57:08.998Z</time></trkpt><trkpt lat="42.9117472224213" lon="13.889151555540153"><ele>5.0</ele><time>2026-04-05T15:57:10.998Z</time></trkpt><trkpt lat="42.911805490604635" lon="13.889324673725616"><ele>5.0</ele><time>2026-04-05T15:57:12.998Z</time></trkpt><trkpt lat="42.91184270007108" lon="13.889435227435412"><ele>5.0</ele><time>2026-04-05T15:57:13.998Z</time></trkpt><trkpt lat="42.911880648664145" lon="13.889548055685763"><ele>5.0</ele><time>2026-04-05T15:57:14.998Z</time></trkpt><trkpt lat="42.91191782383144" lon="13.889658584673553"><ele>5.0</ele><time>2026-04-05T15:57:15.998Z</time></trkpt><trkpt lat="42.91195629593306" lon="13.889773037598792"><ele>5.0</ele><time>2026-04-05T15:57:16.998Z</time></trkpt><trkpt lat="42.91199414112205" lon="13.88988649578413"><ele>5.0</ele><time>2026-04-05T15:57:17.998Z</time></trkpt><trkpt lat="42.912030846052815" lon="13.889996535541627"><ele>5.0</ele><time>2026-04-05T15:57:18.999Z</time></trkpt><trkpt lat="42.91207200286715" lon="13.89011992180443"><ele>5.0</ele><time>2026-04-05T15:57:19.999Z</time></trkpt><trkpt lat="42.91211578174257" lon="13.890251168633652"><ele>5.0</ele><time>2026-04-05T15:57:20.999Z</time></trkpt><trkpt lat="42.91215776797007" lon="13.89037703970048"><ele>5.0</ele><time>2026-04-05T15:57:21.999Z</time></trkpt><trkpt lat="42.91220224516423" lon="13.890498615437544"><ele>5.0</ele><time>2026-04-05T15:57:22.999Z</time></trkpt><trkpt lat="42.9122403665609" lon="13.890604364266174"><ele>5.0</ele><time>2026-04-05T15:57:23.999Z</time></trkpt><trkpt lat="42.912270264398984" lon="13.89068730070975"><ele>5.0</ele><time>2026-04-05T15:57:24.999Z</time></trkpt><trkpt lat="42.91230441513518" lon="13.890786253263048"><ele>5.0</ele><time>2026-04-05T15:57:26.999Z</time></trkpt><trkpt lat="42.912341004548786" lon="13.890892366646325"><ele>5.0</ele><time>2026-04-05T15:57:28.999Z</time></trkpt><trkpt lat="42.91250168402985" lon="13.89090299597202"><ele>5.0</ele><time>2026-04-05T15:57:30.999Z</time></trkpt><trkpt lat="42.91258170807522" lon="13.890867058254925"><ele>5.0</ele><time>2026-04-05T15:57:31.999Z</time></trkpt><trkpt lat="42.91265445521891" lon="13.89082883292957"><ele>5.0</ele><time>2026-04-05T15:57:32.999Z</time></trkpt><trkpt lat="42.91274074988127" lon="13.890803230048549"><ele>5.0</ele><time>2026-04-05T15:57:33.999Z</time></trkpt><trkpt lat="42.91282767467624" lon="13.890775484876611"><ele>5.0</ele><time>2026-04-05T15:57:34.999Z</time></trkpt><trkpt lat="42.91291029493467" lon="13.890738040037991"><ele>5.0</ele><time>2026-04-05T15:57:35.999Z</time></trkpt><trkpt lat="42.912990576474485" lon="13.890703373194206"><ele>5.0</ele><time>2026-04-05T15:57:36.999Z</time></trkpt><trkpt lat="42.91307407369431" lon="13.89067476796214"><ele>5.0</ele><time>2026-04-05T15:57:37.999Z</time></trkpt><trkpt lat="42.91316896976658" lon="13.890640012303564"><ele>5.0</ele><time>2026-04-05T15:57:38.999Z</time></trkpt><trkpt lat="42.91326560447954" lon="13.890607539417555"><ele>5.0</ele><time>2026-04-05T15:57:39.999Z</time></trkpt><trkpt lat="42.9133653996501" lon="13.890568417084797"><ele>5.0</ele><time>2026-04-05T15:57:40.999Z</time></trkpt><trkpt lat="42.91346328226741" lon="13.890534931760563"><ele>5.25</ele><time>2026-04-05T15:57:41.999Z</time></trkpt><trkpt lat="42.91356514539554" lon="13.890492662437742"><ele>5.5</ele><time>2026-04-05T15:57:42.999Z</time></trkpt><trkpt lat="42.91367640204898" lon="13.890450580924034"><ele>5.75</ele><time>2026-04-05T15:57:43.999Z</time></trkpt><trkpt lat="42.91379172930194" lon="13.89040382360332"><ele>6.0</ele><time>2026-04-05T15:57:44.999Z</time></trkpt><trkpt lat="42.91390453385078" lon="13.890360902477573"><ele>6.0</ele><time>2026-04-05T15:57:45.999Z</time></trkpt><trkpt lat="42.91401609238942" lon="13.890315709889599"><ele>6.0</ele><time>2026-04-05T15:57:46.999Z</time></trkpt><trkpt lat="42.91412741994736" lon="13.890274884354744"><ele>6.0</ele><time>2026-04-05T15:57:47.999Z</time></trkpt><trkpt lat="42.91423377631359" lon="13.890236825183708"><ele>6.0</ele><time>2026-04-05T15:57:48.999Z</time></trkpt><trkpt lat="42.914339676222866" lon="13.890219465589139"><ele>6.0</ele><time>2026-04-05T15:57:49.999Z</time></trkpt><trkpt lat="42.914440265674415" lon="13.890182257693345"><ele>6.0</ele><time>2026-04-05T15:57:50.999Z</time></trkpt><trkpt lat="42.91453433831756" lon="13.890150010241332"><ele>6.0</ele><time>2026-04-05T15:57:51.999Z</time></trkpt><trkpt lat="42.91463237067925" lon="13.89011702910512"><ele>6.0</ele><time>2026-04-05T15:57:52.999Z</time></trkpt><trkpt lat="42.914730882027655" lon="13.890083330716436"><ele>6.0</ele><time>2026-04-05T15:57:53.999Z</time></trkpt><trkpt lat="42.91482545029273" lon="13.890050602525182"><ele>6.0</ele><time>2026-04-05T15:57:54.999Z</time></trkpt><trkpt lat="42.91494183729461" lon="13.89001032283049"><ele>5.75</ele><time>2026-04-05T15:57:55.999Z</time></trkpt><trkpt lat="42.91506830118718" lon="13.889962963573687"><ele>5.5</ele><time>2026-04-05T15:57:56.999Z</time></trkpt><trkpt lat="42.91519475186013" lon="13.889893174959841"><ele>5.25</ele><time>2026-04-05T15:57:57.999Z</time></trkpt><trkpt lat="42.91533630260859" lon="13.889855558775581"><ele>5.0</ele><time>2026-04-05T15:57:58.999Z</time></trkpt><trkpt lat="42.91547275423059" lon="13.889816623494115"><ele>5.0</ele><time>2026-04-05T15:57:59.999Z</time></trkpt><trkpt lat="42.91560699640156" lon="13.88978002789046"><ele>5.0</ele><time>2026-04-05T15:58:00.999Z</time></trkpt><trkpt lat="42.915741389065744" lon="13.8897533385718"><ele>5.0</ele><time>2026-04-05T15:58:01.999Z</time></trkpt><trkpt lat="42.915870016785995" lon="13.889732708633517"><ele>5.0</ele><time>2026-04-05T15:58:02.999Z</time></trkpt><trkpt lat="42.915994458017266" lon="13.889735595649624"><ele>5.25</ele><time>2026-04-05T15:58:03.999Z</time></trkpt><trkpt lat="42.91611668076686" lon="13.88970040926568"><ele>5.5</ele><time>2026-04-05T15:58:04.999Z</time></trkpt><trkpt lat="42.91624021323797" lon="13.88968558243406"><ele>5.75</ele><time>2026-04-05T15:58:05.999Z</time></trkpt><trkpt lat="42.916356797548886" lon="13.889674009183059"><ele>6.0</ele><time>2026-04-05T15:58:06.999Z</time></trkpt><trkpt lat="42.916477153372696" lon="13.889682049319863"><ele>6.0</ele><time>2026-04-05T15:58:07.999Z</time></trkpt><trkpt lat="42.9165989354232" lon="13.88964756936204"><ele>6.0</ele><time>2026-04-05T15:58:08.999Z</time></trkpt><trkpt lat="42.91672854251568" lon="13.889635777901082"><ele>6.0</ele><time>2026-04-05T15:58:09.999Z</time></trkpt><trkpt lat="42.916865380138695" lon="13.889620749554709"><ele>6.0</ele><time>2026-04-05T15:58:10.999Z</time></trkpt><trkpt lat="42.917001809736966" lon="13.88960385045883"><ele>6.0</ele><time>2026-04-05T15:58:11.999Z</time></trkpt><trkpt lat="42.91713578802886" lon="13.889580851711886"><ele>6.0</ele><time>2026-04-05T15:58:12.999Z</time></trkpt><trkpt lat="42.91727593643472" lon="13.889580771456645"><ele>6.0</ele><time>2026-04-05T15:58:13.999Z</time></trkpt><trkpt lat="42.91742263959352" lon="13.889551371733468"><ele>6.0</ele><time>2026-04-05T15:58:14.999Z</time></trkpt><trkpt lat="42.91757850902022" lon="13.889515120907125"><ele>6.0</ele><time>2026-04-05T15:58:15.999Z</time></trkpt><trkpt lat="42.91774103008836" lon="13.889466867519625"><ele>6.0</ele><time>2026-04-05T15:58:16.999Z</time></trkpt><trkpt lat="42.917904912541175" lon="13.88941317647095"><ele>6.0</ele><time>2026-04-05T15:58:17.999Z</time></trkpt><trkpt lat="42.91806712988904" lon="13.889335416625208"><ele>6.0</ele><time>2026-04-05T15:58:18.999Z</time></trkpt><trkpt lat="42.9182361908223" lon="13.889268340107492"><ele>6.0</ele><time>2026-04-05T15:58:19.999Z</time></trkpt><trkpt lat="42.91840301335081" lon="13.889193135489638"><ele>6.0</ele><time>2026-04-05T15:58:20.999Z</time></trkpt><trkpt lat="42.91856620592695" lon="13.889110481539412"><ele>5.666666666666667</ele><time>2026-04-05T15:58:21.999Z</time></trkpt><trkpt lat="42.91872640887939" lon="13.889026917088888"><ele>5.333333333333334</ele><time>2026-04-05T15:58:22.999Z</time></trkpt><trkpt lat="42.918880997028" lon="13.888940633005573"><ele>5.0</ele><time>2026-04-05T15:58:23.999Z</time></trkpt><trkpt lat="42.91903261704508" lon="13.888857255376614"><ele>5.0</ele><time>2026-04-05T15:58:24.999Z</time></trkpt><trkpt lat="42.91918029889605" lon="13.888772851795242"><ele>5.0</ele><time>2026-04-05T15:58:25.999Z</time></trkpt><trkpt lat="42.91932184024844" lon="13.88869494841342"><ele>5.0</ele><time>2026-04-05T15:58:26.999Z</time></trkpt><trkpt lat="42.91946134968761" lon="13.88861347173102"><ele>5.25</ele><time>2026-04-05T15:58:27.999Z</time></trkpt><trkpt lat="42.919597969363785" lon="13.888536560531739"><ele>5.5</ele><time>2026-04-05T15:58:28.999Z</time></trkpt><trkpt lat="42.919734013017475" lon="13.888462452085522"><ele>5.75</ele><time>2026-04-05T15:58:29.999Z</time></trkpt><trkpt lat="42.91986607079304" lon="13.888386497961275"><ele>6.0</ele><time>2026-04-05T15:58:30.999Z</time></trkpt><trkpt lat="42.91998744225742" lon="13.888324949271547"><ele>6.75</ele><time>2026-04-05T15:58:31.999Z</time></trkpt><trkpt lat="42.920105472992965" lon="13.888270297449296"><ele>7.5</ele><time>2026-04-05T15:58:32.999Z</time></trkpt><trkpt lat="42.920229169538295" lon="13.888222643154258"><ele>8.25</ele><time>2026-04-05T15:58:33.999Z</time></trkpt><trkpt lat="42.92035489061431" lon="13.88818441689242"><ele>9.0</ele><time>2026-04-05T15:58:34.999Z</time></trkpt><trkpt lat="42.92047809952592" lon="13.888140035593759"><ele>9.0</ele><time>2026-04-05T15:58:35.999Z</time></trkpt><trkpt lat="42.92059833785573" lon="13.888097548706535"><ele>9.0</ele><time>2026-04-05T15:58:36.999Z</time></trkpt><trkpt lat="42.92071737967466" lon="13.888053462957812"><ele>9.0</ele><time>2026-04-05T15:58:37.999Z</time></trkpt><trkpt lat="42.92087595446599" lon="13.887947086948744"><ele>9.0</ele><time>2026-04-05T15:58:38.999Z</time></trkpt><trkpt lat="42.921016047986086" lon="13.88789771738422"><ele>8.25</ele><time>2026-04-05T15:58:39.999Z</time></trkpt><trkpt lat="42.92114613489132" lon="13.887835703425976"><ele>7.5</ele><time>2026-04-05T15:58:40.999Z</time></trkpt><trkpt lat="42.92127442575027" lon="13.887784616684819"><ele>6.75</ele><time>2026-04-05T15:58:41.999Z</time></trkpt><trkpt lat="42.92140586642337" lon="13.887722988056431"><ele>6.0</ele><time>2026-04-05T15:58:42.999Z</time></trkpt><trkpt lat="42.921539312221384" lon="13.887667105778094"><ele>7.0</ele><time>2026-04-05T15:58:43.999Z</time></trkpt><trkpt lat="42.921669292365046" lon="13.887590587554866"><ele>8.0</ele><time>2026-04-05T15:58:44.999Z</time></trkpt><trkpt lat="42.92179912589562" lon="13.887514001233587"><ele>9.0</ele><time>2026-04-05T15:58:45.999Z</time></trkpt><trkpt lat="42.92192163604318" lon="13.887446288835127"><ele>10.0</ele><time>2026-04-05T15:58:46.999Z</time></trkpt><trkpt lat="42.92204441277646" lon="13.887381507052883"><ele>10.0</ele><time>2026-04-05T15:58:47.999Z</time></trkpt><trkpt lat="42.92216045022832" lon="13.887312233871272"><ele>10.0</ele><time>2026-04-05T15:58:48.999Z</time></trkpt><trkpt lat="42.92227925520552" lon="13.88724608277336"><ele>10.0</ele><time>2026-04-05T15:58:49.999Z</time></trkpt><trkpt lat="42.92239428143177" lon="13.887176994068641"><ele>10.0</ele><time>2026-04-05T15:58:50.999Z</time></trkpt><trkpt lat="42.922514993986965" lon="13.887108806927122"><ele>10.0</ele><time>2026-04-05T15:58:51.999Z</time></trkpt><trkpt lat="42.922627917286555" lon="13.887042290233842"><ele>10.0</ele><time>2026-04-05T15:58:52.999Z</time></trkpt><trkpt lat="42.92273917961006" lon="13.886985091726643"><ele>10.0</ele><time>2026-04-05T15:58:53.999Z</time></trkpt><trkpt lat="42.92285013272996" lon="13.886930128772148"><ele>10.0</ele><time>2026-04-05T15:58:54.999Z</time></trkpt><trkpt lat="42.922948837702315" lon="13.886872272762815"><ele>10.0</ele><time>2026-04-05T15:58:55.999Z</time></trkpt><trkpt lat="42.92304853502616" lon="13.886815757293506"><ele>10.0</ele><time>2026-04-05T15:58:56.999Z</time></trkpt><trkpt lat="42.923156686537034" lon="13.886755714482556"><ele>10.0</ele><time>2026-04-05T15:58:57.999Z</time></trkpt><trkpt lat="42.92326719462959" lon="13.886710485009647"><ele>10.0</ele><time>2026-04-05T15:58:58.999Z</time></trkpt><trkpt lat="42.92336329122056" lon="13.886657570897354"><ele>10.0</ele><time>2026-04-05T15:58:59.999Z</time></trkpt><trkpt lat="42.9234307810597" lon="13.886598332629807"><ele>9.833333333333334</ele><time>2026-04-05T15:59:00.999Z</time></trkpt><trkpt lat="42.92351426835861" lon="13.886574437649383"><ele>9.666666666666668</ele><time>2026-04-05T15:59:01.999Z</time></trkpt><trkpt lat="42.92358306485942" lon="13.886536555876907"><ele>9.5</ele><time>2026-04-05T15:59:02.999Z</time></trkpt><trkpt lat="42.923653370297465" lon="13.88649761532507"><ele>9.333333333333334</ele><time>2026-04-05T15:59:03.999Z</time></trkpt><trkpt lat="42.92372825081661" lon="13.886456136459115"><ele>9.166666666666666</ele><time>2026-04-05T15:59:04.999Z</time></trkpt><trkpt lat="42.9238129627889" lon="13.88640921165294"><ele>9.0</ele><time>2026-04-05T15:59:05.999Z</time></trkpt><trkpt lat="42.92390333102151" lon="13.886359153273684"><ele>9.0</ele><time>2026-04-05T15:59:06.999Z</time></trkpt><trkpt lat="42.92398713557842" lon="13.886313372940744"><ele>9.0</ele><time>2026-04-05T15:59:07.999Z</time></trkpt><trkpt lat="42.92405996543558" lon="13.886249932536433"><ele>9.0</ele><time>2026-04-05T15:59:08.999Z</time></trkpt><trkpt lat="42.92412466847618" lon="13.88621461705461"><ele>9.0</ele><time>2026-04-05T15:59:09.999Z</time></trkpt><trkpt lat="42.92421786045248" lon="13.886185283671848"><ele>9.0</ele><time>2026-04-05T15:59:11.999Z</time></trkpt><trkpt lat="42.924304272087355" lon="13.886121380500539"><ele>9.0</ele><time>2026-04-05T15:59:43Z</time></trkpt><trkpt lat="42.92437699386339" lon="13.886086058300178"><ele>9.2</ele><time>2026-04-05T15:59:44Z</time></trkpt><trkpt lat="42.92445241070972" lon="13.88604782545092"><ele>9.4</ele><time>2026-04-05T15:59:45Z</time></trkpt><trkpt lat="42.924541154704414" lon="13.886011268254908"><ele>9.6</ele><time>2026-04-05T15:59:46Z</time></trkpt><trkpt lat="42.924641482245406" lon="13.885967434409801"><ele>9.8</ele><time>2026-04-05T15:59:47Z</time></trkpt><trkpt lat="42.924754999273276" lon="13.885918806500484"><ele>10.0</ele><time>2026-04-05T15:59:48Z</time></trkpt><trkpt lat="42.92486892599988" lon="13.885869979282141"><ele>10.0</ele><time>2026-04-05T15:59:49Z</time></trkpt><trkpt lat="42.924988460824665" lon="13.885821458004129"><ele>10.0</ele><time>2026-04-05T15:59:50Z</time></trkpt><trkpt lat="42.92511085714797" lon="13.885779016858507"><ele>10.0</ele><time>2026-04-05T15:59:51Z</time></trkpt><trkpt lat="42.92523537917714" lon="13.885736351252898"><ele>10.0</ele><time>2026-04-05T15:59:52Z</time></trkpt><trkpt lat="42.92536259077848" lon="13.885693515518014"><ele>10.0</ele><time>2026-04-05T15:59:53Z</time></trkpt><trkpt lat="42.925493765647985" lon="13.885652665409534"><ele>10.0</ele><time>2026-04-05T15:59:54Z</time></trkpt><trkpt lat="42.9256243222317" lon="13.885613028855124"><ele>10.0</ele><time>2026-04-05T15:59:55Z</time></trkpt><trkpt lat="42.925752086114045" lon="13.885574602354222"><ele>10.0</ele><time>2026-04-05T15:59:56Z</time></trkpt><trkpt lat="42.92587774200418" lon="13.885541690493936"><ele>9.4</ele><time>2026-04-05T15:59:57Z</time></trkpt><trkpt lat="42.925997633614315" lon="13.885511270259345"><ele>8.8</ele><time>2026-04-05T15:59:58Z</time></trkpt><trkpt lat="42.92611221981859" lon="13.885482225535386"><ele>8.2</ele><time>2026-04-05T15:59:59Z</time></trkpt><trkpt lat="42.92621833287949" lon="13.885453878979266"><ele>7.6</ele><time>2026-04-05T16:00:00Z</time></trkpt><trkpt lat="42.92631175426813" lon="13.885430115829605"><ele>7.0</ele><time>2026-04-05T16:00:01Z</time></trkpt><trkpt lat="42.92639891849323" lon="13.885407419878392"><ele>7.0</ele><time>2026-04-05T16:00:02Z</time></trkpt><trkpt lat="42.92647722311275" lon="13.885388221621167"><ele>6.999999999999999</ele><time>2026-04-05T16:00:03Z</time></trkpt><trkpt lat="42.9265532001371" lon="13.885371298486803"><ele>6.999999999999999</ele><time>2026-04-05T16:00:04Z</time></trkpt><trkpt lat="42.92662292709527" lon="13.88536273703871"><ele>7.0</ele><time>2026-04-05T16:00:04.999Z</time></trkpt><trkpt lat="42.9267473464639" lon="13.885380465849773"><ele>7.0</ele><time>2026-04-05T16:00:06.999Z</time></trkpt><trkpt lat="42.92685155221075" lon="13.885483614107756"><ele>6.666666666666667</ele><time>2026-04-05T16:00:08.999Z</time></trkpt><trkpt lat="42.9269044644728" lon="13.885544401727264"><ele>6.333333333333334</ele><time>2026-04-05T16:00:09.999Z</time></trkpt><trkpt lat="42.92697114947382" lon="13.88558695764102"><ele>6.0</ele><time>2026-04-05T16:00:10.999Z</time></trkpt><trkpt lat="42.92703596607416" lon="13.885565758426173"><ele>5.666666666666667</ele><time>2026-04-05T16:00:11.999Z</time></trkpt><trkpt lat="42.92709056027284" lon="13.885501749169183"><ele>5.333333333333334</ele><time>2026-04-05T16:00:12.999Z</time></trkpt><trkpt lat="42.92713206502123" lon="13.885396245012798"><ele>5.0</ele><time>2026-04-05T16:00:13.999Z</time></trkpt><trkpt lat="42.92717393722613" lon="13.885295908195669"><ele>5.0</ele><time>2026-04-05T16:00:14.999Z</time></trkpt><trkpt lat="42.92724849664933" lon="13.88522272840982"><ele>5.0</ele><time>2026-04-05T16:00:15.999Z</time></trkpt><trkpt lat="42.92734826246623" lon="13.88518070686255"><ele>5.0</ele><time>2026-04-05T16:00:16.999Z</time></trkpt><trkpt lat="42.927459497224746" lon="13.885151634811287"><ele>5.0</ele><time>2026-04-05T16:00:17.999Z</time></trkpt><trkpt lat="42.9275844899612" lon="13.885120490526987"><ele>5.0</ele><time>2026-04-05T16:00:18.999Z</time></trkpt><trkpt lat="42.927720650626014" lon="13.885076588941953"><ele>5.666666666666667</ele><time>2026-04-05T16:00:19.999Z</time></trkpt><trkpt lat="42.92787009399819" lon="13.885029143666719"><ele>6.333333333333334</ele><time>2026-04-05T16:00:20.999Z</time></trkpt><trkpt lat="42.92802449765599" lon="13.884984827396577"><ele>7.0</ele><time>2026-04-05T16:00:21.999Z</time></trkpt><trkpt lat="42.92818336600994" lon="13.884943953549229"><ele>7.0</ele><time>2026-04-05T16:00:22.999Z</time></trkpt><trkpt lat="42.92834707361345" lon="13.884895588043117"><ele>7.0</ele><time>2026-04-05T16:00:23.999Z</time></trkpt><trkpt lat="42.928519766838775" lon="13.884842611390281"><ele>7.0</ele><time>2026-04-05T16:00:24.999Z</time></trkpt><trkpt lat="42.928697166844586" lon="13.884789155145267"><ele>6.333333333333334</ele><time>2026-04-05T16:00:25.999Z</time></trkpt><trkpt lat="42.928873981598414" lon="13.884736503327508"><ele>5.666666666666667</ele><time>2026-04-05T16:00:26.999Z</time></trkpt><trkpt lat="42.92904999445903" lon="13.884684706286627"><ele>5.0</ele><time>2026-04-05T16:00:27.999Z</time></trkpt><trkpt lat="42.92922934626748" lon="13.884629660899943"><ele>4.666666666666667</ele><time>2026-04-05T16:00:28.999Z</time></trkpt><trkpt lat="42.92940449204802" lon="13.884574650828872"><ele>4.333333333333333</ele><time>2026-04-05T16:00:29.999Z</time></trkpt><trkpt lat="42.92957996221145" lon="13.884517063165376"><ele>4.0</ele><time>2026-04-05T16:00:30.999Z</time></trkpt><trkpt lat="42.92975391818934" lon="13.884461047635995"><ele>4.0</ele><time>2026-04-05T16:00:31.999Z</time></trkpt><trkpt lat="42.92992837075292" lon="13.884407226581747"><ele>4.0</ele><time>2026-04-05T16:00:32.999Z</time></trkpt><trkpt lat="42.93010094107427" lon="13.884352025975433"><ele>4.0</ele><time>2026-04-05T16:00:33.999Z</time></trkpt><trkpt lat="42.930272345414856" lon="13.884297926761098"><ele>5.0</ele><time>2026-04-05T16:00:34.999Z</time></trkpt><trkpt lat="42.93044172215874" lon="13.884246560613606"><ele>6.0</ele><time>2026-04-05T16:00:35.999Z</time></trkpt><trkpt lat="42.93060959034369" lon="13.884185705228003"><ele>7.0</ele><time>2026-04-05T16:00:36.999Z</time></trkpt><trkpt lat="42.930773896942796" lon="13.884132944590421"><ele>7.0</ele><time>2026-04-05T16:00:37.999Z</time></trkpt><trkpt lat="42.930936446527596" lon="13.884081817403613"><ele>7.0</ele><time>2026-04-05T16:00:38.999Z</time></trkpt><trkpt lat="42.93109387488831" lon="13.884031356107604"><ele>7.0</ele><time>2026-04-05T16:00:39.999Z</time></trkpt><trkpt lat="42.93125167853267" lon="13.883978267931713"><ele>7.0</ele><time>2026-04-05T16:00:40.999Z</time></trkpt><trkpt lat="42.93140424951465" lon="13.883926085848813"><ele>7.0</ele><time>2026-04-05T16:00:41.999Z</time></trkpt><trkpt lat="42.93155882675354" lon="13.883873991578792"><ele>7.0</ele><time>2026-04-05T16:00:42.999Z</time></trkpt><trkpt lat="42.93171884433551" lon="13.883813977966144"><ele>5.666666666666667</ele><time>2026-04-05T16:00:43.999Z</time></trkpt><trkpt lat="42.93189717559024" lon="13.88373372522354"><ele>4.333333333333334</ele><time>2026-04-05T16:00:44.999Z</time></trkpt><trkpt lat="42.93208837326008" lon="13.883635520267505"><ele>3.0</ele><time>2026-04-05T16:00:45.999Z</time></trkpt><trkpt lat="42.93227936316214" lon="13.883531841320483"><ele>5.0</ele><time>2026-04-05T16:00:46.999Z</time></trkpt><trkpt lat="42.93247596689084" lon="13.883422940111878"><ele>7.0</ele><time>2026-04-05T16:00:47.999Z</time></trkpt><trkpt lat="42.93268361087209" lon="13.883305798532048"><ele>9.0</ele><time>2026-04-05T16:00:48.999Z</time></trkpt><trkpt lat="42.93288967412609" lon="13.883188668747357"><ele>9.0</ele><time>2026-04-05T16:00:49.999Z</time></trkpt><trkpt lat="42.93309267106301" lon="13.883075660417552"><ele>9.0</ele><time>2026-04-05T16:00:50.999Z</time></trkpt><trkpt lat="42.93328052228152" lon="13.88296537593437"><ele>9.0</ele><time>2026-04-05T16:00:51.999Z</time></trkpt><trkpt lat="42.93346429014764" lon="13.88287464650922"><ele>9.333333333333334</ele><time>2026-04-05T16:00:52.999Z</time></trkpt><trkpt lat="42.933619964142636" lon="13.882753473170007"><ele>9.666666666666668</ele><time>2026-04-05T16:00:53.999Z</time></trkpt><trkpt lat="42.933776587222845" lon="13.882660129466904"><ele>10.0</ele><time>2026-04-05T16:00:54.999Z</time></trkpt><trkpt lat="42.93393053492445" lon="13.882578679415767"><ele>10.666666666666668</ele><time>2026-04-05T16:00:55.999Z</time></trkpt><trkpt lat="42.9340830868064" lon="13.882535780312612"><ele>11.333333333333334</ele><time>2026-04-05T16:00:56.999Z</time></trkpt><trkpt lat="42.934245378473086" lon="13.882515263789685"><ele>12.0</ele><time>2026-04-05T16:00:57.999Z</time></trkpt><trkpt lat="42.93441867482251" lon="13.882495168990124"><ele>12.0</ele><time>2026-04-05T16:00:58.999Z</time></trkpt><trkpt lat="42.93459437993875" lon="13.882469094429906"><ele>12.0</ele><time>2026-04-05T16:00:59.999Z</time></trkpt><trkpt lat="42.93477257502515" lon="13.882436345699103"><ele>12.0</ele><time>2026-04-05T16:01:00.999Z</time></trkpt><trkpt lat="42.934948113931554" lon="13.882404124644278"><ele>10.333333333333334</ele><time>2026-04-05T16:01:01.999Z</time></trkpt><trkpt lat="42.93512415382711" lon="13.882370114188877"><ele>8.666666666666668</ele><time>2026-04-05T16:01:02.999Z</time></trkpt><trkpt lat="42.93530290879249" lon="13.88233704340821"><ele>7.0</ele><time>2026-04-05T16:01:03.999Z</time></trkpt><trkpt lat="42.935485357520044" lon="13.882305563578678"><ele>7.0</ele><time>2026-04-05T16:01:04.999Z</time></trkpt><trkpt lat="42.93566857988776" lon="13.882273955406939"><ele>7.0</ele><time>2026-04-05T16:01:05.999Z</time></trkpt><trkpt lat="42.935854369644666" lon="13.882236868700492"><ele>7.0</ele><time>2026-04-05T16:01:06.999Z</time></trkpt><trkpt lat="42.936039553749126" lon="13.882203407376151"><ele>7.333333333333334</ele><time>2026-04-05T16:01:07.999Z</time></trkpt><trkpt lat="42.93622219268105" lon="13.88216473613957"><ele>7.666666666666666</ele><time>2026-04-05T16:01:08.999Z</time></trkpt><trkpt lat="42.93640555066572" lon="13.882118508755859"><ele>8.0</ele><time>2026-04-05T16:01:09.999Z</time></trkpt><trkpt lat="42.936586917666034" lon="13.882061542745028"><ele>7.333333333333333</ele><time>2026-04-05T16:01:10.999Z</time></trkpt><trkpt lat="42.93676993264853" lon="13.881995135257498"><ele>6.666666666666666</ele><time>2026-04-05T16:01:11.999Z</time></trkpt><trkpt lat="42.93695546893823" lon="13.881931767266055"><ele>6.0</ele><time>2026-04-05T16:01:12.999Z</time></trkpt><trkpt lat="42.937141752371566" lon="13.881857332210574"><ele>6.0</ele><time>2026-04-05T16:01:13.999Z</time></trkpt><trkpt lat="42.93732823849693" lon="13.881779562136664"><ele>6.0</ele><time>2026-04-05T16:01:14.999Z</time></trkpt><trkpt lat="42.93750820510004" lon="13.881698841793188"><ele>6.0</ele><time>2026-04-05T16:01:15.999Z</time></trkpt><trkpt lat="42.93768572531352" lon="13.8816215538785"><ele>6.666666666666666</ele><time>2026-04-05T16:01:16.999Z</time></trkpt><trkpt lat="42.9378585657829" lon="13.881554101780159"><ele>7.333333333333333</ele><time>2026-04-05T16:01:17.999Z</time></trkpt><trkpt lat="42.93802639802183" lon="13.88149177715101"><ele>8.0</ele><time>2026-04-05T16:01:18.999Z</time></trkpt><trkpt lat="42.93819203747373" lon="13.881429665558503"><ele>8.0</ele><time>2026-04-05T16:01:19.999Z</time></trkpt><trkpt lat="42.938358358941805" lon="13.881367085141346"><ele>8.0</ele><time>2026-04-05T16:01:20.999Z</time></trkpt><trkpt lat="42.93852351114709" lon="13.881305654268962"><ele>8.0</ele><time>2026-04-05T16:01:21.999Z</time></trkpt><trkpt lat="42.93868523455686" lon="13.881247599091992"><ele>7.0</ele><time>2026-04-05T16:01:22.999Z</time></trkpt><trkpt lat="42.93884607681475" lon="13.881193749179117"><ele>6.0</ele><time>2026-04-05T16:01:23.999Z</time></trkpt><trkpt lat="42.939002339356726" lon="13.881141360186456"><ele>5.0</ele><time>2026-04-05T16:01:24.999Z</time></trkpt><trkpt lat="42.93915378115701" lon="13.881085512737714"><ele>5.25</ele><time>2026-04-05T16:01:25.999Z</time></trkpt><trkpt lat="42.93930190114991" lon="13.881035322833604"><ele>5.5</ele><time>2026-04-05T16:01:26.999Z</time></trkpt><trkpt lat="42.93944154039441" lon="13.880985933129907"><ele>5.75</ele><time>2026-04-05T16:01:27.999Z</time></trkpt><trkpt lat="42.93957522220416" lon="13.88093628189879"><ele>6.0</ele><time>2026-04-05T16:01:28.999Z</time></trkpt><trkpt lat="42.93970399638851" lon="13.880886545786879"><ele>6.5</ele><time>2026-04-05T16:01:30Z</time></trkpt><trkpt lat="42.93983183459076" lon="13.880869732347985"><ele>7.0</ele><time>2026-04-05T16:01:31Z</time></trkpt><trkpt lat="42.939953951816904" lon="13.880832606747141"><ele>7.5</ele><time>2026-04-05T16:01:32Z</time></trkpt><trkpt lat="42.94007476799251" lon="13.880797193745094"><ele>8.0</ele><time>2026-04-05T16:01:33Z</time></trkpt><trkpt lat="42.94019611575847" lon="13.880761624923704"><ele>8.0</ele><time>2026-04-05T16:01:34Z</time></trkpt><trkpt lat="42.94030317945028" lon="13.880730242967724"><ele>8.0</ele><time>2026-04-05T16:01:35Z</time></trkpt><trkpt lat="42.940405526041985" lon="13.880700941346008"><ele>8.0</ele><time>2026-04-05T16:01:36Z</time></trkpt><trkpt lat="42.94049547439972" lon="13.880675574090064"><ele>8.0</ele><time>2026-04-05T16:01:37Z</time></trkpt><trkpt lat="42.94057042212942" lon="13.880654437315098"><ele>8.0</ele><time>2026-04-05T16:01:38Z</time></trkpt><trkpt lat="42.94063821918729" lon="13.880635251659635"><ele>8.0</ele><time>2026-04-05T16:01:39Z</time></trkpt><trkpt lat="42.940725918235024" lon="13.880611395214622"><ele>8.0</ele><time>2026-04-05T16:01:41Z</time></trkpt><trkpt lat="42.94083387173046" lon="13.880584213921226"><ele>8.0</ele><time>2026-04-05T16:01:43Z</time></trkpt><trkpt lat="42.94092088722002" lon="13.880564287694648"><ele>8.0</ele><time>2026-04-05T16:01:44Z</time></trkpt><trkpt lat="42.94101940626303" lon="13.880521945012783"><ele>8.0</ele><time>2026-04-05T16:01:45Z</time></trkpt><trkpt lat="42.94113232768794" lon="13.880496860263074"><ele>8.5</ele><time>2026-04-05T16:01:46Z</time></trkpt><trkpt lat="42.94125227644955" lon="13.880456042471957"><ele>9.0</ele><time>2026-04-05T16:01:47Z</time></trkpt><trkpt lat="42.94137075790548" lon="13.880422241781224"><ele>9.5</ele><time>2026-04-05T16:01:48Z</time></trkpt><trkpt lat="42.94149415077644" lon="13.880400669749578"><ele>10.0</ele><time>2026-04-05T16:01:49Z</time></trkpt><trkpt lat="42.94161304005425" lon="13.88037692335461"><ele>9.8</ele><time>2026-04-05T16:01:50Z</time></trkpt><trkpt lat="42.94172537150721" lon="13.88034897078353"><ele>9.6</ele><time>2026-04-05T16:01:51Z</time></trkpt><trkpt lat="42.94182726786313" lon="13.880321244381056"><ele>9.4</ele><time>2026-04-05T16:01:52Z</time></trkpt><trkpt lat="42.94192155176312" lon="13.88029143596227"><ele>9.2</ele><time>2026-04-05T16:01:53Z</time></trkpt><trkpt lat="42.94200669699549" lon="13.880261073664919"><ele>9.0</ele><time>2026-04-05T16:01:54Z</time></trkpt><trkpt lat="42.94208786140216" lon="13.880229842397858"><ele>9.0</ele><time>2026-04-05T16:01:55Z</time></trkpt><trkpt lat="42.94217129287609" lon="13.880203057260239"><ele>9.0</ele><time>2026-04-05T16:01:56Z</time></trkpt><trkpt lat="42.94225338087618" lon="13.880179217412344"><ele>9.0</ele><time>2026-04-05T16:01:57Z</time></trkpt><trkpt lat="42.94234090288396" lon="13.880150879054222"><ele>9.0</ele><time>2026-04-05T16:01:58Z</time></trkpt><trkpt lat="42.94243098700302" lon="13.88011875408432"><ele>9.0</ele><time>2026-04-05T16:01:59Z</time></trkpt><trkpt lat="42.94253354374589" lon="13.880100700555767"><ele>9.25</ele><time>2026-04-05T16:02:00Z</time></trkpt><trkpt lat="42.94264500556117" lon="13.880069119323869"><ele>9.5</ele><time>2026-04-05T16:02:01Z</time></trkpt><trkpt lat="42.942767378509295" lon="13.880035486237329"><ele>9.75</ele><time>2026-04-05T16:02:02Z</time></trkpt><trkpt lat="42.94287874073493" lon="13.879983835687158"><ele>10.0</ele><time>2026-04-05T16:02:03Z</time></trkpt><trkpt lat="42.942987940002894" lon="13.879955166570817"><ele>10.0</ele><time>2026-04-05T16:02:04Z</time></trkpt><trkpt lat="42.943111369924644" lon="13.879940739315005"><ele>10.0</ele><time>2026-04-05T16:02:05Z</time></trkpt><trkpt lat="42.9432244832448" lon="13.879909529352993"><ele>10.0</ele><time>2026-04-05T16:02:06Z</time></trkpt><trkpt lat="42.94333480806029" lon="13.87987908877988"><ele>10.0</ele><time>2026-04-05T16:02:07Z</time></trkpt><trkpt lat="42.94344768170115" lon="13.879848222723181"><ele>9.6</ele><time>2026-04-05T16:02:08Z</time></trkpt><trkpt lat="42.94355973891278" lon="13.879818340801776"><ele>9.2</ele><time>2026-04-05T16:02:09Z</time></trkpt><trkpt lat="42.943670240324984" lon="13.879788873759965"><ele>8.8</ele><time>2026-04-05T16:02:10Z</time></trkpt><trkpt lat="42.943770067121235" lon="13.879761804511508"><ele>8.4</ele><time>2026-04-05T16:02:11Z</time></trkpt><trkpt lat="42.94387377631515" lon="13.879733727591884"><ele>8.0</ele><time>2026-04-05T16:02:12Z</time></trkpt><trkpt lat="42.94396938798697" lon="13.87970809565779"><ele>8.0</ele><time>2026-04-05T16:02:13Z</time></trkpt><trkpt lat="42.94406025935406" lon="13.879683734521976"><ele>8.0</ele><time>2026-04-05T16:02:14Z</time></trkpt><trkpt lat="42.944140141467706" lon="13.879660752930658"><ele>8.0</ele><time>2026-04-05T16:02:15Z</time></trkpt><trkpt lat="42.94429991186965" lon="13.879611314958138"><ele>8.0</ele><time>2026-04-05T16:02:17Z</time></trkpt><trkpt lat="42.94437246491087" lon="13.87958886476573"><ele>8.0</ele><time>2026-04-05T16:02:18Z</time></trkpt><trkpt lat="42.94448465010792" lon="13.879554151152465"><ele>7.833333333333333</ele><time>2026-04-05T16:02:19.999Z</time></trkpt><trkpt lat="42.94454985550663" lon="13.879533974543463"><ele>7.666666666666666</ele><time>2026-04-05T16:02:20.999Z</time></trkpt><trkpt lat="42.94462123578626" lon="13.879511784732271"><ele>7.5</ele><time>2026-04-05T16:02:21.999Z</time></trkpt><trkpt lat="42.944699005790795" lon="13.879487621628025"><ele>7.333333333333334</ele><time>2026-04-05T16:02:22.999Z</time></trkpt><trkpt lat="42.94478486660369" lon="13.879458952169916"><ele>7.166666666666667</ele><time>2026-04-05T16:02:23.999Z</time></trkpt><trkpt lat="42.944872636456175" lon="13.87942817287153"><ele>7.0</ele><time>2026-04-05T16:02:24.999Z</time></trkpt><trkpt lat="42.944954437625" lon="13.87939948668666"><ele>7.0</ele><time>2026-04-05T16:02:25.999Z</time></trkpt><trkpt lat="42.945023692000255" lon="13.87937520043566"><ele>6.999999999999999</ele><time>2026-04-05T16:02:26.999Z</time></trkpt><trkpt lat="42.94512644785505" lon="13.879319543539202"><ele>6.999999999999999</ele><time>2026-04-05T16:02:28.999Z</time></trkpt><trkpt lat="42.94524878289153" lon="13.87929455415753"><ele>7.0</ele><time>2026-04-05T16:02:30.999Z</time></trkpt><trkpt lat="42.945313723487956" lon="13.879271059936325"><ele>7.0</ele><time>2026-04-05T16:02:31.999Z</time></trkpt><trkpt lat="42.945382680957195" lon="13.87922423515497"><ele>7.000000000000001</ele><time>2026-04-05T16:02:32.999Z</time></trkpt><trkpt lat="42.94544878801844" lon="13.87921348903918"><ele>7.0</ele><time>2026-04-05T16:02:33.999Z</time></trkpt><trkpt lat="42.94552297999671" lon="13.879187783962204"><ele>7.0</ele><time>2026-04-05T16:02:34.999Z</time></trkpt><trkpt lat="42.94559623657338" lon="13.8791517013894"><ele>7.0</ele><time>2026-04-05T16:02:35.999Z</time></trkpt><trkpt lat="42.94568313390447" lon="13.87912198444648"><ele>7.000000000000001</ele><time>2026-04-05T16:02:37.999Z</time></trkpt><trkpt lat="42.94574878716595" lon="13.879101434053176"><ele>7.0</ele><time>2026-04-05T16:02:58.999Z</time></trkpt><trkpt lat="42.94581845284667" lon="13.879062003237676"><ele>7.500000000000001</ele><time>2026-04-05T16:03:00.999Z</time></trkpt><trkpt lat="42.9459229264351" lon="13.879033040692006"><ele>8.0</ele><time>2026-04-05T16:03:02.999Z</time></trkpt><trkpt lat="42.945997992347245" lon="13.879016616320342"><ele>8.5</ele><time>2026-04-05T16:03:10.999Z</time></trkpt><trkpt lat="42.946078703021115" lon="13.878965637705097"><ele>9.0</ele><time>2026-04-05T16:03:12.999Z</time></trkpt><trkpt lat="42.946158693655775" lon="13.878955043897038"><ele>9.5</ele><time>2026-04-05T16:03:14.999Z</time></trkpt><trkpt lat="42.946230835124894" lon="13.878927252356664"><ele>10.0</ele><time>2026-04-05T16:03:16.999Z</time></trkpt><trkpt lat="42.946310264149126" lon="13.878896653379117"><ele>10.0</ele><time>2026-04-05T16:03:18.999Z</time></trkpt><trkpt lat="42.94638970820711" lon="13.878866048616956"><ele>10.0</ele><time>2026-04-05T16:03:23.999Z</time></trkpt><trkpt lat="42.946471611256484" lon="13.8788344965343"><ele>10.0</ele><time>2026-04-05T16:03:26.999Z</time></trkpt><trkpt lat="42.94654243003049" lon="13.87880535808752"><ele>10.0</ele><time>2026-04-05T16:03:28.999Z</time></trkpt><trkpt lat="42.946610588983425" lon="13.878777570202452"><ele>10.0</ele><time>2026-04-05T16:03:30.999Z</time></trkpt><trkpt lat="42.94669827213385" lon="13.878728703331717"><ele>10.0</ele><time>2026-04-05T16:03:33.999Z</time></trkpt><trkpt lat="42.946773690810126" lon="13.878691450857106"><ele>10.0</ele><time>2026-04-05T16:03:36Z</time></trkpt><trkpt lat="42.946850741792296" lon="13.878672279509725"><ele>10.0</ele><time>2026-04-05T16:03:39Z</time></trkpt><trkpt lat="42.94691199029492" lon="13.878638964444997"><ele>10.0</ele><time>2026-04-05T16:03:41Z</time></trkpt><trkpt lat="42.94700117520015" lon="13.878586780705"><ele>10.0</ele><time>2026-04-05T16:03:43Z</time></trkpt><trkpt lat="42.947062944739876" lon="13.878548813948038"><ele>10.0</ele><time>2026-04-05T16:03:44Z</time></trkpt><trkpt lat="42.94713795765755" lon="13.878502707246964"><ele>10.0</ele><time>2026-04-05T16:03:45Z</time></trkpt><trkpt lat="42.947201303033744" lon="13.87846287610198"><ele>9.8</ele><time>2026-04-05T16:03:46Z</time></trkpt><trkpt lat="42.94729417223752" lon="13.878401672740804"><ele>9.6</ele><time>2026-04-05T16:03:48Z</time></trkpt><trkpt lat="42.94740055621996" lon="13.878334576851028"><ele>9.4</ele><time>2026-04-05T16:03:50Z</time></trkpt><trkpt lat="42.94747855942008" lon="13.878291431172004"><ele>9.2</ele><time>2026-04-05T16:03:51Z</time></trkpt><trkpt lat="42.947559506789155" lon="13.878262380651615"><ele>9.0</ele><time>2026-04-05T16:03:52Z</time></trkpt><trkpt lat="42.94764054214636" lon="13.878233779937085"><ele>9.0</ele><time>2026-04-05T16:03:53Z</time></trkpt><trkpt lat="42.94771725779688" lon="13.878207449184712"><ele>9.0</ele><time>2026-04-05T16:03:54Z</time></trkpt><trkpt lat="42.94779106930577" lon="13.878182988854736"><ele>9.0</ele><time>2026-04-05T16:03:55Z</time></trkpt><trkpt lat="42.94785843443032" lon="13.87816074349289"><ele>9.0</ele><time>2026-04-05T16:03:56Z</time></trkpt><trkpt lat="42.94793461289421" lon="13.878135587783374"><ele>9.0</ele><time>2026-04-05T16:03:57Z</time></trkpt><trkpt lat="42.94802193000423" lon="13.878106756664973"><ele>9.0</ele><time>2026-04-05T16:03:58Z</time></trkpt><trkpt lat="42.94810980818108" lon="13.878077741461668"><ele>9.0</ele><time>2026-04-05T16:03:59Z</time></trkpt><trkpt lat="42.948205621265245" lon="13.87804582746907"><ele>9.0</ele><time>2026-04-05T16:04:00Z</time></trkpt><trkpt lat="42.94829517417664" lon="13.8780155301308"><ele>9.0</ele><time>2026-04-05T16:04:01Z</time></trkpt><trkpt lat="42.9483764165001" lon="13.877988044410635"><ele>9.0</ele><time>2026-04-05T16:04:02Z</time></trkpt><trkpt lat="42.94844466805677" lon="13.877964546019061"><ele>9.0</ele><time>2026-04-05T16:04:03Z</time></trkpt><trkpt lat="42.94854447457781" lon="13.877930427500445"><ele>9.0</ele><time>2026-04-05T16:04:05Z</time></trkpt><trkpt lat="42.94862431733767" lon="13.877903151977975"><ele>9.6</ele><time>2026-04-05T16:04:07Z</time></trkpt><trkpt lat="42.94871962621575" lon="13.877854754203332"><ele>10.2</ele><time>2026-04-05T16:04:09Z</time></trkpt><trkpt lat="42.94884837845025" lon="13.87782994217981"><ele>10.799999999999999</ele><time>2026-04-05T16:04:10.999Z</time></trkpt><trkpt lat="42.94892078448128" lon="13.877805172780151"><ele>11.4</ele><time>2026-04-05T16:04:11.999Z</time></trkpt><trkpt lat="42.94901803472105" lon="13.877772863112737"><ele>12.0</ele><time>2026-04-05T16:04:12.999Z</time></trkpt><trkpt lat="42.94912244025922" lon="13.877738176217399"><ele>11.75</ele><time>2026-04-05T16:04:13.999Z</time></trkpt><trkpt lat="42.94923832378229" lon="13.877699337162293"><ele>11.5</ele><time>2026-04-05T16:04:14.999Z</time></trkpt><trkpt lat="42.94936184690642" lon="13.877657713032757"><ele>11.25</ele><time>2026-04-05T16:04:15.999Z</time></trkpt><trkpt lat="42.949484411853526" lon="13.877616411793891"><ele>11.0</ele><time>2026-04-05T16:04:16.999Z</time></trkpt><trkpt lat="42.949594724202136" lon="13.877576635685054"><ele>10.75</ele><time>2026-04-05T16:04:17.999Z</time></trkpt><trkpt lat="42.94970644203613" lon="13.87751730267254"><ele>10.5</ele><time>2026-04-05T16:04:18.999Z</time></trkpt><trkpt lat="42.94983014147403" lon="13.877471463829972"><ele>10.25</ele><time>2026-04-05T16:04:19.999Z</time></trkpt><trkpt lat="42.94993320437561" lon="13.877410281350171"><ele>10.0</ele><time>2026-04-05T16:04:20.999Z</time></trkpt><trkpt lat="42.95005121448919" lon="13.877381574068528"><ele>10.0</ele><time>2026-04-05T16:04:21.999Z</time></trkpt><trkpt lat="42.95015921682475" lon="13.877338582519284"><ele>10.0</ele><time>2026-04-05T16:04:22.999Z</time></trkpt><trkpt lat="42.95026278065469" lon="13.87730618070003"><ele>10.0</ele><time>2026-04-05T16:04:23.999Z</time></trkpt><trkpt lat="42.950360367057264" lon="13.877281662143348"><ele>10.0</ele><time>2026-04-05T16:04:24.999Z</time></trkpt><trkpt lat="42.95044979143627" lon="13.877265248771904"><ele>10.0</ele><time>2026-04-05T16:04:25.999Z</time></trkpt><trkpt lat="42.95052133400449" lon="13.877235794069765"><ele>10.0</ele><time>2026-04-05T16:04:26.999Z</time></trkpt><trkpt lat="42.95059692859706" lon="13.877213896831215"><ele>10.0</ele><time>2026-04-05T16:04:27.999Z</time></trkpt><trkpt lat="42.95067569441907" lon="13.877185684130405"><ele>10.0</ele><time>2026-04-05T16:04:28.999Z</time></trkpt><trkpt lat="42.95075410699597" lon="13.877159048023431"><ele>10.0</ele><time>2026-04-05T16:04:29.999Z</time></trkpt><trkpt lat="42.950829760079586" lon="13.877151890554135"><ele>10.0</ele><time>2026-04-05T16:04:30.999Z</time></trkpt><trkpt lat="42.95090384147535" lon="13.877116308614442"><ele>10.0</ele><time>2026-04-05T16:04:31.999Z</time></trkpt><trkpt lat="42.95097732197422" lon="13.877105355274006"><ele>9.714285714285714</ele><time>2026-04-05T16:04:32.999Z</time></trkpt><trkpt lat="42.95104245239961" lon="13.877092895553325"><ele>9.428571428571429</ele><time>2026-04-05T16:04:33.999Z</time></trkpt><trkpt lat="42.951106551683715" lon="13.877075153878756"><ele>9.142857142857142</ele><time>2026-04-05T16:04:34.999Z</time></trkpt><trkpt lat="42.9511736474352" lon="13.87705413418246"><ele>8.857142857142858</ele><time>2026-04-05T16:04:35.999Z</time></trkpt><trkpt lat="42.951248277279625" lon="13.877049209284637"><ele>8.571428571428571</ele><time>2026-04-05T16:04:36.999Z</time></trkpt><trkpt lat="42.95133015882393" lon="13.877029853297502"><ele>8.285714285714285</ele><time>2026-04-05T16:04:37.999Z</time></trkpt><trkpt lat="42.95141444763919" lon="13.877003620868244"><ele>8.0</ele><time>2026-04-05T16:04:38.999Z</time></trkpt><trkpt lat="42.951514057197265" lon="13.876986012448453"><ele>8.0</ele><time>2026-04-05T16:04:39.999Z</time></trkpt><trkpt lat="42.95161910106293" lon="13.876959714778819"><ele>8.0</ele><time>2026-04-05T16:04:40.999Z</time></trkpt><trkpt lat="42.95172326384141" lon="13.876931255689302"><ele>8.0</ele><time>2026-04-05T16:04:41.999Z</time></trkpt><trkpt lat="42.951824206545815" lon="13.876903676275665"><ele>8.0</ele><time>2026-04-05T16:04:42.999Z</time></trkpt><trkpt lat="42.95193718590621" lon="13.876872039547118"><ele>8.0</ele><time>2026-04-05T16:04:43.999Z</time></trkpt><trkpt lat="42.952044738077134" lon="13.876827903979164"><ele>7.75</ele><time>2026-04-05T16:04:44.999Z</time></trkpt><trkpt lat="42.95216508143762" lon="13.876797921176225"><ele>7.5</ele><time>2026-04-05T16:04:45.999Z</time></trkpt><trkpt lat="42.95229511939662" lon="13.876761822159702"><ele>7.25</ele><time>2026-04-05T16:04:46.999Z</time></trkpt><trkpt lat="42.95243167452078" lon="13.876718599412877"><ele>7.0</ele><time>2026-04-05T16:04:47.999Z</time></trkpt><trkpt lat="42.95257357750315" lon="13.876679151880412"><ele>7.0</ele><time>2026-04-05T16:04:48.999Z</time></trkpt><trkpt lat="42.95272371641615" lon="13.876651447886026"><ele>7.0</ele><time>2026-04-05T16:04:49.999Z</time></trkpt><trkpt lat="42.95286629557737" lon="13.876618339320054"><ele>7.0</ele><time>2026-04-05T16:04:50.999Z</time></trkpt><trkpt lat="42.9530039845967" lon="13.87659186530681"><ele>7.0</ele><time>2026-04-05T16:04:51.999Z</time></trkpt><trkpt lat="42.95313155708909" lon="13.876557761873155"><ele>7.0</ele><time>2026-04-05T16:04:52.999Z</time></trkpt><trkpt lat="42.95325316749417" lon="13.876517047804013"><ele>7.0</ele><time>2026-04-05T16:04:53.999Z</time></trkpt><trkpt lat="42.95336960426607" lon="13.876511389676171"><ele>7.0</ele><time>2026-04-05T16:04:54.999Z</time></trkpt><trkpt lat="42.95347619155793" lon="13.876486121174878"><ele>7.0</ele><time>2026-04-05T16:04:55.999Z</time></trkpt><trkpt lat="42.95358145315828" lon="13.87646171960676"><ele>6.8</ele><time>2026-04-05T16:04:56.999Z</time></trkpt><trkpt lat="42.95368388547066" lon="13.876437902953299"><ele>6.6</ele><time>2026-04-05T16:04:57.999Z</time></trkpt><trkpt lat="42.953786221326595" lon="13.87641412150972"><ele>6.3999999999999995</ele><time>2026-04-05T16:04:58.999Z</time></trkpt><trkpt lat="42.95388833680564" lon="13.876390391277349"><ele>6.199999999999999</ele><time>2026-04-05T16:04:59.999Z</time></trkpt><trkpt lat="42.95399167829495" lon="13.876366376137858"><ele>6.0</ele><time>2026-04-05T16:05:00.999Z</time></trkpt><trkpt lat="42.95409025036888" lon="13.87634363987963"><ele>6.0</ele><time>2026-04-05T16:05:01.999Z</time></trkpt><trkpt lat="42.95419197816243" lon="13.876320175933927"><ele>6.0</ele><time>2026-04-05T16:05:02.999Z</time></trkpt><trkpt lat="42.9543033472239" lon="13.87629448818869"><ele>6.0</ele><time>2026-04-05T16:05:03.999Z</time></trkpt><trkpt lat="42.95442088822696" lon="13.876267376861756"><ele>6.0</ele><time>2026-04-05T16:05:04.999Z</time></trkpt><trkpt lat="42.95453786727599" lon="13.87624039513404"><ele>6.0</ele><time>2026-04-05T16:05:05.999Z</time></trkpt><trkpt lat="42.9546511089364" lon="13.876215580247868"><ele>6.0</ele><time>2026-04-05T16:05:06.999Z</time></trkpt><trkpt lat="42.95476358781186" lon="13.876188948474185"><ele>6.0</ele><time>2026-04-05T16:05:07.999Z</time></trkpt><trkpt lat="42.95487181957419" lon="13.87616418580467"><ele>6.0</ele><time>2026-04-05T16:05:08.999Z</time></trkpt><trkpt lat="42.954977999635965" lon="13.876140016697132"><ele>6.0</ele><time>2026-04-05T16:05:09.999Z</time></trkpt><trkpt lat="42.95508090145289" lon="13.876116929256249"><ele>6.0</ele><time>2026-04-05T16:05:10.999Z</time></trkpt><trkpt lat="42.95518217167874" lon="13.876094081940167"><ele>6.0</ele><time>2026-04-05T16:05:11.999Z</time></trkpt><trkpt lat="42.95528368785805" lon="13.876071179131529"><ele>6.0</ele><time>2026-04-05T16:05:12.999Z</time></trkpt><trkpt lat="42.95538287840296" lon="13.876048800999708"><ele>6.0</ele><time>2026-04-05T16:05:13.999Z</time></trkpt><trkpt lat="42.955481034534" lon="13.876026656217666"><ele>6.0</ele><time>2026-04-05T16:05:14.999Z</time></trkpt><trkpt lat="42.95558166025528" lon="13.876009550558095"><ele>6.0</ele><time>2026-04-05T16:05:15.999Z</time></trkpt><trkpt lat="42.95568624529653" lon="13.875993526119519"><ele>6.0</ele><time>2026-04-05T16:05:16.999Z</time></trkpt><trkpt lat="42.95580225232272" lon="13.875978047762889"><ele>6.0</ele><time>2026-04-05T16:05:17.999Z</time></trkpt><trkpt lat="42.9559207554414" lon="13.875918396085662"><ele>6.0</ele><time>2026-04-05T16:05:18.999Z</time></trkpt><trkpt lat="42.95604163581776" lon="13.87591252728821"><ele>6.333333333333333</ele><time>2026-04-05T16:05:19.999Z</time></trkpt><trkpt lat="42.95615583932766" lon="13.87590272587843"><ele>6.666666666666666</ele><time>2026-04-05T16:05:20.999Z</time></trkpt><trkpt lat="42.956252239058934" lon="13.87589186176393"><ele>7.0</ele><time>2026-04-05T16:05:21.999Z</time></trkpt><trkpt lat="42.95633266574241" lon="13.875884340037324"><ele>7.333333333333333</ele><time>2026-04-05T16:05:22.999Z</time></trkpt><trkpt lat="42.95640399448384" lon="13.875873357917655"><ele>7.666666666666666</ele><time>2026-04-05T16:05:23.999Z</time></trkpt><trkpt lat="42.95647346428024" lon="13.875863656914806"><ele>8.0</ele><time>2026-04-05T16:05:24.999Z</time></trkpt><trkpt lat="42.95653905127682" lon="13.875898813151636"><ele>8.0</ele><time>2026-04-05T16:05:25.999Z</time></trkpt><trkpt lat="42.95663548622578" lon="13.875884128978031"><ele>8.0</ele><time>2026-04-05T16:05:27.999Z</time></trkpt><trkpt lat="42.95673865608934" lon="13.875866197264674"><ele>8.0</ele><time>2026-04-05T16:05:29.999Z</time></trkpt><trkpt lat="42.95681533466948" lon="13.875851354644448"><ele>8.0</ele><time>2026-04-05T16:05:30.999Z</time></trkpt><trkpt lat="42.95691007997274" lon="13.875833010679782"><ele>8.0</ele><time>2026-04-05T16:05:31.999Z</time></trkpt><trkpt lat="42.95701328606647" lon="13.875813028592683"><ele>7.5</ele><time>2026-04-05T16:05:32.999Z</time></trkpt><trkpt lat="42.95712709280837" lon="13.87578924561981"><ele>7.0</ele><time>2026-04-05T16:05:33.999Z</time></trkpt><trkpt lat="42.95724984794087" lon="13.875763107831823"><ele>6.5</ele><time>2026-04-05T16:05:34.999Z</time></trkpt><trkpt lat="42.95737781862862" lon="13.875732966398296"><ele>6.0</ele><time>2026-04-05T16:05:35.999Z</time></trkpt><trkpt lat="42.95750719478174" lon="13.87570120158217"><ele>6.25</ele><time>2026-04-05T16:05:36.999Z</time></trkpt><trkpt lat="42.95763786370201" lon="13.875667716769973"><ele>6.5</ele><time>2026-04-05T16:05:37.999Z</time></trkpt><trkpt lat="42.95776011619262" lon="13.875635935130191"><ele>6.75</ele><time>2026-04-05T16:05:38.999Z</time></trkpt><trkpt lat="42.957873057171625" lon="13.875606574177798"><ele>7.0</ele><time>2026-04-05T16:05:39.999Z</time></trkpt><trkpt lat="42.95797121570082" lon="13.875581523224254"><ele>7.0</ele><time>2026-04-05T16:05:41Z</time></trkpt><trkpt lat="42.95805353635307" lon="13.875560720170402"><ele>6.999999999999999</ele><time>2026-04-05T16:05:42Z</time></trkpt><trkpt lat="42.95812774786628" lon="13.875541966361233"><ele>6.999999999999999</ele><time>2026-04-05T16:05:43Z</time></trkpt><trkpt lat="42.95824539049148" lon="13.87551220137961"><ele>7.0</ele><time>2026-04-05T16:05:45Z</time></trkpt><trkpt lat="42.95835594537508" lon="13.875484218974284"><ele>7.0</ele><time>2026-04-05T16:05:47Z</time></trkpt><trkpt lat="42.95841951645644" lon="13.87546810074624"><ele>7.000000000000001</ele><time>2026-04-05T16:05:48Z</time></trkpt><trkpt lat="42.95849482900307" lon="13.875448889407819"><ele>7.0</ele><time>2026-04-05T16:05:49Z</time></trkpt><trkpt lat="42.95857969268208" lon="13.875427394307351"><ele>7.0</ele><time>2026-04-05T16:05:50Z</time></trkpt><trkpt lat="42.95866978127046" lon="13.875404550539868"><ele>7.0</ele><time>2026-04-05T16:05:51Z</time></trkpt><trkpt lat="42.958754400349065" lon="13.875383093680803"><ele>7.000000000000001</ele><time>2026-04-05T16:05:52Z</time></trkpt><trkpt lat="42.95882975871172" lon="13.875342961512512"><ele>7.0</ele><time>2026-04-05T16:05:53Z</time></trkpt><trkpt lat="42.95890358257959" lon="13.87532799184698"><ele>7.000000000000001</ele><time>2026-04-05T16:05:54Z</time></trkpt><trkpt lat="42.95898005401943" lon="13.875309964829459"><ele>7.0</ele><time>2026-04-05T16:05:55Z</time></trkpt><trkpt lat="42.959061848124136" lon="13.87529011595794"><ele>7.0</ele><time>2026-04-05T16:05:56Z</time></trkpt><trkpt lat="42.95914728037278" lon="13.8752658562171"><ele>7.0</ele><time>2026-04-05T16:05:57Z</time></trkpt><trkpt lat="42.95923472406008" lon="13.87523998453034"><ele>7.000000000000001</ele><time>2026-04-05T16:05:58Z</time></trkpt><trkpt lat="42.95933088189061" lon="13.87521534131019"><ele>7.0</ele><time>2026-04-05T16:05:59Z</time></trkpt><trkpt lat="42.959422685332534" lon="13.875194105697"><ele>7.333333333333334</ele><time>2026-04-05T16:06:00Z</time></trkpt><trkpt lat="42.959503335265374" lon="13.875171317587222"><ele>7.666666666666667</ele><time>2026-04-05T16:06:01Z</time></trkpt><trkpt lat="42.95957262385423" lon="13.875174824449841"><ele>8.0</ele><time>2026-04-05T16:06:02Z</time></trkpt><trkpt lat="42.9596559761981" lon="13.875177077856048"><ele>8.333333333333334</ele><time>2026-04-05T16:06:04Z</time></trkpt><trkpt lat="42.95967626664498" lon="13.87529554437863"><ele>8.666666666666666</ele><time>2026-04-05T16:06:06Z</time></trkpt><trkpt lat="42.95968716649271" lon="13.875394731101817"><ele>9.0</ele><time>2026-04-05T16:06:08Z</time></trkpt><trkpt lat="42.95969467875257" lon="13.875484024549504"><ele>9.0</ele><time>2026-04-05T16:06:10Z</time></trkpt><trkpt lat="42.959704119502504" lon="13.875597058986857"><ele>9.0</ele><time>2026-04-05T16:06:12Z</time></trkpt><trkpt lat="42.95971166211424" lon="13.87569306749083"><ele>9.0</ele><time>2026-04-05T16:06:13.999Z</time></trkpt><trkpt lat="42.9597258301225" lon="13.8758192820642"><ele>9.0</ele><time>2026-04-05T16:06:16.999Z</time></trkpt><trkpt lat="42.959702701526766" lon="13.87596833751353"><ele>9.0</ele><time>2026-04-05T16:06:18.999Z</time></trkpt><trkpt lat="42.95958198332827" lon="13.876051318380684"><ele>8.5</ele><time>2026-04-05T16:06:20.999Z</time></trkpt><trkpt lat="42.959521029637145" lon="13.876133705866092"><ele>8.0</ele><time>2026-04-05T16:06:21.999Z</time></trkpt><trkpt lat="42.95944888410337" lon="13.87621134394154"><ele>7.5</ele><time>2026-04-05T16:06:22.999Z</time></trkpt><trkpt lat="42.95941366915076" lon="13.876307486829417"><ele>7.0</ele><time>2026-04-05T16:06:23.999Z</time></trkpt><trkpt lat="42.95932897329514" lon="13.876379250518383"><ele>6.5</ele><time>2026-04-05T16:06:24.999Z</time></trkpt><trkpt lat="42.95925823822569" lon="13.876443819361546"><ele>6.0</ele><time>2026-04-05T16:06:25.999Z</time></trkpt><trkpt lat="42.95920462391709" lon="13.876507175019066"><ele>6.0</ele><time>2026-04-05T16:06:26.999Z</time></trkpt><trkpt lat="42.959128458138835" lon="13.876588997876995"><ele>6.0</ele><time>2026-04-05T16:06:28.999Z</time></trkpt><trkpt lat="42.9591627817631" lon="13.876724138005493"><ele>6.0</ele><time>2026-04-05T16:06:30.999Z</time></trkpt><trkpt lat="42.95920352939268" lon="13.876809577891247"><ele>6.0</ele><time>2026-04-05T16:06:32.999Z</time></trkpt><trkpt lat="42.959333314232246" lon="13.876762693757817"><ele>6.0</ele><time>2026-04-05T16:06:34.999Z</time></trkpt><trkpt lat="42.959438267575216" lon="13.876669447397735"><ele>6.0</ele><time>2026-04-05T16:06:36.999Z</time></trkpt><trkpt lat="42.959500955580786" lon="13.876660657039691"><ele>6.0</ele><time>2026-04-05T16:06:37.999Z</time></trkpt><trkpt lat="42.95956044688014" lon="13.876606503734584"><ele>6.0</ele><time>2026-04-05T16:06:38.999Z</time></trkpt><trkpt lat="42.95974045098525" lon="13.876475112197838"><ele>6.0</ele><time>2026-04-05T16:08:55.999Z</time></trkpt><trkpt lat="42.95980318184056" lon="13.876419970131318"><ele>6.0</ele><time>2026-04-05T16:08:56.999Z</time></trkpt><trkpt lat="42.95987566438752" lon="13.876356256073644"><ele>6.0</ele><time>2026-04-05T16:08:57.999Z</time></trkpt><trkpt lat="42.95992964529553" lon="13.876308805409701"><ele>6.0</ele><time>2026-04-05T16:08:58.999Z</time></trkpt><trkpt lat="42.960086107772504" lon="13.87616291251094"><ele>6.0</ele><time>2026-04-05T16:09:00.999Z</time></trkpt><trkpt lat="42.96016794621026" lon="13.876087853589073"><ele>6.0</ele><time>2026-04-05T16:09:01.999Z</time></trkpt><trkpt lat="42.96023750000022" lon="13.87602398808107"><ele>6.0</ele><time>2026-04-05T16:09:02.999Z</time></trkpt><trkpt lat="42.96030640373574" lon="13.875960334155264"><ele>6.5</ele><time>2026-04-05T16:09:03.999Z</time></trkpt><trkpt lat="42.96036887868845" lon="13.875883079958387"><ele>7.0</ele><time>2026-04-05T16:09:04.999Z</time></trkpt><trkpt lat="42.96042955181342" lon="13.875823252572566"><ele>7.5</ele><time>2026-04-05T16:09:05.999Z</time></trkpt><trkpt lat="42.96048409259358" lon="13.875770335974133"><ele>8.0</ele><time>2026-04-05T16:09:06.999Z</time></trkpt><trkpt lat="42.96053336628442" lon="13.875713991519314"><ele>8.5</ele><time>2026-04-05T16:09:07.999Z</time></trkpt><trkpt lat="42.960484915861336" lon="13.87559300491553"><ele>9.0</ele><time>2026-04-05T16:09:09.999Z</time></trkpt><trkpt lat="42.96041196059008" lon="13.87547857851116"><ele>9.0</ele><time>2026-04-05T16:09:11.999Z</time></trkpt><trkpt lat="42.96035249463417" lon="13.875393243680689"><ele>9.0</ele><time>2026-04-05T16:09:13.999Z</time></trkpt><trkpt lat="42.96020476997666" lon="13.8754655946867"><ele>9.0</ele><time>2026-04-05T16:09:16.999Z</time></trkpt><trkpt lat="42.9601479237185" lon="13.875529845987469"><ele>9.0</ele><time>2026-04-05T16:09:17.999Z</time></trkpt><trkpt lat="42.96007753929807" lon="13.875597064389336"><ele>9.0</ele><time>2026-04-05T16:09:18.999Z</time></trkpt><trkpt lat="42.960003962098625" lon="13.875669374575224"><ele>9.0</ele><time>2026-04-05T16:09:19.999Z</time></trkpt><trkpt lat="42.95992619460283" lon="13.875747272851509"><ele>9.0</ele><time>2026-04-05T16:09:20.999Z</time></trkpt><trkpt lat="42.95984462774243" lon="13.875828358096408"><ele>9.0</ele><time>2026-04-05T16:09:21.999Z</time></trkpt><trkpt lat="42.95976227938472" lon="13.87591126068235"><ele>9.0</ele><time>2026-04-05T16:09:22.999Z</time></trkpt><trkpt lat="42.959676487686345" lon="13.875998057975272"><ele>9.0</ele><time>2026-04-05T16:09:23.999Z</time></trkpt><trkpt lat="42.95959234462348" lon="13.876082671033716"><ele>8.4</ele><time>2026-04-05T16:09:24.999Z</time></trkpt><trkpt lat="42.95951177983417" lon="13.87616412072731"><ele>7.800000000000001</ele><time>2026-04-05T16:09:25.999Z</time></trkpt><trkpt lat="42.9594336859298" lon="13.876245682740072"><ele>7.199999999999999</ele><time>2026-04-05T16:09:26.999Z</time></trkpt><trkpt lat="42.95935107980108" lon="13.876329301688838"><ele>6.6</ele><time>2026-04-05T16:09:27.999Z</time></trkpt><trkpt lat="42.95927173586596" lon="13.876410500351861"><ele>6.0</ele><time>2026-04-05T16:09:28.999Z</time></trkpt><trkpt lat="42.95918983696948" lon="13.876493064490466"><ele>6.0</ele><time>2026-04-05T16:09:29.999Z</time></trkpt><trkpt lat="42.959113660604984" lon="13.876578269415338"><ele>6.0</ele><time>2026-04-05T16:09:30.999Z</time></trkpt><trkpt lat="42.959039902543914" lon="13.876658878716484"><ele>6.0</ele><time>2026-04-05T16:09:31.999Z</time></trkpt><trkpt lat="42.95895201604704" lon="13.876740405080309"><ele>6.0</ele><time>2026-04-05T16:09:32.999Z</time></trkpt><trkpt lat="42.958868769216274" lon="13.87682103365913"><ele>6.0</ele><time>2026-04-05T16:09:33.999Z</time></trkpt><trkpt lat="42.958783159264115" lon="13.876893120552824"><ele>6.6</ele><time>2026-04-05T16:09:34.999Z</time></trkpt><trkpt lat="42.958707615170816" lon="13.876978593794632"><ele>7.199999999999999</ele><time>2026-04-05T16:09:35.999Z</time></trkpt><trkpt lat="42.958633225073356" lon="13.877056739829191"><ele>7.800000000000001</ele><time>2026-04-05T16:09:36.999Z</time></trkpt><trkpt lat="42.958557171158326" lon="13.87713596641098"><ele>8.4</ele><time>2026-04-05T16:09:37.999Z</time></trkpt><trkpt lat="42.95847782778509" lon="13.877218648200117"><ele>9.0</ele><time>2026-04-05T16:09:38.999Z</time></trkpt><trkpt lat="42.958398858698274" lon="13.877308931736213"><ele>8.6</ele><time>2026-04-05T16:09:39.999Z</time></trkpt><trkpt lat="42.95831311189089" lon="13.877390683558366"><ele>8.2</ele><time>2026-04-05T16:09:40.998Z</time></trkpt><trkpt lat="42.958224333387214" lon="13.877475811553644"><ele>7.799999999999999</ele><time>2026-04-05T16:09:41.998Z</time></trkpt><trkpt lat="42.95813030228683" lon="13.877541967353501"><ele>7.3999999999999995</ele><time>2026-04-05T16:09:42.998Z</time></trkpt><trkpt lat="42.95802824479826" lon="13.877590553256288"><ele>7.0</ele><time>2026-04-05T16:09:43.998Z</time></trkpt><trkpt lat="42.957915964532276" lon="13.87762050900844"><ele>7.0</ele><time>2026-04-05T16:09:44.998Z</time></trkpt><trkpt lat="42.95780272721463" lon="13.877649685628457"><ele>6.999999999999999</ele><time>2026-04-05T16:09:45.998Z</time></trkpt><trkpt lat="42.957694474130236" lon="13.877685725388263"><ele>6.999999999999999</ele><time>2026-04-05T16:09:46.998Z</time></trkpt><trkpt lat="42.95760108067874" lon="13.87771887515767"><ele>7.0</ele><time>2026-04-05T16:09:47.998Z</time></trkpt><trkpt lat="42.95750681931831" lon="13.87775621491741"><ele>7.0</ele><time>2026-04-05T16:09:48.998Z</time></trkpt><trkpt lat="42.95741027566593" lon="13.877780673869667"><ele>6.833333333333334</ele><time>2026-04-05T16:09:49.998Z</time></trkpt><trkpt lat="42.957323992941014" lon="13.877808016144732"><ele>6.666666666666667</ele><time>2026-04-05T16:09:50.998Z</time></trkpt><trkpt lat="42.957246747536324" lon="13.87782206893701"><ele>6.5</ele><time>2026-04-05T16:09:51.998Z</time></trkpt><trkpt lat="42.957181588975054" lon="13.877846458882512"><ele>6.333333333333334</ele><time>2026-04-05T16:09:52.999Z</time></trkpt><trkpt lat="42.95709541840319" lon="13.877886835299972"><ele>6.166666666666667</ele><time>2026-04-05T16:09:54.999Z</time></trkpt><trkpt lat="42.95702136269148" lon="13.877913434968328"><ele>6.0</ele><time>2026-04-05T16:10:11.999Z</time></trkpt><trkpt lat="42.957024058646105" lon="13.878035126898485"><ele>6.0</ele><time>2026-04-05T16:10:12.999Z</time></trkpt><trkpt lat="42.95703645625623" lon="13.87812023453513"><ele>6.0</ele><time>2026-04-05T16:10:13.999Z</time></trkpt><trkpt lat="42.957057170646664" lon="13.878211001963306"><ele>6.0</ele><time>2026-04-05T16:10:14.999Z</time></trkpt><trkpt lat="42.9570829802482" lon="13.878309680310698"><ele>6.0</ele><time>2026-04-05T16:10:15.999Z</time></trkpt><trkpt lat="42.957107006239696" lon="13.878417562480788"><ele>6.0</ele><time>2026-04-05T16:10:16.999Z</time></trkpt><trkpt lat="42.957129738660086" lon="13.878529977182035"><ele>6.0</ele><time>2026-04-05T16:10:17.999Z</time></trkpt><trkpt lat="42.95715193722097" lon="13.878637827033097"><ele>6.0</ele><time>2026-04-05T16:10:18.999Z</time></trkpt><trkpt lat="42.957168664403575" lon="13.878743594833459"><ele>6.0</ele><time>2026-04-05T16:10:19.999Z</time></trkpt><trkpt lat="42.95718603694332" lon="13.878829865692149"><ele>6.0</ele><time>2026-04-05T16:10:20.999Z</time></trkpt><trkpt lat="42.95720978232929" lon="13.87894480364532"><ele>6.0</ele><time>2026-04-05T16:10:22.999Z</time></trkpt><trkpt lat="42.957222924166054" lon="13.879049144695129"><ele>6.0</ele><time>2026-04-05T16:10:24.999Z</time></trkpt><trkpt lat="42.95724556124651" lon="13.879216159516524"><ele>6.0</ele><time>2026-04-05T16:10:26.999Z</time></trkpt><trkpt lat="42.957265555541575" lon="13.879344348549099"><ele>5.666666666666667</ele><time>2026-04-05T16:10:28.999Z</time></trkpt><trkpt lat="42.9572707032902" lon="13.87943294959006"><ele>5.333333333333333</ele><time>2026-04-05T16:10:31.999Z</time></trkpt><trkpt lat="42.95721812003905" lon="13.87950202260746"><ele>5.0</ele><time>2026-04-05T16:10:33.999Z</time></trkpt><trkpt lat="42.95715723855494" lon="13.879525649155354"><ele>4.666666666666666</ele><time>2026-04-05T16:10:34.999Z</time></trkpt><trkpt lat="42.95704020823228" lon="13.879557916847068"><ele>4.333333333333333</ele><time>2026-04-05T16:10:36.999Z</time></trkpt><trkpt lat="42.956925902101574" lon="13.879597902192122"><ele>4.0</ele><time>2026-04-05T16:10:38.999Z</time></trkpt><trkpt lat="42.956862116722476" lon="13.8796227991044"><ele>4.0</ele><time>2026-04-05T16:10:39.999Z</time></trkpt><trkpt lat="42.956745820064434" lon="13.879668178758875"><ele>4.0</ele><time>2026-04-05T16:10:41.999Z</time></trkpt><trkpt lat="42.95663482886264" lon="13.87971226328066"><ele>4.0</ele><time>2026-04-05T16:10:43.999Z</time></trkpt><trkpt lat="42.95652603617428" lon="13.879758017998206"><ele>4.0</ele><time>2026-04-05T16:10:45.999Z</time></trkpt><trkpt lat="42.95642334380171" lon="13.879811360295315"><ele>4.2</ele><time>2026-04-05T16:10:47.999Z</time></trkpt><trkpt lat="42.95629026906966" lon="13.879850196973884"><ele>4.4</ele><time>2026-04-05T16:10:49.999Z</time></trkpt><trkpt lat="42.95619963916724" lon="13.879884769869216"><ele>4.6</ele><time>2026-04-05T16:10:50.999Z</time></trkpt><trkpt lat="42.95609408293295" lon="13.879925036761907"><ele>4.8</ele><time>2026-04-05T16:10:51.999Z</time></trkpt><trkpt lat="42.955993375735304" lon="13.87996326913097"><ele>5.0</ele><time>2026-04-05T16:10:52.999Z</time></trkpt><trkpt lat="42.955883751464874" lon="13.880025946289988"><ele>5.0</ele><time>2026-04-05T16:10:53.999Z</time></trkpt><trkpt lat="42.95577581353085" lon="13.880063356582355"><ele>5.0</ele><time>2026-04-05T16:10:54.999Z</time></trkpt><trkpt lat="42.95567496629604" lon="13.880095810544084"><ele>5.0</ele><time>2026-04-05T16:10:55.999Z</time></trkpt><trkpt lat="42.95557131703828" lon="13.880139598629944"><ele>5.0</ele><time>2026-04-05T16:10:56.999Z</time></trkpt><trkpt lat="42.95545819562771" lon="13.880173005991436"><ele>5.0</ele><time>2026-04-05T16:10:57.999Z</time></trkpt><trkpt lat="42.95535150320315" lon="13.880201897029238"><ele>4.833333333333334</ele><time>2026-04-05T16:10:58.999Z</time></trkpt><trkpt lat="42.955245819349564" lon="13.880239597658043"><ele>4.666666666666667</ele><time>2026-04-05T16:10:59.999Z</time></trkpt><trkpt lat="42.95515531860655" lon="13.880270452566908"><ele>4.5</ele><time>2026-04-05T16:11:00.999Z</time></trkpt><trkpt lat="42.955076156452165" lon="13.88029020318322"><ele>4.333333333333333</ele><time>2026-04-05T16:11:01.999Z</time></trkpt><trkpt lat="42.95500194404676" lon="13.880312298450566"><ele>4.166666666666666</ele><time>2026-04-05T16:11:02.999Z</time></trkpt><trkpt lat="42.954933856153794" lon="13.8803419184949"><ele>4.0</ele><time>2026-04-05T16:11:03.999Z</time></trkpt><trkpt lat="42.95483972221862" lon="13.880391957482617"><ele>4.4</ele><time>2026-04-05T16:11:05.999Z</time></trkpt><trkpt lat="42.95471694643726" lon="13.880448315478953"><ele>4.800000000000001</ele><time>2026-04-05T16:11:07.999Z</time></trkpt><trkpt lat="42.95464001952998" lon="13.880474811166724"><ele>5.199999999999999</ele><time>2026-04-05T16:11:08.999Z</time></trkpt><trkpt lat="42.95455570804947" lon="13.880497015034713"><ele>5.6</ele><time>2026-04-05T16:11:09.999Z</time></trkpt><trkpt lat="42.95446451456404" lon="13.88052071535801"><ele>6.0</ele><time>2026-04-05T16:11:10.999Z</time></trkpt><trkpt lat="42.95437468062005" lon="13.880549757671085"><ele>6.0</ele><time>2026-04-05T16:11:11.999Z</time></trkpt><trkpt lat="42.95429326916183" lon="13.880572446849307"><ele>6.0</ele><time>2026-04-05T16:11:12.999Z</time></trkpt><trkpt lat="42.954218901708245" lon="13.880596501322254"><ele>6.0</ele><time>2026-04-05T16:11:13.999Z</time></trkpt><trkpt lat="42.9541164699356" lon="13.880635513979842"><ele>6.0</ele><time>2026-04-05T16:11:15.999Z</time></trkpt><trkpt lat="42.954070867120556" lon="13.880750327691713"><ele>6.0</ele><time>2026-04-05T16:11:25.999Z</time></trkpt><trkpt lat="42.954083592153715" lon="13.88089021622085"><ele>5.833333333333333</ele><time>2026-04-05T16:11:27.999Z</time></trkpt><trkpt lat="42.95410347403063" lon="13.880982674670811"><ele>5.666666666666667</ele><time>2026-04-05T16:11:28.999Z</time></trkpt><trkpt lat="42.954126111292766" lon="13.881088289979221"><ele>5.5</ele><time>2026-04-05T16:11:29.999Z</time></trkpt><trkpt lat="42.954152519669044" lon="13.881203582018662"><ele>5.333333333333334</ele><time>2026-04-05T16:11:31.999Z</time></trkpt><trkpt lat="42.9540837830473" lon="13.881258361874494"><ele>5.166666666666667</ele><time>2026-04-05T16:11:33.999Z</time></trkpt><trkpt lat="42.95398267851726" lon="13.881270781926203"><ele>5.0</ele><time>2026-04-05T16:11:34.999Z</time></trkpt><trkpt lat="42.95390270170409" lon="13.881321575006963"><ele>5.0</ele><time>2026-04-05T16:11:35.999Z</time></trkpt><trkpt lat="42.95379817478451" lon="13.881358090229092"><ele>5.0</ele><time>2026-04-05T16:11:36.999Z</time></trkpt><trkpt lat="42.953678756735194" lon="13.881389238763184"><ele>5.0</ele><time>2026-04-05T16:11:37.999Z</time></trkpt><trkpt lat="42.95357348379531" lon="13.88142928759606"><ele>5.0</ele><time>2026-04-05T16:11:38.999Z</time></trkpt><trkpt lat="42.95345796440675" lon="13.881472138526703"><ele>5.2</ele><time>2026-04-05T16:11:39.999Z</time></trkpt><trkpt lat="42.95336701040466" lon="13.881491282659681"><ele>5.4</ele><time>2026-04-05T16:11:40.999Z</time></trkpt><trkpt lat="42.95327182970101" lon="13.881535499128226"><ele>5.6</ele><time>2026-04-05T16:11:41.999Z</time></trkpt><trkpt lat="42.95317748315792" lon="13.881569527646283"><ele>5.8</ele><time>2026-04-05T16:11:42.999Z</time></trkpt><trkpt lat="42.95309271501844" lon="13.881605891884513"><ele>6.0</ele><time>2026-04-05T16:11:43.999Z</time></trkpt><trkpt lat="42.953019890833865" lon="13.881637968781819"><ele>6.0</ele><time>2026-04-05T16:11:44.999Z</time></trkpt><trkpt lat="42.95295743058581" lon="13.881663993376625"><ele>6.0</ele><time>2026-04-05T16:11:45.999Z</time></trkpt><trkpt lat="42.95288867436792" lon="13.881691574577921"><ele>6.0</ele><time>2026-04-05T16:11:47.999Z</time></trkpt><trkpt lat="42.95288324599183" lon="13.881809100192644"><ele>6.0</ele><time>2026-04-05T16:11:49.999Z</time></trkpt><trkpt lat="42.95292928105533" lon="13.881909993242749"><ele>6.0</ele><time>2026-04-05T16:11:50.999Z</time></trkpt><trkpt lat="42.952952427507405" lon="13.882041444253343"><ele>6.0</ele><time>2026-04-05T16:11:51.999Z</time></trkpt><trkpt lat="42.95297193821562" lon="13.882144040597918"><ele>5.833333333333333</ele><time>2026-04-05T16:11:52.999Z</time></trkpt><trkpt lat="42.95299026636985" lon="13.882232677287492"><ele>5.666666666666667</ele><time>2026-04-05T16:11:53.999Z</time></trkpt><trkpt lat="42.95299437238088" lon="13.882322737644518"><ele>5.5</ele><time>2026-04-05T16:11:55.999Z</time></trkpt><trkpt lat="42.952905697044486" lon="13.882369049077054"><ele>5.333333333333334</ele><time>2026-04-05T16:11:56.999Z</time></trkpt><trkpt lat="42.95282810040439" lon="13.88238801008742"><ele>5.166666666666667</ele><time>2026-04-05T16:11:57.999Z</time></trkpt><trkpt lat="42.952752218936766" lon="13.882409873462745"><ele>5.0</ele><time>2026-04-05T16:11:59Z</time></trkpt><trkpt lat="42.952668053532825" lon="13.88246799738265"><ele>5.0</ele><time>2026-04-05T16:12:01Z</time></trkpt><trkpt lat="42.95260551354372" lon="13.882487788033362"><ele>5.0</ele><time>2026-04-05T16:12:03Z</time></trkpt><trkpt lat="42.952636388059865" lon="13.882692881336189"><ele>5.0</ele><time>2026-04-05T16:12:04Z</time></trkpt><trkpt lat="42.952669249428205" lon="13.88281106011166"><ele>5.0</ele><time>2026-04-05T16:12:05Z</time></trkpt><trkpt lat="42.95271236906076" lon="13.88296827505698"><ele>5.0</ele><time>2026-04-05T16:12:06Z</time></trkpt><trkpt lat="42.952747657798064" lon="13.883076687408309"><ele>5.0</ele><time>2026-04-05T16:12:07Z</time></trkpt><trkpt lat="42.952775513153156" lon="13.88320392810792"><ele>5.0</ele><time>2026-04-05T16:12:08Z</time></trkpt><trkpt lat="42.95278167747073" lon="13.88336343535142"><ele>5.0</ele><time>2026-04-05T16:12:09Z</time></trkpt><trkpt lat="42.95281090145697" lon="13.883490752397224"><ele>5.0</ele><time>2026-04-05T16:12:10Z</time></trkpt><trkpt lat="42.95284655246311" lon="13.883601920889596"><ele>5.0</ele><time>2026-04-05T16:12:11Z</time></trkpt><trkpt lat="42.952873565474086" lon="13.883718223296587"><ele>5.0</ele><time>2026-04-05T16:12:12Z</time></trkpt><trkpt lat="42.952898640099804" lon="13.88382977465408"><ele>5.0</ele><time>2026-04-05T16:12:13Z</time></trkpt><trkpt lat="42.952925840093684" lon="13.883936303079109"><ele>5.0</ele><time>2026-04-05T16:12:14Z</time></trkpt><trkpt lat="42.95295279735644" lon="13.884026278951788"><ele>5.0</ele><time>2026-04-05T16:12:15Z</time></trkpt><trkpt lat="42.952990850973244" lon="13.884162922026643"><ele>5.0</ele><time>2026-04-05T16:12:17Z</time></trkpt><trkpt lat="42.9530109308128" lon="13.884262777409827"><ele>5.0</ele><time>2026-04-05T16:12:18.999Z</time></trkpt><trkpt lat="42.95304106297773" lon="13.884350491881056"><ele>4.833333333333334</ele><time>2026-04-05T16:12:20.999Z</time></trkpt><trkpt lat="42.953053796297894" lon="13.884456816803334"><ele>4.666666666666667</ele><time>2026-04-05T16:12:23.999Z</time></trkpt><trkpt lat="42.953070633765805" lon="13.884571647088709"><ele>4.5</ele><time>2026-04-05T16:12:27.999Z</time></trkpt><trkpt lat="42.953111902331564" lon="13.884664784914708"><ele>4.333333333333333</ele><time>2026-04-05T16:12:31.999Z</time></trkpt><trkpt lat="42.95314453624225" lon="13.884801422148998"><ele>4.166666666666666</ele><time>2026-04-05T16:12:33.999Z</time></trkpt><trkpt lat="42.95316374326879" lon="13.884896048411417"><ele>4.0</ele><time>2026-04-05T16:12:34.999Z</time></trkpt><trkpt lat="42.953201960806425" lon="13.88502644699901"><ele>3.6</ele><time>2026-04-05T16:12:35.999Z</time></trkpt><trkpt lat="42.95322412395943" lon="13.885152707498882"><ele>3.2</ele><time>2026-04-05T16:12:36.999Z</time></trkpt><trkpt lat="42.95323233228858" lon="13.885290089151251"><ele>2.8000000000000003</ele><time>2026-04-05T16:12:37.999Z</time></trkpt><trkpt lat="42.95323686727815" lon="13.885419958676163"><ele>2.4000000000000004</ele><time>2026-04-05T16:12:38.999Z</time></trkpt><trkpt lat="42.95325555139748" lon="13.885550726643375"><ele>2.0</ele><time>2026-04-05T16:12:39.999Z</time></trkpt><trkpt lat="42.95327127218544" lon="13.885645223670306"><ele>1.9999999999999998</ele><time>2026-04-05T16:12:40.999Z</time></trkpt><trkpt lat="42.95328839506215" lon="13.88573741672708"><ele>2.0</ele><time>2026-04-05T16:12:41.999Z</time></trkpt><trkpt lat="42.95330710442982" lon="13.885829823314657"><ele>2.0</ele><time>2026-04-05T16:12:42.999Z</time></trkpt><trkpt lat="42.95331883868523" lon="13.885927177196844"><ele>2.0</ele><time>2026-04-05T16:12:43.999Z</time></trkpt><trkpt lat="42.95329472126754" lon="13.886087363925611"><ele>1.9999999999999998</ele><time>2026-04-05T16:12:45.999Z</time></trkpt><trkpt lat="42.95325902248619" lon="13.886168567573526"><ele>2.0</ele><time>2026-04-05T16:12:46.999Z</time></trkpt><trkpt lat="42.95321062229202" lon="13.88623469716413"><ele>1.6666666666666665</ele><time>2026-04-05T16:12:47.999Z</time></trkpt><trkpt lat="42.953147197508386" lon="13.886304715856548"><ele>1.3333333333333333</ele><time>2026-04-05T16:12:48.999Z</time></trkpt><trkpt lat="42.95307807235116" lon="13.886364320825574"><ele>1.0</ele><time>2026-04-05T16:12:49.999Z</time></trkpt><trkpt lat="42.953003875551694" lon="13.886405611347767"><ele>0.6666666666666666</ele><time>2026-04-05T16:12:50.999Z</time></trkpt><trkpt lat="42.952923159497004" lon="13.8864377619315"><ele>0.3333333333333333</ele><time>2026-04-05T16:12:51.999Z</time></trkpt><trkpt lat="42.95285131008929" lon="13.88646812956754"><ele>0.0</ele><time>2026-04-05T16:12:52.999Z</time></trkpt><trkpt lat="42.952773028955065" lon="13.88650596606595"><ele>0.0</ele><time>2026-04-05T16:12:54.999Z</time></trkpt><trkpt lat="42.952704241370206" lon="13.886532534130593"><ele>0.0</ele><time>2026-04-05T16:12:56.999Z</time></trkpt><trkpt lat="42.952600963989035" lon="13.886582216480825"><ele>0.0</ele><time>2026-04-05T16:12:58.999Z</time></trkpt><trkpt lat="42.95251462648921" lon="13.88662559784359"><ele>0.0</ele><time>2026-04-05T16:13:00.999Z</time></trkpt><trkpt lat="42.952444193611704" lon="13.886674807767022"><ele>0.0</ele><time>2026-04-05T16:13:02.999Z</time></trkpt><trkpt lat="42.95237506027018" lon="13.886770447714305"><ele>0.6</ele><time>2026-04-05T16:13:04.999Z</time></trkpt><trkpt lat="42.95232041740947" lon="13.886908678384927"><ele>1.2</ele><time>2026-04-05T16:13:06.999Z</time></trkpt><trkpt lat="42.95227779179527" lon="13.887061553388385"><ele>1.7999999999999998</ele><time>2026-04-05T16:13:08.999Z</time></trkpt><trkpt lat="42.95225879643816" lon="13.887194848623459"><ele>2.4</ele><time>2026-04-05T16:13:10.999Z</time></trkpt><trkpt lat="42.952256705276085" lon="13.887319682701703"><ele>3.0</ele><time>2026-04-05T16:13:12.999Z</time></trkpt><trkpt lat="42.952245610883985" lon="13.88740992061449"><ele>3.0</ele><time>2026-04-05T16:13:13.999Z</time></trkpt><trkpt lat="42.95222571071202" lon="13.88751677006594"><ele>3.0</ele><time>2026-04-05T16:13:14.999Z</time></trkpt><trkpt lat="42.95221115817973" lon="13.887636312497925"><ele>3.0</ele><time>2026-04-05T16:13:15.999Z</time></trkpt><trkpt lat="42.952192161329585" lon="13.887772736306129"><ele>3.0</ele><time>2026-04-05T16:13:16.999Z</time></trkpt><trkpt lat="42.95215553568893" lon="13.887906923384959"><ele>3.0</ele><time>2026-04-05T16:13:17.999Z</time></trkpt><trkpt lat="42.95215538175684" lon="13.888053430699795"><ele>2.6</ele><time>2026-04-05T16:13:18.999Z</time></trkpt><trkpt lat="42.95213670792642" lon="13.888188905392672"><ele>2.1999999999999997</ele><time>2026-04-05T16:13:19.999Z</time></trkpt><trkpt lat="42.95212002937546" lon="13.888320805880968"><ele>1.8</ele><time>2026-04-05T16:13:20.999Z</time></trkpt><trkpt lat="42.952102136933675" lon="13.888448014420257"><ele>1.4</ele><time>2026-04-05T16:13:21.999Z</time></trkpt><trkpt lat="42.952086546204754" lon="13.888563876428098"><ele>1.0</ele><time>2026-04-05T16:13:22.999Z</time></trkpt><trkpt lat="42.95207020153603" lon="13.88867572611539"><ele>0.9999999999999999</ele><time>2026-04-05T16:13:23.999Z</time></trkpt><trkpt lat="42.95205117295462" lon="13.888785142945808"><ele>1.0</ele><time>2026-04-05T16:13:24.999Z</time></trkpt><trkpt lat="42.9520265024902" lon="13.888884706410403"><ele>1.0</ele><time>2026-04-05T16:13:25.999Z</time></trkpt><trkpt lat="42.95199655849287" lon="13.88897368675585"><ele>1.0</ele><time>2026-04-05T16:13:26.999Z</time></trkpt><trkpt lat="42.95190465749421" lon="13.889079068636905"><ele>0.9999999999999999</ele><time>2026-04-05T16:13:28.999Z</time></trkpt><trkpt lat="42.951833875321796" lon="13.889144944258067"><ele>1.0</ele><time>2026-04-05T16:13:30.999Z</time></trkpt><trkpt lat="42.95183959464804" lon="13.889318365713692"><ele>0.8</ele><time>2026-04-05T16:13:32.999Z</time></trkpt><trkpt lat="42.95192770036909" lon="13.889381627022034"><ele>0.6000000000000001</ele><time>2026-04-05T16:13:34.999Z</time></trkpt><trkpt lat="42.95204052564797" lon="13.889433576951241"><ele>0.4</ele><time>2026-04-05T16:13:36.999Z</time></trkpt><trkpt lat="42.95215082746639" lon="13.88948427521135"><ele>0.2</ele><time>2026-04-05T16:13:38.999Z</time></trkpt><trkpt lat="42.9522349619746" lon="13.889516492145965"><ele>0.0</ele><time>2026-04-05T16:13:40.999Z</time></trkpt><trkpt lat="42.952303995594214" lon="13.889545073570961"><ele>0.0</ele><time>2026-04-05T16:13:42.999Z</time></trkpt><trkpt lat="42.952362283203584" lon="13.889581177054865"><ele>0.0</ele><time>2026-04-05T16:13:45.999Z</time></trkpt><trkpt lat="42.952458156880645" lon="13.889618843555965"><ele>0.0</ele><time>2026-04-05T16:13:50.999Z</time></trkpt><trkpt lat="42.95253460682618" lon="13.889668648749865"><ele>0.0</ele><time>2026-04-05T16:13:52.999Z</time></trkpt><trkpt lat="42.95261756016618" lon="13.889697287030561"><ele>0.0</ele><time>2026-04-05T16:13:54.999Z</time></trkpt><trkpt lat="42.952691731873884" lon="13.889744454277968"><ele>0.0</ele><time>2026-04-05T16:13:56.999Z</time></trkpt><trkpt lat="42.95276644567088" lon="13.889754261090179"><ele>1.0</ele><time>2026-04-05T16:14:01.999Z</time></trkpt><trkpt lat="42.95283275307362" lon="13.889777733049497"><ele>1.0</ele><time>2026-04-05T16:14:05Z</time></trkpt><trkpt lat="42.95289998590653" lon="13.889780751857423"><ele>1.0</ele><time>2026-04-05T16:14:08Z</time></trkpt><trkpt lat="42.95295332219598" lon="13.889835136136366"><ele>1.0</ele><time>2026-04-05T16:14:12Z</time></trkpt></trkseg></trk></gpx>